<?xml version="1.0" encoding="UTF-8" standalone="no" ?>
<gpx xmlns="http://www.topografix.com/GPX/1/1" xmlns:xsi="http://www.w3.org/2001/XMLSchema-instance" xsi:schemaLocation="http://www.topografix.com/GPX/1/1 http://www.topografix.com/GPX/1/1/gpx.xsd" version="1.1" creator="VisuGPX - https://www.visugpx.com">
  <metadata>
    <name>camino 2012 3eme étape</name>
    <desc><![CDATA[stage vtt par étapes sur 4 jours en Ardèche.
3eme étape:
Départ Loubaresse- Arrivé Chames .]]></desc>
  </metadata>
  <trk>
    <name><![CDATA[camino art des choix 3eme etape]]></name>
    <trkseg>
      <trkpt lat="44.52649" lon="4.02755">
        <ele>1049.8000488281</ele>
        <time>2012-05-19T06:39:33.000Z</time>
      </trkpt>
      <trkpt lat="44.5265" lon="4.02754">
        <ele>1049.8000488281</ele>
        <time>2012-05-19T06:39:45.000Z</time>
      </trkpt>
      <trkpt lat="44.52648" lon="4.02751">
        <ele>1050.1999511719</ele>
        <time>2012-05-19T06:39:50.000Z</time>
      </trkpt>
      <trkpt lat="44.52649" lon="4.02749">
        <ele>1050.1999511719</ele>
        <time>2012-05-19T06:39:55.000Z</time>
      </trkpt>
      <trkpt lat="44.5265" lon="4.02747">
        <ele>1050.1999511719</ele>
        <time>2012-05-19T06:39:57.000Z</time>
      </trkpt>
      <trkpt lat="44.52652" lon="4.02746">
        <ele>1050</ele>
        <time>2012-05-19T06:39:59.000Z</time>
      </trkpt>
      <trkpt lat="44.52662" lon="4.02737">
        <ele>1050</ele>
        <time>2012-05-19T06:40:05.000Z</time>
      </trkpt>
      <trkpt lat="44.52672" lon="4.02729">
        <ele>1050</ele>
        <time>2012-05-19T06:40:10.000Z</time>
      </trkpt>
      <trkpt lat="44.52686" lon="4.02723">
        <ele>1050.1999511719</ele>
        <time>2012-05-19T06:40:15.000Z</time>
      </trkpt>
      <trkpt lat="44.52705" lon="4.02716">
        <ele>1050.4000244141</ele>
        <time>2012-05-19T06:40:22.000Z</time>
      </trkpt>
      <trkpt lat="44.52723" lon="4.02706">
        <ele>1050.4000244141</ele>
        <time>2012-05-19T06:40:28.000Z</time>
      </trkpt>
      <trkpt lat="44.52726" lon="4.02705">
        <ele>1050.4000244141</ele>
        <time>2012-05-19T06:40:29.000Z</time>
      </trkpt>
      <trkpt lat="44.52745" lon="4.02698">
        <ele>1050</ele>
        <time>2012-05-19T06:40:35.000Z</time>
      </trkpt>
      <trkpt lat="44.52764" lon="4.02691">
        <ele>1050.4000244141</ele>
        <time>2012-05-19T06:40:41.000Z</time>
      </trkpt>
      <trkpt lat="44.5277" lon="4.02688">
        <ele>1050.4000244141</ele>
        <time>2012-05-19T06:40:43.000Z</time>
      </trkpt>
      <trkpt lat="44.52789" lon="4.02682">
        <ele>1050.8000488281</ele>
        <time>2012-05-19T06:40:49.000Z</time>
      </trkpt>
      <trkpt lat="44.52795" lon="4.02678">
        <ele>1050.8000488281</ele>
        <time>2012-05-19T06:40:51.000Z</time>
      </trkpt>
      <trkpt lat="44.5281" lon="4.02674">
        <ele>1051</ele>
        <time>2012-05-19T06:40:56.000Z</time>
      </trkpt>
      <trkpt lat="44.52828" lon="4.02666">
        <ele>1051</ele>
        <time>2012-05-19T06:41:02.000Z</time>
      </trkpt>
      <trkpt lat="44.52839" lon="4.02661">
        <ele>1051.1999511719</ele>
        <time>2012-05-19T06:41:06.000Z</time>
      </trkpt>
      <trkpt lat="44.52858" lon="4.02654">
        <ele>1051.8000488281</ele>
        <time>2012-05-19T06:41:13.000Z</time>
      </trkpt>
      <trkpt lat="44.52869" lon="4.0265">
        <ele>1052</ele>
        <time>2012-05-19T06:41:17.000Z</time>
      </trkpt>
      <trkpt lat="44.52889" lon="4.02643">
        <ele>1052.5999755859</ele>
        <time>2012-05-19T06:41:24.000Z</time>
      </trkpt>
      <trkpt lat="44.52903" lon="4.02638">
        <ele>1052.8000488281</ele>
        <time>2012-05-19T06:41:29.000Z</time>
      </trkpt>
      <trkpt lat="44.52921" lon="4.02633">
        <ele>1052.5999755859</ele>
        <time>2012-05-19T06:41:37.000Z</time>
      </trkpt>
      <trkpt lat="44.52926" lon="4.0263">
        <ele>1052</ele>
        <time>2012-05-19T06:41:39.000Z</time>
      </trkpt>
      <trkpt lat="44.52944" lon="4.02618">
        <ele>1050.1999511719</ele>
        <time>2012-05-19T06:41:46.000Z</time>
      </trkpt>
      <trkpt lat="44.5296" lon="4.02602">
        <ele>1049.5999755859</ele>
        <time>2012-05-19T06:41:52.000Z</time>
      </trkpt>
      <trkpt lat="44.52969" lon="4.02593">
        <ele>1049.5999755859</ele>
        <time>2012-05-19T06:41:55.000Z</time>
      </trkpt>
      <trkpt lat="44.52985" lon="4.02576">
        <ele>1050</ele>
        <time>2012-05-19T06:42:01.000Z</time>
      </trkpt>
      <trkpt lat="44.52995" lon="4.02566">
        <ele>1050.1999511719</ele>
        <time>2012-05-19T06:42:04.000Z</time>
      </trkpt>
      <trkpt lat="44.53009" lon="4.02551">
        <ele>1050.4000244141</ele>
        <time>2012-05-19T06:42:08.000Z</time>
      </trkpt>
      <trkpt lat="44.53021" lon="4.02539">
        <ele>1050.5999755859</ele>
        <time>2012-05-19T06:42:11.000Z</time>
      </trkpt>
      <trkpt lat="44.53038" lon="4.02523">
        <ele>1050.8000488281</ele>
        <time>2012-05-19T06:42:15.000Z</time>
      </trkpt>
      <trkpt lat="44.53054" lon="4.02509">
        <ele>1051.1999511719</ele>
        <time>2012-05-19T06:42:19.000Z</time>
      </trkpt>
      <trkpt lat="44.5307" lon="4.02497">
        <ele>1051.4000244141</ele>
        <time>2012-05-19T06:42:23.000Z</time>
      </trkpt>
      <trkpt lat="44.5309" lon="4.02485">
        <ele>1051.5999755859</ele>
        <time>2012-05-19T06:42:28.000Z</time>
      </trkpt>
      <trkpt lat="44.53109" lon="4.02474">
        <ele>1052.1999511719</ele>
        <time>2012-05-19T06:42:33.000Z</time>
      </trkpt>
      <trkpt lat="44.53129" lon="4.02465">
        <ele>1052.1999511719</ele>
        <time>2012-05-19T06:42:38.000Z</time>
      </trkpt>
      <trkpt lat="44.53148" lon="4.02457">
        <ele>1052</ele>
        <time>2012-05-19T06:42:43.000Z</time>
      </trkpt>
      <trkpt lat="44.53158" lon="4.02453">
        <ele>1051.8000488281</ele>
        <time>2012-05-19T06:42:46.000Z</time>
      </trkpt>
      <trkpt lat="44.53176" lon="4.02447">
        <ele>1051.1999511719</ele>
        <time>2012-05-19T06:42:51.000Z</time>
      </trkpt>
      <trkpt lat="44.53185" lon="4.02442">
        <ele>1050.5999755859</ele>
        <time>2012-05-19T06:42:53.000Z</time>
      </trkpt>
      <trkpt lat="44.53207" lon="4.02429">
        <ele>1049.8000488281</ele>
        <time>2012-05-19T06:42:57.000Z</time>
      </trkpt>
      <trkpt lat="44.53213" lon="4.02424">
        <ele>1049.5999755859</ele>
        <time>2012-05-19T06:42:58.000Z</time>
      </trkpt>
      <trkpt lat="44.53234" lon="4.02409">
        <ele>1048.5999755859</ele>
        <time>2012-05-19T06:43:01.000Z</time>
      </trkpt>
      <trkpt lat="44.53249" lon="4.02397">
        <ele>1047.8000488281</ele>
        <time>2012-05-19T06:43:03.000Z</time>
      </trkpt>
      <trkpt lat="44.53266" lon="4.02385">
        <ele>1046.8000488281</ele>
        <time>2012-05-19T06:43:05.000Z</time>
      </trkpt>
      <trkpt lat="44.53282" lon="4.02372">
        <ele>1045.8000488281</ele>
        <time>2012-05-19T06:43:07.000Z</time>
      </trkpt>
      <trkpt lat="44.53298" lon="4.02358">
        <ele>1045</ele>
        <time>2012-05-19T06:43:09.000Z</time>
      </trkpt>
      <trkpt lat="44.53306" lon="4.02354">
        <ele>1044.5999755859</ele>
        <time>2012-05-19T06:43:10.000Z</time>
      </trkpt>
      <trkpt lat="44.53332" lon="4.0235">
        <ele>1042.4000244141</ele>
        <time>2012-05-19T06:43:13.000Z</time>
      </trkpt>
      <trkpt lat="44.5335" lon="4.02355">
        <ele>1040.8000488281</ele>
        <time>2012-05-19T06:43:15.000Z</time>
      </trkpt>
      <trkpt lat="44.53358" lon="4.02356">
        <ele>1040</ele>
        <time>2012-05-19T06:43:16.000Z</time>
      </trkpt>
      <trkpt lat="44.53367" lon="4.02358">
        <ele>1039.1999511719</ele>
        <time>2012-05-19T06:43:17.000Z</time>
      </trkpt>
      <trkpt lat="44.53391" lon="4.02367">
        <ele>1037</ele>
        <time>2012-05-19T06:43:20.000Z</time>
      </trkpt>
      <trkpt lat="44.53404" lon="4.02375">
        <ele>1036</ele>
        <time>2012-05-19T06:43:22.000Z</time>
      </trkpt>
      <trkpt lat="44.53409" lon="4.0238">
        <ele>1035.5999755859</ele>
        <time>2012-05-19T06:43:23.000Z</time>
      </trkpt>
      <trkpt lat="44.53422" lon="4.02393">
        <ele>1034.5999755859</ele>
        <time>2012-05-19T06:43:26.000Z</time>
      </trkpt>
      <trkpt lat="44.53427" lon="4.02398">
        <ele>1034.5999755859</ele>
        <time>2012-05-19T06:43:28.000Z</time>
      </trkpt>
      <trkpt lat="44.53426" lon="4.02403">
        <ele>1034.5999755859</ele>
        <time>2012-05-19T06:43:29.000Z</time>
      </trkpt>
      <trkpt lat="44.5342" lon="4.0242">
        <ele>1034.8000488281</ele>
        <time>2012-05-19T06:43:33.000Z</time>
      </trkpt>
      <trkpt lat="44.5342" lon="4.02425">
        <ele>1034.4000244141</ele>
        <time>2012-05-19T06:43:34.000Z</time>
      </trkpt>
      <trkpt lat="44.53422" lon="4.02451">
        <ele>1033</ele>
        <time>2012-05-19T06:43:38.000Z</time>
      </trkpt>
      <trkpt lat="44.53422" lon="4.02458">
        <ele>1032.5999755859</ele>
        <time>2012-05-19T06:43:39.000Z</time>
      </trkpt>
      <trkpt lat="44.53426" lon="4.02488">
        <ele>1031.1999511719</ele>
        <time>2012-05-19T06:43:43.000Z</time>
      </trkpt>
      <trkpt lat="44.53428" lon="4.02506">
        <ele>1030.5999755859</ele>
        <time>2012-05-19T06:43:45.000Z</time>
      </trkpt>
      <trkpt lat="44.53427" lon="4.02527">
        <ele>1029.4000244141</ele>
        <time>2012-05-19T06:43:47.000Z</time>
      </trkpt>
      <trkpt lat="44.53424" lon="4.02536">
        <ele>1028.8000488281</ele>
        <time>2012-05-19T06:43:48.000Z</time>
      </trkpt>
      <trkpt lat="44.53414" lon="4.02564">
        <ele>1026.8000488281</ele>
        <time>2012-05-19T06:43:51.000Z</time>
      </trkpt>
      <trkpt lat="44.53402" lon="4.02592">
        <ele>1024.8000488281</ele>
        <time>2012-05-19T06:43:54.000Z</time>
      </trkpt>
      <trkpt lat="44.53392" lon="4.0262">
        <ele>1022.200012207</ele>
        <time>2012-05-19T06:43:57.000Z</time>
      </trkpt>
      <trkpt lat="44.53389" lon="4.0263">
        <ele>1021.200012207</ele>
        <time>2012-05-19T06:43:58.000Z</time>
      </trkpt>
      <trkpt lat="44.53386" lon="4.02639">
        <ele>1020.4000244141</ele>
        <time>2012-05-19T06:43:59.000Z</time>
      </trkpt>
      <trkpt lat="44.53381" lon="4.02657">
        <ele>1018.5999755859</ele>
        <time>2012-05-19T06:44:02.000Z</time>
      </trkpt>
      <trkpt lat="44.53388" lon="4.02666">
        <ele>1018.4000244141</ele>
        <time>2012-05-19T06:44:05.000Z</time>
      </trkpt>
      <trkpt lat="44.53392" lon="4.02668">
        <ele>1018.5999755859</ele>
        <time>2012-05-19T06:44:06.000Z</time>
      </trkpt>
      <trkpt lat="44.53396" lon="4.02666">
        <ele>1018.799987793</ele>
        <time>2012-05-19T06:44:07.000Z</time>
      </trkpt>
      <trkpt lat="44.53404" lon="4.02664">
        <ele>1019.4000244141</ele>
        <time>2012-05-19T06:44:09.000Z</time>
      </trkpt>
      <trkpt lat="44.53424" lon="4.02658">
        <ele>1021</ele>
        <time>2012-05-19T06:44:15.000Z</time>
      </trkpt>
      <trkpt lat="44.53427" lon="4.02657">
        <ele>1021.4000244141</ele>
        <time>2012-05-19T06:44:16.000Z</time>
      </trkpt>
      <trkpt lat="44.53439" lon="4.02654">
        <ele>1022.200012207</ele>
        <time>2012-05-19T06:44:22.000Z</time>
      </trkpt>
      <trkpt lat="44.53447" lon="4.02657">
        <ele>1022.5999755859</ele>
        <time>2012-05-19T06:44:26.000Z</time>
      </trkpt>
      <trkpt lat="44.53449" lon="4.0266">
        <ele>1022.4000244141</ele>
        <time>2012-05-19T06:44:27.000Z</time>
      </trkpt>
      <trkpt lat="44.5345" lon="4.02665">
        <ele>1022</ele>
        <time>2012-05-19T06:44:28.000Z</time>
      </trkpt>
      <trkpt lat="44.53452" lon="4.0268">
        <ele>1022.5999755859</ele>
        <time>2012-05-19T06:44:31.000Z</time>
      </trkpt>
      <trkpt lat="44.53453" lon="4.0271">
        <ele>1023.799987793</ele>
        <time>2012-05-19T06:44:37.000Z</time>
      </trkpt>
      <trkpt lat="44.53448" lon="4.02726">
        <ele>1023.799987793</ele>
        <time>2012-05-19T06:44:40.000Z</time>
      </trkpt>
      <trkpt lat="44.53443" lon="4.02732">
        <ele>1023.200012207</ele>
        <time>2012-05-19T06:44:42.000Z</time>
      </trkpt>
      <trkpt lat="44.53425" lon="4.02749">
        <ele>1021.200012207</ele>
        <time>2012-05-19T06:44:47.000Z</time>
      </trkpt>
      <trkpt lat="44.53417" lon="4.02755">
        <ele>1020.5999755859</ele>
        <time>2012-05-19T06:44:49.000Z</time>
      </trkpt>
      <trkpt lat="44.534" lon="4.02768">
        <ele>1021</ele>
        <time>2012-05-19T06:44:53.000Z</time>
      </trkpt>
      <trkpt lat="44.53395" lon="4.02771">
        <ele>1020.799987793</ele>
        <time>2012-05-19T06:44:54.000Z</time>
      </trkpt>
      <trkpt lat="44.53381" lon="4.02779">
        <ele>1020.4000244141</ele>
        <time>2012-05-19T06:44:57.000Z</time>
      </trkpt>
      <trkpt lat="44.53364" lon="4.02789">
        <ele>1019.5999755859</ele>
        <time>2012-05-19T06:45:00.000Z</time>
      </trkpt>
      <trkpt lat="44.53345" lon="4.028">
        <ele>1018.4000244141</ele>
        <time>2012-05-19T06:45:03.000Z</time>
      </trkpt>
      <trkpt lat="44.53325" lon="4.02815">
        <ele>1017.200012207</ele>
        <time>2012-05-19T06:45:06.000Z</time>
      </trkpt>
      <trkpt lat="44.53306" lon="4.02832">
        <ele>1016</ele>
        <time>2012-05-19T06:45:09.000Z</time>
      </trkpt>
      <trkpt lat="44.53287" lon="4.02849">
        <ele>1014.4000244141</ele>
        <time>2012-05-19T06:45:12.000Z</time>
      </trkpt>
      <trkpt lat="44.53267" lon="4.02866">
        <ele>1012.4000244141</ele>
        <time>2012-05-19T06:45:15.000Z</time>
      </trkpt>
      <trkpt lat="44.53246" lon="4.0288">
        <ele>1010.200012207</ele>
        <time>2012-05-19T06:45:18.000Z</time>
      </trkpt>
      <trkpt lat="44.53225" lon="4.02894">
        <ele>1008.5999755859</ele>
        <time>2012-05-19T06:45:21.000Z</time>
      </trkpt>
      <trkpt lat="44.53218" lon="4.02898">
        <ele>1007.799987793</ele>
        <time>2012-05-19T06:45:22.000Z</time>
      </trkpt>
      <trkpt lat="44.53211" lon="4.02903">
        <ele>1007</ele>
        <time>2012-05-19T06:45:23.000Z</time>
      </trkpt>
      <trkpt lat="44.532" lon="4.02917">
        <ele>1005.5999755859</ele>
        <time>2012-05-19T06:45:25.000Z</time>
      </trkpt>
      <trkpt lat="44.53192" lon="4.02935">
        <ele>1004.4000244141</ele>
        <time>2012-05-19T06:45:27.000Z</time>
      </trkpt>
      <trkpt lat="44.53189" lon="4.02944">
        <ele>1004</ele>
        <time>2012-05-19T06:45:28.000Z</time>
      </trkpt>
      <trkpt lat="44.53186" lon="4.02953">
        <ele>1003.5999755859</ele>
        <time>2012-05-19T06:45:29.000Z</time>
      </trkpt>
      <trkpt lat="44.53178" lon="4.0298">
        <ele>1002.4000244141</ele>
        <time>2012-05-19T06:45:32.000Z</time>
      </trkpt>
      <trkpt lat="44.53169" lon="4.02995">
        <ele>1001.200012207</ele>
        <time>2012-05-19T06:45:34.000Z</time>
      </trkpt>
      <trkpt lat="44.5315" lon="4.03018">
        <ele>1000.799987793</ele>
        <time>2012-05-19T06:45:37.000Z</time>
      </trkpt>
      <trkpt lat="44.53145" lon="4.03025">
        <ele>1000.5999755859</ele>
        <time>2012-05-19T06:45:38.000Z</time>
      </trkpt>
      <trkpt lat="44.53142" lon="4.03045">
        <ele>1000.200012207</ele>
        <time>2012-05-19T06:45:41.000Z</time>
      </trkpt>
      <trkpt lat="44.53143" lon="4.03052">
        <ele>1000.200012207</ele>
        <time>2012-05-19T06:45:42.000Z</time>
      </trkpt>
      <trkpt lat="44.53143" lon="4.03057">
        <ele>1000.200012207</ele>
        <time>2012-05-19T06:45:43.000Z</time>
      </trkpt>
      <trkpt lat="44.53143" lon="4.03063">
        <ele>1000</ele>
        <time>2012-05-19T06:45:45.000Z</time>
      </trkpt>
      <trkpt lat="44.53143" lon="4.03062">
        <ele>1000</ele>
        <time>2012-05-19T06:45:52.000Z</time>
      </trkpt>
      <trkpt lat="44.53141" lon="4.03064">
        <ele>1000</ele>
        <time>2012-05-19T06:46:16.000Z</time>
      </trkpt>
      <trkpt lat="44.53139" lon="4.03067">
        <ele>1000</ele>
        <time>2012-05-19T06:46:35.000Z</time>
      </trkpt>
      <trkpt lat="44.53138" lon="4.03069">
        <ele>999.79998779297</ele>
        <time>2012-05-19T06:46:40.000Z</time>
      </trkpt>
      <trkpt lat="44.53138" lon="4.03072">
        <ele>999.79998779297</ele>
        <time>2012-05-19T06:46:46.000Z</time>
      </trkpt>
      <trkpt lat="44.53137" lon="4.03074">
        <ele>999.79998779297</ele>
        <time>2012-05-19T06:46:47.000Z</time>
      </trkpt>
      <trkpt lat="44.53136" lon="4.03086">
        <ele>999.59997558594</ele>
        <time>2012-05-19T06:46:51.000Z</time>
      </trkpt>
      <trkpt lat="44.53133" lon="4.03105">
        <ele>999.79998779297</ele>
        <time>2012-05-19T06:46:55.000Z</time>
      </trkpt>
      <trkpt lat="44.53128" lon="4.03127">
        <ele>999.59997558594</ele>
        <time>2012-05-19T06:47:00.000Z</time>
      </trkpt>
      <trkpt lat="44.53128" lon="4.03147">
        <ele>999.79998779297</ele>
        <time>2012-05-19T06:47:06.000Z</time>
      </trkpt>
      <trkpt lat="44.53128" lon="4.0316">
        <ele>999.79998779297</ele>
        <time>2012-05-19T06:47:11.000Z</time>
      </trkpt>
      <trkpt lat="44.53126" lon="4.0316">
        <ele>999.59997558594</ele>
        <time>2012-05-19T06:47:21.000Z</time>
      </trkpt>
      <trkpt lat="44.5312" lon="4.03153">
        <ele>999</ele>
        <time>2012-05-19T06:47:26.000Z</time>
      </trkpt>
      <trkpt lat="44.53114" lon="4.03146">
        <ele>998.59997558594</ele>
        <time>2012-05-19T06:47:31.000Z</time>
      </trkpt>
      <trkpt lat="44.53105" lon="4.03143">
        <ele>998</ele>
        <time>2012-05-19T06:47:38.000Z</time>
      </trkpt>
      <trkpt lat="44.53098" lon="4.0315">
        <ele>997</ele>
        <time>2012-05-19T06:47:43.000Z</time>
      </trkpt>
      <trkpt lat="44.53087" lon="4.03158">
        <ele>995.79998779297</ele>
        <time>2012-05-19T06:47:47.000Z</time>
      </trkpt>
      <trkpt lat="44.53085" lon="4.0316">
        <ele>995.40002441406</ele>
        <time>2012-05-19T06:47:48.000Z</time>
      </trkpt>
      <trkpt lat="44.53081" lon="4.03169">
        <ele>995.40002441406</ele>
        <time>2012-05-19T06:47:51.000Z</time>
      </trkpt>
      <trkpt lat="44.53078" lon="4.03181">
        <ele>995.20001220703</ele>
        <time>2012-05-19T06:47:54.000Z</time>
      </trkpt>
      <trkpt lat="44.53076" lon="4.03186">
        <ele>995.20001220703</ele>
        <time>2012-05-19T06:47:55.000Z</time>
      </trkpt>
      <trkpt lat="44.53067" lon="4.03211">
        <ele>994.59997558594</ele>
        <time>2012-05-19T06:47:59.000Z</time>
      </trkpt>
      <trkpt lat="44.53064" lon="4.03218">
        <ele>994.40002441406</ele>
        <time>2012-05-19T06:48:00.000Z</time>
      </trkpt>
      <trkpt lat="44.53054" lon="4.03243">
        <ele>993.40002441406</ele>
        <time>2012-05-19T06:48:04.000Z</time>
      </trkpt>
      <trkpt lat="44.53047" lon="4.03255">
        <ele>992.59997558594</ele>
        <time>2012-05-19T06:48:06.000Z</time>
      </trkpt>
      <trkpt lat="44.53041" lon="4.03268">
        <ele>991</ele>
        <time>2012-05-19T06:48:08.000Z</time>
      </trkpt>
      <trkpt lat="44.53027" lon="4.03285">
        <ele>989.20001220703</ele>
        <time>2012-05-19T06:48:11.000Z</time>
      </trkpt>
      <trkpt lat="44.53013" lon="4.03302">
        <ele>986.59997558594</ele>
        <time>2012-05-19T06:48:14.000Z</time>
      </trkpt>
      <trkpt lat="44.52999" lon="4.03318">
        <ele>983.59997558594</ele>
        <time>2012-05-19T06:48:17.000Z</time>
      </trkpt>
      <trkpt lat="44.52994" lon="4.03324">
        <ele>983.20001220703</ele>
        <time>2012-05-19T06:48:18.000Z</time>
      </trkpt>
      <trkpt lat="44.52983" lon="4.03343">
        <ele>981.40002441406</ele>
        <time>2012-05-19T06:48:21.000Z</time>
      </trkpt>
      <trkpt lat="44.52979" lon="4.03349">
        <ele>981</ele>
        <time>2012-05-19T06:48:22.000Z</time>
      </trkpt>
      <trkpt lat="44.52959" lon="4.03367">
        <ele>980</ele>
        <time>2012-05-19T06:48:26.000Z</time>
      </trkpt>
      <trkpt lat="44.52954" lon="4.03371">
        <ele>979.79998779297</ele>
        <time>2012-05-19T06:48:27.000Z</time>
      </trkpt>
      <trkpt lat="44.52933" lon="4.03384">
        <ele>978.59997558594</ele>
        <time>2012-05-19T06:48:31.000Z</time>
      </trkpt>
      <trkpt lat="44.52916" lon="4.03395">
        <ele>977</ele>
        <time>2012-05-19T06:48:34.000Z</time>
      </trkpt>
      <trkpt lat="44.52899" lon="4.03407">
        <ele>978</ele>
        <time>2012-05-19T06:48:37.000Z</time>
      </trkpt>
      <trkpt lat="44.52883" lon="4.03418">
        <ele>979.20001220703</ele>
        <time>2012-05-19T06:48:40.000Z</time>
      </trkpt>
      <trkpt lat="44.52878" lon="4.03422">
        <ele>979.79998779297</ele>
        <time>2012-05-19T06:48:41.000Z</time>
      </trkpt>
      <trkpt lat="44.52873" lon="4.03427">
        <ele>980</ele>
        <time>2012-05-19T06:48:42.000Z</time>
      </trkpt>
      <trkpt lat="44.52863" lon="4.03446">
        <ele>977.79998779297</ele>
        <time>2012-05-19T06:48:45.000Z</time>
      </trkpt>
      <trkpt lat="44.5286" lon="4.03453">
        <ele>976.79998779297</ele>
        <time>2012-05-19T06:48:46.000Z</time>
      </trkpt>
      <trkpt lat="44.52847" lon="4.03479">
        <ele>972.59997558594</ele>
        <time>2012-05-19T06:48:50.000Z</time>
      </trkpt>
      <trkpt lat="44.52843" lon="4.03486">
        <ele>971.40002441406</ele>
        <time>2012-05-19T06:48:51.000Z</time>
      </trkpt>
      <trkpt lat="44.5283" lon="4.0351">
        <ele>967.20001220703</ele>
        <time>2012-05-19T06:48:55.000Z</time>
      </trkpt>
      <trkpt lat="44.52817" lon="4.0353">
        <ele>965.59997558594</ele>
        <time>2012-05-19T06:48:59.000Z</time>
      </trkpt>
      <trkpt lat="44.52813" lon="4.03533">
        <ele>965.40002441406</ele>
        <time>2012-05-19T06:49:00.000Z</time>
      </trkpt>
      <trkpt lat="44.52809" lon="4.03537">
        <ele>965.59997558594</ele>
        <time>2012-05-19T06:49:02.000Z</time>
      </trkpt>
      <trkpt lat="44.52808" lon="4.03537">
        <ele>965.59997558594</ele>
        <time>2012-05-19T06:49:03.000Z</time>
      </trkpt>
      <trkpt lat="44.52807" lon="4.03538">
        <ele>965.79998779297</ele>
        <time>2012-05-19T06:49:07.000Z</time>
      </trkpt>
      <trkpt lat="44.52804" lon="4.03536">
        <ele>967</ele>
        <time>2012-05-19T06:50:55.000Z</time>
      </trkpt>
      <trkpt lat="44.52799" lon="4.03539">
        <ele>967.59997558594</ele>
        <time>2012-05-19T06:51:13.000Z</time>
      </trkpt>
      <trkpt lat="44.52785" lon="4.03544">
        <ele>970</ele>
        <time>2012-05-19T06:51:18.000Z</time>
      </trkpt>
      <trkpt lat="44.52771" lon="4.03548">
        <ele>972.20001220703</ele>
        <time>2012-05-19T06:51:22.000Z</time>
      </trkpt>
      <trkpt lat="44.52753" lon="4.03549">
        <ele>976.79998779297</ele>
        <time>2012-05-19T06:51:27.000Z</time>
      </trkpt>
      <trkpt lat="44.52748" lon="4.03549">
        <ele>977.79998779297</ele>
        <time>2012-05-19T06:51:28.000Z</time>
      </trkpt>
      <trkpt lat="44.52728" lon="4.03549">
        <ele>981.40002441406</ele>
        <time>2012-05-19T06:51:33.000Z</time>
      </trkpt>
      <trkpt lat="44.52716" lon="4.0355">
        <ele>983.20001220703</ele>
        <time>2012-05-19T06:51:37.000Z</time>
      </trkpt>
      <trkpt lat="44.52713" lon="4.0355">
        <ele>983.79998779297</ele>
        <time>2012-05-19T06:51:41.000Z</time>
      </trkpt>
      <trkpt lat="44.52705" lon="4.03552">
        <ele>985</ele>
        <time>2012-05-19T06:51:48.000Z</time>
      </trkpt>
      <trkpt lat="44.52702" lon="4.03558">
        <ele>984.40002441406</ele>
        <time>2012-05-19T06:51:51.000Z</time>
      </trkpt>
      <trkpt lat="44.52702" lon="4.03563">
        <ele>983.20001220703</ele>
        <time>2012-05-19T06:51:53.000Z</time>
      </trkpt>
      <trkpt lat="44.52703" lon="4.03566">
        <ele>982.40002441406</ele>
        <time>2012-05-19T06:51:54.000Z</time>
      </trkpt>
      <trkpt lat="44.52707" lon="4.03573">
        <ele>980</ele>
        <time>2012-05-19T06:51:57.000Z</time>
      </trkpt>
      <trkpt lat="44.52708" lon="4.03579">
        <ele>978.59997558594</ele>
        <time>2012-05-19T06:51:59.000Z</time>
      </trkpt>
      <trkpt lat="44.52708" lon="4.03589">
        <ele>976.20001220703</ele>
        <time>2012-05-19T06:52:02.000Z</time>
      </trkpt>
      <trkpt lat="44.52709" lon="4.03604">
        <ele>973</ele>
        <time>2012-05-19T06:52:06.000Z</time>
      </trkpt>
      <trkpt lat="44.52707" lon="4.03631">
        <ele>968</ele>
        <time>2012-05-19T06:52:11.000Z</time>
      </trkpt>
      <trkpt lat="44.52697" lon="4.03655">
        <ele>966</ele>
        <time>2012-05-19T06:52:15.000Z</time>
      </trkpt>
      <trkpt lat="44.52692" lon="4.03668">
        <ele>965.20001220703</ele>
        <time>2012-05-19T06:52:17.000Z</time>
      </trkpt>
      <trkpt lat="44.52679" lon="4.03697">
        <ele>964</ele>
        <time>2012-05-19T06:52:21.000Z</time>
      </trkpt>
      <trkpt lat="44.52672" lon="4.03711">
        <ele>963.40002441406</ele>
        <time>2012-05-19T06:52:23.000Z</time>
      </trkpt>
      <trkpt lat="44.52668" lon="4.03717">
        <ele>963.40002441406</ele>
        <time>2012-05-19T06:52:24.000Z</time>
      </trkpt>
      <trkpt lat="44.5265" lon="4.03738">
        <ele>963.79998779297</ele>
        <time>2012-05-19T06:52:28.000Z</time>
      </trkpt>
      <trkpt lat="44.52633" lon="4.03755">
        <ele>964.20001220703</ele>
        <time>2012-05-19T06:52:32.000Z</time>
      </trkpt>
      <trkpt lat="44.52629" lon="4.03759">
        <ele>964.20001220703</ele>
        <time>2012-05-19T06:52:33.000Z</time>
      </trkpt>
      <trkpt lat="44.52614" lon="4.03777">
        <ele>962</ele>
        <time>2012-05-19T06:52:37.000Z</time>
      </trkpt>
      <trkpt lat="44.52611" lon="4.03781">
        <ele>961.79998779297</ele>
        <time>2012-05-19T06:52:38.000Z</time>
      </trkpt>
      <trkpt lat="44.52606" lon="4.03785">
        <ele>961.59997558594</ele>
        <time>2012-05-19T06:52:39.000Z</time>
      </trkpt>
      <trkpt lat="44.52597" lon="4.03794">
        <ele>960.79998779297</ele>
        <time>2012-05-19T06:52:41.000Z</time>
      </trkpt>
      <trkpt lat="44.52579" lon="4.03815">
        <ele>958</ele>
        <time>2012-05-19T06:52:45.000Z</time>
      </trkpt>
      <trkpt lat="44.52566" lon="4.03834">
        <ele>955.20001220703</ele>
        <time>2012-05-19T06:52:48.000Z</time>
      </trkpt>
      <trkpt lat="44.52553" lon="4.03856">
        <ele>950.79998779297</ele>
        <time>2012-05-19T06:52:51.000Z</time>
      </trkpt>
      <trkpt lat="44.52538" lon="4.03873">
        <ele>949.20001220703</ele>
        <time>2012-05-19T06:52:54.000Z</time>
      </trkpt>
      <trkpt lat="44.52533" lon="4.03877">
        <ele>948.79998779297</ele>
        <time>2012-05-19T06:52:55.000Z</time>
      </trkpt>
      <trkpt lat="44.52528" lon="4.03881">
        <ele>948.79998779297</ele>
        <time>2012-05-19T06:52:56.000Z</time>
      </trkpt>
      <trkpt lat="44.52519" lon="4.03891">
        <ele>947.79998779297</ele>
        <time>2012-05-19T06:52:59.000Z</time>
      </trkpt>
      <trkpt lat="44.52517" lon="4.03892">
        <ele>947.79998779297</ele>
        <time>2012-05-19T06:53:02.000Z</time>
      </trkpt>
      <trkpt lat="44.52514" lon="4.03893">
        <ele>948.40002441406</ele>
        <time>2012-05-19T06:53:07.000Z</time>
      </trkpt>
      <trkpt lat="44.52509" lon="4.03892">
        <ele>950</ele>
        <time>2012-05-19T06:53:14.000Z</time>
      </trkpt>
      <trkpt lat="44.52502" lon="4.03892">
        <ele>951.79998779297</ele>
        <time>2012-05-19T06:53:19.000Z</time>
      </trkpt>
      <trkpt lat="44.52485" lon="4.03901">
        <ele>953.59997558594</ele>
        <time>2012-05-19T06:53:23.000Z</time>
      </trkpt>
      <trkpt lat="44.52464" lon="4.03913">
        <ele>955.79998779297</ele>
        <time>2012-05-19T06:53:27.000Z</time>
      </trkpt>
      <trkpt lat="44.5246" lon="4.03917">
        <ele>955.20001220703</ele>
        <time>2012-05-19T06:53:28.000Z</time>
      </trkpt>
      <trkpt lat="44.52448" lon="4.03936">
        <ele>951.79998779297</ele>
        <time>2012-05-19T06:53:31.000Z</time>
      </trkpt>
      <trkpt lat="44.52432" lon="4.03948">
        <ele>952.20001220703</ele>
        <time>2012-05-19T06:53:34.000Z</time>
      </trkpt>
      <trkpt lat="44.52421" lon="4.03956">
        <ele>952.59997558594</ele>
        <time>2012-05-19T06:53:36.000Z</time>
      </trkpt>
      <trkpt lat="44.52405" lon="4.03978">
        <ele>950.20001220703</ele>
        <time>2012-05-19T06:53:39.000Z</time>
      </trkpt>
      <trkpt lat="44.524" lon="4.03986">
        <ele>949.20001220703</ele>
        <time>2012-05-19T06:53:40.000Z</time>
      </trkpt>
      <trkpt lat="44.5239" lon="4.04002">
        <ele>947.79998779297</ele>
        <time>2012-05-19T06:53:42.000Z</time>
      </trkpt>
      <trkpt lat="44.52377" lon="4.04028">
        <ele>946.40002441406</ele>
        <time>2012-05-19T06:53:45.000Z</time>
      </trkpt>
      <trkpt lat="44.52373" lon="4.04036">
        <ele>945.40002441406</ele>
        <time>2012-05-19T06:53:46.000Z</time>
      </trkpt>
      <trkpt lat="44.52364" lon="4.04066">
        <ele>941.79998779297</ele>
        <time>2012-05-19T06:53:49.000Z</time>
      </trkpt>
      <trkpt lat="44.5236" lon="4.04075">
        <ele>940.79998779297</ele>
        <time>2012-05-19T06:53:50.000Z</time>
      </trkpt>
      <trkpt lat="44.52356" lon="4.04083">
        <ele>940.59997558594</ele>
        <time>2012-05-19T06:53:51.000Z</time>
      </trkpt>
      <trkpt lat="44.52348" lon="4.041">
        <ele>941.20001220703</ele>
        <time>2012-05-19T06:53:53.000Z</time>
      </trkpt>
      <trkpt lat="44.52337" lon="4.04127">
        <ele>941.40002441406</ele>
        <time>2012-05-19T06:53:56.000Z</time>
      </trkpt>
      <trkpt lat="44.52334" lon="4.04136">
        <ele>941.20001220703</ele>
        <time>2012-05-19T06:53:57.000Z</time>
      </trkpt>
      <trkpt lat="44.52325" lon="4.04165">
        <ele>937.59997558594</ele>
        <time>2012-05-19T06:54:00.000Z</time>
      </trkpt>
      <trkpt lat="44.52314" lon="4.04191">
        <ele>932.20001220703</ele>
        <time>2012-05-19T06:54:03.000Z</time>
      </trkpt>
      <trkpt lat="44.52311" lon="4.04201">
        <ele>930.59997558594</ele>
        <time>2012-05-19T06:54:04.000Z</time>
      </trkpt>
      <trkpt lat="44.52302" lon="4.04216">
        <ele>928.40002441406</ele>
        <time>2012-05-19T06:54:06.000Z</time>
      </trkpt>
      <trkpt lat="44.52292" lon="4.04227">
        <ele>928.20001220703</ele>
        <time>2012-05-19T06:54:08.000Z</time>
      </trkpt>
      <trkpt lat="44.52275" lon="4.04237">
        <ele>929.79998779297</ele>
        <time>2012-05-19T06:54:11.000Z</time>
      </trkpt>
      <trkpt lat="44.52269" lon="4.04241">
        <ele>930.59997558594</ele>
        <time>2012-05-19T06:54:12.000Z</time>
      </trkpt>
      <trkpt lat="44.52257" lon="4.0425">
        <ele>932.20001220703</ele>
        <time>2012-05-19T06:54:14.000Z</time>
      </trkpt>
      <trkpt lat="44.52244" lon="4.04261">
        <ele>931.59997558594</ele>
        <time>2012-05-19T06:54:16.000Z</time>
      </trkpt>
      <trkpt lat="44.52225" lon="4.04278">
        <ele>928</ele>
        <time>2012-05-19T06:54:19.000Z</time>
      </trkpt>
      <trkpt lat="44.52206" lon="4.04292">
        <ele>925.59997558594</ele>
        <time>2012-05-19T06:54:22.000Z</time>
      </trkpt>
      <trkpt lat="44.52199" lon="4.04295">
        <ele>925.20001220703</ele>
        <time>2012-05-19T06:54:23.000Z</time>
      </trkpt>
      <trkpt lat="44.52182" lon="4.04304">
        <ele>924</ele>
        <time>2012-05-19T06:54:26.000Z</time>
      </trkpt>
      <trkpt lat="44.52164" lon="4.04312">
        <ele>923</ele>
        <time>2012-05-19T06:54:29.000Z</time>
      </trkpt>
      <trkpt lat="44.52158" lon="4.04315">
        <ele>922.20001220703</ele>
        <time>2012-05-19T06:54:30.000Z</time>
      </trkpt>
      <trkpt lat="44.52139" lon="4.04325">
        <ele>920.20001220703</ele>
        <time>2012-05-19T06:54:33.000Z</time>
      </trkpt>
      <trkpt lat="44.52127" lon="4.04331">
        <ele>919.20001220703</ele>
        <time>2012-05-19T06:54:35.000Z</time>
      </trkpt>
      <trkpt lat="44.52122" lon="4.04332">
        <ele>918.79998779297</ele>
        <time>2012-05-19T06:54:36.000Z</time>
      </trkpt>
      <trkpt lat="44.52108" lon="4.04331">
        <ele>917.79998779297</ele>
        <time>2012-05-19T06:54:39.000Z</time>
      </trkpt>
      <trkpt lat="44.521" lon="4.04318">
        <ele>917</ele>
        <time>2012-05-19T06:54:42.000Z</time>
      </trkpt>
      <trkpt lat="44.52099" lon="4.04312">
        <ele>917</ele>
        <time>2012-05-19T06:54:43.000Z</time>
      </trkpt>
      <trkpt lat="44.52099" lon="4.04305">
        <ele>916.79998779297</ele>
        <time>2012-05-19T06:54:44.000Z</time>
      </trkpt>
      <trkpt lat="44.521" lon="4.04286">
        <ele>917</ele>
        <time>2012-05-19T06:54:47.000Z</time>
      </trkpt>
      <trkpt lat="44.52101" lon="4.0428">
        <ele>917</ele>
        <time>2012-05-19T06:54:48.000Z</time>
      </trkpt>
      <trkpt lat="44.52102" lon="4.04264">
        <ele>917</ele>
        <time>2012-05-19T06:54:51.000Z</time>
      </trkpt>
      <trkpt lat="44.52103" lon="4.0426">
        <ele>917.20001220703</ele>
        <time>2012-05-19T06:54:52.000Z</time>
      </trkpt>
      <trkpt lat="44.52104" lon="4.04256">
        <ele>917.20001220703</ele>
        <time>2012-05-19T06:54:53.000Z</time>
      </trkpt>
      <trkpt lat="44.52102" lon="4.04244">
        <ele>917.40002441406</ele>
        <time>2012-05-19T06:54:56.000Z</time>
      </trkpt>
      <trkpt lat="44.52101" lon="4.04239">
        <ele>917.79998779297</ele>
        <time>2012-05-19T06:54:57.000Z</time>
      </trkpt>
      <trkpt lat="44.52099" lon="4.04216">
        <ele>919.40002441406</ele>
        <time>2012-05-19T06:55:02.000Z</time>
      </trkpt>
      <trkpt lat="44.52094" lon="4.04206">
        <ele>919.40002441406</ele>
        <time>2012-05-19T06:55:04.000Z</time>
      </trkpt>
      <trkpt lat="44.52091" lon="4.04204">
        <ele>919</ele>
        <time>2012-05-19T06:55:05.000Z</time>
      </trkpt>
      <trkpt lat="44.52081" lon="4.04208">
        <ele>917.20001220703</ele>
        <time>2012-05-19T06:55:08.000Z</time>
      </trkpt>
      <trkpt lat="44.52077" lon="4.0421">
        <ele>916.59997558594</ele>
        <time>2012-05-19T06:55:09.000Z</time>
      </trkpt>
      <trkpt lat="44.52059" lon="4.04224">
        <ele>913.20001220703</ele>
        <time>2012-05-19T06:55:13.000Z</time>
      </trkpt>
      <trkpt lat="44.5205" lon="4.04232">
        <ele>911.40002441406</ele>
        <time>2012-05-19T06:55:15.000Z</time>
      </trkpt>
      <trkpt lat="44.52041" lon="4.04242">
        <ele>909.20001220703</ele>
        <time>2012-05-19T06:55:17.000Z</time>
      </trkpt>
      <trkpt lat="44.52036" lon="4.04248">
        <ele>908</ele>
        <time>2012-05-19T06:55:18.000Z</time>
      </trkpt>
      <trkpt lat="44.52031" lon="4.04255">
        <ele>907.20001220703</ele>
        <time>2012-05-19T06:55:19.000Z</time>
      </trkpt>
      <trkpt lat="44.52018" lon="4.04277">
        <ele>905.59997558594</ele>
        <time>2012-05-19T06:55:22.000Z</time>
      </trkpt>
      <trkpt lat="44.52014" lon="4.04285">
        <ele>905</ele>
        <time>2012-05-19T06:55:23.000Z</time>
      </trkpt>
      <trkpt lat="44.52005" lon="4.04301">
        <ele>903.79998779297</ele>
        <time>2012-05-19T06:55:25.000Z</time>
      </trkpt>
      <trkpt lat="44.51995" lon="4.04312">
        <ele>902.20001220703</ele>
        <time>2012-05-19T06:55:27.000Z</time>
      </trkpt>
      <trkpt lat="44.51981" lon="4.04332">
        <ele>899.59997558594</ele>
        <time>2012-05-19T06:55:30.000Z</time>
      </trkpt>
      <trkpt lat="44.51973" lon="4.04345">
        <ele>898.79998779297</ele>
        <time>2012-05-19T06:55:32.000Z</time>
      </trkpt>
      <trkpt lat="44.51961" lon="4.0437">
        <ele>898</ele>
        <time>2012-05-19T06:55:36.000Z</time>
      </trkpt>
      <trkpt lat="44.51959" lon="4.04375">
        <ele>897.79998779297</ele>
        <time>2012-05-19T06:55:37.000Z</time>
      </trkpt>
      <trkpt lat="44.51948" lon="4.044">
        <ele>897.59997558594</ele>
        <time>2012-05-19T06:55:42.000Z</time>
      </trkpt>
      <trkpt lat="44.51939" lon="4.0442">
        <ele>897.20001220703</ele>
        <time>2012-05-19T06:55:46.000Z</time>
      </trkpt>
      <trkpt lat="44.51928" lon="4.04441">
        <ele>895.40002441406</ele>
        <time>2012-05-19T06:55:52.000Z</time>
      </trkpt>
      <trkpt lat="44.51923" lon="4.04448">
        <ele>894.79998779297</ele>
        <time>2012-05-19T06:55:54.000Z</time>
      </trkpt>
      <trkpt lat="44.51911" lon="4.04468">
        <ele>892.79998779297</ele>
        <time>2012-05-19T06:55:58.000Z</time>
      </trkpt>
      <trkpt lat="44.51908" lon="4.04475">
        <ele>892.20001220703</ele>
        <time>2012-05-19T06:55:59.000Z</time>
      </trkpt>
      <trkpt lat="44.51899" lon="4.04496">
        <ele>890.59997558594</ele>
        <time>2012-05-19T06:56:02.000Z</time>
      </trkpt>
      <trkpt lat="44.51897" lon="4.04513">
        <ele>889</ele>
        <time>2012-05-19T06:56:04.000Z</time>
      </trkpt>
      <trkpt lat="44.51901" lon="4.0453">
        <ele>888.40002441406</ele>
        <time>2012-05-19T06:56:06.000Z</time>
      </trkpt>
      <trkpt lat="44.51906" lon="4.04537">
        <ele>888.59997558594</ele>
        <time>2012-05-19T06:56:07.000Z</time>
      </trkpt>
      <trkpt lat="44.51913" lon="4.04549">
        <ele>888.59997558594</ele>
        <time>2012-05-19T06:56:09.000Z</time>
      </trkpt>
      <trkpt lat="44.51914" lon="4.04555">
        <ele>888.40002441406</ele>
        <time>2012-05-19T06:56:10.000Z</time>
      </trkpt>
      <trkpt lat="44.5191" lon="4.04569">
        <ele>886.40002441406</ele>
        <time>2012-05-19T06:56:13.000Z</time>
      </trkpt>
      <trkpt lat="44.51901" lon="4.04567">
        <ele>885</ele>
        <time>2012-05-19T06:56:15.000Z</time>
      </trkpt>
      <trkpt lat="44.51891" lon="4.04558">
        <ele>884.20001220703</ele>
        <time>2012-05-19T06:56:17.000Z</time>
      </trkpt>
      <trkpt lat="44.51872" lon="4.04539">
        <ele>882.40002441406</ele>
        <time>2012-05-19T06:56:21.000Z</time>
      </trkpt>
      <trkpt lat="44.51867" lon="4.04534">
        <ele>882</ele>
        <time>2012-05-19T06:56:22.000Z</time>
      </trkpt>
      <trkpt lat="44.51863" lon="4.04528">
        <ele>881.59997558594</ele>
        <time>2012-05-19T06:56:23.000Z</time>
      </trkpt>
      <trkpt lat="44.51857" lon="4.04511">
        <ele>881.79998779297</ele>
        <time>2012-05-19T06:56:25.000Z</time>
      </trkpt>
      <trkpt lat="44.51853" lon="4.04482">
        <ele>881.79998779297</ele>
        <time>2012-05-19T06:56:28.000Z</time>
      </trkpt>
      <trkpt lat="44.51853" lon="4.04472">
        <ele>881.79998779297</ele>
        <time>2012-05-19T06:56:29.000Z</time>
      </trkpt>
      <trkpt lat="44.51854" lon="4.04449">
        <ele>882</ele>
        <time>2012-05-19T06:56:31.000Z</time>
      </trkpt>
      <trkpt lat="44.51856" lon="4.04424">
        <ele>882.40002441406</ele>
        <time>2012-05-19T06:56:33.000Z</time>
      </trkpt>
      <trkpt lat="44.51861" lon="4.04391">
        <ele>884.40002441406</ele>
        <time>2012-05-19T06:56:36.000Z</time>
      </trkpt>
      <trkpt lat="44.51863" lon="4.04383">
        <ele>885</ele>
        <time>2012-05-19T06:56:37.000Z</time>
      </trkpt>
      <trkpt lat="44.51862" lon="4.04364">
        <ele>885.59997558594</ele>
        <time>2012-05-19T06:56:40.000Z</time>
      </trkpt>
      <trkpt lat="44.51853" lon="4.04369">
        <ele>884.59997558594</ele>
        <time>2012-05-19T06:56:42.000Z</time>
      </trkpt>
      <trkpt lat="44.51839" lon="4.04386">
        <ele>881.59997558594</ele>
        <time>2012-05-19T06:56:45.000Z</time>
      </trkpt>
      <trkpt lat="44.51829" lon="4.04402">
        <ele>880.20001220703</ele>
        <time>2012-05-19T06:56:47.000Z</time>
      </trkpt>
      <trkpt lat="44.51815" lon="4.04433">
        <ele>881.20001220703</ele>
        <time>2012-05-19T06:56:50.000Z</time>
      </trkpt>
      <trkpt lat="44.51806" lon="4.04456">
        <ele>882.20001220703</ele>
        <time>2012-05-19T06:56:52.000Z</time>
      </trkpt>
      <trkpt lat="44.51799" lon="4.04481">
        <ele>882.40002441406</ele>
        <time>2012-05-19T06:56:54.000Z</time>
      </trkpt>
      <trkpt lat="44.51796" lon="4.04494">
        <ele>882.20001220703</ele>
        <time>2012-05-19T06:56:55.000Z</time>
      </trkpt>
      <trkpt lat="44.5179" lon="4.04522">
        <ele>881</ele>
        <time>2012-05-19T06:56:58.000Z</time>
      </trkpt>
      <trkpt lat="44.51771" lon="4.04543">
        <ele>881</ele>
        <time>2012-05-19T06:57:02.000Z</time>
      </trkpt>
      <trkpt lat="44.51766" lon="4.04549">
        <ele>880.79998779297</ele>
        <time>2012-05-19T06:57:03.000Z</time>
      </trkpt>
      <trkpt lat="44.51764" lon="4.04554">
        <ele>880.59997558594</ele>
        <time>2012-05-19T06:57:04.000Z</time>
      </trkpt>
      <trkpt lat="44.51761" lon="4.04563">
        <ele>880</ele>
        <time>2012-05-19T06:57:06.000Z</time>
      </trkpt>
      <trkpt lat="44.51752" lon="4.04569">
        <ele>880.20001220703</ele>
        <time>2012-05-19T06:57:09.000Z</time>
      </trkpt>
      <trkpt lat="44.51749" lon="4.04571">
        <ele>880.40002441406</ele>
        <time>2012-05-19T06:57:10.000Z</time>
      </trkpt>
      <trkpt lat="44.51728" lon="4.04578">
        <ele>884.20001220703</ele>
        <time>2012-05-19T06:57:15.000Z</time>
      </trkpt>
      <trkpt lat="44.51725" lon="4.0458">
        <ele>884.79998779297</ele>
        <time>2012-05-19T06:57:16.000Z</time>
      </trkpt>
      <trkpt lat="44.51715" lon="4.04592">
        <ele>886</ele>
        <time>2012-05-19T06:57:19.000Z</time>
      </trkpt>
      <trkpt lat="44.51712" lon="4.04598">
        <ele>886.20001220703</ele>
        <time>2012-05-19T06:57:20.000Z</time>
      </trkpt>
      <trkpt lat="44.51707" lon="4.04607">
        <ele>886.59997558594</ele>
        <time>2012-05-19T06:57:22.000Z</time>
      </trkpt>
      <trkpt lat="44.51703" lon="4.04621">
        <ele>886.40002441406</ele>
        <time>2012-05-19T06:57:25.000Z</time>
      </trkpt>
      <trkpt lat="44.51701" lon="4.04631">
        <ele>886.20001220703</ele>
        <time>2012-05-19T06:57:27.000Z</time>
      </trkpt>
      <trkpt lat="44.51702" lon="4.04637">
        <ele>885.59997558594</ele>
        <time>2012-05-19T06:57:28.000Z</time>
      </trkpt>
      <trkpt lat="44.51702" lon="4.04651">
        <ele>884.59997558594</ele>
        <time>2012-05-19T06:57:31.000Z</time>
      </trkpt>
      <trkpt lat="44.51702" lon="4.04673">
        <ele>882.79998779297</ele>
        <time>2012-05-19T06:57:36.000Z</time>
      </trkpt>
      <trkpt lat="44.51698" lon="4.04683">
        <ele>882.59997558594</ele>
        <time>2012-05-19T06:57:39.000Z</time>
      </trkpt>
      <trkpt lat="44.51692" lon="4.04691">
        <ele>883.40002441406</ele>
        <time>2012-05-19T06:57:42.000Z</time>
      </trkpt>
      <trkpt lat="44.51679" lon="4.04706">
        <ele>885.40002441406</ele>
        <time>2012-05-19T06:57:48.000Z</time>
      </trkpt>
      <trkpt lat="44.51666" lon="4.04717">
        <ele>887.59997558594</ele>
        <time>2012-05-19T06:57:53.000Z</time>
      </trkpt>
      <trkpt lat="44.51648" lon="4.04731">
        <ele>890.59997558594</ele>
        <time>2012-05-19T06:58:00.000Z</time>
      </trkpt>
      <trkpt lat="44.51645" lon="4.04733">
        <ele>891</ele>
        <time>2012-05-19T06:58:01.000Z</time>
      </trkpt>
      <trkpt lat="44.51629" lon="4.04741">
        <ele>894.20001220703</ele>
        <time>2012-05-19T06:58:07.000Z</time>
      </trkpt>
      <trkpt lat="44.51624" lon="4.04756">
        <ele>893.79998779297</ele>
        <time>2012-05-19T06:58:12.000Z</time>
      </trkpt>
      <trkpt lat="44.51621" lon="4.04778">
        <ele>890.59997558594</ele>
        <time>2012-05-19T06:58:18.000Z</time>
      </trkpt>
      <trkpt lat="44.51619" lon="4.04794">
        <ele>888.59997558594</ele>
        <time>2012-05-19T06:58:23.000Z</time>
      </trkpt>
      <trkpt lat="44.51614" lon="4.04812">
        <ele>887</ele>
        <time>2012-05-19T06:58:29.000Z</time>
      </trkpt>
      <trkpt lat="44.51602" lon="4.04829">
        <ele>887.40002441406</ele>
        <time>2012-05-19T06:58:36.000Z</time>
      </trkpt>
      <trkpt lat="44.51594" lon="4.04843">
        <ele>887.20001220703</ele>
        <time>2012-05-19T06:58:42.000Z</time>
      </trkpt>
      <trkpt lat="44.51591" lon="4.04852">
        <ele>886</ele>
        <time>2012-05-19T06:58:45.000Z</time>
      </trkpt>
      <trkpt lat="44.51588" lon="4.0486">
        <ele>885</ele>
        <time>2012-05-19T06:58:48.000Z</time>
      </trkpt>
      <trkpt lat="44.51586" lon="4.04862">
        <ele>884.79998779297</ele>
        <time>2012-05-19T06:58:49.000Z</time>
      </trkpt>
      <trkpt lat="44.51574" lon="4.0488">
        <ele>884.40002441406</ele>
        <time>2012-05-19T06:58:56.000Z</time>
      </trkpt>
      <trkpt lat="44.51561" lon="4.04901">
        <ele>883.79998779297</ele>
        <time>2012-05-19T06:59:04.000Z</time>
      </trkpt>
      <trkpt lat="44.51557" lon="4.04906">
        <ele>884</ele>
        <time>2012-05-19T06:59:06.000Z</time>
      </trkpt>
      <trkpt lat="44.51542" lon="4.04919">
        <ele>886.20001220703</ele>
        <time>2012-05-19T06:59:13.000Z</time>
      </trkpt>
      <trkpt lat="44.51525" lon="4.0493">
        <ele>890.40002441406</ele>
        <time>2012-05-19T06:59:20.000Z</time>
      </trkpt>
      <trkpt lat="44.5152" lon="4.04933">
        <ele>891.59997558594</ele>
        <time>2012-05-19T06:59:22.000Z</time>
      </trkpt>
      <trkpt lat="44.51502" lon="4.04942">
        <ele>894.79998779297</ele>
        <time>2012-05-19T06:59:29.000Z</time>
      </trkpt>
      <trkpt lat="44.51497" lon="4.04944">
        <ele>895.20001220703</ele>
        <time>2012-05-19T06:59:31.000Z</time>
      </trkpt>
      <trkpt lat="44.51477" lon="4.0495">
        <ele>897</ele>
        <time>2012-05-19T06:59:38.000Z</time>
      </trkpt>
      <trkpt lat="44.5146" lon="4.04956">
        <ele>898.59997558594</ele>
        <time>2012-05-19T06:59:44.000Z</time>
      </trkpt>
      <trkpt lat="44.51454" lon="4.04958">
        <ele>899</ele>
        <time>2012-05-19T06:59:46.000Z</time>
      </trkpt>
      <trkpt lat="44.51436" lon="4.04964">
        <ele>900.40002441406</ele>
        <time>2012-05-19T06:59:52.000Z</time>
      </trkpt>
      <trkpt lat="44.5143" lon="4.04966">
        <ele>901</ele>
        <time>2012-05-19T06:59:54.000Z</time>
      </trkpt>
      <trkpt lat="44.51411" lon="4.04972">
        <ele>902</ele>
        <time>2012-05-19T07:00:01.000Z</time>
      </trkpt>
      <trkpt lat="44.51392" lon="4.04976">
        <ele>902.59997558594</ele>
        <time>2012-05-19T07:00:07.000Z</time>
      </trkpt>
      <trkpt lat="44.51389" lon="4.04976">
        <ele>902.79998779297</ele>
        <time>2012-05-19T07:00:08.000Z</time>
      </trkpt>
      <trkpt lat="44.51369" lon="4.04976">
        <ele>904.40002441406</ele>
        <time>2012-05-19T07:00:15.000Z</time>
      </trkpt>
      <trkpt lat="44.51366" lon="4.04976">
        <ele>904.59997558594</ele>
        <time>2012-05-19T07:00:16.000Z</time>
      </trkpt>
      <trkpt lat="44.51346" lon="4.04978">
        <ele>905.40002441406</ele>
        <time>2012-05-19T07:00:23.000Z</time>
      </trkpt>
      <trkpt lat="44.5134" lon="4.04979">
        <ele>905.59997558594</ele>
        <time>2012-05-19T07:00:25.000Z</time>
      </trkpt>
      <trkpt lat="44.51323" lon="4.0498">
        <ele>906</ele>
        <time>2012-05-19T07:00:31.000Z</time>
      </trkpt>
      <trkpt lat="44.51312" lon="4.04977">
        <ele>907</ele>
        <time>2012-05-19T07:00:35.000Z</time>
      </trkpt>
      <trkpt lat="44.51293" lon="4.04968">
        <ele>908.79998779297</ele>
        <time>2012-05-19T07:00:42.000Z</time>
      </trkpt>
      <trkpt lat="44.51277" lon="4.04956">
        <ele>910.59997558594</ele>
        <time>2012-05-19T07:00:48.000Z</time>
      </trkpt>
      <trkpt lat="44.51274" lon="4.04954">
        <ele>910.79998779297</ele>
        <time>2012-05-19T07:00:49.000Z</time>
      </trkpt>
      <trkpt lat="44.51259" lon="4.04938">
        <ele>912.40002441406</ele>
        <time>2012-05-19T07:00:55.000Z</time>
      </trkpt>
      <trkpt lat="44.51245" lon="4.04917">
        <ele>914.59997558594</ele>
        <time>2012-05-19T07:01:02.000Z</time>
      </trkpt>
      <trkpt lat="44.51231" lon="4.049">
        <ele>918.59997558594</ele>
        <time>2012-05-19T07:01:08.000Z</time>
      </trkpt>
      <trkpt lat="44.51228" lon="4.04899">
        <ele>919.20001220703</ele>
        <time>2012-05-19T07:01:09.000Z</time>
      </trkpt>
      <trkpt lat="44.51223" lon="4.04899">
        <ele>919.79998779297</ele>
        <time>2012-05-19T07:01:11.000Z</time>
      </trkpt>
      <trkpt lat="44.51219" lon="4.04905">
        <ele>919.59997558594</ele>
        <time>2012-05-19T07:01:13.000Z</time>
      </trkpt>
      <trkpt lat="44.51217" lon="4.04917">
        <ele>918.40002441406</ele>
        <time>2012-05-19T07:01:16.000Z</time>
      </trkpt>
      <trkpt lat="44.51216" lon="4.04925">
        <ele>917.79998779297</ele>
        <time>2012-05-19T07:01:18.000Z</time>
      </trkpt>
      <trkpt lat="44.51216" lon="4.04953">
        <ele>915.79998779297</ele>
        <time>2012-05-19T07:01:25.000Z</time>
      </trkpt>
      <trkpt lat="44.51214" lon="4.0498">
        <ele>914</ele>
        <time>2012-05-19T07:01:32.000Z</time>
      </trkpt>
      <trkpt lat="44.51207" lon="4.05008">
        <ele>913.40002441406</ele>
        <time>2012-05-19T07:01:39.000Z</time>
      </trkpt>
      <trkpt lat="44.51196" lon="4.05025">
        <ele>914.59997558594</ele>
        <time>2012-05-19T07:01:45.000Z</time>
      </trkpt>
      <trkpt lat="44.51182" lon="4.0504">
        <ele>916</ele>
        <time>2012-05-19T07:01:52.000Z</time>
      </trkpt>
      <trkpt lat="44.51171" lon="4.05053">
        <ele>916.59997558594</ele>
        <time>2012-05-19T07:01:57.000Z</time>
      </trkpt>
      <trkpt lat="44.51157" lon="4.05073">
        <ele>915.40002441406</ele>
        <time>2012-05-19T07:02:04.000Z</time>
      </trkpt>
      <trkpt lat="44.51155" lon="4.05076">
        <ele>915.20001220703</ele>
        <time>2012-05-19T07:02:05.000Z</time>
      </trkpt>
      <trkpt lat="44.51143" lon="4.0509">
        <ele>914.20001220703</ele>
        <time>2012-05-19T07:02:13.000Z</time>
      </trkpt>
      <trkpt lat="44.51136" lon="4.05093">
        <ele>913.79998779297</ele>
        <time>2012-05-19T07:02:19.000Z</time>
      </trkpt>
      <trkpt lat="44.51136" lon="4.05098">
        <ele>914</ele>
        <time>2012-05-19T07:02:26.000Z</time>
      </trkpt>
      <trkpt lat="44.51137" lon="4.05098">
        <ele>914</ele>
        <time>2012-05-19T07:02:27.000Z</time>
      </trkpt>
      <trkpt lat="44.51136" lon="4.05101">
        <ele>913.79998779297</ele>
        <time>2012-05-19T07:02:33.000Z</time>
      </trkpt>
      <trkpt lat="44.51132" lon="4.05103">
        <ele>913.59997558594</ele>
        <time>2012-05-19T07:03:17.000Z</time>
      </trkpt>
      <trkpt lat="44.51132" lon="4.05098">
        <ele>913.59997558594</ele>
        <time>2012-05-19T07:03:23.000Z</time>
      </trkpt>
      <trkpt lat="44.51131" lon="4.05094">
        <ele>913.59997558594</ele>
        <time>2012-05-19T07:03:37.000Z</time>
      </trkpt>
      <trkpt lat="44.51131" lon="4.05092">
        <ele>913.59997558594</ele>
        <time>2012-05-19T07:03:47.000Z</time>
      </trkpt>
      <trkpt lat="44.51126" lon="4.05098">
        <ele>913.20001220703</ele>
        <time>2012-05-19T07:05:30.000Z</time>
      </trkpt>
      <trkpt lat="44.51123" lon="4.05108">
        <ele>913</ele>
        <time>2012-05-19T07:05:34.000Z</time>
      </trkpt>
      <trkpt lat="44.51124" lon="4.05111">
        <ele>913</ele>
        <time>2012-05-19T07:05:35.000Z</time>
      </trkpt>
      <trkpt lat="44.51128" lon="4.05136">
        <ele>913</ele>
        <time>2012-05-19T07:05:41.000Z</time>
      </trkpt>
      <trkpt lat="44.5112" lon="4.05155">
        <ele>911.40002441406</ele>
        <time>2012-05-19T07:05:46.000Z</time>
      </trkpt>
      <trkpt lat="44.51109" lon="4.0518">
        <ele>909.59997558594</ele>
        <time>2012-05-19T07:05:51.000Z</time>
      </trkpt>
      <trkpt lat="44.51106" lon="4.05191">
        <ele>909.20001220703</ele>
        <time>2012-05-19T07:05:53.000Z</time>
      </trkpt>
      <trkpt lat="44.51099" lon="4.05217">
        <ele>908.40002441406</ele>
        <time>2012-05-19T07:05:58.000Z</time>
      </trkpt>
      <trkpt lat="44.51097" lon="4.05222">
        <ele>908.20001220703</ele>
        <time>2012-05-19T07:05:59.000Z</time>
      </trkpt>
      <trkpt lat="44.51088" lon="4.05248">
        <ele>906.79998779297</ele>
        <time>2012-05-19T07:06:04.000Z</time>
      </trkpt>
      <trkpt lat="44.51086" lon="4.05253">
        <ele>906.59997558594</ele>
        <time>2012-05-19T07:06:05.000Z</time>
      </trkpt>
      <trkpt lat="44.51081" lon="4.05268">
        <ele>904.79998779297</ele>
        <time>2012-05-19T07:06:08.000Z</time>
      </trkpt>
      <trkpt lat="44.51074" lon="4.05288">
        <ele>902.79998779297</ele>
        <time>2012-05-19T07:06:12.000Z</time>
      </trkpt>
      <trkpt lat="44.51065" lon="4.05312">
        <ele>900.20001220703</ele>
        <time>2012-05-19T07:06:17.000Z</time>
      </trkpt>
      <trkpt lat="44.51063" lon="4.05318">
        <ele>899.79998779297</ele>
        <time>2012-05-19T07:06:18.000Z</time>
      </trkpt>
      <trkpt lat="44.51055" lon="4.05345">
        <ele>896.79998779297</ele>
        <time>2012-05-19T07:06:24.000Z</time>
      </trkpt>
      <trkpt lat="44.51059" lon="4.05366">
        <ele>895.40002441406</ele>
        <time>2012-05-19T07:06:29.000Z</time>
      </trkpt>
      <trkpt lat="44.51063" lon="4.05372">
        <ele>895.40002441406</ele>
        <time>2012-05-19T07:06:31.000Z</time>
      </trkpt>
      <trkpt lat="44.51069" lon="4.05374">
        <ele>896</ele>
        <time>2012-05-19T07:06:33.000Z</time>
      </trkpt>
      <trkpt lat="44.51083" lon="4.05376">
        <ele>898.20001220703</ele>
        <time>2012-05-19T07:06:37.000Z</time>
      </trkpt>
      <trkpt lat="44.51101" lon="4.0537">
        <ele>898.20001220703</ele>
        <time>2012-05-19T07:06:42.000Z</time>
      </trkpt>
      <trkpt lat="44.51106" lon="4.05369">
        <ele>898.20001220703</ele>
        <time>2012-05-19T07:06:43.000Z</time>
      </trkpt>
      <trkpt lat="44.51125" lon="4.05361">
        <ele>899.20001220703</ele>
        <time>2012-05-19T07:06:48.000Z</time>
      </trkpt>
      <trkpt lat="44.51129" lon="4.05359">
        <ele>899.40002441406</ele>
        <time>2012-05-19T07:06:49.000Z</time>
      </trkpt>
      <trkpt lat="44.5114" lon="4.05352">
        <ele>901</ele>
        <time>2012-05-19T07:06:52.000Z</time>
      </trkpt>
      <trkpt lat="44.51144" lon="4.05354">
        <ele>900.59997558594</ele>
        <time>2012-05-19T07:06:54.000Z</time>
      </trkpt>
      <trkpt lat="44.51143" lon="4.05363">
        <ele>898</ele>
        <time>2012-05-19T07:06:58.000Z</time>
      </trkpt>
      <trkpt lat="44.51132" lon="4.05371">
        <ele>896.40002441406</ele>
        <time>2012-05-19T07:07:03.000Z</time>
      </trkpt>
      <trkpt lat="44.51121" lon="4.05385">
        <ele>893.59997558594</ele>
        <time>2012-05-19T07:07:07.000Z</time>
      </trkpt>
      <trkpt lat="44.51112" lon="4.05399">
        <ele>891.40002441406</ele>
        <time>2012-05-19T07:07:11.000Z</time>
      </trkpt>
      <trkpt lat="44.51099" lon="4.05419">
        <ele>888.79998779297</ele>
        <time>2012-05-19T07:07:16.000Z</time>
      </trkpt>
      <trkpt lat="44.51094" lon="4.05428">
        <ele>886.79998779297</ele>
        <time>2012-05-19T07:07:18.000Z</time>
      </trkpt>
      <trkpt lat="44.51082" lon="4.05452">
        <ele>881.59997558594</ele>
        <time>2012-05-19T07:07:23.000Z</time>
      </trkpt>
      <trkpt lat="44.51079" lon="4.05457">
        <ele>880</ele>
        <time>2012-05-19T07:07:24.000Z</time>
      </trkpt>
      <trkpt lat="44.51072" lon="4.05471">
        <ele>875.59997558594</ele>
        <time>2012-05-19T07:07:27.000Z</time>
      </trkpt>
      <trkpt lat="44.51069" lon="4.05474">
        <ele>874.59997558594</ele>
        <time>2012-05-19T07:07:28.000Z</time>
      </trkpt>
      <trkpt lat="44.51059" lon="4.0548">
        <ele>871.79998779297</ele>
        <time>2012-05-19T07:07:31.000Z</time>
      </trkpt>
      <trkpt lat="44.51054" lon="4.05482">
        <ele>871.20001220703</ele>
        <time>2012-05-19T07:07:32.000Z</time>
      </trkpt>
      <trkpt lat="44.51041" lon="4.05484">
        <ele>869.79998779297</ele>
        <time>2012-05-19T07:07:35.000Z</time>
      </trkpt>
      <trkpt lat="44.51032" lon="4.05482">
        <ele>869.59997558594</ele>
        <time>2012-05-19T07:07:37.000Z</time>
      </trkpt>
      <trkpt lat="44.51027" lon="4.05481">
        <ele>869.59997558594</ele>
        <time>2012-05-19T07:07:38.000Z</time>
      </trkpt>
      <trkpt lat="44.5102" lon="4.05477">
        <ele>870</ele>
        <time>2012-05-19T07:07:40.000Z</time>
      </trkpt>
      <trkpt lat="44.51017" lon="4.05475">
        <ele>870.40002441406</ele>
        <time>2012-05-19T07:07:41.000Z</time>
      </trkpt>
      <trkpt lat="44.51006" lon="4.05464">
        <ele>872</ele>
        <time>2012-05-19T07:07:45.000Z</time>
      </trkpt>
      <trkpt lat="44.50991" lon="4.05448">
        <ele>873</ele>
        <time>2012-05-19T07:07:50.000Z</time>
      </trkpt>
      <trkpt lat="44.50989" lon="4.05445">
        <ele>873.20001220703</ele>
        <time>2012-05-19T07:07:51.000Z</time>
      </trkpt>
      <trkpt lat="44.50975" lon="4.05428">
        <ele>873</ele>
        <time>2012-05-19T07:07:57.000Z</time>
      </trkpt>
      <trkpt lat="44.50963" lon="4.05417">
        <ele>872</ele>
        <time>2012-05-19T07:08:03.000Z</time>
      </trkpt>
      <trkpt lat="44.5095" lon="4.05404">
        <ele>867.59997558594</ele>
        <time>2012-05-19T07:08:09.000Z</time>
      </trkpt>
      <trkpt lat="44.50938" lon="4.05392">
        <ele>863.79998779297</ele>
        <time>2012-05-19T07:08:14.000Z</time>
      </trkpt>
      <trkpt lat="44.50926" lon="4.05386">
        <ele>859.59997558594</ele>
        <time>2012-05-19T07:08:18.000Z</time>
      </trkpt>
      <trkpt lat="44.50909" lon="4.05383">
        <ele>854.20001220703</ele>
        <time>2012-05-19T07:08:23.000Z</time>
      </trkpt>
      <trkpt lat="44.50893" lon="4.05397">
        <ele>851.40002441406</ele>
        <time>2012-05-19T07:08:27.000Z</time>
      </trkpt>
      <trkpt lat="44.50887" lon="4.05408">
        <ele>851</ele>
        <time>2012-05-19T07:08:29.000Z</time>
      </trkpt>
      <trkpt lat="44.50877" lon="4.0543">
        <ele>848.79998779297</ele>
        <time>2012-05-19T07:08:32.000Z</time>
      </trkpt>
      <trkpt lat="44.50873" lon="4.05437">
        <ele>847.40002441406</ele>
        <time>2012-05-19T07:08:33.000Z</time>
      </trkpt>
      <trkpt lat="44.50861" lon="4.05461">
        <ele>843.79998779297</ele>
        <time>2012-05-19T07:08:36.000Z</time>
      </trkpt>
      <trkpt lat="44.50857" lon="4.05471">
        <ele>842.79998779297</ele>
        <time>2012-05-19T07:08:37.000Z</time>
      </trkpt>
      <trkpt lat="44.50848" lon="4.05499">
        <ele>840.79998779297</ele>
        <time>2012-05-19T07:08:40.000Z</time>
      </trkpt>
      <trkpt lat="44.5084" lon="4.05526">
        <ele>839</ele>
        <time>2012-05-19T07:08:43.000Z</time>
      </trkpt>
      <trkpt lat="44.50838" lon="4.05533">
        <ele>838.59997558594</ele>
        <time>2012-05-19T07:08:44.000Z</time>
      </trkpt>
      <trkpt lat="44.50835" lon="4.0554">
        <ele>838.40002441406</ele>
        <time>2012-05-19T07:08:45.000Z</time>
      </trkpt>
      <trkpt lat="44.50824" lon="4.05551">
        <ele>837.40002441406</ele>
        <time>2012-05-19T07:08:48.000Z</time>
      </trkpt>
      <trkpt lat="44.50821" lon="4.05552">
        <ele>837</ele>
        <time>2012-05-19T07:08:51.000Z</time>
      </trkpt>
      <trkpt lat="44.50822" lon="4.05551">
        <ele>837.20001220703</ele>
        <time>2012-05-19T07:10:05.000Z</time>
      </trkpt>
      <trkpt lat="44.50819" lon="4.05549">
        <ele>836.79998779297</ele>
        <time>2012-05-19T07:10:07.000Z</time>
      </trkpt>
      <trkpt lat="44.50819" lon="4.05546">
        <ele>836.79998779297</ele>
        <time>2012-05-19T07:10:10.000Z</time>
      </trkpt>
      <trkpt lat="44.5082" lon="4.05546">
        <ele>836.79998779297</ele>
        <time>2012-05-19T07:10:11.000Z</time>
      </trkpt>
      <trkpt lat="44.50818" lon="4.05545">
        <ele>836.59997558594</ele>
        <time>2012-05-19T07:10:44.000Z</time>
      </trkpt>
      <trkpt lat="44.5082" lon="4.05544">
        <ele>836.79998779297</ele>
        <time>2012-05-19T07:12:03.000Z</time>
      </trkpt>
      <trkpt lat="44.50823" lon="4.05542">
        <ele>837.20001220703</ele>
        <time>2012-05-19T07:12:25.000Z</time>
      </trkpt>
      <trkpt lat="44.50827" lon="4.05545">
        <ele>837.59997558594</ele>
        <time>2012-05-19T07:12:28.000Z</time>
      </trkpt>
      <trkpt lat="44.50829" lon="4.05549">
        <ele>837.79998779297</ele>
        <time>2012-05-19T07:12:30.000Z</time>
      </trkpt>
      <trkpt lat="44.50828" lon="4.05568">
        <ele>837.40002441406</ele>
        <time>2012-05-19T07:12:36.000Z</time>
      </trkpt>
      <trkpt lat="44.50827" lon="4.05572">
        <ele>837.40002441406</ele>
        <time>2012-05-19T07:12:37.000Z</time>
      </trkpt>
      <trkpt lat="44.50824" lon="4.05585">
        <ele>837</ele>
        <time>2012-05-19T07:12:42.000Z</time>
      </trkpt>
      <trkpt lat="44.50826" lon="4.05581">
        <ele>837.20001220703</ele>
        <time>2012-05-19T07:12:59.000Z</time>
      </trkpt>
      <trkpt lat="44.50827" lon="4.05567">
        <ele>837.40002441406</ele>
        <time>2012-05-19T07:13:05.000Z</time>
      </trkpt>
      <trkpt lat="44.50827" lon="4.05563">
        <ele>837.40002441406</ele>
        <time>2012-05-19T07:13:10.000Z</time>
      </trkpt>
      <trkpt lat="44.50825" lon="4.0556">
        <ele>837.40002441406</ele>
        <time>2012-05-19T07:14:05.000Z</time>
      </trkpt>
      <trkpt lat="44.50826" lon="4.0556">
        <ele>837.40002441406</ele>
        <time>2012-05-19T07:14:46.000Z</time>
      </trkpt>
      <trkpt lat="44.50828" lon="4.05561">
        <ele>837.59997558594</ele>
        <time>2012-05-19T07:15:43.000Z</time>
      </trkpt>
      <trkpt lat="44.50827" lon="4.05571">
        <ele>837.40002441406</ele>
        <time>2012-05-19T07:15:47.000Z</time>
      </trkpt>
      <trkpt lat="44.50826" lon="4.05579">
        <ele>837.20001220703</ele>
        <time>2012-05-19T07:15:50.000Z</time>
      </trkpt>
      <trkpt lat="44.50823" lon="4.0559">
        <ele>836.59997558594</ele>
        <time>2012-05-19T07:15:53.000Z</time>
      </trkpt>
      <trkpt lat="44.50817" lon="4.05616">
        <ele>834.20001220703</ele>
        <time>2012-05-19T07:15:58.000Z</time>
      </trkpt>
      <trkpt lat="44.50815" lon="4.05622">
        <ele>833.79998779297</ele>
        <time>2012-05-19T07:15:59.000Z</time>
      </trkpt>
      <trkpt lat="44.50803" lon="4.05644">
        <ele>833.20001220703</ele>
        <time>2012-05-19T07:16:03.000Z</time>
      </trkpt>
      <trkpt lat="44.50799" lon="4.05648">
        <ele>833.40002441406</ele>
        <time>2012-05-19T07:16:04.000Z</time>
      </trkpt>
      <trkpt lat="44.50781" lon="4.05664">
        <ele>835.59997558594</ele>
        <time>2012-05-19T07:16:08.000Z</time>
      </trkpt>
      <trkpt lat="44.50776" lon="4.05667">
        <ele>836.20001220703</ele>
        <time>2012-05-19T07:16:09.000Z</time>
      </trkpt>
      <trkpt lat="44.50759" lon="4.05679">
        <ele>836.79998779297</ele>
        <time>2012-05-19T07:16:12.000Z</time>
      </trkpt>
      <trkpt lat="44.50743" lon="4.05695">
        <ele>834.59997558594</ele>
        <time>2012-05-19T07:16:15.000Z</time>
      </trkpt>
      <trkpt lat="44.50729" lon="4.05716">
        <ele>830</ele>
        <time>2012-05-19T07:16:18.000Z</time>
      </trkpt>
      <trkpt lat="44.50721" lon="4.05731">
        <ele>827.20001220703</ele>
        <time>2012-05-19T07:16:20.000Z</time>
      </trkpt>
      <trkpt lat="44.50709" lon="4.05754">
        <ele>824.40002441406</ele>
        <time>2012-05-19T07:16:24.000Z</time>
      </trkpt>
      <trkpt lat="44.50701" lon="4.05774">
        <ele>824.79998779297</ele>
        <time>2012-05-19T07:16:28.000Z</time>
      </trkpt>
      <trkpt lat="44.50699" lon="4.05777">
        <ele>825</ele>
        <time>2012-05-19T07:16:29.000Z</time>
      </trkpt>
      <trkpt lat="44.50691" lon="4.05788">
        <ele>826</ele>
        <time>2012-05-19T07:16:33.000Z</time>
      </trkpt>
      <trkpt lat="44.50688" lon="4.05806">
        <ele>827</ele>
        <time>2012-05-19T07:16:38.000Z</time>
      </trkpt>
      <trkpt lat="44.50689" lon="4.05827">
        <ele>827.79998779297</ele>
        <time>2012-05-19T07:16:46.000Z</time>
      </trkpt>
      <trkpt lat="44.50692" lon="4.0584">
        <ele>828</ele>
        <time>2012-05-19T07:16:53.000Z</time>
      </trkpt>
      <trkpt lat="44.50695" lon="4.05855">
        <ele>829.20001220703</ele>
        <time>2012-05-19T07:17:00.000Z</time>
      </trkpt>
      <trkpt lat="44.50697" lon="4.05873">
        <ele>830.79998779297</ele>
        <time>2012-05-19T07:17:09.000Z</time>
      </trkpt>
      <trkpt lat="44.50699" lon="4.05891">
        <ele>832.40002441406</ele>
        <time>2012-05-19T07:17:16.000Z</time>
      </trkpt>
      <trkpt lat="44.50698" lon="4.05909">
        <ele>834.79998779297</ele>
        <time>2012-05-19T07:17:23.000Z</time>
      </trkpt>
      <trkpt lat="44.50693" lon="4.05926">
        <ele>837.79998779297</ele>
        <time>2012-05-19T07:17:30.000Z</time>
      </trkpt>
      <trkpt lat="44.50688" lon="4.0594">
        <ele>840.40002441406</ele>
        <time>2012-05-19T07:17:37.000Z</time>
      </trkpt>
      <trkpt lat="44.50682" lon="4.05961">
        <ele>843.40002441406</ele>
        <time>2012-05-19T07:17:45.000Z</time>
      </trkpt>
      <trkpt lat="44.50676" lon="4.05982">
        <ele>846.40002441406</ele>
        <time>2012-05-19T07:17:53.000Z</time>
      </trkpt>
      <trkpt lat="44.50673" lon="4.06003">
        <ele>848.79998779297</ele>
        <time>2012-05-19T07:18:02.000Z</time>
      </trkpt>
      <trkpt lat="44.50674" lon="4.06019">
        <ele>849.59997558594</ele>
        <time>2012-05-19T07:18:10.000Z</time>
      </trkpt>
      <trkpt lat="44.50678" lon="4.06034">
        <ele>849.40002441406</ele>
        <time>2012-05-19T07:18:18.000Z</time>
      </trkpt>
      <trkpt lat="44.50679" lon="4.06042">
        <ele>849.59997558594</ele>
        <time>2012-05-19T07:18:22.000Z</time>
      </trkpt>
      <trkpt lat="44.5068" lon="4.06045">
        <ele>849.40002441406</ele>
        <time>2012-05-19T07:18:24.000Z</time>
      </trkpt>
      <trkpt lat="44.50683" lon="4.06056">
        <ele>849</ele>
        <time>2012-05-19T07:18:30.000Z</time>
      </trkpt>
      <trkpt lat="44.50684" lon="4.06058">
        <ele>849</ele>
        <time>2012-05-19T07:18:31.000Z</time>
      </trkpt>
      <trkpt lat="44.50687" lon="4.06075">
        <ele>848.59997558594</ele>
        <time>2012-05-19T07:18:40.000Z</time>
      </trkpt>
      <trkpt lat="44.50691" lon="4.06092">
        <ele>847.79998779297</ele>
        <time>2012-05-19T07:18:49.000Z</time>
      </trkpt>
      <trkpt lat="44.50689" lon="4.06103">
        <ele>848.40002441406</ele>
        <time>2012-05-19T07:18:55.000Z</time>
      </trkpt>
      <trkpt lat="44.50688" lon="4.06104">
        <ele>849.20001220703</ele>
        <time>2012-05-19T07:19:00.000Z</time>
      </trkpt>
      <trkpt lat="44.50685" lon="4.06107">
        <ele>850.79998779297</ele>
        <time>2012-05-19T07:19:05.000Z</time>
      </trkpt>
      <trkpt lat="44.50679" lon="4.06102">
        <ele>853.59997558594</ele>
        <time>2012-05-19T07:19:12.000Z</time>
      </trkpt>
      <trkpt lat="44.50678" lon="4.061">
        <ele>853.79998779297</ele>
        <time>2012-05-19T07:19:16.000Z</time>
      </trkpt>
      <trkpt lat="44.50675" lon="4.06094">
        <ele>855.40002441406</ele>
        <time>2012-05-19T07:19:43.000Z</time>
      </trkpt>
      <trkpt lat="44.50674" lon="4.06094">
        <ele>855.59997558594</ele>
        <time>2012-05-19T07:19:44.000Z</time>
      </trkpt>
      <trkpt lat="44.50674" lon="4.06094">
        <ele>856</ele>
        <time>2012-05-19T07:19:50.000Z</time>
      </trkpt>
      <trkpt lat="44.50672" lon="4.06092">
        <ele>856.79998779297</ele>
        <time>2012-05-19T07:20:02.000Z</time>
      </trkpt>
      <trkpt lat="44.5067" lon="4.06091">
        <ele>857.40002441406</ele>
        <time>2012-05-19T07:20:05.000Z</time>
      </trkpt>
      <trkpt lat="44.50664" lon="4.06084">
        <ele>859.40002441406</ele>
        <time>2012-05-19T07:20:10.000Z</time>
      </trkpt>
      <trkpt lat="44.50655" lon="4.06078">
        <ele>860.20001220703</ele>
        <time>2012-05-19T07:20:16.000Z</time>
      </trkpt>
      <trkpt lat="44.50644" lon="4.06068">
        <ele>860.79998779297</ele>
        <time>2012-05-19T07:20:23.000Z</time>
      </trkpt>
      <trkpt lat="44.50635" lon="4.0606">
        <ele>861.20001220703</ele>
        <time>2012-05-19T07:20:29.000Z</time>
      </trkpt>
      <trkpt lat="44.50626" lon="4.06056">
        <ele>862</ele>
        <time>2012-05-19T07:20:35.000Z</time>
      </trkpt>
      <trkpt lat="44.50617" lon="4.06051">
        <ele>862.79998779297</ele>
        <time>2012-05-19T07:20:41.000Z</time>
      </trkpt>
      <trkpt lat="44.50608" lon="4.06047">
        <ele>863.59997558594</ele>
        <time>2012-05-19T07:20:47.000Z</time>
      </trkpt>
      <trkpt lat="44.50597" lon="4.06045">
        <ele>865</ele>
        <time>2012-05-19T07:20:54.000Z</time>
      </trkpt>
      <trkpt lat="44.50587" lon="4.06052">
        <ele>867.20001220703</ele>
        <time>2012-05-19T07:21:00.000Z</time>
      </trkpt>
      <trkpt lat="44.50584" lon="4.0607">
        <ele>869.59997558594</ele>
        <time>2012-05-19T07:21:05.000Z</time>
      </trkpt>
      <trkpt lat="44.50586" lon="4.06076">
        <ele>869.79998779297</ele>
        <time>2012-05-19T07:21:09.000Z</time>
      </trkpt>
      <trkpt lat="44.50584" lon="4.06086">
        <ele>871</ele>
        <time>2012-05-19T07:21:36.000Z</time>
      </trkpt>
      <trkpt lat="44.50577" lon="4.0611">
        <ele>871.40002441406</ele>
        <time>2012-05-19T07:21:44.000Z</time>
      </trkpt>
      <trkpt lat="44.50571" lon="4.06136">
        <ele>872</ele>
        <time>2012-05-19T07:21:51.000Z</time>
      </trkpt>
      <trkpt lat="44.5057" lon="4.06139">
        <ele>872</ele>
        <time>2012-05-19T07:21:52.000Z</time>
      </trkpt>
      <trkpt lat="44.50568" lon="4.06146">
        <ele>872</ele>
        <time>2012-05-19T07:21:54.000Z</time>
      </trkpt>
      <trkpt lat="44.50561" lon="4.06161">
        <ele>871.79998779297</ele>
        <time>2012-05-19T07:21:59.000Z</time>
      </trkpt>
      <trkpt lat="44.50549" lon="4.06184">
        <ele>872.40002441406</ele>
        <time>2012-05-19T07:22:07.000Z</time>
      </trkpt>
      <trkpt lat="44.50539" lon="4.06197">
        <ele>873</ele>
        <time>2012-05-19T07:22:14.000Z</time>
      </trkpt>
      <trkpt lat="44.50533" lon="4.06207">
        <ele>873.59997558594</ele>
        <time>2012-05-19T07:22:19.000Z</time>
      </trkpt>
      <trkpt lat="44.5052" lon="4.06224">
        <ele>875</ele>
        <time>2012-05-19T07:22:27.000Z</time>
      </trkpt>
      <trkpt lat="44.50509" lon="4.06241">
        <ele>876.79998779297</ele>
        <time>2012-05-19T07:22:34.000Z</time>
      </trkpt>
      <trkpt lat="44.50498" lon="4.06258">
        <ele>878.59997558594</ele>
        <time>2012-05-19T07:22:42.000Z</time>
      </trkpt>
      <trkpt lat="44.50486" lon="4.06276">
        <ele>878.59997558594</ele>
        <time>2012-05-19T07:22:50.000Z</time>
      </trkpt>
      <trkpt lat="44.50476" lon="4.06291">
        <ele>878.79998779297</ele>
        <time>2012-05-19T07:22:57.000Z</time>
      </trkpt>
      <trkpt lat="44.50465" lon="4.06307">
        <ele>879.59997558594</ele>
        <time>2012-05-19T07:23:05.000Z</time>
      </trkpt>
      <trkpt lat="44.50457" lon="4.06318">
        <ele>880.40002441406</ele>
        <time>2012-05-19T07:23:11.000Z</time>
      </trkpt>
      <trkpt lat="44.50447" lon="4.06331">
        <ele>881.20001220703</ele>
        <time>2012-05-19T07:23:17.000Z</time>
      </trkpt>
      <trkpt lat="44.50434" lon="4.0635">
        <ele>880.79998779297</ele>
        <time>2012-05-19T07:23:24.000Z</time>
      </trkpt>
      <trkpt lat="44.50432" lon="4.06353">
        <ele>880.79998779297</ele>
        <time>2012-05-19T07:23:25.000Z</time>
      </trkpt>
      <trkpt lat="44.50419" lon="4.06372">
        <ele>881.40002441406</ele>
        <time>2012-05-19T07:23:32.000Z</time>
      </trkpt>
      <trkpt lat="44.50415" lon="4.06378">
        <ele>881.59997558594</ele>
        <time>2012-05-19T07:23:34.000Z</time>
      </trkpt>
      <trkpt lat="44.50401" lon="4.06398">
        <ele>882</ele>
        <time>2012-05-19T07:23:42.000Z</time>
      </trkpt>
      <trkpt lat="44.50388" lon="4.06417">
        <ele>882.79998779297</ele>
        <time>2012-05-19T07:23:49.000Z</time>
      </trkpt>
      <trkpt lat="44.50386" lon="4.0642">
        <ele>882.59997558594</ele>
        <time>2012-05-19T07:23:50.000Z</time>
      </trkpt>
      <trkpt lat="44.50375" lon="4.06439">
        <ele>881</ele>
        <time>2012-05-19T07:23:57.000Z</time>
      </trkpt>
      <trkpt lat="44.50363" lon="4.06458">
        <ele>880.20001220703</ele>
        <time>2012-05-19T07:24:03.000Z</time>
      </trkpt>
      <trkpt lat="44.50361" lon="4.06461">
        <ele>880</ele>
        <time>2012-05-19T07:24:04.000Z</time>
      </trkpt>
      <trkpt lat="44.50348" lon="4.06481">
        <ele>880.20001220703</ele>
        <time>2012-05-19T07:24:09.000Z</time>
      </trkpt>
      <trkpt lat="44.50337" lon="4.06504">
        <ele>881.20001220703</ele>
        <time>2012-05-19T07:24:13.000Z</time>
      </trkpt>
      <trkpt lat="44.50328" lon="4.06525">
        <ele>881.40002441406</ele>
        <time>2012-05-19T07:24:17.000Z</time>
      </trkpt>
      <trkpt lat="44.50316" lon="4.06551">
        <ele>881.59997558594</ele>
        <time>2012-05-19T07:24:22.000Z</time>
      </trkpt>
      <trkpt lat="44.50311" lon="4.06561">
        <ele>882</ele>
        <time>2012-05-19T07:24:24.000Z</time>
      </trkpt>
      <trkpt lat="44.50305" lon="4.0657">
        <ele>882.40002441406</ele>
        <time>2012-05-19T07:24:26.000Z</time>
      </trkpt>
      <trkpt lat="44.50293" lon="4.06581">
        <ele>882.79998779297</ele>
        <time>2012-05-19T07:24:29.000Z</time>
      </trkpt>
      <trkpt lat="44.50272" lon="4.06584">
        <ele>882</ele>
        <time>2012-05-19T07:24:33.000Z</time>
      </trkpt>
      <trkpt lat="44.50261" lon="4.06583">
        <ele>881.40002441406</ele>
        <time>2012-05-19T07:24:35.000Z</time>
      </trkpt>
      <trkpt lat="44.50246" lon="4.06582">
        <ele>880.59997558594</ele>
        <time>2012-05-19T07:24:38.000Z</time>
      </trkpt>
      <trkpt lat="44.50242" lon="4.06581">
        <ele>880</ele>
        <time>2012-05-19T07:24:39.000Z</time>
      </trkpt>
      <trkpt lat="44.50236" lon="4.06578">
        <ele>879.20001220703</ele>
        <time>2012-05-19T07:24:41.000Z</time>
      </trkpt>
      <trkpt lat="44.50232" lon="4.06576">
        <ele>878.59997558594</ele>
        <time>2012-05-19T07:24:43.000Z</time>
      </trkpt>
      <trkpt lat="44.50227" lon="4.06572">
        <ele>877.59997558594</ele>
        <time>2012-05-19T07:24:47.000Z</time>
      </trkpt>
      <trkpt lat="44.50225" lon="4.06572">
        <ele>877.40002441406</ele>
        <time>2012-05-19T07:24:48.000Z</time>
      </trkpt>
      <trkpt lat="44.50224" lon="4.06571">
        <ele>877.20001220703</ele>
        <time>2012-05-19T07:24:53.000Z</time>
      </trkpt>
      <trkpt lat="44.50219" lon="4.06568">
        <ele>876.20001220703</ele>
        <time>2012-05-19T07:24:58.000Z</time>
      </trkpt>
      <trkpt lat="44.50218" lon="4.06568">
        <ele>876</ele>
        <time>2012-05-19T07:25:03.000Z</time>
      </trkpt>
      <trkpt lat="44.50216" lon="4.06566">
        <ele>875.59997558594</ele>
        <time>2012-05-19T07:25:25.000Z</time>
      </trkpt>
      <trkpt lat="44.50209" lon="4.0656">
        <ele>874</ele>
        <time>2012-05-19T07:26:29.000Z</time>
      </trkpt>
      <trkpt lat="44.5019" lon="4.06549">
        <ele>870</ele>
        <time>2012-05-19T07:26:36.000Z</time>
      </trkpt>
      <trkpt lat="44.5017" lon="4.06547">
        <ele>868.20001220703</ele>
        <time>2012-05-19T07:26:42.000Z</time>
      </trkpt>
      <trkpt lat="44.50149" lon="4.06557">
        <ele>868.59997558594</ele>
        <time>2012-05-19T07:26:47.000Z</time>
      </trkpt>
      <trkpt lat="44.50131" lon="4.06569">
        <ele>869.79998779297</ele>
        <time>2012-05-19T07:26:52.000Z</time>
      </trkpt>
      <trkpt lat="44.50127" lon="4.06572">
        <ele>870</ele>
        <time>2012-05-19T07:26:53.000Z</time>
      </trkpt>
      <trkpt lat="44.50116" lon="4.06578">
        <ele>870.40002441406</ele>
        <time>2012-05-19T07:26:56.000Z</time>
      </trkpt>
      <trkpt lat="44.50108" lon="4.06584">
        <ele>870.79998779297</ele>
        <time>2012-05-19T07:26:58.000Z</time>
      </trkpt>
      <trkpt lat="44.50088" lon="4.06596">
        <ele>870.40002441406</ele>
        <time>2012-05-19T07:27:03.000Z</time>
      </trkpt>
      <trkpt lat="44.50077" lon="4.06604">
        <ele>870.40002441406</ele>
        <time>2012-05-19T07:27:06.000Z</time>
      </trkpt>
      <trkpt lat="44.50065" lon="4.06611">
        <ele>870.59997558594</ele>
        <time>2012-05-19T07:27:09.000Z</time>
      </trkpt>
      <trkpt lat="44.50057" lon="4.06619">
        <ele>871</ele>
        <time>2012-05-19T07:27:11.000Z</time>
      </trkpt>
      <trkpt lat="44.50045" lon="4.06632">
        <ele>872</ele>
        <time>2012-05-19T07:27:14.000Z</time>
      </trkpt>
      <trkpt lat="44.50032" lon="4.06644">
        <ele>872.79998779297</ele>
        <time>2012-05-19T07:27:17.000Z</time>
      </trkpt>
      <trkpt lat="44.50022" lon="4.0665">
        <ele>873</ele>
        <time>2012-05-19T07:27:19.000Z</time>
      </trkpt>
      <trkpt lat="44.50008" lon="4.06659">
        <ele>873.40002441406</ele>
        <time>2012-05-19T07:27:22.000Z</time>
      </trkpt>
      <trkpt lat="44.49992" lon="4.06668">
        <ele>874</ele>
        <time>2012-05-19T07:27:25.000Z</time>
      </trkpt>
      <trkpt lat="44.49974" lon="4.06671">
        <ele>874.20001220703</ele>
        <time>2012-05-19T07:27:28.000Z</time>
      </trkpt>
      <trkpt lat="44.49954" lon="4.06671">
        <ele>874.20001220703</ele>
        <time>2012-05-19T07:27:32.000Z</time>
      </trkpt>
      <trkpt lat="44.4995" lon="4.06671">
        <ele>874.20001220703</ele>
        <time>2012-05-19T07:27:33.000Z</time>
      </trkpt>
      <trkpt lat="44.4993" lon="4.0667">
        <ele>874.20001220703</ele>
        <time>2012-05-19T07:27:38.000Z</time>
      </trkpt>
      <trkpt lat="44.49926" lon="4.06669">
        <ele>874.20001220703</ele>
        <time>2012-05-19T07:27:39.000Z</time>
      </trkpt>
      <trkpt lat="44.49923" lon="4.06668">
        <ele>874</ele>
        <time>2012-05-19T07:27:40.000Z</time>
      </trkpt>
      <trkpt lat="44.49907" lon="4.06666">
        <ele>874</ele>
        <time>2012-05-19T07:27:44.000Z</time>
      </trkpt>
      <trkpt lat="44.49903" lon="4.06665">
        <ele>874</ele>
        <time>2012-05-19T07:27:45.000Z</time>
      </trkpt>
      <trkpt lat="44.49884" lon="4.06663">
        <ele>874</ele>
        <time>2012-05-19T07:27:50.000Z</time>
      </trkpt>
      <trkpt lat="44.4988" lon="4.06662">
        <ele>874</ele>
        <time>2012-05-19T07:27:51.000Z</time>
      </trkpt>
      <trkpt lat="44.49861" lon="4.0666">
        <ele>874</ele>
        <time>2012-05-19T07:27:56.000Z</time>
      </trkpt>
      <trkpt lat="44.49854" lon="4.06659">
        <ele>874</ele>
        <time>2012-05-19T07:27:58.000Z</time>
      </trkpt>
      <trkpt lat="44.49836" lon="4.06658">
        <ele>874</ele>
        <time>2012-05-19T07:28:03.000Z</time>
      </trkpt>
      <trkpt lat="44.49828" lon="4.06658">
        <ele>873.40002441406</ele>
        <time>2012-05-19T07:28:05.000Z</time>
      </trkpt>
      <trkpt lat="44.4981" lon="4.06662">
        <ele>871.59997558594</ele>
        <time>2012-05-19T07:28:09.000Z</time>
      </trkpt>
      <trkpt lat="44.49805" lon="4.06662">
        <ele>871.20001220703</ele>
        <time>2012-05-19T07:28:10.000Z</time>
      </trkpt>
      <trkpt lat="44.49784" lon="4.06665">
        <ele>869</ele>
        <time>2012-05-19T07:28:15.000Z</time>
      </trkpt>
      <trkpt lat="44.49781" lon="4.06664">
        <ele>868.40002441406</ele>
        <time>2012-05-19T07:28:16.000Z</time>
      </trkpt>
      <trkpt lat="44.49772" lon="4.06659">
        <ele>866</ele>
        <time>2012-05-19T07:28:20.000Z</time>
      </trkpt>
      <trkpt lat="44.49766" lon="4.06654">
        <ele>863.59997558594</ele>
        <time>2012-05-19T07:28:25.000Z</time>
      </trkpt>
      <trkpt lat="44.49764" lon="4.06653">
        <ele>863</ele>
        <time>2012-05-19T07:28:33.000Z</time>
      </trkpt>
      <trkpt lat="44.49762" lon="4.06651">
        <ele>862.20001220703</ele>
        <time>2012-05-19T07:28:36.000Z</time>
      </trkpt>
      <trkpt lat="44.4976" lon="4.0665">
        <ele>861.59997558594</ele>
        <time>2012-05-19T07:28:39.000Z</time>
      </trkpt>
      <trkpt lat="44.49759" lon="4.06646">
        <ele>860.40002441406</ele>
        <time>2012-05-19T07:28:44.000Z</time>
      </trkpt>
      <trkpt lat="44.49756" lon="4.0664">
        <ele>858.40002441406</ele>
        <time>2012-05-19T07:28:50.000Z</time>
      </trkpt>
      <trkpt lat="44.49755" lon="4.0664">
        <ele>858</ele>
        <time>2012-05-19T07:28:51.000Z</time>
      </trkpt>
      <trkpt lat="44.4975" lon="4.06635">
        <ele>856</ele>
        <time>2012-05-19T07:28:59.000Z</time>
      </trkpt>
      <trkpt lat="44.49743" lon="4.06632">
        <ele>854.20001220703</ele>
        <time>2012-05-19T07:29:08.000Z</time>
      </trkpt>
      <trkpt lat="44.4974" lon="4.06632">
        <ele>854</ele>
        <time>2012-05-19T07:29:12.000Z</time>
      </trkpt>
      <trkpt lat="44.49735" lon="4.06632">
        <ele>853.59997558594</ele>
        <time>2012-05-19T07:29:19.000Z</time>
      </trkpt>
      <trkpt lat="44.49725" lon="4.06627">
        <ele>851.20001220703</ele>
        <time>2012-05-19T07:29:25.000Z</time>
      </trkpt>
      <trkpt lat="44.49724" lon="4.06626">
        <ele>850.79998779297</ele>
        <time>2012-05-19T07:29:29.000Z</time>
      </trkpt>
      <trkpt lat="44.49715" lon="4.06618">
        <ele>848.20001220703</ele>
        <time>2012-05-19T07:30:30.000Z</time>
      </trkpt>
      <trkpt lat="44.49705" lon="4.06615">
        <ele>846.59997558594</ele>
        <time>2012-05-19T07:30:35.000Z</time>
      </trkpt>
      <trkpt lat="44.49689" lon="4.06607">
        <ele>843.79998779297</ele>
        <time>2012-05-19T07:30:41.000Z</time>
      </trkpt>
      <trkpt lat="44.49675" lon="4.06609">
        <ele>843.20001220703</ele>
        <time>2012-05-19T07:30:46.000Z</time>
      </trkpt>
      <trkpt lat="44.49662" lon="4.0661">
        <ele>842.20001220703</ele>
        <time>2012-05-19T07:30:50.000Z</time>
      </trkpt>
      <trkpt lat="44.49647" lon="4.06608">
        <ele>840.20001220703</ele>
        <time>2012-05-19T07:30:56.000Z</time>
      </trkpt>
      <trkpt lat="44.49635" lon="4.06604">
        <ele>838.40002441406</ele>
        <time>2012-05-19T07:30:59.000Z</time>
      </trkpt>
      <trkpt lat="44.49632" lon="4.06603">
        <ele>837.79998779297</ele>
        <time>2012-05-19T07:31:00.000Z</time>
      </trkpt>
      <trkpt lat="44.49619" lon="4.06599">
        <ele>835.79998779297</ele>
        <time>2012-05-19T07:31:03.000Z</time>
      </trkpt>
      <trkpt lat="44.49614" lon="4.06597">
        <ele>835</ele>
        <time>2012-05-19T07:31:04.000Z</time>
      </trkpt>
      <trkpt lat="44.49594" lon="4.06594">
        <ele>832.40002441406</ele>
        <time>2012-05-19T07:31:08.000Z</time>
      </trkpt>
      <trkpt lat="44.4959" lon="4.06593">
        <ele>831.79998779297</ele>
        <time>2012-05-19T07:31:09.000Z</time>
      </trkpt>
      <trkpt lat="44.49582" lon="4.0659">
        <ele>830.79998779297</ele>
        <time>2012-05-19T07:31:11.000Z</time>
      </trkpt>
      <trkpt lat="44.49572" lon="4.06588">
        <ele>830</ele>
        <time>2012-05-19T07:31:14.000Z</time>
      </trkpt>
      <trkpt lat="44.49568" lon="4.06588">
        <ele>829.79998779297</ele>
        <time>2012-05-19T07:31:15.000Z</time>
      </trkpt>
      <trkpt lat="44.49554" lon="4.06585">
        <ele>828.79998779297</ele>
        <time>2012-05-19T07:31:19.000Z</time>
      </trkpt>
      <trkpt lat="44.49551" lon="4.06585">
        <ele>828.59997558594</ele>
        <time>2012-05-19T07:31:20.000Z</time>
      </trkpt>
      <trkpt lat="44.49538" lon="4.06587">
        <ele>828.20001220703</ele>
        <time>2012-05-19T07:31:24.000Z</time>
      </trkpt>
      <trkpt lat="44.4953" lon="4.0659">
        <ele>828.20001220703</ele>
        <time>2012-05-19T07:31:28.000Z</time>
      </trkpt>
      <trkpt lat="44.49529" lon="4.06593">
        <ele>828.40002441406</ele>
        <time>2012-05-19T07:31:29.000Z</time>
      </trkpt>
      <trkpt lat="44.49523" lon="4.06605">
        <ele>829.59997558594</ele>
        <time>2012-05-19T07:31:34.000Z</time>
      </trkpt>
      <trkpt lat="44.49515" lon="4.06613">
        <ele>830</ele>
        <time>2012-05-19T07:31:39.000Z</time>
      </trkpt>
      <trkpt lat="44.49507" lon="4.06617">
        <ele>830</ele>
        <time>2012-05-19T07:31:41.000Z</time>
      </trkpt>
      <trkpt lat="44.49499" lon="4.06619">
        <ele>829.79998779297</ele>
        <time>2012-05-19T07:31:43.000Z</time>
      </trkpt>
      <trkpt lat="44.49482" lon="4.06618">
        <ele>828.59997558594</ele>
        <time>2012-05-19T07:31:47.000Z</time>
      </trkpt>
      <trkpt lat="44.49466" lon="4.06614">
        <ele>827.20001220703</ele>
        <time>2012-05-19T07:31:52.000Z</time>
      </trkpt>
      <trkpt lat="44.49457" lon="4.06614">
        <ele>826.79998779297</ele>
        <time>2012-05-19T07:31:57.000Z</time>
      </trkpt>
      <trkpt lat="44.49453" lon="4.06618">
        <ele>826.79998779297</ele>
        <time>2012-05-19T07:32:03.000Z</time>
      </trkpt>
      <trkpt lat="44.49445" lon="4.06622">
        <ele>827</ele>
        <time>2012-05-19T07:32:13.000Z</time>
      </trkpt>
      <trkpt lat="44.4944" lon="4.06626">
        <ele>827</ele>
        <time>2012-05-19T07:32:17.000Z</time>
      </trkpt>
      <trkpt lat="44.49426" lon="4.06641">
        <ele>827.79998779297</ele>
        <time>2012-05-19T07:32:22.000Z</time>
      </trkpt>
      <trkpt lat="44.49423" lon="4.06643">
        <ele>827.79998779297</ele>
        <time>2012-05-19T07:32:23.000Z</time>
      </trkpt>
      <trkpt lat="44.49414" lon="4.06643">
        <ele>826.79998779297</ele>
        <time>2012-05-19T07:32:26.000Z</time>
      </trkpt>
      <trkpt lat="44.49402" lon="4.06639">
        <ele>823.20001220703</ele>
        <time>2012-05-19T07:32:31.000Z</time>
      </trkpt>
      <trkpt lat="44.49398" lon="4.06636">
        <ele>821.79998779297</ele>
        <time>2012-05-19T07:32:33.000Z</time>
      </trkpt>
      <trkpt lat="44.49393" lon="4.06634">
        <ele>820.40002441406</ele>
        <time>2012-05-19T07:32:36.000Z</time>
      </trkpt>
      <trkpt lat="44.49386" lon="4.06636">
        <ele>818.59997558594</ele>
        <time>2012-05-19T07:32:40.000Z</time>
      </trkpt>
      <trkpt lat="44.49382" lon="4.06636">
        <ele>817.59997558594</ele>
        <time>2012-05-19T07:32:42.000Z</time>
      </trkpt>
      <trkpt lat="44.49376" lon="4.06636">
        <ele>816.20001220703</ele>
        <time>2012-05-19T07:32:45.000Z</time>
      </trkpt>
      <trkpt lat="44.49373" lon="4.06638">
        <ele>815.79998779297</ele>
        <time>2012-05-19T07:32:46.000Z</time>
      </trkpt>
      <trkpt lat="44.49366" lon="4.06642">
        <ele>814.59997558594</ele>
        <time>2012-05-19T07:32:49.000Z</time>
      </trkpt>
      <trkpt lat="44.49356" lon="4.06646">
        <ele>812.59997558594</ele>
        <time>2012-05-19T07:32:53.000Z</time>
      </trkpt>
      <trkpt lat="44.49354" lon="4.06646">
        <ele>811.79998779297</ele>
        <time>2012-05-19T07:32:54.000Z</time>
      </trkpt>
      <trkpt lat="44.49345" lon="4.06645">
        <ele>809.59997558594</ele>
        <time>2012-05-19T07:32:57.000Z</time>
      </trkpt>
      <trkpt lat="44.49335" lon="4.0664">
        <ele>806.20001220703</ele>
        <time>2012-05-19T07:33:02.000Z</time>
      </trkpt>
      <trkpt lat="44.49325" lon="4.06641">
        <ele>804</ele>
        <time>2012-05-19T07:33:07.000Z</time>
      </trkpt>
      <trkpt lat="44.49321" lon="4.06637">
        <ele>802.40002441406</ele>
        <time>2012-05-19T07:33:10.000Z</time>
      </trkpt>
      <trkpt lat="44.49314" lon="4.06636">
        <ele>800.40002441406</ele>
        <time>2012-05-19T07:33:13.000Z</time>
      </trkpt>
      <trkpt lat="44.49299" lon="4.06631">
        <ele>795.79998779297</ele>
        <time>2012-05-19T07:33:18.000Z</time>
      </trkpt>
      <trkpt lat="44.49281" lon="4.06639">
        <ele>792.79998779297</ele>
        <time>2012-05-19T07:33:23.000Z</time>
      </trkpt>
      <trkpt lat="44.49269" lon="4.0664">
        <ele>790</ele>
        <time>2012-05-19T07:33:28.000Z</time>
      </trkpt>
      <trkpt lat="44.49254" lon="4.06636">
        <ele>785.79998779297</ele>
        <time>2012-05-19T07:33:34.000Z</time>
      </trkpt>
      <trkpt lat="44.49239" lon="4.06634">
        <ele>783.79998779297</ele>
        <time>2012-05-19T07:33:40.000Z</time>
      </trkpt>
      <trkpt lat="44.49237" lon="4.06634">
        <ele>783.59997558594</ele>
        <time>2012-05-19T07:33:45.000Z</time>
      </trkpt>
      <trkpt lat="44.49236" lon="4.06633">
        <ele>783.40002441406</ele>
        <time>2012-05-19T07:33:46.000Z</time>
      </trkpt>
      <trkpt lat="44.49233" lon="4.06627">
        <ele>782.20001220703</ele>
        <time>2012-05-19T07:33:50.000Z</time>
      </trkpt>
      <trkpt lat="44.49224" lon="4.06616">
        <ele>780.20001220703</ele>
        <time>2012-05-19T07:33:54.000Z</time>
      </trkpt>
      <trkpt lat="44.49209" lon="4.06605">
        <ele>778</ele>
        <time>2012-05-19T07:33:59.000Z</time>
      </trkpt>
      <trkpt lat="44.49196" lon="4.0659">
        <ele>776</ele>
        <time>2012-05-19T07:34:04.000Z</time>
      </trkpt>
      <trkpt lat="44.49187" lon="4.0658">
        <ele>774.40002441406</ele>
        <time>2012-05-19T07:34:09.000Z</time>
      </trkpt>
      <trkpt lat="44.49185" lon="4.0658">
        <ele>774.20001220703</ele>
        <time>2012-05-19T07:34:10.000Z</time>
      </trkpt>
      <trkpt lat="44.4918" lon="4.06577">
        <ele>773.40002441406</ele>
        <time>2012-05-19T07:34:13.000Z</time>
      </trkpt>
      <trkpt lat="44.49175" lon="4.06573">
        <ele>772.59997558594</ele>
        <time>2012-05-19T07:34:15.000Z</time>
      </trkpt>
      <trkpt lat="44.49165" lon="4.06564">
        <ele>770.40002441406</ele>
        <time>2012-05-19T07:34:19.000Z</time>
      </trkpt>
      <trkpt lat="44.49154" lon="4.06558">
        <ele>768.20001220703</ele>
        <time>2012-05-19T07:34:23.000Z</time>
      </trkpt>
      <trkpt lat="44.4915" lon="4.06553">
        <ele>767</ele>
        <time>2012-05-19T07:34:25.000Z</time>
      </trkpt>
      <trkpt lat="44.49149" lon="4.06548">
        <ele>765.79998779297</ele>
        <time>2012-05-19T07:34:27.000Z</time>
      </trkpt>
      <trkpt lat="44.49142" lon="4.06546">
        <ele>765</ele>
        <time>2012-05-19T07:34:30.000Z</time>
      </trkpt>
      <trkpt lat="44.49139" lon="4.06546">
        <ele>764.79998779297</ele>
        <time>2012-05-19T07:34:31.000Z</time>
      </trkpt>
      <trkpt lat="44.49126" lon="4.06548">
        <ele>764.40002441406</ele>
        <time>2012-05-19T07:34:35.000Z</time>
      </trkpt>
      <trkpt lat="44.49115" lon="4.06544">
        <ele>763</ele>
        <time>2012-05-19T07:34:39.000Z</time>
      </trkpt>
      <trkpt lat="44.49101" lon="4.06537">
        <ele>761.40002441406</ele>
        <time>2012-05-19T07:34:45.000Z</time>
      </trkpt>
      <trkpt lat="44.49099" lon="4.06536">
        <ele>761.20001220703</ele>
        <time>2012-05-19T07:34:46.000Z</time>
      </trkpt>
      <trkpt lat="44.49088" lon="4.06536">
        <ele>760.59997558594</ele>
        <time>2012-05-19T07:34:49.000Z</time>
      </trkpt>
      <trkpt lat="44.49073" lon="4.06531">
        <ele>758.59997558594</ele>
        <time>2012-05-19T07:34:53.000Z</time>
      </trkpt>
      <trkpt lat="44.49051" lon="4.06528">
        <ele>755.79998779297</ele>
        <time>2012-05-19T07:34:58.000Z</time>
      </trkpt>
      <trkpt lat="44.49033" lon="4.06523">
        <ele>753.20001220703</ele>
        <time>2012-05-19T07:35:03.000Z</time>
      </trkpt>
      <trkpt lat="44.49021" lon="4.0652">
        <ele>751.59997558594</ele>
        <time>2012-05-19T07:35:07.000Z</time>
      </trkpt>
      <trkpt lat="44.4901" lon="4.06518">
        <ele>750</ele>
        <time>2012-05-19T07:35:11.000Z</time>
      </trkpt>
      <trkpt lat="44.49006" lon="4.06518">
        <ele>749.59997558594</ele>
        <time>2012-05-19T07:35:12.000Z</time>
      </trkpt>
      <trkpt lat="44.48996" lon="4.06514">
        <ele>748.40002441406</ele>
        <time>2012-05-19T07:35:15.000Z</time>
      </trkpt>
      <trkpt lat="44.48985" lon="4.06509">
        <ele>747.40002441406</ele>
        <time>2012-05-19T07:35:19.000Z</time>
      </trkpt>
      <trkpt lat="44.48982" lon="4.0651">
        <ele>747.20001220703</ele>
        <time>2012-05-19T07:35:23.000Z</time>
      </trkpt>
      <trkpt lat="44.4898" lon="4.06512">
        <ele>747</ele>
        <time>2012-05-19T07:35:35.000Z</time>
      </trkpt>
      <trkpt lat="44.48977" lon="4.06513">
        <ele>746.79998779297</ele>
        <time>2012-05-19T07:35:40.000Z</time>
      </trkpt>
      <trkpt lat="44.4897" lon="4.06513">
        <ele>746.40002441406</ele>
        <time>2012-05-19T07:35:45.000Z</time>
      </trkpt>
      <trkpt lat="44.48958" lon="4.06518">
        <ele>745.40002441406</ele>
        <time>2012-05-19T07:35:50.000Z</time>
      </trkpt>
      <trkpt lat="44.48949" lon="4.06515">
        <ele>744.59997558594</ele>
        <time>2012-05-19T07:35:54.000Z</time>
      </trkpt>
      <trkpt lat="44.48948" lon="4.06515">
        <ele>744.59997558594</ele>
        <time>2012-05-19T07:35:55.000Z</time>
      </trkpt>
      <trkpt lat="44.48946" lon="4.06515">
        <ele>744.40002441406</ele>
        <time>2012-05-19T07:35:58.000Z</time>
      </trkpt>
      <trkpt lat="44.48941" lon="4.06516">
        <ele>744</ele>
        <time>2012-05-19T07:36:08.000Z</time>
      </trkpt>
      <trkpt lat="44.4894" lon="4.06516">
        <ele>744</ele>
        <time>2012-05-19T07:36:13.000Z</time>
      </trkpt>
      <trkpt lat="44.48942" lon="4.06514">
        <ele>744.20001220703</ele>
        <time>2012-05-19T07:36:30.000Z</time>
      </trkpt>
      <trkpt lat="44.48944" lon="4.06512">
        <ele>744.40002441406</ele>
        <time>2012-05-19T07:36:37.000Z</time>
      </trkpt>
      <trkpt lat="44.48944" lon="4.06514">
        <ele>744.20001220703</ele>
        <time>2012-05-19T07:36:48.000Z</time>
      </trkpt>
      <trkpt lat="44.48942" lon="4.06516">
        <ele>744</ele>
        <time>2012-05-19T07:36:55.000Z</time>
      </trkpt>
      <trkpt lat="44.48941" lon="4.06516">
        <ele>744</ele>
        <time>2012-05-19T07:37:01.000Z</time>
      </trkpt>
      <trkpt lat="44.4894" lon="4.06514">
        <ele>744</ele>
        <time>2012-05-19T07:37:42.000Z</time>
      </trkpt>
      <trkpt lat="44.48943" lon="4.06512">
        <ele>744.20001220703</ele>
        <time>2012-05-19T07:37:48.000Z</time>
      </trkpt>
      <trkpt lat="44.48941" lon="4.06512">
        <ele>744.20001220703</ele>
        <time>2012-05-19T07:38:51.000Z</time>
      </trkpt>
      <trkpt lat="44.48942" lon="4.06512">
        <ele>744.20001220703</ele>
        <time>2012-05-19T07:39:13.000Z</time>
      </trkpt>
      <trkpt lat="44.48942" lon="4.06512">
        <ele>744.20001220703</ele>
        <time>2012-05-19T07:39:22.000Z</time>
      </trkpt>
      <trkpt lat="44.48944" lon="4.06514">
        <ele>744.40002441406</ele>
        <time>2012-05-19T07:39:55.000Z</time>
      </trkpt>
      <trkpt lat="44.48946" lon="4.06509">
        <ele>744.59997558594</ele>
        <time>2012-05-19T07:41:00.000Z</time>
      </trkpt>
      <trkpt lat="44.48944" lon="4.0651">
        <ele>744.40002441406</ele>
        <time>2012-05-19T07:41:28.000Z</time>
      </trkpt>
      <trkpt lat="44.48941" lon="4.0651">
        <ele>744.20001220703</ele>
        <time>2012-05-19T07:44:51.000Z</time>
      </trkpt>
      <trkpt lat="44.48944" lon="4.06513">
        <ele>744.20001220703</ele>
        <time>2012-05-19T07:45:25.000Z</time>
      </trkpt>
      <trkpt lat="44.48944" lon="4.06513">
        <ele>744.40002441406</ele>
        <time>2012-05-19T07:46:02.000Z</time>
      </trkpt>
      <trkpt lat="44.48946" lon="4.0651">
        <ele>744.59997558594</ele>
        <time>2012-05-19T07:46:15.000Z</time>
      </trkpt>
      <trkpt lat="44.48945" lon="4.06511">
        <ele>744.40002441406</ele>
        <time>2012-05-19T07:46:43.000Z</time>
      </trkpt>
      <trkpt lat="44.48946" lon="4.06509">
        <ele>744.59997558594</ele>
        <time>2012-05-19T07:47:34.000Z</time>
      </trkpt>
      <trkpt lat="44.48945" lon="4.06512">
        <ele>744.40002441406</ele>
        <time>2012-05-19T07:48:34.000Z</time>
      </trkpt>
      <trkpt lat="44.48944" lon="4.06513">
        <ele>744.20001220703</ele>
        <time>2012-05-19T07:48:53.000Z</time>
      </trkpt>
      <trkpt lat="44.48941" lon="4.06514">
        <ele>744</ele>
        <time>2012-05-19T07:49:09.000Z</time>
      </trkpt>
      <trkpt lat="44.48937" lon="4.06522">
        <ele>743.59997558594</ele>
        <time>2012-05-19T07:49:48.000Z</time>
      </trkpt>
      <trkpt lat="44.48937" lon="4.06523">
        <ele>743.40002441406</ele>
        <time>2012-05-19T07:49:49.000Z</time>
      </trkpt>
      <trkpt lat="44.48934" lon="4.06525">
        <ele>743</ele>
        <time>2012-05-19T07:49:55.000Z</time>
      </trkpt>
      <trkpt lat="44.48918" lon="4.06528">
        <ele>741.40002441406</ele>
        <time>2012-05-19T07:50:00.000Z</time>
      </trkpt>
      <trkpt lat="44.48917" lon="4.06528">
        <ele>741.40002441406</ele>
        <time>2012-05-19T07:50:03.000Z</time>
      </trkpt>
      <trkpt lat="44.48915" lon="4.06527">
        <ele>740.79998779297</ele>
        <time>2012-05-19T07:50:18.000Z</time>
      </trkpt>
      <trkpt lat="44.48911" lon="4.06525">
        <ele>739.59997558594</ele>
        <time>2012-05-19T07:50:21.000Z</time>
      </trkpt>
      <trkpt lat="44.48907" lon="4.06525">
        <ele>738.40002441406</ele>
        <time>2012-05-19T07:50:24.000Z</time>
      </trkpt>
      <trkpt lat="44.48906" lon="4.06529">
        <ele>738</ele>
        <time>2012-05-19T07:50:27.000Z</time>
      </trkpt>
      <trkpt lat="44.48907" lon="4.0653">
        <ele>738</ele>
        <time>2012-05-19T07:50:28.000Z</time>
      </trkpt>
      <trkpt lat="44.48907" lon="4.06531">
        <ele>738.20001220703</ele>
        <time>2012-05-19T07:50:29.000Z</time>
      </trkpt>
      <trkpt lat="44.48908" lon="4.06533">
        <ele>738.20001220703</ele>
        <time>2012-05-19T07:50:31.000Z</time>
      </trkpt>
      <trkpt lat="44.48906" lon="4.06533">
        <ele>737.59997558594</ele>
        <time>2012-05-19T07:50:34.000Z</time>
      </trkpt>
      <trkpt lat="44.48905" lon="4.06532">
        <ele>737.20001220703</ele>
        <time>2012-05-19T07:50:35.000Z</time>
      </trkpt>
      <trkpt lat="44.489" lon="4.06526">
        <ele>736</ele>
        <time>2012-05-19T07:50:38.000Z</time>
      </trkpt>
      <trkpt lat="44.48891" lon="4.06509">
        <ele>734</ele>
        <time>2012-05-19T07:50:43.000Z</time>
      </trkpt>
      <trkpt lat="44.48889" lon="4.06488">
        <ele>732</ele>
        <time>2012-05-19T07:50:48.000Z</time>
      </trkpt>
      <trkpt lat="44.48888" lon="4.06459">
        <ele>728</ele>
        <time>2012-05-19T07:50:55.000Z</time>
      </trkpt>
      <trkpt lat="44.48889" lon="4.06432">
        <ele>724.79998779297</ele>
        <time>2012-05-19T07:51:01.000Z</time>
      </trkpt>
      <trkpt lat="44.48891" lon="4.06427">
        <ele>724.79998779297</ele>
        <time>2012-05-19T07:51:03.000Z</time>
      </trkpt>
      <trkpt lat="44.48894" lon="4.06424">
        <ele>725</ele>
        <time>2012-05-19T07:51:05.000Z</time>
      </trkpt>
      <trkpt lat="44.48896" lon="4.0642">
        <ele>725</ele>
        <time>2012-05-19T07:51:09.000Z</time>
      </trkpt>
      <trkpt lat="44.48895" lon="4.06416">
        <ele>724.20001220703</ele>
        <time>2012-05-19T07:51:13.000Z</time>
      </trkpt>
      <trkpt lat="44.48895" lon="4.06415">
        <ele>723.79998779297</ele>
        <time>2012-05-19T07:51:14.000Z</time>
      </trkpt>
      <trkpt lat="44.489" lon="4.06413">
        <ele>724.20001220703</ele>
        <time>2012-05-19T07:51:17.000Z</time>
      </trkpt>
      <trkpt lat="44.48901" lon="4.06413">
        <ele>724.40002441406</ele>
        <time>2012-05-19T07:51:18.000Z</time>
      </trkpt>
      <trkpt lat="44.48905" lon="4.06416">
        <ele>726.20001220703</ele>
        <time>2012-05-19T07:51:21.000Z</time>
      </trkpt>
      <trkpt lat="44.48911" lon="4.06417">
        <ele>727.79998779297</ele>
        <time>2012-05-19T07:51:23.000Z</time>
      </trkpt>
      <trkpt lat="44.48926" lon="4.06419">
        <ele>728.59997558594</ele>
        <time>2012-05-19T07:51:28.000Z</time>
      </trkpt>
      <trkpt lat="44.48948" lon="4.06425">
        <ele>727.79998779297</ele>
        <time>2012-05-19T07:51:33.000Z</time>
      </trkpt>
      <trkpt lat="44.48961" lon="4.06423">
        <ele>726.40002441406</ele>
        <time>2012-05-19T07:51:36.000Z</time>
      </trkpt>
      <trkpt lat="44.48969" lon="4.06422">
        <ele>725.40002441406</ele>
        <time>2012-05-19T07:51:38.000Z</time>
      </trkpt>
      <trkpt lat="44.48973" lon="4.06422">
        <ele>725</ele>
        <time>2012-05-19T07:51:41.000Z</time>
      </trkpt>
      <trkpt lat="44.48975" lon="4.06419">
        <ele>724.20001220703</ele>
        <time>2012-05-19T07:51:51.000Z</time>
      </trkpt>
      <trkpt lat="44.48974" lon="4.06422">
        <ele>725</ele>
        <time>2012-05-19T07:52:55.000Z</time>
      </trkpt>
      <trkpt lat="44.48968" lon="4.06418">
        <ele>724.40002441406</ele>
        <time>2012-05-19T07:53:49.000Z</time>
      </trkpt>
      <trkpt lat="44.48967" lon="4.06419">
        <ele>724.79998779297</ele>
        <time>2012-05-19T07:54:00.000Z</time>
      </trkpt>
      <trkpt lat="44.48965" lon="4.0642">
        <ele>725.20001220703</ele>
        <time>2012-05-19T07:54:46.000Z</time>
      </trkpt>
      <trkpt lat="44.48971" lon="4.06422">
        <ele>725.20001220703</ele>
        <time>2012-05-19T07:55:31.000Z</time>
      </trkpt>
      <trkpt lat="44.48974" lon="4.06422">
        <ele>724.79998779297</ele>
        <time>2012-05-19T07:55:37.000Z</time>
      </trkpt>
      <trkpt lat="44.48975" lon="4.06423">
        <ele>725.20001220703</ele>
        <time>2012-05-19T07:55:44.000Z</time>
      </trkpt>
      <trkpt lat="44.4898" lon="4.06418">
        <ele>723.40002441406</ele>
        <time>2012-05-19T07:56:38.000Z</time>
      </trkpt>
      <trkpt lat="44.4899" lon="4.06416">
        <ele>721.79998779297</ele>
        <time>2012-05-19T07:56:54.000Z</time>
      </trkpt>
      <trkpt lat="44.48991" lon="4.06416">
        <ele>721.59997558594</ele>
        <time>2012-05-19T07:56:56.000Z</time>
      </trkpt>
      <trkpt lat="44.48992" lon="4.06415">
        <ele>721</ele>
        <time>2012-05-19T07:56:58.000Z</time>
      </trkpt>
      <trkpt lat="44.48991" lon="4.06414">
        <ele>720.79998779297</ele>
        <time>2012-05-19T07:57:05.000Z</time>
      </trkpt>
      <trkpt lat="44.48988" lon="4.06415">
        <ele>721.59997558594</ele>
        <time>2012-05-19T07:57:10.000Z</time>
      </trkpt>
      <trkpt lat="44.48981" lon="4.06418">
        <ele>723.20001220703</ele>
        <time>2012-05-19T07:57:58.000Z</time>
      </trkpt>
      <trkpt lat="44.48972" lon="4.06415">
        <ele>723</ele>
        <time>2012-05-19T07:58:04.000Z</time>
      </trkpt>
      <trkpt lat="44.4897" lon="4.06414">
        <ele>722.79998779297</ele>
        <time>2012-05-19T07:58:06.000Z</time>
      </trkpt>
      <trkpt lat="44.4897" lon="4.06412">
        <ele>721.79998779297</ele>
        <time>2012-05-19T07:58:08.000Z</time>
      </trkpt>
      <trkpt lat="44.48977" lon="4.06407">
        <ele>718.79998779297</ele>
        <time>2012-05-19T07:58:14.000Z</time>
      </trkpt>
      <trkpt lat="44.4899" lon="4.06402">
        <ele>715.40002441406</ele>
        <time>2012-05-19T07:58:20.000Z</time>
      </trkpt>
      <trkpt lat="44.48996" lon="4.064">
        <ele>713.79998779297</ele>
        <time>2012-05-19T07:58:25.000Z</time>
      </trkpt>
      <trkpt lat="44.48998" lon="4.06397">
        <ele>712.20001220703</ele>
        <time>2012-05-19T07:58:31.000Z</time>
      </trkpt>
      <trkpt lat="44.48995" lon="4.06395">
        <ele>711.59997558594</ele>
        <time>2012-05-19T07:58:38.000Z</time>
      </trkpt>
      <trkpt lat="44.48986" lon="4.06392">
        <ele>711.20001220703</ele>
        <time>2012-05-19T07:58:43.000Z</time>
      </trkpt>
      <trkpt lat="44.48973" lon="4.06389">
        <ele>711.40002441406</ele>
        <time>2012-05-19T07:58:47.000Z</time>
      </trkpt>
      <trkpt lat="44.48962" lon="4.06385">
        <ele>711.40002441406</ele>
        <time>2012-05-19T07:58:52.000Z</time>
      </trkpt>
      <trkpt lat="44.48956" lon="4.06382">
        <ele>711</ele>
        <time>2012-05-19T07:58:56.000Z</time>
      </trkpt>
      <trkpt lat="44.48945" lon="4.06372">
        <ele>708</ele>
        <time>2012-05-19T07:59:01.000Z</time>
      </trkpt>
      <trkpt lat="44.48933" lon="4.06354">
        <ele>703</ele>
        <time>2012-05-19T07:59:07.000Z</time>
      </trkpt>
      <trkpt lat="44.48933" lon="4.06353">
        <ele>702.59997558594</ele>
        <time>2012-05-19T07:59:08.000Z</time>
      </trkpt>
      <trkpt lat="44.48932" lon="4.06346">
        <ele>700</ele>
        <time>2012-05-19T07:59:13.000Z</time>
      </trkpt>
      <trkpt lat="44.48929" lon="4.06341">
        <ele>698.79998779297</ele>
        <time>2012-05-19T07:59:19.000Z</time>
      </trkpt>
      <trkpt lat="44.48922" lon="4.0634">
        <ele>699.59997558594</ele>
        <time>2012-05-19T07:59:23.000Z</time>
      </trkpt>
      <trkpt lat="44.48912" lon="4.06335">
        <ele>698.40002441406</ele>
        <time>2012-05-19T07:59:28.000Z</time>
      </trkpt>
      <trkpt lat="44.48907" lon="4.06334">
        <ele>698.20001220703</ele>
        <time>2012-05-19T07:59:30.000Z</time>
      </trkpt>
      <trkpt lat="44.48902" lon="4.06334">
        <ele>698.40002441406</ele>
        <time>2012-05-19T07:59:32.000Z</time>
      </trkpt>
      <trkpt lat="44.48899" lon="4.06334">
        <ele>698.20001220703</ele>
        <time>2012-05-19T07:59:36.000Z</time>
      </trkpt>
      <trkpt lat="44.48896" lon="4.06331">
        <ele>697.20001220703</ele>
        <time>2012-05-19T07:59:41.000Z</time>
      </trkpt>
      <trkpt lat="44.48888" lon="4.0633">
        <ele>696.79998779297</ele>
        <time>2012-05-19T07:59:48.000Z</time>
      </trkpt>
      <trkpt lat="44.48884" lon="4.06327">
        <ele>695.40002441406</ele>
        <time>2012-05-19T07:59:52.000Z</time>
      </trkpt>
      <trkpt lat="44.48882" lon="4.06326">
        <ele>695.20001220703</ele>
        <time>2012-05-19T07:59:54.000Z</time>
      </trkpt>
      <trkpt lat="44.48881" lon="4.06326">
        <ele>695.40002441406</ele>
        <time>2012-05-19T07:59:55.000Z</time>
      </trkpt>
      <trkpt lat="44.48878" lon="4.06325">
        <ele>695</ele>
        <time>2012-05-19T07:59:59.000Z</time>
      </trkpt>
      <trkpt lat="44.48871" lon="4.06322">
        <ele>693.79998779297</ele>
        <time>2012-05-19T08:00:05.000Z</time>
      </trkpt>
      <trkpt lat="44.48859" lon="4.06313">
        <ele>691.40002441406</ele>
        <time>2012-05-19T08:00:11.000Z</time>
      </trkpt>
      <trkpt lat="44.48852" lon="4.06307">
        <ele>689.79998779297</ele>
        <time>2012-05-19T08:00:16.000Z</time>
      </trkpt>
      <trkpt lat="44.48852" lon="4.06306">
        <ele>689.40002441406</ele>
        <time>2012-05-19T08:00:36.000Z</time>
      </trkpt>
      <trkpt lat="44.48852" lon="4.06311">
        <ele>690.79998779297</ele>
        <time>2012-05-19T08:01:38.000Z</time>
      </trkpt>
      <trkpt lat="44.48853" lon="4.06306">
        <ele>689.40002441406</ele>
        <time>2012-05-19T08:02:14.000Z</time>
      </trkpt>
      <trkpt lat="44.48853" lon="4.06307">
        <ele>689.40002441406</ele>
        <time>2012-05-19T08:02:16.000Z</time>
      </trkpt>
      <trkpt lat="44.4885" lon="4.06304">
        <ele>688.79998779297</ele>
        <time>2012-05-19T08:02:25.000Z</time>
      </trkpt>
      <trkpt lat="44.48847" lon="4.06303">
        <ele>688.79998779297</ele>
        <time>2012-05-19T08:02:30.000Z</time>
      </trkpt>
      <trkpt lat="44.48836" lon="4.06299">
        <ele>688.20001220703</ele>
        <time>2012-05-19T08:02:35.000Z</time>
      </trkpt>
      <trkpt lat="44.48821" lon="4.06286">
        <ele>682.40002441406</ele>
        <time>2012-05-19T08:02:41.000Z</time>
      </trkpt>
      <trkpt lat="44.48818" lon="4.06283">
        <ele>681</ele>
        <time>2012-05-19T08:02:42.000Z</time>
      </trkpt>
      <trkpt lat="44.48804" lon="4.06273">
        <ele>677</ele>
        <time>2012-05-19T08:02:47.000Z</time>
      </trkpt>
      <trkpt lat="44.48793" lon="4.06267">
        <ele>674.59997558594</ele>
        <time>2012-05-19T08:02:52.000Z</time>
      </trkpt>
      <trkpt lat="44.48792" lon="4.06266">
        <ele>674.40002441406</ele>
        <time>2012-05-19T08:02:56.000Z</time>
      </trkpt>
      <trkpt lat="44.48787" lon="4.06261">
        <ele>673.20001220703</ele>
        <time>2012-05-19T08:03:02.000Z</time>
      </trkpt>
      <trkpt lat="44.48784" lon="4.06251">
        <ele>672.20001220703</ele>
        <time>2012-05-19T08:03:07.000Z</time>
      </trkpt>
      <trkpt lat="44.48783" lon="4.0625">
        <ele>672</ele>
        <time>2012-05-19T08:03:08.000Z</time>
      </trkpt>
      <trkpt lat="44.48771" lon="4.06246">
        <ele>670</ele>
        <time>2012-05-19T08:03:12.000Z</time>
      </trkpt>
      <trkpt lat="44.4876" lon="4.06241">
        <ele>668.40002441406</ele>
        <time>2012-05-19T08:03:17.000Z</time>
      </trkpt>
      <trkpt lat="44.4876" lon="4.06242">
        <ele>668.59997558594</ele>
        <time>2012-05-19T08:03:18.000Z</time>
      </trkpt>
      <trkpt lat="44.4876" lon="4.06249">
        <ele>670.20001220703</ele>
        <time>2012-05-19T08:03:20.000Z</time>
      </trkpt>
      <trkpt lat="44.48761" lon="4.06265">
        <ele>670.59997558594</ele>
        <time>2012-05-19T08:03:25.000Z</time>
      </trkpt>
      <trkpt lat="44.48761" lon="4.06268">
        <ele>670.59997558594</ele>
        <time>2012-05-19T08:03:26.000Z</time>
      </trkpt>
      <trkpt lat="44.48762" lon="4.06269">
        <ele>670.59997558594</ele>
        <time>2012-05-19T08:03:27.000Z</time>
      </trkpt>
      <trkpt lat="44.48763" lon="4.06271">
        <ele>670.79998779297</ele>
        <time>2012-05-19T08:03:30.000Z</time>
      </trkpt>
      <trkpt lat="44.48763" lon="4.06272">
        <ele>670.79998779297</ele>
        <time>2012-05-19T08:03:31.000Z</time>
      </trkpt>
      <trkpt lat="44.48763" lon="4.06273">
        <ele>670.79998779297</ele>
        <time>2012-05-19T08:03:32.000Z</time>
      </trkpt>
      <trkpt lat="44.4876" lon="4.06272">
        <ele>670.40002441406</ele>
        <time>2012-05-19T08:03:35.000Z</time>
      </trkpt>
      <trkpt lat="44.48759" lon="4.06271">
        <ele>670.20001220703</ele>
        <time>2012-05-19T08:03:36.000Z</time>
      </trkpt>
      <trkpt lat="44.4875" lon="4.06264">
        <ele>669.40002441406</ele>
        <time>2012-05-19T08:03:40.000Z</time>
      </trkpt>
      <trkpt lat="44.48737" lon="4.06251">
        <ele>665.20001220703</ele>
        <time>2012-05-19T08:03:45.000Z</time>
      </trkpt>
      <trkpt lat="44.48724" lon="4.06244">
        <ele>659.59997558594</ele>
        <time>2012-05-19T08:03:50.000Z</time>
      </trkpt>
      <trkpt lat="44.48721" lon="4.06242">
        <ele>658.59997558594</ele>
        <time>2012-05-19T08:03:52.000Z</time>
      </trkpt>
      <trkpt lat="44.48721" lon="4.06242">
        <ele>658.59997558594</ele>
        <time>2012-05-19T08:03:53.000Z</time>
      </trkpt>
      <trkpt lat="44.48721" lon="4.06237">
        <ele>657.59997558594</ele>
        <time>2012-05-19T08:04:17.000Z</time>
      </trkpt>
      <trkpt lat="44.48717" lon="4.06229">
        <ele>655.40002441406</ele>
        <time>2012-05-19T08:04:20.000Z</time>
      </trkpt>
      <trkpt lat="44.48713" lon="4.06212">
        <ele>652.20001220703</ele>
        <time>2012-05-19T08:04:25.000Z</time>
      </trkpt>
      <trkpt lat="44.48713" lon="4.06205">
        <ele>651.40002441406</ele>
        <time>2012-05-19T08:04:27.000Z</time>
      </trkpt>
      <trkpt lat="44.48712" lon="4.06204">
        <ele>651.20001220703</ele>
        <time>2012-05-19T08:04:28.000Z</time>
      </trkpt>
      <trkpt lat="44.48711" lon="4.06204">
        <ele>651</ele>
        <time>2012-05-19T08:04:29.000Z</time>
      </trkpt>
      <trkpt lat="44.48707" lon="4.06211">
        <ele>650.79998779297</ele>
        <time>2012-05-19T08:04:34.000Z</time>
      </trkpt>
      <trkpt lat="44.48706" lon="4.06212">
        <ele>650.59997558594</ele>
        <time>2012-05-19T08:04:35.000Z</time>
      </trkpt>
      <trkpt lat="44.48706" lon="4.0621">
        <ele>650.40002441406</ele>
        <time>2012-05-19T08:04:39.000Z</time>
      </trkpt>
      <trkpt lat="44.48704" lon="4.062">
        <ele>649</ele>
        <time>2012-05-19T08:04:43.000Z</time>
      </trkpt>
      <trkpt lat="44.48703" lon="4.06192">
        <ele>648.20001220703</ele>
        <time>2012-05-19T08:04:46.000Z</time>
      </trkpt>
      <trkpt lat="44.48704" lon="4.06192">
        <ele>648.20001220703</ele>
        <time>2012-05-19T08:04:47.000Z</time>
      </trkpt>
      <trkpt lat="44.48704" lon="4.06193">
        <ele>648.40002441406</ele>
        <time>2012-05-19T08:04:52.000Z</time>
      </trkpt>
      <trkpt lat="44.48711" lon="4.06187">
        <ele>649</ele>
        <time>2012-05-19T08:05:01.000Z</time>
      </trkpt>
      <trkpt lat="44.48713" lon="4.06182">
        <ele>648.79998779297</ele>
        <time>2012-05-19T08:05:03.000Z</time>
      </trkpt>
      <trkpt lat="44.48718" lon="4.06175">
        <ele>648.59997558594</ele>
        <time>2012-05-19T08:05:06.000Z</time>
      </trkpt>
      <trkpt lat="44.48719" lon="4.06172">
        <ele>648.40002441406</ele>
        <time>2012-05-19T08:05:10.000Z</time>
      </trkpt>
      <trkpt lat="44.48726" lon="4.06165">
        <ele>648</ele>
        <time>2012-05-19T08:05:14.000Z</time>
      </trkpt>
      <trkpt lat="44.48729" lon="4.06163">
        <ele>647.59997558594</ele>
        <time>2012-05-19T08:05:16.000Z</time>
      </trkpt>
      <trkpt lat="44.48727" lon="4.0616">
        <ele>646.59997558594</ele>
        <time>2012-05-19T08:05:18.000Z</time>
      </trkpt>
      <trkpt lat="44.48713" lon="4.06159">
        <ele>645</ele>
        <time>2012-05-19T08:05:22.000Z</time>
      </trkpt>
      <trkpt lat="44.48704" lon="4.0616">
        <ele>644.40002441406</ele>
        <time>2012-05-19T08:05:26.000Z</time>
      </trkpt>
      <trkpt lat="44.48704" lon="4.06158">
        <ele>644</ele>
        <time>2012-05-19T08:05:31.000Z</time>
      </trkpt>
      <trkpt lat="44.48706" lon="4.06155">
        <ele>643.40002441406</ele>
        <time>2012-05-19T08:05:42.000Z</time>
      </trkpt>
      <trkpt lat="44.48705" lon="4.06157">
        <ele>643.79998779297</ele>
        <time>2012-05-19T08:06:30.000Z</time>
      </trkpt>
      <trkpt lat="44.48705" lon="4.0616">
        <ele>644.40002441406</ele>
        <time>2012-05-19T08:08:13.000Z</time>
      </trkpt>
      <trkpt lat="44.48697" lon="4.06163">
        <ele>644.40002441406</ele>
        <time>2012-05-19T08:09:02.000Z</time>
      </trkpt>
      <trkpt lat="44.48686" lon="4.06174">
        <ele>644.20001220703</ele>
        <time>2012-05-19T08:09:07.000Z</time>
      </trkpt>
      <trkpt lat="44.48685" lon="4.06178">
        <ele>644.40002441406</ele>
        <time>2012-05-19T08:09:08.000Z</time>
      </trkpt>
      <trkpt lat="44.48684" lon="4.06187">
        <ele>644.40002441406</ele>
        <time>2012-05-19T08:09:10.000Z</time>
      </trkpt>
      <trkpt lat="44.48683" lon="4.06201">
        <ele>644.59997558594</ele>
        <time>2012-05-19T08:09:13.000Z</time>
      </trkpt>
      <trkpt lat="44.48685" lon="4.06214">
        <ele>645.40002441406</ele>
        <time>2012-05-19T08:09:16.000Z</time>
      </trkpt>
      <trkpt lat="44.48691" lon="4.06234">
        <ele>647.79998779297</ele>
        <time>2012-05-19T08:09:22.000Z</time>
      </trkpt>
      <trkpt lat="44.48694" lon="4.06242">
        <ele>649.20001220703</ele>
        <time>2012-05-19T08:09:28.000Z</time>
      </trkpt>
      <trkpt lat="44.48694" lon="4.06246">
        <ele>649.59997558594</ele>
        <time>2012-05-19T08:09:35.000Z</time>
      </trkpt>
      <trkpt lat="44.48699" lon="4.06257">
        <ele>650.79998779297</ele>
        <time>2012-05-19T08:09:40.000Z</time>
      </trkpt>
      <trkpt lat="44.4871" lon="4.06272">
        <ele>653.40002441406</ele>
        <time>2012-05-19T08:09:48.000Z</time>
      </trkpt>
      <trkpt lat="44.48722" lon="4.06283">
        <ele>657</ele>
        <time>2012-05-19T08:09:55.000Z</time>
      </trkpt>
      <trkpt lat="44.48737" lon="4.06296">
        <ele>662.40002441406</ele>
        <time>2012-05-19T08:10:03.000Z</time>
      </trkpt>
      <trkpt lat="44.4875" lon="4.06311">
        <ele>667</ele>
        <time>2012-05-19T08:10:10.000Z</time>
      </trkpt>
      <trkpt lat="44.48759" lon="4.06325">
        <ele>669.59997558594</ele>
        <time>2012-05-19T08:10:16.000Z</time>
      </trkpt>
      <trkpt lat="44.48759" lon="4.06328">
        <ele>669.59997558594</ele>
        <time>2012-05-19T08:10:17.000Z</time>
      </trkpt>
      <trkpt lat="44.48761" lon="4.06341">
        <ele>669.79998779297</ele>
        <time>2012-05-19T08:10:21.000Z</time>
      </trkpt>
      <trkpt lat="44.4876" lon="4.06368">
        <ele>668.79998779297</ele>
        <time>2012-05-19T08:10:28.000Z</time>
      </trkpt>
      <trkpt lat="44.4876" lon="4.06372">
        <ele>668.59997558594</ele>
        <time>2012-05-19T08:10:29.000Z</time>
      </trkpt>
      <trkpt lat="44.48763" lon="4.06399">
        <ele>669.40002441406</ele>
        <time>2012-05-19T08:10:37.000Z</time>
      </trkpt>
      <trkpt lat="44.48768" lon="4.06424">
        <ele>672.20001220703</ele>
        <time>2012-05-19T08:10:45.000Z</time>
      </trkpt>
      <trkpt lat="44.4877" lon="4.06434">
        <ele>673.59997558594</ele>
        <time>2012-05-19T08:10:48.000Z</time>
      </trkpt>
      <trkpt lat="44.48773" lon="4.0646">
        <ele>676.20001220703</ele>
        <time>2012-05-19T08:10:56.000Z</time>
      </trkpt>
      <trkpt lat="44.48773" lon="4.06464">
        <ele>676.40002441406</ele>
        <time>2012-05-19T08:10:57.000Z</time>
      </trkpt>
      <trkpt lat="44.48773" lon="4.06491">
        <ele>676.79998779297</ele>
        <time>2012-05-19T08:11:05.000Z</time>
      </trkpt>
      <trkpt lat="44.48771" lon="4.06515">
        <ele>678</ele>
        <time>2012-05-19T08:11:13.000Z</time>
      </trkpt>
      <trkpt lat="44.48772" lon="4.06535">
        <ele>681</ele>
        <time>2012-05-19T08:11:20.000Z</time>
      </trkpt>
      <trkpt lat="44.48776" lon="4.06557">
        <ele>685.20001220703</ele>
        <time>2012-05-19T08:11:28.000Z</time>
      </trkpt>
      <trkpt lat="44.48779" lon="4.06578">
        <ele>689</ele>
        <time>2012-05-19T08:11:36.000Z</time>
      </trkpt>
      <trkpt lat="44.48771" lon="4.06589">
        <ele>687.40002441406</ele>
        <time>2012-05-19T08:11:42.000Z</time>
      </trkpt>
      <trkpt lat="44.48761" lon="4.066">
        <ele>686.59997558594</ele>
        <time>2012-05-19T08:11:48.000Z</time>
      </trkpt>
      <trkpt lat="44.48749" lon="4.06616">
        <ele>686.40002441406</ele>
        <time>2012-05-19T08:11:57.000Z</time>
      </trkpt>
      <trkpt lat="44.48735" lon="4.06619">
        <ele>683.40002441406</ele>
        <time>2012-05-19T08:12:04.000Z</time>
      </trkpt>
      <trkpt lat="44.48722" lon="4.06613">
        <ele>678.20001220703</ele>
        <time>2012-05-19T08:12:11.000Z</time>
      </trkpt>
      <trkpt lat="44.4871" lon="4.06604">
        <ele>673.20001220703</ele>
        <time>2012-05-19T08:12:18.000Z</time>
      </trkpt>
      <trkpt lat="44.48699" lon="4.06595">
        <ele>668.59997558594</ele>
        <time>2012-05-19T08:12:25.000Z</time>
      </trkpt>
      <trkpt lat="44.48696" lon="4.06595">
        <ele>668.20001220703</ele>
        <time>2012-05-19T08:12:26.000Z</time>
      </trkpt>
      <trkpt lat="44.48689" lon="4.06605">
        <ele>668</ele>
        <time>2012-05-19T08:12:31.000Z</time>
      </trkpt>
      <trkpt lat="44.48688" lon="4.06607">
        <ele>668.20001220703</ele>
        <time>2012-05-19T08:12:32.000Z</time>
      </trkpt>
      <trkpt lat="44.48686" lon="4.06627">
        <ele>670.59997558594</ele>
        <time>2012-05-19T08:12:38.000Z</time>
      </trkpt>
      <trkpt lat="44.48689" lon="4.06654">
        <ele>675.79998779297</ele>
        <time>2012-05-19T08:12:46.000Z</time>
      </trkpt>
      <trkpt lat="44.48694" lon="4.06675">
        <ele>679.79998779297</ele>
        <time>2012-05-19T08:12:53.000Z</time>
      </trkpt>
      <trkpt lat="44.487" lon="4.06696">
        <ele>682.79998779297</ele>
        <time>2012-05-19T08:13:01.000Z</time>
      </trkpt>
      <trkpt lat="44.48705" lon="4.0672">
        <ele>685.79998779297</ele>
        <time>2012-05-19T08:13:09.000Z</time>
      </trkpt>
      <trkpt lat="44.48705" lon="4.06723">
        <ele>686.20001220703</ele>
        <time>2012-05-19T08:13:10.000Z</time>
      </trkpt>
      <trkpt lat="44.4871" lon="4.06747">
        <ele>689.59997558594</ele>
        <time>2012-05-19T08:13:17.000Z</time>
      </trkpt>
      <trkpt lat="44.48715" lon="4.06773">
        <ele>691.20001220703</ele>
        <time>2012-05-19T08:13:25.000Z</time>
      </trkpt>
      <trkpt lat="44.48725" lon="4.06797">
        <ele>694.59997558594</ele>
        <time>2012-05-19T08:13:33.000Z</time>
      </trkpt>
      <trkpt lat="44.48726" lon="4.06801">
        <ele>694.79998779297</ele>
        <time>2012-05-19T08:13:34.000Z</time>
      </trkpt>
      <trkpt lat="44.48733" lon="4.06824">
        <ele>696.59997558594</ele>
        <time>2012-05-19T08:13:39.000Z</time>
      </trkpt>
      <trkpt lat="44.48733" lon="4.06831">
        <ele>696.59997558594</ele>
        <time>2012-05-19T08:13:40.000Z</time>
      </trkpt>
      <trkpt lat="44.48738" lon="4.06855">
        <ele>696.79998779297</ele>
        <time>2012-05-19T08:13:44.000Z</time>
      </trkpt>
      <trkpt lat="44.4874" lon="4.06871">
        <ele>696</ele>
        <time>2012-05-19T08:13:46.000Z</time>
      </trkpt>
      <trkpt lat="44.48743" lon="4.06877">
        <ele>696.59997558594</ele>
        <time>2012-05-19T08:13:47.000Z</time>
      </trkpt>
      <trkpt lat="44.48748" lon="4.06899">
        <ele>696.40002441406</ele>
        <time>2012-05-19T08:13:50.000Z</time>
      </trkpt>
      <trkpt lat="44.48751" lon="4.06926">
        <ele>696.20001220703</ele>
        <time>2012-05-19T08:13:54.000Z</time>
      </trkpt>
      <trkpt lat="44.48752" lon="4.06932">
        <ele>696.59997558594</ele>
        <time>2012-05-19T08:13:55.000Z</time>
      </trkpt>
      <trkpt lat="44.48752" lon="4.06938">
        <ele>696.40002441406</ele>
        <time>2012-05-19T08:13:56.000Z</time>
      </trkpt>
      <trkpt lat="44.48752" lon="4.06958">
        <ele>697</ele>
        <time>2012-05-19T08:14:00.000Z</time>
      </trkpt>
      <trkpt lat="44.48751" lon="4.06972">
        <ele>696.79998779297</ele>
        <time>2012-05-19T08:14:03.000Z</time>
      </trkpt>
      <trkpt lat="44.48748" lon="4.06988">
        <ele>696.20001220703</ele>
        <time>2012-05-19T08:14:07.000Z</time>
      </trkpt>
      <trkpt lat="44.48742" lon="4.07008">
        <ele>695</ele>
        <time>2012-05-19T08:14:13.000Z</time>
      </trkpt>
      <trkpt lat="44.48744" lon="4.07029">
        <ele>695.79998779297</ele>
        <time>2012-05-19T08:14:19.000Z</time>
      </trkpt>
      <trkpt lat="44.48756" lon="4.07047">
        <ele>700</ele>
        <time>2012-05-19T08:14:26.000Z</time>
      </trkpt>
      <trkpt lat="44.48769" lon="4.07061">
        <ele>705</ele>
        <time>2012-05-19T08:14:32.000Z</time>
      </trkpt>
      <trkpt lat="44.48784" lon="4.07079">
        <ele>709.79998779297</ele>
        <time>2012-05-19T08:14:40.000Z</time>
      </trkpt>
      <trkpt lat="44.48794" lon="4.07094">
        <ele>712.59997558594</ele>
        <time>2012-05-19T08:14:46.000Z</time>
      </trkpt>
      <trkpt lat="44.48801" lon="4.07115">
        <ele>713.40002441406</ele>
        <time>2012-05-19T08:14:52.000Z</time>
      </trkpt>
      <trkpt lat="44.48808" lon="4.07141">
        <ele>712.59997558594</ele>
        <time>2012-05-19T08:14:59.000Z</time>
      </trkpt>
      <trkpt lat="44.48811" lon="4.07147">
        <ele>712.40002441406</ele>
        <time>2012-05-19T08:15:01.000Z</time>
      </trkpt>
      <trkpt lat="44.48822" lon="4.07166">
        <ele>711.59997558594</ele>
        <time>2012-05-19T08:15:08.000Z</time>
      </trkpt>
      <trkpt lat="44.48823" lon="4.07168">
        <ele>712</ele>
        <time>2012-05-19T08:15:09.000Z</time>
      </trkpt>
      <trkpt lat="44.48836" lon="4.0717">
        <ele>714</ele>
        <time>2012-05-19T08:15:14.000Z</time>
      </trkpt>
      <trkpt lat="44.4885" lon="4.07175">
        <ele>718</ele>
        <time>2012-05-19T08:15:20.000Z</time>
      </trkpt>
      <trkpt lat="44.48866" lon="4.07185">
        <ele>721.79998779297</ele>
        <time>2012-05-19T08:15:27.000Z</time>
      </trkpt>
      <trkpt lat="44.4888" lon="4.072">
        <ele>723.79998779297</ele>
        <time>2012-05-19T08:15:34.000Z</time>
      </trkpt>
      <trkpt lat="44.48891" lon="4.0722">
        <ele>723.40002441406</ele>
        <time>2012-05-19T08:15:42.000Z</time>
      </trkpt>
      <trkpt lat="44.48898" lon="4.07236">
        <ele>722</ele>
        <time>2012-05-19T08:15:48.000Z</time>
      </trkpt>
      <trkpt lat="44.48907" lon="4.0725">
        <ele>720.20001220703</ele>
        <time>2012-05-19T08:15:54.000Z</time>
      </trkpt>
      <trkpt lat="44.48917" lon="4.07262">
        <ele>721.59997558594</ele>
        <time>2012-05-19T08:16:00.000Z</time>
      </trkpt>
      <trkpt lat="44.48929" lon="4.07279">
        <ele>725</ele>
        <time>2012-05-19T08:16:08.000Z</time>
      </trkpt>
      <trkpt lat="44.48941" lon="4.07287">
        <ele>727.20001220703</ele>
        <time>2012-05-19T08:16:15.000Z</time>
      </trkpt>
      <trkpt lat="44.48955" lon="4.07281">
        <ele>727.79998779297</ele>
        <time>2012-05-19T08:16:22.000Z</time>
      </trkpt>
      <trkpt lat="44.48962" lon="4.07275">
        <ele>727.59997558594</ele>
        <time>2012-05-19T08:16:27.000Z</time>
      </trkpt>
      <trkpt lat="44.4896" lon="4.07275">
        <ele>727.40002441406</ele>
        <time>2012-05-19T08:16:34.000Z</time>
      </trkpt>
      <trkpt lat="44.48966" lon="4.07268">
        <ele>727</ele>
        <time>2012-05-19T08:16:43.000Z</time>
      </trkpt>
      <trkpt lat="44.48967" lon="4.07266">
        <ele>727</ele>
        <time>2012-05-19T08:16:44.000Z</time>
      </trkpt>
      <trkpt lat="44.48974" lon="4.0726">
        <ele>726.79998779297</ele>
        <time>2012-05-19T08:16:49.000Z</time>
      </trkpt>
      <trkpt lat="44.48982" lon="4.07251">
        <ele>726.40002441406</ele>
        <time>2012-05-19T08:16:53.000Z</time>
      </trkpt>
      <trkpt lat="44.48986" lon="4.07247">
        <ele>727</ele>
        <time>2012-05-19T08:16:55.000Z</time>
      </trkpt>
      <trkpt lat="44.4899" lon="4.07243">
        <ele>728.20001220703</ele>
        <time>2012-05-19T08:16:59.000Z</time>
      </trkpt>
      <trkpt lat="44.48991" lon="4.0724">
        <ele>728.59997558594</ele>
        <time>2012-05-19T08:17:00.000Z</time>
      </trkpt>
      <trkpt lat="44.48996" lon="4.07233">
        <ele>730.20001220703</ele>
        <time>2012-05-19T08:17:05.000Z</time>
      </trkpt>
      <trkpt lat="44.48997" lon="4.0723">
        <ele>730.59997558594</ele>
        <time>2012-05-19T08:17:06.000Z</time>
      </trkpt>
      <trkpt lat="44.49002" lon="4.07221">
        <ele>732.59997558594</ele>
        <time>2012-05-19T08:17:09.000Z</time>
      </trkpt>
      <trkpt lat="44.49005" lon="4.07215">
        <ele>734</ele>
        <time>2012-05-19T08:17:11.000Z</time>
      </trkpt>
      <trkpt lat="44.49011" lon="4.07212">
        <ele>735.40002441406</ele>
        <time>2012-05-19T08:17:13.000Z</time>
      </trkpt>
      <trkpt lat="44.49015" lon="4.07215">
        <ele>736</ele>
        <time>2012-05-19T08:17:15.000Z</time>
      </trkpt>
      <trkpt lat="44.49017" lon="4.07221">
        <ele>735.79998779297</ele>
        <time>2012-05-19T08:17:18.000Z</time>
      </trkpt>
      <trkpt lat="44.49019" lon="4.07223">
        <ele>735.79998779297</ele>
        <time>2012-05-19T08:17:19.000Z</time>
      </trkpt>
      <trkpt lat="44.49019" lon="4.07226">
        <ele>735.59997558594</ele>
        <time>2012-05-19T08:17:20.000Z</time>
      </trkpt>
      <trkpt lat="44.49018" lon="4.07234">
        <ele>734.59997558594</ele>
        <time>2012-05-19T08:17:23.000Z</time>
      </trkpt>
      <trkpt lat="44.49017" lon="4.07251">
        <ele>732.79998779297</ele>
        <time>2012-05-19T08:17:30.000Z</time>
      </trkpt>
      <trkpt lat="44.49021" lon="4.0726">
        <ele>735</ele>
        <time>2012-05-19T08:17:38.000Z</time>
      </trkpt>
      <trkpt lat="44.49024" lon="4.07272">
        <ele>737</ele>
        <time>2012-05-19T08:17:43.000Z</time>
      </trkpt>
      <trkpt lat="44.49018" lon="4.07282">
        <ele>736.59997558594</ele>
        <time>2012-05-19T08:17:48.000Z</time>
      </trkpt>
      <trkpt lat="44.49011" lon="4.07284">
        <ele>735</ele>
        <time>2012-05-19T08:17:53.000Z</time>
      </trkpt>
      <trkpt lat="44.49008" lon="4.07284">
        <ele>734.59997558594</ele>
        <time>2012-05-19T08:17:54.000Z</time>
      </trkpt>
      <trkpt lat="44.49003" lon="4.07285">
        <ele>733.20001220703</ele>
        <time>2012-05-19T08:17:57.000Z</time>
      </trkpt>
      <trkpt lat="44.49" lon="4.07287">
        <ele>733</ele>
        <time>2012-05-19T08:17:59.000Z</time>
      </trkpt>
      <trkpt lat="44.48994" lon="4.073">
        <ele>734</ele>
        <time>2012-05-19T08:18:05.000Z</time>
      </trkpt>
      <trkpt lat="44.4899" lon="4.07317">
        <ele>735.79998779297</ele>
        <time>2012-05-19T08:18:11.000Z</time>
      </trkpt>
      <trkpt lat="44.48991" lon="4.07329">
        <ele>737.59997558594</ele>
        <time>2012-05-19T08:18:16.000Z</time>
      </trkpt>
      <trkpt lat="44.48993" lon="4.07347">
        <ele>741.59997558594</ele>
        <time>2012-05-19T08:18:22.000Z</time>
      </trkpt>
      <trkpt lat="44.48991" lon="4.0736">
        <ele>744.40002441406</ele>
        <time>2012-05-19T08:18:28.000Z</time>
      </trkpt>
      <trkpt lat="44.48984" lon="4.07363">
        <ele>744.59997558594</ele>
        <time>2012-05-19T08:18:33.000Z</time>
      </trkpt>
      <trkpt lat="44.48979" lon="4.0736">
        <ele>743.59997558594</ele>
        <time>2012-05-19T08:18:37.000Z</time>
      </trkpt>
      <trkpt lat="44.48977" lon="4.0736">
        <ele>743.40002441406</ele>
        <time>2012-05-19T08:18:38.000Z</time>
      </trkpt>
      <trkpt lat="44.48965" lon="4.07358">
        <ele>742</ele>
        <time>2012-05-19T08:18:44.000Z</time>
      </trkpt>
      <trkpt lat="44.48957" lon="4.07361">
        <ele>742.20001220703</ele>
        <time>2012-05-19T08:18:50.000Z</time>
      </trkpt>
      <trkpt lat="44.48945" lon="4.07361">
        <ele>741.40002441406</ele>
        <time>2012-05-19T08:18:56.000Z</time>
      </trkpt>
      <trkpt lat="44.48933" lon="4.0736">
        <ele>740.20001220703</ele>
        <time>2012-05-19T08:19:02.000Z</time>
      </trkpt>
      <trkpt lat="44.4892" lon="4.07352">
        <ele>736.79998779297</ele>
        <time>2012-05-19T08:19:10.000Z</time>
      </trkpt>
      <trkpt lat="44.48908" lon="4.07351">
        <ele>738</ele>
        <time>2012-05-19T08:19:17.000Z</time>
      </trkpt>
      <trkpt lat="44.489" lon="4.07353">
        <ele>740.20001220703</ele>
        <time>2012-05-19T08:19:23.000Z</time>
      </trkpt>
      <trkpt lat="44.48886" lon="4.07355">
        <ele>743.20001220703</ele>
        <time>2012-05-19T08:19:30.000Z</time>
      </trkpt>
      <trkpt lat="44.48873" lon="4.0735">
        <ele>744</ele>
        <time>2012-05-19T08:19:36.000Z</time>
      </trkpt>
      <trkpt lat="44.48858" lon="4.07339">
        <ele>743.79998779297</ele>
        <time>2012-05-19T08:19:43.000Z</time>
      </trkpt>
      <trkpt lat="44.48845" lon="4.07328">
        <ele>743.40002441406</ele>
        <time>2012-05-19T08:19:50.000Z</time>
      </trkpt>
      <trkpt lat="44.48836" lon="4.07323">
        <ele>743.40002441406</ele>
        <time>2012-05-19T08:19:56.000Z</time>
      </trkpt>
      <trkpt lat="44.48822" lon="4.07317">
        <ele>743.20001220703</ele>
        <time>2012-05-19T08:20:04.000Z</time>
      </trkpt>
      <trkpt lat="44.48804" lon="4.07313">
        <ele>743.79998779297</ele>
        <time>2012-05-19T08:20:13.000Z</time>
      </trkpt>
      <trkpt lat="44.48789" lon="4.07308">
        <ele>743.79998779297</ele>
        <time>2012-05-19T08:20:21.000Z</time>
      </trkpt>
      <trkpt lat="44.48777" lon="4.07303">
        <ele>743.59997558594</ele>
        <time>2012-05-19T08:20:28.000Z</time>
      </trkpt>
      <trkpt lat="44.4876" lon="4.07297">
        <ele>743.79998779297</ele>
        <time>2012-05-19T08:20:36.000Z</time>
      </trkpt>
      <trkpt lat="44.48748" lon="4.07297">
        <ele>744.79998779297</ele>
        <time>2012-05-19T08:20:43.000Z</time>
      </trkpt>
      <trkpt lat="44.48737" lon="4.07301">
        <ele>745.79998779297</ele>
        <time>2012-05-19T08:20:49.000Z</time>
      </trkpt>
      <trkpt lat="44.48726" lon="4.07311">
        <ele>748.20001220703</ele>
        <time>2012-05-19T08:20:56.000Z</time>
      </trkpt>
      <trkpt lat="44.48716" lon="4.07324">
        <ele>751.40002441406</ele>
        <time>2012-05-19T08:21:04.000Z</time>
      </trkpt>
      <trkpt lat="44.48708" lon="4.07339">
        <ele>754</ele>
        <time>2012-05-19T08:21:11.000Z</time>
      </trkpt>
      <trkpt lat="44.48697" lon="4.07361">
        <ele>757</ele>
        <time>2012-05-19T08:21:20.000Z</time>
      </trkpt>
      <trkpt lat="44.48688" lon="4.0738">
        <ele>759.40002441406</ele>
        <time>2012-05-19T08:21:28.000Z</time>
      </trkpt>
      <trkpt lat="44.4868" lon="4.07402">
        <ele>762.20001220703</ele>
        <time>2012-05-19T08:21:37.000Z</time>
      </trkpt>
      <trkpt lat="44.48672" lon="4.07419">
        <ele>763.79998779297</ele>
        <time>2012-05-19T08:21:44.000Z</time>
      </trkpt>
      <trkpt lat="44.4866" lon="4.07429">
        <ele>764.59997558594</ele>
        <time>2012-05-19T08:21:50.000Z</time>
      </trkpt>
      <trkpt lat="44.48657" lon="4.07429">
        <ele>764.59997558594</ele>
        <time>2012-05-19T08:21:51.000Z</time>
      </trkpt>
      <trkpt lat="44.4865" lon="4.07424">
        <ele>764.40002441406</ele>
        <time>2012-05-19T08:21:54.000Z</time>
      </trkpt>
      <trkpt lat="44.48647" lon="4.0742">
        <ele>764.20001220703</ele>
        <time>2012-05-19T08:21:56.000Z</time>
      </trkpt>
      <trkpt lat="44.48641" lon="4.07413">
        <ele>763.79998779297</ele>
        <time>2012-05-19T08:22:00.000Z</time>
      </trkpt>
      <trkpt lat="44.48625" lon="4.07398">
        <ele>763</ele>
        <time>2012-05-19T08:22:09.000Z</time>
      </trkpt>
      <trkpt lat="44.48611" lon="4.07384">
        <ele>762.59997558594</ele>
        <time>2012-05-19T08:22:17.000Z</time>
      </trkpt>
      <trkpt lat="44.48602" lon="4.07378">
        <ele>763</ele>
        <time>2012-05-19T08:22:22.000Z</time>
      </trkpt>
      <trkpt lat="44.486" lon="4.07378">
        <ele>763.20001220703</ele>
        <time>2012-05-19T08:22:23.000Z</time>
      </trkpt>
      <trkpt lat="44.48598" lon="4.07387">
        <ele>764</ele>
        <time>2012-05-19T08:22:27.000Z</time>
      </trkpt>
      <trkpt lat="44.48599" lon="4.07392">
        <ele>764.40002441406</ele>
        <time>2012-05-19T08:22:29.000Z</time>
      </trkpt>
      <trkpt lat="44.48597" lon="4.07405">
        <ele>765.40002441406</ele>
        <time>2012-05-19T08:22:34.000Z</time>
      </trkpt>
      <trkpt lat="44.48586" lon="4.07411">
        <ele>766.59997558594</ele>
        <time>2012-05-19T08:22:40.000Z</time>
      </trkpt>
      <trkpt lat="44.48567" lon="4.07413">
        <ele>767.40002441406</ele>
        <time>2012-05-19T08:22:49.000Z</time>
      </trkpt>
      <trkpt lat="44.48548" lon="4.07415">
        <ele>768.20001220703</ele>
        <time>2012-05-19T08:22:58.000Z</time>
      </trkpt>
      <trkpt lat="44.48546" lon="4.07415">
        <ele>768.40002441406</ele>
        <time>2012-05-19T08:22:59.000Z</time>
      </trkpt>
      <trkpt lat="44.48534" lon="4.07418">
        <ele>768.79998779297</ele>
        <time>2012-05-19T08:23:05.000Z</time>
      </trkpt>
      <trkpt lat="44.48519" lon="4.07423">
        <ele>769.40002441406</ele>
        <time>2012-05-19T08:23:12.000Z</time>
      </trkpt>
      <trkpt lat="44.48499" lon="4.07424">
        <ele>769.79998779297</ele>
        <time>2012-05-19T08:23:18.000Z</time>
      </trkpt>
      <trkpt lat="44.48496" lon="4.07424">
        <ele>769.59997558594</ele>
        <time>2012-05-19T08:23:22.000Z</time>
      </trkpt>
      <trkpt lat="44.4849" lon="4.07424">
        <ele>769.40002441406</ele>
        <time>2012-05-19T08:23:50.000Z</time>
      </trkpt>
      <trkpt lat="44.4849" lon="4.07424">
        <ele>769.40002441406</ele>
        <time>2012-05-19T08:23:55.000Z</time>
      </trkpt>
      <trkpt lat="44.48484" lon="4.0742">
        <ele>769.20001220703</ele>
        <time>2012-05-19T08:24:34.000Z</time>
      </trkpt>
      <trkpt lat="44.48481" lon="4.07415">
        <ele>769.20001220703</ele>
        <time>2012-05-19T08:24:36.000Z</time>
      </trkpt>
      <trkpt lat="44.48477" lon="4.07411">
        <ele>769.20001220703</ele>
        <time>2012-05-19T08:24:38.000Z</time>
      </trkpt>
      <trkpt lat="44.48462" lon="4.07401">
        <ele>769.20001220703</ele>
        <time>2012-05-19T08:24:44.000Z</time>
      </trkpt>
      <trkpt lat="44.4845" lon="4.0739">
        <ele>769.40002441406</ele>
        <time>2012-05-19T08:24:50.000Z</time>
      </trkpt>
      <trkpt lat="44.48436" lon="4.07379">
        <ele>770</ele>
        <time>2012-05-19T08:24:56.000Z</time>
      </trkpt>
      <trkpt lat="44.48418" lon="4.07367">
        <ele>770.79998779297</ele>
        <time>2012-05-19T08:25:03.000Z</time>
      </trkpt>
      <trkpt lat="44.48402" lon="4.07354">
        <ele>772.59997558594</ele>
        <time>2012-05-19T08:25:10.000Z</time>
      </trkpt>
      <trkpt lat="44.484" lon="4.07352">
        <ele>772.79998779297</ele>
        <time>2012-05-19T08:25:11.000Z</time>
      </trkpt>
      <trkpt lat="44.48388" lon="4.07345">
        <ele>774.20001220703</ele>
        <time>2012-05-19T08:25:17.000Z</time>
      </trkpt>
      <trkpt lat="44.48375" lon="4.07336">
        <ele>775.59997558594</ele>
        <time>2012-05-19T08:25:23.000Z</time>
      </trkpt>
      <trkpt lat="44.4836" lon="4.07331">
        <ele>776.79998779297</ele>
        <time>2012-05-19T08:25:28.000Z</time>
      </trkpt>
      <trkpt lat="44.48343" lon="4.07332">
        <ele>777.59997558594</ele>
        <time>2012-05-19T08:25:33.000Z</time>
      </trkpt>
      <trkpt lat="44.48324" lon="4.07331">
        <ele>778</ele>
        <time>2012-05-19T08:25:38.000Z</time>
      </trkpt>
      <trkpt lat="44.48319" lon="4.07331">
        <ele>778</ele>
        <time>2012-05-19T08:25:39.000Z</time>
      </trkpt>
      <trkpt lat="44.48297" lon="4.07331">
        <ele>777.79998779297</ele>
        <time>2012-05-19T08:25:44.000Z</time>
      </trkpt>
      <trkpt lat="44.48293" lon="4.07329">
        <ele>777.79998779297</ele>
        <time>2012-05-19T08:25:45.000Z</time>
      </trkpt>
      <trkpt lat="44.48288" lon="4.07329">
        <ele>777.79998779297</ele>
        <time>2012-05-19T08:25:46.000Z</time>
      </trkpt>
      <trkpt lat="44.48278" lon="4.07328">
        <ele>777.59997558594</ele>
        <time>2012-05-19T08:25:48.000Z</time>
      </trkpt>
      <trkpt lat="44.48262" lon="4.07326">
        <ele>777.59997558594</ele>
        <time>2012-05-19T08:25:51.000Z</time>
      </trkpt>
      <trkpt lat="44.48256" lon="4.07324">
        <ele>777.59997558594</ele>
        <time>2012-05-19T08:25:52.000Z</time>
      </trkpt>
      <trkpt lat="44.48232" lon="4.07319">
        <ele>776.79998779297</ele>
        <time>2012-05-19T08:25:56.000Z</time>
      </trkpt>
      <trkpt lat="44.48226" lon="4.07317">
        <ele>776.59997558594</ele>
        <time>2012-05-19T08:25:57.000Z</time>
      </trkpt>
      <trkpt lat="44.48219" lon="4.07318">
        <ele>776</ele>
        <time>2012-05-19T08:25:58.000Z</time>
      </trkpt>
      <trkpt lat="44.48199" lon="4.07321">
        <ele>774.79998779297</ele>
        <time>2012-05-19T08:26:01.000Z</time>
      </trkpt>
      <trkpt lat="44.48193" lon="4.07322">
        <ele>774.40002441406</ele>
        <time>2012-05-19T08:26:02.000Z</time>
      </trkpt>
      <trkpt lat="44.48173" lon="4.07319">
        <ele>773.40002441406</ele>
        <time>2012-05-19T08:26:05.000Z</time>
      </trkpt>
      <trkpt lat="44.48161" lon="4.07314">
        <ele>773</ele>
        <time>2012-05-19T08:26:07.000Z</time>
      </trkpt>
      <trkpt lat="44.48154" lon="4.07313">
        <ele>773</ele>
        <time>2012-05-19T08:26:08.000Z</time>
      </trkpt>
      <trkpt lat="44.48133" lon="4.07314">
        <ele>773</ele>
        <time>2012-05-19T08:26:11.000Z</time>
      </trkpt>
      <trkpt lat="44.48112" lon="4.07315">
        <ele>772.79998779297</ele>
        <time>2012-05-19T08:26:14.000Z</time>
      </trkpt>
      <trkpt lat="44.48098" lon="4.07313">
        <ele>772.79998779297</ele>
        <time>2012-05-19T08:26:16.000Z</time>
      </trkpt>
      <trkpt lat="44.48091" lon="4.07314">
        <ele>772.79998779297</ele>
        <time>2012-05-19T08:26:17.000Z</time>
      </trkpt>
      <trkpt lat="44.48071" lon="4.07312">
        <ele>772.40002441406</ele>
        <time>2012-05-19T08:26:20.000Z</time>
      </trkpt>
      <trkpt lat="44.4806" lon="4.07312">
        <ele>772</ele>
        <time>2012-05-19T08:26:22.000Z</time>
      </trkpt>
      <trkpt lat="44.48042" lon="4.07311">
        <ele>771.40002441406</ele>
        <time>2012-05-19T08:26:25.000Z</time>
      </trkpt>
      <trkpt lat="44.48032" lon="4.07309">
        <ele>771</ele>
        <time>2012-05-19T08:26:27.000Z</time>
      </trkpt>
      <trkpt lat="44.48013" lon="4.07305">
        <ele>770.40002441406</ele>
        <time>2012-05-19T08:26:31.000Z</time>
      </trkpt>
      <trkpt lat="44.48009" lon="4.07304">
        <ele>770.20001220703</ele>
        <time>2012-05-19T08:26:32.000Z</time>
      </trkpt>
      <trkpt lat="44.48" lon="4.07304">
        <ele>770</ele>
        <time>2012-05-19T08:26:34.000Z</time>
      </trkpt>
      <trkpt lat="44.47993" lon="4.07303">
        <ele>769.59997558594</ele>
        <time>2012-05-19T08:26:36.000Z</time>
      </trkpt>
      <trkpt lat="44.47972" lon="4.07297">
        <ele>768.79998779297</ele>
        <time>2012-05-19T08:26:41.000Z</time>
      </trkpt>
      <trkpt lat="44.47968" lon="4.07296">
        <ele>768.59997558594</ele>
        <time>2012-05-19T08:26:42.000Z</time>
      </trkpt>
      <trkpt lat="44.47958" lon="4.07291">
        <ele>768.20001220703</ele>
        <time>2012-05-19T08:26:44.000Z</time>
      </trkpt>
      <trkpt lat="44.47953" lon="4.07287">
        <ele>768.20001220703</ele>
        <time>2012-05-19T08:26:45.000Z</time>
      </trkpt>
      <trkpt lat="44.47948" lon="4.07284">
        <ele>768.20001220703</ele>
        <time>2012-05-19T08:26:46.000Z</time>
      </trkpt>
      <trkpt lat="44.47937" lon="4.07277">
        <ele>768</ele>
        <time>2012-05-19T08:26:48.000Z</time>
      </trkpt>
      <trkpt lat="44.47925" lon="4.07266">
        <ele>768.20001220703</ele>
        <time>2012-05-19T08:26:50.000Z</time>
      </trkpt>
      <trkpt lat="44.47906" lon="4.07263">
        <ele>767.79998779297</ele>
        <time>2012-05-19T08:26:53.000Z</time>
      </trkpt>
      <trkpt lat="44.47899" lon="4.07263">
        <ele>767.40002441406</ele>
        <time>2012-05-19T08:26:54.000Z</time>
      </trkpt>
      <trkpt lat="44.47878" lon="4.07263">
        <ele>766.59997558594</ele>
        <time>2012-05-19T08:26:57.000Z</time>
      </trkpt>
      <trkpt lat="44.47863" lon="4.07265">
        <ele>765.79998779297</ele>
        <time>2012-05-19T08:26:59.000Z</time>
      </trkpt>
      <trkpt lat="44.4785" lon="4.07269">
        <ele>765</ele>
        <time>2012-05-19T08:27:01.000Z</time>
      </trkpt>
      <trkpt lat="44.47841" lon="4.07268">
        <ele>764.59997558594</ele>
        <time>2012-05-19T08:27:03.000Z</time>
      </trkpt>
      <trkpt lat="44.47836" lon="4.07265">
        <ele>764.59997558594</ele>
        <time>2012-05-19T08:27:06.000Z</time>
      </trkpt>
      <trkpt lat="44.4783" lon="4.07268">
        <ele>763.79998779297</ele>
        <time>2012-05-19T08:27:10.000Z</time>
      </trkpt>
      <trkpt lat="44.47829" lon="4.0727">
        <ele>763.59997558594</ele>
        <time>2012-05-19T08:27:11.000Z</time>
      </trkpt>
      <trkpt lat="44.47816" lon="4.07289">
        <ele>760.79998779297</ele>
        <time>2012-05-19T08:27:18.000Z</time>
      </trkpt>
      <trkpt lat="44.47814" lon="4.07291">
        <ele>760.40002441406</ele>
        <time>2012-05-19T08:27:19.000Z</time>
      </trkpt>
      <trkpt lat="44.47798" lon="4.07303">
        <ele>758.79998779297</ele>
        <time>2012-05-19T08:27:25.000Z</time>
      </trkpt>
      <trkpt lat="44.47783" lon="4.07311">
        <ele>757.79998779297</ele>
        <time>2012-05-19T08:27:30.000Z</time>
      </trkpt>
      <trkpt lat="44.47771" lon="4.07315">
        <ele>757.20001220703</ele>
        <time>2012-05-19T08:27:34.000Z</time>
      </trkpt>
      <trkpt lat="44.47766" lon="4.07315">
        <ele>757</ele>
        <time>2012-05-19T08:27:36.000Z</time>
      </trkpt>
      <trkpt lat="44.47747" lon="4.0732">
        <ele>756.20001220703</ele>
        <time>2012-05-19T08:27:42.000Z</time>
      </trkpt>
      <trkpt lat="44.47739" lon="4.07322">
        <ele>755.40002441406</ele>
        <time>2012-05-19T08:27:47.000Z</time>
      </trkpt>
      <trkpt lat="44.47736" lon="4.07322">
        <ele>755</ele>
        <time>2012-05-19T08:27:48.000Z</time>
      </trkpt>
      <trkpt lat="44.47731" lon="4.07315">
        <ele>754.20001220703</ele>
        <time>2012-05-19T08:27:50.000Z</time>
      </trkpt>
      <trkpt lat="44.4773" lon="4.07308">
        <ele>753.79998779297</ele>
        <time>2012-05-19T08:27:53.000Z</time>
      </trkpt>
      <trkpt lat="44.47731" lon="4.07302">
        <ele>753.59997558594</ele>
        <time>2012-05-19T08:27:58.000Z</time>
      </trkpt>
      <trkpt lat="44.47731" lon="4.07302">
        <ele>753.59997558594</ele>
        <time>2012-05-19T08:27:59.000Z</time>
      </trkpt>
      <trkpt lat="44.4773" lon="4.07297">
        <ele>753.40002441406</ele>
        <time>2012-05-19T08:28:06.000Z</time>
      </trkpt>
      <trkpt lat="44.47726" lon="4.07295">
        <ele>752.59997558594</ele>
        <time>2012-05-19T08:28:08.000Z</time>
      </trkpt>
      <trkpt lat="44.47709" lon="4.07294">
        <ele>750.40002441406</ele>
        <time>2012-05-19T08:28:13.000Z</time>
      </trkpt>
      <trkpt lat="44.4769" lon="4.07294">
        <ele>748</ele>
        <time>2012-05-19T08:28:18.000Z</time>
      </trkpt>
      <trkpt lat="44.47685" lon="4.07294">
        <ele>747.59997558594</ele>
        <time>2012-05-19T08:28:19.000Z</time>
      </trkpt>
      <trkpt lat="44.47671" lon="4.07295">
        <ele>745.79998779297</ele>
        <time>2012-05-19T08:28:23.000Z</time>
      </trkpt>
      <trkpt lat="44.47659" lon="4.07302">
        <ele>745</ele>
        <time>2012-05-19T08:28:27.000Z</time>
      </trkpt>
      <trkpt lat="44.4765" lon="4.07303">
        <ele>743.79998779297</ele>
        <time>2012-05-19T08:28:31.000Z</time>
      </trkpt>
      <trkpt lat="44.47638" lon="4.07306">
        <ele>742.40002441406</ele>
        <time>2012-05-19T08:28:36.000Z</time>
      </trkpt>
      <trkpt lat="44.47636" lon="4.07307">
        <ele>742.40002441406</ele>
        <time>2012-05-19T08:28:37.000Z</time>
      </trkpt>
      <trkpt lat="44.47627" lon="4.0731">
        <ele>741.40002441406</ele>
        <time>2012-05-19T08:28:40.000Z</time>
      </trkpt>
      <trkpt lat="44.47623" lon="4.07311">
        <ele>741</ele>
        <time>2012-05-19T08:28:41.000Z</time>
      </trkpt>
      <trkpt lat="44.47608" lon="4.07313">
        <ele>739.20001220703</ele>
        <time>2012-05-19T08:28:45.000Z</time>
      </trkpt>
      <trkpt lat="44.47593" lon="4.07314">
        <ele>737.20001220703</ele>
        <time>2012-05-19T08:28:50.000Z</time>
      </trkpt>
      <trkpt lat="44.47578" lon="4.07318">
        <ele>735.59997558594</ele>
        <time>2012-05-19T08:28:55.000Z</time>
      </trkpt>
      <trkpt lat="44.47561" lon="4.07319">
        <ele>733.40002441406</ele>
        <time>2012-05-19T08:29:01.000Z</time>
      </trkpt>
      <trkpt lat="44.4755" lon="4.07319">
        <ele>732</ele>
        <time>2012-05-19T08:29:06.000Z</time>
      </trkpt>
      <trkpt lat="44.47536" lon="4.0732">
        <ele>730.40002441406</ele>
        <time>2012-05-19T08:29:10.000Z</time>
      </trkpt>
      <trkpt lat="44.47526" lon="4.0732">
        <ele>729</ele>
        <time>2012-05-19T08:29:14.000Z</time>
      </trkpt>
      <trkpt lat="44.47519" lon="4.07322">
        <ele>728.40002441406</ele>
        <time>2012-05-19T08:29:18.000Z</time>
      </trkpt>
      <trkpt lat="44.47508" lon="4.07321">
        <ele>726.79998779297</ele>
        <time>2012-05-19T08:29:23.000Z</time>
      </trkpt>
      <trkpt lat="44.47495" lon="4.07322">
        <ele>724.79998779297</ele>
        <time>2012-05-19T08:29:28.000Z</time>
      </trkpt>
      <trkpt lat="44.47474" lon="4.07324">
        <ele>721.59997558594</ele>
        <time>2012-05-19T08:29:35.000Z</time>
      </trkpt>
      <trkpt lat="44.47462" lon="4.07327">
        <ele>719.59997558594</ele>
        <time>2012-05-19T08:29:39.000Z</time>
      </trkpt>
      <trkpt lat="44.47446" lon="4.0733">
        <ele>717</ele>
        <time>2012-05-19T08:29:45.000Z</time>
      </trkpt>
      <trkpt lat="44.47434" lon="4.07333">
        <ele>715.20001220703</ele>
        <time>2012-05-19T08:29:50.000Z</time>
      </trkpt>
      <trkpt lat="44.47422" lon="4.0734">
        <ele>713.79998779297</ele>
        <time>2012-05-19T08:29:55.000Z</time>
      </trkpt>
      <trkpt lat="44.47404" lon="4.07347">
        <ele>711.40002441406</ele>
        <time>2012-05-19T08:30:00.000Z</time>
      </trkpt>
      <trkpt lat="44.47384" lon="4.07358">
        <ele>709</ele>
        <time>2012-05-19T08:30:06.000Z</time>
      </trkpt>
      <trkpt lat="44.47373" lon="4.07366">
        <ele>707.79998779297</ele>
        <time>2012-05-19T08:30:11.000Z</time>
      </trkpt>
      <trkpt lat="44.47362" lon="4.07373">
        <ele>706.20001220703</ele>
        <time>2012-05-19T08:30:16.000Z</time>
      </trkpt>
      <trkpt lat="44.47349" lon="4.07382">
        <ele>704.59997558594</ele>
        <time>2012-05-19T08:30:21.000Z</time>
      </trkpt>
      <trkpt lat="44.4734" lon="4.0739">
        <ele>703.59997558594</ele>
        <time>2012-05-19T08:30:25.000Z</time>
      </trkpt>
      <trkpt lat="44.47335" lon="4.07392">
        <ele>702.79998779297</ele>
        <time>2012-05-19T08:30:29.000Z</time>
      </trkpt>
      <trkpt lat="44.47331" lon="4.07394">
        <ele>702.20001220703</ele>
        <time>2012-05-19T08:30:33.000Z</time>
      </trkpt>
      <trkpt lat="44.47318" lon="4.074">
        <ele>700.59997558594</ele>
        <time>2012-05-19T08:30:39.000Z</time>
      </trkpt>
      <trkpt lat="44.47316" lon="4.074">
        <ele>700.20001220703</ele>
        <time>2012-05-19T08:30:44.000Z</time>
      </trkpt>
      <trkpt lat="44.47311" lon="4.07402">
        <ele>699.40002441406</ele>
        <time>2012-05-19T08:30:49.000Z</time>
      </trkpt>
      <trkpt lat="44.4731" lon="4.07402">
        <ele>699.40002441406</ele>
        <time>2012-05-19T08:30:50.000Z</time>
      </trkpt>
      <trkpt lat="44.4731" lon="4.07404">
        <ele>699.40002441406</ele>
        <time>2012-05-19T08:30:55.000Z</time>
      </trkpt>
      <trkpt lat="44.47309" lon="4.07407">
        <ele>699.40002441406</ele>
        <time>2012-05-19T08:31:07.000Z</time>
      </trkpt>
      <trkpt lat="44.47308" lon="4.07408">
        <ele>699.20001220703</ele>
        <time>2012-05-19T08:31:13.000Z</time>
      </trkpt>
      <trkpt lat="44.47299" lon="4.07413">
        <ele>697.79998779297</ele>
        <time>2012-05-19T08:31:19.000Z</time>
      </trkpt>
      <trkpt lat="44.47283" lon="4.07425">
        <ele>695</ele>
        <time>2012-05-19T08:31:25.000Z</time>
      </trkpt>
      <trkpt lat="44.47268" lon="4.07433">
        <ele>692.40002441406</ele>
        <time>2012-05-19T08:31:30.000Z</time>
      </trkpt>
      <trkpt lat="44.47251" lon="4.07447">
        <ele>689.40002441406</ele>
        <time>2012-05-19T08:31:36.000Z</time>
      </trkpt>
      <trkpt lat="44.4725" lon="4.0745">
        <ele>689.20001220703</ele>
        <time>2012-05-19T08:31:37.000Z</time>
      </trkpt>
      <trkpt lat="44.47245" lon="4.07454">
        <ele>688.59997558594</ele>
        <time>2012-05-19T08:31:41.000Z</time>
      </trkpt>
      <trkpt lat="44.47242" lon="4.07456">
        <ele>688.20001220703</ele>
        <time>2012-05-19T08:31:46.000Z</time>
      </trkpt>
      <trkpt lat="44.4724" lon="4.07456">
        <ele>688</ele>
        <time>2012-05-19T08:31:47.000Z</time>
      </trkpt>
      <trkpt lat="44.47239" lon="4.07457">
        <ele>687.79998779297</ele>
        <time>2012-05-19T08:31:51.000Z</time>
      </trkpt>
      <trkpt lat="44.47236" lon="4.07456">
        <ele>687.20001220703</ele>
        <time>2012-05-19T08:32:02.000Z</time>
      </trkpt>
      <trkpt lat="44.47231" lon="4.07454">
        <ele>686.59997558594</ele>
        <time>2012-05-19T08:32:13.000Z</time>
      </trkpt>
      <trkpt lat="44.4723" lon="4.07454">
        <ele>686.40002441406</ele>
        <time>2012-05-19T08:32:14.000Z</time>
      </trkpt>
      <trkpt lat="44.47229" lon="4.07453">
        <ele>686.20001220703</ele>
        <time>2012-05-19T08:32:15.000Z</time>
      </trkpt>
      <trkpt lat="44.47229" lon="4.07452">
        <ele>686.20001220703</ele>
        <time>2012-05-19T08:32:19.000Z</time>
      </trkpt>
      <trkpt lat="44.47231" lon="4.07453">
        <ele>686.59997558594</ele>
        <time>2012-05-19T08:32:21.000Z</time>
      </trkpt>
      <trkpt lat="44.47233" lon="4.07454">
        <ele>686.79998779297</ele>
        <time>2012-05-19T08:32:23.000Z</time>
      </trkpt>
      <trkpt lat="44.47233" lon="4.07455">
        <ele>686.79998779297</ele>
        <time>2012-05-19T08:32:24.000Z</time>
      </trkpt>
      <trkpt lat="44.47232" lon="4.07454">
        <ele>686.79998779297</ele>
        <time>2012-05-19T08:32:28.000Z</time>
      </trkpt>
      <trkpt lat="44.47232" lon="4.07453">
        <ele>686.79998779297</ele>
        <time>2012-05-19T08:32:33.000Z</time>
      </trkpt>
      <trkpt lat="44.47234" lon="4.07455">
        <ele>687</ele>
        <time>2012-05-19T08:32:39.000Z</time>
      </trkpt>
      <trkpt lat="44.47235" lon="4.07454">
        <ele>687.20001220703</ele>
        <time>2012-05-19T08:32:53.000Z</time>
      </trkpt>
      <trkpt lat="44.47232" lon="4.07459">
        <ele>686.79998779297</ele>
        <time>2012-05-19T08:33:45.000Z</time>
      </trkpt>
      <trkpt lat="44.47231" lon="4.07458">
        <ele>686.59997558594</ele>
        <time>2012-05-19T08:33:46.000Z</time>
      </trkpt>
      <trkpt lat="44.47229" lon="4.07456">
        <ele>686.40002441406</ele>
        <time>2012-05-19T08:33:51.000Z</time>
      </trkpt>
      <trkpt lat="44.47225" lon="4.07459">
        <ele>685.59997558594</ele>
        <time>2012-05-19T08:34:13.000Z</time>
      </trkpt>
      <trkpt lat="44.47226" lon="4.07457">
        <ele>686</ele>
        <time>2012-05-19T08:34:17.000Z</time>
      </trkpt>
      <trkpt lat="44.47224" lon="4.07457">
        <ele>685.59997558594</ele>
        <time>2012-05-19T08:34:21.000Z</time>
      </trkpt>
      <trkpt lat="44.47216" lon="4.07461">
        <ele>684.40002441406</ele>
        <time>2012-05-19T08:34:24.000Z</time>
      </trkpt>
      <trkpt lat="44.47192" lon="4.07473">
        <ele>680.40002441406</ele>
        <time>2012-05-19T08:34:28.000Z</time>
      </trkpt>
      <trkpt lat="44.47168" lon="4.07485">
        <ele>675.40002441406</ele>
        <time>2012-05-19T08:34:31.000Z</time>
      </trkpt>
      <trkpt lat="44.4715" lon="4.07494">
        <ele>673.20001220703</ele>
        <time>2012-05-19T08:34:33.000Z</time>
      </trkpt>
      <trkpt lat="44.4713" lon="4.07501">
        <ele>671.20001220703</ele>
        <time>2012-05-19T08:34:35.000Z</time>
      </trkpt>
      <trkpt lat="44.4711" lon="4.07503">
        <ele>669.59997558594</ele>
        <time>2012-05-19T08:34:37.000Z</time>
      </trkpt>
      <trkpt lat="44.4709" lon="4.07501">
        <ele>668.40002441406</ele>
        <time>2012-05-19T08:34:39.000Z</time>
      </trkpt>
      <trkpt lat="44.47069" lon="4.07497">
        <ele>667.40002441406</ele>
        <time>2012-05-19T08:34:41.000Z</time>
      </trkpt>
      <trkpt lat="44.47049" lon="4.07495">
        <ele>666.20001220703</ele>
        <time>2012-05-19T08:34:43.000Z</time>
      </trkpt>
      <trkpt lat="44.47029" lon="4.07494">
        <ele>664.79998779297</ele>
        <time>2012-05-19T08:34:45.000Z</time>
      </trkpt>
      <trkpt lat="44.4702" lon="4.07494">
        <ele>664.20001220703</ele>
        <time>2012-05-19T08:34:46.000Z</time>
      </trkpt>
      <trkpt lat="44.47002" lon="4.07493">
        <ele>663</ele>
        <time>2012-05-19T08:34:48.000Z</time>
      </trkpt>
      <trkpt lat="44.46988" lon="4.07489">
        <ele>663.59997558594</ele>
        <time>2012-05-19T08:34:50.000Z</time>
      </trkpt>
      <trkpt lat="44.46966" lon="4.07481">
        <ele>664.40002441406</ele>
        <time>2012-05-19T08:34:54.000Z</time>
      </trkpt>
      <trkpt lat="44.46962" lon="4.0748">
        <ele>664.40002441406</ele>
        <time>2012-05-19T08:34:55.000Z</time>
      </trkpt>
      <trkpt lat="44.46959" lon="4.0748">
        <ele>664.59997558594</ele>
        <time>2012-05-19T08:34:56.000Z</time>
      </trkpt>
      <trkpt lat="44.46952" lon="4.07477">
        <ele>664.79998779297</ele>
        <time>2012-05-19T08:34:58.000Z</time>
      </trkpt>
      <trkpt lat="44.46949" lon="4.07476">
        <ele>665</ele>
        <time>2012-05-19T08:34:59.000Z</time>
      </trkpt>
      <trkpt lat="44.46928" lon="4.07475">
        <ele>665.79998779297</ele>
        <time>2012-05-19T08:35:04.000Z</time>
      </trkpt>
      <trkpt lat="44.46915" lon="4.07472">
        <ele>665.79998779297</ele>
        <time>2012-05-19T08:35:07.000Z</time>
      </trkpt>
      <trkpt lat="44.46899" lon="4.07462">
        <ele>664.40002441406</ele>
        <time>2012-05-19T08:35:12.000Z</time>
      </trkpt>
      <trkpt lat="44.46886" lon="4.07453">
        <ele>663.79998779297</ele>
        <time>2012-05-19T08:35:17.000Z</time>
      </trkpt>
      <trkpt lat="44.46871" lon="4.07439">
        <ele>663.79998779297</ele>
        <time>2012-05-19T08:35:22.000Z</time>
      </trkpt>
      <trkpt lat="44.46868" lon="4.07437">
        <ele>664</ele>
        <time>2012-05-19T08:35:23.000Z</time>
      </trkpt>
      <trkpt lat="44.46854" lon="4.07424">
        <ele>665.20001220703</ele>
        <time>2012-05-19T08:35:28.000Z</time>
      </trkpt>
      <trkpt lat="44.46847" lon="4.07419">
        <ele>666</ele>
        <time>2012-05-19T08:35:32.000Z</time>
      </trkpt>
      <trkpt lat="44.46843" lon="4.07414">
        <ele>666</ele>
        <time>2012-05-19T08:35:44.000Z</time>
      </trkpt>
      <trkpt lat="44.46829" lon="4.07399">
        <ele>665</ele>
        <time>2012-05-19T08:35:49.000Z</time>
      </trkpt>
      <trkpt lat="44.46811" lon="4.07386">
        <ele>663.59997558594</ele>
        <time>2012-05-19T08:35:54.000Z</time>
      </trkpt>
      <trkpt lat="44.46798" lon="4.07375">
        <ele>663.40002441406</ele>
        <time>2012-05-19T08:35:58.000Z</time>
      </trkpt>
      <trkpt lat="44.46788" lon="4.07365">
        <ele>663.59997558594</ele>
        <time>2012-05-19T08:36:01.000Z</time>
      </trkpt>
      <trkpt lat="44.46781" lon="4.07358">
        <ele>664.20001220703</ele>
        <time>2012-05-19T08:36:03.000Z</time>
      </trkpt>
      <trkpt lat="44.46767" lon="4.07341">
        <ele>666.20001220703</ele>
        <time>2012-05-19T08:36:07.000Z</time>
      </trkpt>
      <trkpt lat="44.46757" lon="4.0733">
        <ele>667.79998779297</ele>
        <time>2012-05-19T08:36:10.000Z</time>
      </trkpt>
      <trkpt lat="44.46743" lon="4.07317">
        <ele>667.40002441406</ele>
        <time>2012-05-19T08:36:14.000Z</time>
      </trkpt>
      <trkpt lat="44.46736" lon="4.07312">
        <ele>667</ele>
        <time>2012-05-19T08:36:16.000Z</time>
      </trkpt>
      <trkpt lat="44.46722" lon="4.07302">
        <ele>666.59997558594</ele>
        <time>2012-05-19T08:36:20.000Z</time>
      </trkpt>
      <trkpt lat="44.46715" lon="4.07295">
        <ele>666.79998779297</ele>
        <time>2012-05-19T08:36:22.000Z</time>
      </trkpt>
      <trkpt lat="44.46701" lon="4.07275">
        <ele>667.59997558594</ele>
        <time>2012-05-19T08:36:28.000Z</time>
      </trkpt>
      <trkpt lat="44.46686" lon="4.07259">
        <ele>669.59997558594</ele>
        <time>2012-05-19T08:36:34.000Z</time>
      </trkpt>
      <trkpt lat="44.46673" lon="4.07244">
        <ele>672.40002441406</ele>
        <time>2012-05-19T08:36:40.000Z</time>
      </trkpt>
      <trkpt lat="44.46663" lon="4.07226">
        <ele>673.79998779297</ele>
        <time>2012-05-19T08:36:46.000Z</time>
      </trkpt>
      <trkpt lat="44.46652" lon="4.07205">
        <ele>674.79998779297</ele>
        <time>2012-05-19T08:36:53.000Z</time>
      </trkpt>
      <trkpt lat="44.46648" lon="4.072">
        <ele>675.20001220703</ele>
        <time>2012-05-19T08:36:55.000Z</time>
      </trkpt>
      <trkpt lat="44.4664" lon="4.07184">
        <ele>676.20001220703</ele>
        <time>2012-05-19T08:37:01.000Z</time>
      </trkpt>
      <trkpt lat="44.46633" lon="4.07162">
        <ele>677.59997558594</ele>
        <time>2012-05-19T08:37:08.000Z</time>
      </trkpt>
      <trkpt lat="44.46621" lon="4.07139">
        <ele>679.40002441406</ele>
        <time>2012-05-19T08:37:16.000Z</time>
      </trkpt>
      <trkpt lat="44.4661" lon="4.07118">
        <ele>681.40002441406</ele>
        <time>2012-05-19T08:37:24.000Z</time>
      </trkpt>
      <trkpt lat="44.46608" lon="4.07116">
        <ele>681.59997558594</ele>
        <time>2012-05-19T08:37:25.000Z</time>
      </trkpt>
      <trkpt lat="44.46593" lon="4.07098">
        <ele>683.59997558594</ele>
        <time>2012-05-19T08:37:32.000Z</time>
      </trkpt>
      <trkpt lat="44.46574" lon="4.07086">
        <ele>684.20001220703</ele>
        <time>2012-05-19T08:37:38.000Z</time>
      </trkpt>
      <trkpt lat="44.46555" lon="4.07075">
        <ele>683.59997558594</ele>
        <time>2012-05-19T08:37:43.000Z</time>
      </trkpt>
      <trkpt lat="44.46547" lon="4.07071">
        <ele>683.59997558594</ele>
        <time>2012-05-19T08:37:45.000Z</time>
      </trkpt>
      <trkpt lat="44.46527" lon="4.0706">
        <ele>683</ele>
        <time>2012-05-19T08:37:50.000Z</time>
      </trkpt>
      <trkpt lat="44.46516" lon="4.07056">
        <ele>682.59997558594</ele>
        <time>2012-05-19T08:37:53.000Z</time>
      </trkpt>
      <trkpt lat="44.46496" lon="4.0705">
        <ele>681.59997558594</ele>
        <time>2012-05-19T08:37:58.000Z</time>
      </trkpt>
      <trkpt lat="44.46487" lon="4.07046">
        <ele>681.59997558594</ele>
        <time>2012-05-19T08:38:00.000Z</time>
      </trkpt>
      <trkpt lat="44.46482" lon="4.07045">
        <ele>681.40002441406</ele>
        <time>2012-05-19T08:38:01.000Z</time>
      </trkpt>
      <trkpt lat="44.46467" lon="4.07048">
        <ele>680.59997558594</ele>
        <time>2012-05-19T08:38:04.000Z</time>
      </trkpt>
      <trkpt lat="44.46461" lon="4.0705">
        <ele>680.20001220703</ele>
        <time>2012-05-19T08:38:05.000Z</time>
      </trkpt>
      <trkpt lat="44.46448" lon="4.07055">
        <ele>679.40002441406</ele>
        <time>2012-05-19T08:38:07.000Z</time>
      </trkpt>
      <trkpt lat="44.46441" lon="4.07056">
        <ele>679.20001220703</ele>
        <time>2012-05-19T08:38:08.000Z</time>
      </trkpt>
      <trkpt lat="44.46419" lon="4.07051">
        <ele>678.59997558594</ele>
        <time>2012-05-19T08:38:11.000Z</time>
      </trkpt>
      <trkpt lat="44.46412" lon="4.07047">
        <ele>678.40002441406</ele>
        <time>2012-05-19T08:38:12.000Z</time>
      </trkpt>
      <trkpt lat="44.46397" lon="4.07027">
        <ele>678</ele>
        <time>2012-05-19T08:38:15.000Z</time>
      </trkpt>
      <trkpt lat="44.46392" lon="4.07021">
        <ele>677.59997558594</ele>
        <time>2012-05-19T08:38:16.000Z</time>
      </trkpt>
      <trkpt lat="44.46372" lon="4.07001">
        <ele>676.20001220703</ele>
        <time>2012-05-19T08:38:19.000Z</time>
      </trkpt>
      <trkpt lat="44.46359" lon="4.06986">
        <ele>673.79998779297</ele>
        <time>2012-05-19T08:38:21.000Z</time>
      </trkpt>
      <trkpt lat="44.46344" lon="4.0697">
        <ele>671.79998779297</ele>
        <time>2012-05-19T08:38:23.000Z</time>
      </trkpt>
      <trkpt lat="44.46337" lon="4.06961">
        <ele>670.79998779297</ele>
        <time>2012-05-19T08:38:24.000Z</time>
      </trkpt>
      <trkpt lat="44.46325" lon="4.06941">
        <ele>669.59997558594</ele>
        <time>2012-05-19T08:38:26.000Z</time>
      </trkpt>
      <trkpt lat="44.46314" lon="4.06921">
        <ele>669.20001220703</ele>
        <time>2012-05-19T08:38:28.000Z</time>
      </trkpt>
      <trkpt lat="44.46308" lon="4.06913">
        <ele>668.79998779297</ele>
        <time>2012-05-19T08:38:29.000Z</time>
      </trkpt>
      <trkpt lat="44.4629" lon="4.06894">
        <ele>667.79998779297</ele>
        <time>2012-05-19T08:38:32.000Z</time>
      </trkpt>
      <trkpt lat="44.46283" lon="4.06891">
        <ele>668</ele>
        <time>2012-05-19T08:38:33.000Z</time>
      </trkpt>
      <trkpt lat="44.46265" lon="4.06884">
        <ele>669</ele>
        <time>2012-05-19T08:38:36.000Z</time>
      </trkpt>
      <trkpt lat="44.4626" lon="4.06879">
        <ele>669.20001220703</ele>
        <time>2012-05-19T08:38:37.000Z</time>
      </trkpt>
      <trkpt lat="44.4625" lon="4.06867">
        <ele>670</ele>
        <time>2012-05-19T08:38:40.000Z</time>
      </trkpt>
      <trkpt lat="44.46237" lon="4.06856">
        <ele>671</ele>
        <time>2012-05-19T08:38:44.000Z</time>
      </trkpt>
      <trkpt lat="44.46234" lon="4.06853">
        <ele>671.20001220703</ele>
        <time>2012-05-19T08:38:45.000Z</time>
      </trkpt>
      <trkpt lat="44.46225" lon="4.06848">
        <ele>672</ele>
        <time>2012-05-19T08:38:48.000Z</time>
      </trkpt>
      <trkpt lat="44.46219" lon="4.06843">
        <ele>672.40002441406</ele>
        <time>2012-05-19T08:38:50.000Z</time>
      </trkpt>
      <trkpt lat="44.46203" lon="4.06829">
        <ele>673.40002441406</ele>
        <time>2012-05-19T08:38:56.000Z</time>
      </trkpt>
      <trkpt lat="44.46186" lon="4.06817">
        <ele>673.59997558594</ele>
        <time>2012-05-19T08:39:02.000Z</time>
      </trkpt>
      <trkpt lat="44.46184" lon="4.06815">
        <ele>673.59997558594</ele>
        <time>2012-05-19T08:39:03.000Z</time>
      </trkpt>
      <trkpt lat="44.46166" lon="4.06805">
        <ele>674</ele>
        <time>2012-05-19T08:39:09.000Z</time>
      </trkpt>
      <trkpt lat="44.46158" lon="4.06803">
        <ele>674.79998779297</ele>
        <time>2012-05-19T08:39:12.000Z</time>
      </trkpt>
      <trkpt lat="44.46143" lon="4.06804">
        <ele>677</ele>
        <time>2012-05-19T08:39:20.000Z</time>
      </trkpt>
      <trkpt lat="44.4613" lon="4.06807">
        <ele>678.79998779297</ele>
        <time>2012-05-19T08:39:28.000Z</time>
      </trkpt>
      <trkpt lat="44.46118" lon="4.06809">
        <ele>680.40002441406</ele>
        <time>2012-05-19T08:39:35.000Z</time>
      </trkpt>
      <trkpt lat="44.46107" lon="4.06811">
        <ele>682</ele>
        <time>2012-05-19T08:39:42.000Z</time>
      </trkpt>
      <trkpt lat="44.46095" lon="4.06815">
        <ele>683.79998779297</ele>
        <time>2012-05-19T08:39:49.000Z</time>
      </trkpt>
      <trkpt lat="44.46086" lon="4.06817">
        <ele>685</ele>
        <time>2012-05-19T08:39:56.000Z</time>
      </trkpt>
      <trkpt lat="44.46076" lon="4.06828">
        <ele>685.59997558594</ele>
        <time>2012-05-19T08:40:05.000Z</time>
      </trkpt>
      <trkpt lat="44.46057" lon="4.06839">
        <ele>684.79998779297</ele>
        <time>2012-05-19T08:40:12.000Z</time>
      </trkpt>
      <trkpt lat="44.46038" lon="4.06839">
        <ele>684.40002441406</ele>
        <time>2012-05-19T08:40:17.000Z</time>
      </trkpt>
      <trkpt lat="44.46032" lon="4.0684">
        <ele>684</ele>
        <time>2012-05-19T08:40:20.000Z</time>
      </trkpt>
      <trkpt lat="44.46031" lon="4.0684">
        <ele>684</ele>
        <time>2012-05-19T08:40:32.000Z</time>
      </trkpt>
      <trkpt lat="44.46031" lon="4.0684">
        <ele>684</ele>
        <time>2012-05-19T08:40:52.000Z</time>
      </trkpt>
      <trkpt lat="44.46025" lon="4.06842">
        <ele>683.59997558594</ele>
        <time>2012-05-19T08:41:41.000Z</time>
      </trkpt>
      <trkpt lat="44.46012" lon="4.06831">
        <ele>684.20001220703</ele>
        <time>2012-05-19T08:41:47.000Z</time>
      </trkpt>
      <trkpt lat="44.46005" lon="4.06823">
        <ele>684</ele>
        <time>2012-05-19T08:41:52.000Z</time>
      </trkpt>
      <trkpt lat="44.45999" lon="4.06815">
        <ele>683.59997558594</ele>
        <time>2012-05-19T08:43:05.000Z</time>
      </trkpt>
      <trkpt lat="44.45983" lon="4.06812">
        <ele>681.79998779297</ele>
        <time>2012-05-19T08:43:09.000Z</time>
      </trkpt>
      <trkpt lat="44.45962" lon="4.06819">
        <ele>679.59997558594</ele>
        <time>2012-05-19T08:43:13.000Z</time>
      </trkpt>
      <trkpt lat="44.45957" lon="4.06823">
        <ele>679.20001220703</ele>
        <time>2012-05-19T08:43:14.000Z</time>
      </trkpt>
      <trkpt lat="44.45942" lon="4.06835">
        <ele>677.59997558594</ele>
        <time>2012-05-19T08:43:17.000Z</time>
      </trkpt>
      <trkpt lat="44.45925" lon="4.06848">
        <ele>674.59997558594</ele>
        <time>2012-05-19T08:43:20.000Z</time>
      </trkpt>
      <trkpt lat="44.4592" lon="4.06852">
        <ele>673.79998779297</ele>
        <time>2012-05-19T08:43:21.000Z</time>
      </trkpt>
      <trkpt lat="44.45914" lon="4.06857">
        <ele>672.79998779297</ele>
        <time>2012-05-19T08:43:22.000Z</time>
      </trkpt>
      <trkpt lat="44.459" lon="4.06874">
        <ele>670</ele>
        <time>2012-05-19T08:43:25.000Z</time>
      </trkpt>
      <trkpt lat="44.45894" lon="4.06879">
        <ele>669.20001220703</ele>
        <time>2012-05-19T08:43:26.000Z</time>
      </trkpt>
      <trkpt lat="44.45876" lon="4.06891">
        <ele>667.59997558594</ele>
        <time>2012-05-19T08:43:29.000Z</time>
      </trkpt>
      <trkpt lat="44.45857" lon="4.06902">
        <ele>666.40002441406</ele>
        <time>2012-05-19T08:43:32.000Z</time>
      </trkpt>
      <trkpt lat="44.45845" lon="4.06903">
        <ele>665.79998779297</ele>
        <time>2012-05-19T08:43:34.000Z</time>
      </trkpt>
      <trkpt lat="44.45827" lon="4.06903">
        <ele>664.79998779297</ele>
        <time>2012-05-19T08:43:37.000Z</time>
      </trkpt>
      <trkpt lat="44.45814" lon="4.06902">
        <ele>663.59997558594</ele>
        <time>2012-05-19T08:43:39.000Z</time>
      </trkpt>
      <trkpt lat="44.45792" lon="4.06903">
        <ele>661.40002441406</ele>
        <time>2012-05-19T08:43:42.000Z</time>
      </trkpt>
      <trkpt lat="44.45783" lon="4.06902">
        <ele>660.59997558594</ele>
        <time>2012-05-19T08:43:43.000Z</time>
      </trkpt>
      <trkpt lat="44.45759" lon="4.06895">
        <ele>658</ele>
        <time>2012-05-19T08:43:46.000Z</time>
      </trkpt>
      <trkpt lat="44.45751" lon="4.06892">
        <ele>657.20001220703</ele>
        <time>2012-05-19T08:43:47.000Z</time>
      </trkpt>
      <trkpt lat="44.45745" lon="4.06892">
        <ele>656.79998779297</ele>
        <time>2012-05-19T08:43:48.000Z</time>
      </trkpt>
      <trkpt lat="44.45731" lon="4.06892">
        <ele>656.20001220703</ele>
        <time>2012-05-19T08:43:50.000Z</time>
      </trkpt>
      <trkpt lat="44.45712" lon="4.06888">
        <ele>655.40002441406</ele>
        <time>2012-05-19T08:43:53.000Z</time>
      </trkpt>
      <trkpt lat="44.45704" lon="4.06885">
        <ele>654.79998779297</ele>
        <time>2012-05-19T08:43:55.000Z</time>
      </trkpt>
      <trkpt lat="44.457" lon="4.06878">
        <ele>654.40002441406</ele>
        <time>2012-05-19T08:43:58.000Z</time>
      </trkpt>
      <trkpt lat="44.45697" lon="4.06872">
        <ele>654.20001220703</ele>
        <time>2012-05-19T08:44:00.000Z</time>
      </trkpt>
      <trkpt lat="44.45695" lon="4.06869">
        <ele>654</ele>
        <time>2012-05-19T08:44:01.000Z</time>
      </trkpt>
      <trkpt lat="44.45689" lon="4.06863">
        <ele>653.59997558594</ele>
        <time>2012-05-19T08:44:03.000Z</time>
      </trkpt>
      <trkpt lat="44.45672" lon="4.06847">
        <ele>652.59997558594</ele>
        <time>2012-05-19T08:44:08.000Z</time>
      </trkpt>
      <trkpt lat="44.45668" lon="4.06844">
        <ele>652.40002441406</ele>
        <time>2012-05-19T08:44:09.000Z</time>
      </trkpt>
      <trkpt lat="44.45655" lon="4.06827">
        <ele>650.20001220703</ele>
        <time>2012-05-19T08:44:14.000Z</time>
      </trkpt>
      <trkpt lat="44.4565" lon="4.06821">
        <ele>649</ele>
        <time>2012-05-19T08:44:16.000Z</time>
      </trkpt>
      <trkpt lat="44.45637" lon="4.06808">
        <ele>646</ele>
        <time>2012-05-19T08:44:21.000Z</time>
      </trkpt>
      <trkpt lat="44.4562" lon="4.06793">
        <ele>642.59997558594</ele>
        <time>2012-05-19T08:44:26.000Z</time>
      </trkpt>
      <trkpt lat="44.45615" lon="4.06791">
        <ele>642</ele>
        <time>2012-05-19T08:44:27.000Z</time>
      </trkpt>
      <trkpt lat="44.45595" lon="4.06785">
        <ele>640.59997558594</ele>
        <time>2012-05-19T08:44:31.000Z</time>
      </trkpt>
      <trkpt lat="44.45591" lon="4.06784">
        <ele>640.20001220703</ele>
        <time>2012-05-19T08:44:32.000Z</time>
      </trkpt>
      <trkpt lat="44.45585" lon="4.06784">
        <ele>640.20001220703</ele>
        <time>2012-05-19T08:44:35.000Z</time>
      </trkpt>
      <trkpt lat="44.45586" lon="4.06788">
        <ele>640.79998779297</ele>
        <time>2012-05-19T08:45:41.000Z</time>
      </trkpt>
      <trkpt lat="44.45582" lon="4.06786">
        <ele>640.40002441406</ele>
        <time>2012-05-19T08:45:43.000Z</time>
      </trkpt>
      <trkpt lat="44.45576" lon="4.06784">
        <ele>639.40002441406</ele>
        <time>2012-05-19T08:45:45.000Z</time>
      </trkpt>
      <trkpt lat="44.45569" lon="4.06782">
        <ele>638.20001220703</ele>
        <time>2012-05-19T08:45:47.000Z</time>
      </trkpt>
      <trkpt lat="44.45554" lon="4.06776">
        <ele>635.59997558594</ele>
        <time>2012-05-19T08:45:52.000Z</time>
      </trkpt>
      <trkpt lat="44.4554" lon="4.06774">
        <ele>634</ele>
        <time>2012-05-19T08:45:57.000Z</time>
      </trkpt>
      <trkpt lat="44.45527" lon="4.06772">
        <ele>632.20001220703</ele>
        <time>2012-05-19T08:46:02.000Z</time>
      </trkpt>
      <trkpt lat="44.4551" lon="4.06773">
        <ele>630.40002441406</ele>
        <time>2012-05-19T08:46:07.000Z</time>
      </trkpt>
      <trkpt lat="44.45494" lon="4.06777">
        <ele>629.40002441406</ele>
        <time>2012-05-19T08:46:12.000Z</time>
      </trkpt>
      <trkpt lat="44.45476" lon="4.06786">
        <ele>628</ele>
        <time>2012-05-19T08:46:18.000Z</time>
      </trkpt>
      <trkpt lat="44.45458" lon="4.06789">
        <ele>625.59997558594</ele>
        <time>2012-05-19T08:46:23.000Z</time>
      </trkpt>
      <trkpt lat="44.45448" lon="4.06789">
        <ele>624</ele>
        <time>2012-05-19T08:46:27.000Z</time>
      </trkpt>
      <trkpt lat="44.4543" lon="4.06788">
        <ele>620.79998779297</ele>
        <time>2012-05-19T08:46:32.000Z</time>
      </trkpt>
      <trkpt lat="44.45409" lon="4.06793">
        <ele>618.40002441406</ele>
        <time>2012-05-19T08:46:37.000Z</time>
      </trkpt>
      <trkpt lat="44.45398" lon="4.06801">
        <ele>617.59997558594</ele>
        <time>2012-05-19T08:46:40.000Z</time>
      </trkpt>
      <trkpt lat="44.45395" lon="4.06802">
        <ele>617.40002441406</ele>
        <time>2012-05-19T08:46:41.000Z</time>
      </trkpt>
      <trkpt lat="44.45384" lon="4.06809">
        <ele>616.59997558594</ele>
        <time>2012-05-19T08:46:44.000Z</time>
      </trkpt>
      <trkpt lat="44.45377" lon="4.06815">
        <ele>616.40002441406</ele>
        <time>2012-05-19T08:46:46.000Z</time>
      </trkpt>
      <trkpt lat="44.45374" lon="4.06817">
        <ele>616.20001220703</ele>
        <time>2012-05-19T08:46:47.000Z</time>
      </trkpt>
      <trkpt lat="44.45361" lon="4.06827">
        <ele>615.59997558594</ele>
        <time>2012-05-19T08:46:51.000Z</time>
      </trkpt>
      <trkpt lat="44.45356" lon="4.06832">
        <ele>615.59997558594</ele>
        <time>2012-05-19T08:46:52.000Z</time>
      </trkpt>
      <trkpt lat="44.45337" lon="4.06846">
        <ele>612.59997558594</ele>
        <time>2012-05-19T08:46:56.000Z</time>
      </trkpt>
      <trkpt lat="44.45328" lon="4.06852">
        <ele>611</ele>
        <time>2012-05-19T08:46:58.000Z</time>
      </trkpt>
      <trkpt lat="44.45316" lon="4.06866">
        <ele>608.40002441406</ele>
        <time>2012-05-19T08:47:01.000Z</time>
      </trkpt>
      <trkpt lat="44.45309" lon="4.06874">
        <ele>607.20001220703</ele>
        <time>2012-05-19T08:47:03.000Z</time>
      </trkpt>
      <trkpt lat="44.45303" lon="4.06882">
        <ele>606.20001220703</ele>
        <time>2012-05-19T08:47:05.000Z</time>
      </trkpt>
      <trkpt lat="44.45294" lon="4.06897">
        <ele>604.79998779297</ele>
        <time>2012-05-19T08:47:09.000Z</time>
      </trkpt>
      <trkpt lat="44.45293" lon="4.069">
        <ele>604.79998779297</ele>
        <time>2012-05-19T08:47:10.000Z</time>
      </trkpt>
      <trkpt lat="44.45292" lon="4.06901">
        <ele>604.79998779297</ele>
        <time>2012-05-19T08:47:13.000Z</time>
      </trkpt>
      <trkpt lat="44.4529" lon="4.06907">
        <ele>604.59997558594</ele>
        <time>2012-05-19T08:47:16.000Z</time>
      </trkpt>
      <trkpt lat="44.45287" lon="4.06914">
        <ele>604.59997558594</ele>
        <time>2012-05-19T08:47:18.000Z</time>
      </trkpt>
      <trkpt lat="44.45283" lon="4.06921">
        <ele>603</ele>
        <time>2012-05-19T08:47:22.000Z</time>
      </trkpt>
      <trkpt lat="44.45271" lon="4.06914">
        <ele>600.20001220703</ele>
        <time>2012-05-19T08:47:26.000Z</time>
      </trkpt>
      <trkpt lat="44.4526" lon="4.06901">
        <ele>596.20001220703</ele>
        <time>2012-05-19T08:47:30.000Z</time>
      </trkpt>
      <trkpt lat="44.45255" lon="4.06892">
        <ele>594</ele>
        <time>2012-05-19T08:47:34.000Z</time>
      </trkpt>
      <trkpt lat="44.45255" lon="4.06889">
        <ele>593.59997558594</ele>
        <time>2012-05-19T08:47:36.000Z</time>
      </trkpt>
      <trkpt lat="44.45254" lon="4.06888">
        <ele>593.20001220703</ele>
        <time>2012-05-19T08:47:39.000Z</time>
      </trkpt>
      <trkpt lat="44.45255" lon="4.06883">
        <ele>593.20001220703</ele>
        <time>2012-05-19T08:48:22.000Z</time>
      </trkpt>
      <trkpt lat="44.45251" lon="4.06872">
        <ele>591</ele>
        <time>2012-05-19T08:49:05.000Z</time>
      </trkpt>
      <trkpt lat="44.4525" lon="4.06855">
        <ele>589</ele>
        <time>2012-05-19T08:49:11.000Z</time>
      </trkpt>
      <trkpt lat="44.45249" lon="4.0684">
        <ele>587.40002441406</ele>
        <time>2012-05-19T08:49:17.000Z</time>
      </trkpt>
      <trkpt lat="44.45245" lon="4.06843">
        <ele>586.20001220703</ele>
        <time>2012-05-19T08:49:20.000Z</time>
      </trkpt>
      <trkpt lat="44.45241" lon="4.0685">
        <ele>585.59997558594</ele>
        <time>2012-05-19T08:49:24.000Z</time>
      </trkpt>
      <trkpt lat="44.45232" lon="4.06863">
        <ele>583.79998779297</ele>
        <time>2012-05-19T08:49:29.000Z</time>
      </trkpt>
      <trkpt lat="44.45226" lon="4.06875">
        <ele>583.20001220703</ele>
        <time>2012-05-19T08:49:32.000Z</time>
      </trkpt>
      <trkpt lat="44.45224" lon="4.06883">
        <ele>583.20001220703</ele>
        <time>2012-05-19T08:49:34.000Z</time>
      </trkpt>
      <trkpt lat="44.45221" lon="4.06902">
        <ele>584</ele>
        <time>2012-05-19T08:49:39.000Z</time>
      </trkpt>
      <trkpt lat="44.45218" lon="4.06909">
        <ele>583.40002441406</ele>
        <time>2012-05-19T08:49:42.000Z</time>
      </trkpt>
      <trkpt lat="44.45214" lon="4.06911">
        <ele>582.40002441406</ele>
        <time>2012-05-19T08:49:43.000Z</time>
      </trkpt>
      <trkpt lat="44.45204" lon="4.06908">
        <ele>579</ele>
        <time>2012-05-19T08:49:47.000Z</time>
      </trkpt>
      <trkpt lat="44.452" lon="4.06901">
        <ele>576.79998779297</ele>
        <time>2012-05-19T08:49:51.000Z</time>
      </trkpt>
      <trkpt lat="44.45198" lon="4.06894">
        <ele>575.59997558594</ele>
        <time>2012-05-19T08:49:53.000Z</time>
      </trkpt>
      <trkpt lat="44.45197" lon="4.06885">
        <ele>574.20001220703</ele>
        <time>2012-05-19T08:49:56.000Z</time>
      </trkpt>
      <trkpt lat="44.45195" lon="4.06881">
        <ele>573.40002441406</ele>
        <time>2012-05-19T08:49:58.000Z</time>
      </trkpt>
      <trkpt lat="44.45192" lon="4.06882">
        <ele>572.59997558594</ele>
        <time>2012-05-19T08:50:00.000Z</time>
      </trkpt>
      <trkpt lat="44.45188" lon="4.06892">
        <ele>572</ele>
        <time>2012-05-19T08:50:05.000Z</time>
      </trkpt>
      <trkpt lat="44.45187" lon="4.06895">
        <ele>572</ele>
        <time>2012-05-19T08:50:07.000Z</time>
      </trkpt>
      <trkpt lat="44.45186" lon="4.06897">
        <ele>571.79998779297</ele>
        <time>2012-05-19T08:50:11.000Z</time>
      </trkpt>
      <trkpt lat="44.45183" lon="4.06911">
        <ele>572</ele>
        <time>2012-05-19T08:50:16.000Z</time>
      </trkpt>
      <trkpt lat="44.45183" lon="4.06929">
        <ele>571</ele>
        <time>2012-05-19T08:50:21.000Z</time>
      </trkpt>
      <trkpt lat="44.45181" lon="4.06932">
        <ele>570.20001220703</ele>
        <time>2012-05-19T08:50:22.000Z</time>
      </trkpt>
      <trkpt lat="44.45178" lon="4.06932">
        <ele>568.79998779297</ele>
        <time>2012-05-19T08:50:24.000Z</time>
      </trkpt>
      <trkpt lat="44.45173" lon="4.06927">
        <ele>567.79998779297</ele>
        <time>2012-05-19T08:50:26.000Z</time>
      </trkpt>
      <trkpt lat="44.45169" lon="4.0692">
        <ele>567.40002441406</ele>
        <time>2012-05-19T08:50:28.000Z</time>
      </trkpt>
      <trkpt lat="44.45165" lon="4.06891">
        <ele>564.20001220703</ele>
        <time>2012-05-19T08:50:33.000Z</time>
      </trkpt>
      <trkpt lat="44.45165" lon="4.0687">
        <ele>562.40002441406</ele>
        <time>2012-05-19T08:50:37.000Z</time>
      </trkpt>
      <trkpt lat="44.45164" lon="4.06868">
        <ele>562</ele>
        <time>2012-05-19T08:50:38.000Z</time>
      </trkpt>
      <trkpt lat="44.45163" lon="4.06869">
        <ele>561.59997558594</ele>
        <time>2012-05-19T08:50:40.000Z</time>
      </trkpt>
      <trkpt lat="44.45161" lon="4.06878">
        <ele>561.40002441406</ele>
        <time>2012-05-19T08:50:43.000Z</time>
      </trkpt>
      <trkpt lat="44.45159" lon="4.06882">
        <ele>561.40002441406</ele>
        <time>2012-05-19T08:50:44.000Z</time>
      </trkpt>
      <trkpt lat="44.4515" lon="4.06902">
        <ele>559.79998779297</ele>
        <time>2012-05-19T08:50:49.000Z</time>
      </trkpt>
      <trkpt lat="44.45144" lon="4.06923">
        <ele>558.79998779297</ele>
        <time>2012-05-19T08:50:53.000Z</time>
      </trkpt>
      <trkpt lat="44.45141" lon="4.06936">
        <ele>556.79998779297</ele>
        <time>2012-05-19T08:50:57.000Z</time>
      </trkpt>
      <trkpt lat="44.45131" lon="4.06941">
        <ele>553.20001220703</ele>
        <time>2012-05-19T08:51:01.000Z</time>
      </trkpt>
      <trkpt lat="44.45125" lon="4.06931">
        <ele>552</ele>
        <time>2012-05-19T08:51:04.000Z</time>
      </trkpt>
      <trkpt lat="44.45124" lon="4.06926">
        <ele>551.79998779297</ele>
        <time>2012-05-19T08:51:05.000Z</time>
      </trkpt>
      <trkpt lat="44.45119" lon="4.06897">
        <ele>548.40002441406</ele>
        <time>2012-05-19T08:51:10.000Z</time>
      </trkpt>
      <trkpt lat="44.4512" lon="4.06877">
        <ele>546</ele>
        <time>2012-05-19T08:51:13.000Z</time>
      </trkpt>
      <trkpt lat="44.45121" lon="4.06872">
        <ele>545.59997558594</ele>
        <time>2012-05-19T08:51:14.000Z</time>
      </trkpt>
      <trkpt lat="44.45121" lon="4.06869">
        <ele>545</ele>
        <time>2012-05-19T08:51:15.000Z</time>
      </trkpt>
      <trkpt lat="44.45118" lon="4.06866">
        <ele>543.79998779297</ele>
        <time>2012-05-19T08:51:17.000Z</time>
      </trkpt>
      <trkpt lat="44.45117" lon="4.06868">
        <ele>543.20001220703</ele>
        <time>2012-05-19T08:51:19.000Z</time>
      </trkpt>
      <trkpt lat="44.45112" lon="4.06873">
        <ele>542.40002441406</ele>
        <time>2012-05-19T08:51:22.000Z</time>
      </trkpt>
      <trkpt lat="44.45101" lon="4.06888">
        <ele>540.59997558594</ele>
        <time>2012-05-19T08:51:25.000Z</time>
      </trkpt>
      <trkpt lat="44.4509" lon="4.06908">
        <ele>539.79998779297</ele>
        <time>2012-05-19T08:51:28.000Z</time>
      </trkpt>
      <trkpt lat="44.45086" lon="4.06915">
        <ele>539.59997558594</ele>
        <time>2012-05-19T08:51:29.000Z</time>
      </trkpt>
      <trkpt lat="44.45081" lon="4.06922">
        <ele>537.79998779297</ele>
        <time>2012-05-19T08:51:30.000Z</time>
      </trkpt>
      <trkpt lat="44.45072" lon="4.06935">
        <ele>534.79998779297</ele>
        <time>2012-05-19T08:51:32.000Z</time>
      </trkpt>
      <trkpt lat="44.45066" lon="4.06954">
        <ele>533</ele>
        <time>2012-05-19T08:51:35.000Z</time>
      </trkpt>
      <trkpt lat="44.45065" lon="4.06959">
        <ele>532.59997558594</ele>
        <time>2012-05-19T08:51:36.000Z</time>
      </trkpt>
      <trkpt lat="44.45062" lon="4.0697">
        <ele>532</ele>
        <time>2012-05-19T08:51:38.000Z</time>
      </trkpt>
      <trkpt lat="44.45062" lon="4.06982">
        <ele>532.20001220703</ele>
        <time>2012-05-19T08:51:40.000Z</time>
      </trkpt>
      <trkpt lat="44.45063" lon="4.06991">
        <ele>532.79998779297</ele>
        <time>2012-05-19T08:51:42.000Z</time>
      </trkpt>
      <trkpt lat="44.45065" lon="4.06997">
        <ele>533.20001220703</ele>
        <time>2012-05-19T08:51:44.000Z</time>
      </trkpt>
      <trkpt lat="44.45062" lon="4.07">
        <ele>532.59997558594</ele>
        <time>2012-05-19T08:51:45.000Z</time>
      </trkpt>
      <trkpt lat="44.45047" lon="4.07005">
        <ele>528</ele>
        <time>2012-05-19T08:51:48.000Z</time>
      </trkpt>
      <trkpt lat="44.45042" lon="4.07004">
        <ele>527</ele>
        <time>2012-05-19T08:51:49.000Z</time>
      </trkpt>
      <trkpt lat="44.4502" lon="4.06998">
        <ele>521.79998779297</ele>
        <time>2012-05-19T08:51:53.000Z</time>
      </trkpt>
      <trkpt lat="44.45016" lon="4.06996">
        <ele>520.59997558594</ele>
        <time>2012-05-19T08:51:54.000Z</time>
      </trkpt>
      <trkpt lat="44.45008" lon="4.06983">
        <ele>517.40002441406</ele>
        <time>2012-05-19T08:51:57.000Z</time>
      </trkpt>
      <trkpt lat="44.45005" lon="4.06967">
        <ele>514.59997558594</ele>
        <time>2012-05-19T08:52:00.000Z</time>
      </trkpt>
      <trkpt lat="44.45009" lon="4.06945">
        <ele>513.40002441406</ele>
        <time>2012-05-19T08:52:04.000Z</time>
      </trkpt>
      <trkpt lat="44.45009" lon="4.0694">
        <ele>512.79998779297</ele>
        <time>2012-05-19T08:52:05.000Z</time>
      </trkpt>
      <trkpt lat="44.4501" lon="4.0693">
        <ele>512.20001220703</ele>
        <time>2012-05-19T08:52:07.000Z</time>
      </trkpt>
      <trkpt lat="44.45011" lon="4.06927">
        <ele>512.20001220703</ele>
        <time>2012-05-19T08:52:08.000Z</time>
      </trkpt>
      <trkpt lat="44.45011" lon="4.06924">
        <ele>511.79998779297</ele>
        <time>2012-05-19T08:52:09.000Z</time>
      </trkpt>
      <trkpt lat="44.45008" lon="4.06924">
        <ele>510.79998779297</ele>
        <time>2012-05-19T08:52:11.000Z</time>
      </trkpt>
      <trkpt lat="44.44996" lon="4.06934">
        <ele>507.60000610352</ele>
        <time>2012-05-19T08:52:15.000Z</time>
      </trkpt>
      <trkpt lat="44.44981" lon="4.06946">
        <ele>503.60000610352</ele>
        <time>2012-05-19T08:52:19.000Z</time>
      </trkpt>
      <trkpt lat="44.44968" lon="4.06956">
        <ele>499.60000610352</ele>
        <time>2012-05-19T08:52:23.000Z</time>
      </trkpt>
      <trkpt lat="44.44965" lon="4.06957">
        <ele>498.79998779297</ele>
        <time>2012-05-19T08:52:24.000Z</time>
      </trkpt>
      <trkpt lat="44.44949" lon="4.06971">
        <ele>494.60000610352</ele>
        <time>2012-05-19T08:52:29.000Z</time>
      </trkpt>
      <trkpt lat="44.44945" lon="4.06984">
        <ele>495</ele>
        <time>2012-05-19T08:52:33.000Z</time>
      </trkpt>
      <trkpt lat="44.44944" lon="4.07">
        <ele>496.79998779297</ele>
        <time>2012-05-19T08:52:37.000Z</time>
      </trkpt>
      <trkpt lat="44.44937" lon="4.07022">
        <ele>493.79998779297</ele>
        <time>2012-05-19T08:52:42.000Z</time>
      </trkpt>
      <trkpt lat="44.44931" lon="4.07045">
        <ele>491</ele>
        <time>2012-05-19T08:52:46.000Z</time>
      </trkpt>
      <trkpt lat="44.44924" lon="4.07071">
        <ele>488.79998779297</ele>
        <time>2012-05-19T08:52:51.000Z</time>
      </trkpt>
      <trkpt lat="44.44921" lon="4.07079">
        <ele>488</ele>
        <time>2012-05-19T08:52:52.000Z</time>
      </trkpt>
      <trkpt lat="44.44919" lon="4.07089">
        <ele>486.79998779297</ele>
        <time>2012-05-19T08:52:54.000Z</time>
      </trkpt>
      <trkpt lat="44.44918" lon="4.07098">
        <ele>485.60000610352</ele>
        <time>2012-05-19T08:52:56.000Z</time>
      </trkpt>
      <trkpt lat="44.44916" lon="4.07115">
        <ele>483.39999389648</ele>
        <time>2012-05-19T08:53:00.000Z</time>
      </trkpt>
      <trkpt lat="44.44916" lon="4.07119">
        <ele>482.79998779297</ele>
        <time>2012-05-19T08:53:01.000Z</time>
      </trkpt>
      <trkpt lat="44.44913" lon="4.07129">
        <ele>480.60000610352</ele>
        <time>2012-05-19T08:53:05.000Z</time>
      </trkpt>
      <trkpt lat="44.44912" lon="4.0713">
        <ele>480.20001220703</ele>
        <time>2012-05-19T08:53:06.000Z</time>
      </trkpt>
      <trkpt lat="44.44907" lon="4.07143">
        <ele>477.20001220703</ele>
        <time>2012-05-19T08:53:38.000Z</time>
      </trkpt>
      <trkpt lat="44.44907" lon="4.07154">
        <ele>476.39999389648</ele>
        <time>2012-05-19T08:53:52.000Z</time>
      </trkpt>
      <trkpt lat="44.44911" lon="4.07171">
        <ele>475.39999389648</ele>
        <time>2012-05-19T08:53:57.000Z</time>
      </trkpt>
      <trkpt lat="44.44912" lon="4.07179">
        <ele>474.20001220703</ele>
        <time>2012-05-19T08:53:59.000Z</time>
      </trkpt>
      <trkpt lat="44.44912" lon="4.07187">
        <ele>472.79998779297</ele>
        <time>2012-05-19T08:54:01.000Z</time>
      </trkpt>
      <trkpt lat="44.44913" lon="4.07202">
        <ele>469.79998779297</ele>
        <time>2012-05-19T08:54:05.000Z</time>
      </trkpt>
      <trkpt lat="44.44913" lon="4.07217">
        <ele>467</ele>
        <time>2012-05-19T08:54:09.000Z</time>
      </trkpt>
      <trkpt lat="44.44913" lon="4.07219">
        <ele>466.60000610352</ele>
        <time>2012-05-19T08:54:10.000Z</time>
      </trkpt>
      <trkpt lat="44.44905" lon="4.07235">
        <ele>462.39999389648</ele>
        <time>2012-05-19T08:54:14.000Z</time>
      </trkpt>
      <trkpt lat="44.44904" lon="4.07239">
        <ele>461.60000610352</ele>
        <time>2012-05-19T08:54:15.000Z</time>
      </trkpt>
      <trkpt lat="44.44898" lon="4.07253">
        <ele>458.20001220703</ele>
        <time>2012-05-19T08:54:18.000Z</time>
      </trkpt>
      <trkpt lat="44.44889" lon="4.07281">
        <ele>451.79998779297</ele>
        <time>2012-05-19T08:54:22.000Z</time>
      </trkpt>
      <trkpt lat="44.44887" lon="4.07288">
        <ele>450.20001220703</ele>
        <time>2012-05-19T08:54:23.000Z</time>
      </trkpt>
      <trkpt lat="44.44884" lon="4.07295">
        <ele>448.79998779297</ele>
        <time>2012-05-19T08:54:24.000Z</time>
      </trkpt>
      <trkpt lat="44.44878" lon="4.07301">
        <ele>447.20001220703</ele>
        <time>2012-05-19T08:54:26.000Z</time>
      </trkpt>
      <trkpt lat="44.44874" lon="4.073">
        <ele>447</ele>
        <time>2012-05-19T08:54:29.000Z</time>
      </trkpt>
      <trkpt lat="44.44869" lon="4.07306">
        <ele>445.39999389648</ele>
        <time>2012-05-19T08:54:33.000Z</time>
      </trkpt>
      <trkpt lat="44.44866" lon="4.07318">
        <ele>443.20001220703</ele>
        <time>2012-05-19T08:54:37.000Z</time>
      </trkpt>
      <trkpt lat="44.44862" lon="4.07336">
        <ele>440</ele>
        <time>2012-05-19T08:54:41.000Z</time>
      </trkpt>
      <trkpt lat="44.44862" lon="4.07344">
        <ele>438.39999389648</ele>
        <time>2012-05-19T08:54:43.000Z</time>
      </trkpt>
      <trkpt lat="44.44863" lon="4.07353">
        <ele>436.60000610352</ele>
        <time>2012-05-19T08:54:46.000Z</time>
      </trkpt>
      <trkpt lat="44.44869" lon="4.07352">
        <ele>437</ele>
        <time>2012-05-19T08:54:50.000Z</time>
      </trkpt>
      <trkpt lat="44.44878" lon="4.07347">
        <ele>438.39999389648</ele>
        <time>2012-05-19T08:54:55.000Z</time>
      </trkpt>
      <trkpt lat="44.44885" lon="4.07342">
        <ele>439.60000610352</ele>
        <time>2012-05-19T08:55:00.000Z</time>
      </trkpt>
      <trkpt lat="44.44887" lon="4.07344">
        <ele>439.20001220703</ele>
        <time>2012-05-19T08:55:05.000Z</time>
      </trkpt>
      <trkpt lat="44.44887" lon="4.07347">
        <ele>438.39999389648</ele>
        <time>2012-05-19T08:55:12.000Z</time>
      </trkpt>
      <trkpt lat="44.44881" lon="4.07359">
        <ele>435.79998779297</ele>
        <time>2012-05-19T08:55:22.000Z</time>
      </trkpt>
      <trkpt lat="44.44879" lon="4.07365">
        <ele>434.20001220703</ele>
        <time>2012-05-19T08:55:25.000Z</time>
      </trkpt>
      <trkpt lat="44.44876" lon="4.07372">
        <ele>432.79998779297</ele>
        <time>2012-05-19T08:55:28.000Z</time>
      </trkpt>
      <trkpt lat="44.44876" lon="4.07371">
        <ele>433.20001220703</ele>
        <time>2012-05-19T08:55:30.000Z</time>
      </trkpt>
      <trkpt lat="44.44876" lon="4.0737">
        <ele>433.20001220703</ele>
        <time>2012-05-19T08:55:33.000Z</time>
      </trkpt>
      <trkpt lat="44.44876" lon="4.07369">
        <ele>433.39999389648</ele>
        <time>2012-05-19T08:55:42.000Z</time>
      </trkpt>
      <trkpt lat="44.44875" lon="4.07369">
        <ele>433.60000610352</ele>
        <time>2012-05-19T08:56:00.000Z</time>
      </trkpt>
      <trkpt lat="44.44877" lon="4.07377">
        <ele>431.79998779297</ele>
        <time>2012-05-19T08:58:37.000Z</time>
      </trkpt>
      <trkpt lat="44.44877" lon="4.07377">
        <ele>431.79998779297</ele>
        <time>2012-05-19T08:58:44.000Z</time>
      </trkpt>
      <trkpt lat="44.44878" lon="4.07374">
        <ele>432.39999389648</ele>
        <time>2012-05-19T08:58:51.000Z</time>
      </trkpt>
      <trkpt lat="44.44878" lon="4.07371">
        <ele>433</ele>
        <time>2012-05-19T08:58:55.000Z</time>
      </trkpt>
      <trkpt lat="44.44876" lon="4.07376">
        <ele>432</ele>
        <time>2012-05-19T08:59:22.000Z</time>
      </trkpt>
      <trkpt lat="44.44875" lon="4.07377">
        <ele>431.79998779297</ele>
        <time>2012-05-19T08:59:23.000Z</time>
      </trkpt>
      <trkpt lat="44.44875" lon="4.07377">
        <ele>431.79998779297</ele>
        <time>2012-05-19T08:59:26.000Z</time>
      </trkpt>
      <trkpt lat="44.44874" lon="4.07382">
        <ele>430.79998779297</ele>
        <time>2012-05-19T08:59:29.000Z</time>
      </trkpt>
      <trkpt lat="44.44872" lon="4.07385">
        <ele>430.20001220703</ele>
        <time>2012-05-19T08:59:30.000Z</time>
      </trkpt>
      <trkpt lat="44.4486" lon="4.07403">
        <ele>427.20001220703</ele>
        <time>2012-05-19T08:59:34.000Z</time>
      </trkpt>
      <trkpt lat="44.44854" lon="4.07413">
        <ele>425.79998779297</ele>
        <time>2012-05-19T08:59:37.000Z</time>
      </trkpt>
      <trkpt lat="44.44854" lon="4.07414">
        <ele>425.79998779297</ele>
        <time>2012-05-19T08:59:38.000Z</time>
      </trkpt>
      <trkpt lat="44.44859" lon="4.07416">
        <ele>425</ele>
        <time>2012-05-19T08:59:45.000Z</time>
      </trkpt>
      <trkpt lat="44.44869" lon="4.07408">
        <ele>425.60000610352</ele>
        <time>2012-05-19T08:59:50.000Z</time>
      </trkpt>
      <trkpt lat="44.44885" lon="4.07394">
        <ele>427.79998779297</ele>
        <time>2012-05-19T08:59:55.000Z</time>
      </trkpt>
      <trkpt lat="44.44894" lon="4.07387">
        <ele>429</ele>
        <time>2012-05-19T08:59:57.000Z</time>
      </trkpt>
      <trkpt lat="44.44904" lon="4.0738">
        <ele>430.39999389648</ele>
        <time>2012-05-19T09:00:00.000Z</time>
      </trkpt>
      <trkpt lat="44.44905" lon="4.07381">
        <ele>430</ele>
        <time>2012-05-19T09:00:01.000Z</time>
      </trkpt>
      <trkpt lat="44.44905" lon="4.07387">
        <ele>428.60000610352</ele>
        <time>2012-05-19T09:00:04.000Z</time>
      </trkpt>
      <trkpt lat="44.44901" lon="4.07399">
        <ele>425.79998779297</ele>
        <time>2012-05-19T09:00:07.000Z</time>
      </trkpt>
      <trkpt lat="44.44886" lon="4.07421">
        <ele>421.79998779297</ele>
        <time>2012-05-19T09:00:11.000Z</time>
      </trkpt>
      <trkpt lat="44.4488" lon="4.07431">
        <ele>420.20001220703</ele>
        <time>2012-05-19T09:00:13.000Z</time>
      </trkpt>
      <trkpt lat="44.4487" lon="4.07449">
        <ele>417.60000610352</ele>
        <time>2012-05-19T09:00:16.000Z</time>
      </trkpt>
      <trkpt lat="44.44869" lon="4.07452">
        <ele>417.20001220703</ele>
        <time>2012-05-19T09:00:17.000Z</time>
      </trkpt>
      <trkpt lat="44.44862" lon="4.0746">
        <ele>416.39999389648</ele>
        <time>2012-05-19T09:00:20.000Z</time>
      </trkpt>
      <trkpt lat="44.44853" lon="4.07479">
        <ele>414</ele>
        <time>2012-05-19T09:00:25.000Z</time>
      </trkpt>
      <trkpt lat="44.44847" lon="4.07499">
        <ele>411.20001220703</ele>
        <time>2012-05-19T09:00:29.000Z</time>
      </trkpt>
      <trkpt lat="44.44845" lon="4.07508">
        <ele>409.39999389648</ele>
        <time>2012-05-19T09:00:31.000Z</time>
      </trkpt>
      <trkpt lat="44.44844" lon="4.07516">
        <ele>407.79998779297</ele>
        <time>2012-05-19T09:00:33.000Z</time>
      </trkpt>
      <trkpt lat="44.44847" lon="4.0753">
        <ele>404</ele>
        <time>2012-05-19T09:00:37.000Z</time>
      </trkpt>
      <trkpt lat="44.44846" lon="4.07551">
        <ele>399.20001220703</ele>
        <time>2012-05-19T09:00:41.000Z</time>
      </trkpt>
      <trkpt lat="44.4484" lon="4.07567">
        <ele>396.20001220703</ele>
        <time>2012-05-19T09:00:43.000Z</time>
      </trkpt>
      <trkpt lat="44.44833" lon="4.07581">
        <ele>393.60000610352</ele>
        <time>2012-05-19T09:00:45.000Z</time>
      </trkpt>
      <trkpt lat="44.44822" lon="4.07603">
        <ele>390.60000610352</ele>
        <time>2012-05-19T09:00:48.000Z</time>
      </trkpt>
      <trkpt lat="44.44816" lon="4.07615">
        <ele>389.20001220703</ele>
        <time>2012-05-19T09:00:50.000Z</time>
      </trkpt>
      <trkpt lat="44.44814" lon="4.07621">
        <ele>388.60000610352</ele>
        <time>2012-05-19T09:00:51.000Z</time>
      </trkpt>
      <trkpt lat="44.44805" lon="4.07638">
        <ele>387.20001220703</ele>
        <time>2012-05-19T09:00:54.000Z</time>
      </trkpt>
      <trkpt lat="44.44802" lon="4.07643">
        <ele>386.79998779297</ele>
        <time>2012-05-19T09:00:55.000Z</time>
      </trkpt>
      <trkpt lat="44.44794" lon="4.07658">
        <ele>386</ele>
        <time>2012-05-19T09:00:58.000Z</time>
      </trkpt>
      <trkpt lat="44.44788" lon="4.07668">
        <ele>385.39999389648</ele>
        <time>2012-05-19T09:01:00.000Z</time>
      </trkpt>
      <trkpt lat="44.44786" lon="4.07672">
        <ele>384.79998779297</ele>
        <time>2012-05-19T09:01:01.000Z</time>
      </trkpt>
      <trkpt lat="44.44775" lon="4.07684">
        <ele>384.39999389648</ele>
        <time>2012-05-19T09:01:05.000Z</time>
      </trkpt>
      <trkpt lat="44.44773" lon="4.07685">
        <ele>384.39999389648</ele>
        <time>2012-05-19T09:01:06.000Z</time>
      </trkpt>
      <trkpt lat="44.44765" lon="4.07689">
        <ele>385.39999389648</ele>
        <time>2012-05-19T09:01:13.000Z</time>
      </trkpt>
      <trkpt lat="44.4476" lon="4.07686">
        <ele>387.20001220703</ele>
        <time>2012-05-19T09:01:19.000Z</time>
      </trkpt>
      <trkpt lat="44.4476" lon="4.07686">
        <ele>387</ele>
        <time>2012-05-19T09:01:26.000Z</time>
      </trkpt>
      <trkpt lat="44.4476" lon="4.07684">
        <ele>387.60000610352</ele>
        <time>2012-05-19T09:01:39.000Z</time>
      </trkpt>
      <trkpt lat="44.4475" lon="4.07684">
        <ele>389.79998779297</ele>
        <time>2012-05-19T09:01:51.000Z</time>
      </trkpt>
      <trkpt lat="44.44742" lon="4.07678">
        <ele>389.39999389648</ele>
        <time>2012-05-19T09:01:56.000Z</time>
      </trkpt>
      <trkpt lat="44.44741" lon="4.07681">
        <ele>388.60000610352</ele>
        <time>2012-05-19T09:01:58.000Z</time>
      </trkpt>
      <trkpt lat="44.44744" lon="4.07685">
        <ele>388.20001220703</ele>
        <time>2012-05-19T09:02:02.000Z</time>
      </trkpt>
      <trkpt lat="44.44744" lon="4.07686">
        <ele>388.20001220703</ele>
        <time>2012-05-19T09:02:03.000Z</time>
      </trkpt>
      <trkpt lat="44.44745" lon="4.07688">
        <ele>387.79998779297</ele>
        <time>2012-05-19T09:02:25.000Z</time>
      </trkpt>
      <trkpt lat="44.44739" lon="4.0768">
        <ele>388.60000610352</ele>
        <time>2012-05-19T09:02:40.000Z</time>
      </trkpt>
      <trkpt lat="44.44725" lon="4.07663">
        <ele>389.20001220703</ele>
        <time>2012-05-19T09:02:45.000Z</time>
      </trkpt>
      <trkpt lat="44.44718" lon="4.07653">
        <ele>388.79998779297</ele>
        <time>2012-05-19T09:02:49.000Z</time>
      </trkpt>
      <trkpt lat="44.44717" lon="4.07653">
        <ele>388.60000610352</ele>
        <time>2012-05-19T09:02:50.000Z</time>
      </trkpt>
      <trkpt lat="44.44714" lon="4.07653">
        <ele>387.79998779297</ele>
        <time>2012-05-19T09:02:54.000Z</time>
      </trkpt>
      <trkpt lat="44.44713" lon="4.07654">
        <ele>387.60000610352</ele>
        <time>2012-05-19T09:03:32.000Z</time>
      </trkpt>
      <trkpt lat="44.44714" lon="4.07653">
        <ele>387.79998779297</ele>
        <time>2012-05-19T09:03:45.000Z</time>
      </trkpt>
      <trkpt lat="44.44715" lon="4.0765">
        <ele>388.39999389648</ele>
        <time>2012-05-19T09:03:50.000Z</time>
      </trkpt>
      <trkpt lat="44.44715" lon="4.07651">
        <ele>388.39999389648</ele>
        <time>2012-05-19T09:04:32.000Z</time>
      </trkpt>
      <trkpt lat="44.44705" lon="4.07648">
        <ele>386.79998779297</ele>
        <time>2012-05-19T09:04:43.000Z</time>
      </trkpt>
      <trkpt lat="44.4469" lon="4.07637">
        <ele>384.79998779297</ele>
        <time>2012-05-19T09:04:47.000Z</time>
      </trkpt>
      <trkpt lat="44.44673" lon="4.07625">
        <ele>382.79998779297</ele>
        <time>2012-05-19T09:04:50.000Z</time>
      </trkpt>
      <trkpt lat="44.44661" lon="4.07618">
        <ele>380.79998779297</ele>
        <time>2012-05-19T09:04:52.000Z</time>
      </trkpt>
      <trkpt lat="44.44644" lon="4.07603">
        <ele>376.60000610352</ele>
        <time>2012-05-19T09:04:55.000Z</time>
      </trkpt>
      <trkpt lat="44.44639" lon="4.07597">
        <ele>375.39999389648</ele>
        <time>2012-05-19T09:04:56.000Z</time>
      </trkpt>
      <trkpt lat="44.44628" lon="4.07584">
        <ele>373.20001220703</ele>
        <time>2012-05-19T09:04:59.000Z</time>
      </trkpt>
      <trkpt lat="44.44627" lon="4.07583">
        <ele>372.79998779297</ele>
        <time>2012-05-19T09:05:00.000Z</time>
      </trkpt>
      <trkpt lat="44.44625" lon="4.07586">
        <ele>371.60000610352</ele>
        <time>2012-05-19T09:05:02.000Z</time>
      </trkpt>
      <trkpt lat="44.44624" lon="4.07604">
        <ele>369.60000610352</ele>
        <time>2012-05-19T09:05:06.000Z</time>
      </trkpt>
      <trkpt lat="44.44632" lon="4.07624">
        <ele>370.60000610352</ele>
        <time>2012-05-19T09:05:10.000Z</time>
      </trkpt>
      <trkpt lat="44.44641" lon="4.07641">
        <ele>371.79998779297</ele>
        <time>2012-05-19T09:05:14.000Z</time>
      </trkpt>
      <trkpt lat="44.44648" lon="4.07654">
        <ele>372.39999389648</ele>
        <time>2012-05-19T09:05:17.000Z</time>
      </trkpt>
      <trkpt lat="44.44657" lon="4.0767">
        <ele>372.60000610352</ele>
        <time>2012-05-19T09:05:20.000Z</time>
      </trkpt>
      <trkpt lat="44.44673" lon="4.07694">
        <ele>370.60000610352</ele>
        <time>2012-05-19T09:05:24.000Z</time>
      </trkpt>
      <trkpt lat="44.44677" lon="4.077">
        <ele>370.20001220703</ele>
        <time>2012-05-19T09:05:25.000Z</time>
      </trkpt>
      <trkpt lat="44.44691" lon="4.07722">
        <ele>367.79998779297</ele>
        <time>2012-05-19T09:05:28.000Z</time>
      </trkpt>
      <trkpt lat="44.44695" lon="4.07731">
        <ele>366.60000610352</ele>
        <time>2012-05-19T09:05:29.000Z</time>
      </trkpt>
      <trkpt lat="44.44708" lon="4.07762">
        <ele>361.39999389648</ele>
        <time>2012-05-19T09:05:32.000Z</time>
      </trkpt>
      <trkpt lat="44.44717" lon="4.07782">
        <ele>357.20001220703</ele>
        <time>2012-05-19T09:05:34.000Z</time>
      </trkpt>
      <trkpt lat="44.44728" lon="4.07798">
        <ele>354</ele>
        <time>2012-05-19T09:05:36.000Z</time>
      </trkpt>
      <trkpt lat="44.44739" lon="4.07812">
        <ele>351.79998779297</ele>
        <time>2012-05-19T09:05:38.000Z</time>
      </trkpt>
      <trkpt lat="44.44747" lon="4.07821">
        <ele>350.39999389648</ele>
        <time>2012-05-19T09:05:40.000Z</time>
      </trkpt>
      <trkpt lat="44.44748" lon="4.07825">
        <ele>349.39999389648</ele>
        <time>2012-05-19T09:05:41.000Z</time>
      </trkpt>
      <trkpt lat="44.44752" lon="4.07825">
        <ele>349</ele>
        <time>2012-05-19T09:05:44.000Z</time>
      </trkpt>
      <trkpt lat="44.44755" lon="4.07828">
        <ele>347.60000610352</ele>
        <time>2012-05-19T09:05:49.000Z</time>
      </trkpt>
      <trkpt lat="44.44756" lon="4.07829">
        <ele>347</ele>
        <time>2012-05-19T09:05:51.000Z</time>
      </trkpt>
      <trkpt lat="44.44758" lon="4.07832">
        <ele>345.79998779297</ele>
        <time>2012-05-19T09:05:53.000Z</time>
      </trkpt>
      <trkpt lat="44.4477" lon="4.07842">
        <ele>340.20001220703</ele>
        <time>2012-05-19T09:05:58.000Z</time>
      </trkpt>
      <trkpt lat="44.44779" lon="4.07845">
        <ele>337.20001220703</ele>
        <time>2012-05-19T09:06:02.000Z</time>
      </trkpt>
      <trkpt lat="44.44782" lon="4.07844">
        <ele>337</ele>
        <time>2012-05-19T09:06:03.000Z</time>
      </trkpt>
      <trkpt lat="44.44786" lon="4.07845">
        <ele>335.60000610352</ele>
        <time>2012-05-19T09:06:05.000Z</time>
      </trkpt>
      <trkpt lat="44.44787" lon="4.0785">
        <ele>334.39999389648</ele>
        <time>2012-05-19T09:06:07.000Z</time>
      </trkpt>
      <trkpt lat="44.44779" lon="4.07855">
        <ele>334.39999389648</ele>
        <time>2012-05-19T09:06:10.000Z</time>
      </trkpt>
      <trkpt lat="44.44767" lon="4.07855">
        <ele>337</ele>
        <time>2012-05-19T09:06:13.000Z</time>
      </trkpt>
      <trkpt lat="44.44762" lon="4.07853">
        <ele>338.39999389648</ele>
        <time>2012-05-19T09:06:14.000Z</time>
      </trkpt>
      <trkpt lat="44.44741" lon="4.07849">
        <ele>340.39999389648</ele>
        <time>2012-05-19T09:06:19.000Z</time>
      </trkpt>
      <trkpt lat="44.4473" lon="4.07848">
        <ele>338.79998779297</ele>
        <time>2012-05-19T09:06:21.000Z</time>
      </trkpt>
      <trkpt lat="44.44718" lon="4.07844">
        <ele>338.20001220703</ele>
        <time>2012-05-19T09:06:23.000Z</time>
      </trkpt>
      <trkpt lat="44.44712" lon="4.07841">
        <ele>337.79998779297</ele>
        <time>2012-05-19T09:06:24.000Z</time>
      </trkpt>
      <trkpt lat="44.44701" lon="4.07836">
        <ele>337.60000610352</ele>
        <time>2012-05-19T09:06:26.000Z</time>
      </trkpt>
      <trkpt lat="44.44696" lon="4.0783">
        <ele>338.39999389648</ele>
        <time>2012-05-19T09:06:27.000Z</time>
      </trkpt>
      <trkpt lat="44.44686" lon="4.07823">
        <ele>338.60000610352</ele>
        <time>2012-05-19T09:06:29.000Z</time>
      </trkpt>
      <trkpt lat="44.44675" lon="4.07817">
        <ele>338.20001220703</ele>
        <time>2012-05-19T09:06:31.000Z</time>
      </trkpt>
      <trkpt lat="44.44664" lon="4.07818">
        <ele>336</ele>
        <time>2012-05-19T09:06:34.000Z</time>
      </trkpt>
      <trkpt lat="44.44664" lon="4.07822">
        <ele>334.79998779297</ele>
        <time>2012-05-19T09:06:35.000Z</time>
      </trkpt>
      <trkpt lat="44.44674" lon="4.07838">
        <ele>331.79998779297</ele>
        <time>2012-05-19T09:06:38.000Z</time>
      </trkpt>
      <trkpt lat="44.44682" lon="4.07853">
        <ele>329</ele>
        <time>2012-05-19T09:06:40.000Z</time>
      </trkpt>
      <trkpt lat="44.4469" lon="4.07864">
        <ele>327</ele>
        <time>2012-05-19T09:06:42.000Z</time>
      </trkpt>
      <trkpt lat="44.44707" lon="4.07881">
        <ele>324.60000610352</ele>
        <time>2012-05-19T09:06:46.000Z</time>
      </trkpt>
      <trkpt lat="44.44711" lon="4.07887">
        <ele>323.60000610352</ele>
        <time>2012-05-19T09:06:47.000Z</time>
      </trkpt>
      <trkpt lat="44.44715" lon="4.07894">
        <ele>322</ele>
        <time>2012-05-19T09:06:48.000Z</time>
      </trkpt>
      <trkpt lat="44.44727" lon="4.07917">
        <ele>317.20001220703</ele>
        <time>2012-05-19T09:06:51.000Z</time>
      </trkpt>
      <trkpt lat="44.44744" lon="4.07933">
        <ele>314.79998779297</ele>
        <time>2012-05-19T09:06:55.000Z</time>
      </trkpt>
      <trkpt lat="44.44762" lon="4.07938">
        <ele>312.79998779297</ele>
        <time>2012-05-19T09:06:58.000Z</time>
      </trkpt>
      <trkpt lat="44.44767" lon="4.07938">
        <ele>312</ele>
        <time>2012-05-19T09:06:59.000Z</time>
      </trkpt>
      <trkpt lat="44.44775" lon="4.07947">
        <ele>308.60000610352</ele>
        <time>2012-05-19T09:07:01.000Z</time>
      </trkpt>
      <trkpt lat="44.4478" lon="4.0795">
        <ele>307</ele>
        <time>2012-05-19T09:07:02.000Z</time>
      </trkpt>
      <trkpt lat="44.448" lon="4.07961">
        <ele>302</ele>
        <time>2012-05-19T09:07:05.000Z</time>
      </trkpt>
      <trkpt lat="44.44806" lon="4.07965">
        <ele>300.39999389648</ele>
        <time>2012-05-19T09:07:06.000Z</time>
      </trkpt>
      <trkpt lat="44.44821" lon="4.07974">
        <ele>296.60000610352</ele>
        <time>2012-05-19T09:07:09.000Z</time>
      </trkpt>
      <trkpt lat="44.44825" lon="4.07976">
        <ele>296</ele>
        <time>2012-05-19T09:07:10.000Z</time>
      </trkpt>
      <trkpt lat="44.44827" lon="4.07977">
        <ele>295.60000610352</ele>
        <time>2012-05-19T09:07:11.000Z</time>
      </trkpt>
      <trkpt lat="44.44825" lon="4.07983">
        <ele>294.39999389648</ele>
        <time>2012-05-19T09:07:13.000Z</time>
      </trkpt>
      <trkpt lat="44.44816" lon="4.07991">
        <ele>293.20001220703</ele>
        <time>2012-05-19T09:07:15.000Z</time>
      </trkpt>
      <trkpt lat="44.44811" lon="4.07991">
        <ele>293.60000610352</ele>
        <time>2012-05-19T09:07:16.000Z</time>
      </trkpt>
      <trkpt lat="44.44798" lon="4.07985">
        <ele>295.79998779297</ele>
        <time>2012-05-19T09:07:19.000Z</time>
      </trkpt>
      <trkpt lat="44.44776" lon="4.07978">
        <ele>299.60000610352</ele>
        <time>2012-05-19T09:07:23.000Z</time>
      </trkpt>
      <trkpt lat="44.4477" lon="4.07977">
        <ele>300.60000610352</ele>
        <time>2012-05-19T09:07:25.000Z</time>
      </trkpt>
      <trkpt lat="44.44771" lon="4.07979">
        <ele>299.79998779297</ele>
        <time>2012-05-19T09:07:26.000Z</time>
      </trkpt>
      <trkpt lat="44.4478" lon="4.07987">
        <ele>296.79998779297</ele>
        <time>2012-05-19T09:07:29.000Z</time>
      </trkpt>
      <trkpt lat="44.44784" lon="4.07992">
        <ele>295</ele>
        <time>2012-05-19T09:07:30.000Z</time>
      </trkpt>
      <trkpt lat="44.44792" lon="4.08003">
        <ele>291.60000610352</ele>
        <time>2012-05-19T09:07:32.000Z</time>
      </trkpt>
      <trkpt lat="44.44796" lon="4.08008">
        <ele>289.60000610352</ele>
        <time>2012-05-19T09:07:33.000Z</time>
      </trkpt>
      <trkpt lat="44.44811" lon="4.08033">
        <ele>282</ele>
        <time>2012-05-19T09:07:37.000Z</time>
      </trkpt>
      <trkpt lat="44.44813" lon="4.0804">
        <ele>280</ele>
        <time>2012-05-19T09:07:38.000Z</time>
      </trkpt>
      <trkpt lat="44.4482" lon="4.08066">
        <ele>273</ele>
        <time>2012-05-19T09:07:42.000Z</time>
      </trkpt>
      <trkpt lat="44.44821" lon="4.08069">
        <ele>272</ele>
        <time>2012-05-19T09:07:43.000Z</time>
      </trkpt>
      <trkpt lat="44.4482" lon="4.08071">
        <ele>271.60000610352</ele>
        <time>2012-05-19T09:07:44.000Z</time>
      </trkpt>
      <trkpt lat="44.44817" lon="4.08071">
        <ele>271.39999389648</ele>
        <time>2012-05-19T09:07:46.000Z</time>
      </trkpt>
      <trkpt lat="44.44808" lon="4.08059">
        <ele>274.60000610352</ele>
        <time>2012-05-19T09:07:50.000Z</time>
      </trkpt>
      <trkpt lat="44.44797" lon="4.08045">
        <ele>278.60000610352</ele>
        <time>2012-05-19T09:07:54.000Z</time>
      </trkpt>
      <trkpt lat="44.44782" lon="4.08029">
        <ele>283.79998779297</ele>
        <time>2012-05-19T09:07:59.000Z</time>
      </trkpt>
      <trkpt lat="44.44762" lon="4.08018">
        <ele>288</ele>
        <time>2012-05-19T09:08:04.000Z</time>
      </trkpt>
      <trkpt lat="44.44745" lon="4.08026">
        <ele>284.20001220703</ele>
        <time>2012-05-19T09:08:08.000Z</time>
      </trkpt>
      <trkpt lat="44.44731" lon="4.08043">
        <ele>275.79998779297</ele>
        <time>2012-05-19T09:08:12.000Z</time>
      </trkpt>
      <trkpt lat="44.44727" lon="4.08044">
        <ele>274.79998779297</ele>
        <time>2012-05-19T09:08:13.000Z</time>
      </trkpt>
      <trkpt lat="44.44708" lon="4.08044">
        <ele>271.60000610352</ele>
        <time>2012-05-19T09:08:17.000Z</time>
      </trkpt>
      <trkpt lat="44.44703" lon="4.08042">
        <ele>271.39999389648</ele>
        <time>2012-05-19T09:08:18.000Z</time>
      </trkpt>
      <trkpt lat="44.44699" lon="4.0804">
        <ele>271.60000610352</ele>
        <time>2012-05-19T09:08:19.000Z</time>
      </trkpt>
      <trkpt lat="44.44681" lon="4.08031">
        <ele>271</ele>
        <time>2012-05-19T09:08:23.000Z</time>
      </trkpt>
      <trkpt lat="44.44677" lon="4.08028">
        <ele>270.79998779297</ele>
        <time>2012-05-19T09:08:24.000Z</time>
      </trkpt>
      <trkpt lat="44.44673" lon="4.08026">
        <ele>270.60000610352</ele>
        <time>2012-05-19T09:08:25.000Z</time>
      </trkpt>
      <trkpt lat="44.44667" lon="4.08024">
        <ele>270</ele>
        <time>2012-05-19T09:08:27.000Z</time>
      </trkpt>
      <trkpt lat="44.44671" lon="4.08026">
        <ele>270.20001220703</ele>
        <time>2012-05-19T09:08:29.000Z</time>
      </trkpt>
      <trkpt lat="44.44674" lon="4.08032">
        <ele>269.20001220703</ele>
        <time>2012-05-19T09:08:30.000Z</time>
      </trkpt>
      <trkpt lat="44.44687" lon="4.0805">
        <ele>266.60000610352</ele>
        <time>2012-05-19T09:08:34.000Z</time>
      </trkpt>
      <trkpt lat="44.44692" lon="4.08053">
        <ele>266.39999389648</ele>
        <time>2012-05-19T09:08:35.000Z</time>
      </trkpt>
      <trkpt lat="44.44696" lon="4.08058">
        <ele>265.39999389648</ele>
        <time>2012-05-19T09:08:36.000Z</time>
      </trkpt>
      <trkpt lat="44.44705" lon="4.08065">
        <ele>264.79998779297</ele>
        <time>2012-05-19T09:08:38.000Z</time>
      </trkpt>
      <trkpt lat="44.44713" lon="4.08075">
        <ele>262.60000610352</ele>
        <time>2012-05-19T09:08:41.000Z</time>
      </trkpt>
      <trkpt lat="44.44714" lon="4.08087">
        <ele>261</ele>
        <time>2012-05-19T09:08:45.000Z</time>
      </trkpt>
      <trkpt lat="44.44712" lon="4.08092">
        <ele>262</ele>
        <time>2012-05-19T09:09:07.000Z</time>
      </trkpt>
      <trkpt lat="44.44713" lon="4.08088">
        <ele>261</ele>
        <time>2012-05-19T09:09:38.000Z</time>
      </trkpt>
      <trkpt lat="44.44712" lon="4.0809">
        <ele>261.20001220703</ele>
        <time>2012-05-19T09:09:49.000Z</time>
      </trkpt>
      <trkpt lat="44.44709" lon="4.08086">
        <ele>260.20001220703</ele>
        <time>2012-05-19T09:10:19.000Z</time>
      </trkpt>
      <trkpt lat="44.44709" lon="4.08085">
        <ele>260</ele>
        <time>2012-05-19T09:10:30.000Z</time>
      </trkpt>
      <trkpt lat="44.44709" lon="4.08086">
        <ele>260.20001220703</ele>
        <time>2012-05-19T09:10:33.000Z</time>
      </trkpt>
      <trkpt lat="44.44713" lon="4.08096">
        <ele>262.79998779297</ele>
        <time>2012-05-19T09:12:17.000Z</time>
      </trkpt>
      <trkpt lat="44.44712" lon="4.08094">
        <ele>262.20001220703</ele>
        <time>2012-05-19T09:12:26.000Z</time>
      </trkpt>
      <trkpt lat="44.44709" lon="4.08099">
        <ele>263</ele>
        <time>2012-05-19T09:12:37.000Z</time>
      </trkpt>
      <trkpt lat="44.44703" lon="4.08101">
        <ele>263</ele>
        <time>2012-05-19T09:12:44.000Z</time>
      </trkpt>
      <trkpt lat="44.44696" lon="4.08103">
        <ele>263</ele>
        <time>2012-05-19T09:12:51.000Z</time>
      </trkpt>
      <trkpt lat="44.4469" lon="4.08103">
        <ele>262.60000610352</ele>
        <time>2012-05-19T09:12:57.000Z</time>
      </trkpt>
      <trkpt lat="44.44689" lon="4.08103">
        <ele>262.39999389648</ele>
        <time>2012-05-19T09:12:58.000Z</time>
      </trkpt>
      <trkpt lat="44.44686" lon="4.08104">
        <ele>262.39999389648</ele>
        <time>2012-05-19T09:13:03.000Z</time>
      </trkpt>
      <trkpt lat="44.44679" lon="4.08108">
        <ele>263.20001220703</ele>
        <time>2012-05-19T09:13:12.000Z</time>
      </trkpt>
      <trkpt lat="44.44673" lon="4.08108">
        <ele>262.79998779297</ele>
        <time>2012-05-19T09:13:18.000Z</time>
      </trkpt>
      <trkpt lat="44.44665" lon="4.08109">
        <ele>262.79998779297</ele>
        <time>2012-05-19T09:13:27.000Z</time>
      </trkpt>
      <trkpt lat="44.4466" lon="4.08111">
        <ele>263.39999389648</ele>
        <time>2012-05-19T09:13:33.000Z</time>
      </trkpt>
      <trkpt lat="44.4466" lon="4.08112">
        <ele>263.60000610352</ele>
        <time>2012-05-19T09:13:34.000Z</time>
      </trkpt>
      <trkpt lat="44.44664" lon="4.08114">
        <ele>264.20001220703</ele>
        <time>2012-05-19T09:13:39.000Z</time>
      </trkpt>
      <trkpt lat="44.4467" lon="4.08119">
        <ele>265.79998779297</ele>
        <time>2012-05-19T09:13:47.000Z</time>
      </trkpt>
      <trkpt lat="44.44673" lon="4.08121">
        <ele>266.60000610352</ele>
        <time>2012-05-19T09:13:51.000Z</time>
      </trkpt>
      <trkpt lat="44.44674" lon="4.08121">
        <ele>266.79998779297</ele>
        <time>2012-05-19T09:13:53.000Z</time>
      </trkpt>
      <trkpt lat="44.44678" lon="4.08123">
        <ele>267.39999389648</ele>
        <time>2012-05-19T09:13:58.000Z</time>
      </trkpt>
      <trkpt lat="44.44684" lon="4.08124">
        <ele>267.79998779297</ele>
        <time>2012-05-19T09:14:05.000Z</time>
      </trkpt>
      <trkpt lat="44.44689" lon="4.08125">
        <ele>268.39999389648</ele>
        <time>2012-05-19T09:14:10.000Z</time>
      </trkpt>
      <trkpt lat="44.44692" lon="4.08126">
        <ele>268.79998779297</ele>
        <time>2012-05-19T09:14:15.000Z</time>
      </trkpt>
      <trkpt lat="44.44698" lon="4.08127">
        <ele>269.20001220703</ele>
        <time>2012-05-19T09:14:21.000Z</time>
      </trkpt>
      <trkpt lat="44.447" lon="4.08125">
        <ele>268.79998779297</ele>
        <time>2012-05-19T09:14:23.000Z</time>
      </trkpt>
      <trkpt lat="44.44703" lon="4.08125">
        <ele>268.79998779297</ele>
        <time>2012-05-19T09:14:27.000Z</time>
      </trkpt>
      <trkpt lat="44.44707" lon="4.08125">
        <ele>269</ele>
        <time>2012-05-19T09:14:32.000Z</time>
      </trkpt>
      <trkpt lat="44.44702" lon="4.08126">
        <ele>269</ele>
        <time>2012-05-19T09:14:41.000Z</time>
      </trkpt>
      <trkpt lat="44.44704" lon="4.08123">
        <ele>268.39999389648</ele>
        <time>2012-05-19T09:14:48.000Z</time>
      </trkpt>
      <trkpt lat="44.44697" lon="4.08124">
        <ele>268.39999389648</ele>
        <time>2012-05-19T09:15:02.000Z</time>
      </trkpt>
      <trkpt lat="44.44689" lon="4.08132">
        <ele>270</ele>
        <time>2012-05-19T09:15:10.000Z</time>
      </trkpt>
      <trkpt lat="44.44686" lon="4.08136">
        <ele>271</ele>
        <time>2012-05-19T09:15:15.000Z</time>
      </trkpt>
      <trkpt lat="44.44688" lon="4.08137">
        <ele>271.39999389648</ele>
        <time>2012-05-19T09:15:17.000Z</time>
      </trkpt>
      <trkpt lat="44.44691" lon="4.08136">
        <ele>271.39999389648</ele>
        <time>2012-05-19T09:15:21.000Z</time>
      </trkpt>
      <trkpt lat="44.44691" lon="4.08137">
        <ele>271.39999389648</ele>
        <time>2012-05-19T09:15:23.000Z</time>
      </trkpt>
      <trkpt lat="44.44695" lon="4.08136">
        <ele>271.39999389648</ele>
        <time>2012-05-19T09:15:30.000Z</time>
      </trkpt>
      <trkpt lat="44.44699" lon="4.08141">
        <ele>272.60000610352</ele>
        <time>2012-05-19T09:15:39.000Z</time>
      </trkpt>
      <trkpt lat="44.44701" lon="4.08141">
        <ele>272.60000610352</ele>
        <time>2012-05-19T09:15:40.000Z</time>
      </trkpt>
      <trkpt lat="44.4471" lon="4.08143">
        <ele>273.20001220703</ele>
        <time>2012-05-19T09:15:47.000Z</time>
      </trkpt>
      <trkpt lat="44.44711" lon="4.08142">
        <ele>272.79998779297</ele>
        <time>2012-05-19T09:15:50.000Z</time>
      </trkpt>
      <trkpt lat="44.44713" lon="4.0814">
        <ele>272.39999389648</ele>
        <time>2012-05-19T09:15:53.000Z</time>
      </trkpt>
      <trkpt lat="44.4472" lon="4.08135">
        <ele>271.39999389648</ele>
        <time>2012-05-19T09:16:01.000Z</time>
      </trkpt>
      <trkpt lat="44.44727" lon="4.08134">
        <ele>271.39999389648</ele>
        <time>2012-05-19T09:16:08.000Z</time>
      </trkpt>
      <trkpt lat="44.44727" lon="4.08138">
        <ele>272.20001220703</ele>
        <time>2012-05-19T09:16:12.000Z</time>
      </trkpt>
      <trkpt lat="44.44723" lon="4.08143">
        <ele>273.20001220703</ele>
        <time>2012-05-19T09:16:18.000Z</time>
      </trkpt>
      <trkpt lat="44.44722" lon="4.08143">
        <ele>273.20001220703</ele>
        <time>2012-05-19T09:16:24.000Z</time>
      </trkpt>
      <trkpt lat="44.44718" lon="4.08146">
        <ele>273.79998779297</ele>
        <time>2012-05-19T09:16:30.000Z</time>
      </trkpt>
      <trkpt lat="44.44717" lon="4.08151">
        <ele>274.79998779297</ele>
        <time>2012-05-19T09:16:35.000Z</time>
      </trkpt>
      <trkpt lat="44.44714" lon="4.08153">
        <ele>275.20001220703</ele>
        <time>2012-05-19T09:16:41.000Z</time>
      </trkpt>
      <trkpt lat="44.44706" lon="4.08152">
        <ele>275.20001220703</ele>
        <time>2012-05-19T09:16:46.000Z</time>
      </trkpt>
      <trkpt lat="44.447" lon="4.08153">
        <ele>275.39999389648</ele>
        <time>2012-05-19T09:16:50.000Z</time>
      </trkpt>
      <trkpt lat="44.44698" lon="4.08154">
        <ele>275.60000610352</ele>
        <time>2012-05-19T09:16:52.000Z</time>
      </trkpt>
      <trkpt lat="44.44695" lon="4.08154">
        <ele>275.79998779297</ele>
        <time>2012-05-19T09:16:58.000Z</time>
      </trkpt>
      <trkpt lat="44.4469" lon="4.08155">
        <ele>276.20001220703</ele>
        <time>2012-05-19T09:17:07.000Z</time>
      </trkpt>
      <trkpt lat="44.4468" lon="4.08157">
        <ele>276.79998779297</ele>
        <time>2012-05-19T09:17:15.000Z</time>
      </trkpt>
      <trkpt lat="44.4467" lon="4.08161">
        <ele>278.20001220703</ele>
        <time>2012-05-19T09:17:24.000Z</time>
      </trkpt>
      <trkpt lat="44.44663" lon="4.08166">
        <ele>279.79998779297</ele>
        <time>2012-05-19T09:17:31.000Z</time>
      </trkpt>
      <trkpt lat="44.4466" lon="4.08169">
        <ele>281</ele>
        <time>2012-05-19T09:17:34.000Z</time>
      </trkpt>
      <trkpt lat="44.44658" lon="4.08171">
        <ele>281.79998779297</ele>
        <time>2012-05-19T09:17:37.000Z</time>
      </trkpt>
      <trkpt lat="44.44657" lon="4.08174">
        <ele>283.20001220703</ele>
        <time>2012-05-19T09:17:42.000Z</time>
      </trkpt>
      <trkpt lat="44.44651" lon="4.08179">
        <ele>285</ele>
        <time>2012-05-19T09:17:49.000Z</time>
      </trkpt>
      <trkpt lat="44.44648" lon="4.08182">
        <ele>286.20001220703</ele>
        <time>2012-05-19T09:17:54.000Z</time>
      </trkpt>
      <trkpt lat="44.4465" lon="4.08184">
        <ele>287</ele>
        <time>2012-05-19T09:17:57.000Z</time>
      </trkpt>
      <trkpt lat="44.44651" lon="4.08184">
        <ele>287</ele>
        <time>2012-05-19T09:17:58.000Z</time>
      </trkpt>
      <trkpt lat="44.44655" lon="4.08182">
        <ele>286.39999389648</ele>
        <time>2012-05-19T09:18:03.000Z</time>
      </trkpt>
      <trkpt lat="44.4466" lon="4.08182">
        <ele>286.60000610352</ele>
        <time>2012-05-19T09:18:09.000Z</time>
      </trkpt>
      <trkpt lat="44.44663" lon="4.08183">
        <ele>287</ele>
        <time>2012-05-19T09:18:14.000Z</time>
      </trkpt>
      <trkpt lat="44.44672" lon="4.08184">
        <ele>287.39999389648</ele>
        <time>2012-05-19T09:18:22.000Z</time>
      </trkpt>
      <trkpt lat="44.4468" lon="4.08184">
        <ele>286.79998779297</ele>
        <time>2012-05-19T09:18:30.000Z</time>
      </trkpt>
      <trkpt lat="44.44682" lon="4.08184">
        <ele>286.79998779297</ele>
        <time>2012-05-19T09:18:33.000Z</time>
      </trkpt>
      <trkpt lat="44.44686" lon="4.08182">
        <ele>285.79998779297</ele>
        <time>2012-05-19T09:18:37.000Z</time>
      </trkpt>
      <trkpt lat="44.44689" lon="4.08184">
        <ele>286.79998779297</ele>
        <time>2012-05-19T09:18:42.000Z</time>
      </trkpt>
      <trkpt lat="44.44686" lon="4.08187">
        <ele>288.20001220703</ele>
        <time>2012-05-19T09:18:47.000Z</time>
      </trkpt>
      <trkpt lat="44.44685" lon="4.08188">
        <ele>288.39999389648</ele>
        <time>2012-05-19T09:18:48.000Z</time>
      </trkpt>
      <trkpt lat="44.44683" lon="4.08188">
        <ele>288.79998779297</ele>
        <time>2012-05-19T09:18:53.000Z</time>
      </trkpt>
      <trkpt lat="44.44675" lon="4.08193">
        <ele>291</ele>
        <time>2012-05-19T09:19:00.000Z</time>
      </trkpt>
      <trkpt lat="44.44673" lon="4.08192">
        <ele>290.79998779297</ele>
        <time>2012-05-19T09:19:04.000Z</time>
      </trkpt>
      <trkpt lat="44.44669" lon="4.08192">
        <ele>290.79998779297</ele>
        <time>2012-05-19T09:19:09.000Z</time>
      </trkpt>
      <trkpt lat="44.44666" lon="4.0819">
        <ele>290</ele>
        <time>2012-05-19T09:19:14.000Z</time>
      </trkpt>
      <trkpt lat="44.44664" lon="4.08193">
        <ele>291.20001220703</ele>
        <time>2012-05-19T09:19:21.000Z</time>
      </trkpt>
      <trkpt lat="44.44657" lon="4.08198">
        <ele>293</ele>
        <time>2012-05-19T09:19:29.000Z</time>
      </trkpt>
      <trkpt lat="44.44652" lon="4.08207">
        <ele>296.20001220703</ele>
        <time>2012-05-19T09:19:38.000Z</time>
      </trkpt>
      <trkpt lat="44.44651" lon="4.08211">
        <ele>297.79998779297</ele>
        <time>2012-05-19T09:19:42.000Z</time>
      </trkpt>
      <trkpt lat="44.44652" lon="4.08211">
        <ele>298</ele>
        <time>2012-05-19T09:19:44.000Z</time>
      </trkpt>
      <trkpt lat="44.44652" lon="4.08212">
        <ele>298.20001220703</ele>
        <time>2012-05-19T09:19:45.000Z</time>
      </trkpt>
      <trkpt lat="44.44655" lon="4.08211">
        <ele>298.20001220703</ele>
        <time>2012-05-19T09:19:48.000Z</time>
      </trkpt>
      <trkpt lat="44.4466" lon="4.0821">
        <ele>298.20001220703</ele>
        <time>2012-05-19T09:19:53.000Z</time>
      </trkpt>
      <trkpt lat="44.44666" lon="4.08212">
        <ele>299.60000610352</ele>
        <time>2012-05-19T09:19:58.000Z</time>
      </trkpt>
      <trkpt lat="44.44666" lon="4.08212">
        <ele>299.60000610352</ele>
        <time>2012-05-19T09:20:00.000Z</time>
      </trkpt>
      <trkpt lat="44.44674" lon="4.08213">
        <ele>299.60000610352</ele>
        <time>2012-05-19T09:20:08.000Z</time>
      </trkpt>
      <trkpt lat="44.44677" lon="4.08213">
        <ele>299.60000610352</ele>
        <time>2012-05-19T09:20:13.000Z</time>
      </trkpt>
      <trkpt lat="44.44682" lon="4.08214">
        <ele>299.79998779297</ele>
        <time>2012-05-19T09:20:20.000Z</time>
      </trkpt>
      <trkpt lat="44.44689" lon="4.08214">
        <ele>299.79998779297</ele>
        <time>2012-05-19T09:20:26.000Z</time>
      </trkpt>
      <trkpt lat="44.44695" lon="4.08214">
        <ele>299.39999389648</ele>
        <time>2012-05-19T09:20:30.000Z</time>
      </trkpt>
      <trkpt lat="44.44698" lon="4.08214">
        <ele>299.20001220703</ele>
        <time>2012-05-19T09:20:33.000Z</time>
      </trkpt>
      <trkpt lat="44.44705" lon="4.08213">
        <ele>298.79998779297</ele>
        <time>2012-05-19T09:20:38.000Z</time>
      </trkpt>
      <trkpt lat="44.44714" lon="4.08213">
        <ele>298.39999389648</ele>
        <time>2012-05-19T09:20:45.000Z</time>
      </trkpt>
      <trkpt lat="44.44724" lon="4.08213">
        <ele>298</ele>
        <time>2012-05-19T09:20:53.000Z</time>
      </trkpt>
      <trkpt lat="44.44725" lon="4.08214">
        <ele>298.39999389648</ele>
        <time>2012-05-19T09:20:54.000Z</time>
      </trkpt>
      <trkpt lat="44.44725" lon="4.08217">
        <ele>299.79998779297</ele>
        <time>2012-05-19T09:20:57.000Z</time>
      </trkpt>
      <trkpt lat="44.44717" lon="4.08221">
        <ele>301.60000610352</ele>
        <time>2012-05-19T09:21:03.000Z</time>
      </trkpt>
      <trkpt lat="44.44716" lon="4.08221">
        <ele>301.79998779297</ele>
        <time>2012-05-19T09:21:04.000Z</time>
      </trkpt>
      <trkpt lat="44.44708" lon="4.08225">
        <ele>303.79998779297</ele>
        <time>2012-05-19T09:21:10.000Z</time>
      </trkpt>
      <trkpt lat="44.44701" lon="4.0823">
        <ele>306.20001220703</ele>
        <time>2012-05-19T09:21:16.000Z</time>
      </trkpt>
      <trkpt lat="44.44694" lon="4.08234">
        <ele>308.20001220703</ele>
        <time>2012-05-19T09:21:23.000Z</time>
      </trkpt>
      <trkpt lat="44.44688" lon="4.0824">
        <ele>311</ele>
        <time>2012-05-19T09:21:30.000Z</time>
      </trkpt>
      <trkpt lat="44.44687" lon="4.08242">
        <ele>312</ele>
        <time>2012-05-19T09:21:32.000Z</time>
      </trkpt>
      <trkpt lat="44.44686" lon="4.08243">
        <ele>312.39999389648</ele>
        <time>2012-05-19T09:21:35.000Z</time>
      </trkpt>
      <trkpt lat="44.44684" lon="4.08244">
        <ele>312.79998779297</ele>
        <time>2012-05-19T09:21:42.000Z</time>
      </trkpt>
      <trkpt lat="44.44682" lon="4.08248">
        <ele>314.60000610352</ele>
        <time>2012-05-19T09:21:47.000Z</time>
      </trkpt>
      <trkpt lat="44.44676" lon="4.08254">
        <ele>316.79998779297</ele>
        <time>2012-05-19T09:21:58.000Z</time>
      </trkpt>
      <trkpt lat="44.44675" lon="4.08254">
        <ele>316.79998779297</ele>
        <time>2012-05-19T09:21:59.000Z</time>
      </trkpt>
      <trkpt lat="44.44672" lon="4.08259">
        <ele>318.20001220703</ele>
        <time>2012-05-19T09:22:04.000Z</time>
      </trkpt>
      <trkpt lat="44.4467" lon="4.08261">
        <ele>318.60000610352</ele>
        <time>2012-05-19T09:22:10.000Z</time>
      </trkpt>
      <trkpt lat="44.44667" lon="4.08262">
        <ele>319</ele>
        <time>2012-05-19T09:22:14.000Z</time>
      </trkpt>
      <trkpt lat="44.44665" lon="4.08264">
        <ele>319.20001220703</ele>
        <time>2012-05-19T09:22:16.000Z</time>
      </trkpt>
      <trkpt lat="44.44665" lon="4.08265">
        <ele>319.60000610352</ele>
        <time>2012-05-19T09:22:17.000Z</time>
      </trkpt>
      <trkpt lat="44.44662" lon="4.0827">
        <ele>320.39999389648</ele>
        <time>2012-05-19T09:22:23.000Z</time>
      </trkpt>
      <trkpt lat="44.44659" lon="4.08274">
        <ele>321</ele>
        <time>2012-05-19T09:22:28.000Z</time>
      </trkpt>
      <trkpt lat="44.44659" lon="4.08278">
        <ele>321.79998779297</ele>
        <time>2012-05-19T09:22:30.000Z</time>
      </trkpt>
      <trkpt lat="44.44658" lon="4.08279">
        <ele>322</ele>
        <time>2012-05-19T09:22:33.000Z</time>
      </trkpt>
      <trkpt lat="44.44658" lon="4.08282">
        <ele>322.60000610352</ele>
        <time>2012-05-19T09:22:35.000Z</time>
      </trkpt>
      <trkpt lat="44.44657" lon="4.0829">
        <ele>324.60000610352</ele>
        <time>2012-05-19T09:22:40.000Z</time>
      </trkpt>
      <trkpt lat="44.44657" lon="4.08294">
        <ele>325.60000610352</ele>
        <time>2012-05-19T09:22:42.000Z</time>
      </trkpt>
      <trkpt lat="44.44656" lon="4.08304">
        <ele>328</ele>
        <time>2012-05-19T09:22:47.000Z</time>
      </trkpt>
      <trkpt lat="44.44656" lon="4.08315">
        <ele>330.79998779297</ele>
        <time>2012-05-19T09:22:53.000Z</time>
      </trkpt>
      <trkpt lat="44.44656" lon="4.0832">
        <ele>332</ele>
        <time>2012-05-19T09:22:56.000Z</time>
      </trkpt>
      <trkpt lat="44.44655" lon="4.08326">
        <ele>333.60000610352</ele>
        <time>2012-05-19T09:22:59.000Z</time>
      </trkpt>
      <trkpt lat="44.44655" lon="4.08338">
        <ele>336.20001220703</ele>
        <time>2012-05-19T09:23:05.000Z</time>
      </trkpt>
      <trkpt lat="44.44652" lon="4.08347">
        <ele>337.60000610352</ele>
        <time>2012-05-19T09:23:11.000Z</time>
      </trkpt>
      <trkpt lat="44.44652" lon="4.08351">
        <ele>338.20001220703</ele>
        <time>2012-05-19T09:23:16.000Z</time>
      </trkpt>
      <trkpt lat="44.44649" lon="4.08362">
        <ele>340</ele>
        <time>2012-05-19T09:23:24.000Z</time>
      </trkpt>
      <trkpt lat="44.44648" lon="4.08369">
        <ele>341.20001220703</ele>
        <time>2012-05-19T09:23:32.000Z</time>
      </trkpt>
      <trkpt lat="44.44647" lon="4.08374">
        <ele>342.20001220703</ele>
        <time>2012-05-19T09:23:36.000Z</time>
      </trkpt>
      <trkpt lat="44.44647" lon="4.08377">
        <ele>342.79998779297</ele>
        <time>2012-05-19T09:23:39.000Z</time>
      </trkpt>
      <trkpt lat="44.44645" lon="4.08386">
        <ele>344.39999389648</ele>
        <time>2012-05-19T09:23:46.000Z</time>
      </trkpt>
      <trkpt lat="44.44645" lon="4.08388">
        <ele>344.60000610352</ele>
        <time>2012-05-19T09:23:47.000Z</time>
      </trkpt>
      <trkpt lat="44.44645" lon="4.08395">
        <ele>346.20001220703</ele>
        <time>2012-05-19T09:23:53.000Z</time>
      </trkpt>
      <trkpt lat="44.44645" lon="4.08398">
        <ele>346.79998779297</ele>
        <time>2012-05-19T09:23:56.000Z</time>
      </trkpt>
      <trkpt lat="44.44645" lon="4.08401">
        <ele>347.20001220703</ele>
        <time>2012-05-19T09:23:58.000Z</time>
      </trkpt>
      <trkpt lat="44.44646" lon="4.08407">
        <ele>348.60000610352</ele>
        <time>2012-05-19T09:24:04.000Z</time>
      </trkpt>
      <trkpt lat="44.44648" lon="4.08418">
        <ele>350.79998779297</ele>
        <time>2012-05-19T09:24:13.000Z</time>
      </trkpt>
      <trkpt lat="44.44652" lon="4.0843">
        <ele>353</ele>
        <time>2012-05-19T09:24:22.000Z</time>
      </trkpt>
      <trkpt lat="44.44652" lon="4.08431">
        <ele>353.20001220703</ele>
        <time>2012-05-19T09:24:23.000Z</time>
      </trkpt>
      <trkpt lat="44.44655" lon="4.08437">
        <ele>354.20001220703</ele>
        <time>2012-05-19T09:24:28.000Z</time>
      </trkpt>
      <trkpt lat="44.44659" lon="4.08446">
        <ele>355.60000610352</ele>
        <time>2012-05-19T09:24:36.000Z</time>
      </trkpt>
      <trkpt lat="44.44661" lon="4.08455">
        <ele>357</ele>
        <time>2012-05-19T09:24:45.000Z</time>
      </trkpt>
      <trkpt lat="44.44662" lon="4.08464">
        <ele>358.20001220703</ele>
        <time>2012-05-19T09:24:52.000Z</time>
      </trkpt>
      <trkpt lat="44.44663" lon="4.08469">
        <ele>359</ele>
        <time>2012-05-19T09:24:56.000Z</time>
      </trkpt>
      <trkpt lat="44.44663" lon="4.08473">
        <ele>359.39999389648</ele>
        <time>2012-05-19T09:24:59.000Z</time>
      </trkpt>
      <trkpt lat="44.44663" lon="4.08474">
        <ele>359.60000610352</ele>
        <time>2012-05-19T09:25:00.000Z</time>
      </trkpt>
      <trkpt lat="44.44663" lon="4.08483">
        <ele>360.79998779297</ele>
        <time>2012-05-19T09:25:06.000Z</time>
      </trkpt>
      <trkpt lat="44.44664" lon="4.08486">
        <ele>361.20001220703</ele>
        <time>2012-05-19T09:25:08.000Z</time>
      </trkpt>
      <trkpt lat="44.44664" lon="4.08488">
        <ele>361.60000610352</ele>
        <time>2012-05-19T09:25:11.000Z</time>
      </trkpt>
      <trkpt lat="44.44664" lon="4.0849">
        <ele>361.79998779297</ele>
        <time>2012-05-19T09:25:12.000Z</time>
      </trkpt>
      <trkpt lat="44.44662" lon="4.08499">
        <ele>363.20001220703</ele>
        <time>2012-05-19T09:25:20.000Z</time>
      </trkpt>
      <trkpt lat="44.44658" lon="4.08511">
        <ele>365.79998779297</ele>
        <time>2012-05-19T09:25:30.000Z</time>
      </trkpt>
      <trkpt lat="44.44657" lon="4.08521">
        <ele>367.79998779297</ele>
        <time>2012-05-19T09:25:38.000Z</time>
      </trkpt>
      <trkpt lat="44.44655" lon="4.08533">
        <ele>370.20001220703</ele>
        <time>2012-05-19T09:25:47.000Z</time>
      </trkpt>
      <trkpt lat="44.44655" lon="4.08539">
        <ele>371.60000610352</ele>
        <time>2012-05-19T09:25:51.000Z</time>
      </trkpt>
      <trkpt lat="44.44656" lon="4.08543">
        <ele>372.20001220703</ele>
        <time>2012-05-19T09:25:54.000Z</time>
      </trkpt>
      <trkpt lat="44.44656" lon="4.08551">
        <ele>373.79998779297</ele>
        <time>2012-05-19T09:26:00.000Z</time>
      </trkpt>
      <trkpt lat="44.44654" lon="4.08557">
        <ele>375.20001220703</ele>
        <time>2012-05-19T09:26:04.000Z</time>
      </trkpt>
      <trkpt lat="44.44651" lon="4.08558">
        <ele>375.39999389648</ele>
        <time>2012-05-19T09:26:06.000Z</time>
      </trkpt>
      <trkpt lat="44.44647" lon="4.08559">
        <ele>376.20001220703</ele>
        <time>2012-05-19T09:26:11.000Z</time>
      </trkpt>
      <trkpt lat="44.44647" lon="4.08559">
        <ele>376.20001220703</ele>
        <time>2012-05-19T09:26:13.000Z</time>
      </trkpt>
      <trkpt lat="44.44648" lon="4.08558">
        <ele>376</ele>
        <time>2012-05-19T09:26:17.000Z</time>
      </trkpt>
      <trkpt lat="44.44648" lon="4.08554">
        <ele>375</ele>
        <time>2012-05-19T09:26:23.000Z</time>
      </trkpt>
      <trkpt lat="44.44649" lon="4.08546">
        <ele>373.39999389648</ele>
        <time>2012-05-19T09:27:19.000Z</time>
      </trkpt>
      <trkpt lat="44.44642" lon="4.08547">
        <ele>374.20001220703</ele>
        <time>2012-05-19T09:27:24.000Z</time>
      </trkpt>
      <trkpt lat="44.44632" lon="4.08544">
        <ele>374.39999389648</ele>
        <time>2012-05-19T09:27:32.000Z</time>
      </trkpt>
      <trkpt lat="44.44625" lon="4.08538">
        <ele>373.60000610352</ele>
        <time>2012-05-19T09:27:41.000Z</time>
      </trkpt>
      <trkpt lat="44.44616" lon="4.08535">
        <ele>373.79998779297</ele>
        <time>2012-05-19T09:27:48.000Z</time>
      </trkpt>
      <trkpt lat="44.44608" lon="4.08529">
        <ele>373</ele>
        <time>2012-05-19T09:27:56.000Z</time>
      </trkpt>
      <trkpt lat="44.44603" lon="4.08521">
        <ele>371.60000610352</ele>
        <time>2012-05-19T09:28:03.000Z</time>
      </trkpt>
      <trkpt lat="44.44597" lon="4.08511">
        <ele>369.60000610352</ele>
        <time>2012-05-19T09:28:12.000Z</time>
      </trkpt>
      <trkpt lat="44.44593" lon="4.08505">
        <ele>368.39999389648</ele>
        <time>2012-05-19T09:28:19.000Z</time>
      </trkpt>
      <trkpt lat="44.44588" lon="4.08497">
        <ele>366.79998779297</ele>
        <time>2012-05-19T09:28:27.000Z</time>
      </trkpt>
      <trkpt lat="44.44583" lon="4.0849">
        <ele>365.39999389648</ele>
        <time>2012-05-19T09:28:34.000Z</time>
      </trkpt>
      <trkpt lat="44.44582" lon="4.08488">
        <ele>365.39999389648</ele>
        <time>2012-05-19T09:28:35.000Z</time>
      </trkpt>
      <trkpt lat="44.4458" lon="4.08482">
        <ele>364.79998779297</ele>
        <time>2012-05-19T09:28:42.000Z</time>
      </trkpt>
      <trkpt lat="44.44572" lon="4.08472">
        <ele>364.79998779297</ele>
        <time>2012-05-19T09:28:52.000Z</time>
      </trkpt>
      <trkpt lat="44.44566" lon="4.08466">
        <ele>365.79998779297</ele>
        <time>2012-05-19T09:29:00.000Z</time>
      </trkpt>
      <trkpt lat="44.4456" lon="4.08461">
        <ele>367.20001220703</ele>
        <time>2012-05-19T09:29:09.000Z</time>
      </trkpt>
      <trkpt lat="44.44554" lon="4.08456">
        <ele>368.39999389648</ele>
        <time>2012-05-19T09:29:17.000Z</time>
      </trkpt>
      <trkpt lat="44.44546" lon="4.08453">
        <ele>370.60000610352</ele>
        <time>2012-05-19T09:29:25.000Z</time>
      </trkpt>
      <trkpt lat="44.4454" lon="4.08451">
        <ele>372.79998779297</ele>
        <time>2012-05-19T09:29:32.000Z</time>
      </trkpt>
      <trkpt lat="44.44534" lon="4.08449">
        <ele>374.60000610352</ele>
        <time>2012-05-19T09:29:40.000Z</time>
      </trkpt>
      <trkpt lat="44.44528" lon="4.08444">
        <ele>375.79998779297</ele>
        <time>2012-05-19T09:29:47.000Z</time>
      </trkpt>
      <trkpt lat="44.44523" lon="4.0844">
        <ele>377.20001220703</ele>
        <time>2012-05-19T09:29:54.000Z</time>
      </trkpt>
      <trkpt lat="44.4452" lon="4.08436">
        <ele>377.60000610352</ele>
        <time>2012-05-19T09:29:59.000Z</time>
      </trkpt>
      <trkpt lat="44.4451" lon="4.08426">
        <ele>379.60000610352</ele>
        <time>2012-05-19T09:30:05.000Z</time>
      </trkpt>
      <trkpt lat="44.44504" lon="4.08413">
        <ele>379.39999389648</ele>
        <time>2012-05-19T09:30:11.000Z</time>
      </trkpt>
      <trkpt lat="44.44499" lon="4.08402">
        <ele>378</ele>
        <time>2012-05-19T09:30:17.000Z</time>
      </trkpt>
      <trkpt lat="44.44498" lon="4.08401">
        <ele>377.60000610352</ele>
        <time>2012-05-19T09:30:18.000Z</time>
      </trkpt>
      <trkpt lat="44.44491" lon="4.08399">
        <ele>375.39999389648</ele>
        <time>2012-05-19T09:30:22.000Z</time>
      </trkpt>
      <trkpt lat="44.44481" lon="4.08404">
        <ele>374.60000610352</ele>
        <time>2012-05-19T09:30:28.000Z</time>
      </trkpt>
      <trkpt lat="44.44471" lon="4.08415">
        <ele>375.20001220703</ele>
        <time>2012-05-19T09:30:35.000Z</time>
      </trkpt>
      <trkpt lat="44.44464" lon="4.08423">
        <ele>375.60000610352</ele>
        <time>2012-05-19T09:30:43.000Z</time>
      </trkpt>
      <trkpt lat="44.44462" lon="4.08425">
        <ele>375.60000610352</ele>
        <time>2012-05-19T09:30:45.000Z</time>
      </trkpt>
      <trkpt lat="44.44456" lon="4.0843">
        <ele>375.20001220703</ele>
        <time>2012-05-19T09:30:49.000Z</time>
      </trkpt>
      <trkpt lat="44.44448" lon="4.08439">
        <ele>375.60000610352</ele>
        <time>2012-05-19T09:30:56.000Z</time>
      </trkpt>
      <trkpt lat="44.44443" lon="4.08452">
        <ele>377.39999389648</ele>
        <time>2012-05-19T09:31:04.000Z</time>
      </trkpt>
      <trkpt lat="44.44444" lon="4.08468">
        <ele>381.39999389648</ele>
        <time>2012-05-19T09:31:11.000Z</time>
      </trkpt>
      <trkpt lat="44.44444" lon="4.0847">
        <ele>381.79998779297</ele>
        <time>2012-05-19T09:31:12.000Z</time>
      </trkpt>
      <trkpt lat="44.44444" lon="4.08485">
        <ele>384.79998779297</ele>
        <time>2012-05-19T09:31:19.000Z</time>
      </trkpt>
      <trkpt lat="44.44442" lon="4.085">
        <ele>388</ele>
        <time>2012-05-19T09:31:27.000Z</time>
      </trkpt>
      <trkpt lat="44.44442" lon="4.08505">
        <ele>388.79998779297</ele>
        <time>2012-05-19T09:31:29.000Z</time>
      </trkpt>
      <trkpt lat="44.44441" lon="4.08511">
        <ele>389.79998779297</ele>
        <time>2012-05-19T09:31:32.000Z</time>
      </trkpt>
      <trkpt lat="44.44441" lon="4.0853">
        <ele>393.39999389648</ele>
        <time>2012-05-19T09:31:41.000Z</time>
      </trkpt>
      <trkpt lat="44.4444" lon="4.08542">
        <ele>395.20001220703</ele>
        <time>2012-05-19T09:31:47.000Z</time>
      </trkpt>
      <trkpt lat="44.44438" lon="4.08556">
        <ele>397.60000610352</ele>
        <time>2012-05-19T09:31:54.000Z</time>
      </trkpt>
      <trkpt lat="44.44438" lon="4.08562">
        <ele>398.79998779297</ele>
        <time>2012-05-19T09:31:57.000Z</time>
      </trkpt>
      <trkpt lat="44.44438" lon="4.08568">
        <ele>399.60000610352</ele>
        <time>2012-05-19T09:32:00.000Z</time>
      </trkpt>
      <trkpt lat="44.44436" lon="4.08583">
        <ele>402.20001220703</ele>
        <time>2012-05-19T09:32:07.000Z</time>
      </trkpt>
      <trkpt lat="44.44435" lon="4.08595">
        <ele>403.79998779297</ele>
        <time>2012-05-19T09:32:14.000Z</time>
      </trkpt>
      <trkpt lat="44.44433" lon="4.08607">
        <ele>405.39999389648</ele>
        <time>2012-05-19T09:32:20.000Z</time>
      </trkpt>
      <trkpt lat="44.44427" lon="4.08622">
        <ele>406.60000610352</ele>
        <time>2012-05-19T09:32:28.000Z</time>
      </trkpt>
      <trkpt lat="44.44421" lon="4.08634">
        <ele>407.39999389648</ele>
        <time>2012-05-19T09:32:34.000Z</time>
      </trkpt>
      <trkpt lat="44.4441" lon="4.08637">
        <ele>406</ele>
        <time>2012-05-19T09:32:40.000Z</time>
      </trkpt>
      <trkpt lat="44.44402" lon="4.08643">
        <ele>405.60000610352</ele>
        <time>2012-05-19T09:32:47.000Z</time>
      </trkpt>
      <trkpt lat="44.44399" lon="4.08648">
        <ele>406</ele>
        <time>2012-05-19T09:32:51.000Z</time>
      </trkpt>
      <trkpt lat="44.44398" lon="4.08651">
        <ele>406.60000610352</ele>
        <time>2012-05-19T09:32:53.000Z</time>
      </trkpt>
      <trkpt lat="44.44392" lon="4.08664">
        <ele>408</ele>
        <time>2012-05-19T09:33:00.000Z</time>
      </trkpt>
      <trkpt lat="44.44381" lon="4.08673">
        <ele>407.39999389648</ele>
        <time>2012-05-19T09:33:07.000Z</time>
      </trkpt>
      <trkpt lat="44.44369" lon="4.08679">
        <ele>406.20001220703</ele>
        <time>2012-05-19T09:33:14.000Z</time>
      </trkpt>
      <trkpt lat="44.44354" lon="4.0869">
        <ele>405</ele>
        <time>2012-05-19T09:33:22.000Z</time>
      </trkpt>
      <trkpt lat="44.44347" lon="4.08702">
        <ele>404.79998779297</ele>
        <time>2012-05-19T09:33:30.000Z</time>
      </trkpt>
      <trkpt lat="44.44346" lon="4.08704">
        <ele>405</ele>
        <time>2012-05-19T09:33:34.000Z</time>
      </trkpt>
      <trkpt lat="44.44345" lon="4.08703">
        <ele>404.79998779297</ele>
        <time>2012-05-19T09:34:40.000Z</time>
      </trkpt>
      <trkpt lat="44.44344" lon="4.08702">
        <ele>404.60000610352</ele>
        <time>2012-05-19T09:34:46.000Z</time>
      </trkpt>
      <trkpt lat="44.44345" lon="4.08706">
        <ele>405</ele>
        <time>2012-05-19T09:34:54.000Z</time>
      </trkpt>
      <trkpt lat="44.44345" lon="4.08703">
        <ele>404.79998779297</ele>
        <time>2012-05-19T09:35:43.000Z</time>
      </trkpt>
      <trkpt lat="44.44345" lon="4.08704">
        <ele>404.79998779297</ele>
        <time>2012-05-19T09:36:05.000Z</time>
      </trkpt>
      <trkpt lat="44.44344" lon="4.08706">
        <ele>404.79998779297</ele>
        <time>2012-05-19T09:36:14.000Z</time>
      </trkpt>
      <trkpt lat="44.44343" lon="4.08708">
        <ele>404.79998779297</ele>
        <time>2012-05-19T09:36:49.000Z</time>
      </trkpt>
      <trkpt lat="44.44344" lon="4.08705">
        <ele>404.79998779297</ele>
        <time>2012-05-19T09:37:12.000Z</time>
      </trkpt>
      <trkpt lat="44.44344" lon="4.08704">
        <ele>404.60000610352</ele>
        <time>2012-05-19T09:37:24.000Z</time>
      </trkpt>
      <trkpt lat="44.44345" lon="4.08706">
        <ele>405</ele>
        <time>2012-05-19T09:37:43.000Z</time>
      </trkpt>
      <trkpt lat="44.44344" lon="4.08707">
        <ele>405</ele>
        <time>2012-05-19T09:37:52.000Z</time>
      </trkpt>
      <trkpt lat="44.44343" lon="4.08708">
        <ele>404.79998779297</ele>
        <time>2012-05-19T09:38:16.000Z</time>
      </trkpt>
      <trkpt lat="44.44344" lon="4.08708">
        <ele>405</ele>
        <time>2012-05-19T09:38:23.000Z</time>
      </trkpt>
      <trkpt lat="44.44345" lon="4.08707">
        <ele>405</ele>
        <time>2012-05-19T09:38:26.000Z</time>
      </trkpt>
      <trkpt lat="44.44346" lon="4.08706">
        <ele>405.20001220703</ele>
        <time>2012-05-19T09:38:28.000Z</time>
      </trkpt>
      <trkpt lat="44.44348" lon="4.08707">
        <ele>405.39999389648</ele>
        <time>2012-05-19T09:38:55.000Z</time>
      </trkpt>
      <trkpt lat="44.44348" lon="4.08705">
        <ele>405.39999389648</ele>
        <time>2012-05-19T09:39:12.000Z</time>
      </trkpt>
      <trkpt lat="44.44343" lon="4.08711">
        <ele>405</ele>
        <time>2012-05-19T09:39:19.000Z</time>
      </trkpt>
      <trkpt lat="44.44334" lon="4.08727">
        <ele>405.20001220703</ele>
        <time>2012-05-19T09:39:24.000Z</time>
      </trkpt>
      <trkpt lat="44.44327" lon="4.08752">
        <ele>406.20001220703</ele>
        <time>2012-05-19T09:39:30.000Z</time>
      </trkpt>
      <trkpt lat="44.44326" lon="4.08757">
        <ele>406</ele>
        <time>2012-05-19T09:39:31.000Z</time>
      </trkpt>
      <trkpt lat="44.44323" lon="4.08786">
        <ele>404.39999389648</ele>
        <time>2012-05-19T09:39:36.000Z</time>
      </trkpt>
      <trkpt lat="44.44323" lon="4.08814">
        <ele>403</ele>
        <time>2012-05-19T09:39:40.000Z</time>
      </trkpt>
      <trkpt lat="44.44324" lon="4.08821">
        <ele>402.79998779297</ele>
        <time>2012-05-19T09:39:41.000Z</time>
      </trkpt>
      <trkpt lat="44.44325" lon="4.08828">
        <ele>402.79998779297</ele>
        <time>2012-05-19T09:39:42.000Z</time>
      </trkpt>
      <trkpt lat="44.44333" lon="4.08854">
        <ele>402.79998779297</ele>
        <time>2012-05-19T09:39:46.000Z</time>
      </trkpt>
      <trkpt lat="44.44336" lon="4.08868">
        <ele>402.60000610352</ele>
        <time>2012-05-19T09:39:48.000Z</time>
      </trkpt>
      <trkpt lat="44.4434" lon="4.0889">
        <ele>402.20001220703</ele>
        <time>2012-05-19T09:39:51.000Z</time>
      </trkpt>
      <trkpt lat="44.44344" lon="4.08915">
        <ele>402</ele>
        <time>2012-05-19T09:39:54.000Z</time>
      </trkpt>
      <trkpt lat="44.44344" lon="4.08942">
        <ele>400.60000610352</ele>
        <time>2012-05-19T09:39:57.000Z</time>
      </trkpt>
      <trkpt lat="44.44345" lon="4.08951">
        <ele>400.39999389648</ele>
        <time>2012-05-19T09:39:58.000Z</time>
      </trkpt>
      <trkpt lat="44.44347" lon="4.0896">
        <ele>400.20001220703</ele>
        <time>2012-05-19T09:39:59.000Z</time>
      </trkpt>
      <trkpt lat="44.44349" lon="4.08976">
        <ele>400</ele>
        <time>2012-05-19T09:40:01.000Z</time>
      </trkpt>
      <trkpt lat="44.44354" lon="4.08989">
        <ele>400.39999389648</ele>
        <time>2012-05-19T09:40:03.000Z</time>
      </trkpt>
      <trkpt lat="44.44355" lon="4.09">
        <ele>400.20001220703</ele>
        <time>2012-05-19T09:40:06.000Z</time>
      </trkpt>
      <trkpt lat="44.44355" lon="4.09">
        <ele>400.20001220703</ele>
        <time>2012-05-19T09:40:10.000Z</time>
      </trkpt>
      <trkpt lat="44.44355" lon="4.09001">
        <ele>400.20001220703</ele>
        <time>2012-05-19T09:40:19.000Z</time>
      </trkpt>
      <trkpt lat="44.44352" lon="4.09003">
        <ele>399.60000610352</ele>
        <time>2012-05-19T09:40:26.000Z</time>
      </trkpt>
      <trkpt lat="44.44351" lon="4.09004">
        <ele>399.39999389648</ele>
        <time>2012-05-19T09:40:37.000Z</time>
      </trkpt>
      <trkpt lat="44.44352" lon="4.09006">
        <ele>399.60000610352</ele>
        <time>2012-05-19T09:40:51.000Z</time>
      </trkpt>
      <trkpt lat="44.44351" lon="4.09014">
        <ele>399.60000610352</ele>
        <time>2012-05-19T09:40:59.000Z</time>
      </trkpt>
      <trkpt lat="44.44341" lon="4.09035">
        <ele>398.39999389648</ele>
        <time>2012-05-19T09:41:03.000Z</time>
      </trkpt>
      <trkpt lat="44.44328" lon="4.09057">
        <ele>396.39999389648</ele>
        <time>2012-05-19T09:41:07.000Z</time>
      </trkpt>
      <trkpt lat="44.44319" lon="4.09071">
        <ele>395</ele>
        <time>2012-05-19T09:41:09.000Z</time>
      </trkpt>
      <trkpt lat="44.44308" lon="4.09092">
        <ele>392.20001220703</ele>
        <time>2012-05-19T09:41:13.000Z</time>
      </trkpt>
      <trkpt lat="44.44307" lon="4.09094">
        <ele>391.79998779297</ele>
        <time>2012-05-19T09:41:15.000Z</time>
      </trkpt>
      <trkpt lat="44.44307" lon="4.09094">
        <ele>391.79998779297</ele>
        <time>2012-05-19T09:41:17.000Z</time>
      </trkpt>
      <trkpt lat="44.44303" lon="4.09106">
        <ele>390.60000610352</ele>
        <time>2012-05-19T09:41:34.000Z</time>
      </trkpt>
      <trkpt lat="44.44296" lon="4.09127">
        <ele>388.39999389648</ele>
        <time>2012-05-19T09:41:38.000Z</time>
      </trkpt>
      <trkpt lat="44.4429" lon="4.09154">
        <ele>387</ele>
        <time>2012-05-19T09:41:42.000Z</time>
      </trkpt>
      <trkpt lat="44.44287" lon="4.09169">
        <ele>386.20001220703</ele>
        <time>2012-05-19T09:41:44.000Z</time>
      </trkpt>
      <trkpt lat="44.44286" lon="4.09178">
        <ele>386</ele>
        <time>2012-05-19T09:41:45.000Z</time>
      </trkpt>
      <trkpt lat="44.44285" lon="4.09207">
        <ele>385.60000610352</ele>
        <time>2012-05-19T09:41:48.000Z</time>
      </trkpt>
      <trkpt lat="44.44285" lon="4.09237">
        <ele>385</ele>
        <time>2012-05-19T09:41:51.000Z</time>
      </trkpt>
      <trkpt lat="44.44284" lon="4.09255">
        <ele>384.79998779297</ele>
        <time>2012-05-19T09:41:53.000Z</time>
      </trkpt>
      <trkpt lat="44.44283" lon="4.09285">
        <ele>384.39999389648</ele>
        <time>2012-05-19T09:41:57.000Z</time>
      </trkpt>
      <trkpt lat="44.44282" lon="4.09304">
        <ele>384.20001220703</ele>
        <time>2012-05-19T09:42:00.000Z</time>
      </trkpt>
      <trkpt lat="44.44281" lon="4.09332">
        <ele>383.79998779297</ele>
        <time>2012-05-19T09:42:04.000Z</time>
      </trkpt>
      <trkpt lat="44.4428" lon="4.0934">
        <ele>383.60000610352</ele>
        <time>2012-05-19T09:42:05.000Z</time>
      </trkpt>
      <trkpt lat="44.44281" lon="4.09361">
        <ele>382.60000610352</ele>
        <time>2012-05-19T09:42:08.000Z</time>
      </trkpt>
      <trkpt lat="44.44282" lon="4.09375">
        <ele>382.20001220703</ele>
        <time>2012-05-19T09:42:10.000Z</time>
      </trkpt>
      <trkpt lat="44.44283" lon="4.09404">
        <ele>381</ele>
        <time>2012-05-19T09:42:14.000Z</time>
      </trkpt>
      <trkpt lat="44.44283" lon="4.09416">
        <ele>380.39999389648</ele>
        <time>2012-05-19T09:42:16.000Z</time>
      </trkpt>
      <trkpt lat="44.44281" lon="4.09437">
        <ele>379.79998779297</ele>
        <time>2012-05-19T09:42:21.000Z</time>
      </trkpt>
      <trkpt lat="44.4428" lon="4.0944">
        <ele>379.60000610352</ele>
        <time>2012-05-19T09:42:25.000Z</time>
      </trkpt>
      <trkpt lat="44.44278" lon="4.09441">
        <ele>379.39999389648</ele>
        <time>2012-05-19T09:43:14.000Z</time>
      </trkpt>
      <trkpt lat="44.44275" lon="4.09442">
        <ele>379.20001220703</ele>
        <time>2012-05-19T09:43:15.000Z</time>
      </trkpt>
      <trkpt lat="44.44263" lon="4.09435">
        <ele>378.39999389648</ele>
        <time>2012-05-19T09:43:19.000Z</time>
      </trkpt>
      <trkpt lat="44.44255" lon="4.09431">
        <ele>378</ele>
        <time>2012-05-19T09:43:21.000Z</time>
      </trkpt>
      <trkpt lat="44.44243" lon="4.09423">
        <ele>377.39999389648</ele>
        <time>2012-05-19T09:43:24.000Z</time>
      </trkpt>
      <trkpt lat="44.44225" lon="4.09413">
        <ele>376.60000610352</ele>
        <time>2012-05-19T09:43:28.000Z</time>
      </trkpt>
      <trkpt lat="44.44208" lon="4.09402">
        <ele>376</ele>
        <time>2012-05-19T09:43:32.000Z</time>
      </trkpt>
      <trkpt lat="44.44191" lon="4.09391">
        <ele>375.20001220703</ele>
        <time>2012-05-19T09:43:36.000Z</time>
      </trkpt>
      <trkpt lat="44.44187" lon="4.09388">
        <ele>375</ele>
        <time>2012-05-19T09:43:37.000Z</time>
      </trkpt>
      <trkpt lat="44.44173" lon="4.09381">
        <ele>374.39999389648</ele>
        <time>2012-05-19T09:43:40.000Z</time>
      </trkpt>
      <trkpt lat="44.44164" lon="4.09377">
        <ele>373.79998779297</ele>
        <time>2012-05-19T09:43:42.000Z</time>
      </trkpt>
      <trkpt lat="44.4415" lon="4.09373">
        <ele>373.39999389648</ele>
        <time>2012-05-19T09:43:45.000Z</time>
      </trkpt>
      <trkpt lat="44.44145" lon="4.09372">
        <ele>373.20001220703</ele>
        <time>2012-05-19T09:43:46.000Z</time>
      </trkpt>
      <trkpt lat="44.44122" lon="4.09371">
        <ele>372.20001220703</ele>
        <time>2012-05-19T09:43:50.000Z</time>
      </trkpt>
      <trkpt lat="44.44105" lon="4.0937">
        <ele>371.60000610352</ele>
        <time>2012-05-19T09:43:53.000Z</time>
      </trkpt>
      <trkpt lat="44.44084" lon="4.09369">
        <ele>370.60000610352</ele>
        <time>2012-05-19T09:43:57.000Z</time>
      </trkpt>
      <trkpt lat="44.44066" lon="4.0937">
        <ele>369.39999389648</ele>
        <time>2012-05-19T09:44:01.000Z</time>
      </trkpt>
      <trkpt lat="44.44055" lon="4.09369">
        <ele>368.79998779297</ele>
        <time>2012-05-19T09:44:04.000Z</time>
      </trkpt>
      <trkpt lat="44.44045" lon="4.09363">
        <ele>368.20001220703</ele>
        <time>2012-05-19T09:44:07.000Z</time>
      </trkpt>
      <trkpt lat="44.44037" lon="4.09355">
        <ele>368</ele>
        <time>2012-05-19T09:44:09.000Z</time>
      </trkpt>
      <trkpt lat="44.44024" lon="4.09344">
        <ele>367.79998779297</ele>
        <time>2012-05-19T09:44:12.000Z</time>
      </trkpt>
      <trkpt lat="44.44005" lon="4.09329">
        <ele>367.20001220703</ele>
        <time>2012-05-19T09:44:16.000Z</time>
      </trkpt>
      <trkpt lat="44.43989" lon="4.09318">
        <ele>365.79998779297</ele>
        <time>2012-05-19T09:44:19.000Z</time>
      </trkpt>
      <trkpt lat="44.43983" lon="4.09314">
        <ele>365.39999389648</ele>
        <time>2012-05-19T09:44:20.000Z</time>
      </trkpt>
      <trkpt lat="44.43966" lon="4.09302">
        <ele>364.20001220703</ele>
        <time>2012-05-19T09:44:23.000Z</time>
      </trkpt>
      <trkpt lat="44.43953" lon="4.09294">
        <ele>363.60000610352</ele>
        <time>2012-05-19T09:44:26.000Z</time>
      </trkpt>
      <trkpt lat="44.43934" lon="4.09284">
        <ele>362.79998779297</ele>
        <time>2012-05-19T09:44:31.000Z</time>
      </trkpt>
      <trkpt lat="44.4393" lon="4.09283">
        <ele>362.79998779297</ele>
        <time>2012-05-19T09:44:32.000Z</time>
      </trkpt>
      <trkpt lat="44.43922" lon="4.09278">
        <ele>362.60000610352</ele>
        <time>2012-05-19T09:44:34.000Z</time>
      </trkpt>
      <trkpt lat="44.43906" lon="4.09259">
        <ele>361.60000610352</ele>
        <time>2012-05-19T09:44:38.000Z</time>
      </trkpt>
      <trkpt lat="44.43894" lon="4.0924">
        <ele>359.20001220703</ele>
        <time>2012-05-19T09:44:41.000Z</time>
      </trkpt>
      <trkpt lat="44.43881" lon="4.09224">
        <ele>355.79998779297</ele>
        <time>2012-05-19T09:44:44.000Z</time>
      </trkpt>
      <trkpt lat="44.43872" lon="4.09217">
        <ele>353.79998779297</ele>
        <time>2012-05-19T09:44:46.000Z</time>
      </trkpt>
      <trkpt lat="44.43863" lon="4.09218">
        <ele>352.20001220703</ele>
        <time>2012-05-19T09:44:48.000Z</time>
      </trkpt>
      <trkpt lat="44.43858" lon="4.09236">
        <ele>352.60000610352</ele>
        <time>2012-05-19T09:44:50.000Z</time>
      </trkpt>
      <trkpt lat="44.43842" lon="4.09256">
        <ele>350.79998779297</ele>
        <time>2012-05-19T09:44:53.000Z</time>
      </trkpt>
      <trkpt lat="44.43819" lon="4.09251">
        <ele>347.79998779297</ele>
        <time>2012-05-19T09:44:56.000Z</time>
      </trkpt>
      <trkpt lat="44.43799" lon="4.09241">
        <ele>345.60000610352</ele>
        <time>2012-05-19T09:44:59.000Z</time>
      </trkpt>
      <trkpt lat="44.43786" lon="4.09233">
        <ele>344.20001220703</ele>
        <time>2012-05-19T09:45:01.000Z</time>
      </trkpt>
      <trkpt lat="44.43769" lon="4.09219">
        <ele>342.20001220703</ele>
        <time>2012-05-19T09:45:04.000Z</time>
      </trkpt>
      <trkpt lat="44.43758" lon="4.09207">
        <ele>341</ele>
        <time>2012-05-19T09:45:06.000Z</time>
      </trkpt>
      <trkpt lat="44.43753" lon="4.09198">
        <ele>340.20001220703</ele>
        <time>2012-05-19T09:45:09.000Z</time>
      </trkpt>
      <trkpt lat="44.43752" lon="4.09196">
        <ele>340.20001220703</ele>
        <time>2012-05-19T09:45:10.000Z</time>
      </trkpt>
      <trkpt lat="44.43751" lon="4.09194">
        <ele>340</ele>
        <time>2012-05-19T09:45:12.000Z</time>
      </trkpt>
      <trkpt lat="44.43748" lon="4.09194">
        <ele>339.79998779297</ele>
        <time>2012-05-19T09:45:15.000Z</time>
      </trkpt>
      <trkpt lat="44.43749" lon="4.09196">
        <ele>340</ele>
        <time>2012-05-19T09:45:19.000Z</time>
      </trkpt>
      <trkpt lat="44.43752" lon="4.09202">
        <ele>340.39999389648</ele>
        <time>2012-05-19T09:45:38.000Z</time>
      </trkpt>
      <trkpt lat="44.43754" lon="4.09207">
        <ele>340.79998779297</ele>
        <time>2012-05-19T09:45:41.000Z</time>
      </trkpt>
      <trkpt lat="44.43755" lon="4.09209">
        <ele>340.79998779297</ele>
        <time>2012-05-19T09:45:43.000Z</time>
      </trkpt>
      <trkpt lat="44.43757" lon="4.09214">
        <ele>341.20001220703</ele>
        <time>2012-05-19T09:45:49.000Z</time>
      </trkpt>
      <trkpt lat="44.43756" lon="4.09215">
        <ele>341.20001220703</ele>
        <time>2012-05-19T09:45:51.000Z</time>
      </trkpt>
      <trkpt lat="44.43751" lon="4.09217">
        <ele>340.79998779297</ele>
        <time>2012-05-19T09:45:55.000Z</time>
      </trkpt>
      <trkpt lat="44.43736" lon="4.09222">
        <ele>339.79998779297</ele>
        <time>2012-05-19T09:46:00.000Z</time>
      </trkpt>
      <trkpt lat="44.43721" lon="4.09226">
        <ele>338.60000610352</ele>
        <time>2012-05-19T09:46:04.000Z</time>
      </trkpt>
      <trkpt lat="44.43707" lon="4.09233">
        <ele>337.20001220703</ele>
        <time>2012-05-19T09:46:08.000Z</time>
      </trkpt>
      <trkpt lat="44.43688" lon="4.0924">
        <ele>335.39999389648</ele>
        <time>2012-05-19T09:46:12.000Z</time>
      </trkpt>
      <trkpt lat="44.43683" lon="4.09243">
        <ele>334.79998779297</ele>
        <time>2012-05-19T09:46:13.000Z</time>
      </trkpt>
      <trkpt lat="44.43678" lon="4.09247">
        <ele>334.20001220703</ele>
        <time>2012-05-19T09:46:14.000Z</time>
      </trkpt>
      <trkpt lat="44.43661" lon="4.09258">
        <ele>332.39999389648</ele>
        <time>2012-05-19T09:46:17.000Z</time>
      </trkpt>
      <trkpt lat="44.43642" lon="4.09277">
        <ele>329.79998779297</ele>
        <time>2012-05-19T09:46:21.000Z</time>
      </trkpt>
      <trkpt lat="44.43621" lon="4.09287">
        <ele>326.79998779297</ele>
        <time>2012-05-19T09:46:25.000Z</time>
      </trkpt>
      <trkpt lat="44.43616" lon="4.09289">
        <ele>326</ele>
        <time>2012-05-19T09:46:26.000Z</time>
      </trkpt>
      <trkpt lat="44.43607" lon="4.09293">
        <ele>324.60000610352</ele>
        <time>2012-05-19T09:46:28.000Z</time>
      </trkpt>
      <trkpt lat="44.43602" lon="4.09295">
        <ele>323.60000610352</ele>
        <time>2012-05-19T09:46:29.000Z</time>
      </trkpt>
      <trkpt lat="44.43597" lon="4.09297">
        <ele>322.79998779297</ele>
        <time>2012-05-19T09:46:30.000Z</time>
      </trkpt>
      <trkpt lat="44.43583" lon="4.09303">
        <ele>320.39999389648</ele>
        <time>2012-05-19T09:46:34.000Z</time>
      </trkpt>
      <trkpt lat="44.43581" lon="4.09303">
        <ele>320</ele>
        <time>2012-05-19T09:46:35.000Z</time>
      </trkpt>
      <trkpt lat="44.43576" lon="4.09297">
        <ele>319.39999389648</ele>
        <time>2012-05-19T09:46:38.000Z</time>
      </trkpt>
      <trkpt lat="44.43572" lon="4.09296">
        <ele>318.60000610352</ele>
        <time>2012-05-19T09:46:41.000Z</time>
      </trkpt>
      <trkpt lat="44.4356" lon="4.09298">
        <ele>316.39999389648</ele>
        <time>2012-05-19T09:46:45.000Z</time>
      </trkpt>
      <trkpt lat="44.43542" lon="4.09303">
        <ele>312.79998779297</ele>
        <time>2012-05-19T09:46:50.000Z</time>
      </trkpt>
      <trkpt lat="44.43528" lon="4.09305">
        <ele>310</ele>
        <time>2012-05-19T09:46:55.000Z</time>
      </trkpt>
      <trkpt lat="44.43515" lon="4.09309">
        <ele>307.60000610352</ele>
        <time>2012-05-19T09:47:02.000Z</time>
      </trkpt>
      <trkpt lat="44.43498" lon="4.09313">
        <ele>304.60000610352</ele>
        <time>2012-05-19T09:47:09.000Z</time>
      </trkpt>
      <trkpt lat="44.43482" lon="4.09317">
        <ele>302.79998779297</ele>
        <time>2012-05-19T09:47:16.000Z</time>
      </trkpt>
      <trkpt lat="44.43461" lon="4.09321">
        <ele>300.60000610352</ele>
        <time>2012-05-19T09:47:20.000Z</time>
      </trkpt>
      <trkpt lat="44.4344" lon="4.09326">
        <ele>298.20001220703</ele>
        <time>2012-05-19T09:47:23.000Z</time>
      </trkpt>
      <trkpt lat="44.43427" lon="4.0933">
        <ele>297</ele>
        <time>2012-05-19T09:47:25.000Z</time>
      </trkpt>
      <trkpt lat="44.43423" lon="4.09333">
        <ele>296.60000610352</ele>
        <time>2012-05-19T09:47:26.000Z</time>
      </trkpt>
      <trkpt lat="44.43419" lon="4.09341">
        <ele>297.20001220703</ele>
        <time>2012-05-19T09:47:28.000Z</time>
      </trkpt>
      <trkpt lat="44.43421" lon="4.09363">
        <ele>299.79998779297</ele>
        <time>2012-05-19T09:47:32.000Z</time>
      </trkpt>
      <trkpt lat="44.43423" lon="4.09371">
        <ele>300.79998779297</ele>
        <time>2012-05-19T09:47:34.000Z</time>
      </trkpt>
      <trkpt lat="44.43423" lon="4.09384">
        <ele>302.20001220703</ele>
        <time>2012-05-19T09:47:37.000Z</time>
      </trkpt>
      <trkpt lat="44.43417" lon="4.09411">
        <ele>305.20001220703</ele>
        <time>2012-05-19T09:47:43.000Z</time>
      </trkpt>
      <trkpt lat="44.43403" lon="4.09423">
        <ele>306.39999389648</ele>
        <time>2012-05-19T09:47:48.000Z</time>
      </trkpt>
      <trkpt lat="44.43393" lon="4.09429">
        <ele>306.79998779297</ele>
        <time>2012-05-19T09:47:53.000Z</time>
      </trkpt>
      <trkpt lat="44.43381" lon="4.09436">
        <ele>307.39999389648</ele>
        <time>2012-05-19T09:47:59.000Z</time>
      </trkpt>
      <trkpt lat="44.43364" lon="4.09444">
        <ele>307.39999389648</ele>
        <time>2012-05-19T09:48:06.000Z</time>
      </trkpt>
      <trkpt lat="44.43347" lon="4.09447">
        <ele>306.60000610352</ele>
        <time>2012-05-19T09:48:12.000Z</time>
      </trkpt>
      <trkpt lat="44.43332" lon="4.0945">
        <ele>305.60000610352</ele>
        <time>2012-05-19T09:48:16.000Z</time>
      </trkpt>
      <trkpt lat="44.43317" lon="4.09468">
        <ele>304.79998779297</ele>
        <time>2012-05-19T09:48:21.000Z</time>
      </trkpt>
      <trkpt lat="44.43314" lon="4.09471">
        <ele>304.60000610352</ele>
        <time>2012-05-19T09:48:22.000Z</time>
      </trkpt>
      <trkpt lat="44.43305" lon="4.0949">
        <ele>304.79998779297</ele>
        <time>2012-05-19T09:48:27.000Z</time>
      </trkpt>
      <trkpt lat="44.43295" lon="4.09517">
        <ele>304.60000610352</ele>
        <time>2012-05-19T09:48:32.000Z</time>
      </trkpt>
      <trkpt lat="44.43293" lon="4.09523">
        <ele>304.39999389648</ele>
        <time>2012-05-19T09:48:33.000Z</time>
      </trkpt>
      <trkpt lat="44.43285" lon="4.09541">
        <ele>302.79998779297</ele>
        <time>2012-05-19T09:48:36.000Z</time>
      </trkpt>
      <trkpt lat="44.43279" lon="4.09552">
        <ele>301.79998779297</ele>
        <time>2012-05-19T09:48:38.000Z</time>
      </trkpt>
      <trkpt lat="44.43278" lon="4.09569">
        <ele>302.39999389648</ele>
        <time>2012-05-19T09:48:43.000Z</time>
      </trkpt>
      <trkpt lat="44.43279" lon="4.09578">
        <ele>303.39999389648</ele>
        <time>2012-05-19T09:48:47.000Z</time>
      </trkpt>
      <trkpt lat="44.4328" lon="4.09582">
        <ele>304</ele>
        <time>2012-05-19T09:48:49.000Z</time>
      </trkpt>
      <trkpt lat="44.43281" lon="4.09599">
        <ele>304.60000610352</ele>
        <time>2012-05-19T09:48:55.000Z</time>
      </trkpt>
      <trkpt lat="44.43281" lon="4.09603">
        <ele>304.39999389648</ele>
        <time>2012-05-19T09:48:56.000Z</time>
      </trkpt>
      <trkpt lat="44.4328" lon="4.09614">
        <ele>303.79998779297</ele>
        <time>2012-05-19T09:48:59.000Z</time>
      </trkpt>
      <trkpt lat="44.43274" lon="4.09627">
        <ele>301.20001220703</ele>
        <time>2012-05-19T09:49:03.000Z</time>
      </trkpt>
      <trkpt lat="44.43266" lon="4.09636">
        <ele>297.39999389648</ele>
        <time>2012-05-19T09:49:08.000Z</time>
      </trkpt>
      <trkpt lat="44.4326" lon="4.09641">
        <ele>294.20001220703</ele>
        <time>2012-05-19T09:49:14.000Z</time>
      </trkpt>
      <trkpt lat="44.43259" lon="4.09642">
        <ele>294</ele>
        <time>2012-05-19T09:49:15.000Z</time>
      </trkpt>
      <trkpt lat="44.43253" lon="4.09646">
        <ele>291.20001220703</ele>
        <time>2012-05-19T09:49:20.000Z</time>
      </trkpt>
      <trkpt lat="44.43251" lon="4.09651">
        <ele>289.79998779297</ele>
        <time>2012-05-19T09:49:22.000Z</time>
      </trkpt>
      <trkpt lat="44.43251" lon="4.0966">
        <ele>289.60000610352</ele>
        <time>2012-05-19T09:49:24.000Z</time>
      </trkpt>
      <trkpt lat="44.43254" lon="4.09691">
        <ele>290.79998779297</ele>
        <time>2012-05-19T09:49:29.000Z</time>
      </trkpt>
      <trkpt lat="44.43257" lon="4.09719">
        <ele>292.39999389648</ele>
        <time>2012-05-19T09:49:34.000Z</time>
      </trkpt>
      <trkpt lat="44.43257" lon="4.09723">
        <ele>292.20001220703</ele>
        <time>2012-05-19T09:49:35.000Z</time>
      </trkpt>
      <trkpt lat="44.43256" lon="4.09727">
        <ele>291.79998779297</ele>
        <time>2012-05-19T09:49:36.000Z</time>
      </trkpt>
      <trkpt lat="44.43253" lon="4.0974">
        <ele>290.60000610352</ele>
        <time>2012-05-19T09:49:39.000Z</time>
      </trkpt>
      <trkpt lat="44.43252" lon="4.09745">
        <ele>289.79998779297</ele>
        <time>2012-05-19T09:49:40.000Z</time>
      </trkpt>
      <trkpt lat="44.43251" lon="4.09763">
        <ele>290.60000610352</ele>
        <time>2012-05-19T09:49:43.000Z</time>
      </trkpt>
      <trkpt lat="44.43247" lon="4.09793">
        <ele>291.79998779297</ele>
        <time>2012-05-19T09:49:48.000Z</time>
      </trkpt>
      <trkpt lat="44.43244" lon="4.09798">
        <ele>291.60000610352</ele>
        <time>2012-05-19T09:49:49.000Z</time>
      </trkpt>
      <trkpt lat="44.43231" lon="4.09821">
        <ele>290</ele>
        <time>2012-05-19T09:49:54.000Z</time>
      </trkpt>
      <trkpt lat="44.43216" lon="4.09831">
        <ele>286.79998779297</ele>
        <time>2012-05-19T09:49:59.000Z</time>
      </trkpt>
      <trkpt lat="44.43202" lon="4.09836">
        <ele>283.60000610352</ele>
        <time>2012-05-19T09:50:03.000Z</time>
      </trkpt>
      <trkpt lat="44.43184" lon="4.09846">
        <ele>280.20001220703</ele>
        <time>2012-05-19T09:50:07.000Z</time>
      </trkpt>
      <trkpt lat="44.43181" lon="4.09848">
        <ele>279.60000610352</ele>
        <time>2012-05-19T09:50:08.000Z</time>
      </trkpt>
      <trkpt lat="44.43167" lon="4.09856">
        <ele>276.39999389648</ele>
        <time>2012-05-19T09:50:13.000Z</time>
      </trkpt>
      <trkpt lat="44.4315" lon="4.09857">
        <ele>272.79998779297</ele>
        <time>2012-05-19T09:50:18.000Z</time>
      </trkpt>
      <trkpt lat="44.43142" lon="4.0987">
        <ele>272</ele>
        <time>2012-05-19T09:50:21.000Z</time>
      </trkpt>
      <trkpt lat="44.43135" lon="4.09883">
        <ele>271.60000610352</ele>
        <time>2012-05-19T09:50:25.000Z</time>
      </trkpt>
      <trkpt lat="44.4313" lon="4.09902">
        <ele>271.39999389648</ele>
        <time>2012-05-19T09:50:30.000Z</time>
      </trkpt>
      <trkpt lat="44.4313" lon="4.09905">
        <ele>271.60000610352</ele>
        <time>2012-05-19T09:50:32.000Z</time>
      </trkpt>
      <trkpt lat="44.4313" lon="4.09905">
        <ele>271.79998779297</ele>
        <time>2012-05-19T09:50:34.000Z</time>
      </trkpt>
      <trkpt lat="44.43128" lon="4.09904">
        <ele>271.20001220703</ele>
        <time>2012-05-19T09:50:39.000Z</time>
      </trkpt>
      <trkpt lat="44.43128" lon="4.09904">
        <ele>271.20001220703</ele>
        <time>2012-05-19T09:50:47.000Z</time>
      </trkpt>
      <trkpt lat="44.4313" lon="4.09909">
        <ele>271.79998779297</ele>
        <time>2012-05-19T09:53:51.000Z</time>
      </trkpt>
      <trkpt lat="44.43131" lon="4.09918">
        <ele>272.60000610352</ele>
        <time>2012-05-19T09:54:16.000Z</time>
      </trkpt>
      <trkpt lat="44.43133" lon="4.09936">
        <ele>273.20001220703</ele>
        <time>2012-05-19T09:54:21.000Z</time>
      </trkpt>
      <trkpt lat="44.43136" lon="4.09964">
        <ele>273.39999389648</ele>
        <time>2012-05-19T09:54:25.000Z</time>
      </trkpt>
      <trkpt lat="44.43135" lon="4.09971">
        <ele>273</ele>
        <time>2012-05-19T09:54:26.000Z</time>
      </trkpt>
      <trkpt lat="44.43132" lon="4.09987">
        <ele>271.79998779297</ele>
        <time>2012-05-19T09:54:28.000Z</time>
      </trkpt>
      <trkpt lat="44.43125" lon="4.09999">
        <ele>269.39999389648</ele>
        <time>2012-05-19T09:54:30.000Z</time>
      </trkpt>
      <trkpt lat="44.43105" lon="4.10016">
        <ele>265.39999389648</ele>
        <time>2012-05-19T09:54:33.000Z</time>
      </trkpt>
      <trkpt lat="44.43086" lon="4.10029">
        <ele>262.20001220703</ele>
        <time>2012-05-19T09:54:36.000Z</time>
      </trkpt>
      <trkpt lat="44.4308" lon="4.10029">
        <ele>261.39999389648</ele>
        <time>2012-05-19T09:54:37.000Z</time>
      </trkpt>
      <trkpt lat="44.4306" lon="4.10029">
        <ele>260.79998779297</ele>
        <time>2012-05-19T09:54:40.000Z</time>
      </trkpt>
      <trkpt lat="44.43048" lon="4.10031">
        <ele>260.79998779297</ele>
        <time>2012-05-19T09:54:42.000Z</time>
      </trkpt>
      <trkpt lat="44.43042" lon="4.10034">
        <ele>261.20001220703</ele>
        <time>2012-05-19T09:54:43.000Z</time>
      </trkpt>
      <trkpt lat="44.43027" lon="4.10038">
        <ele>261.60000610352</ele>
        <time>2012-05-19T09:54:46.000Z</time>
      </trkpt>
      <trkpt lat="44.43024" lon="4.10038">
        <ele>261.79998779297</ele>
        <time>2012-05-19T09:54:47.000Z</time>
      </trkpt>
      <trkpt lat="44.43017" lon="4.1004">
        <ele>261.79998779297</ele>
        <time>2012-05-19T09:54:49.000Z</time>
      </trkpt>
      <trkpt lat="44.42998" lon="4.10044">
        <ele>262.79998779297</ele>
        <time>2012-05-19T09:54:54.000Z</time>
      </trkpt>
      <trkpt lat="44.42995" lon="4.10043">
        <ele>263.20001220703</ele>
        <time>2012-05-19T09:54:55.000Z</time>
      </trkpt>
      <trkpt lat="44.42979" lon="4.10038">
        <ele>263.79998779297</ele>
        <time>2012-05-19T09:54:59.000Z</time>
      </trkpt>
      <trkpt lat="44.42961" lon="4.10027">
        <ele>263.39999389648</ele>
        <time>2012-05-19T09:55:05.000Z</time>
      </trkpt>
      <trkpt lat="44.42958" lon="4.10024">
        <ele>263</ele>
        <time>2012-05-19T09:55:06.000Z</time>
      </trkpt>
      <trkpt lat="44.42953" lon="4.10014">
        <ele>261.39999389648</ele>
        <time>2012-05-19T09:55:11.000Z</time>
      </trkpt>
      <trkpt lat="44.42949" lon="4.1001">
        <ele>260.60000610352</ele>
        <time>2012-05-19T09:55:17.000Z</time>
      </trkpt>
      <trkpt lat="44.42949" lon="4.10009">
        <ele>260.39999389648</ele>
        <time>2012-05-19T09:55:36.000Z</time>
      </trkpt>
      <trkpt lat="44.42943" lon="4.10001">
        <ele>259.20001220703</ele>
        <time>2012-05-19T09:55:49.000Z</time>
      </trkpt>
      <trkpt lat="44.4293" lon="4.09988">
        <ele>258.39999389648</ele>
        <time>2012-05-19T09:55:52.000Z</time>
      </trkpt>
      <trkpt lat="44.42915" lon="4.09971">
        <ele>256.20001220703</ele>
        <time>2012-05-19T09:55:55.000Z</time>
      </trkpt>
      <trkpt lat="44.42907" lon="4.09963">
        <ele>254.39999389648</ele>
        <time>2012-05-19T09:55:57.000Z</time>
      </trkpt>
      <trkpt lat="44.42903" lon="4.0996">
        <ele>253.60000610352</ele>
        <time>2012-05-19T09:55:58.000Z</time>
      </trkpt>
      <trkpt lat="44.42887" lon="4.09946">
        <ele>250.60000610352</ele>
        <time>2012-05-19T09:56:01.000Z</time>
      </trkpt>
      <trkpt lat="44.42881" lon="4.09943">
        <ele>249.80000305176</ele>
        <time>2012-05-19T09:56:02.000Z</time>
      </trkpt>
      <trkpt lat="44.42866" lon="4.09937">
        <ele>248.19999694824</ele>
        <time>2012-05-19T09:56:05.000Z</time>
      </trkpt>
      <trkpt lat="44.4286" lon="4.09935">
        <ele>247.80000305176</ele>
        <time>2012-05-19T09:56:06.000Z</time>
      </trkpt>
      <trkpt lat="44.42842" lon="4.09928">
        <ele>246</ele>
        <time>2012-05-19T09:56:09.000Z</time>
      </trkpt>
      <trkpt lat="44.42836" lon="4.09923">
        <ele>245</ele>
        <time>2012-05-19T09:56:10.000Z</time>
      </trkpt>
      <trkpt lat="44.42824" lon="4.09898">
        <ele>241.19999694824</ele>
        <time>2012-05-19T09:56:13.000Z</time>
      </trkpt>
      <trkpt lat="44.42822" lon="4.0989">
        <ele>240.39999389648</ele>
        <time>2012-05-19T09:56:14.000Z</time>
      </trkpt>
      <trkpt lat="44.42821" lon="4.09883">
        <ele>239.60000610352</ele>
        <time>2012-05-19T09:56:16.000Z</time>
      </trkpt>
      <trkpt lat="44.42813" lon="4.09878">
        <ele>238.60000610352</ele>
        <time>2012-05-19T09:56:20.000Z</time>
      </trkpt>
      <trkpt lat="44.42803" lon="4.0988">
        <ele>238.19999694824</ele>
        <time>2012-05-19T09:56:23.000Z</time>
      </trkpt>
      <trkpt lat="44.42795" lon="4.09883">
        <ele>238</ele>
        <time>2012-05-19T09:56:25.000Z</time>
      </trkpt>
      <trkpt lat="44.42776" lon="4.0989">
        <ele>237.19999694824</ele>
        <time>2012-05-19T09:56:29.000Z</time>
      </trkpt>
      <trkpt lat="44.42771" lon="4.09891">
        <ele>236.80000305176</ele>
        <time>2012-05-19T09:56:30.000Z</time>
      </trkpt>
      <trkpt lat="44.42767" lon="4.09892">
        <ele>236.60000610352</ele>
        <time>2012-05-19T09:56:31.000Z</time>
      </trkpt>
      <trkpt lat="44.42761" lon="4.09889">
        <ele>236</ele>
        <time>2012-05-19T09:56:33.000Z</time>
      </trkpt>
      <trkpt lat="44.42754" lon="4.09878">
        <ele>235.39999389648</ele>
        <time>2012-05-19T09:56:36.000Z</time>
      </trkpt>
      <trkpt lat="44.42752" lon="4.09876">
        <ele>235.19999694824</ele>
        <time>2012-05-19T09:56:37.000Z</time>
      </trkpt>
      <trkpt lat="44.42739" lon="4.09857">
        <ele>233.60000610352</ele>
        <time>2012-05-19T09:56:43.000Z</time>
      </trkpt>
      <trkpt lat="44.42728" lon="4.09844">
        <ele>232.19999694824</ele>
        <time>2012-05-19T09:56:48.000Z</time>
      </trkpt>
      <trkpt lat="44.42712" lon="4.09827">
        <ele>230.19999694824</ele>
        <time>2012-05-19T09:56:52.000Z</time>
      </trkpt>
      <trkpt lat="44.42697" lon="4.09811">
        <ele>229</ele>
        <time>2012-05-19T09:56:55.000Z</time>
      </trkpt>
      <trkpt lat="44.42685" lon="4.09801">
        <ele>228.19999694824</ele>
        <time>2012-05-19T09:56:57.000Z</time>
      </trkpt>
      <trkpt lat="44.42665" lon="4.09788">
        <ele>227.60000610352</ele>
        <time>2012-05-19T09:57:00.000Z</time>
      </trkpt>
      <trkpt lat="44.42652" lon="4.09783">
        <ele>226.19999694824</ele>
        <time>2012-05-19T09:57:02.000Z</time>
      </trkpt>
      <trkpt lat="44.42634" lon="4.0978">
        <ele>224.39999389648</ele>
        <time>2012-05-19T09:57:05.000Z</time>
      </trkpt>
      <trkpt lat="44.42622" lon="4.09778">
        <ele>223.19999694824</ele>
        <time>2012-05-19T09:57:07.000Z</time>
      </trkpt>
      <trkpt lat="44.42615" lon="4.09776">
        <ele>222.60000610352</ele>
        <time>2012-05-19T09:57:08.000Z</time>
      </trkpt>
      <trkpt lat="44.42602" lon="4.09764">
        <ele>221.39999389648</ele>
        <time>2012-05-19T09:57:11.000Z</time>
      </trkpt>
      <trkpt lat="44.42599" lon="4.09745">
        <ele>221.19999694824</ele>
        <time>2012-05-19T09:57:14.000Z</time>
      </trkpt>
      <trkpt lat="44.42609" lon="4.09727">
        <ele>219.60000610352</ele>
        <time>2012-05-19T09:57:18.000Z</time>
      </trkpt>
      <trkpt lat="44.4261" lon="4.09724">
        <ele>219.60000610352</ele>
        <time>2012-05-19T09:57:19.000Z</time>
      </trkpt>
      <trkpt lat="44.42612" lon="4.09722">
        <ele>219.39999389648</ele>
        <time>2012-05-19T09:57:20.000Z</time>
      </trkpt>
      <trkpt lat="44.42618" lon="4.09715">
        <ele>219.19999694824</ele>
        <time>2012-05-19T09:57:23.000Z</time>
      </trkpt>
      <trkpt lat="44.42631" lon="4.09702">
        <ele>219.19999694824</ele>
        <time>2012-05-19T09:57:29.000Z</time>
      </trkpt>
      <trkpt lat="44.42646" lon="4.09689">
        <ele>219.60000610352</ele>
        <time>2012-05-19T09:57:34.000Z</time>
      </trkpt>
      <trkpt lat="44.42666" lon="4.09674">
        <ele>220.60000610352</ele>
        <time>2012-05-19T09:57:39.000Z</time>
      </trkpt>
      <trkpt lat="44.42683" lon="4.09663">
        <ele>219.60000610352</ele>
        <time>2012-05-19T09:57:44.000Z</time>
      </trkpt>
      <trkpt lat="44.42689" lon="4.09659">
        <ele>219.19999694824</ele>
        <time>2012-05-19T09:57:46.000Z</time>
      </trkpt>
      <trkpt lat="44.42705" lon="4.09651">
        <ele>218.60000610352</ele>
        <time>2012-05-19T09:57:51.000Z</time>
      </trkpt>
      <trkpt lat="44.42713" lon="4.09642">
        <ele>217.80000305176</ele>
        <time>2012-05-19T09:57:58.000Z</time>
      </trkpt>
      <trkpt lat="44.42707" lon="4.09639">
        <ele>217.19999694824</ele>
        <time>2012-05-19T09:58:02.000Z</time>
      </trkpt>
      <trkpt lat="44.42701" lon="4.09638">
        <ele>216.60000610352</ele>
        <time>2012-05-19T09:58:04.000Z</time>
      </trkpt>
      <trkpt lat="44.42691" lon="4.09634">
        <ele>215.39999389648</ele>
        <time>2012-05-19T09:58:06.000Z</time>
      </trkpt>
      <trkpt lat="44.42672" lon="4.09631">
        <ele>213.39999389648</ele>
        <time>2012-05-19T09:58:10.000Z</time>
      </trkpt>
      <trkpt lat="44.42668" lon="4.09632">
        <ele>213.39999389648</ele>
        <time>2012-05-19T09:58:11.000Z</time>
      </trkpt>
      <trkpt lat="44.4265" lon="4.09639">
        <ele>212</ele>
        <time>2012-05-19T09:58:15.000Z</time>
      </trkpt>
      <trkpt lat="44.42639" lon="4.09644">
        <ele>211.19999694824</ele>
        <time>2012-05-19T09:58:17.000Z</time>
      </trkpt>
      <trkpt lat="44.4262" lon="4.0965">
        <ele>209.60000610352</ele>
        <time>2012-05-19T09:58:21.000Z</time>
      </trkpt>
      <trkpt lat="44.42613" lon="4.09653">
        <ele>209.19999694824</ele>
        <time>2012-05-19T09:58:23.000Z</time>
      </trkpt>
      <trkpt lat="44.42597" lon="4.09662">
        <ele>208.80000305176</ele>
        <time>2012-05-19T09:58:28.000Z</time>
      </trkpt>
      <trkpt lat="44.4259" lon="4.09664">
        <ele>208.39999389648</ele>
        <time>2012-05-19T09:58:33.000Z</time>
      </trkpt>
      <trkpt lat="44.42586" lon="4.09665">
        <ele>208</ele>
        <time>2012-05-19T09:58:36.000Z</time>
      </trkpt>
      <trkpt lat="44.42583" lon="4.09666">
        <ele>207.80000305176</ele>
        <time>2012-05-19T09:58:39.000Z</time>
      </trkpt>
      <trkpt lat="44.42575" lon="4.09673">
        <ele>206.19999694824</ele>
        <time>2012-05-19T09:58:44.000Z</time>
      </trkpt>
      <trkpt lat="44.42572" lon="4.09675">
        <ele>205.19999694824</ele>
        <time>2012-05-19T09:58:50.000Z</time>
      </trkpt>
      <trkpt lat="44.42568" lon="4.09675">
        <ele>204.19999694824</ele>
        <time>2012-05-19T09:59:18.000Z</time>
      </trkpt>
      <trkpt lat="44.42566" lon="4.09676">
        <ele>203.60000610352</ele>
        <time>2012-05-19T09:59:28.000Z</time>
      </trkpt>
      <trkpt lat="44.42564" lon="4.09678">
        <ele>203.39999389648</ele>
        <time>2012-05-19T09:59:35.000Z</time>
      </trkpt>
      <trkpt lat="44.42562" lon="4.09681">
        <ele>203.19999694824</ele>
        <time>2012-05-19T09:59:41.000Z</time>
      </trkpt>
      <trkpt lat="44.42559" lon="4.09686">
        <ele>203</ele>
        <time>2012-05-19T09:59:47.000Z</time>
      </trkpt>
      <trkpt lat="44.4255" lon="4.09696">
        <ele>201.80000305176</ele>
        <time>2012-05-19T09:59:53.000Z</time>
      </trkpt>
      <trkpt lat="44.4255" lon="4.09696">
        <ele>201.80000305176</ele>
        <time>2012-05-19T09:59:58.000Z</time>
      </trkpt>
      <trkpt lat="44.42547" lon="4.09698">
        <ele>201.19999694824</ele>
        <time>2012-05-19T10:00:04.000Z</time>
      </trkpt>
      <trkpt lat="44.42544" lon="4.09694">
        <ele>199.60000610352</ele>
        <time>2012-05-19T10:00:12.000Z</time>
      </trkpt>
      <trkpt lat="44.42543" lon="4.09694">
        <ele>199.19999694824</ele>
        <time>2012-05-19T10:00:13.000Z</time>
      </trkpt>
      <trkpt lat="44.42539" lon="4.0969">
        <ele>197.39999389648</ele>
        <time>2012-05-19T10:00:18.000Z</time>
      </trkpt>
      <trkpt lat="44.42537" lon="4.09689">
        <ele>196.39999389648</ele>
        <time>2012-05-19T10:00:20.000Z</time>
      </trkpt>
      <trkpt lat="44.42533" lon="4.09691">
        <ele>195.80000305176</ele>
        <time>2012-05-19T10:00:23.000Z</time>
      </trkpt>
      <trkpt lat="44.42521" lon="4.09701">
        <ele>193.80000305176</ele>
        <time>2012-05-19T10:00:29.000Z</time>
      </trkpt>
      <trkpt lat="44.42508" lon="4.09711">
        <ele>192.19999694824</ele>
        <time>2012-05-19T10:00:34.000Z</time>
      </trkpt>
      <trkpt lat="44.42502" lon="4.09718">
        <ele>191.60000610352</ele>
        <time>2012-05-19T10:00:40.000Z</time>
      </trkpt>
      <trkpt lat="44.42495" lon="4.09726">
        <ele>191.39999389648</ele>
        <time>2012-05-19T10:00:45.000Z</time>
      </trkpt>
      <trkpt lat="44.42489" lon="4.09731">
        <ele>190.39999389648</ele>
        <time>2012-05-19T10:00:50.000Z</time>
      </trkpt>
      <trkpt lat="44.42481" lon="4.09737">
        <ele>189.19999694824</ele>
        <time>2012-05-19T10:00:54.000Z</time>
      </trkpt>
      <trkpt lat="44.4248" lon="4.09742">
        <ele>189.80000305176</ele>
        <time>2012-05-19T10:00:59.000Z</time>
      </trkpt>
      <trkpt lat="44.42478" lon="4.09748">
        <ele>190.39999389648</ele>
        <time>2012-05-19T10:01:06.000Z</time>
      </trkpt>
      <trkpt lat="44.42473" lon="4.09752">
        <ele>189.39999389648</ele>
        <time>2012-05-19T10:01:13.000Z</time>
      </trkpt>
      <trkpt lat="44.42471" lon="4.09754">
        <ele>188.80000305176</ele>
        <time>2012-05-19T10:01:18.000Z</time>
      </trkpt>
      <trkpt lat="44.42465" lon="4.0976">
        <ele>187.60000610352</ele>
        <time>2012-05-19T10:01:27.000Z</time>
      </trkpt>
      <trkpt lat="44.42458" lon="4.09766">
        <ele>186.19999694824</ele>
        <time>2012-05-19T10:01:33.000Z</time>
      </trkpt>
      <trkpt lat="44.42453" lon="4.09767">
        <ele>184.80000305176</ele>
        <time>2012-05-19T10:01:36.000Z</time>
      </trkpt>
      <trkpt lat="44.42453" lon="4.0977">
        <ele>185.19999694824</ele>
        <time>2012-05-19T10:01:38.000Z</time>
      </trkpt>
      <trkpt lat="44.42452" lon="4.09775">
        <ele>185.60000610352</ele>
        <time>2012-05-19T10:01:42.000Z</time>
      </trkpt>
      <trkpt lat="44.42451" lon="4.09776">
        <ele>185.39999389648</ele>
        <time>2012-05-19T10:01:43.000Z</time>
      </trkpt>
      <trkpt lat="44.42444" lon="4.09783">
        <ele>184.39999389648</ele>
        <time>2012-05-19T10:01:47.000Z</time>
      </trkpt>
      <trkpt lat="44.42442" lon="4.09785">
        <ele>184.19999694824</ele>
        <time>2012-05-19T10:01:48.000Z</time>
      </trkpt>
      <trkpt lat="44.42442" lon="4.09789">
        <ele>184.80000305176</ele>
        <time>2012-05-19T10:01:50.000Z</time>
      </trkpt>
      <trkpt lat="44.4244" lon="4.09796">
        <ele>185.39999389648</ele>
        <time>2012-05-19T10:01:53.000Z</time>
      </trkpt>
      <trkpt lat="44.42432" lon="4.09801">
        <ele>184</ele>
        <time>2012-05-19T10:01:57.000Z</time>
      </trkpt>
      <trkpt lat="44.4243" lon="4.09804">
        <ele>184</ele>
        <time>2012-05-19T10:01:58.000Z</time>
      </trkpt>
      <trkpt lat="44.42422" lon="4.09813">
        <ele>183.60000610352</ele>
        <time>2012-05-19T10:02:02.000Z</time>
      </trkpt>
      <trkpt lat="44.4241" lon="4.09825">
        <ele>183.39999389648</ele>
        <time>2012-05-19T10:02:07.000Z</time>
      </trkpt>
      <trkpt lat="44.424" lon="4.09843">
        <ele>184.19999694824</ele>
        <time>2012-05-19T10:02:11.000Z</time>
      </trkpt>
      <trkpt lat="44.42394" lon="4.09858">
        <ele>185</ele>
        <time>2012-05-19T10:02:15.000Z</time>
      </trkpt>
      <trkpt lat="44.42394" lon="4.09866">
        <ele>186.19999694824</ele>
        <time>2012-05-19T10:02:19.000Z</time>
      </trkpt>
      <trkpt lat="44.42394" lon="4.0988">
        <ele>188</ele>
        <time>2012-05-19T10:02:26.000Z</time>
      </trkpt>
      <trkpt lat="44.42393" lon="4.09883">
        <ele>188.19999694824</ele>
        <time>2012-05-19T10:02:28.000Z</time>
      </trkpt>
      <trkpt lat="44.42391" lon="4.09887">
        <ele>188.39999389648</ele>
        <time>2012-05-19T10:02:31.000Z</time>
      </trkpt>
      <trkpt lat="44.42384" lon="4.09897">
        <ele>187.80000305176</ele>
        <time>2012-05-19T10:02:36.000Z</time>
      </trkpt>
      <trkpt lat="44.42382" lon="4.09899">
        <ele>187.80000305176</ele>
        <time>2012-05-19T10:02:37.000Z</time>
      </trkpt>
      <trkpt lat="44.4238" lon="4.09903">
        <ele>187.60000610352</ele>
        <time>2012-05-19T10:02:39.000Z</time>
      </trkpt>
      <trkpt lat="44.42375" lon="4.09907">
        <ele>187</ele>
        <time>2012-05-19T10:02:41.000Z</time>
      </trkpt>
      <trkpt lat="44.42368" lon="4.09922">
        <ele>187</ele>
        <time>2012-05-19T10:02:46.000Z</time>
      </trkpt>
      <trkpt lat="44.42359" lon="4.09941">
        <ele>187.80000305176</ele>
        <time>2012-05-19T10:02:51.000Z</time>
      </trkpt>
      <trkpt lat="44.42352" lon="4.09957">
        <ele>188.80000305176</ele>
        <time>2012-05-19T10:02:57.000Z</time>
      </trkpt>
      <trkpt lat="44.42342" lon="4.09966">
        <ele>188</ele>
        <time>2012-05-19T10:03:02.000Z</time>
      </trkpt>
      <trkpt lat="44.42329" lon="4.09971">
        <ele>186</ele>
        <time>2012-05-19T10:03:07.000Z</time>
      </trkpt>
      <trkpt lat="44.4232" lon="4.09984">
        <ele>186</ele>
        <time>2012-05-19T10:03:12.000Z</time>
      </trkpt>
      <trkpt lat="44.42307" lon="4.09995">
        <ele>184.80000305176</ele>
        <time>2012-05-19T10:03:17.000Z</time>
      </trkpt>
      <trkpt lat="44.42306" lon="4.09997">
        <ele>184.60000610352</ele>
        <time>2012-05-19T10:03:18.000Z</time>
      </trkpt>
      <trkpt lat="44.42295" lon="4.10004">
        <ele>183</ele>
        <time>2012-05-19T10:03:23.000Z</time>
      </trkpt>
      <trkpt lat="44.42285" lon="4.1001">
        <ele>181.60000610352</ele>
        <time>2012-05-19T10:03:27.000Z</time>
      </trkpt>
      <trkpt lat="44.42276" lon="4.10014">
        <ele>180</ele>
        <time>2012-05-19T10:03:32.000Z</time>
      </trkpt>
      <trkpt lat="44.42273" lon="4.10016">
        <ele>179.80000305176</ele>
        <time>2012-05-19T10:03:33.000Z</time>
      </trkpt>
      <trkpt lat="44.42259" lon="4.10031">
        <ele>178.60000610352</ele>
        <time>2012-05-19T10:03:40.000Z</time>
      </trkpt>
      <trkpt lat="44.42248" lon="4.10037">
        <ele>176.80000305176</ele>
        <time>2012-05-19T10:03:46.000Z</time>
      </trkpt>
      <trkpt lat="44.42239" lon="4.10041">
        <ele>176</ele>
        <time>2012-05-19T10:03:51.000Z</time>
      </trkpt>
      <trkpt lat="44.42234" lon="4.10039">
        <ele>175</ele>
        <time>2012-05-19T10:03:54.000Z</time>
      </trkpt>
      <trkpt lat="44.42232" lon="4.10041">
        <ele>174.80000305176</ele>
        <time>2012-05-19T10:03:58.000Z</time>
      </trkpt>
      <trkpt lat="44.4223" lon="4.10043">
        <ele>174.80000305176</ele>
        <time>2012-05-19T10:04:04.000Z</time>
      </trkpt>
      <trkpt lat="44.42228" lon="4.10043">
        <ele>174.60000610352</ele>
        <time>2012-05-19T10:04:07.000Z</time>
      </trkpt>
      <trkpt lat="44.42228" lon="4.10048">
        <ele>175</ele>
        <time>2012-05-19T10:04:38.000Z</time>
      </trkpt>
      <trkpt lat="44.42228" lon="4.10046">
        <ele>174.80000305176</ele>
        <time>2012-05-19T10:05:18.000Z</time>
      </trkpt>
      <trkpt lat="44.42226" lon="4.10048">
        <ele>174.60000610352</ele>
        <time>2012-05-19T10:05:20.000Z</time>
      </trkpt>
      <trkpt lat="44.42219" lon="4.1005">
        <ele>173.80000305176</ele>
        <time>2012-05-19T10:05:25.000Z</time>
      </trkpt>
      <trkpt lat="44.4221" lon="4.10055">
        <ele>172.80000305176</ele>
        <time>2012-05-19T10:05:31.000Z</time>
      </trkpt>
      <trkpt lat="44.42201" lon="4.10059">
        <ele>171.39999389648</ele>
        <time>2012-05-19T10:05:37.000Z</time>
      </trkpt>
      <trkpt lat="44.42189" lon="4.10065">
        <ele>169.80000305176</ele>
        <time>2012-05-19T10:05:44.000Z</time>
      </trkpt>
      <trkpt lat="44.42187" lon="4.10068">
        <ele>169.39999389648</ele>
        <time>2012-05-19T10:05:49.000Z</time>
      </trkpt>
      <trkpt lat="44.42184" lon="4.10072">
        <ele>169.19999694824</ele>
        <time>2012-05-19T10:05:55.000Z</time>
      </trkpt>
      <trkpt lat="44.42183" lon="4.10075">
        <ele>169.19999694824</ele>
        <time>2012-05-19T10:06:00.000Z</time>
      </trkpt>
      <trkpt lat="44.42183" lon="4.10082">
        <ele>169.60000610352</ele>
        <time>2012-05-19T10:06:06.000Z</time>
      </trkpt>
      <trkpt lat="44.42178" lon="4.10086">
        <ele>169</ele>
        <time>2012-05-19T10:06:11.000Z</time>
      </trkpt>
      <trkpt lat="44.4217" lon="4.10091">
        <ele>168.19999694824</ele>
        <time>2012-05-19T10:06:18.000Z</time>
      </trkpt>
      <trkpt lat="44.42169" lon="4.10092">
        <ele>168</ele>
        <time>2012-05-19T10:06:25.000Z</time>
      </trkpt>
      <trkpt lat="44.42168" lon="4.10095">
        <ele>168.60000610352</ele>
        <time>2012-05-19T10:06:33.000Z</time>
      </trkpt>
      <trkpt lat="44.42168" lon="4.10101">
        <ele>169.60000610352</ele>
        <time>2012-05-19T10:06:40.000Z</time>
      </trkpt>
      <trkpt lat="44.42164" lon="4.10108">
        <ele>170.39999389648</ele>
        <time>2012-05-19T10:06:48.000Z</time>
      </trkpt>
      <trkpt lat="44.42159" lon="4.10112">
        <ele>170.80000305176</ele>
        <time>2012-05-19T10:06:56.000Z</time>
      </trkpt>
      <trkpt lat="44.42154" lon="4.10117">
        <ele>171</ele>
        <time>2012-05-19T10:07:03.000Z</time>
      </trkpt>
      <trkpt lat="44.42156" lon="4.10121">
        <ele>172</ele>
        <time>2012-05-19T10:07:05.000Z</time>
      </trkpt>
      <trkpt lat="44.42157" lon="4.10124">
        <ele>172.60000610352</ele>
        <time>2012-05-19T10:07:07.000Z</time>
      </trkpt>
      <trkpt lat="44.42154" lon="4.1013">
        <ele>173.19999694824</ele>
        <time>2012-05-19T10:07:12.000Z</time>
      </trkpt>
      <trkpt lat="44.42154" lon="4.10139">
        <ele>174.60000610352</ele>
        <time>2012-05-19T10:07:19.000Z</time>
      </trkpt>
      <trkpt lat="44.42151" lon="4.10149">
        <ele>176</ele>
        <time>2012-05-19T10:07:27.000Z</time>
      </trkpt>
      <trkpt lat="44.4215" lon="4.10151">
        <ele>176</ele>
        <time>2012-05-19T10:07:30.000Z</time>
      </trkpt>
      <trkpt lat="44.42148" lon="4.10153">
        <ele>176</ele>
        <time>2012-05-19T10:07:32.000Z</time>
      </trkpt>
      <trkpt lat="44.42144" lon="4.10157">
        <ele>175.60000610352</ele>
        <time>2012-05-19T10:07:37.000Z</time>
      </trkpt>
      <trkpt lat="44.42143" lon="4.10159">
        <ele>175.80000305176</ele>
        <time>2012-05-19T10:07:38.000Z</time>
      </trkpt>
      <trkpt lat="44.42145" lon="4.10162">
        <ele>176.60000610352</ele>
        <time>2012-05-19T10:07:40.000Z</time>
      </trkpt>
      <trkpt lat="44.42144" lon="4.10163">
        <ele>176.60000610352</ele>
        <time>2012-05-19T10:07:41.000Z</time>
      </trkpt>
      <trkpt lat="44.42145" lon="4.10165">
        <ele>177</ele>
        <time>2012-05-19T10:07:44.000Z</time>
      </trkpt>
      <trkpt lat="44.42145" lon="4.10167">
        <ele>177.39999389648</ele>
        <time>2012-05-19T10:07:46.000Z</time>
      </trkpt>
      <trkpt lat="44.42144" lon="4.10172">
        <ele>178.80000305176</ele>
        <time>2012-05-19T10:07:51.000Z</time>
      </trkpt>
      <trkpt lat="44.42144" lon="4.10173">
        <ele>179.19999694824</ele>
        <time>2012-05-19T10:07:52.000Z</time>
      </trkpt>
      <trkpt lat="44.42143" lon="4.10175">
        <ele>179.39999389648</ele>
        <time>2012-05-19T10:07:56.000Z</time>
      </trkpt>
      <trkpt lat="44.42139" lon="4.1018">
        <ele>180.19999694824</ele>
        <time>2012-05-19T10:08:04.000Z</time>
      </trkpt>
      <trkpt lat="44.42135" lon="4.10187">
        <ele>181.60000610352</ele>
        <time>2012-05-19T10:08:12.000Z</time>
      </trkpt>
      <trkpt lat="44.42134" lon="4.1019">
        <ele>182.19999694824</ele>
        <time>2012-05-19T10:08:18.000Z</time>
      </trkpt>
      <trkpt lat="44.42135" lon="4.10196">
        <ele>184.19999694824</ele>
        <time>2012-05-19T10:08:26.000Z</time>
      </trkpt>
      <trkpt lat="44.42134" lon="4.10203">
        <ele>185.80000305176</ele>
        <time>2012-05-19T10:08:32.000Z</time>
      </trkpt>
      <trkpt lat="44.42132" lon="4.10207">
        <ele>186.80000305176</ele>
        <time>2012-05-19T10:08:40.000Z</time>
      </trkpt>
      <trkpt lat="44.42129" lon="4.10212">
        <ele>187.19999694824</ele>
        <time>2012-05-19T10:08:48.000Z</time>
      </trkpt>
      <trkpt lat="44.42125" lon="4.10218">
        <ele>187.80000305176</ele>
        <time>2012-05-19T10:08:59.000Z</time>
      </trkpt>
      <trkpt lat="44.4212" lon="4.10223">
        <ele>187.60000610352</ele>
        <time>2012-05-19T10:09:06.000Z</time>
      </trkpt>
      <trkpt lat="44.42118" lon="4.10223">
        <ele>187</ele>
        <time>2012-05-19T10:09:09.000Z</time>
      </trkpt>
      <trkpt lat="44.42117" lon="4.10226">
        <ele>187.60000610352</ele>
        <time>2012-05-19T10:09:12.000Z</time>
      </trkpt>
      <trkpt lat="44.42115" lon="4.10232">
        <ele>188.60000610352</ele>
        <time>2012-05-19T10:09:17.000Z</time>
      </trkpt>
      <trkpt lat="44.42113" lon="4.10236">
        <ele>189</ele>
        <time>2012-05-19T10:09:21.000Z</time>
      </trkpt>
      <trkpt lat="44.42109" lon="4.10243">
        <ele>189.60000610352</ele>
        <time>2012-05-19T10:09:32.000Z</time>
      </trkpt>
      <trkpt lat="44.42108" lon="4.10254">
        <ele>192.39999389648</ele>
        <time>2012-05-19T10:09:41.000Z</time>
      </trkpt>
      <trkpt lat="44.42105" lon="4.10258">
        <ele>192.60000610352</ele>
        <time>2012-05-19T10:09:45.000Z</time>
      </trkpt>
      <trkpt lat="44.42104" lon="4.10259">
        <ele>192.60000610352</ele>
        <time>2012-05-19T10:09:46.000Z</time>
      </trkpt>
      <trkpt lat="44.421" lon="4.10263">
        <ele>192.80000305176</ele>
        <time>2012-05-19T10:09:52.000Z</time>
      </trkpt>
      <trkpt lat="44.42098" lon="4.10268">
        <ele>193.80000305176</ele>
        <time>2012-05-19T10:09:58.000Z</time>
      </trkpt>
      <trkpt lat="44.42093" lon="4.10267">
        <ele>192</ele>
        <time>2012-05-19T10:10:07.000Z</time>
      </trkpt>
      <trkpt lat="44.42088" lon="4.10271">
        <ele>192</ele>
        <time>2012-05-19T10:10:15.000Z</time>
      </trkpt>
      <trkpt lat="44.42086" lon="4.10274">
        <ele>192.19999694824</ele>
        <time>2012-05-19T10:10:19.000Z</time>
      </trkpt>
      <trkpt lat="44.42083" lon="4.10278">
        <ele>192.80000305176</ele>
        <time>2012-05-19T10:10:24.000Z</time>
      </trkpt>
      <trkpt lat="44.42081" lon="4.10279">
        <ele>193</ele>
        <time>2012-05-19T10:10:27.000Z</time>
      </trkpt>
      <trkpt lat="44.42081" lon="4.1028">
        <ele>193.19999694824</ele>
        <time>2012-05-19T10:10:28.000Z</time>
      </trkpt>
      <trkpt lat="44.42077" lon="4.10287">
        <ele>195</ele>
        <time>2012-05-19T10:10:36.000Z</time>
      </trkpt>
      <trkpt lat="44.42065" lon="4.10294">
        <ele>194.80000305176</ele>
        <time>2012-05-19T10:10:43.000Z</time>
      </trkpt>
      <trkpt lat="44.42059" lon="4.10297">
        <ele>194.80000305176</ele>
        <time>2012-05-19T10:10:46.000Z</time>
      </trkpt>
      <trkpt lat="44.42056" lon="4.10299">
        <ele>194.60000610352</ele>
        <time>2012-05-19T10:10:48.000Z</time>
      </trkpt>
      <trkpt lat="44.42052" lon="4.10307">
        <ele>196.39999389648</ele>
        <time>2012-05-19T10:10:52.000Z</time>
      </trkpt>
      <trkpt lat="44.42052" lon="4.10308">
        <ele>196.80000305176</ele>
        <time>2012-05-19T10:10:53.000Z</time>
      </trkpt>
      <trkpt lat="44.42049" lon="4.10312">
        <ele>197.19999694824</ele>
        <time>2012-05-19T10:10:56.000Z</time>
      </trkpt>
      <trkpt lat="44.42048" lon="4.10313">
        <ele>197.39999389648</ele>
        <time>2012-05-19T10:10:57.000Z</time>
      </trkpt>
      <trkpt lat="44.42045" lon="4.10314">
        <ele>197</ele>
        <time>2012-05-19T10:10:59.000Z</time>
      </trkpt>
      <trkpt lat="44.42038" lon="4.1032">
        <ele>197</ele>
        <time>2012-05-19T10:11:05.000Z</time>
      </trkpt>
      <trkpt lat="44.42032" lon="4.10326">
        <ele>197</ele>
        <time>2012-05-19T10:11:12.000Z</time>
      </trkpt>
      <trkpt lat="44.42027" lon="4.10328">
        <ele>196.60000610352</ele>
        <time>2012-05-19T10:11:17.000Z</time>
      </trkpt>
      <trkpt lat="44.42028" lon="4.1033">
        <ele>197.19999694824</ele>
        <time>2012-05-19T10:11:18.000Z</time>
      </trkpt>
      <trkpt lat="44.42025" lon="4.10328">
        <ele>196</ele>
        <time>2012-05-19T10:11:23.000Z</time>
      </trkpt>
      <trkpt lat="44.42022" lon="4.1033">
        <ele>195.39999389648</ele>
        <time>2012-05-19T10:11:30.000Z</time>
      </trkpt>
      <trkpt lat="44.42018" lon="4.10335">
        <ele>195.80000305176</ele>
        <time>2012-05-19T10:11:37.000Z</time>
      </trkpt>
      <trkpt lat="44.42013" lon="4.10339">
        <ele>195.19999694824</ele>
        <time>2012-05-19T10:11:43.000Z</time>
      </trkpt>
      <trkpt lat="44.42009" lon="4.10341">
        <ele>194.80000305176</ele>
        <time>2012-05-19T10:11:47.000Z</time>
      </trkpt>
      <trkpt lat="44.42007" lon="4.10348">
        <ele>196</ele>
        <time>2012-05-19T10:11:55.000Z</time>
      </trkpt>
      <trkpt lat="44.42006" lon="4.10348">
        <ele>196</ele>
        <time>2012-05-19T10:11:56.000Z</time>
      </trkpt>
      <trkpt lat="44.42001" lon="4.10352">
        <ele>195.60000610352</ele>
        <time>2012-05-19T10:12:01.000Z</time>
      </trkpt>
      <trkpt lat="44.41998" lon="4.10353">
        <ele>195.60000610352</ele>
        <time>2012-05-19T10:12:04.000Z</time>
      </trkpt>
      <trkpt lat="44.41993" lon="4.10355">
        <ele>195</ele>
        <time>2012-05-19T10:12:09.000Z</time>
      </trkpt>
      <trkpt lat="44.41988" lon="4.10355">
        <ele>194.39999389648</ele>
        <time>2012-05-19T10:12:17.000Z</time>
      </trkpt>
      <trkpt lat="44.41983" lon="4.10356">
        <ele>193.39999389648</ele>
        <time>2012-05-19T10:12:28.000Z</time>
      </trkpt>
      <trkpt lat="44.41979" lon="4.10359">
        <ele>193.80000305176</ele>
        <time>2012-05-19T10:12:34.000Z</time>
      </trkpt>
      <trkpt lat="44.41977" lon="4.10362">
        <ele>194.39999389648</ele>
        <time>2012-05-19T10:12:39.000Z</time>
      </trkpt>
      <trkpt lat="44.41976" lon="4.10367">
        <ele>195.39999389648</ele>
        <time>2012-05-19T10:12:45.000Z</time>
      </trkpt>
      <trkpt lat="44.41974" lon="4.1037">
        <ele>196</ele>
        <time>2012-05-19T10:12:51.000Z</time>
      </trkpt>
      <trkpt lat="44.41971" lon="4.10374">
        <ele>196.39999389648</ele>
        <time>2012-05-19T10:12:58.000Z</time>
      </trkpt>
      <trkpt lat="44.41969" lon="4.10378">
        <ele>197</ele>
        <time>2012-05-19T10:13:05.000Z</time>
      </trkpt>
      <trkpt lat="44.41967" lon="4.10378">
        <ele>197</ele>
        <time>2012-05-19T10:13:12.000Z</time>
      </trkpt>
      <trkpt lat="44.41966" lon="4.10377">
        <ele>196.19999694824</ele>
        <time>2012-05-19T10:14:24.000Z</time>
      </trkpt>
      <trkpt lat="44.41964" lon="4.10381">
        <ele>197.19999694824</ele>
        <time>2012-05-19T10:15:14.000Z</time>
      </trkpt>
      <trkpt lat="44.41962" lon="4.10382">
        <ele>196.80000305176</ele>
        <time>2012-05-19T10:15:15.000Z</time>
      </trkpt>
      <trkpt lat="44.41946" lon="4.10381">
        <ele>193.39999389648</ele>
        <time>2012-05-19T10:15:20.000Z</time>
      </trkpt>
      <trkpt lat="44.41927" lon="4.10385">
        <ele>190.80000305176</ele>
        <time>2012-05-19T10:15:24.000Z</time>
      </trkpt>
      <trkpt lat="44.41923" lon="4.10387">
        <ele>190.39999389648</ele>
        <time>2012-05-19T10:15:25.000Z</time>
      </trkpt>
      <trkpt lat="44.4191" lon="4.10395">
        <ele>192</ele>
        <time>2012-05-19T10:15:29.000Z</time>
      </trkpt>
      <trkpt lat="44.419" lon="4.10402">
        <ele>195</ele>
        <time>2012-05-19T10:15:32.000Z</time>
      </trkpt>
      <trkpt lat="44.41897" lon="4.10405">
        <ele>196.19999694824</ele>
        <time>2012-05-19T10:15:33.000Z</time>
      </trkpt>
      <trkpt lat="44.41881" lon="4.10422">
        <ele>200.80000305176</ele>
        <time>2012-05-19T10:15:37.000Z</time>
      </trkpt>
      <trkpt lat="44.41878" lon="4.10427">
        <ele>201.19999694824</ele>
        <time>2012-05-19T10:15:38.000Z</time>
      </trkpt>
      <trkpt lat="44.41875" lon="4.10434">
        <ele>201.19999694824</ele>
        <time>2012-05-19T10:15:39.000Z</time>
      </trkpt>
      <trkpt lat="44.41875" lon="4.1045">
        <ele>201.19999694824</ele>
        <time>2012-05-19T10:15:41.000Z</time>
      </trkpt>
      <trkpt lat="44.41885" lon="4.10474">
        <ele>199.80000305176</ele>
        <time>2012-05-19T10:15:44.000Z</time>
      </trkpt>
      <trkpt lat="44.41904" lon="4.10489">
        <ele>198</ele>
        <time>2012-05-19T10:15:47.000Z</time>
      </trkpt>
      <trkpt lat="44.41911" lon="4.10493">
        <ele>197.39999389648</ele>
        <time>2012-05-19T10:15:48.000Z</time>
      </trkpt>
      <trkpt lat="44.41926" lon="4.105">
        <ele>196.60000610352</ele>
        <time>2012-05-19T10:15:50.000Z</time>
      </trkpt>
      <trkpt lat="44.41943" lon="4.10499">
        <ele>196.19999694824</ele>
        <time>2012-05-19T10:15:52.000Z</time>
      </trkpt>
      <trkpt lat="44.41961" lon="4.10495">
        <ele>196.19999694824</ele>
        <time>2012-05-19T10:15:54.000Z</time>
      </trkpt>
      <trkpt lat="44.41978" lon="4.10488">
        <ele>197</ele>
        <time>2012-05-19T10:15:56.000Z</time>
      </trkpt>
      <trkpt lat="44.42001" lon="4.10476">
        <ele>200</ele>
        <time>2012-05-19T10:15:59.000Z</time>
      </trkpt>
      <trkpt lat="44.42007" lon="4.10473">
        <ele>200.39999389648</ele>
        <time>2012-05-19T10:16:00.000Z</time>
      </trkpt>
      <trkpt lat="44.42029" lon="4.10461">
        <ele>202.39999389648</ele>
        <time>2012-05-19T10:16:04.000Z</time>
      </trkpt>
      <trkpt lat="44.42035" lon="4.10459">
        <ele>203</ele>
        <time>2012-05-19T10:16:05.000Z</time>
      </trkpt>
      <trkpt lat="44.42054" lon="4.10453">
        <ele>204</ele>
        <time>2012-05-19T10:16:08.000Z</time>
      </trkpt>
      <trkpt lat="44.42074" lon="4.1045">
        <ele>204.39999389648</ele>
        <time>2012-05-19T10:16:11.000Z</time>
      </trkpt>
      <trkpt lat="44.42095" lon="4.10449">
        <ele>204</ele>
        <time>2012-05-19T10:16:15.000Z</time>
      </trkpt>
      <trkpt lat="44.42092" lon="4.1046">
        <ele>199.80000305176</ele>
        <time>2012-05-19T10:16:17.000Z</time>
      </trkpt>
      <trkpt lat="44.42078" lon="4.10469">
        <ele>197.60000610352</ele>
        <time>2012-05-19T10:16:20.000Z</time>
      </trkpt>
      <trkpt lat="44.42064" lon="4.10473">
        <ele>197</ele>
        <time>2012-05-19T10:16:22.000Z</time>
      </trkpt>
      <trkpt lat="44.42056" lon="4.10478">
        <ele>195.80000305176</ele>
        <time>2012-05-19T10:16:23.000Z</time>
      </trkpt>
      <trkpt lat="44.42048" lon="4.10484">
        <ele>194.60000610352</ele>
        <time>2012-05-19T10:16:24.000Z</time>
      </trkpt>
      <trkpt lat="44.42032" lon="4.10499">
        <ele>191</ele>
        <time>2012-05-19T10:16:26.000Z</time>
      </trkpt>
      <trkpt lat="44.42024" lon="4.10508">
        <ele>189.80000305176</ele>
        <time>2012-05-19T10:16:27.000Z</time>
      </trkpt>
      <trkpt lat="44.42016" lon="4.10515">
        <ele>188.80000305176</ele>
        <time>2012-05-19T10:16:28.000Z</time>
      </trkpt>
      <trkpt lat="44.42002" lon="4.10533">
        <ele>185.60000610352</ele>
        <time>2012-05-19T10:16:31.000Z</time>
      </trkpt>
      <trkpt lat="44.42009" lon="4.10544">
        <ele>182.19999694824</ele>
        <time>2012-05-19T10:16:33.000Z</time>
      </trkpt>
      <trkpt lat="44.42026" lon="4.10541">
        <ele>181.80000305176</ele>
        <time>2012-05-19T10:16:35.000Z</time>
      </trkpt>
      <trkpt lat="44.42044" lon="4.10537">
        <ele>181.39999389648</ele>
        <time>2012-05-19T10:16:37.000Z</time>
      </trkpt>
      <trkpt lat="44.4205" lon="4.10541">
        <ele>180</ele>
        <time>2012-05-19T10:16:38.000Z</time>
      </trkpt>
      <trkpt lat="44.42047" lon="4.1056">
        <ele>176</ele>
        <time>2012-05-19T10:16:40.000Z</time>
      </trkpt>
      <trkpt lat="44.42042" lon="4.1058">
        <ele>171.80000305176</ele>
        <time>2012-05-19T10:16:42.000Z</time>
      </trkpt>
      <trkpt lat="44.42046" lon="4.10602">
        <ele>169</ele>
        <time>2012-05-19T10:16:44.000Z</time>
      </trkpt>
      <trkpt lat="44.42049" lon="4.10615">
        <ele>167.60000610352</ele>
        <time>2012-05-19T10:16:45.000Z</time>
      </trkpt>
      <trkpt lat="44.42055" lon="4.1064">
        <ele>165.39999389648</ele>
        <time>2012-05-19T10:16:47.000Z</time>
      </trkpt>
      <trkpt lat="44.42063" lon="4.1067">
        <ele>163.19999694824</ele>
        <time>2012-05-19T10:16:50.000Z</time>
      </trkpt>
      <trkpt lat="44.42067" lon="4.10676">
        <ele>163</ele>
        <time>2012-05-19T10:16:51.000Z</time>
      </trkpt>
      <trkpt lat="44.42079" lon="4.1068">
        <ele>163.19999694824</ele>
        <time>2012-05-19T10:16:53.000Z</time>
      </trkpt>
      <trkpt lat="44.42094" lon="4.10679">
        <ele>163.19999694824</ele>
        <time>2012-05-19T10:16:55.000Z</time>
      </trkpt>
      <trkpt lat="44.42114" lon="4.10682">
        <ele>163</ele>
        <time>2012-05-19T10:16:58.000Z</time>
      </trkpt>
      <trkpt lat="44.42133" lon="4.10685">
        <ele>162.60000610352</ele>
        <time>2012-05-19T10:17:01.000Z</time>
      </trkpt>
      <trkpt lat="44.42155" lon="4.1069">
        <ele>162</ele>
        <time>2012-05-19T10:17:05.000Z</time>
      </trkpt>
      <trkpt lat="44.42175" lon="4.10698">
        <ele>161.19999694824</ele>
        <time>2012-05-19T10:17:09.000Z</time>
      </trkpt>
      <trkpt lat="44.42183" lon="4.10703">
        <ele>160.60000610352</ele>
        <time>2012-05-19T10:17:11.000Z</time>
      </trkpt>
      <trkpt lat="44.42202" lon="4.10717">
        <ele>159.39999389648</ele>
        <time>2012-05-19T10:17:15.000Z</time>
      </trkpt>
      <trkpt lat="44.42207" lon="4.1072">
        <ele>159.19999694824</ele>
        <time>2012-05-19T10:17:16.000Z</time>
      </trkpt>
      <trkpt lat="44.42217" lon="4.10723">
        <ele>158.60000610352</ele>
        <time>2012-05-19T10:17:18.000Z</time>
      </trkpt>
      <trkpt lat="44.42233" lon="4.10725">
        <ele>158.19999694824</ele>
        <time>2012-05-19T10:17:21.000Z</time>
      </trkpt>
      <trkpt lat="44.42237" lon="4.10727">
        <ele>158</ele>
        <time>2012-05-19T10:17:22.000Z</time>
      </trkpt>
      <trkpt lat="44.42249" lon="4.10735">
        <ele>157.39999389648</ele>
        <time>2012-05-19T10:17:25.000Z</time>
      </trkpt>
      <trkpt lat="44.42255" lon="4.10741">
        <ele>157.39999389648</ele>
        <time>2012-05-19T10:17:27.000Z</time>
      </trkpt>
      <trkpt lat="44.42264" lon="4.10752">
        <ele>157.39999389648</ele>
        <time>2012-05-19T10:17:29.000Z</time>
      </trkpt>
      <trkpt lat="44.42267" lon="4.10759">
        <ele>157.19999694824</ele>
        <time>2012-05-19T10:17:30.000Z</time>
      </trkpt>
      <trkpt lat="44.42273" lon="4.10788">
        <ele>156.60000610352</ele>
        <time>2012-05-19T10:17:33.000Z</time>
      </trkpt>
      <trkpt lat="44.42274" lon="4.10797">
        <ele>156.39999389648</ele>
        <time>2012-05-19T10:17:34.000Z</time>
      </trkpt>
      <trkpt lat="44.4228" lon="4.10822">
        <ele>155.60000610352</ele>
        <time>2012-05-19T10:17:37.000Z</time>
      </trkpt>
      <trkpt lat="44.42283" lon="4.10828">
        <ele>155.39999389648</ele>
        <time>2012-05-19T10:17:38.000Z</time>
      </trkpt>
      <trkpt lat="44.42293" lon="4.10846">
        <ele>154.60000610352</ele>
        <time>2012-05-19T10:17:42.000Z</time>
      </trkpt>
      <trkpt lat="44.42295" lon="4.10849">
        <ele>154.60000610352</ele>
        <time>2012-05-19T10:17:43.000Z</time>
      </trkpt>
      <trkpt lat="44.42306" lon="4.10864">
        <ele>154</ele>
        <time>2012-05-19T10:17:49.000Z</time>
      </trkpt>
      <trkpt lat="44.4232" lon="4.10882">
        <ele>153.60000610352</ele>
        <time>2012-05-19T10:17:57.000Z</time>
      </trkpt>
      <trkpt lat="44.42322" lon="4.10885">
        <ele>153.39999389648</ele>
        <time>2012-05-19T10:17:58.000Z</time>
      </trkpt>
      <trkpt lat="44.42335" lon="4.10902">
        <ele>153.19999694824</ele>
        <time>2012-05-19T10:18:03.000Z</time>
      </trkpt>
      <trkpt lat="44.42342" lon="4.10915">
        <ele>153.19999694824</ele>
        <time>2012-05-19T10:18:06.000Z</time>
      </trkpt>
      <trkpt lat="44.42346" lon="4.10924">
        <ele>153.80000305176</ele>
        <time>2012-05-19T10:18:08.000Z</time>
      </trkpt>
      <trkpt lat="44.42353" lon="4.1094">
        <ele>155</ele>
        <time>2012-05-19T10:18:14.000Z</time>
      </trkpt>
      <trkpt lat="44.42359" lon="4.10957">
        <ele>156.19999694824</ele>
        <time>2012-05-19T10:18:21.000Z</time>
      </trkpt>
      <trkpt lat="44.42362" lon="4.10961">
        <ele>156.60000610352</ele>
        <time>2012-05-19T10:18:24.000Z</time>
      </trkpt>
      <trkpt lat="44.42365" lon="4.10957">
        <ele>156.39999389648</ele>
        <time>2012-05-19T10:18:26.000Z</time>
      </trkpt>
      <trkpt lat="44.42374" lon="4.10948">
        <ele>156</ele>
        <time>2012-05-19T10:18:31.000Z</time>
      </trkpt>
      <trkpt lat="44.42376" lon="4.10937">
        <ele>155.39999389648</ele>
        <time>2012-05-19T10:18:37.000Z</time>
      </trkpt>
      <trkpt lat="44.42378" lon="4.10934">
        <ele>155.19999694824</ele>
        <time>2012-05-19T10:18:40.000Z</time>
      </trkpt>
      <trkpt lat="44.42378" lon="4.10934">
        <ele>155.19999694824</ele>
        <time>2012-05-19T10:18:41.000Z</time>
      </trkpt>
      <trkpt lat="44.42378" lon="4.10931">
        <ele>155</ele>
        <time>2012-05-19T10:18:49.000Z</time>
      </trkpt>
      <trkpt lat="44.42376" lon="4.10931">
        <ele>155</ele>
        <time>2012-05-19T10:19:40.000Z</time>
      </trkpt>
      <trkpt lat="44.42376" lon="4.1093">
        <ele>154.80000305176</ele>
        <time>2012-05-19T10:19:53.000Z</time>
      </trkpt>
      <trkpt lat="44.42376" lon="4.10938">
        <ele>155.39999389648</ele>
        <time>2012-05-19T10:21:41.000Z</time>
      </trkpt>
      <trkpt lat="44.42375" lon="4.10933">
        <ele>155</ele>
        <time>2012-05-19T10:23:08.000Z</time>
      </trkpt>
      <trkpt lat="44.42376" lon="4.1094">
        <ele>155.60000610352</ele>
        <time>2012-05-19T10:23:19.000Z</time>
      </trkpt>
      <trkpt lat="44.42375" lon="4.10943">
        <ele>155.80000305176</ele>
        <time>2012-05-19T10:23:22.000Z</time>
      </trkpt>
      <trkpt lat="44.42374" lon="4.10945">
        <ele>155.80000305176</ele>
        <time>2012-05-19T10:23:24.000Z</time>
      </trkpt>
      <trkpt lat="44.42373" lon="4.10946">
        <ele>155.80000305176</ele>
        <time>2012-05-19T10:23:25.000Z</time>
      </trkpt>
      <trkpt lat="44.4237" lon="4.10949">
        <ele>156</ele>
        <time>2012-05-19T10:23:28.000Z</time>
      </trkpt>
      <trkpt lat="44.42364" lon="4.1096">
        <ele>156.60000610352</ele>
        <time>2012-05-19T10:23:34.000Z</time>
      </trkpt>
      <trkpt lat="44.42362" lon="4.10967">
        <ele>157</ele>
        <time>2012-05-19T10:23:37.000Z</time>
      </trkpt>
      <trkpt lat="44.42362" lon="4.10971">
        <ele>157.19999694824</ele>
        <time>2012-05-19T10:23:39.000Z</time>
      </trkpt>
      <trkpt lat="44.42361" lon="4.10975">
        <ele>157.39999389648</ele>
        <time>2012-05-19T10:23:41.000Z</time>
      </trkpt>
      <trkpt lat="44.42359" lon="4.10983">
        <ele>157.80000305176</ele>
        <time>2012-05-19T10:23:45.000Z</time>
      </trkpt>
      <trkpt lat="44.42351" lon="4.10994">
        <ele>158.19999694824</ele>
        <time>2012-05-19T10:23:51.000Z</time>
      </trkpt>
      <trkpt lat="44.42349" lon="4.10997">
        <ele>158.39999389648</ele>
        <time>2012-05-19T10:23:53.000Z</time>
      </trkpt>
      <trkpt lat="44.4235" lon="4.11002">
        <ele>158.80000305176</ele>
        <time>2012-05-19T10:23:55.000Z</time>
      </trkpt>
      <trkpt lat="44.42355" lon="4.11005">
        <ele>159.39999389648</ele>
        <time>2012-05-19T10:23:59.000Z</time>
      </trkpt>
      <trkpt lat="44.4236" lon="4.11">
        <ele>159</ele>
        <time>2012-05-19T10:24:02.000Z</time>
      </trkpt>
      <trkpt lat="44.42366" lon="4.10994">
        <ele>158.80000305176</ele>
        <time>2012-05-19T10:24:05.000Z</time>
      </trkpt>
      <trkpt lat="44.42379" lon="4.1098">
        <ele>158.19999694824</ele>
        <time>2012-05-19T10:24:12.000Z</time>
      </trkpt>
      <trkpt lat="44.42393" lon="4.10973">
        <ele>158.19999694824</ele>
        <time>2012-05-19T10:24:18.000Z</time>
      </trkpt>
      <trkpt lat="44.42407" lon="4.10969">
        <ele>158.39999389648</ele>
        <time>2012-05-19T10:24:24.000Z</time>
      </trkpt>
      <trkpt lat="44.42415" lon="4.10969">
        <ele>158.80000305176</ele>
        <time>2012-05-19T10:24:28.000Z</time>
      </trkpt>
      <trkpt lat="44.42415" lon="4.10972">
        <ele>159</ele>
        <time>2012-05-19T10:24:29.000Z</time>
      </trkpt>
      <trkpt lat="44.4241" lon="4.10976">
        <ele>159</ele>
        <time>2012-05-19T10:24:32.000Z</time>
      </trkpt>
      <trkpt lat="44.42404" lon="4.10976">
        <ele>158.80000305176</ele>
        <time>2012-05-19T10:24:34.000Z</time>
      </trkpt>
      <trkpt lat="44.42393" lon="4.10979">
        <ele>158.60000610352</ele>
        <time>2012-05-19T10:24:38.000Z</time>
      </trkpt>
      <trkpt lat="44.42378" lon="4.10994">
        <ele>159.19999694824</ele>
        <time>2012-05-19T10:24:43.000Z</time>
      </trkpt>
      <trkpt lat="44.42361" lon="4.11014">
        <ele>160.80000305176</ele>
        <time>2012-05-19T10:24:48.000Z</time>
      </trkpt>
      <trkpt lat="44.4235" lon="4.11024">
        <ele>161.80000305176</ele>
        <time>2012-05-19T10:24:51.000Z</time>
      </trkpt>
      <trkpt lat="44.4233" lon="4.11037">
        <ele>163.39999389648</ele>
        <time>2012-05-19T10:24:56.000Z</time>
      </trkpt>
      <trkpt lat="44.4232" lon="4.11041">
        <ele>164.19999694824</ele>
        <time>2012-05-19T10:24:58.000Z</time>
      </trkpt>
      <trkpt lat="44.42298" lon="4.11047">
        <ele>166</ele>
        <time>2012-05-19T10:25:02.000Z</time>
      </trkpt>
      <trkpt lat="44.42292" lon="4.11047">
        <ele>166.19999694824</ele>
        <time>2012-05-19T10:25:03.000Z</time>
      </trkpt>
      <trkpt lat="44.4228" lon="4.11045">
        <ele>166.19999694824</ele>
        <time>2012-05-19T10:25:05.000Z</time>
      </trkpt>
      <trkpt lat="44.42263" lon="4.11038">
        <ele>165.39999389648</ele>
        <time>2012-05-19T10:25:08.000Z</time>
      </trkpt>
      <trkpt lat="44.42248" lon="4.11027">
        <ele>163.60000610352</ele>
        <time>2012-05-19T10:25:13.000Z</time>
      </trkpt>
      <trkpt lat="44.42226" lon="4.1102">
        <ele>163.19999694824</ele>
        <time>2012-05-19T10:25:17.000Z</time>
      </trkpt>
      <trkpt lat="44.42219" lon="4.11019">
        <ele>163.39999389648</ele>
        <time>2012-05-19T10:25:18.000Z</time>
      </trkpt>
      <trkpt lat="44.42215" lon="4.11018">
        <ele>163.60000610352</ele>
        <time>2012-05-19T10:25:19.000Z</time>
      </trkpt>
      <trkpt lat="44.42209" lon="4.11016">
        <ele>163.19999694824</ele>
        <time>2012-05-19T10:25:20.000Z</time>
      </trkpt>
      <trkpt lat="44.42184" lon="4.11012">
        <ele>163</ele>
        <time>2012-05-19T10:25:24.000Z</time>
      </trkpt>
      <trkpt lat="44.42165" lon="4.11011">
        <ele>163.39999389648</ele>
        <time>2012-05-19T10:25:27.000Z</time>
      </trkpt>
      <trkpt lat="44.42146" lon="4.11011">
        <ele>163.39999389648</ele>
        <time>2012-05-19T10:25:31.000Z</time>
      </trkpt>
      <trkpt lat="44.42144" lon="4.11011">
        <ele>163.19999694824</ele>
        <time>2012-05-19T10:25:32.000Z</time>
      </trkpt>
      <trkpt lat="44.42138" lon="4.11013">
        <ele>163.60000610352</ele>
        <time>2012-05-19T10:25:35.000Z</time>
      </trkpt>
      <trkpt lat="44.42137" lon="4.11013">
        <ele>163.80000305176</ele>
        <time>2012-05-19T10:25:36.000Z</time>
      </trkpt>
      <trkpt lat="44.42133" lon="4.11014">
        <ele>163.80000305176</ele>
        <time>2012-05-19T10:25:40.000Z</time>
      </trkpt>
      <trkpt lat="44.4213" lon="4.11015">
        <ele>164</ele>
        <time>2012-05-19T10:25:43.000Z</time>
      </trkpt>
      <trkpt lat="44.42129" lon="4.11014">
        <ele>164</ele>
        <time>2012-05-19T10:25:44.000Z</time>
      </trkpt>
      <trkpt lat="44.42126" lon="4.11012">
        <ele>163</ele>
        <time>2012-05-19T10:25:49.000Z</time>
      </trkpt>
      <trkpt lat="44.42123" lon="4.11009">
        <ele>162.39999389648</ele>
        <time>2012-05-19T10:25:55.000Z</time>
      </trkpt>
      <trkpt lat="44.4212" lon="4.11009">
        <ele>162</ele>
        <time>2012-05-19T10:25:57.000Z</time>
      </trkpt>
      <trkpt lat="44.42116" lon="4.11011">
        <ele>162.60000610352</ele>
        <time>2012-05-19T10:26:00.000Z</time>
      </trkpt>
      <trkpt lat="44.4211" lon="4.11012">
        <ele>162.80000305176</ele>
        <time>2012-05-19T10:26:04.000Z</time>
      </trkpt>
      <trkpt lat="44.42111" lon="4.11014">
        <ele>163.60000610352</ele>
        <time>2012-05-19T10:26:06.000Z</time>
      </trkpt>
      <trkpt lat="44.42113" lon="4.11014">
        <ele>163.60000610352</ele>
        <time>2012-05-19T10:26:09.000Z</time>
      </trkpt>
      <trkpt lat="44.42114" lon="4.11014">
        <ele>163.39999389648</ele>
        <time>2012-05-19T10:26:11.000Z</time>
      </trkpt>
      <trkpt lat="44.42121" lon="4.11015">
        <ele>163.80000305176</ele>
        <time>2012-05-19T10:26:39.000Z</time>
      </trkpt>
      <trkpt lat="44.42124" lon="4.11015">
        <ele>164</ele>
        <time>2012-05-19T10:26:46.000Z</time>
      </trkpt>
      <trkpt lat="44.42127" lon="4.11017">
        <ele>164.80000305176</ele>
        <time>2012-05-19T10:26:51.000Z</time>
      </trkpt>
      <trkpt lat="44.42134" lon="4.11021">
        <ele>166</ele>
        <time>2012-05-19T10:27:00.000Z</time>
      </trkpt>
      <trkpt lat="44.42134" lon="4.1102">
        <ele>165.80000305176</ele>
        <time>2012-05-19T10:27:05.000Z</time>
      </trkpt>
      <trkpt lat="44.42136" lon="4.11023">
        <ele>166.60000610352</ele>
        <time>2012-05-19T10:27:10.000Z</time>
      </trkpt>
      <trkpt lat="44.4214" lon="4.11025">
        <ele>167.39999389648</ele>
        <time>2012-05-19T10:27:18.000Z</time>
      </trkpt>
      <trkpt lat="44.42151" lon="4.11031">
        <ele>169.60000610352</ele>
        <time>2012-05-19T10:27:35.000Z</time>
      </trkpt>
      <trkpt lat="44.4216" lon="4.11032">
        <ele>170.19999694824</ele>
        <time>2012-05-19T10:27:43.000Z</time>
      </trkpt>
      <trkpt lat="44.42166" lon="4.11031">
        <ele>170.19999694824</ele>
        <time>2012-05-19T10:27:49.000Z</time>
      </trkpt>
      <trkpt lat="44.4217" lon="4.11029">
        <ele>169.19999694824</ele>
        <time>2012-05-19T10:27:58.000Z</time>
      </trkpt>
      <trkpt lat="44.42176" lon="4.11032">
        <ele>169.60000610352</ele>
        <time>2012-05-19T10:28:07.000Z</time>
      </trkpt>
      <trkpt lat="44.42179" lon="4.11033">
        <ele>170</ele>
        <time>2012-05-19T10:28:13.000Z</time>
      </trkpt>
      <trkpt lat="44.42181" lon="4.11034">
        <ele>170</ele>
        <time>2012-05-19T10:28:14.000Z</time>
      </trkpt>
      <trkpt lat="44.42182" lon="4.11036">
        <ele>170.39999389648</ele>
        <time>2012-05-19T10:28:17.000Z</time>
      </trkpt>
      <trkpt lat="44.42189" lon="4.11039">
        <ele>171</ele>
        <time>2012-05-19T10:28:26.000Z</time>
      </trkpt>
      <trkpt lat="44.42196" lon="4.11042">
        <ele>171.19999694824</ele>
        <time>2012-05-19T10:28:33.000Z</time>
      </trkpt>
      <trkpt lat="44.42202" lon="4.11045">
        <ele>171.60000610352</ele>
        <time>2012-05-19T10:28:41.000Z</time>
      </trkpt>
      <trkpt lat="44.42211" lon="4.1105">
        <ele>171.80000305176</ele>
        <time>2012-05-19T10:28:49.000Z</time>
      </trkpt>
      <trkpt lat="44.42216" lon="4.11056">
        <ele>173</ele>
        <time>2012-05-19T10:28:55.000Z</time>
      </trkpt>
      <trkpt lat="44.42228" lon="4.11062">
        <ele>173</ele>
        <time>2012-05-19T10:29:01.000Z</time>
      </trkpt>
      <trkpt lat="44.42239" lon="4.1107">
        <ele>173.60000610352</ele>
        <time>2012-05-19T10:29:08.000Z</time>
      </trkpt>
      <trkpt lat="44.42245" lon="4.1108">
        <ele>175</ele>
        <time>2012-05-19T10:29:15.000Z</time>
      </trkpt>
      <trkpt lat="44.4225" lon="4.11087">
        <ele>175.60000610352</ele>
        <time>2012-05-19T10:29:22.000Z</time>
      </trkpt>
      <trkpt lat="44.42255" lon="4.11097">
        <ele>176.39999389648</ele>
        <time>2012-05-19T10:29:28.000Z</time>
      </trkpt>
      <trkpt lat="44.42258" lon="4.11105">
        <ele>177.19999694824</ele>
        <time>2012-05-19T10:29:36.000Z</time>
      </trkpt>
      <trkpt lat="44.42263" lon="4.11118">
        <ele>178.39999389648</ele>
        <time>2012-05-19T10:29:42.000Z</time>
      </trkpt>
      <trkpt lat="44.42268" lon="4.11132">
        <ele>179.60000610352</ele>
        <time>2012-05-19T10:29:48.000Z</time>
      </trkpt>
      <trkpt lat="44.42274" lon="4.11147">
        <ele>180.80000305176</ele>
        <time>2012-05-19T10:29:54.000Z</time>
      </trkpt>
      <trkpt lat="44.42278" lon="4.11164">
        <ele>182</ele>
        <time>2012-05-19T10:29:58.000Z</time>
      </trkpt>
      <trkpt lat="44.42282" lon="4.1119">
        <ele>180.80000305176</ele>
        <time>2012-05-19T10:30:03.000Z</time>
      </trkpt>
      <trkpt lat="44.42278" lon="4.11209">
        <ele>180.60000610352</ele>
        <time>2012-05-19T10:30:07.000Z</time>
      </trkpt>
      <trkpt lat="44.42269" lon="4.11233">
        <ele>180.60000610352</ele>
        <time>2012-05-19T10:30:13.000Z</time>
      </trkpt>
      <trkpt lat="44.42263" lon="4.11242">
        <ele>181</ele>
        <time>2012-05-19T10:30:18.000Z</time>
      </trkpt>
      <trkpt lat="44.42256" lon="4.11254">
        <ele>181</ele>
        <time>2012-05-19T10:30:24.000Z</time>
      </trkpt>
      <trkpt lat="44.42241" lon="4.11274">
        <ele>182.80000305176</ele>
        <time>2012-05-19T10:30:29.000Z</time>
      </trkpt>
      <trkpt lat="44.42237" lon="4.11283">
        <ele>183.19999694824</ele>
        <time>2012-05-19T10:30:31.000Z</time>
      </trkpt>
      <trkpt lat="44.42234" lon="4.11286">
        <ele>183.80000305176</ele>
        <time>2012-05-19T10:30:32.000Z</time>
      </trkpt>
      <trkpt lat="44.42219" lon="4.11303">
        <ele>186.19999694824</ele>
        <time>2012-05-19T10:30:37.000Z</time>
      </trkpt>
      <trkpt lat="44.42216" lon="4.11305">
        <ele>186.60000610352</ele>
        <time>2012-05-19T10:30:38.000Z</time>
      </trkpt>
      <trkpt lat="44.42198" lon="4.11322">
        <ele>188.80000305176</ele>
        <time>2012-05-19T10:30:44.000Z</time>
      </trkpt>
      <trkpt lat="44.42196" lon="4.11324">
        <ele>189</ele>
        <time>2012-05-19T10:30:45.000Z</time>
      </trkpt>
      <trkpt lat="44.42183" lon="4.11332">
        <ele>190.80000305176</ele>
        <time>2012-05-19T10:30:51.000Z</time>
      </trkpt>
      <trkpt lat="44.42172" lon="4.11338">
        <ele>192.19999694824</ele>
        <time>2012-05-19T10:30:58.000Z</time>
      </trkpt>
      <trkpt lat="44.42166" lon="4.11339">
        <ele>193</ele>
        <time>2012-05-19T10:31:03.000Z</time>
      </trkpt>
      <trkpt lat="44.42165" lon="4.11338">
        <ele>193.39999389648</ele>
        <time>2012-05-19T10:31:05.000Z</time>
      </trkpt>
      <trkpt lat="44.42164" lon="4.11338">
        <ele>193.80000305176</ele>
        <time>2012-05-19T10:31:08.000Z</time>
      </trkpt>
      <trkpt lat="44.4216" lon="4.11343">
        <ele>193.39999389648</ele>
        <time>2012-05-19T10:31:12.000Z</time>
      </trkpt>
      <trkpt lat="44.4216" lon="4.11344">
        <ele>193.39999389648</ele>
        <time>2012-05-19T10:31:13.000Z</time>
      </trkpt>
      <trkpt lat="44.42159" lon="4.11347">
        <ele>193.19999694824</ele>
        <time>2012-05-19T10:31:16.000Z</time>
      </trkpt>
      <trkpt lat="44.42156" lon="4.11348">
        <ele>193.39999389648</ele>
        <time>2012-05-19T10:31:18.000Z</time>
      </trkpt>
      <trkpt lat="44.42153" lon="4.11351">
        <ele>193.39999389648</ele>
        <time>2012-05-19T10:31:21.000Z</time>
      </trkpt>
      <trkpt lat="44.42148" lon="4.11355">
        <ele>193.39999389648</ele>
        <time>2012-05-19T10:31:25.000Z</time>
      </trkpt>
      <trkpt lat="44.42147" lon="4.11357">
        <ele>193.39999389648</ele>
        <time>2012-05-19T10:31:27.000Z</time>
      </trkpt>
      <trkpt lat="44.42142" lon="4.11361">
        <ele>193.19999694824</ele>
        <time>2012-05-19T10:31:31.000Z</time>
      </trkpt>
      <trkpt lat="44.42142" lon="4.11361">
        <ele>193.39999389648</ele>
        <time>2012-05-19T10:31:32.000Z</time>
      </trkpt>
      <trkpt lat="44.42138" lon="4.11364">
        <ele>193.39999389648</ele>
        <time>2012-05-19T10:31:38.000Z</time>
      </trkpt>
      <trkpt lat="44.42134" lon="4.11369">
        <ele>193.19999694824</ele>
        <time>2012-05-19T10:31:43.000Z</time>
      </trkpt>
      <trkpt lat="44.42133" lon="4.1137">
        <ele>193.19999694824</ele>
        <time>2012-05-19T10:31:44.000Z</time>
      </trkpt>
      <trkpt lat="44.42129" lon="4.11373">
        <ele>193.19999694824</ele>
        <time>2012-05-19T10:31:50.000Z</time>
      </trkpt>
      <trkpt lat="44.42127" lon="4.11375">
        <ele>193.19999694824</ele>
        <time>2012-05-19T10:31:51.000Z</time>
      </trkpt>
      <trkpt lat="44.42119" lon="4.11387">
        <ele>191.80000305176</ele>
        <time>2012-05-19T10:31:57.000Z</time>
      </trkpt>
      <trkpt lat="44.42115" lon="4.11388">
        <ele>192</ele>
        <time>2012-05-19T10:31:59.000Z</time>
      </trkpt>
      <trkpt lat="44.42109" lon="4.11394">
        <ele>191.80000305176</ele>
        <time>2012-05-19T10:32:02.000Z</time>
      </trkpt>
      <trkpt lat="44.42102" lon="4.114">
        <ele>191.39999389648</ele>
        <time>2012-05-19T10:32:05.000Z</time>
      </trkpt>
      <trkpt lat="44.42096" lon="4.11404">
        <ele>191.60000610352</ele>
        <time>2012-05-19T10:32:07.000Z</time>
      </trkpt>
      <trkpt lat="44.4208" lon="4.11408">
        <ele>192.60000610352</ele>
        <time>2012-05-19T10:32:12.000Z</time>
      </trkpt>
      <trkpt lat="44.42062" lon="4.11411">
        <ele>193.80000305176</ele>
        <time>2012-05-19T10:32:17.000Z</time>
      </trkpt>
      <trkpt lat="44.42049" lon="4.11415">
        <ele>194.60000610352</ele>
        <time>2012-05-19T10:32:22.000Z</time>
      </trkpt>
      <trkpt lat="44.42034" lon="4.11409">
        <ele>197.60000610352</ele>
        <time>2012-05-19T10:32:29.000Z</time>
      </trkpt>
      <trkpt lat="44.42026" lon="4.11411">
        <ele>198</ele>
        <time>2012-05-19T10:32:34.000Z</time>
      </trkpt>
      <trkpt lat="44.42023" lon="4.11412">
        <ele>198.19999694824</ele>
        <time>2012-05-19T10:32:35.000Z</time>
      </trkpt>
      <trkpt lat="44.42018" lon="4.11411">
        <ele>199</ele>
        <time>2012-05-19T10:32:37.000Z</time>
      </trkpt>
      <trkpt lat="44.42015" lon="4.11408">
        <ele>200</ele>
        <time>2012-05-19T10:32:40.000Z</time>
      </trkpt>
      <trkpt lat="44.4201" lon="4.11404">
        <ele>201</ele>
        <time>2012-05-19T10:32:43.000Z</time>
      </trkpt>
      <trkpt lat="44.41999" lon="4.11401">
        <ele>202.80000305176</ele>
        <time>2012-05-19T10:32:50.000Z</time>
      </trkpt>
      <trkpt lat="44.41986" lon="4.11404">
        <ele>204.19999694824</ele>
        <time>2012-05-19T10:32:57.000Z</time>
      </trkpt>
      <trkpt lat="44.41974" lon="4.11406">
        <ele>205.39999389648</ele>
        <time>2012-05-19T10:33:03.000Z</time>
      </trkpt>
      <trkpt lat="44.41959" lon="4.1141">
        <ele>207</ele>
        <time>2012-05-19T10:33:11.000Z</time>
      </trkpt>
      <trkpt lat="44.41945" lon="4.11413">
        <ele>208.39999389648</ele>
        <time>2012-05-19T10:33:19.000Z</time>
      </trkpt>
      <trkpt lat="44.41944" lon="4.11414">
        <ele>208.39999389648</ele>
        <time>2012-05-19T10:33:20.000Z</time>
      </trkpt>
      <trkpt lat="44.41937" lon="4.11417">
        <ele>209</ele>
        <time>2012-05-19T10:33:24.000Z</time>
      </trkpt>
      <trkpt lat="44.41932" lon="4.11419">
        <ele>209.19999694824</ele>
        <time>2012-05-19T10:33:27.000Z</time>
      </trkpt>
      <trkpt lat="44.4193" lon="4.11419">
        <ele>209.60000610352</ele>
        <time>2012-05-19T10:33:28.000Z</time>
      </trkpt>
      <trkpt lat="44.41928" lon="4.1142">
        <ele>209.39999389648</ele>
        <time>2012-05-19T10:33:30.000Z</time>
      </trkpt>
      <trkpt lat="44.41916" lon="4.11427">
        <ele>209.60000610352</ele>
        <time>2012-05-19T10:33:37.000Z</time>
      </trkpt>
      <trkpt lat="44.41906" lon="4.11431">
        <ele>210</ele>
        <time>2012-05-19T10:33:43.000Z</time>
      </trkpt>
      <trkpt lat="44.41894" lon="4.11436">
        <ele>210.39999389648</ele>
        <time>2012-05-19T10:33:49.000Z</time>
      </trkpt>
      <trkpt lat="44.4188" lon="4.11442">
        <ele>210.60000610352</ele>
        <time>2012-05-19T10:33:56.000Z</time>
      </trkpt>
      <trkpt lat="44.4187" lon="4.11447">
        <ele>210.60000610352</ele>
        <time>2012-05-19T10:34:01.000Z</time>
      </trkpt>
      <trkpt lat="44.41857" lon="4.11455">
        <ele>210.39999389648</ele>
        <time>2012-05-19T10:34:06.000Z</time>
      </trkpt>
      <trkpt lat="44.41841" lon="4.11468">
        <ele>209</ele>
        <time>2012-05-19T10:34:10.000Z</time>
      </trkpt>
      <trkpt lat="44.4183" lon="4.11477">
        <ele>208.60000610352</ele>
        <time>2012-05-19T10:34:14.000Z</time>
      </trkpt>
      <trkpt lat="44.4183" lon="4.11476">
        <ele>208.60000610352</ele>
        <time>2012-05-19T10:34:18.000Z</time>
      </trkpt>
      <trkpt lat="44.41826" lon="4.11478">
        <ele>209</ele>
        <time>2012-05-19T10:35:36.000Z</time>
      </trkpt>
      <trkpt lat="44.41823" lon="4.11472">
        <ele>210.80000305176</ele>
        <time>2012-05-19T10:35:40.000Z</time>
      </trkpt>
      <trkpt lat="44.41822" lon="4.11473">
        <ele>210.80000305176</ele>
        <time>2012-05-19T10:35:41.000Z</time>
      </trkpt>
      <trkpt lat="44.41817" lon="4.11475">
        <ele>211.19999694824</ele>
        <time>2012-05-19T10:35:45.000Z</time>
      </trkpt>
      <trkpt lat="44.41815" lon="4.11477">
        <ele>211</ele>
        <time>2012-05-19T10:35:47.000Z</time>
      </trkpt>
      <trkpt lat="44.41806" lon="4.11479">
        <ele>212</ele>
        <time>2012-05-19T10:35:51.000Z</time>
      </trkpt>
      <trkpt lat="44.41796" lon="4.11483">
        <ele>212.80000305176</ele>
        <time>2012-05-19T10:35:59.000Z</time>
      </trkpt>
      <trkpt lat="44.41786" lon="4.11485">
        <ele>214</ele>
        <time>2012-05-19T10:36:06.000Z</time>
      </trkpt>
      <trkpt lat="44.41776" lon="4.1149">
        <ele>214.60000610352</ele>
        <time>2012-05-19T10:36:13.000Z</time>
      </trkpt>
      <trkpt lat="44.41774" lon="4.11491">
        <ele>214.80000305176</ele>
        <time>2012-05-19T10:36:15.000Z</time>
      </trkpt>
      <trkpt lat="44.41769" lon="4.11493">
        <ele>215.19999694824</ele>
        <time>2012-05-19T10:36:19.000Z</time>
      </trkpt>
      <trkpt lat="44.41761" lon="4.11493">
        <ele>216.60000610352</ele>
        <time>2012-05-19T10:36:26.000Z</time>
      </trkpt>
      <trkpt lat="44.41752" lon="4.11495">
        <ele>217.80000305176</ele>
        <time>2012-05-19T10:36:33.000Z</time>
      </trkpt>
      <trkpt lat="44.41743" lon="4.11497">
        <ele>219</ele>
        <time>2012-05-19T10:36:40.000Z</time>
      </trkpt>
      <trkpt lat="44.41737" lon="4.11499">
        <ele>219.80000305176</ele>
        <time>2012-05-19T10:36:45.000Z</time>
      </trkpt>
      <trkpt lat="44.41734" lon="4.115">
        <ele>220</ele>
        <time>2012-05-19T10:36:47.000Z</time>
      </trkpt>
      <trkpt lat="44.41728" lon="4.11503">
        <ele>220.39999389648</ele>
        <time>2012-05-19T10:36:54.000Z</time>
      </trkpt>
      <trkpt lat="44.41727" lon="4.11502">
        <ele>220.80000305176</ele>
        <time>2012-05-19T10:36:59.000Z</time>
      </trkpt>
      <trkpt lat="44.41726" lon="4.11502">
        <ele>221</ele>
        <time>2012-05-19T10:37:02.000Z</time>
      </trkpt>
      <trkpt lat="44.41724" lon="4.11503">
        <ele>221.19999694824</ele>
        <time>2012-05-19T10:37:04.000Z</time>
      </trkpt>
      <trkpt lat="44.41723" lon="4.11502">
        <ele>221.39999389648</ele>
        <time>2012-05-19T10:37:05.000Z</time>
      </trkpt>
      <trkpt lat="44.41719" lon="4.11505">
        <ele>221.39999389648</ele>
        <time>2012-05-19T10:37:09.000Z</time>
      </trkpt>
      <trkpt lat="44.41719" lon="4.11506">
        <ele>221.39999389648</ele>
        <time>2012-05-19T10:37:10.000Z</time>
      </trkpt>
      <trkpt lat="44.41713" lon="4.11508">
        <ele>222</ele>
        <time>2012-05-19T10:37:16.000Z</time>
      </trkpt>
      <trkpt lat="44.41706" lon="4.11511">
        <ele>222.60000610352</ele>
        <time>2012-05-19T10:37:23.000Z</time>
      </trkpt>
      <trkpt lat="44.41705" lon="4.11513">
        <ele>222.39999389648</ele>
        <time>2012-05-19T10:37:25.000Z</time>
      </trkpt>
      <trkpt lat="44.41702" lon="4.11514">
        <ele>222.60000610352</ele>
        <time>2012-05-19T10:37:28.000Z</time>
      </trkpt>
      <trkpt lat="44.41693" lon="4.11517">
        <ele>223.60000610352</ele>
        <time>2012-05-19T10:37:36.000Z</time>
      </trkpt>
      <trkpt lat="44.41686" lon="4.11521">
        <ele>224.19999694824</ele>
        <time>2012-05-19T10:37:41.000Z</time>
      </trkpt>
      <trkpt lat="44.41674" lon="4.11523">
        <ele>226.39999389648</ele>
        <time>2012-05-19T10:37:46.000Z</time>
      </trkpt>
      <trkpt lat="44.41661" lon="4.11527">
        <ele>228</ele>
        <time>2012-05-19T10:37:52.000Z</time>
      </trkpt>
      <trkpt lat="44.41644" lon="4.1153">
        <ele>230.19999694824</ele>
        <time>2012-05-19T10:37:59.000Z</time>
      </trkpt>
      <trkpt lat="44.41635" lon="4.11532">
        <ele>231.39999389648</ele>
        <time>2012-05-19T10:38:05.000Z</time>
      </trkpt>
      <trkpt lat="44.41626" lon="4.11535">
        <ele>232.60000610352</ele>
        <time>2012-05-19T10:38:12.000Z</time>
      </trkpt>
      <trkpt lat="44.41624" lon="4.11542">
        <ele>232</ele>
        <time>2012-05-19T10:38:17.000Z</time>
      </trkpt>
      <trkpt lat="44.41623" lon="4.11542">
        <ele>232</ele>
        <time>2012-05-19T10:38:18.000Z</time>
      </trkpt>
      <trkpt lat="44.41623" lon="4.11543">
        <ele>231.80000305176</ele>
        <time>2012-05-19T10:38:19.000Z</time>
      </trkpt>
      <trkpt lat="44.41624" lon="4.11545">
        <ele>231.60000610352</ele>
        <time>2012-05-19T10:38:23.000Z</time>
      </trkpt>
      <trkpt lat="44.4162" lon="4.11544">
        <ele>232.19999694824</ele>
        <time>2012-05-19T10:39:28.000Z</time>
      </trkpt>
      <trkpt lat="44.41618" lon="4.1154">
        <ele>233.19999694824</ele>
        <time>2012-05-19T10:39:33.000Z</time>
      </trkpt>
      <trkpt lat="44.41614" lon="4.11537">
        <ele>234.39999389648</ele>
        <time>2012-05-19T10:39:38.000Z</time>
      </trkpt>
      <trkpt lat="44.41613" lon="4.11536">
        <ele>234.60000610352</ele>
        <time>2012-05-19T10:39:39.000Z</time>
      </trkpt>
      <trkpt lat="44.41608" lon="4.1153">
        <ele>236.19999694824</ele>
        <time>2012-05-19T10:39:46.000Z</time>
      </trkpt>
      <trkpt lat="44.41605" lon="4.11524">
        <ele>237.19999694824</ele>
        <time>2012-05-19T10:39:49.000Z</time>
      </trkpt>
      <trkpt lat="44.41604" lon="4.11521">
        <ele>237.80000305176</ele>
        <time>2012-05-19T10:39:51.000Z</time>
      </trkpt>
      <trkpt lat="44.41604" lon="4.1151">
        <ele>238.80000305176</ele>
        <time>2012-05-19T10:39:57.000Z</time>
      </trkpt>
      <trkpt lat="44.41605" lon="4.11497">
        <ele>239.80000305176</ele>
        <time>2012-05-19T10:40:04.000Z</time>
      </trkpt>
      <trkpt lat="44.41605" lon="4.11495">
        <ele>239.80000305176</ele>
        <time>2012-05-19T10:40:05.000Z</time>
      </trkpt>
      <trkpt lat="44.41605" lon="4.11483">
        <ele>240.39999389648</ele>
        <time>2012-05-19T10:40:11.000Z</time>
      </trkpt>
      <trkpt lat="44.41604" lon="4.11475">
        <ele>241</ele>
        <time>2012-05-19T10:40:15.000Z</time>
      </trkpt>
      <trkpt lat="44.41602" lon="4.11469">
        <ele>241.39999389648</ele>
        <time>2012-05-19T10:40:18.000Z</time>
      </trkpt>
      <trkpt lat="44.41601" lon="4.11466">
        <ele>241.60000610352</ele>
        <time>2012-05-19T10:40:20.000Z</time>
      </trkpt>
      <trkpt lat="44.41598" lon="4.1146">
        <ele>242</ele>
        <time>2012-05-19T10:40:24.000Z</time>
      </trkpt>
      <trkpt lat="44.41597" lon="4.11455">
        <ele>242.39999389648</ele>
        <time>2012-05-19T10:40:28.000Z</time>
      </trkpt>
      <trkpt lat="44.41592" lon="4.11454">
        <ele>242.80000305176</ele>
        <time>2012-05-19T10:40:31.000Z</time>
      </trkpt>
      <trkpt lat="44.41591" lon="4.11454">
        <ele>243</ele>
        <time>2012-05-19T10:40:32.000Z</time>
      </trkpt>
      <trkpt lat="44.41579" lon="4.11454">
        <ele>244.19999694824</ele>
        <time>2012-05-19T10:40:39.000Z</time>
      </trkpt>
      <trkpt lat="44.41566" lon="4.1145">
        <ele>245.80000305176</ele>
        <time>2012-05-19T10:40:45.000Z</time>
      </trkpt>
      <trkpt lat="44.41553" lon="4.11448">
        <ele>247.19999694824</ele>
        <time>2012-05-19T10:40:51.000Z</time>
      </trkpt>
      <trkpt lat="44.4154" lon="4.11448">
        <ele>248.80000305176</ele>
        <time>2012-05-19T10:40:57.000Z</time>
      </trkpt>
      <trkpt lat="44.41528" lon="4.11449">
        <ele>250.19999694824</ele>
        <time>2012-05-19T10:41:04.000Z</time>
      </trkpt>
      <trkpt lat="44.41515" lon="4.11447">
        <ele>251.60000610352</ele>
        <time>2012-05-19T10:41:10.000Z</time>
      </trkpt>
      <trkpt lat="44.41507" lon="4.11449">
        <ele>252.39999389648</ele>
        <time>2012-05-19T10:41:15.000Z</time>
      </trkpt>
      <trkpt lat="44.41504" lon="4.1145">
        <ele>252.80000305176</ele>
        <time>2012-05-19T10:41:17.000Z</time>
      </trkpt>
      <trkpt lat="44.41502" lon="4.1145">
        <ele>253</ele>
        <time>2012-05-19T10:41:19.000Z</time>
      </trkpt>
      <trkpt lat="44.41499" lon="4.11448">
        <ele>253.60000610352</ele>
        <time>2012-05-19T10:41:23.000Z</time>
      </trkpt>
      <trkpt lat="44.41495" lon="4.11446">
        <ele>254.39999389648</ele>
        <time>2012-05-19T10:41:29.000Z</time>
      </trkpt>
      <trkpt lat="44.41489" lon="4.11446">
        <ele>255.39999389648</ele>
        <time>2012-05-19T10:41:36.000Z</time>
      </trkpt>
      <trkpt lat="44.41486" lon="4.11447">
        <ele>256</ele>
        <time>2012-05-19T10:41:43.000Z</time>
      </trkpt>
      <trkpt lat="44.41483" lon="4.11451">
        <ele>256.60000610352</ele>
        <time>2012-05-19T10:41:52.000Z</time>
      </trkpt>
      <trkpt lat="44.4148" lon="4.11452">
        <ele>257.20001220703</ele>
        <time>2012-05-19T10:41:57.000Z</time>
      </trkpt>
      <trkpt lat="44.41475" lon="4.11456">
        <ele>258.20001220703</ele>
        <time>2012-05-19T10:42:04.000Z</time>
      </trkpt>
      <trkpt lat="44.41471" lon="4.11459">
        <ele>259</ele>
        <time>2012-05-19T10:42:11.000Z</time>
      </trkpt>
      <trkpt lat="44.41467" lon="4.11459">
        <ele>259.79998779297</ele>
        <time>2012-05-19T10:42:17.000Z</time>
      </trkpt>
      <trkpt lat="44.41463" lon="4.11457">
        <ele>260.60000610352</ele>
        <time>2012-05-19T10:42:24.000Z</time>
      </trkpt>
      <trkpt lat="44.41459" lon="4.11458">
        <ele>261.39999389648</ele>
        <time>2012-05-19T10:42:30.000Z</time>
      </trkpt>
      <trkpt lat="44.41458" lon="4.11458">
        <ele>261.60000610352</ele>
        <time>2012-05-19T10:42:32.000Z</time>
      </trkpt>
      <trkpt lat="44.41457" lon="4.11458">
        <ele>261.79998779297</ele>
        <time>2012-05-19T10:42:35.000Z</time>
      </trkpt>
      <trkpt lat="44.41454" lon="4.11458">
        <ele>262.39999389648</ele>
        <time>2012-05-19T10:42:40.000Z</time>
      </trkpt>
      <trkpt lat="44.41449" lon="4.11458">
        <ele>263.39999389648</ele>
        <time>2012-05-19T10:42:47.000Z</time>
      </trkpt>
      <trkpt lat="44.41445" lon="4.11459">
        <ele>264.39999389648</ele>
        <time>2012-05-19T10:42:54.000Z</time>
      </trkpt>
      <trkpt lat="44.41441" lon="4.1146">
        <ele>265</ele>
        <time>2012-05-19T10:43:00.000Z</time>
      </trkpt>
      <trkpt lat="44.41439" lon="4.11461">
        <ele>265.39999389648</ele>
        <time>2012-05-19T10:43:05.000Z</time>
      </trkpt>
      <trkpt lat="44.4144" lon="4.11469">
        <ele>265.39999389648</ele>
        <time>2012-05-19T10:43:12.000Z</time>
      </trkpt>
      <trkpt lat="44.41442" lon="4.1148">
        <ele>265</ele>
        <time>2012-05-19T10:43:20.000Z</time>
      </trkpt>
      <trkpt lat="44.41442" lon="4.11492">
        <ele>265.20001220703</ele>
        <time>2012-05-19T10:43:25.000Z</time>
      </trkpt>
      <trkpt lat="44.41445" lon="4.11508">
        <ele>264.79998779297</ele>
        <time>2012-05-19T10:43:30.000Z</time>
      </trkpt>
      <trkpt lat="44.4145" lon="4.11526">
        <ele>264.79998779297</ele>
        <time>2012-05-19T10:43:35.000Z</time>
      </trkpt>
      <trkpt lat="44.4145" lon="4.11548">
        <ele>265.79998779297</ele>
        <time>2012-05-19T10:43:40.000Z</time>
      </trkpt>
      <trkpt lat="44.41452" lon="4.1157">
        <ele>266.39999389648</ele>
        <time>2012-05-19T10:43:45.000Z</time>
      </trkpt>
      <trkpt lat="44.41452" lon="4.11581">
        <ele>267</ele>
        <time>2012-05-19T10:43:50.000Z</time>
      </trkpt>
      <trkpt lat="44.41451" lon="4.11585">
        <ele>267.39999389648</ele>
        <time>2012-05-19T10:43:56.000Z</time>
      </trkpt>
      <trkpt lat="44.41449" lon="4.11592">
        <ele>267.79998779297</ele>
        <time>2012-05-19T10:44:05.000Z</time>
      </trkpt>
      <trkpt lat="44.4145" lon="4.11602">
        <ele>267.79998779297</ele>
        <time>2012-05-19T10:44:14.000Z</time>
      </trkpt>
      <trkpt lat="44.41449" lon="4.11611">
        <ele>268.39999389648</ele>
        <time>2012-05-19T10:44:21.000Z</time>
      </trkpt>
      <trkpt lat="44.41448" lon="4.11615">
        <ele>268.39999389648</ele>
        <time>2012-05-19T10:44:28.000Z</time>
      </trkpt>
      <trkpt lat="44.41448" lon="4.11623">
        <ele>268.60000610352</ele>
        <time>2012-05-19T10:44:35.000Z</time>
      </trkpt>
      <trkpt lat="44.41449" lon="4.11628">
        <ele>268.60000610352</ele>
        <time>2012-05-19T10:44:40.000Z</time>
      </trkpt>
      <trkpt lat="44.41447" lon="4.11631">
        <ele>269.20001220703</ele>
        <time>2012-05-19T10:44:44.000Z</time>
      </trkpt>
      <trkpt lat="44.41444" lon="4.1164">
        <ele>270.39999389648</ele>
        <time>2012-05-19T10:44:52.000Z</time>
      </trkpt>
      <trkpt lat="44.41444" lon="4.11648">
        <ele>270.39999389648</ele>
        <time>2012-05-19T10:44:59.000Z</time>
      </trkpt>
      <trkpt lat="44.41445" lon="4.11656">
        <ele>270.39999389648</ele>
        <time>2012-05-19T10:45:04.000Z</time>
      </trkpt>
      <trkpt lat="44.41445" lon="4.11657">
        <ele>270.39999389648</ele>
        <time>2012-05-19T10:45:05.000Z</time>
      </trkpt>
      <trkpt lat="44.41443" lon="4.11664">
        <ele>271</ele>
        <time>2012-05-19T10:45:12.000Z</time>
      </trkpt>
      <trkpt lat="44.41442" lon="4.11673">
        <ele>270.60000610352</ele>
        <time>2012-05-19T10:45:21.000Z</time>
      </trkpt>
      <trkpt lat="44.41441" lon="4.11677">
        <ele>270.20001220703</ele>
        <time>2012-05-19T10:45:28.000Z</time>
      </trkpt>
      <trkpt lat="44.41438" lon="4.11687">
        <ele>269.60000610352</ele>
        <time>2012-05-19T10:45:33.000Z</time>
      </trkpt>
      <trkpt lat="44.41435" lon="4.11705">
        <ele>268</ele>
        <time>2012-05-19T10:45:39.000Z</time>
      </trkpt>
      <trkpt lat="44.4143" lon="4.11721">
        <ele>267.20001220703</ele>
        <time>2012-05-19T10:45:44.000Z</time>
      </trkpt>
      <trkpt lat="44.41428" lon="4.11725">
        <ele>267.39999389648</ele>
        <time>2012-05-19T10:45:47.000Z</time>
      </trkpt>
      <trkpt lat="44.41428" lon="4.11726">
        <ele>267.39999389648</ele>
        <time>2012-05-19T10:45:48.000Z</time>
      </trkpt>
      <trkpt lat="44.41428" lon="4.11728">
        <ele>267</ele>
        <time>2012-05-19T10:45:49.000Z</time>
      </trkpt>
      <trkpt lat="44.41425" lon="4.11731">
        <ele>267.39999389648</ele>
        <time>2012-05-19T10:45:53.000Z</time>
      </trkpt>
      <trkpt lat="44.41423" lon="4.11733">
        <ele>268</ele>
        <time>2012-05-19T10:45:59.000Z</time>
      </trkpt>
      <trkpt lat="44.4142" lon="4.11738">
        <ele>268.20001220703</ele>
        <time>2012-05-19T10:46:05.000Z</time>
      </trkpt>
      <trkpt lat="44.41419" lon="4.11739">
        <ele>268.60000610352</ele>
        <time>2012-05-19T10:46:09.000Z</time>
      </trkpt>
      <trkpt lat="44.41415" lon="4.11746">
        <ele>268.79998779297</ele>
        <time>2012-05-19T10:46:16.000Z</time>
      </trkpt>
      <trkpt lat="44.41413" lon="4.1175">
        <ele>268.79998779297</ele>
        <time>2012-05-19T10:46:23.000Z</time>
      </trkpt>
      <trkpt lat="44.4141" lon="4.11754">
        <ele>268.60000610352</ele>
        <time>2012-05-19T10:46:31.000Z</time>
      </trkpt>
      <trkpt lat="44.41405" lon="4.11761">
        <ele>268</ele>
        <time>2012-05-19T10:46:40.000Z</time>
      </trkpt>
      <trkpt lat="44.41402" lon="4.11766">
        <ele>267.79998779297</ele>
        <time>2012-05-19T10:46:48.000Z</time>
      </trkpt>
      <trkpt lat="44.41399" lon="4.11766">
        <ele>268.60000610352</ele>
        <time>2012-05-19T10:46:54.000Z</time>
      </trkpt>
      <trkpt lat="44.41397" lon="4.11766">
        <ele>268.79998779297</ele>
        <time>2012-05-19T10:47:02.000Z</time>
      </trkpt>
      <trkpt lat="44.41394" lon="4.11766">
        <ele>269.79998779297</ele>
        <time>2012-05-19T10:47:10.000Z</time>
      </trkpt>
      <trkpt lat="44.4139" lon="4.11772">
        <ele>269.60000610352</ele>
        <time>2012-05-19T10:47:18.000Z</time>
      </trkpt>
      <trkpt lat="44.41388" lon="4.11773">
        <ele>269.79998779297</ele>
        <time>2012-05-19T10:47:24.000Z</time>
      </trkpt>
      <trkpt lat="44.41384" lon="4.11777">
        <ele>270.20001220703</ele>
        <time>2012-05-19T10:47:30.000Z</time>
      </trkpt>
      <trkpt lat="44.41384" lon="4.11778">
        <ele>270</ele>
        <time>2012-05-19T10:47:31.000Z</time>
      </trkpt>
      <trkpt lat="44.41378" lon="4.11785">
        <ele>270.39999389648</ele>
        <time>2012-05-19T10:47:36.000Z</time>
      </trkpt>
      <trkpt lat="44.41371" lon="4.11796">
        <ele>270.60000610352</ele>
        <time>2012-05-19T10:47:42.000Z</time>
      </trkpt>
      <trkpt lat="44.41366" lon="4.11804">
        <ele>271</ele>
        <time>2012-05-19T10:47:47.000Z</time>
      </trkpt>
      <trkpt lat="44.41363" lon="4.1181">
        <ele>271.20001220703</ele>
        <time>2012-05-19T10:47:52.000Z</time>
      </trkpt>
      <trkpt lat="44.41361" lon="4.11812">
        <ele>271.79998779297</ele>
        <time>2012-05-19T10:47:57.000Z</time>
      </trkpt>
      <trkpt lat="44.41359" lon="4.11818">
        <ele>271.79998779297</ele>
        <time>2012-05-19T10:48:04.000Z</time>
      </trkpt>
      <trkpt lat="44.41356" lon="4.11821">
        <ele>272.20001220703</ele>
        <time>2012-05-19T10:48:07.000Z</time>
      </trkpt>
      <trkpt lat="44.41354" lon="4.11826">
        <ele>272.39999389648</ele>
        <time>2012-05-19T10:48:10.000Z</time>
      </trkpt>
      <trkpt lat="44.41351" lon="4.11831">
        <ele>272.79998779297</ele>
        <time>2012-05-19T10:48:16.000Z</time>
      </trkpt>
      <trkpt lat="44.41349" lon="4.11833">
        <ele>273.20001220703</ele>
        <time>2012-05-19T10:48:19.000Z</time>
      </trkpt>
      <trkpt lat="44.41348" lon="4.11834">
        <ele>273.39999389648</ele>
        <time>2012-05-19T10:48:21.000Z</time>
      </trkpt>
      <trkpt lat="44.41344" lon="4.11845">
        <ele>274</ele>
        <time>2012-05-19T10:48:26.000Z</time>
      </trkpt>
      <trkpt lat="44.41342" lon="4.11852">
        <ele>273.79998779297</ele>
        <time>2012-05-19T10:48:31.000Z</time>
      </trkpt>
      <trkpt lat="44.41337" lon="4.11866">
        <ele>274</ele>
        <time>2012-05-19T10:48:36.000Z</time>
      </trkpt>
      <trkpt lat="44.41331" lon="4.11885">
        <ele>273.39999389648</ele>
        <time>2012-05-19T10:48:43.000Z</time>
      </trkpt>
      <trkpt lat="44.41329" lon="4.11893">
        <ele>272.60000610352</ele>
        <time>2012-05-19T10:48:46.000Z</time>
      </trkpt>
      <trkpt lat="44.41328" lon="4.11899">
        <ele>272</ele>
        <time>2012-05-19T10:48:48.000Z</time>
      </trkpt>
      <trkpt lat="44.41327" lon="4.11904">
        <ele>271.39999389648</ele>
        <time>2012-05-19T10:48:50.000Z</time>
      </trkpt>
      <trkpt lat="44.41323" lon="4.11914">
        <ele>270.60000610352</ele>
        <time>2012-05-19T10:48:54.000Z</time>
      </trkpt>
      <trkpt lat="44.41317" lon="4.11929">
        <ele>269.20001220703</ele>
        <time>2012-05-19T10:49:00.000Z</time>
      </trkpt>
      <trkpt lat="44.41311" lon="4.11941">
        <ele>268.39999389648</ele>
        <time>2012-05-19T10:49:06.000Z</time>
      </trkpt>
      <trkpt lat="44.41309" lon="4.11945">
        <ele>268</ele>
        <time>2012-05-19T10:49:11.000Z</time>
      </trkpt>
      <trkpt lat="44.41308" lon="4.11947">
        <ele>267.79998779297</ele>
        <time>2012-05-19T10:49:14.000Z</time>
      </trkpt>
      <trkpt lat="44.41307" lon="4.11949">
        <ele>267.79998779297</ele>
        <time>2012-05-19T10:49:16.000Z</time>
      </trkpt>
      <trkpt lat="44.41302" lon="4.11962">
        <ele>266.79998779297</ele>
        <time>2012-05-19T10:49:21.000Z</time>
      </trkpt>
      <trkpt lat="44.41297" lon="4.11982">
        <ele>265.39999389648</ele>
        <time>2012-05-19T10:49:27.000Z</time>
      </trkpt>
      <trkpt lat="44.41294" lon="4.1199">
        <ele>265.20001220703</ele>
        <time>2012-05-19T10:49:32.000Z</time>
      </trkpt>
      <trkpt lat="44.4129" lon="4.12">
        <ele>265</ele>
        <time>2012-05-19T10:49:38.000Z</time>
      </trkpt>
      <trkpt lat="44.41282" lon="4.12021">
        <ele>264.20001220703</ele>
        <time>2012-05-19T10:49:44.000Z</time>
      </trkpt>
      <trkpt lat="44.41275" lon="4.12045">
        <ele>263.20001220703</ele>
        <time>2012-05-19T10:49:50.000Z</time>
      </trkpt>
      <trkpt lat="44.4127" lon="4.1207">
        <ele>262.20001220703</ele>
        <time>2012-05-19T10:49:56.000Z</time>
      </trkpt>
      <trkpt lat="44.41262" lon="4.12097">
        <ele>262.79998779297</ele>
        <time>2012-05-19T10:50:01.000Z</time>
      </trkpt>
      <trkpt lat="44.41255" lon="4.12126">
        <ele>262.79998779297</ele>
        <time>2012-05-19T10:50:05.000Z</time>
      </trkpt>
      <trkpt lat="44.41255" lon="4.12133">
        <ele>262.60000610352</ele>
        <time>2012-05-19T10:50:06.000Z</time>
      </trkpt>
      <trkpt lat="44.41252" lon="4.1216">
        <ele>261.60000610352</ele>
        <time>2012-05-19T10:50:10.000Z</time>
      </trkpt>
      <trkpt lat="44.41251" lon="4.12167">
        <ele>261.60000610352</ele>
        <time>2012-05-19T10:50:11.000Z</time>
      </trkpt>
      <trkpt lat="44.41247" lon="4.12197">
        <ele>258.79998779297</ele>
        <time>2012-05-19T10:50:15.000Z</time>
      </trkpt>
      <trkpt lat="44.41247" lon="4.12204">
        <ele>258</ele>
        <time>2012-05-19T10:50:16.000Z</time>
      </trkpt>
      <trkpt lat="44.41241" lon="4.12229">
        <ele>255.80000305176</ele>
        <time>2012-05-19T10:50:19.000Z</time>
      </trkpt>
      <trkpt lat="44.41241" lon="4.12236">
        <ele>255.19999694824</ele>
        <time>2012-05-19T10:50:20.000Z</time>
      </trkpt>
      <trkpt lat="44.41239" lon="4.12252">
        <ele>253.80000305176</ele>
        <time>2012-05-19T10:50:22.000Z</time>
      </trkpt>
      <trkpt lat="44.41234" lon="4.12266">
        <ele>252.60000610352</ele>
        <time>2012-05-19T10:50:25.000Z</time>
      </trkpt>
      <trkpt lat="44.41233" lon="4.12268">
        <ele>252.60000610352</ele>
        <time>2012-05-19T10:50:26.000Z</time>
      </trkpt>
      <trkpt lat="44.41226" lon="4.12274">
        <ele>252.80000305176</ele>
        <time>2012-05-19T10:50:31.000Z</time>
      </trkpt>
      <trkpt lat="44.41225" lon="4.12276">
        <ele>252.60000610352</ele>
        <time>2012-05-19T10:50:32.000Z</time>
      </trkpt>
      <trkpt lat="44.41223" lon="4.12275">
        <ele>253</ele>
        <time>2012-05-19T10:50:36.000Z</time>
      </trkpt>
      <trkpt lat="44.41217" lon="4.12283">
        <ele>252.80000305176</ele>
        <time>2012-05-19T10:52:20.000Z</time>
      </trkpt>
      <trkpt lat="44.41209" lon="4.12289">
        <ele>253.39999389648</ele>
        <time>2012-05-19T10:52:25.000Z</time>
      </trkpt>
      <trkpt lat="44.41201" lon="4.12306">
        <ele>253.19999694824</ele>
        <time>2012-05-19T10:52:29.000Z</time>
      </trkpt>
      <trkpt lat="44.41196" lon="4.12328">
        <ele>252.39999389648</ele>
        <time>2012-05-19T10:52:33.000Z</time>
      </trkpt>
      <trkpt lat="44.41184" lon="4.12357">
        <ele>252.39999389648</ele>
        <time>2012-05-19T10:52:37.000Z</time>
      </trkpt>
      <trkpt lat="44.41176" lon="4.12376">
        <ele>252.80000305176</ele>
        <time>2012-05-19T10:52:39.000Z</time>
      </trkpt>
      <trkpt lat="44.41167" lon="4.12408">
        <ele>253.39999389648</ele>
        <time>2012-05-19T10:52:42.000Z</time>
      </trkpt>
      <trkpt lat="44.41155" lon="4.12441">
        <ele>251.80000305176</ele>
        <time>2012-05-19T10:52:45.000Z</time>
      </trkpt>
      <trkpt lat="44.41146" lon="4.12464">
        <ele>250.80000305176</ele>
        <time>2012-05-19T10:52:47.000Z</time>
      </trkpt>
      <trkpt lat="44.41143" lon="4.12476">
        <ele>250.39999389648</ele>
        <time>2012-05-19T10:52:48.000Z</time>
      </trkpt>
      <trkpt lat="44.41136" lon="4.12494">
        <ele>249.60000610352</ele>
        <time>2012-05-19T10:52:50.000Z</time>
      </trkpt>
      <trkpt lat="44.41133" lon="4.125">
        <ele>249.39999389648</ele>
        <time>2012-05-19T10:52:51.000Z</time>
      </trkpt>
      <trkpt lat="44.41117" lon="4.1252">
        <ele>247.60000610352</ele>
        <time>2012-05-19T10:52:54.000Z</time>
      </trkpt>
      <trkpt lat="44.41112" lon="4.12529">
        <ele>247</ele>
        <time>2012-05-19T10:52:55.000Z</time>
      </trkpt>
      <trkpt lat="44.41095" lon="4.12556">
        <ele>244.80000305176</ele>
        <time>2012-05-19T10:52:58.000Z</time>
      </trkpt>
      <trkpt lat="44.41088" lon="4.12564">
        <ele>244.19999694824</ele>
        <time>2012-05-19T10:52:59.000Z</time>
      </trkpt>
      <trkpt lat="44.41075" lon="4.12582">
        <ele>242</ele>
        <time>2012-05-19T10:53:01.000Z</time>
      </trkpt>
      <trkpt lat="44.41065" lon="4.12601">
        <ele>239.39999389648</ele>
        <time>2012-05-19T10:53:03.000Z</time>
      </trkpt>
      <trkpt lat="44.41055" lon="4.12615">
        <ele>237.39999389648</ele>
        <time>2012-05-19T10:53:05.000Z</time>
      </trkpt>
      <trkpt lat="44.41046" lon="4.12625">
        <ele>235.60000610352</ele>
        <time>2012-05-19T10:53:07.000Z</time>
      </trkpt>
      <trkpt lat="44.41039" lon="4.12632">
        <ele>234.60000610352</ele>
        <time>2012-05-19T10:53:09.000Z</time>
      </trkpt>
      <trkpt lat="44.41038" lon="4.12634">
        <ele>234.19999694824</ele>
        <time>2012-05-19T10:53:10.000Z</time>
      </trkpt>
      <trkpt lat="44.41034" lon="4.12636">
        <ele>233.80000305176</ele>
        <time>2012-05-19T10:53:14.000Z</time>
      </trkpt>
      <trkpt lat="44.41031" lon="4.12635">
        <ele>233.60000610352</ele>
        <time>2012-05-19T10:53:17.000Z</time>
      </trkpt>
      <trkpt lat="44.4103" lon="4.12634">
        <ele>233.60000610352</ele>
        <time>2012-05-19T10:53:19.000Z</time>
      </trkpt>
      <trkpt lat="44.41027" lon="4.12633">
        <ele>233.19999694824</ele>
        <time>2012-05-19T10:53:22.000Z</time>
      </trkpt>
      <trkpt lat="44.41025" lon="4.12635">
        <ele>233</ele>
        <time>2012-05-19T10:53:23.000Z</time>
      </trkpt>
      <trkpt lat="44.41012" lon="4.12646">
        <ele>231.19999694824</ele>
        <time>2012-05-19T10:53:27.000Z</time>
      </trkpt>
      <trkpt lat="44.40992" lon="4.12663">
        <ele>228.19999694824</ele>
        <time>2012-05-19T10:53:31.000Z</time>
      </trkpt>
      <trkpt lat="44.40974" lon="4.1268">
        <ele>224.60000610352</ele>
        <time>2012-05-19T10:53:35.000Z</time>
      </trkpt>
      <trkpt lat="44.40969" lon="4.12686">
        <ele>223.60000610352</ele>
        <time>2012-05-19T10:53:36.000Z</time>
      </trkpt>
      <trkpt lat="44.40964" lon="4.12689">
        <ele>222.80000305176</ele>
        <time>2012-05-19T10:53:37.000Z</time>
      </trkpt>
      <trkpt lat="44.40949" lon="4.12697">
        <ele>220.39999389648</ele>
        <time>2012-05-19T10:53:40.000Z</time>
      </trkpt>
      <trkpt lat="44.40941" lon="4.12698">
        <ele>219.39999389648</ele>
        <time>2012-05-19T10:53:42.000Z</time>
      </trkpt>
      <trkpt lat="44.40937" lon="4.12697">
        <ele>219</ele>
        <time>2012-05-19T10:53:44.000Z</time>
      </trkpt>
      <trkpt lat="44.40928" lon="4.12696">
        <ele>218.19999694824</ele>
        <time>2012-05-19T10:53:48.000Z</time>
      </trkpt>
      <trkpt lat="44.40924" lon="4.12694">
        <ele>217.80000305176</ele>
        <time>2012-05-19T10:53:49.000Z</time>
      </trkpt>
      <trkpt lat="44.40907" lon="4.12695">
        <ele>216.39999389648</ele>
        <time>2012-05-19T10:53:52.000Z</time>
      </trkpt>
      <trkpt lat="44.40892" lon="4.12702">
        <ele>215</ele>
        <time>2012-05-19T10:53:56.000Z</time>
      </trkpt>
      <trkpt lat="44.40895" lon="4.12699">
        <ele>215.39999389648</ele>
        <time>2012-05-19T10:53:59.000Z</time>
      </trkpt>
      <trkpt lat="44.40899" lon="4.12699">
        <ele>215.60000610352</ele>
        <time>2012-05-19T10:54:04.000Z</time>
      </trkpt>
      <trkpt lat="44.40901" lon="4.12698">
        <ele>215.80000305176</ele>
        <time>2012-05-19T10:54:05.000Z</time>
      </trkpt>
      <trkpt lat="44.40909" lon="4.12695">
        <ele>216.39999389648</ele>
        <time>2012-05-19T10:54:09.000Z</time>
      </trkpt>
      <trkpt lat="44.40911" lon="4.12695">
        <ele>216.60000610352</ele>
        <time>2012-05-19T10:54:10.000Z</time>
      </trkpt>
      <trkpt lat="44.40914" lon="4.12694">
        <ele>216.80000305176</ele>
        <time>2012-05-19T10:54:14.000Z</time>
      </trkpt>
      <trkpt lat="44.40916" lon="4.12697">
        <ele>216.80000305176</ele>
        <time>2012-05-19T10:54:24.000Z</time>
      </trkpt>
      <trkpt lat="44.40915" lon="4.12693">
        <ele>217</ele>
        <time>2012-05-19T10:55:56.000Z</time>
      </trkpt>
      <trkpt lat="44.40915" lon="4.12691">
        <ele>217.19999694824</ele>
        <time>2012-05-19T10:56:08.000Z</time>
      </trkpt>
      <trkpt lat="44.40917" lon="4.127">
        <ele>216.60000610352</ele>
        <time>2012-05-19T10:57:48.000Z</time>
      </trkpt>
      <trkpt lat="44.40915" lon="4.12701">
        <ele>216.39999389648</ele>
        <time>2012-05-19T10:58:23.000Z</time>
      </trkpt>
      <trkpt lat="44.40914" lon="4.127">
        <ele>216.39999389648</ele>
        <time>2012-05-19T10:58:46.000Z</time>
      </trkpt>
      <trkpt lat="44.40915" lon="4.12699">
        <ele>216.60000610352</ele>
        <time>2012-05-19T11:01:40.000Z</time>
      </trkpt>
      <trkpt lat="44.40914" lon="4.127">
        <ele>216.39999389648</ele>
        <time>2012-05-19T11:02:22.000Z</time>
      </trkpt>
      <trkpt lat="44.40911" lon="4.127">
        <ele>216.19999694824</ele>
        <time>2012-05-19T11:05:23.000Z</time>
      </trkpt>
      <trkpt lat="44.40913" lon="4.12699">
        <ele>216.39999389648</ele>
        <time>2012-05-19T11:06:13.000Z</time>
      </trkpt>
      <trkpt lat="44.40915" lon="4.12703">
        <ele>216.19999694824</ele>
        <time>2012-05-19T11:06:51.000Z</time>
      </trkpt>
      <trkpt lat="44.40914" lon="4.12705">
        <ele>216.19999694824</ele>
        <time>2012-05-19T11:06:59.000Z</time>
      </trkpt>
      <trkpt lat="44.40909" lon="4.12706">
        <ele>215.60000610352</ele>
        <time>2012-05-19T11:07:06.000Z</time>
      </trkpt>
      <trkpt lat="44.40909" lon="4.12707">
        <ele>215.60000610352</ele>
        <time>2012-05-19T11:07:17.000Z</time>
      </trkpt>
      <trkpt lat="44.40912" lon="4.12705">
        <ele>216</ele>
        <time>2012-05-19T11:07:23.000Z</time>
      </trkpt>
      <trkpt lat="44.40913" lon="4.12702">
        <ele>216.19999694824</ele>
        <time>2012-05-19T11:07:29.000Z</time>
      </trkpt>
      <trkpt lat="44.40913" lon="4.127">
        <ele>216.39999389648</ele>
        <time>2012-05-19T11:07:37.000Z</time>
      </trkpt>
      <trkpt lat="44.40913" lon="4.127">
        <ele>216.39999389648</ele>
        <time>2012-05-19T11:10:24.000Z</time>
      </trkpt>
      <trkpt lat="44.40909" lon="4.12695">
        <ele>216.39999389648</ele>
        <time>2012-05-19T11:15:25.000Z</time>
      </trkpt>
      <trkpt lat="44.40912" lon="4.12699">
        <ele>216.39999389648</ele>
        <time>2012-05-19T11:18:20.000Z</time>
      </trkpt>
      <trkpt lat="44.40912" lon="4.12698">
        <ele>216.39999389648</ele>
        <time>2012-05-19T11:18:25.000Z</time>
      </trkpt>
      <trkpt lat="44.40914" lon="4.12697">
        <ele>216.60000610352</ele>
        <time>2012-05-19T11:18:55.000Z</time>
      </trkpt>
      <trkpt lat="44.40912" lon="4.12696">
        <ele>216.60000610352</ele>
        <time>2012-05-19T11:19:01.000Z</time>
      </trkpt>
      <trkpt lat="44.40911" lon="4.12697">
        <ele>216.39999389648</ele>
        <time>2012-05-19T11:19:21.000Z</time>
      </trkpt>
      <trkpt lat="44.40904" lon="4.12696">
        <ele>216.19999694824</ele>
        <time>2012-05-19T11:19:31.000Z</time>
      </trkpt>
      <trkpt lat="44.40903" lon="4.12698">
        <ele>215.80000305176</ele>
        <time>2012-05-19T11:19:37.000Z</time>
      </trkpt>
      <trkpt lat="44.40901" lon="4.127">
        <ele>215.60000610352</ele>
        <time>2012-05-19T11:19:44.000Z</time>
      </trkpt>
      <trkpt lat="44.40894" lon="4.12703">
        <ele>215</ele>
        <time>2012-05-19T11:19:49.000Z</time>
      </trkpt>
      <trkpt lat="44.40884" lon="4.12698">
        <ele>214.80000305176</ele>
        <time>2012-05-19T11:19:54.000Z</time>
      </trkpt>
      <trkpt lat="44.40879" lon="4.12697">
        <ele>214.60000610352</ele>
        <time>2012-05-19T11:19:56.000Z</time>
      </trkpt>
      <trkpt lat="44.40875" lon="4.12703">
        <ele>213.80000305176</ele>
        <time>2012-05-19T11:19:58.000Z</time>
      </trkpt>
      <trkpt lat="44.4087" lon="4.12718">
        <ele>212.60000610352</ele>
        <time>2012-05-19T11:20:01.000Z</time>
      </trkpt>
      <trkpt lat="44.40868" lon="4.12724">
        <ele>212</ele>
        <time>2012-05-19T11:20:02.000Z</time>
      </trkpt>
      <trkpt lat="44.40854" lon="4.12748">
        <ele>209.39999389648</ele>
        <time>2012-05-19T11:20:06.000Z</time>
      </trkpt>
      <trkpt lat="44.4085" lon="4.12754">
        <ele>208.60000610352</ele>
        <time>2012-05-19T11:20:07.000Z</time>
      </trkpt>
      <trkpt lat="44.40836" lon="4.12773">
        <ele>206.19999694824</ele>
        <time>2012-05-19T11:20:10.000Z</time>
      </trkpt>
      <trkpt lat="44.40822" lon="4.12794">
        <ele>203.80000305176</ele>
        <time>2012-05-19T11:20:13.000Z</time>
      </trkpt>
      <trkpt lat="44.40817" lon="4.12801">
        <ele>203</ele>
        <time>2012-05-19T11:20:14.000Z</time>
      </trkpt>
      <trkpt lat="44.40801" lon="4.12824">
        <ele>200.80000305176</ele>
        <time>2012-05-19T11:20:17.000Z</time>
      </trkpt>
      <trkpt lat="44.40787" lon="4.12843">
        <ele>199.39999389648</ele>
        <time>2012-05-19T11:20:20.000Z</time>
      </trkpt>
      <trkpt lat="44.40783" lon="4.12847">
        <ele>199.19999694824</ele>
        <time>2012-05-19T11:20:21.000Z</time>
      </trkpt>
      <trkpt lat="44.40777" lon="4.12852">
        <ele>198.80000305176</ele>
        <time>2012-05-19T11:20:24.000Z</time>
      </trkpt>
      <trkpt lat="44.40775" lon="4.12853">
        <ele>198.60000610352</ele>
        <time>2012-05-19T11:20:25.000Z</time>
      </trkpt>
      <trkpt lat="44.40772" lon="4.12855">
        <ele>198.39999389648</ele>
        <time>2012-05-19T11:20:30.000Z</time>
      </trkpt>
      <trkpt lat="44.40779" lon="4.12853">
        <ele>198.80000305176</ele>
        <time>2012-05-19T11:20:35.000Z</time>
      </trkpt>
      <trkpt lat="44.40786" lon="4.12866">
        <ele>198.39999389648</ele>
        <time>2012-05-19T11:20:39.000Z</time>
      </trkpt>
      <trkpt lat="44.40802" lon="4.12887">
        <ele>197.80000305176</ele>
        <time>2012-05-19T11:20:43.000Z</time>
      </trkpt>
      <trkpt lat="44.4082" lon="4.12909">
        <ele>197</ele>
        <time>2012-05-19T11:20:46.000Z</time>
      </trkpt>
      <trkpt lat="44.40825" lon="4.12916">
        <ele>196.80000305176</ele>
        <time>2012-05-19T11:20:47.000Z</time>
      </trkpt>
      <trkpt lat="44.40833" lon="4.12931">
        <ele>196.19999694824</ele>
        <time>2012-05-19T11:20:50.000Z</time>
      </trkpt>
      <trkpt lat="44.40837" lon="4.12946">
        <ele>195.60000610352</ele>
        <time>2012-05-19T11:20:54.000Z</time>
      </trkpt>
      <trkpt lat="44.40839" lon="4.1295">
        <ele>195.60000610352</ele>
        <time>2012-05-19T11:20:55.000Z</time>
      </trkpt>
      <trkpt lat="44.4084" lon="4.12957">
        <ele>195.39999389648</ele>
        <time>2012-05-19T11:20:57.000Z</time>
      </trkpt>
      <trkpt lat="44.40845" lon="4.12971">
        <ele>194.80000305176</ele>
        <time>2012-05-19T11:21:01.000Z</time>
      </trkpt>
      <trkpt lat="44.40857" lon="4.1299">
        <ele>194.80000305176</ele>
        <time>2012-05-19T11:21:05.000Z</time>
      </trkpt>
      <trkpt lat="44.40876" lon="4.13007">
        <ele>195.19999694824</ele>
        <time>2012-05-19T11:21:10.000Z</time>
      </trkpt>
      <trkpt lat="44.40882" lon="4.13015">
        <ele>195</ele>
        <time>2012-05-19T11:21:12.000Z</time>
      </trkpt>
      <trkpt lat="44.40887" lon="4.13037">
        <ele>193.80000305176</ele>
        <time>2012-05-19T11:21:16.000Z</time>
      </trkpt>
      <trkpt lat="44.4089" lon="4.13049">
        <ele>193</ele>
        <time>2012-05-19T11:21:18.000Z</time>
      </trkpt>
      <trkpt lat="44.40898" lon="4.13067">
        <ele>192.19999694824</ele>
        <time>2012-05-19T11:21:21.000Z</time>
      </trkpt>
      <trkpt lat="44.40912" lon="4.13078">
        <ele>192.19999694824</ele>
        <time>2012-05-19T11:21:25.000Z</time>
      </trkpt>
      <trkpt lat="44.40918" lon="4.13097">
        <ele>191.80000305176</ele>
        <time>2012-05-19T11:21:29.000Z</time>
      </trkpt>
      <trkpt lat="44.40919" lon="4.13103">
        <ele>191.60000610352</ele>
        <time>2012-05-19T11:21:30.000Z</time>
      </trkpt>
      <trkpt lat="44.40926" lon="4.13119">
        <ele>191.39999389648</ele>
        <time>2012-05-19T11:21:34.000Z</time>
      </trkpt>
      <trkpt lat="44.40934" lon="4.13135">
        <ele>191.19999694824</ele>
        <time>2012-05-19T11:21:37.000Z</time>
      </trkpt>
      <trkpt lat="44.4094" lon="4.1315">
        <ele>190.80000305176</ele>
        <time>2012-05-19T11:21:40.000Z</time>
      </trkpt>
      <trkpt lat="44.40955" lon="4.13167">
        <ele>190.39999389648</ele>
        <time>2012-05-19T11:21:45.000Z</time>
      </trkpt>
      <trkpt lat="44.40959" lon="4.1317">
        <ele>190.60000610352</ele>
        <time>2012-05-19T11:21:46.000Z</time>
      </trkpt>
      <trkpt lat="44.40964" lon="4.13176">
        <ele>190.60000610352</ele>
        <time>2012-05-19T11:21:48.000Z</time>
      </trkpt>
      <trkpt lat="44.40965" lon="4.13185">
        <ele>190.60000610352</ele>
        <time>2012-05-19T11:21:50.000Z</time>
      </trkpt>
      <trkpt lat="44.40965" lon="4.132">
        <ele>190.80000305176</ele>
        <time>2012-05-19T11:21:55.000Z</time>
      </trkpt>
      <trkpt lat="44.40966" lon="4.13207">
        <ele>190.80000305176</ele>
        <time>2012-05-19T11:22:00.000Z</time>
      </trkpt>
      <trkpt lat="44.40964" lon="4.13207">
        <ele>190.80000305176</ele>
        <time>2012-05-19T11:22:01.000Z</time>
      </trkpt>
      <trkpt lat="44.40959" lon="4.13203">
        <ele>190.80000305176</ele>
        <time>2012-05-19T11:22:05.000Z</time>
      </trkpt>
      <trkpt lat="44.40956" lon="4.13203">
        <ele>190.80000305176</ele>
        <time>2012-05-19T11:22:07.000Z</time>
      </trkpt>
      <trkpt lat="44.40946" lon="4.132">
        <ele>190.60000610352</ele>
        <time>2012-05-19T11:22:11.000Z</time>
      </trkpt>
      <trkpt lat="44.40926" lon="4.13205">
        <ele>190.60000610352</ele>
        <time>2012-05-19T11:22:16.000Z</time>
      </trkpt>
      <trkpt lat="44.40907" lon="4.13216">
        <ele>189.80000305176</ele>
        <time>2012-05-19T11:22:21.000Z</time>
      </trkpt>
      <trkpt lat="44.40896" lon="4.1322">
        <ele>189</ele>
        <time>2012-05-19T11:22:25.000Z</time>
      </trkpt>
      <trkpt lat="44.40885" lon="4.13224">
        <ele>188</ele>
        <time>2012-05-19T11:22:31.000Z</time>
      </trkpt>
      <trkpt lat="44.40874" lon="4.13224">
        <ele>187</ele>
        <time>2012-05-19T11:22:37.000Z</time>
      </trkpt>
      <trkpt lat="44.40858" lon="4.13222">
        <ele>185.80000305176</ele>
        <time>2012-05-19T11:22:41.000Z</time>
      </trkpt>
      <trkpt lat="44.40834" lon="4.13222">
        <ele>183.80000305176</ele>
        <time>2012-05-19T11:22:45.000Z</time>
      </trkpt>
      <trkpt lat="44.40828" lon="4.13222">
        <ele>183.39999389648</ele>
        <time>2012-05-19T11:22:46.000Z</time>
      </trkpt>
      <trkpt lat="44.40809" lon="4.13223">
        <ele>182.80000305176</ele>
        <time>2012-05-19T11:22:49.000Z</time>
      </trkpt>
      <trkpt lat="44.40794" lon="4.13223">
        <ele>182.19999694824</ele>
        <time>2012-05-19T11:22:51.000Z</time>
      </trkpt>
      <trkpt lat="44.40787" lon="4.13226">
        <ele>181.80000305176</ele>
        <time>2012-05-19T11:22:52.000Z</time>
      </trkpt>
      <trkpt lat="44.40774" lon="4.13229">
        <ele>181.19999694824</ele>
        <time>2012-05-19T11:22:54.000Z</time>
      </trkpt>
      <trkpt lat="44.40767" lon="4.13229">
        <ele>181</ele>
        <time>2012-05-19T11:22:55.000Z</time>
      </trkpt>
      <trkpt lat="44.40748" lon="4.13235">
        <ele>179.80000305176</ele>
        <time>2012-05-19T11:22:58.000Z</time>
      </trkpt>
      <trkpt lat="44.40742" lon="4.13237">
        <ele>179.39999389648</ele>
        <time>2012-05-19T11:23:00.000Z</time>
      </trkpt>
      <trkpt lat="44.40734" lon="4.13244">
        <ele>178.39999389648</ele>
        <time>2012-05-19T11:23:02.000Z</time>
      </trkpt>
      <trkpt lat="44.40729" lon="4.13247">
        <ele>178</ele>
        <time>2012-05-19T11:23:03.000Z</time>
      </trkpt>
      <trkpt lat="44.40724" lon="4.13249">
        <ele>177.39999389648</ele>
        <time>2012-05-19T11:23:04.000Z</time>
      </trkpt>
      <trkpt lat="44.4071" lon="4.13252">
        <ele>176.60000610352</ele>
        <time>2012-05-19T11:23:07.000Z</time>
      </trkpt>
      <trkpt lat="44.40705" lon="4.13254">
        <ele>176.19999694824</ele>
        <time>2012-05-19T11:23:08.000Z</time>
      </trkpt>
      <trkpt lat="44.40687" lon="4.1326">
        <ele>175</ele>
        <time>2012-05-19T11:23:12.000Z</time>
      </trkpt>
      <trkpt lat="44.40678" lon="4.13258">
        <ele>174.60000610352</ele>
        <time>2012-05-19T11:23:14.000Z</time>
      </trkpt>
      <trkpt lat="44.40673" lon="4.13257">
        <ele>174.19999694824</ele>
        <time>2012-05-19T11:23:15.000Z</time>
      </trkpt>
      <trkpt lat="44.40665" lon="4.13256">
        <ele>173.80000305176</ele>
        <time>2012-05-19T11:23:17.000Z</time>
      </trkpt>
      <trkpt lat="44.4066" lon="4.13257">
        <ele>173.80000305176</ele>
        <time>2012-05-19T11:23:18.000Z</time>
      </trkpt>
      <trkpt lat="44.40638" lon="4.13261">
        <ele>174</ele>
        <time>2012-05-19T11:23:22.000Z</time>
      </trkpt>
      <trkpt lat="44.40632" lon="4.13259">
        <ele>174</ele>
        <time>2012-05-19T11:23:25.000Z</time>
      </trkpt>
      <trkpt lat="44.40631" lon="4.13261">
        <ele>174</ele>
        <time>2012-05-19T11:23:30.000Z</time>
      </trkpt>
      <trkpt lat="44.40627" lon="4.13252">
        <ele>174.39999389648</ele>
        <time>2012-05-19T11:23:40.000Z</time>
      </trkpt>
      <trkpt lat="44.40618" lon="4.13234">
        <ele>175.19999694824</ele>
        <time>2012-05-19T11:23:46.000Z</time>
      </trkpt>
      <trkpt lat="44.40612" lon="4.13232">
        <ele>175.39999389648</ele>
        <time>2012-05-19T11:23:51.000Z</time>
      </trkpt>
      <trkpt lat="44.40611" lon="4.13233">
        <ele>175.19999694824</ele>
        <time>2012-05-19T11:23:52.000Z</time>
      </trkpt>
      <trkpt lat="44.40601" lon="4.13237">
        <ele>175.19999694824</ele>
        <time>2012-05-19T11:23:56.000Z</time>
      </trkpt>
      <trkpt lat="44.40599" lon="4.13238">
        <ele>175.19999694824</ele>
        <time>2012-05-19T11:23:57.000Z</time>
      </trkpt>
      <trkpt lat="44.40592" lon="4.13243">
        <ele>175</ele>
        <time>2012-05-19T11:24:02.000Z</time>
      </trkpt>
      <trkpt lat="44.40581" lon="4.13247">
        <ele>175.19999694824</ele>
        <time>2012-05-19T11:24:07.000Z</time>
      </trkpt>
      <trkpt lat="44.40582" lon="4.13253">
        <ele>175</ele>
        <time>2012-05-19T11:24:11.000Z</time>
      </trkpt>
      <trkpt lat="44.40581" lon="4.13252">
        <ele>175</ele>
        <time>2012-05-19T11:24:12.000Z</time>
      </trkpt>
      <trkpt lat="44.40571" lon="4.13252">
        <ele>175.39999389648</ele>
        <time>2012-05-19T11:24:17.000Z</time>
      </trkpt>
      <trkpt lat="44.4056" lon="4.13247">
        <ele>176.19999694824</ele>
        <time>2012-05-19T11:24:22.000Z</time>
      </trkpt>
      <trkpt lat="44.40546" lon="4.1325">
        <ele>176.80000305176</ele>
        <time>2012-05-19T11:24:28.000Z</time>
      </trkpt>
      <trkpt lat="44.40545" lon="4.13253">
        <ele>176.60000610352</ele>
        <time>2012-05-19T11:24:29.000Z</time>
      </trkpt>
      <trkpt lat="44.40542" lon="4.13261">
        <ele>176.60000610352</ele>
        <time>2012-05-19T11:24:32.000Z</time>
      </trkpt>
      <trkpt lat="44.40539" lon="4.13263">
        <ele>176.60000610352</ele>
        <time>2012-05-19T11:24:34.000Z</time>
      </trkpt>
      <trkpt lat="44.40538" lon="4.13265">
        <ele>176.60000610352</ele>
        <time>2012-05-19T11:24:36.000Z</time>
      </trkpt>
      <trkpt lat="44.4053" lon="4.13267">
        <ele>176.80000305176</ele>
        <time>2012-05-19T11:24:41.000Z</time>
      </trkpt>
      <trkpt lat="44.40527" lon="4.13268">
        <ele>177</ele>
        <time>2012-05-19T11:24:44.000Z</time>
      </trkpt>
      <trkpt lat="44.40524" lon="4.13267">
        <ele>177.19999694824</ele>
        <time>2012-05-19T11:24:46.000Z</time>
      </trkpt>
      <trkpt lat="44.40522" lon="4.13268">
        <ele>177.39999389648</ele>
        <time>2012-05-19T11:24:48.000Z</time>
      </trkpt>
      <trkpt lat="44.40517" lon="4.13263">
        <ele>177.80000305176</ele>
        <time>2012-05-19T11:24:51.000Z</time>
      </trkpt>
      <trkpt lat="44.40515" lon="4.13265">
        <ele>177.80000305176</ele>
        <time>2012-05-19T11:24:52.000Z</time>
      </trkpt>
      <trkpt lat="44.40504" lon="4.13271">
        <ele>178.19999694824</ele>
        <time>2012-05-19T11:24:57.000Z</time>
      </trkpt>
      <trkpt lat="44.40501" lon="4.13274">
        <ele>178.39999389648</ele>
        <time>2012-05-19T11:24:58.000Z</time>
      </trkpt>
      <trkpt lat="44.40499" lon="4.13283">
        <ele>178.19999694824</ele>
        <time>2012-05-19T11:25:01.000Z</time>
      </trkpt>
      <trkpt lat="44.40496" lon="4.13298">
        <ele>178.19999694824</ele>
        <time>2012-05-19T11:25:06.000Z</time>
      </trkpt>
      <trkpt lat="44.40496" lon="4.13302">
        <ele>178.19999694824</ele>
        <time>2012-05-19T11:25:07.000Z</time>
      </trkpt>
      <trkpt lat="44.40486" lon="4.1331">
        <ele>178.80000305176</ele>
        <time>2012-05-19T11:25:11.000Z</time>
      </trkpt>
      <trkpt lat="44.40473" lon="4.13318">
        <ele>180</ele>
        <time>2012-05-19T11:25:15.000Z</time>
      </trkpt>
      <trkpt lat="44.40463" lon="4.13329">
        <ele>180.60000610352</ele>
        <time>2012-05-19T11:25:20.000Z</time>
      </trkpt>
      <trkpt lat="44.4045" lon="4.13339">
        <ele>181.60000610352</ele>
        <time>2012-05-19T11:25:27.000Z</time>
      </trkpt>
      <trkpt lat="44.40446" lon="4.13364">
        <ele>180.80000305176</ele>
        <time>2012-05-19T11:25:34.000Z</time>
      </trkpt>
      <trkpt lat="44.40446" lon="4.13381">
        <ele>180</ele>
        <time>2012-05-19T11:25:40.000Z</time>
      </trkpt>
      <trkpt lat="44.40446" lon="4.13391">
        <ele>179.60000610352</ele>
        <time>2012-05-19T11:25:46.000Z</time>
      </trkpt>
      <trkpt lat="44.40448" lon="4.13394">
        <ele>179.39999389648</ele>
        <time>2012-05-19T11:25:48.000Z</time>
      </trkpt>
      <trkpt lat="44.40451" lon="4.13403">
        <ele>178.80000305176</ele>
        <time>2012-05-19T11:25:51.000Z</time>
      </trkpt>
      <trkpt lat="44.40452" lon="4.13406">
        <ele>178.39999389648</ele>
        <time>2012-05-19T11:25:52.000Z</time>
      </trkpt>
      <trkpt lat="44.40455" lon="4.13427">
        <ele>177.39999389648</ele>
        <time>2012-05-19T11:25:57.000Z</time>
      </trkpt>
      <trkpt lat="44.40458" lon="4.13452">
        <ele>176.19999694824</ele>
        <time>2012-05-19T11:26:02.000Z</time>
      </trkpt>
      <trkpt lat="44.40463" lon="4.13464">
        <ele>175.39999389648</ele>
        <time>2012-05-19T11:26:04.000Z</time>
      </trkpt>
      <trkpt lat="44.40475" lon="4.13479">
        <ele>174.19999694824</ele>
        <time>2012-05-19T11:26:07.000Z</time>
      </trkpt>
      <trkpt lat="44.40479" lon="4.13481">
        <ele>173.80000305176</ele>
        <time>2012-05-19T11:26:08.000Z</time>
      </trkpt>
      <trkpt lat="44.40493" lon="4.13492">
        <ele>172.60000610352</ele>
        <time>2012-05-19T11:26:11.000Z</time>
      </trkpt>
      <trkpt lat="44.405" lon="4.13503">
        <ele>172</ele>
        <time>2012-05-19T11:26:13.000Z</time>
      </trkpt>
      <trkpt lat="44.40504" lon="4.13512">
        <ele>171.60000610352</ele>
        <time>2012-05-19T11:26:15.000Z</time>
      </trkpt>
      <trkpt lat="44.40506" lon="4.13515">
        <ele>171.39999389648</ele>
        <time>2012-05-19T11:26:16.000Z</time>
      </trkpt>
      <trkpt lat="44.40508" lon="4.13518">
        <ele>171.19999694824</ele>
        <time>2012-05-19T11:26:18.000Z</time>
      </trkpt>
      <trkpt lat="44.40508" lon="4.1352">
        <ele>171.19999694824</ele>
        <time>2012-05-19T11:26:19.000Z</time>
      </trkpt>
      <trkpt lat="44.40513" lon="4.13526">
        <ele>171</ele>
        <time>2012-05-19T11:26:24.000Z</time>
      </trkpt>
      <trkpt lat="44.40512" lon="4.13532">
        <ele>171</ele>
        <time>2012-05-19T11:26:26.000Z</time>
      </trkpt>
      <trkpt lat="44.40513" lon="4.13547">
        <ele>170.60000610352</ele>
        <time>2012-05-19T11:26:30.000Z</time>
      </trkpt>
      <trkpt lat="44.40512" lon="4.13573">
        <ele>170.39999389648</ele>
        <time>2012-05-19T11:26:37.000Z</time>
      </trkpt>
      <trkpt lat="44.40508" lon="4.13594">
        <ele>170.60000610352</ele>
        <time>2012-05-19T11:26:42.000Z</time>
      </trkpt>
      <trkpt lat="44.40503" lon="4.13612">
        <ele>171.19999694824</ele>
        <time>2012-05-19T11:26:47.000Z</time>
      </trkpt>
      <trkpt lat="44.40494" lon="4.13638">
        <ele>171.80000305176</ele>
        <time>2012-05-19T11:26:55.000Z</time>
      </trkpt>
      <trkpt lat="44.4049" lon="4.13653">
        <ele>172.19999694824</ele>
        <time>2012-05-19T11:27:00.000Z</time>
      </trkpt>
      <trkpt lat="44.40488" lon="4.13659">
        <ele>172.39999389648</ele>
        <time>2012-05-19T11:27:02.000Z</time>
      </trkpt>
      <trkpt lat="44.40482" lon="4.13684">
        <ele>173.19999694824</ele>
        <time>2012-05-19T11:27:10.000Z</time>
      </trkpt>
      <trkpt lat="44.40482" lon="4.13687">
        <ele>173.39999389648</ele>
        <time>2012-05-19T11:27:11.000Z</time>
      </trkpt>
      <trkpt lat="44.40477" lon="4.13705">
        <ele>174.19999694824</ele>
        <time>2012-05-19T11:27:16.000Z</time>
      </trkpt>
      <trkpt lat="44.40471" lon="4.13724">
        <ele>175.19999694824</ele>
        <time>2012-05-19T11:27:22.000Z</time>
      </trkpt>
      <trkpt lat="44.40459" lon="4.13746">
        <ele>176.80000305176</ele>
        <time>2012-05-19T11:27:30.000Z</time>
      </trkpt>
      <trkpt lat="44.40456" lon="4.13752">
        <ele>177.19999694824</ele>
        <time>2012-05-19T11:27:32.000Z</time>
      </trkpt>
      <trkpt lat="44.40443" lon="4.1376">
        <ele>178.80000305176</ele>
        <time>2012-05-19T11:27:38.000Z</time>
      </trkpt>
      <trkpt lat="44.40425" lon="4.13762">
        <ele>180.39999389648</ele>
        <time>2012-05-19T11:27:45.000Z</time>
      </trkpt>
      <trkpt lat="44.40422" lon="4.13761">
        <ele>180.60000610352</ele>
        <time>2012-05-19T11:27:46.000Z</time>
      </trkpt>
      <trkpt lat="44.40408" lon="4.13749">
        <ele>181</ele>
        <time>2012-05-19T11:27:52.000Z</time>
      </trkpt>
      <trkpt lat="44.40394" lon="4.1373">
        <ele>181.39999389648</ele>
        <time>2012-05-19T11:27:59.000Z</time>
      </trkpt>
      <trkpt lat="44.40392" lon="4.13727">
        <ele>181.39999389648</ele>
        <time>2012-05-19T11:28:00.000Z</time>
      </trkpt>
      <trkpt lat="44.40377" lon="4.1371">
        <ele>181.80000305176</ele>
        <time>2012-05-19T11:28:07.000Z</time>
      </trkpt>
      <trkpt lat="44.40374" lon="4.13712">
        <ele>182.19999694824</ele>
        <time>2012-05-19T11:28:08.000Z</time>
      </trkpt>
      <trkpt lat="44.40374" lon="4.13718">
        <ele>182.60000610352</ele>
        <time>2012-05-19T11:28:10.000Z</time>
      </trkpt>
      <trkpt lat="44.40377" lon="4.13725">
        <ele>182.80000305176</ele>
        <time>2012-05-19T11:28:12.000Z</time>
      </trkpt>
      <trkpt lat="44.40379" lon="4.13732">
        <ele>183.19999694824</ele>
        <time>2012-05-19T11:28:14.000Z</time>
      </trkpt>
      <trkpt lat="44.40388" lon="4.13754">
        <ele>183.80000305176</ele>
        <time>2012-05-19T11:28:20.000Z</time>
      </trkpt>
      <trkpt lat="44.40394" lon="4.13763">
        <ele>184.19999694824</ele>
        <time>2012-05-19T11:28:23.000Z</time>
      </trkpt>
      <trkpt lat="44.40402" lon="4.13776">
        <ele>184.60000610352</ele>
        <time>2012-05-19T11:28:28.000Z</time>
      </trkpt>
      <trkpt lat="44.40402" lon="4.13783">
        <ele>185.39999389648</ele>
        <time>2012-05-19T11:28:32.000Z</time>
      </trkpt>
      <trkpt lat="44.40401" lon="4.13784">
        <ele>185.60000610352</ele>
        <time>2012-05-19T11:28:33.000Z</time>
      </trkpt>
      <trkpt lat="44.40401" lon="4.13786">
        <ele>185.80000305176</ele>
        <time>2012-05-19T11:28:39.000Z</time>
      </trkpt>
      <trkpt lat="44.40402" lon="4.13784">
        <ele>185.39999389648</ele>
        <time>2012-05-19T11:28:55.000Z</time>
      </trkpt>
      <trkpt lat="44.404" lon="4.13785">
        <ele>185.80000305176</ele>
        <time>2012-05-19T11:29:03.000Z</time>
      </trkpt>
      <trkpt lat="44.40402" lon="4.13784">
        <ele>185.39999389648</ele>
        <time>2012-05-19T11:29:20.000Z</time>
      </trkpt>
      <trkpt lat="44.40401" lon="4.13783">
        <ele>185.39999389648</ele>
        <time>2012-05-19T11:29:25.000Z</time>
      </trkpt>
      <trkpt lat="44.404" lon="4.13784">
        <ele>185.60000610352</ele>
        <time>2012-05-19T11:29:56.000Z</time>
      </trkpt>
      <trkpt lat="44.40401" lon="4.13781">
        <ele>185.19999694824</ele>
        <time>2012-05-19T11:30:14.000Z</time>
      </trkpt>
      <trkpt lat="44.40403" lon="4.13781">
        <ele>185</ele>
        <time>2012-05-19T11:30:24.000Z</time>
      </trkpt>
      <trkpt lat="44.40403" lon="4.13783">
        <ele>185.19999694824</ele>
        <time>2012-05-19T11:30:30.000Z</time>
      </trkpt>
      <trkpt lat="44.40402" lon="4.13787">
        <ele>185.80000305176</ele>
        <time>2012-05-19T11:30:37.000Z</time>
      </trkpt>
      <trkpt lat="44.404" lon="4.13787">
        <ele>186</ele>
        <time>2012-05-19T11:30:42.000Z</time>
      </trkpt>
      <trkpt lat="44.404" lon="4.13787">
        <ele>186.19999694824</ele>
        <time>2012-05-19T11:30:48.000Z</time>
      </trkpt>
      <trkpt lat="44.404" lon="4.13787">
        <ele>186</ele>
        <time>2012-05-19T11:31:12.000Z</time>
      </trkpt>
      <trkpt lat="44.40401" lon="4.13783">
        <ele>185.60000610352</ele>
        <time>2012-05-19T11:31:32.000Z</time>
      </trkpt>
      <trkpt lat="44.40405" lon="4.13788">
        <ele>185.39999389648</ele>
        <time>2012-05-19T11:31:37.000Z</time>
      </trkpt>
      <trkpt lat="44.40407" lon="4.13791">
        <ele>185.19999694824</ele>
        <time>2012-05-19T11:31:43.000Z</time>
      </trkpt>
      <trkpt lat="44.40409" lon="4.13794">
        <ele>185.19999694824</ele>
        <time>2012-05-19T11:31:48.000Z</time>
      </trkpt>
      <trkpt lat="44.40409" lon="4.13795">
        <ele>185.19999694824</ele>
        <time>2012-05-19T11:31:57.000Z</time>
      </trkpt>
      <trkpt lat="44.40408" lon="4.13794">
        <ele>185.39999389648</ele>
        <time>2012-05-19T11:32:06.000Z</time>
      </trkpt>
      <trkpt lat="44.40408" lon="4.13795">
        <ele>185.39999389648</ele>
        <time>2012-05-19T11:32:18.000Z</time>
      </trkpt>
      <trkpt lat="44.40407" lon="4.13789">
        <ele>185</ele>
        <time>2012-05-19T11:32:29.000Z</time>
      </trkpt>
      <trkpt lat="44.40402" lon="4.13783">
        <ele>185.39999389648</ele>
        <time>2012-05-19T11:33:55.000Z</time>
      </trkpt>
      <trkpt lat="44.404" lon="4.13785">
        <ele>185.80000305176</ele>
        <time>2012-05-19T11:34:01.000Z</time>
      </trkpt>
      <trkpt lat="44.404" lon="4.13783">
        <ele>185.60000610352</ele>
        <time>2012-05-19T11:34:11.000Z</time>
      </trkpt>
      <trkpt lat="44.40401" lon="4.13783">
        <ele>185.39999389648</ele>
        <time>2012-05-19T11:34:12.000Z</time>
      </trkpt>
      <trkpt lat="44.40405" lon="4.13789">
        <ele>185.39999389648</ele>
        <time>2012-05-19T11:34:17.000Z</time>
      </trkpt>
      <trkpt lat="44.40407" lon="4.13789">
        <ele>185.19999694824</ele>
        <time>2012-05-19T11:34:21.000Z</time>
      </trkpt>
      <trkpt lat="44.40408" lon="4.1379">
        <ele>185</ele>
        <time>2012-05-19T11:34:27.000Z</time>
      </trkpt>
      <trkpt lat="44.40405" lon="4.13786">
        <ele>185.19999694824</ele>
        <time>2012-05-19T11:35:42.000Z</time>
      </trkpt>
      <trkpt lat="44.40405" lon="4.13787">
        <ele>185.19999694824</ele>
        <time>2012-05-19T11:35:49.000Z</time>
      </trkpt>
      <trkpt lat="44.40406" lon="4.13789">
        <ele>185.19999694824</ele>
        <time>2012-05-19T11:35:58.000Z</time>
      </trkpt>
      <trkpt lat="44.40406" lon="4.13785">
        <ele>184.80000305176</ele>
        <time>2012-05-19T11:36:39.000Z</time>
      </trkpt>
      <trkpt lat="44.40405" lon="4.13786">
        <ele>185</ele>
        <time>2012-05-19T11:36:50.000Z</time>
      </trkpt>
      <trkpt lat="44.40405" lon="4.13788">
        <ele>185.19999694824</ele>
        <time>2012-05-19T11:37:10.000Z</time>
      </trkpt>
      <trkpt lat="44.40404" lon="4.13785">
        <ele>185.19999694824</ele>
        <time>2012-05-19T11:37:20.000Z</time>
      </trkpt>
      <trkpt lat="44.40406" lon="4.13786">
        <ele>185</ele>
        <time>2012-05-19T11:37:28.000Z</time>
      </trkpt>
      <trkpt lat="44.40406" lon="4.13788">
        <ele>185</ele>
        <time>2012-05-19T11:37:30.000Z</time>
      </trkpt>
      <trkpt lat="44.40409" lon="4.13786">
        <ele>184.39999389648</ele>
        <time>2012-05-19T11:37:42.000Z</time>
      </trkpt>
      <trkpt lat="44.4041" lon="4.13787">
        <ele>184.39999389648</ele>
        <time>2012-05-19T11:37:49.000Z</time>
      </trkpt>
      <trkpt lat="44.40408" lon="4.1379">
        <ele>185</ele>
        <time>2012-05-19T11:40:25.000Z</time>
      </trkpt>
      <trkpt lat="44.4041" lon="4.1379">
        <ele>184.60000610352</ele>
        <time>2012-05-19T11:41:19.000Z</time>
      </trkpt>
      <trkpt lat="44.40411" lon="4.13792">
        <ele>184.60000610352</ele>
        <time>2012-05-19T11:41:48.000Z</time>
      </trkpt>
      <trkpt lat="44.40405" lon="4.13797">
        <ele>186.19999694824</ele>
        <time>2012-05-19T11:42:38.000Z</time>
      </trkpt>
      <trkpt lat="44.40405" lon="4.13793">
        <ele>185.80000305176</ele>
        <time>2012-05-19T11:44:04.000Z</time>
      </trkpt>
      <trkpt lat="44.40405" lon="4.13791">
        <ele>185.60000610352</ele>
        <time>2012-05-19T11:45:11.000Z</time>
      </trkpt>
      <trkpt lat="44.40406" lon="4.13789">
        <ele>185.39999389648</ele>
        <time>2012-05-19T11:45:56.000Z</time>
      </trkpt>
      <trkpt lat="44.40407" lon="4.13797">
        <ele>186</ele>
        <time>2012-05-19T11:49:37.000Z</time>
      </trkpt>
      <trkpt lat="44.40407" lon="4.13792">
        <ele>185.39999389648</ele>
        <time>2012-05-19T11:49:47.000Z</time>
      </trkpt>
      <trkpt lat="44.40401" lon="4.13789">
        <ele>186</ele>
        <time>2012-05-19T11:50:52.000Z</time>
      </trkpt>
      <trkpt lat="44.40404" lon="4.13788">
        <ele>185.60000610352</ele>
        <time>2012-05-19T11:50:58.000Z</time>
      </trkpt>
      <trkpt lat="44.40405" lon="4.13787">
        <ele>185.19999694824</ele>
        <time>2012-05-19T11:51:00.000Z</time>
      </trkpt>
      <trkpt lat="44.40406" lon="4.13788">
        <ele>185</ele>
        <time>2012-05-19T11:51:04.000Z</time>
      </trkpt>
      <trkpt lat="44.40407" lon="4.13791">
        <ele>185.19999694824</ele>
        <time>2012-05-19T11:51:16.000Z</time>
      </trkpt>
      <trkpt lat="44.40408" lon="4.13793">
        <ele>185.19999694824</ele>
        <time>2012-05-19T11:51:34.000Z</time>
      </trkpt>
      <trkpt lat="44.40405" lon="4.13796">
        <ele>186</ele>
        <time>2012-05-19T11:55:50.000Z</time>
      </trkpt>
      <trkpt lat="44.40402" lon="4.13804">
        <ele>187.60000610352</ele>
        <time>2012-05-19T11:57:05.000Z</time>
      </trkpt>
      <trkpt lat="44.40402" lon="4.13805">
        <ele>187.60000610352</ele>
        <time>2012-05-19T11:57:11.000Z</time>
      </trkpt>
      <trkpt lat="44.40404" lon="4.13807">
        <ele>187.60000610352</ele>
        <time>2012-05-19T11:57:17.000Z</time>
      </trkpt>
      <trkpt lat="44.40407" lon="4.13808">
        <ele>186.80000305176</ele>
        <time>2012-05-19T11:57:22.000Z</time>
      </trkpt>
      <trkpt lat="44.40413" lon="4.13809">
        <ele>185.80000305176</ele>
        <time>2012-05-19T11:57:30.000Z</time>
      </trkpt>
      <trkpt lat="44.40415" lon="4.13805">
        <ele>184.80000305176</ele>
        <time>2012-05-19T11:58:17.000Z</time>
      </trkpt>
      <trkpt lat="44.40413" lon="4.138">
        <ele>185</ele>
        <time>2012-05-19T11:58:22.000Z</time>
      </trkpt>
      <trkpt lat="44.40408" lon="4.13796">
        <ele>185.60000610352</ele>
        <time>2012-05-19T11:58:28.000Z</time>
      </trkpt>
      <trkpt lat="44.40404" lon="4.1379">
        <ele>185.80000305176</ele>
        <time>2012-05-19T11:58:35.000Z</time>
      </trkpt>
      <trkpt lat="44.40404" lon="4.1379">
        <ele>185.80000305176</ele>
        <time>2012-05-19T11:58:36.000Z</time>
      </trkpt>
      <trkpt lat="44.40401" lon="4.13787">
        <ele>186</ele>
        <time>2012-05-19T11:58:40.000Z</time>
      </trkpt>
      <trkpt lat="44.404" lon="4.13787">
        <ele>186</ele>
        <time>2012-05-19T11:58:44.000Z</time>
      </trkpt>
      <trkpt lat="44.40403" lon="4.13787">
        <ele>185.60000610352</ele>
        <time>2012-05-19T11:58:52.000Z</time>
      </trkpt>
      <trkpt lat="44.40404" lon="4.13789">
        <ele>185.60000610352</ele>
        <time>2012-05-19T11:58:54.000Z</time>
      </trkpt>
      <trkpt lat="44.40405" lon="4.13791">
        <ele>185.60000610352</ele>
        <time>2012-05-19T11:58:56.000Z</time>
      </trkpt>
      <trkpt lat="44.40406" lon="4.13793">
        <ele>185.80000305176</ele>
        <time>2012-05-19T11:59:02.000Z</time>
      </trkpt>
      <trkpt lat="44.40407" lon="4.13795">
        <ele>185.60000610352</ele>
        <time>2012-05-19T11:59:21.000Z</time>
      </trkpt>
      <trkpt lat="44.40408" lon="4.13795">
        <ele>185.39999389648</ele>
        <time>2012-05-19T11:59:28.000Z</time>
      </trkpt>
      <trkpt lat="44.40406" lon="4.1379">
        <ele>185.19999694824</ele>
        <time>2012-05-19T11:59:39.000Z</time>
      </trkpt>
      <trkpt lat="44.40404" lon="4.13788">
        <ele>185.60000610352</ele>
        <time>2012-05-19T11:59:46.000Z</time>
      </trkpt>
      <trkpt lat="44.40402" lon="4.13787">
        <ele>185.60000610352</ele>
        <time>2012-05-19T11:59:48.000Z</time>
      </trkpt>
      <trkpt lat="44.404" lon="4.13785">
        <ele>186</ele>
        <time>2012-05-19T11:59:54.000Z</time>
      </trkpt>
      <trkpt lat="44.40401" lon="4.13788">
        <ele>186</ele>
        <time>2012-05-19T12:00:21.000Z</time>
      </trkpt>
      <trkpt lat="44.40399" lon="4.13782">
        <ele>185.60000610352</ele>
        <time>2012-05-19T12:00:26.000Z</time>
      </trkpt>
      <trkpt lat="44.40397" lon="4.13779">
        <ele>185.60000610352</ele>
        <time>2012-05-19T12:00:30.000Z</time>
      </trkpt>
      <trkpt lat="44.40397" lon="4.13779">
        <ele>185.60000610352</ele>
        <time>2012-05-19T12:00:33.000Z</time>
      </trkpt>
      <trkpt lat="44.404" lon="4.13777">
        <ele>185</ele>
        <time>2012-05-19T12:01:09.000Z</time>
      </trkpt>
      <trkpt lat="44.40403" lon="4.13779">
        <ele>184.80000305176</ele>
        <time>2012-05-19T12:01:54.000Z</time>
      </trkpt>
      <trkpt lat="44.40401" lon="4.13777">
        <ele>184.80000305176</ele>
        <time>2012-05-19T12:01:59.000Z</time>
      </trkpt>
      <trkpt lat="44.40399" lon="4.13777">
        <ele>185.19999694824</ele>
        <time>2012-05-19T12:02:12.000Z</time>
      </trkpt>
      <trkpt lat="44.40401" lon="4.1378">
        <ele>185.19999694824</ele>
        <time>2012-05-19T12:02:20.000Z</time>
      </trkpt>
      <trkpt lat="44.40403" lon="4.13782">
        <ele>185</ele>
        <time>2012-05-19T12:02:26.000Z</time>
      </trkpt>
      <trkpt lat="44.40403" lon="4.13786">
        <ele>185.60000610352</ele>
        <time>2012-05-19T12:02:32.000Z</time>
      </trkpt>
      <trkpt lat="44.40402" lon="4.13787">
        <ele>185.80000305176</ele>
        <time>2012-05-19T12:02:44.000Z</time>
      </trkpt>
      <trkpt lat="44.40401" lon="4.13786">
        <ele>185.80000305176</ele>
        <time>2012-05-19T12:02:50.000Z</time>
      </trkpt>
      <trkpt lat="44.40403" lon="4.13785">
        <ele>185.39999389648</ele>
        <time>2012-05-19T12:02:53.000Z</time>
      </trkpt>
      <trkpt lat="44.40405" lon="4.13788">
        <ele>185.19999694824</ele>
        <time>2012-05-19T12:02:56.000Z</time>
      </trkpt>
      <trkpt lat="44.40408" lon="4.13791">
        <ele>185</ele>
        <time>2012-05-19T12:03:03.000Z</time>
      </trkpt>
      <trkpt lat="44.40408" lon="4.13792">
        <ele>185.19999694824</ele>
        <time>2012-05-19T12:03:10.000Z</time>
      </trkpt>
      <trkpt lat="44.40404" lon="4.13788">
        <ele>185.60000610352</ele>
        <time>2012-05-19T12:03:23.000Z</time>
      </trkpt>
      <trkpt lat="44.40404" lon="4.13789">
        <ele>185.60000610352</ele>
        <time>2012-05-19T12:03:29.000Z</time>
      </trkpt>
      <trkpt lat="44.40407" lon="4.1379">
        <ele>185.19999694824</ele>
        <time>2012-05-19T12:03:35.000Z</time>
      </trkpt>
      <trkpt lat="44.40402" lon="4.13793">
        <ele>186.39999389648</ele>
        <time>2012-05-19T12:04:08.000Z</time>
      </trkpt>
      <trkpt lat="44.40398" lon="4.13789">
        <ele>186.60000610352</ele>
        <time>2012-05-19T12:04:16.000Z</time>
      </trkpt>
      <trkpt lat="44.40399" lon="4.13786">
        <ele>186.19999694824</ele>
        <time>2012-05-19T12:04:38.000Z</time>
      </trkpt>
      <trkpt lat="44.40402" lon="4.13788">
        <ele>185.80000305176</ele>
        <time>2012-05-19T12:04:52.000Z</time>
      </trkpt>
      <trkpt lat="44.40401" lon="4.13787">
        <ele>185.80000305176</ele>
        <time>2012-05-19T12:05:17.000Z</time>
      </trkpt>
      <trkpt lat="44.404" lon="4.13788">
        <ele>186.19999694824</ele>
        <time>2012-05-19T12:05:23.000Z</time>
      </trkpt>
      <trkpt lat="44.404" lon="4.13787">
        <ele>186</ele>
        <time>2012-05-19T12:05:38.000Z</time>
      </trkpt>
      <trkpt lat="44.404" lon="4.13789">
        <ele>186.19999694824</ele>
        <time>2012-05-19T12:05:43.000Z</time>
      </trkpt>
      <trkpt lat="44.40401" lon="4.13788">
        <ele>186</ele>
        <time>2012-05-19T12:06:04.000Z</time>
      </trkpt>
      <trkpt lat="44.40403" lon="4.13792">
        <ele>186</ele>
        <time>2012-05-19T12:06:12.000Z</time>
      </trkpt>
      <trkpt lat="44.40407" lon="4.1379">
        <ele>185.19999694824</ele>
        <time>2012-05-19T12:06:20.000Z</time>
      </trkpt>
      <trkpt lat="44.40407" lon="4.13792">
        <ele>185.39999389648</ele>
        <time>2012-05-19T12:06:34.000Z</time>
      </trkpt>
      <trkpt lat="44.40408" lon="4.13793">
        <ele>185.39999389648</ele>
        <time>2012-05-19T12:06:40.000Z</time>
      </trkpt>
      <trkpt lat="44.40407" lon="4.13794">
        <ele>185.60000610352</ele>
        <time>2012-05-19T12:09:40.000Z</time>
      </trkpt>
      <trkpt lat="44.40403" lon="4.13789">
        <ele>185.80000305176</ele>
        <time>2012-05-19T12:09:48.000Z</time>
      </trkpt>
      <trkpt lat="44.40401" lon="4.13791">
        <ele>186.19999694824</ele>
        <time>2012-05-19T12:09:54.000Z</time>
      </trkpt>
      <trkpt lat="44.40402" lon="4.13789">
        <ele>186</ele>
        <time>2012-05-19T12:10:33.000Z</time>
      </trkpt>
      <trkpt lat="44.40401" lon="4.13781">
        <ele>185.39999389648</ele>
        <time>2012-05-19T12:10:40.000Z</time>
      </trkpt>
      <trkpt lat="44.40395" lon="4.13765">
        <ele>184.19999694824</ele>
        <time>2012-05-19T12:10:45.000Z</time>
      </trkpt>
      <trkpt lat="44.40385" lon="4.1374">
        <ele>183</ele>
        <time>2012-05-19T12:10:51.000Z</time>
      </trkpt>
      <trkpt lat="44.40383" lon="4.13736">
        <ele>183</ele>
        <time>2012-05-19T12:10:52.000Z</time>
      </trkpt>
      <trkpt lat="44.40376" lon="4.13719">
        <ele>182.39999389648</ele>
        <time>2012-05-19T12:10:56.000Z</time>
      </trkpt>
      <trkpt lat="44.40377" lon="4.13716">
        <ele>182</ele>
        <time>2012-05-19T12:10:57.000Z</time>
      </trkpt>
      <trkpt lat="44.40383" lon="4.13719">
        <ele>181.60000610352</ele>
        <time>2012-05-19T12:11:00.000Z</time>
      </trkpt>
      <trkpt lat="44.40387" lon="4.13725">
        <ele>181.80000305176</ele>
        <time>2012-05-19T12:11:02.000Z</time>
      </trkpt>
      <trkpt lat="44.40396" lon="4.13744">
        <ele>182</ele>
        <time>2012-05-19T12:11:07.000Z</time>
      </trkpt>
      <trkpt lat="44.40407" lon="4.13768">
        <ele>182.80000305176</ele>
        <time>2012-05-19T12:11:12.000Z</time>
      </trkpt>
      <trkpt lat="44.4041" lon="4.13773">
        <ele>183</ele>
        <time>2012-05-19T12:11:13.000Z</time>
      </trkpt>
      <trkpt lat="44.40413" lon="4.13785">
        <ele>183.60000610352</ele>
        <time>2012-05-19T12:11:17.000Z</time>
      </trkpt>
      <trkpt lat="44.40413" lon="4.13785">
        <ele>183.60000610352</ele>
        <time>2012-05-19T12:11:19.000Z</time>
      </trkpt>
      <trkpt lat="44.40413" lon="4.13786">
        <ele>183.60000610352</ele>
        <time>2012-05-19T12:11:21.000Z</time>
      </trkpt>
      <trkpt lat="44.40411" lon="4.13788">
        <ele>184.19999694824</ele>
        <time>2012-05-19T12:11:23.000Z</time>
      </trkpt>
      <trkpt lat="44.40411" lon="4.13792">
        <ele>184.60000610352</ele>
        <time>2012-05-19T12:11:27.000Z</time>
      </trkpt>
      <trkpt lat="44.40411" lon="4.13793">
        <ele>184.80000305176</ele>
        <time>2012-05-19T12:11:28.000Z</time>
      </trkpt>
      <trkpt lat="44.40413" lon="4.13788">
        <ele>183.80000305176</ele>
        <time>2012-05-19T12:11:34.000Z</time>
      </trkpt>
      <trkpt lat="44.40414" lon="4.13787">
        <ele>183.60000610352</ele>
        <time>2012-05-19T12:11:35.000Z</time>
      </trkpt>
      <trkpt lat="44.40413" lon="4.13785">
        <ele>183.39999389648</ele>
        <time>2012-05-19T12:11:39.000Z</time>
      </trkpt>
      <trkpt lat="44.40414" lon="4.13782">
        <ele>183.19999694824</ele>
        <time>2012-05-19T12:11:47.000Z</time>
      </trkpt>
      <trkpt lat="44.40409" lon="4.13769">
        <ele>182.60000610352</ele>
        <time>2012-05-19T12:11:53.000Z</time>
      </trkpt>
      <trkpt lat="44.40398" lon="4.13748">
        <ele>182.19999694824</ele>
        <time>2012-05-19T12:12:01.000Z</time>
      </trkpt>
      <trkpt lat="44.40387" lon="4.1373">
        <ele>182.19999694824</ele>
        <time>2012-05-19T12:12:08.000Z</time>
      </trkpt>
      <trkpt lat="44.40377" lon="4.13716">
        <ele>182</ele>
        <time>2012-05-19T12:12:14.000Z</time>
      </trkpt>
      <trkpt lat="44.40375" lon="4.13716">
        <ele>182.39999389648</ele>
        <time>2012-05-19T12:12:15.000Z</time>
      </trkpt>
      <trkpt lat="44.40376" lon="4.13723">
        <ele>182.80000305176</ele>
        <time>2012-05-19T12:12:18.000Z</time>
      </trkpt>
      <trkpt lat="44.40377" lon="4.13728">
        <ele>183</ele>
        <time>2012-05-19T12:12:20.000Z</time>
      </trkpt>
      <trkpt lat="44.40379" lon="4.13737">
        <ele>183.60000610352</ele>
        <time>2012-05-19T12:12:24.000Z</time>
      </trkpt>
      <trkpt lat="44.40379" lon="4.13738">
        <ele>183.60000610352</ele>
        <time>2012-05-19T12:12:25.000Z</time>
      </trkpt>
      <trkpt lat="44.40378" lon="4.13738">
        <ele>183.60000610352</ele>
        <time>2012-05-19T12:12:28.000Z</time>
      </trkpt>
      <trkpt lat="44.40381" lon="4.13742">
        <ele>183.80000305176</ele>
        <time>2012-05-19T12:13:10.000Z</time>
      </trkpt>
      <trkpt lat="44.40383" lon="4.13749">
        <ele>184</ele>
        <time>2012-05-19T12:13:16.000Z</time>
      </trkpt>
      <trkpt lat="44.4039" lon="4.13763">
        <ele>184.80000305176</ele>
        <time>2012-05-19T12:13:23.000Z</time>
      </trkpt>
      <trkpt lat="44.40398" lon="4.13779">
        <ele>185.39999389648</ele>
        <time>2012-05-19T12:13:31.000Z</time>
      </trkpt>
      <trkpt lat="44.40399" lon="4.1378">
        <ele>185.60000610352</ele>
        <time>2012-05-19T12:13:32.000Z</time>
      </trkpt>
      <trkpt lat="44.40399" lon="4.13781">
        <ele>185.60000610352</ele>
        <time>2012-05-19T12:13:35.000Z</time>
      </trkpt>
      <trkpt lat="44.40399" lon="4.13784">
        <ele>186</ele>
        <time>2012-05-19T12:13:41.000Z</time>
      </trkpt>
      <trkpt lat="44.40401" lon="4.13786">
        <ele>185.80000305176</ele>
        <time>2012-05-19T12:13:48.000Z</time>
      </trkpt>
      <trkpt lat="44.40401" lon="4.13787">
        <ele>185.80000305176</ele>
        <time>2012-05-19T12:13:49.000Z</time>
      </trkpt>
      <trkpt lat="44.40402" lon="4.13786">
        <ele>185.60000610352</ele>
        <time>2012-05-19T12:13:53.000Z</time>
      </trkpt>
      <trkpt lat="44.40403" lon="4.13786">
        <ele>185.39999389648</ele>
        <time>2012-05-19T12:13:54.000Z</time>
      </trkpt>
      <trkpt lat="44.40405" lon="4.13788">
        <ele>185.19999694824</ele>
        <time>2012-05-19T12:14:02.000Z</time>
      </trkpt>
      <trkpt lat="44.40409" lon="4.13794">
        <ele>185.19999694824</ele>
        <time>2012-05-19T12:14:09.000Z</time>
      </trkpt>
      <trkpt lat="44.40411" lon="4.13796">
        <ele>185</ele>
        <time>2012-05-19T12:14:17.000Z</time>
      </trkpt>
      <trkpt lat="44.40411" lon="4.13795">
        <ele>184.80000305176</ele>
        <time>2012-05-19T12:14:44.000Z</time>
      </trkpt>
      <trkpt lat="44.40412" lon="4.13796">
        <ele>184.80000305176</ele>
        <time>2012-05-19T12:14:54.000Z</time>
      </trkpt>
      <trkpt lat="44.40412" lon="4.13792">
        <ele>184.39999389648</ele>
        <time>2012-05-19T12:18:31.000Z</time>
      </trkpt>
      <trkpt lat="44.40414" lon="4.13793">
        <ele>184.19999694824</ele>
        <time>2012-05-19T12:19:07.000Z</time>
      </trkpt>
      <trkpt lat="44.40409" lon="4.13798">
        <ele>185.39999389648</ele>
        <time>2012-05-19T12:19:49.000Z</time>
      </trkpt>
      <trkpt lat="44.40409" lon="4.13797">
        <ele>185.39999389648</ele>
        <time>2012-05-19T12:19:54.000Z</time>
      </trkpt>
      <trkpt lat="44.4041" lon="4.13795">
        <ele>185</ele>
        <time>2012-05-19T12:20:02.000Z</time>
      </trkpt>
      <trkpt lat="44.40406" lon="4.1379">
        <ele>185.39999389648</ele>
        <time>2012-05-19T12:20:15.000Z</time>
      </trkpt>
      <trkpt lat="44.40404" lon="4.13787">
        <ele>185.39999389648</ele>
        <time>2012-05-19T12:20:18.000Z</time>
      </trkpt>
      <trkpt lat="44.40401" lon="4.13786">
        <ele>185.80000305176</ele>
        <time>2012-05-19T12:20:22.000Z</time>
      </trkpt>
      <trkpt lat="44.40401" lon="4.13786">
        <ele>185.80000305176</ele>
        <time>2012-05-19T12:20:34.000Z</time>
      </trkpt>
      <trkpt lat="44.404" lon="4.13784">
        <ele>185.80000305176</ele>
        <time>2012-05-19T12:21:49.000Z</time>
      </trkpt>
      <trkpt lat="44.40402" lon="4.13783">
        <ele>185.19999694824</ele>
        <time>2012-05-19T12:21:55.000Z</time>
      </trkpt>
      <trkpt lat="44.40404" lon="4.13785">
        <ele>185.19999694824</ele>
        <time>2012-05-19T12:22:03.000Z</time>
      </trkpt>
      <trkpt lat="44.40402" lon="4.13786">
        <ele>185.60000610352</ele>
        <time>2012-05-19T12:25:34.000Z</time>
      </trkpt>
      <trkpt lat="44.40401" lon="4.13784">
        <ele>185.60000610352</ele>
        <time>2012-05-19T12:26:06.000Z</time>
      </trkpt>
      <trkpt lat="44.40399" lon="4.13777">
        <ele>185.19999694824</ele>
        <time>2012-05-19T12:26:09.000Z</time>
      </trkpt>
      <trkpt lat="44.40392" lon="4.13761">
        <ele>184.19999694824</ele>
        <time>2012-05-19T12:26:15.000Z</time>
      </trkpt>
      <trkpt lat="44.40382" lon="4.13742">
        <ele>183.60000610352</ele>
        <time>2012-05-19T12:26:21.000Z</time>
      </trkpt>
      <trkpt lat="44.40372" lon="4.13721">
        <ele>183</ele>
        <time>2012-05-19T12:26:27.000Z</time>
      </trkpt>
      <trkpt lat="44.40372" lon="4.13718">
        <ele>182.80000305176</ele>
        <time>2012-05-19T12:26:29.000Z</time>
      </trkpt>
      <trkpt lat="44.40373" lon="4.13715">
        <ele>182.60000610352</ele>
        <time>2012-05-19T12:26:31.000Z</time>
      </trkpt>
      <trkpt lat="44.40379" lon="4.13717">
        <ele>182</ele>
        <time>2012-05-19T12:26:36.000Z</time>
      </trkpt>
      <trkpt lat="44.40382" lon="4.1372">
        <ele>182</ele>
        <time>2012-05-19T12:26:38.000Z</time>
      </trkpt>
      <trkpt lat="44.40389" lon="4.13725">
        <ele>181.60000610352</ele>
        <time>2012-05-19T12:26:42.000Z</time>
      </trkpt>
      <trkpt lat="44.40393" lon="4.13728">
        <ele>181.39999389648</ele>
        <time>2012-05-19T12:26:44.000Z</time>
      </trkpt>
      <trkpt lat="44.40395" lon="4.13733">
        <ele>181.39999389648</ele>
        <time>2012-05-19T12:26:46.000Z</time>
      </trkpt>
      <trkpt lat="44.404" lon="4.13742">
        <ele>181.39999389648</ele>
        <time>2012-05-19T12:26:50.000Z</time>
      </trkpt>
      <trkpt lat="44.40404" lon="4.13747">
        <ele>181.39999389648</ele>
        <time>2012-05-19T12:26:52.000Z</time>
      </trkpt>
      <trkpt lat="44.40416" lon="4.13765">
        <ele>181.19999694824</ele>
        <time>2012-05-19T12:26:59.000Z</time>
      </trkpt>
      <trkpt lat="44.40428" lon="4.13766">
        <ele>180.39999389648</ele>
        <time>2012-05-19T12:27:04.000Z</time>
      </trkpt>
      <trkpt lat="44.4044" lon="4.13763">
        <ele>179.19999694824</ele>
        <time>2012-05-19T12:27:10.000Z</time>
      </trkpt>
      <trkpt lat="44.40442" lon="4.13762">
        <ele>179</ele>
        <time>2012-05-19T12:27:16.000Z</time>
      </trkpt>
      <trkpt lat="44.40444" lon="4.1376">
        <ele>178.60000610352</ele>
        <time>2012-05-19T12:27:22.000Z</time>
      </trkpt>
      <trkpt lat="44.40448" lon="4.13758">
        <ele>178.19999694824</ele>
        <time>2012-05-19T12:27:24.000Z</time>
      </trkpt>
      <trkpt lat="44.40455" lon="4.13752">
        <ele>177.39999389648</ele>
        <time>2012-05-19T12:27:29.000Z</time>
      </trkpt>
      <trkpt lat="44.40458" lon="4.13754">
        <ele>177.19999694824</ele>
        <time>2012-05-19T12:27:32.000Z</time>
      </trkpt>
      <trkpt lat="44.4046" lon="4.13755">
        <ele>177.19999694824</ele>
        <time>2012-05-19T12:27:34.000Z</time>
      </trkpt>
      <trkpt lat="44.40462" lon="4.13755">
        <ele>177</ele>
        <time>2012-05-19T12:27:35.000Z</time>
      </trkpt>
      <trkpt lat="44.4047" lon="4.13744">
        <ele>176</ele>
        <time>2012-05-19T12:27:39.000Z</time>
      </trkpt>
      <trkpt lat="44.40472" lon="4.1374">
        <ele>175.60000610352</ele>
        <time>2012-05-19T12:27:40.000Z</time>
      </trkpt>
      <trkpt lat="44.4048" lon="4.13728">
        <ele>174.80000305176</ele>
        <time>2012-05-19T12:27:44.000Z</time>
      </trkpt>
      <trkpt lat="44.40486" lon="4.13718">
        <ele>174</ele>
        <time>2012-05-19T12:27:49.000Z</time>
      </trkpt>
      <trkpt lat="44.40487" lon="4.13716">
        <ele>174</ele>
        <time>2012-05-19T12:27:50.000Z</time>
      </trkpt>
      <trkpt lat="44.40486" lon="4.13709">
        <ele>173.80000305176</ele>
        <time>2012-05-19T12:27:53.000Z</time>
      </trkpt>
      <trkpt lat="44.40485" lon="4.13705">
        <ele>173.80000305176</ele>
        <time>2012-05-19T12:27:54.000Z</time>
      </trkpt>
      <trkpt lat="44.40484" lon="4.13688">
        <ele>173.19999694824</ele>
        <time>2012-05-19T12:27:59.000Z</time>
      </trkpt>
      <trkpt lat="44.4049" lon="4.13659">
        <ele>172.19999694824</ele>
        <time>2012-05-19T12:28:05.000Z</time>
      </trkpt>
      <trkpt lat="44.40499" lon="4.13631">
        <ele>171.60000610352</ele>
        <time>2012-05-19T12:28:10.000Z</time>
      </trkpt>
      <trkpt lat="44.40506" lon="4.13604">
        <ele>170.80000305176</ele>
        <time>2012-05-19T12:28:15.000Z</time>
      </trkpt>
      <trkpt lat="44.40512" lon="4.13578">
        <ele>170.39999389648</ele>
        <time>2012-05-19T12:28:19.000Z</time>
      </trkpt>
      <trkpt lat="44.40513" lon="4.1357">
        <ele>170.39999389648</ele>
        <time>2012-05-19T12:28:20.000Z</time>
      </trkpt>
      <trkpt lat="44.40514" lon="4.13539">
        <ele>170.80000305176</ele>
        <time>2012-05-19T12:28:24.000Z</time>
      </trkpt>
      <trkpt lat="44.40513" lon="4.13521">
        <ele>171</ele>
        <time>2012-05-19T12:28:26.000Z</time>
      </trkpt>
      <trkpt lat="44.40513" lon="4.13514">
        <ele>171</ele>
        <time>2012-05-19T12:28:27.000Z</time>
      </trkpt>
      <trkpt lat="44.40513" lon="4.13498">
        <ele>171.19999694824</ele>
        <time>2012-05-19T12:28:29.000Z</time>
      </trkpt>
      <trkpt lat="44.40513" lon="4.13484">
        <ele>171.60000610352</ele>
        <time>2012-05-19T12:28:31.000Z</time>
      </trkpt>
      <trkpt lat="44.40512" lon="4.13464">
        <ele>172.19999694824</ele>
        <time>2012-05-19T12:28:34.000Z</time>
      </trkpt>
      <trkpt lat="44.40511" lon="4.13447">
        <ele>172.60000610352</ele>
        <time>2012-05-19T12:28:37.000Z</time>
      </trkpt>
      <trkpt lat="44.40513" lon="4.13441">
        <ele>172.60000610352</ele>
        <time>2012-05-19T12:28:39.000Z</time>
      </trkpt>
      <trkpt lat="44.40519" lon="4.13438">
        <ele>172.39999389648</ele>
        <time>2012-05-19T12:28:41.000Z</time>
      </trkpt>
      <trkpt lat="44.40524" lon="4.13437">
        <ele>172</ele>
        <time>2012-05-19T12:28:43.000Z</time>
      </trkpt>
      <trkpt lat="44.40533" lon="4.1343">
        <ele>171.60000610352</ele>
        <time>2012-05-19T12:28:47.000Z</time>
      </trkpt>
      <trkpt lat="44.40535" lon="4.13415">
        <ele>172</ele>
        <time>2012-05-19T12:28:52.000Z</time>
      </trkpt>
      <trkpt lat="44.40537" lon="4.134">
        <ele>172.19999694824</ele>
        <time>2012-05-19T12:28:57.000Z</time>
      </trkpt>
      <trkpt lat="44.4054" lon="4.13382">
        <ele>172.39999389648</ele>
        <time>2012-05-19T12:29:03.000Z</time>
      </trkpt>
      <trkpt lat="44.40541" lon="4.13374">
        <ele>172.60000610352</ele>
        <time>2012-05-19T12:29:08.000Z</time>
      </trkpt>
      <trkpt lat="44.40541" lon="4.13372">
        <ele>172.60000610352</ele>
        <time>2012-05-19T12:29:09.000Z</time>
      </trkpt>
      <trkpt lat="44.40542" lon="4.13362">
        <ele>172.80000305176</ele>
        <time>2012-05-19T12:29:14.000Z</time>
      </trkpt>
      <trkpt lat="44.4054" lon="4.13357">
        <ele>173</ele>
        <time>2012-05-19T12:29:18.000Z</time>
      </trkpt>
      <trkpt lat="44.40541" lon="4.13354">
        <ele>173</ele>
        <time>2012-05-19T12:29:20.000Z</time>
      </trkpt>
      <trkpt lat="44.40536" lon="4.1335">
        <ele>173.60000610352</ele>
        <time>2012-05-19T12:29:25.000Z</time>
      </trkpt>
      <trkpt lat="44.40532" lon="4.13342">
        <ele>174.19999694824</ele>
        <time>2012-05-19T12:29:34.000Z</time>
      </trkpt>
      <trkpt lat="44.40531" lon="4.1334">
        <ele>174.19999694824</ele>
        <time>2012-05-19T12:29:40.000Z</time>
      </trkpt>
      <trkpt lat="44.40532" lon="4.13338">
        <ele>174.19999694824</ele>
        <time>2012-05-19T12:29:42.000Z</time>
      </trkpt>
      <trkpt lat="44.40534" lon="4.13332">
        <ele>174.19999694824</ele>
        <time>2012-05-19T12:29:44.000Z</time>
      </trkpt>
      <trkpt lat="44.40535" lon="4.13324">
        <ele>174.39999389648</ele>
        <time>2012-05-19T12:29:46.000Z</time>
      </trkpt>
      <trkpt lat="44.40537" lon="4.13305">
        <ele>175</ele>
        <time>2012-05-19T12:29:50.000Z</time>
      </trkpt>
      <trkpt lat="44.40545" lon="4.1328">
        <ele>175.60000610352</ele>
        <time>2012-05-19T12:29:55.000Z</time>
      </trkpt>
      <trkpt lat="44.40546" lon="4.13275">
        <ele>175.80000305176</ele>
        <time>2012-05-19T12:29:56.000Z</time>
      </trkpt>
      <trkpt lat="44.40552" lon="4.1326">
        <ele>176</ele>
        <time>2012-05-19T12:30:01.000Z</time>
      </trkpt>
      <trkpt lat="44.40552" lon="4.13259">
        <ele>176.19999694824</ele>
        <time>2012-05-19T12:30:03.000Z</time>
      </trkpt>
      <trkpt lat="44.40552" lon="4.13256">
        <ele>176.19999694824</ele>
        <time>2012-05-19T12:30:06.000Z</time>
      </trkpt>
      <trkpt lat="44.40552" lon="4.13254">
        <ele>176.39999389648</ele>
        <time>2012-05-19T12:30:07.000Z</time>
      </trkpt>
      <trkpt lat="44.40548" lon="4.13251">
        <ele>176.60000610352</ele>
        <time>2012-05-19T12:30:10.000Z</time>
      </trkpt>
      <trkpt lat="44.40547" lon="4.13248">
        <ele>176.80000305176</ele>
        <time>2012-05-19T12:30:13.000Z</time>
      </trkpt>
      <trkpt lat="44.40547" lon="4.1325">
        <ele>176.80000305176</ele>
        <time>2012-05-19T12:30:15.000Z</time>
      </trkpt>
      <trkpt lat="44.40547" lon="4.1325">
        <ele>176.80000305176</ele>
        <time>2012-05-19T12:30:18.000Z</time>
      </trkpt>
      <trkpt lat="44.40549" lon="4.13251">
        <ele>176.60000610352</ele>
        <time>2012-05-19T12:30:24.000Z</time>
      </trkpt>
      <trkpt lat="44.4055" lon="4.1325">
        <ele>176.60000610352</ele>
        <time>2012-05-19T12:30:25.000Z</time>
      </trkpt>
      <trkpt lat="44.40548" lon="4.13252">
        <ele>176.60000610352</ele>
        <time>2012-05-19T12:30:30.000Z</time>
      </trkpt>
      <trkpt lat="44.40549" lon="4.13258">
        <ele>176.19999694824</ele>
        <time>2012-05-19T12:30:37.000Z</time>
      </trkpt>
      <trkpt lat="44.40548" lon="4.13259">
        <ele>176.39999389648</ele>
        <time>2012-05-19T12:31:13.000Z</time>
      </trkpt>
      <trkpt lat="44.40549" lon="4.13259">
        <ele>176.19999694824</ele>
        <time>2012-05-19T12:31:28.000Z</time>
      </trkpt>
      <trkpt lat="44.40551" lon="4.13256">
        <ele>176.19999694824</ele>
        <time>2012-05-19T12:31:31.000Z</time>
      </trkpt>
      <trkpt lat="44.40553" lon="4.13255">
        <ele>176.19999694824</ele>
        <time>2012-05-19T12:31:40.000Z</time>
      </trkpt>
      <trkpt lat="44.4055" lon="4.13254">
        <ele>176.39999389648</ele>
        <time>2012-05-19T12:32:06.000Z</time>
      </trkpt>
      <trkpt lat="44.4055" lon="4.1326">
        <ele>176.19999694824</ele>
        <time>2012-05-19T12:32:15.000Z</time>
      </trkpt>
      <trkpt lat="44.40548" lon="4.1326">
        <ele>176.19999694824</ele>
        <time>2012-05-19T12:32:23.000Z</time>
      </trkpt>
      <trkpt lat="44.40549" lon="4.1326">
        <ele>176.19999694824</ele>
        <time>2012-05-19T12:32:28.000Z</time>
      </trkpt>
      <trkpt lat="44.40551" lon="4.13259">
        <ele>176.19999694824</ele>
        <time>2012-05-19T12:32:35.000Z</time>
      </trkpt>
      <trkpt lat="44.4055" lon="4.1326">
        <ele>176.19999694824</ele>
        <time>2012-05-19T12:32:36.000Z</time>
      </trkpt>
      <trkpt lat="44.40551" lon="4.13259">
        <ele>176.19999694824</ele>
        <time>2012-05-19T12:32:47.000Z</time>
      </trkpt>
      <trkpt lat="44.40553" lon="4.13258">
        <ele>176</ele>
        <time>2012-05-19T12:32:53.000Z</time>
      </trkpt>
      <trkpt lat="44.40554" lon="4.13256">
        <ele>176.19999694824</ele>
        <time>2012-05-19T12:33:05.000Z</time>
      </trkpt>
      <trkpt lat="44.40549" lon="4.1326">
        <ele>176.19999694824</ele>
        <time>2012-05-19T12:33:15.000Z</time>
      </trkpt>
      <trkpt lat="44.40547" lon="4.13264">
        <ele>176.19999694824</ele>
        <time>2012-05-19T12:33:33.000Z</time>
      </trkpt>
      <trkpt lat="44.40546" lon="4.13265">
        <ele>176.19999694824</ele>
        <time>2012-05-19T12:33:34.000Z</time>
      </trkpt>
      <trkpt lat="44.40546" lon="4.1327">
        <ele>176</ele>
        <time>2012-05-19T12:33:38.000Z</time>
      </trkpt>
      <trkpt lat="44.40549" lon="4.13268">
        <ele>175.80000305176</ele>
        <time>2012-05-19T12:33:45.000Z</time>
      </trkpt>
      <trkpt lat="44.4055" lon="4.13273">
        <ele>175.60000610352</ele>
        <time>2012-05-19T12:33:54.000Z</time>
      </trkpt>
      <trkpt lat="44.40547" lon="4.13278">
        <ele>175.39999389648</ele>
        <time>2012-05-19T12:34:10.000Z</time>
      </trkpt>
      <trkpt lat="44.40547" lon="4.13278">
        <ele>175.39999389648</ele>
        <time>2012-05-19T12:34:13.000Z</time>
      </trkpt>
      <trkpt lat="44.40548" lon="4.13277">
        <ele>175.39999389648</ele>
        <time>2012-05-19T12:34:26.000Z</time>
      </trkpt>
      <trkpt lat="44.40548" lon="4.13275">
        <ele>175.60000610352</ele>
        <time>2012-05-19T12:34:36.000Z</time>
      </trkpt>
      <trkpt lat="44.40546" lon="4.13276">
        <ele>175.60000610352</ele>
        <time>2012-05-19T12:34:41.000Z</time>
      </trkpt>
      <trkpt lat="44.40552" lon="4.13278">
        <ele>175.19999694824</ele>
        <time>2012-05-19T12:35:32.000Z</time>
      </trkpt>
      <trkpt lat="44.40552" lon="4.1328">
        <ele>175</ele>
        <time>2012-05-19T12:35:40.000Z</time>
      </trkpt>
      <trkpt lat="44.40551" lon="4.13268">
        <ele>175.80000305176</ele>
        <time>2012-05-19T12:36:04.000Z</time>
      </trkpt>
      <trkpt lat="44.4055" lon="4.13259">
        <ele>176.19999694824</ele>
        <time>2012-05-19T12:36:14.000Z</time>
      </trkpt>
      <trkpt lat="44.40548" lon="4.13258">
        <ele>176.39999389648</ele>
        <time>2012-05-19T12:36:16.000Z</time>
      </trkpt>
      <trkpt lat="44.40551" lon="4.1326">
        <ele>176.19999694824</ele>
        <time>2012-05-19T12:36:19.000Z</time>
      </trkpt>
      <trkpt lat="44.40548" lon="4.1326">
        <ele>176.19999694824</ele>
        <time>2012-05-19T12:36:35.000Z</time>
      </trkpt>
      <trkpt lat="44.40548" lon="4.13261">
        <ele>176.19999694824</ele>
        <time>2012-05-19T12:36:37.000Z</time>
      </trkpt>
      <trkpt lat="44.40547" lon="4.13261">
        <ele>176.19999694824</ele>
        <time>2012-05-19T12:36:38.000Z</time>
      </trkpt>
      <trkpt lat="44.40547" lon="4.13261">
        <ele>176.19999694824</ele>
        <time>2012-05-19T12:36:42.000Z</time>
      </trkpt>
      <trkpt lat="44.40549" lon="4.13263">
        <ele>176</ele>
        <time>2012-05-19T12:36:54.000Z</time>
      </trkpt>
      <trkpt lat="44.40553" lon="4.13261">
        <ele>176</ele>
        <time>2012-05-19T12:37:00.000Z</time>
      </trkpt>
      <trkpt lat="44.40554" lon="4.1326">
        <ele>176</ele>
        <time>2012-05-19T12:37:15.000Z</time>
      </trkpt>
      <trkpt lat="44.40554" lon="4.1326">
        <ele>176</ele>
        <time>2012-05-19T12:37:23.000Z</time>
      </trkpt>
      <trkpt lat="44.40555" lon="4.13258">
        <ele>176</ele>
        <time>2012-05-19T12:37:30.000Z</time>
      </trkpt>
      <trkpt lat="44.40553" lon="4.13262">
        <ele>175.80000305176</ele>
        <time>2012-05-19T12:37:38.000Z</time>
      </trkpt>
      <trkpt lat="44.40552" lon="4.13263">
        <ele>176</ele>
        <time>2012-05-19T12:37:39.000Z</time>
      </trkpt>
      <trkpt lat="44.4055" lon="4.13265">
        <ele>176</ele>
        <time>2012-05-19T12:37:45.000Z</time>
      </trkpt>
      <trkpt lat="44.40551" lon="4.13264">
        <ele>175.80000305176</ele>
        <time>2012-05-19T12:38:42.000Z</time>
      </trkpt>
      <trkpt lat="44.40547" lon="4.13271">
        <ele>175.80000305176</ele>
        <time>2012-05-19T12:39:20.000Z</time>
      </trkpt>
      <trkpt lat="44.40547" lon="4.13269">
        <ele>175.80000305176</ele>
        <time>2012-05-19T12:39:21.000Z</time>
      </trkpt>
      <trkpt lat="44.40547" lon="4.13263">
        <ele>176.19999694824</ele>
        <time>2012-05-19T12:39:26.000Z</time>
      </trkpt>
      <trkpt lat="44.40546" lon="4.13264">
        <ele>176.19999694824</ele>
        <time>2012-05-19T12:39:32.000Z</time>
      </trkpt>
      <trkpt lat="44.40539" lon="4.13262">
        <ele>176.60000610352</ele>
        <time>2012-05-19T12:39:59.000Z</time>
      </trkpt>
      <trkpt lat="44.40539" lon="4.13262">
        <ele>176.60000610352</ele>
        <time>2012-05-19T12:40:00.000Z</time>
      </trkpt>
      <trkpt lat="44.4054" lon="4.13253">
        <ele>177</ele>
        <time>2012-05-19T12:40:12.000Z</time>
      </trkpt>
      <trkpt lat="44.40548" lon="4.13257">
        <ele>176.39999389648</ele>
        <time>2012-05-19T12:40:50.000Z</time>
      </trkpt>
      <trkpt lat="44.40547" lon="4.13262">
        <ele>176.19999694824</ele>
        <time>2012-05-19T12:40:54.000Z</time>
      </trkpt>
      <trkpt lat="44.40547" lon="4.13263">
        <ele>176.19999694824</ele>
        <time>2012-05-19T12:41:56.000Z</time>
      </trkpt>
      <trkpt lat="44.40548" lon="4.13274">
        <ele>175.60000610352</ele>
        <time>2012-05-19T12:42:33.000Z</time>
      </trkpt>
      <trkpt lat="44.40547" lon="4.13271">
        <ele>175.80000305176</ele>
        <time>2012-05-19T12:42:36.000Z</time>
      </trkpt>
      <trkpt lat="44.40546" lon="4.13261">
        <ele>176.39999389648</ele>
        <time>2012-05-19T12:42:41.000Z</time>
      </trkpt>
      <trkpt lat="44.40544" lon="4.13243">
        <ele>177</ele>
        <time>2012-05-19T12:43:03.000Z</time>
      </trkpt>
      <trkpt lat="44.4055" lon="4.13257">
        <ele>176.19999694824</ele>
        <time>2012-05-19T12:43:55.000Z</time>
      </trkpt>
      <trkpt lat="44.4055" lon="4.13272">
        <ele>175.60000610352</ele>
        <time>2012-05-19T12:44:48.000Z</time>
      </trkpt>
      <trkpt lat="44.40548" lon="4.13272">
        <ele>175.60000610352</ele>
        <time>2012-05-19T12:44:51.000Z</time>
      </trkpt>
      <trkpt lat="44.40545" lon="4.13266">
        <ele>176.19999694824</ele>
        <time>2012-05-19T12:46:32.000Z</time>
      </trkpt>
      <trkpt lat="44.40544" lon="4.13261">
        <ele>176.39999389648</ele>
        <time>2012-05-19T12:46:36.000Z</time>
      </trkpt>
      <trkpt lat="44.40544" lon="4.13262">
        <ele>176.39999389648</ele>
        <time>2012-05-19T12:46:47.000Z</time>
      </trkpt>
      <trkpt lat="44.40541" lon="4.13259">
        <ele>176.60000610352</ele>
        <time>2012-05-19T12:46:51.000Z</time>
      </trkpt>
      <trkpt lat="44.40543" lon="4.13262">
        <ele>176.39999389648</ele>
        <time>2012-05-19T12:46:55.000Z</time>
      </trkpt>
      <trkpt lat="44.40544" lon="4.13258">
        <ele>176.60000610352</ele>
        <time>2012-05-19T12:47:00.000Z</time>
      </trkpt>
      <trkpt lat="44.40548" lon="4.13256">
        <ele>176.39999389648</ele>
        <time>2012-05-19T12:47:05.000Z</time>
      </trkpt>
      <trkpt lat="44.40544" lon="4.13258">
        <ele>176.60000610352</ele>
        <time>2012-05-19T12:47:07.000Z</time>
      </trkpt>
      <trkpt lat="44.40551" lon="4.13289">
        <ele>174.80000305176</ele>
        <time>2012-05-19T12:48:20.000Z</time>
      </trkpt>
      <trkpt lat="44.40544" lon="4.13256">
        <ele>176.60000610352</ele>
        <time>2012-05-19T12:48:55.000Z</time>
      </trkpt>
      <trkpt lat="44.40545" lon="4.13264">
        <ele>176.19999694824</ele>
        <time>2012-05-19T12:49:21.000Z</time>
      </trkpt>
      <trkpt lat="44.40543" lon="4.13264">
        <ele>176.39999389648</ele>
        <time>2012-05-19T12:49:43.000Z</time>
      </trkpt>
      <trkpt lat="44.40548" lon="4.13264">
        <ele>176</ele>
        <time>2012-05-19T12:50:49.000Z</time>
      </trkpt>
      <trkpt lat="44.40545" lon="4.13257">
        <ele>176.60000610352</ele>
        <time>2012-05-19T12:51:33.000Z</time>
      </trkpt>
      <trkpt lat="44.40544" lon="4.13257">
        <ele>176.60000610352</ele>
        <time>2012-05-19T12:51:48.000Z</time>
      </trkpt>
      <trkpt lat="44.40547" lon="4.13266">
        <ele>176</ele>
        <time>2012-05-19T12:51:57.000Z</time>
      </trkpt>
      <trkpt lat="44.40551" lon="4.13267">
        <ele>175.80000305176</ele>
        <time>2012-05-19T12:52:01.000Z</time>
      </trkpt>
      <trkpt lat="44.40552" lon="4.13265">
        <ele>175.80000305176</ele>
        <time>2012-05-19T12:52:03.000Z</time>
      </trkpt>
      <trkpt lat="44.40552" lon="4.13263">
        <ele>175.80000305176</ele>
        <time>2012-05-19T12:52:05.000Z</time>
      </trkpt>
      <trkpt lat="44.40553" lon="4.13263">
        <ele>175.80000305176</ele>
        <time>2012-05-19T12:52:07.000Z</time>
      </trkpt>
      <trkpt lat="44.40555" lon="4.13262">
        <ele>175.80000305176</ele>
        <time>2012-05-19T12:52:09.000Z</time>
      </trkpt>
      <trkpt lat="44.40551" lon="4.13259">
        <ele>176.19999694824</ele>
        <time>2012-05-19T12:52:17.000Z</time>
      </trkpt>
      <trkpt lat="44.40549" lon="4.13265">
        <ele>176</ele>
        <time>2012-05-19T12:53:08.000Z</time>
      </trkpt>
      <trkpt lat="44.40548" lon="4.13264">
        <ele>176</ele>
        <time>2012-05-19T12:53:09.000Z</time>
      </trkpt>
      <trkpt lat="44.40545" lon="4.13262">
        <ele>176.19999694824</ele>
        <time>2012-05-19T12:53:12.000Z</time>
      </trkpt>
      <trkpt lat="44.40544" lon="4.13262">
        <ele>176.39999389648</ele>
        <time>2012-05-19T12:53:15.000Z</time>
      </trkpt>
      <trkpt lat="44.40541" lon="4.13266">
        <ele>176.39999389648</ele>
        <time>2012-05-19T12:53:24.000Z</time>
      </trkpt>
      <trkpt lat="44.40541" lon="4.13271">
        <ele>176.19999694824</ele>
        <time>2012-05-19T12:53:26.000Z</time>
      </trkpt>
      <trkpt lat="44.4054" lon="4.13281">
        <ele>175.80000305176</ele>
        <time>2012-05-19T12:53:29.000Z</time>
      </trkpt>
      <trkpt lat="44.40538" lon="4.13288">
        <ele>175.60000610352</ele>
        <time>2012-05-19T12:53:31.000Z</time>
      </trkpt>
      <trkpt lat="44.40534" lon="4.13301">
        <ele>175.39999389648</ele>
        <time>2012-05-19T12:53:36.000Z</time>
      </trkpt>
      <trkpt lat="44.40536" lon="4.13319">
        <ele>174.60000610352</ele>
        <time>2012-05-19T12:53:42.000Z</time>
      </trkpt>
      <trkpt lat="44.40534" lon="4.13331">
        <ele>174.19999694824</ele>
        <time>2012-05-19T12:53:48.000Z</time>
      </trkpt>
      <trkpt lat="44.40534" lon="4.13334">
        <ele>174.19999694824</ele>
        <time>2012-05-19T12:53:50.000Z</time>
      </trkpt>
      <trkpt lat="44.40536" lon="4.13339">
        <ele>173.80000305176</ele>
        <time>2012-05-19T12:53:53.000Z</time>
      </trkpt>
      <trkpt lat="44.40539" lon="4.13348">
        <ele>173.39999389648</ele>
        <time>2012-05-19T12:53:59.000Z</time>
      </trkpt>
      <trkpt lat="44.40536" lon="4.13363">
        <ele>173.19999694824</ele>
        <time>2012-05-19T12:54:03.000Z</time>
      </trkpt>
      <trkpt lat="44.40535" lon="4.13365">
        <ele>173.19999694824</ele>
        <time>2012-05-19T12:54:04.000Z</time>
      </trkpt>
      <trkpt lat="44.40536" lon="4.13366">
        <ele>173.19999694824</ele>
        <time>2012-05-19T12:54:05.000Z</time>
      </trkpt>
      <trkpt lat="44.40538" lon="4.13369">
        <ele>173</ele>
        <time>2012-05-19T12:54:07.000Z</time>
      </trkpt>
      <trkpt lat="44.40542" lon="4.13373">
        <ele>172.60000610352</ele>
        <time>2012-05-19T12:54:09.000Z</time>
      </trkpt>
      <trkpt lat="44.40542" lon="4.1338">
        <ele>172.39999389648</ele>
        <time>2012-05-19T12:54:11.000Z</time>
      </trkpt>
      <trkpt lat="44.4054" lon="4.13384">
        <ele>172.39999389648</ele>
        <time>2012-05-19T12:54:12.000Z</time>
      </trkpt>
      <trkpt lat="44.40536" lon="4.13412">
        <ele>172</ele>
        <time>2012-05-19T12:54:18.000Z</time>
      </trkpt>
      <trkpt lat="44.40536" lon="4.13415">
        <ele>171.80000305176</ele>
        <time>2012-05-19T12:54:19.000Z</time>
      </trkpt>
      <trkpt lat="44.40536" lon="4.13422">
        <ele>171.80000305176</ele>
        <time>2012-05-19T12:54:23.000Z</time>
      </trkpt>
      <trkpt lat="44.40529" lon="4.13433">
        <ele>171.80000305176</ele>
        <time>2012-05-19T12:54:28.000Z</time>
      </trkpt>
      <trkpt lat="44.40515" lon="4.13446">
        <ele>172.39999389648</ele>
        <time>2012-05-19T12:54:35.000Z</time>
      </trkpt>
      <trkpt lat="44.4051" lon="4.13455">
        <ele>172.39999389648</ele>
        <time>2012-05-19T12:54:38.000Z</time>
      </trkpt>
      <trkpt lat="44.4051" lon="4.13463">
        <ele>172.19999694824</ele>
        <time>2012-05-19T12:54:40.000Z</time>
      </trkpt>
      <trkpt lat="44.40513" lon="4.1349">
        <ele>171.39999389648</ele>
        <time>2012-05-19T12:54:47.000Z</time>
      </trkpt>
      <trkpt lat="44.40514" lon="4.13494">
        <ele>171.39999389648</ele>
        <time>2012-05-19T12:54:48.000Z</time>
      </trkpt>
      <trkpt lat="44.40514" lon="4.1352">
        <ele>170.80000305176</ele>
        <time>2012-05-19T12:54:54.000Z</time>
      </trkpt>
      <trkpt lat="44.40515" lon="4.13539">
        <ele>170.60000610352</ele>
        <time>2012-05-19T12:54:59.000Z</time>
      </trkpt>
      <trkpt lat="44.40516" lon="4.13564">
        <ele>170.19999694824</ele>
        <time>2012-05-19T12:55:05.000Z</time>
      </trkpt>
      <trkpt lat="44.40516" lon="4.13568">
        <ele>170.19999694824</ele>
        <time>2012-05-19T12:55:06.000Z</time>
      </trkpt>
      <trkpt lat="44.40512" lon="4.13593">
        <ele>170.39999389648</ele>
        <time>2012-05-19T12:55:13.000Z</time>
      </trkpt>
      <trkpt lat="44.40511" lon="4.13596">
        <ele>170.39999389648</ele>
        <time>2012-05-19T12:55:14.000Z</time>
      </trkpt>
      <trkpt lat="44.40502" lon="4.13612">
        <ele>171.19999694824</ele>
        <time>2012-05-19T12:55:20.000Z</time>
      </trkpt>
      <trkpt lat="44.40501" lon="4.13639">
        <ele>171.60000610352</ele>
        <time>2012-05-19T12:55:27.000Z</time>
      </trkpt>
      <trkpt lat="44.40497" lon="4.13664">
        <ele>172</ele>
        <time>2012-05-19T12:55:34.000Z</time>
      </trkpt>
      <trkpt lat="44.40495" lon="4.13671">
        <ele>172.19999694824</ele>
        <time>2012-05-19T12:55:36.000Z</time>
      </trkpt>
      <trkpt lat="44.40487" lon="4.13694">
        <ele>173.19999694824</ele>
        <time>2012-05-19T12:55:44.000Z</time>
      </trkpt>
      <trkpt lat="44.40485" lon="4.137">
        <ele>173.60000610352</ele>
        <time>2012-05-19T12:55:46.000Z</time>
      </trkpt>
      <trkpt lat="44.4048" lon="4.13722">
        <ele>174.60000610352</ele>
        <time>2012-05-19T12:55:54.000Z</time>
      </trkpt>
      <trkpt lat="44.40474" lon="4.1374">
        <ele>175.60000610352</ele>
        <time>2012-05-19T12:56:01.000Z</time>
      </trkpt>
      <trkpt lat="44.40463" lon="4.13763">
        <ele>177.19999694824</ele>
        <time>2012-05-19T12:56:09.000Z</time>
      </trkpt>
      <trkpt lat="44.40448" lon="4.13772">
        <ele>179</ele>
        <time>2012-05-19T12:56:16.000Z</time>
      </trkpt>
      <trkpt lat="44.40437" lon="4.13772">
        <ele>180</ele>
        <time>2012-05-19T12:56:21.000Z</time>
      </trkpt>
      <trkpt lat="44.40427" lon="4.13784">
        <ele>181.80000305176</ele>
        <time>2012-05-19T12:56:28.000Z</time>
      </trkpt>
      <trkpt lat="44.40426" lon="4.13803">
        <ele>183.39999389648</ele>
        <time>2012-05-19T12:56:34.000Z</time>
      </trkpt>
      <trkpt lat="44.4043" lon="4.13829">
        <ele>184.80000305176</ele>
        <time>2012-05-19T12:56:42.000Z</time>
      </trkpt>
      <trkpt lat="44.40432" lon="4.13855">
        <ele>184.60000610352</ele>
        <time>2012-05-19T12:56:50.000Z</time>
      </trkpt>
      <trkpt lat="44.40431" lon="4.13874">
        <ele>184.39999389648</ele>
        <time>2012-05-19T12:56:56.000Z</time>
      </trkpt>
      <trkpt lat="44.40424" lon="4.139">
        <ele>184.60000610352</ele>
        <time>2012-05-19T12:57:05.000Z</time>
      </trkpt>
      <trkpt lat="44.40419" lon="4.13924">
        <ele>184.39999389648</ele>
        <time>2012-05-19T12:57:14.000Z</time>
      </trkpt>
      <trkpt lat="44.40418" lon="4.13926">
        <ele>184.39999389648</ele>
        <time>2012-05-19T12:57:15.000Z</time>
      </trkpt>
      <trkpt lat="44.40417" lon="4.13928">
        <ele>184.39999389648</ele>
        <time>2012-05-19T12:57:16.000Z</time>
      </trkpt>
      <trkpt lat="44.40414" lon="4.13924">
        <ele>185.39999389648</ele>
        <time>2012-05-19T12:57:19.000Z</time>
      </trkpt>
      <trkpt lat="44.40417" lon="4.13912">
        <ele>185.19999694824</ele>
        <time>2012-05-19T12:57:23.000Z</time>
      </trkpt>
      <trkpt lat="44.40418" lon="4.13909">
        <ele>185</ele>
        <time>2012-05-19T12:57:24.000Z</time>
      </trkpt>
      <trkpt lat="44.4042" lon="4.13894">
        <ele>185.19999694824</ele>
        <time>2012-05-19T12:57:31.000Z</time>
      </trkpt>
      <trkpt lat="44.40421" lon="4.13887">
        <ele>185.19999694824</ele>
        <time>2012-05-19T12:57:35.000Z</time>
      </trkpt>
      <trkpt lat="44.4042" lon="4.13887">
        <ele>185.39999389648</ele>
        <time>2012-05-19T12:57:37.000Z</time>
      </trkpt>
      <trkpt lat="44.40418" lon="4.13892">
        <ele>185.39999389648</ele>
        <time>2012-05-19T12:57:41.000Z</time>
      </trkpt>
      <trkpt lat="44.40418" lon="4.13893">
        <ele>185.39999389648</ele>
        <time>2012-05-19T12:57:42.000Z</time>
      </trkpt>
      <trkpt lat="44.40417" lon="4.13893">
        <ele>185.39999389648</ele>
        <time>2012-05-19T12:57:43.000Z</time>
      </trkpt>
      <trkpt lat="44.40416" lon="4.13893">
        <ele>185.80000305176</ele>
        <time>2012-05-19T12:57:47.000Z</time>
      </trkpt>
      <trkpt lat="44.40406" lon="4.13893">
        <ele>188.60000610352</ele>
        <time>2012-05-19T12:57:51.000Z</time>
      </trkpt>
      <trkpt lat="44.40396" lon="4.13898">
        <ele>191.39999389648</ele>
        <time>2012-05-19T12:57:58.000Z</time>
      </trkpt>
      <trkpt lat="44.4039" lon="4.139">
        <ele>193</ele>
        <time>2012-05-19T12:58:03.000Z</time>
      </trkpt>
      <trkpt lat="44.40382" lon="4.139">
        <ele>195.39999389648</ele>
        <time>2012-05-19T12:58:07.000Z</time>
      </trkpt>
      <trkpt lat="44.40377" lon="4.139">
        <ele>196.80000305176</ele>
        <time>2012-05-19T12:58:10.000Z</time>
      </trkpt>
      <trkpt lat="44.40375" lon="4.13899">
        <ele>197.60000610352</ele>
        <time>2012-05-19T12:58:13.000Z</time>
      </trkpt>
      <trkpt lat="44.40375" lon="4.13903">
        <ele>197.60000610352</ele>
        <time>2012-05-19T12:58:17.000Z</time>
      </trkpt>
      <trkpt lat="44.4037" lon="4.13903">
        <ele>199</ele>
        <time>2012-05-19T12:58:24.000Z</time>
      </trkpt>
      <trkpt lat="44.4037" lon="4.13905">
        <ele>199</ele>
        <time>2012-05-19T12:58:26.000Z</time>
      </trkpt>
      <trkpt lat="44.40368" lon="4.13907">
        <ele>199.39999389648</ele>
        <time>2012-05-19T12:58:29.000Z</time>
      </trkpt>
      <trkpt lat="44.40365" lon="4.1391">
        <ele>200.39999389648</ele>
        <time>2012-05-19T12:58:34.000Z</time>
      </trkpt>
      <trkpt lat="44.40365" lon="4.13914">
        <ele>200.60000610352</ele>
        <time>2012-05-19T12:58:38.000Z</time>
      </trkpt>
      <trkpt lat="44.40361" lon="4.13923">
        <ele>201.19999694824</ele>
        <time>2012-05-19T12:58:48.000Z</time>
      </trkpt>
      <trkpt lat="44.40359" lon="4.13928">
        <ele>201.19999694824</ele>
        <time>2012-05-19T12:58:54.000Z</time>
      </trkpt>
      <trkpt lat="44.40357" lon="4.13932">
        <ele>201.60000610352</ele>
        <time>2012-05-19T12:59:00.000Z</time>
      </trkpt>
      <trkpt lat="44.40354" lon="4.13939">
        <ele>202</ele>
        <time>2012-05-19T12:59:07.000Z</time>
      </trkpt>
      <trkpt lat="44.40352" lon="4.13941">
        <ele>202.19999694824</ele>
        <time>2012-05-19T12:59:09.000Z</time>
      </trkpt>
      <trkpt lat="44.4035" lon="4.13944">
        <ele>202.60000610352</ele>
        <time>2012-05-19T12:59:13.000Z</time>
      </trkpt>
      <trkpt lat="44.40348" lon="4.13945">
        <ele>203.19999694824</ele>
        <time>2012-05-19T12:59:18.000Z</time>
      </trkpt>
      <trkpt lat="44.40342" lon="4.13945">
        <ele>204.80000305176</ele>
        <time>2012-05-19T12:59:22.000Z</time>
      </trkpt>
      <trkpt lat="44.40339" lon="4.13954">
        <ele>204.80000305176</ele>
        <time>2012-05-19T12:59:30.000Z</time>
      </trkpt>
      <trkpt lat="44.40338" lon="4.13959">
        <ele>204.60000610352</ele>
        <time>2012-05-19T12:59:35.000Z</time>
      </trkpt>
      <trkpt lat="44.40336" lon="4.13962">
        <ele>204.80000305176</ele>
        <time>2012-05-19T12:59:39.000Z</time>
      </trkpt>
      <trkpt lat="44.40332" lon="4.13969">
        <ele>205.60000610352</ele>
        <time>2012-05-19T12:59:47.000Z</time>
      </trkpt>
      <trkpt lat="44.40328" lon="4.13977">
        <ele>206.60000610352</ele>
        <time>2012-05-19T12:59:56.000Z</time>
      </trkpt>
      <trkpt lat="44.40323" lon="4.13991">
        <ele>207.39999389648</ele>
        <time>2012-05-19T13:00:10.000Z</time>
      </trkpt>
      <trkpt lat="44.4032" lon="4.13996">
        <ele>208</ele>
        <time>2012-05-19T13:00:13.000Z</time>
      </trkpt>
      <trkpt lat="44.40317" lon="4.13998">
        <ele>209.19999694824</ele>
        <time>2012-05-19T13:00:15.000Z</time>
      </trkpt>
      <trkpt lat="44.4031" lon="4.14002">
        <ele>211.60000610352</ele>
        <time>2012-05-19T13:00:20.000Z</time>
      </trkpt>
      <trkpt lat="44.40305" lon="4.14007">
        <ele>213</ele>
        <time>2012-05-19T13:00:27.000Z</time>
      </trkpt>
      <trkpt lat="44.40302" lon="4.14011">
        <ele>213.60000610352</ele>
        <time>2012-05-19T13:00:36.000Z</time>
      </trkpt>
      <trkpt lat="44.40297" lon="4.14016">
        <ele>214.80000305176</ele>
        <time>2012-05-19T13:00:44.000Z</time>
      </trkpt>
      <trkpt lat="44.40295" lon="4.14021">
        <ele>215</ele>
        <time>2012-05-19T13:00:50.000Z</time>
      </trkpt>
      <trkpt lat="44.40292" lon="4.14027">
        <ele>215.60000610352</ele>
        <time>2012-05-19T13:00:56.000Z</time>
      </trkpt>
      <trkpt lat="44.40288" lon="4.14036">
        <ele>215.80000305176</ele>
        <time>2012-05-19T13:01:02.000Z</time>
      </trkpt>
      <trkpt lat="44.40278" lon="4.14052">
        <ele>216.80000305176</ele>
        <time>2012-05-19T13:01:09.000Z</time>
      </trkpt>
      <trkpt lat="44.40272" lon="4.14068">
        <ele>216.60000610352</ele>
        <time>2012-05-19T13:01:16.000Z</time>
      </trkpt>
      <trkpt lat="44.40265" lon="4.1409">
        <ele>215.60000610352</ele>
        <time>2012-05-19T13:01:24.000Z</time>
      </trkpt>
      <trkpt lat="44.4026" lon="4.14107">
        <ele>214.80000305176</ele>
        <time>2012-05-19T13:01:30.000Z</time>
      </trkpt>
      <trkpt lat="44.40259" lon="4.14112">
        <ele>214.39999389648</ele>
        <time>2012-05-19T13:01:32.000Z</time>
      </trkpt>
      <trkpt lat="44.40252" lon="4.14131">
        <ele>213.80000305176</ele>
        <time>2012-05-19T13:01:40.000Z</time>
      </trkpt>
      <trkpt lat="44.40244" lon="4.14139">
        <ele>216</ele>
        <time>2012-05-19T13:01:46.000Z</time>
      </trkpt>
      <trkpt lat="44.40236" lon="4.14149">
        <ele>218.19999694824</ele>
        <time>2012-05-19T13:01:53.000Z</time>
      </trkpt>
      <trkpt lat="44.40229" lon="4.14159">
        <ele>220</ele>
        <time>2012-05-19T13:02:00.000Z</time>
      </trkpt>
      <trkpt lat="44.40221" lon="4.14167">
        <ele>221.80000305176</ele>
        <time>2012-05-19T13:02:07.000Z</time>
      </trkpt>
      <trkpt lat="44.40218" lon="4.14171">
        <ele>223</ele>
        <time>2012-05-19T13:02:12.000Z</time>
      </trkpt>
      <trkpt lat="44.40214" lon="4.14171">
        <ele>224.60000610352</ele>
        <time>2012-05-19T13:02:18.000Z</time>
      </trkpt>
      <trkpt lat="44.40212" lon="4.14172">
        <ele>225.19999694824</ele>
        <time>2012-05-19T13:02:23.000Z</time>
      </trkpt>
      <trkpt lat="44.40209" lon="4.14174">
        <ele>226.39999389648</ele>
        <time>2012-05-19T13:02:29.000Z</time>
      </trkpt>
      <trkpt lat="44.40203" lon="4.14178">
        <ele>228.60000610352</ele>
        <time>2012-05-19T13:02:38.000Z</time>
      </trkpt>
      <trkpt lat="44.40197" lon="4.14183">
        <ele>230</ele>
        <time>2012-05-19T13:02:47.000Z</time>
      </trkpt>
      <trkpt lat="44.40192" lon="4.14187">
        <ele>231.39999389648</ele>
        <time>2012-05-19T13:02:55.000Z</time>
      </trkpt>
      <trkpt lat="44.40188" lon="4.14191">
        <ele>232.60000610352</ele>
        <time>2012-05-19T13:03:02.000Z</time>
      </trkpt>
      <trkpt lat="44.40184" lon="4.14195">
        <ele>233</ele>
        <time>2012-05-19T13:03:09.000Z</time>
      </trkpt>
      <trkpt lat="44.4018" lon="4.14202">
        <ele>233.19999694824</ele>
        <time>2012-05-19T13:03:18.000Z</time>
      </trkpt>
      <trkpt lat="44.40176" lon="4.14208">
        <ele>233.60000610352</ele>
        <time>2012-05-19T13:03:25.000Z</time>
      </trkpt>
      <trkpt lat="44.4017" lon="4.14213">
        <ele>234.39999389648</ele>
        <time>2012-05-19T13:03:33.000Z</time>
      </trkpt>
      <trkpt lat="44.40165" lon="4.14218">
        <ele>235.80000305176</ele>
        <time>2012-05-19T13:03:41.000Z</time>
      </trkpt>
      <trkpt lat="44.40159" lon="4.14223">
        <ele>237</ele>
        <time>2012-05-19T13:03:50.000Z</time>
      </trkpt>
      <trkpt lat="44.40153" lon="4.14226">
        <ele>239</ele>
        <time>2012-05-19T13:03:59.000Z</time>
      </trkpt>
      <trkpt lat="44.40147" lon="4.14233">
        <ele>240.39999389648</ele>
        <time>2012-05-19T13:04:08.000Z</time>
      </trkpt>
      <trkpt lat="44.40142" lon="4.1424">
        <ele>241.19999694824</ele>
        <time>2012-05-19T13:04:17.000Z</time>
      </trkpt>
      <trkpt lat="44.40137" lon="4.14246">
        <ele>241.80000305176</ele>
        <time>2012-05-19T13:04:24.000Z</time>
      </trkpt>
      <trkpt lat="44.40137" lon="4.14246">
        <ele>242</ele>
        <time>2012-05-19T13:04:25.000Z</time>
      </trkpt>
      <trkpt lat="44.40131" lon="4.14253">
        <ele>243.19999694824</ele>
        <time>2012-05-19T13:04:34.000Z</time>
      </trkpt>
      <trkpt lat="44.40128" lon="4.14256">
        <ele>244.19999694824</ele>
        <time>2012-05-19T13:04:40.000Z</time>
      </trkpt>
      <trkpt lat="44.40123" lon="4.14261">
        <ele>245.80000305176</ele>
        <time>2012-05-19T13:04:49.000Z</time>
      </trkpt>
      <trkpt lat="44.4012" lon="4.14264">
        <ele>246.39999389648</ele>
        <time>2012-05-19T13:04:54.000Z</time>
      </trkpt>
      <trkpt lat="44.40117" lon="4.14267">
        <ele>247.19999694824</ele>
        <time>2012-05-19T13:05:01.000Z</time>
      </trkpt>
      <trkpt lat="44.40115" lon="4.14269">
        <ele>248.19999694824</ele>
        <time>2012-05-19T13:05:08.000Z</time>
      </trkpt>
      <trkpt lat="44.40114" lon="4.1427">
        <ele>248.60000610352</ele>
        <time>2012-05-19T13:05:13.000Z</time>
      </trkpt>
      <trkpt lat="44.40113" lon="4.14275">
        <ele>248</ele>
        <time>2012-05-19T13:05:18.000Z</time>
      </trkpt>
      <trkpt lat="44.40109" lon="4.14286">
        <ele>248.19999694824</ele>
        <time>2012-05-19T13:05:23.000Z</time>
      </trkpt>
      <trkpt lat="44.40104" lon="4.14305">
        <ele>247.19999694824</ele>
        <time>2012-05-19T13:05:28.000Z</time>
      </trkpt>
      <trkpt lat="44.40102" lon="4.14328">
        <ele>244.80000305176</ele>
        <time>2012-05-19T13:05:34.000Z</time>
      </trkpt>
      <trkpt lat="44.40097" lon="4.14353">
        <ele>244.39999389648</ele>
        <time>2012-05-19T13:05:39.000Z</time>
      </trkpt>
      <trkpt lat="44.40096" lon="4.14357">
        <ele>244.60000610352</ele>
        <time>2012-05-19T13:05:40.000Z</time>
      </trkpt>
      <trkpt lat="44.40097" lon="4.14374">
        <ele>242.60000610352</ele>
        <time>2012-05-19T13:05:44.000Z</time>
      </trkpt>
      <trkpt lat="44.40096" lon="4.14392">
        <ele>241.60000610352</ele>
        <time>2012-05-19T13:05:48.000Z</time>
      </trkpt>
      <trkpt lat="44.4009" lon="4.14401">
        <ele>243.39999389648</ele>
        <time>2012-05-19T13:05:52.000Z</time>
      </trkpt>
      <trkpt lat="44.40088" lon="4.14407">
        <ele>243.80000305176</ele>
        <time>2012-05-19T13:05:55.000Z</time>
      </trkpt>
      <trkpt lat="44.40086" lon="4.14417">
        <ele>243.60000610352</ele>
        <time>2012-05-19T13:05:57.000Z</time>
      </trkpt>
      <trkpt lat="44.40083" lon="4.14446">
        <ele>242.80000305176</ele>
        <time>2012-05-19T13:06:02.000Z</time>
      </trkpt>
      <trkpt lat="44.40087" lon="4.14455">
        <ele>240.60000610352</ele>
        <time>2012-05-19T13:06:05.000Z</time>
      </trkpt>
      <trkpt lat="44.40091" lon="4.14475">
        <ele>237.39999389648</ele>
        <time>2012-05-19T13:06:10.000Z</time>
      </trkpt>
      <trkpt lat="44.40092" lon="4.14495">
        <ele>236</ele>
        <time>2012-05-19T13:06:15.000Z</time>
      </trkpt>
      <trkpt lat="44.4009" lon="4.14515">
        <ele>236.39999389648</ele>
        <time>2012-05-19T13:06:20.000Z</time>
      </trkpt>
      <trkpt lat="44.40087" lon="4.14537">
        <ele>237.39999389648</ele>
        <time>2012-05-19T13:06:27.000Z</time>
      </trkpt>
      <trkpt lat="44.40085" lon="4.14554">
        <ele>238.19999694824</ele>
        <time>2012-05-19T13:06:34.000Z</time>
      </trkpt>
      <trkpt lat="44.40082" lon="4.14572">
        <ele>239.80000305176</ele>
        <time>2012-05-19T13:06:41.000Z</time>
      </trkpt>
      <trkpt lat="44.40073" lon="4.14588">
        <ele>244</ele>
        <time>2012-05-19T13:06:49.000Z</time>
      </trkpt>
      <trkpt lat="44.4007" lon="4.14605">
        <ele>246.19999694824</ele>
        <time>2012-05-19T13:06:55.000Z</time>
      </trkpt>
      <trkpt lat="44.40065" lon="4.14621">
        <ele>248.60000610352</ele>
        <time>2012-05-19T13:07:01.000Z</time>
      </trkpt>
      <trkpt lat="44.40065" lon="4.14625">
        <ele>249</ele>
        <time>2012-05-19T13:07:05.000Z</time>
      </trkpt>
      <trkpt lat="44.40065" lon="4.14626">
        <ele>248.80000305176</ele>
        <time>2012-05-19T13:07:06.000Z</time>
      </trkpt>
      <trkpt lat="44.40067" lon="4.14632">
        <ele>248.39999389648</ele>
        <time>2012-05-19T13:07:09.000Z</time>
      </trkpt>
      <trkpt lat="44.40068" lon="4.14635">
        <ele>248</ele>
        <time>2012-05-19T13:07:11.000Z</time>
      </trkpt>
      <trkpt lat="44.40071" lon="4.14649">
        <ele>247.39999389648</ele>
        <time>2012-05-19T13:07:17.000Z</time>
      </trkpt>
      <trkpt lat="44.40074" lon="4.14664">
        <ele>247.19999694824</ele>
        <time>2012-05-19T13:07:23.000Z</time>
      </trkpt>
      <trkpt lat="44.40077" lon="4.14683">
        <ele>248</ele>
        <time>2012-05-19T13:07:31.000Z</time>
      </trkpt>
      <trkpt lat="44.40081" lon="4.14695">
        <ele>248.39999389648</ele>
        <time>2012-05-19T13:07:38.000Z</time>
      </trkpt>
      <trkpt lat="44.40087" lon="4.14707">
        <ele>248</ele>
        <time>2012-05-19T13:07:45.000Z</time>
      </trkpt>
      <trkpt lat="44.40094" lon="4.14718">
        <ele>247.19999694824</ele>
        <time>2012-05-19T13:07:51.000Z</time>
      </trkpt>
      <trkpt lat="44.40102" lon="4.14729">
        <ele>246.80000305176</ele>
        <time>2012-05-19T13:07:58.000Z</time>
      </trkpt>
      <trkpt lat="44.40108" lon="4.14738">
        <ele>246.60000610352</ele>
        <time>2012-05-19T13:08:04.000Z</time>
      </trkpt>
      <trkpt lat="44.40113" lon="4.1475">
        <ele>247.39999389648</ele>
        <time>2012-05-19T13:08:11.000Z</time>
      </trkpt>
      <trkpt lat="44.40116" lon="4.14756">
        <ele>247.39999389648</ele>
        <time>2012-05-19T13:08:15.000Z</time>
      </trkpt>
      <trkpt lat="44.40116" lon="4.14756">
        <ele>247.19999694824</ele>
        <time>2012-05-19T13:08:16.000Z</time>
      </trkpt>
      <trkpt lat="44.40122" lon="4.14761">
        <ele>246.39999389648</ele>
        <time>2012-05-19T13:09:02.000Z</time>
      </trkpt>
      <trkpt lat="44.40124" lon="4.14756">
        <ele>245.60000610352</ele>
        <time>2012-05-19T13:09:04.000Z</time>
      </trkpt>
      <trkpt lat="44.40124" lon="4.14754">
        <ele>245.19999694824</ele>
        <time>2012-05-19T13:09:06.000Z</time>
      </trkpt>
      <trkpt lat="44.40124" lon="4.14754">
        <ele>245.39999389648</ele>
        <time>2012-05-19T13:09:08.000Z</time>
      </trkpt>
      <trkpt lat="44.40122" lon="4.14752">
        <ele>245.60000610352</ele>
        <time>2012-05-19T13:09:37.000Z</time>
      </trkpt>
      <trkpt lat="44.40125" lon="4.14749">
        <ele>244.19999694824</ele>
        <time>2012-05-19T13:11:05.000Z</time>
      </trkpt>
      <trkpt lat="44.40126" lon="4.14751">
        <ele>244.39999389648</ele>
        <time>2012-05-19T13:11:06.000Z</time>
      </trkpt>
      <trkpt lat="44.40124" lon="4.14756">
        <ele>245.19999694824</ele>
        <time>2012-05-19T13:11:08.000Z</time>
      </trkpt>
      <trkpt lat="44.4012" lon="4.14756">
        <ele>246.39999389648</ele>
        <time>2012-05-19T13:11:11.000Z</time>
      </trkpt>
      <trkpt lat="44.40119" lon="4.14758">
        <ele>246.80000305176</ele>
        <time>2012-05-19T13:11:13.000Z</time>
      </trkpt>
      <trkpt lat="44.40116" lon="4.14757">
        <ele>247.39999389648</ele>
        <time>2012-05-19T13:11:18.000Z</time>
      </trkpt>
      <trkpt lat="44.40115" lon="4.14756">
        <ele>247.60000610352</ele>
        <time>2012-05-19T13:11:20.000Z</time>
      </trkpt>
      <trkpt lat="44.40115" lon="4.14756">
        <ele>247.39999389648</ele>
        <time>2012-05-19T13:11:23.000Z</time>
      </trkpt>
      <trkpt lat="44.40114" lon="4.14756">
        <ele>247.80000305176</ele>
        <time>2012-05-19T13:12:18.000Z</time>
      </trkpt>
      <trkpt lat="44.40116" lon="4.14761">
        <ele>247.80000305176</ele>
        <time>2012-05-19T13:12:29.000Z</time>
      </trkpt>
      <trkpt lat="44.40117" lon="4.14765">
        <ele>248</ele>
        <time>2012-05-19T13:12:31.000Z</time>
      </trkpt>
      <trkpt lat="44.40121" lon="4.14772">
        <ele>248</ele>
        <time>2012-05-19T13:12:35.000Z</time>
      </trkpt>
      <trkpt lat="44.40129" lon="4.1478">
        <ele>247.39999389648</ele>
        <time>2012-05-19T13:12:40.000Z</time>
      </trkpt>
      <trkpt lat="44.40139" lon="4.14797">
        <ele>248.39999389648</ele>
        <time>2012-05-19T13:12:47.000Z</time>
      </trkpt>
      <trkpt lat="44.40145" lon="4.14813">
        <ele>250.19999694824</ele>
        <time>2012-05-19T13:12:53.000Z</time>
      </trkpt>
      <trkpt lat="44.40152" lon="4.14828">
        <ele>252.39999389648</ele>
        <time>2012-05-19T13:12:59.000Z</time>
      </trkpt>
      <trkpt lat="44.40161" lon="4.14847">
        <ele>254</ele>
        <time>2012-05-19T13:13:07.000Z</time>
      </trkpt>
      <trkpt lat="44.40165" lon="4.14861">
        <ele>254.60000610352</ele>
        <time>2012-05-19T13:13:12.000Z</time>
      </trkpt>
      <trkpt lat="44.40172" lon="4.14884">
        <ele>256.20001220703</ele>
        <time>2012-05-19T13:13:20.000Z</time>
      </trkpt>
      <trkpt lat="44.4017" lon="4.14891">
        <ele>256.60000610352</ele>
        <time>2012-05-19T13:13:22.000Z</time>
      </trkpt>
      <trkpt lat="44.40166" lon="4.14897">
        <ele>256.79998779297</ele>
        <time>2012-05-19T13:13:24.000Z</time>
      </trkpt>
      <trkpt lat="44.40153" lon="4.14917">
        <ele>257.60000610352</ele>
        <time>2012-05-19T13:13:30.000Z</time>
      </trkpt>
      <trkpt lat="44.4015" lon="4.14924">
        <ele>257.79998779297</ele>
        <time>2012-05-19T13:13:32.000Z</time>
      </trkpt>
      <trkpt lat="44.40141" lon="4.14948">
        <ele>258</ele>
        <time>2012-05-19T13:13:39.000Z</time>
      </trkpt>
      <trkpt lat="44.40136" lon="4.14974">
        <ele>258.39999389648</ele>
        <time>2012-05-19T13:13:46.000Z</time>
      </trkpt>
      <trkpt lat="44.40136" lon="4.14976">
        <ele>258.39999389648</ele>
        <time>2012-05-19T13:13:47.000Z</time>
      </trkpt>
      <trkpt lat="44.40133" lon="4.14998">
        <ele>258.79998779297</ele>
        <time>2012-05-19T13:13:53.000Z</time>
      </trkpt>
      <trkpt lat="44.40128" lon="4.15024">
        <ele>258.60000610352</ele>
        <time>2012-05-19T13:13:59.000Z</time>
      </trkpt>
      <trkpt lat="44.40126" lon="4.15039">
        <ele>258.60000610352</ele>
        <time>2012-05-19T13:14:02.000Z</time>
      </trkpt>
      <trkpt lat="44.40121" lon="4.15064">
        <ele>258.20001220703</ele>
        <time>2012-05-19T13:14:07.000Z</time>
      </trkpt>
      <trkpt lat="44.40119" lon="4.15081">
        <ele>258</ele>
        <time>2012-05-19T13:14:10.000Z</time>
      </trkpt>
      <trkpt lat="44.40117" lon="4.15111">
        <ele>257.79998779297</ele>
        <time>2012-05-19T13:14:15.000Z</time>
      </trkpt>
      <trkpt lat="44.40116" lon="4.15123">
        <ele>257.60000610352</ele>
        <time>2012-05-19T13:14:17.000Z</time>
      </trkpt>
      <trkpt lat="44.40113" lon="4.15142">
        <ele>257.39999389648</ele>
        <time>2012-05-19T13:14:20.000Z</time>
      </trkpt>
      <trkpt lat="44.40108" lon="4.15162">
        <ele>256.60000610352</ele>
        <time>2012-05-19T13:14:23.000Z</time>
      </trkpt>
      <trkpt lat="44.40103" lon="4.15191">
        <ele>255.80000305176</ele>
        <time>2012-05-19T13:14:27.000Z</time>
      </trkpt>
      <trkpt lat="44.40101" lon="4.15206">
        <ele>255.60000610352</ele>
        <time>2012-05-19T13:14:29.000Z</time>
      </trkpt>
      <trkpt lat="44.40097" lon="4.15234">
        <ele>254.80000305176</ele>
        <time>2012-05-19T13:14:33.000Z</time>
      </trkpt>
      <trkpt lat="44.40094" lon="4.15247">
        <ele>254.39999389648</ele>
        <time>2012-05-19T13:14:35.000Z</time>
      </trkpt>
      <trkpt lat="44.40089" lon="4.15274">
        <ele>253.60000610352</ele>
        <time>2012-05-19T13:14:39.000Z</time>
      </trkpt>
      <trkpt lat="44.40086" lon="4.15294">
        <ele>253.39999389648</ele>
        <time>2012-05-19T13:14:42.000Z</time>
      </trkpt>
      <trkpt lat="44.40084" lon="4.1532">
        <ele>253.19999694824</ele>
        <time>2012-05-19T13:14:46.000Z</time>
      </trkpt>
      <trkpt lat="44.40084" lon="4.1534">
        <ele>252.80000305176</ele>
        <time>2012-05-19T13:14:49.000Z</time>
      </trkpt>
      <trkpt lat="44.40083" lon="4.1537">
        <ele>252</ele>
        <time>2012-05-19T13:14:53.000Z</time>
      </trkpt>
      <trkpt lat="44.40082" lon="4.15386">
        <ele>251.60000610352</ele>
        <time>2012-05-19T13:14:55.000Z</time>
      </trkpt>
      <trkpt lat="44.40081" lon="4.15394">
        <ele>251.39999389648</ele>
        <time>2012-05-19T13:14:56.000Z</time>
      </trkpt>
      <trkpt lat="44.4008" lon="4.15423">
        <ele>250.80000305176</ele>
        <time>2012-05-19T13:15:00.000Z</time>
      </trkpt>
      <trkpt lat="44.4008" lon="4.15443">
        <ele>250.80000305176</ele>
        <time>2012-05-19T13:15:03.000Z</time>
      </trkpt>
      <trkpt lat="44.4008" lon="4.1547">
        <ele>250.80000305176</ele>
        <time>2012-05-19T13:15:07.000Z</time>
      </trkpt>
      <trkpt lat="44.4008" lon="4.15485">
        <ele>250.80000305176</ele>
        <time>2012-05-19T13:15:09.000Z</time>
      </trkpt>
      <trkpt lat="44.40077" lon="4.15513">
        <ele>250.60000610352</ele>
        <time>2012-05-19T13:15:13.000Z</time>
      </trkpt>
      <trkpt lat="44.40074" lon="4.15524">
        <ele>250.39999389648</ele>
        <time>2012-05-19T13:15:15.000Z</time>
      </trkpt>
      <trkpt lat="44.40069" lon="4.15549">
        <ele>250.19999694824</ele>
        <time>2012-05-19T13:15:19.000Z</time>
      </trkpt>
      <trkpt lat="44.40067" lon="4.15562">
        <ele>250.19999694824</ele>
        <time>2012-05-19T13:15:21.000Z</time>
      </trkpt>
      <trkpt lat="44.40064" lon="4.15576">
        <ele>250</ele>
        <time>2012-05-19T13:15:23.000Z</time>
      </trkpt>
      <trkpt lat="44.40062" lon="4.15589">
        <ele>250</ele>
        <time>2012-05-19T13:15:25.000Z</time>
      </trkpt>
      <trkpt lat="44.40063" lon="4.15619">
        <ele>250.19999694824</ele>
        <time>2012-05-19T13:15:29.000Z</time>
      </trkpt>
      <trkpt lat="44.40069" lon="4.15646">
        <ele>250.80000305176</ele>
        <time>2012-05-19T13:15:33.000Z</time>
      </trkpt>
      <trkpt lat="44.40071" lon="4.15653">
        <ele>251</ele>
        <time>2012-05-19T13:15:34.000Z</time>
      </trkpt>
      <trkpt lat="44.40076" lon="4.1568">
        <ele>251.39999389648</ele>
        <time>2012-05-19T13:15:38.000Z</time>
      </trkpt>
      <trkpt lat="44.40079" lon="4.15699">
        <ele>251.60000610352</ele>
        <time>2012-05-19T13:15:41.000Z</time>
      </trkpt>
      <trkpt lat="44.40083" lon="4.15724">
        <ele>252</ele>
        <time>2012-05-19T13:15:45.000Z</time>
      </trkpt>
      <trkpt lat="44.40087" lon="4.15752">
        <ele>252.39999389648</ele>
        <time>2012-05-19T13:15:50.000Z</time>
      </trkpt>
      <trkpt lat="44.40092" lon="4.1578">
        <ele>252.19999694824</ele>
        <time>2012-05-19T13:15:55.000Z</time>
      </trkpt>
      <trkpt lat="44.40093" lon="4.15784">
        <ele>252.19999694824</ele>
        <time>2012-05-19T13:15:56.000Z</time>
      </trkpt>
      <trkpt lat="44.40095" lon="4.1579">
        <ele>252.19999694824</ele>
        <time>2012-05-19T13:15:57.000Z</time>
      </trkpt>
      <trkpt lat="44.40103" lon="4.15817">
        <ele>252.39999389648</ele>
        <time>2012-05-19T13:16:02.000Z</time>
      </trkpt>
      <trkpt lat="44.40112" lon="4.15841">
        <ele>252.60000610352</ele>
        <time>2012-05-19T13:16:06.000Z</time>
      </trkpt>
      <trkpt lat="44.40121" lon="4.15866">
        <ele>253</ele>
        <time>2012-05-19T13:16:10.000Z</time>
      </trkpt>
      <trkpt lat="44.40127" lon="4.1589">
        <ele>253.19999694824</ele>
        <time>2012-05-19T13:16:14.000Z</time>
      </trkpt>
      <trkpt lat="44.40134" lon="4.15917">
        <ele>253.19999694824</ele>
        <time>2012-05-19T13:16:19.000Z</time>
      </trkpt>
      <trkpt lat="44.40137" lon="4.15933">
        <ele>253.19999694824</ele>
        <time>2012-05-19T13:16:22.000Z</time>
      </trkpt>
      <trkpt lat="44.40143" lon="4.15959">
        <ele>253</ele>
        <time>2012-05-19T13:16:27.000Z</time>
      </trkpt>
      <trkpt lat="44.40147" lon="4.15976">
        <ele>252.80000305176</ele>
        <time>2012-05-19T13:16:30.000Z</time>
      </trkpt>
      <trkpt lat="44.40153" lon="4.16001">
        <ele>252.39999389648</ele>
        <time>2012-05-19T13:16:34.000Z</time>
      </trkpt>
      <trkpt lat="44.40159" lon="4.16022">
        <ele>252</ele>
        <time>2012-05-19T13:16:37.000Z</time>
      </trkpt>
      <trkpt lat="44.40166" lon="4.16047">
        <ele>251.19999694824</ele>
        <time>2012-05-19T13:16:40.000Z</time>
      </trkpt>
      <trkpt lat="44.40171" lon="4.16075">
        <ele>250.60000610352</ele>
        <time>2012-05-19T13:16:43.000Z</time>
      </trkpt>
      <trkpt lat="44.40167" lon="4.16097">
        <ele>249.80000305176</ele>
        <time>2012-05-19T13:16:46.000Z</time>
      </trkpt>
      <trkpt lat="44.40162" lon="4.16109">
        <ele>249.60000610352</ele>
        <time>2012-05-19T13:16:48.000Z</time>
      </trkpt>
      <trkpt lat="44.40155" lon="4.16127">
        <ele>249</ele>
        <time>2012-05-19T13:16:51.000Z</time>
      </trkpt>
      <trkpt lat="44.40152" lon="4.16133">
        <ele>248.80000305176</ele>
        <time>2012-05-19T13:16:52.000Z</time>
      </trkpt>
      <trkpt lat="44.40142" lon="4.1616">
        <ele>248.19999694824</ele>
        <time>2012-05-19T13:16:56.000Z</time>
      </trkpt>
      <trkpt lat="44.40138" lon="4.16179">
        <ele>247.60000610352</ele>
        <time>2012-05-19T13:16:58.000Z</time>
      </trkpt>
      <trkpt lat="44.40132" lon="4.16206">
        <ele>246.60000610352</ele>
        <time>2012-05-19T13:17:01.000Z</time>
      </trkpt>
      <trkpt lat="44.40127" lon="4.16234">
        <ele>245.80000305176</ele>
        <time>2012-05-19T13:17:04.000Z</time>
      </trkpt>
      <trkpt lat="44.40125" lon="4.16243">
        <ele>245.60000610352</ele>
        <time>2012-05-19T13:17:05.000Z</time>
      </trkpt>
      <trkpt lat="44.40121" lon="4.16268">
        <ele>245.39999389648</ele>
        <time>2012-05-19T13:17:08.000Z</time>
      </trkpt>
      <trkpt lat="44.4012" lon="4.16283">
        <ele>245.19999694824</ele>
        <time>2012-05-19T13:17:10.000Z</time>
      </trkpt>
      <trkpt lat="44.4012" lon="4.1629">
        <ele>245</ele>
        <time>2012-05-19T13:17:11.000Z</time>
      </trkpt>
      <trkpt lat="44.40124" lon="4.16314">
        <ele>244.80000305176</ele>
        <time>2012-05-19T13:17:14.000Z</time>
      </trkpt>
      <trkpt lat="44.40127" lon="4.1634">
        <ele>244.39999389648</ele>
        <time>2012-05-19T13:17:17.000Z</time>
      </trkpt>
      <trkpt lat="44.4012" lon="4.16358">
        <ele>244.19999694824</ele>
        <time>2012-05-19T13:17:20.000Z</time>
      </trkpt>
      <trkpt lat="44.40109" lon="4.16359">
        <ele>244.19999694824</ele>
        <time>2012-05-19T13:17:22.000Z</time>
      </trkpt>
      <trkpt lat="44.40103" lon="4.1636">
        <ele>244.39999389648</ele>
        <time>2012-05-19T13:17:23.000Z</time>
      </trkpt>
      <trkpt lat="44.40085" lon="4.16366">
        <ele>244.60000610352</ele>
        <time>2012-05-19T13:17:26.000Z</time>
      </trkpt>
      <trkpt lat="44.4008" lon="4.16371">
        <ele>244.39999389648</ele>
        <time>2012-05-19T13:17:27.000Z</time>
      </trkpt>
      <trkpt lat="44.40072" lon="4.16386">
        <ele>243.80000305176</ele>
        <time>2012-05-19T13:17:31.000Z</time>
      </trkpt>
      <trkpt lat="44.40071" lon="4.16389">
        <ele>243.80000305176</ele>
        <time>2012-05-19T13:17:32.000Z</time>
      </trkpt>
      <trkpt lat="44.40071" lon="4.16394">
        <ele>243.80000305176</ele>
        <time>2012-05-19T13:17:35.000Z</time>
      </trkpt>
      <trkpt lat="44.40072" lon="4.16395">
        <ele>243.80000305176</ele>
        <time>2012-05-19T13:17:37.000Z</time>
      </trkpt>
      <trkpt lat="44.40072" lon="4.16396">
        <ele>243.80000305176</ele>
        <time>2012-05-19T13:17:41.000Z</time>
      </trkpt>
      <trkpt lat="44.40072" lon="4.16399">
        <ele>243.80000305176</ele>
        <time>2012-05-19T13:17:46.000Z</time>
      </trkpt>
      <trkpt lat="44.40075" lon="4.16402">
        <ele>243.80000305176</ele>
        <time>2012-05-19T13:17:48.000Z</time>
      </trkpt>
      <trkpt lat="44.40081" lon="4.16403">
        <ele>244</ele>
        <time>2012-05-19T13:17:50.000Z</time>
      </trkpt>
      <trkpt lat="44.40089" lon="4.16404">
        <ele>244</ele>
        <time>2012-05-19T13:17:52.000Z</time>
      </trkpt>
      <trkpt lat="44.40107" lon="4.16406">
        <ele>243.60000610352</ele>
        <time>2012-05-19T13:17:57.000Z</time>
      </trkpt>
      <trkpt lat="44.40117" lon="4.16409">
        <ele>243.39999389648</ele>
        <time>2012-05-19T13:18:00.000Z</time>
      </trkpt>
      <trkpt lat="44.40131" lon="4.16423">
        <ele>242.80000305176</ele>
        <time>2012-05-19T13:18:06.000Z</time>
      </trkpt>
      <trkpt lat="44.40129" lon="4.16441">
        <ele>242.80000305176</ele>
        <time>2012-05-19T13:18:10.000Z</time>
      </trkpt>
      <trkpt lat="44.40125" lon="4.16467">
        <ele>243</ele>
        <time>2012-05-19T13:18:15.000Z</time>
      </trkpt>
      <trkpt lat="44.40125" lon="4.16473">
        <ele>243</ele>
        <time>2012-05-19T13:18:16.000Z</time>
      </trkpt>
      <trkpt lat="44.40124" lon="4.16502">
        <ele>243</ele>
        <time>2012-05-19T13:18:21.000Z</time>
      </trkpt>
      <trkpt lat="44.40123" lon="4.16515">
        <ele>243.60000610352</ele>
        <time>2012-05-19T13:18:23.000Z</time>
      </trkpt>
      <trkpt lat="44.40123" lon="4.16521">
        <ele>243.60000610352</ele>
        <time>2012-05-19T13:18:24.000Z</time>
      </trkpt>
      <trkpt lat="44.40127" lon="4.16544">
        <ele>244.19999694824</ele>
        <time>2012-05-19T13:18:28.000Z</time>
      </trkpt>
      <trkpt lat="44.40139" lon="4.16568">
        <ele>244.60000610352</ele>
        <time>2012-05-19T13:18:33.000Z</time>
      </trkpt>
      <trkpt lat="44.40152" lon="4.16592">
        <ele>244.60000610352</ele>
        <time>2012-05-19T13:18:38.000Z</time>
      </trkpt>
      <trkpt lat="44.4016" lon="4.16609">
        <ele>244.60000610352</ele>
        <time>2012-05-19T13:18:41.000Z</time>
      </trkpt>
      <trkpt lat="44.40169" lon="4.16634">
        <ele>244</ele>
        <time>2012-05-19T13:18:46.000Z</time>
      </trkpt>
      <trkpt lat="44.40177" lon="4.16661">
        <ele>241.80000305176</ele>
        <time>2012-05-19T13:18:51.000Z</time>
      </trkpt>
      <trkpt lat="44.40179" lon="4.16672">
        <ele>241</ele>
        <time>2012-05-19T13:18:53.000Z</time>
      </trkpt>
      <trkpt lat="44.4018" lon="4.16693">
        <ele>240.80000305176</ele>
        <time>2012-05-19T13:18:57.000Z</time>
      </trkpt>
      <trkpt lat="44.4018" lon="4.16704">
        <ele>240.60000610352</ele>
        <time>2012-05-19T13:18:59.000Z</time>
      </trkpt>
      <trkpt lat="44.40182" lon="4.16718">
        <ele>240</ele>
        <time>2012-05-19T13:19:02.000Z</time>
      </trkpt>
      <trkpt lat="44.40184" lon="4.16732">
        <ele>239.60000610352</ele>
        <time>2012-05-19T13:19:05.000Z</time>
      </trkpt>
      <trkpt lat="44.4019" lon="4.16759">
        <ele>238</ele>
        <time>2012-05-19T13:19:10.000Z</time>
      </trkpt>
      <trkpt lat="44.40192" lon="4.16765">
        <ele>237.80000305176</ele>
        <time>2012-05-19T13:19:11.000Z</time>
      </trkpt>
      <trkpt lat="44.40193" lon="4.1678">
        <ele>238</ele>
        <time>2012-05-19T13:19:13.000Z</time>
      </trkpt>
      <trkpt lat="44.40194" lon="4.16793">
        <ele>238.19999694824</ele>
        <time>2012-05-19T13:19:15.000Z</time>
      </trkpt>
      <trkpt lat="44.40195" lon="4.16821">
        <ele>239.19999694824</ele>
        <time>2012-05-19T13:19:20.000Z</time>
      </trkpt>
      <trkpt lat="44.40196" lon="4.16827">
        <ele>239.39999389648</ele>
        <time>2012-05-19T13:19:21.000Z</time>
      </trkpt>
      <trkpt lat="44.40196" lon="4.16832">
        <ele>239.60000610352</ele>
        <time>2012-05-19T13:19:22.000Z</time>
      </trkpt>
      <trkpt lat="44.40201" lon="4.1685">
        <ele>238.39999389648</ele>
        <time>2012-05-19T13:19:26.000Z</time>
      </trkpt>
      <trkpt lat="44.40204" lon="4.16876">
        <ele>237.60000610352</ele>
        <time>2012-05-19T13:19:31.000Z</time>
      </trkpt>
      <trkpt lat="44.40203" lon="4.16882">
        <ele>237.60000610352</ele>
        <time>2012-05-19T13:19:32.000Z</time>
      </trkpt>
      <trkpt lat="44.40198" lon="4.1691">
        <ele>237.60000610352</ele>
        <time>2012-05-19T13:19:38.000Z</time>
      </trkpt>
      <trkpt lat="44.40194" lon="4.16939">
        <ele>234.39999389648</ele>
        <time>2012-05-19T13:19:43.000Z</time>
      </trkpt>
      <trkpt lat="44.40193" lon="4.16968">
        <ele>230.39999389648</ele>
        <time>2012-05-19T13:19:47.000Z</time>
      </trkpt>
      <trkpt lat="44.40192" lon="4.16974">
        <ele>229.60000610352</ele>
        <time>2012-05-19T13:19:48.000Z</time>
      </trkpt>
      <trkpt lat="44.4019" lon="4.16991">
        <ele>227.39999389648</ele>
        <time>2012-05-19T13:19:51.000Z</time>
      </trkpt>
      <trkpt lat="44.40188" lon="4.16999">
        <ele>226.80000305176</ele>
        <time>2012-05-19T13:19:52.000Z</time>
      </trkpt>
      <trkpt lat="44.40184" lon="4.17018">
        <ele>225</ele>
        <time>2012-05-19T13:19:55.000Z</time>
      </trkpt>
      <trkpt lat="44.40176" lon="4.17046">
        <ele>223.60000610352</ele>
        <time>2012-05-19T13:19:59.000Z</time>
      </trkpt>
      <trkpt lat="44.40174" lon="4.17054">
        <ele>223.19999694824</ele>
        <time>2012-05-19T13:20:00.000Z</time>
      </trkpt>
      <trkpt lat="44.40164" lon="4.1707">
        <ele>223.80000305176</ele>
        <time>2012-05-19T13:20:03.000Z</time>
      </trkpt>
      <trkpt lat="44.40155" lon="4.1708">
        <ele>223.19999694824</ele>
        <time>2012-05-19T13:20:05.000Z</time>
      </trkpt>
      <trkpt lat="44.40148" lon="4.17089">
        <ele>222.39999389648</ele>
        <time>2012-05-19T13:20:07.000Z</time>
      </trkpt>
      <trkpt lat="44.40145" lon="4.17095">
        <ele>222</ele>
        <time>2012-05-19T13:20:08.000Z</time>
      </trkpt>
      <trkpt lat="44.40129" lon="4.1712">
        <ele>220.39999389648</ele>
        <time>2012-05-19T13:20:12.000Z</time>
      </trkpt>
      <trkpt lat="44.40115" lon="4.1714">
        <ele>220.60000610352</ele>
        <time>2012-05-19T13:20:16.000Z</time>
      </trkpt>
      <trkpt lat="44.40114" lon="4.17148">
        <ele>220.19999694824</ele>
        <time>2012-05-19T13:20:19.000Z</time>
      </trkpt>
      <trkpt lat="44.40113" lon="4.17149">
        <ele>220.19999694824</ele>
        <time>2012-05-19T13:20:22.000Z</time>
      </trkpt>
      <trkpt lat="44.40112" lon="4.17149">
        <ele>220.19999694824</ele>
        <time>2012-05-19T13:20:24.000Z</time>
      </trkpt>
      <trkpt lat="44.40117" lon="4.17158">
        <ele>218.60000610352</ele>
        <time>2012-05-19T13:20:54.000Z</time>
      </trkpt>
      <trkpt lat="44.40121" lon="4.17181">
        <ele>217.39999389648</ele>
        <time>2012-05-19T13:21:00.000Z</time>
      </trkpt>
      <trkpt lat="44.40125" lon="4.17205">
        <ele>217.60000610352</ele>
        <time>2012-05-19T13:21:06.000Z</time>
      </trkpt>
      <trkpt lat="44.4013" lon="4.17234">
        <ele>217.60000610352</ele>
        <time>2012-05-19T13:21:13.000Z</time>
      </trkpt>
      <trkpt lat="44.40134" lon="4.17262">
        <ele>219.19999694824</ele>
        <time>2012-05-19T13:21:18.000Z</time>
      </trkpt>
      <trkpt lat="44.40135" lon="4.17268">
        <ele>219.80000305176</ele>
        <time>2012-05-19T13:21:19.000Z</time>
      </trkpt>
      <trkpt lat="44.40139" lon="4.17293">
        <ele>223.19999694824</ele>
        <time>2012-05-19T13:21:24.000Z</time>
      </trkpt>
      <trkpt lat="44.4014" lon="4.17297">
        <ele>223.60000610352</ele>
        <time>2012-05-19T13:21:25.000Z</time>
      </trkpt>
      <trkpt lat="44.40142" lon="4.17309">
        <ele>225.19999694824</ele>
        <time>2012-05-19T13:21:30.000Z</time>
      </trkpt>
      <trkpt lat="44.40142" lon="4.17314">
        <ele>226</ele>
        <time>2012-05-19T13:21:33.000Z</time>
      </trkpt>
      <trkpt lat="44.40139" lon="4.17317">
        <ele>227</ele>
        <time>2012-05-19T13:21:36.000Z</time>
      </trkpt>
      <trkpt lat="44.40139" lon="4.17318">
        <ele>227.19999694824</ele>
        <time>2012-05-19T13:21:41.000Z</time>
      </trkpt>
      <trkpt lat="44.40137" lon="4.17324">
        <ele>228.39999389648</ele>
        <time>2012-05-19T13:21:48.000Z</time>
      </trkpt>
      <trkpt lat="44.40136" lon="4.17332">
        <ele>229.80000305176</ele>
        <time>2012-05-19T13:21:55.000Z</time>
      </trkpt>
      <trkpt lat="44.40135" lon="4.17341">
        <ele>230.39999389648</ele>
        <time>2012-05-19T13:22:02.000Z</time>
      </trkpt>
      <trkpt lat="44.40134" lon="4.17342">
        <ele>230.39999389648</ele>
        <time>2012-05-19T13:22:03.000Z</time>
      </trkpt>
      <trkpt lat="44.40133" lon="4.17353">
        <ele>231</ele>
        <time>2012-05-19T13:22:11.000Z</time>
      </trkpt>
      <trkpt lat="44.40131" lon="4.17362">
        <ele>231.60000610352</ele>
        <time>2012-05-19T13:22:17.000Z</time>
      </trkpt>
      <trkpt lat="44.4013" lon="4.17364">
        <ele>231.80000305176</ele>
        <time>2012-05-19T13:22:18.000Z</time>
      </trkpt>
      <trkpt lat="44.40129" lon="4.17371">
        <ele>232</ele>
        <time>2012-05-19T13:22:26.000Z</time>
      </trkpt>
      <trkpt lat="44.40129" lon="4.17379">
        <ele>232.39999389648</ele>
        <time>2012-05-19T13:22:33.000Z</time>
      </trkpt>
      <trkpt lat="44.40128" lon="4.17389">
        <ele>232.80000305176</ele>
        <time>2012-05-19T13:22:39.000Z</time>
      </trkpt>
      <trkpt lat="44.40127" lon="4.1739">
        <ele>233</ele>
        <time>2012-05-19T13:22:40.000Z</time>
      </trkpt>
      <trkpt lat="44.40126" lon="4.17398">
        <ele>233.19999694824</ele>
        <time>2012-05-19T13:22:44.000Z</time>
      </trkpt>
      <trkpt lat="44.40122" lon="4.17417">
        <ele>234</ele>
        <time>2012-05-19T13:22:50.000Z</time>
      </trkpt>
      <trkpt lat="44.40119" lon="4.17419">
        <ele>234.19999694824</ele>
        <time>2012-05-19T13:22:51.000Z</time>
      </trkpt>
      <trkpt lat="44.40108" lon="4.17424">
        <ele>234.39999389648</ele>
        <time>2012-05-19T13:22:54.000Z</time>
      </trkpt>
      <trkpt lat="44.40092" lon="4.1743">
        <ele>234.80000305176</ele>
        <time>2012-05-19T13:22:59.000Z</time>
      </trkpt>
      <trkpt lat="44.40086" lon="4.17434">
        <ele>235</ele>
        <time>2012-05-19T13:23:04.000Z</time>
      </trkpt>
      <trkpt lat="44.40084" lon="4.17435">
        <ele>235</ele>
        <time>2012-05-19T13:23:05.000Z</time>
      </trkpt>
      <trkpt lat="44.40079" lon="4.17439">
        <ele>235</ele>
        <time>2012-05-19T13:23:08.000Z</time>
      </trkpt>
      <trkpt lat="44.40073" lon="4.1744">
        <ele>234.80000305176</ele>
        <time>2012-05-19T13:23:10.000Z</time>
      </trkpt>
      <trkpt lat="44.40062" lon="4.17447">
        <ele>234.80000305176</ele>
        <time>2012-05-19T13:23:15.000Z</time>
      </trkpt>
      <trkpt lat="44.4006" lon="4.17451">
        <ele>234.60000610352</ele>
        <time>2012-05-19T13:23:16.000Z</time>
      </trkpt>
      <trkpt lat="44.40055" lon="4.17459">
        <ele>234.39999389648</ele>
        <time>2012-05-19T13:23:19.000Z</time>
      </trkpt>
      <trkpt lat="44.40045" lon="4.17462">
        <ele>234.19999694824</ele>
        <time>2012-05-19T13:23:22.000Z</time>
      </trkpt>
      <trkpt lat="44.40042" lon="4.17463">
        <ele>234.19999694824</ele>
        <time>2012-05-19T13:23:23.000Z</time>
      </trkpt>
      <trkpt lat="44.40019" lon="4.17467">
        <ele>233.60000610352</ele>
        <time>2012-05-19T13:23:28.000Z</time>
      </trkpt>
      <trkpt lat="44.39997" lon="4.17471">
        <ele>233.19999694824</ele>
        <time>2012-05-19T13:23:32.000Z</time>
      </trkpt>
      <trkpt lat="44.39992" lon="4.17471">
        <ele>233.19999694824</ele>
        <time>2012-05-19T13:23:33.000Z</time>
      </trkpt>
      <trkpt lat="44.39987" lon="4.17473">
        <ele>233.39999389648</ele>
        <time>2012-05-19T13:23:34.000Z</time>
      </trkpt>
      <trkpt lat="44.39978" lon="4.17479">
        <ele>233.39999389648</ele>
        <time>2012-05-19T13:23:37.000Z</time>
      </trkpt>
      <trkpt lat="44.39974" lon="4.17483">
        <ele>233.60000610352</ele>
        <time>2012-05-19T13:23:38.000Z</time>
      </trkpt>
      <trkpt lat="44.39966" lon="4.1749">
        <ele>233.80000305176</ele>
        <time>2012-05-19T13:23:40.000Z</time>
      </trkpt>
      <trkpt lat="44.39959" lon="4.17496">
        <ele>234</ele>
        <time>2012-05-19T13:23:42.000Z</time>
      </trkpt>
      <trkpt lat="44.39953" lon="4.17496">
        <ele>234.19999694824</ele>
        <time>2012-05-19T13:23:44.000Z</time>
      </trkpt>
      <trkpt lat="44.3995" lon="4.17497">
        <ele>234.39999389648</ele>
        <time>2012-05-19T13:23:45.000Z</time>
      </trkpt>
      <trkpt lat="44.39932" lon="4.17497">
        <ele>235.19999694824</ele>
        <time>2012-05-19T13:23:51.000Z</time>
      </trkpt>
      <trkpt lat="44.39919" lon="4.17503">
        <ele>236</ele>
        <time>2012-05-19T13:23:55.000Z</time>
      </trkpt>
      <trkpt lat="44.39899" lon="4.17503">
        <ele>235</ele>
        <time>2012-05-19T13:24:00.000Z</time>
      </trkpt>
      <trkpt lat="44.39895" lon="4.17502">
        <ele>234.80000305176</ele>
        <time>2012-05-19T13:24:01.000Z</time>
      </trkpt>
      <trkpt lat="44.39878" lon="4.17505">
        <ele>233.60000610352</ele>
        <time>2012-05-19T13:24:07.000Z</time>
      </trkpt>
      <trkpt lat="44.39866" lon="4.17513">
        <ele>232.80000305176</ele>
        <time>2012-05-19T13:24:12.000Z</time>
      </trkpt>
      <trkpt lat="44.39857" lon="4.17528">
        <ele>232</ele>
        <time>2012-05-19T13:24:16.000Z</time>
      </trkpt>
      <trkpt lat="44.39848" lon="4.17547">
        <ele>231.19999694824</ele>
        <time>2012-05-19T13:24:22.000Z</time>
      </trkpt>
      <trkpt lat="44.39847" lon="4.1755">
        <ele>231</ele>
        <time>2012-05-19T13:24:25.000Z</time>
      </trkpt>
      <trkpt lat="44.39847" lon="4.1755">
        <ele>231</ele>
        <time>2012-05-19T13:24:28.000Z</time>
      </trkpt>
      <trkpt lat="44.39844" lon="4.17553">
        <ele>230.60000610352</ele>
        <time>2012-05-19T13:24:32.000Z</time>
      </trkpt>
      <trkpt lat="44.39843" lon="4.17555">
        <ele>230.60000610352</ele>
        <time>2012-05-19T13:24:33.000Z</time>
      </trkpt>
      <trkpt lat="44.39843" lon="4.17559">
        <ele>230.60000610352</ele>
        <time>2012-05-19T13:24:36.000Z</time>
      </trkpt>
      <trkpt lat="44.39845" lon="4.17561">
        <ele>230.60000610352</ele>
        <time>2012-05-19T13:24:38.000Z</time>
      </trkpt>
      <trkpt lat="44.39845" lon="4.17563">
        <ele>230.60000610352</ele>
        <time>2012-05-19T13:24:39.000Z</time>
      </trkpt>
      <trkpt lat="44.39847" lon="4.17577">
        <ele>230.60000610352</ele>
        <time>2012-05-19T13:24:44.000Z</time>
      </trkpt>
      <trkpt lat="44.39844" lon="4.17595">
        <ele>230</ele>
        <time>2012-05-19T13:24:49.000Z</time>
      </trkpt>
      <trkpt lat="44.3984" lon="4.17616">
        <ele>229.19999694824</ele>
        <time>2012-05-19T13:24:55.000Z</time>
      </trkpt>
      <trkpt lat="44.39835" lon="4.17642">
        <ele>228.39999389648</ele>
        <time>2012-05-19T13:25:00.000Z</time>
      </trkpt>
      <trkpt lat="44.39826" lon="4.17656">
        <ele>227.80000305176</ele>
        <time>2012-05-19T13:25:04.000Z</time>
      </trkpt>
      <trkpt lat="44.39821" lon="4.17668">
        <ele>227.60000610352</ele>
        <time>2012-05-19T13:25:07.000Z</time>
      </trkpt>
      <trkpt lat="44.39821" lon="4.17671">
        <ele>227.60000610352</ele>
        <time>2012-05-19T13:25:08.000Z</time>
      </trkpt>
      <trkpt lat="44.39816" lon="4.17678">
        <ele>227.39999389648</ele>
        <time>2012-05-19T13:25:11.000Z</time>
      </trkpt>
      <trkpt lat="44.39813" lon="4.17681">
        <ele>227.39999389648</ele>
        <time>2012-05-19T13:25:12.000Z</time>
      </trkpt>
      <trkpt lat="44.39802" lon="4.17696">
        <ele>226.80000305176</ele>
        <time>2012-05-19T13:25:16.000Z</time>
      </trkpt>
      <trkpt lat="44.39794" lon="4.17711">
        <ele>226.39999389648</ele>
        <time>2012-05-19T13:25:20.000Z</time>
      </trkpt>
      <trkpt lat="44.39787" lon="4.17719">
        <ele>225.80000305176</ele>
        <time>2012-05-19T13:25:25.000Z</time>
      </trkpt>
      <trkpt lat="44.39783" lon="4.1772">
        <ele>225.60000610352</ele>
        <time>2012-05-19T13:25:30.000Z</time>
      </trkpt>
      <trkpt lat="44.39777" lon="4.17724">
        <ele>225.19999694824</ele>
        <time>2012-05-19T13:25:34.000Z</time>
      </trkpt>
      <trkpt lat="44.39775" lon="4.17728">
        <ele>225.19999694824</ele>
        <time>2012-05-19T13:25:36.000Z</time>
      </trkpt>
      <trkpt lat="44.39771" lon="4.17738">
        <ele>224.60000610352</ele>
        <time>2012-05-19T13:25:40.000Z</time>
      </trkpt>
      <trkpt lat="44.39762" lon="4.17751">
        <ele>223.80000305176</ele>
        <time>2012-05-19T13:25:45.000Z</time>
      </trkpt>
      <trkpt lat="44.39748" lon="4.17751">
        <ele>223</ele>
        <time>2012-05-19T13:25:50.000Z</time>
      </trkpt>
      <trkpt lat="44.39741" lon="4.17753">
        <ele>222.80000305176</ele>
        <time>2012-05-19T13:25:53.000Z</time>
      </trkpt>
      <trkpt lat="44.3974" lon="4.17756">
        <ele>222.80000305176</ele>
        <time>2012-05-19T13:25:54.000Z</time>
      </trkpt>
      <trkpt lat="44.39733" lon="4.17774">
        <ele>222.19999694824</ele>
        <time>2012-05-19T13:25:59.000Z</time>
      </trkpt>
      <trkpt lat="44.39726" lon="4.17795">
        <ele>221.39999389648</ele>
        <time>2012-05-19T13:26:04.000Z</time>
      </trkpt>
      <trkpt lat="44.3972" lon="4.17812">
        <ele>220.60000610352</ele>
        <time>2012-05-19T13:26:09.000Z</time>
      </trkpt>
      <trkpt lat="44.39714" lon="4.17823">
        <ele>220</ele>
        <time>2012-05-19T13:26:13.000Z</time>
      </trkpt>
      <trkpt lat="44.39705" lon="4.17833">
        <ele>219.39999389648</ele>
        <time>2012-05-19T13:26:17.000Z</time>
      </trkpt>
      <trkpt lat="44.39697" lon="4.17843">
        <ele>218.60000610352</ele>
        <time>2012-05-19T13:26:21.000Z</time>
      </trkpt>
      <trkpt lat="44.39691" lon="4.17852">
        <ele>217.60000610352</ele>
        <time>2012-05-19T13:26:26.000Z</time>
      </trkpt>
      <trkpt lat="44.39688" lon="4.17861">
        <ele>217</ele>
        <time>2012-05-19T13:26:31.000Z</time>
      </trkpt>
      <trkpt lat="44.39686" lon="4.17864">
        <ele>216.60000610352</ele>
        <time>2012-05-19T13:26:32.000Z</time>
      </trkpt>
      <trkpt lat="44.39678" lon="4.17872">
        <ele>215.60000610352</ele>
        <time>2012-05-19T13:26:36.000Z</time>
      </trkpt>
      <trkpt lat="44.39666" lon="4.1788">
        <ele>214</ele>
        <time>2012-05-19T13:26:41.000Z</time>
      </trkpt>
      <trkpt lat="44.39658" lon="4.17884">
        <ele>213.60000610352</ele>
        <time>2012-05-19T13:26:46.000Z</time>
      </trkpt>
      <trkpt lat="44.39656" lon="4.17886">
        <ele>213.39999389648</ele>
        <time>2012-05-19T13:26:47.000Z</time>
      </trkpt>
      <trkpt lat="44.39656" lon="4.17897">
        <ele>212.39999389648</ele>
        <time>2012-05-19T13:26:51.000Z</time>
      </trkpt>
      <trkpt lat="44.39657" lon="4.17915">
        <ele>211</ele>
        <time>2012-05-19T13:26:56.000Z</time>
      </trkpt>
      <trkpt lat="44.39664" lon="4.17922">
        <ele>211</ele>
        <time>2012-05-19T13:27:00.000Z</time>
      </trkpt>
      <trkpt lat="44.39664" lon="4.17922">
        <ele>211</ele>
        <time>2012-05-19T13:27:01.000Z</time>
      </trkpt>
      <trkpt lat="44.39665" lon="4.17924">
        <ele>211</ele>
        <time>2012-05-19T13:27:04.000Z</time>
      </trkpt>
      <trkpt lat="44.39666" lon="4.17934">
        <ele>211.19999694824</ele>
        <time>2012-05-19T13:31:04.000Z</time>
      </trkpt>
      <trkpt lat="44.3967" lon="4.1794">
        <ele>211.60000610352</ele>
        <time>2012-05-19T13:31:07.000Z</time>
      </trkpt>
      <trkpt lat="44.39672" lon="4.17944">
        <ele>212</ele>
        <time>2012-05-19T13:31:09.000Z</time>
      </trkpt>
      <trkpt lat="44.39675" lon="4.1795">
        <ele>212.19999694824</ele>
        <time>2012-05-19T13:31:11.000Z</time>
      </trkpt>
      <trkpt lat="44.39676" lon="4.17953">
        <ele>212.60000610352</ele>
        <time>2012-05-19T13:31:13.000Z</time>
      </trkpt>
      <trkpt lat="44.39677" lon="4.17956">
        <ele>212.60000610352</ele>
        <time>2012-05-19T13:31:15.000Z</time>
      </trkpt>
      <trkpt lat="44.39678" lon="4.17963">
        <ele>212.80000305176</ele>
        <time>2012-05-19T13:31:19.000Z</time>
      </trkpt>
      <trkpt lat="44.39678" lon="4.17974">
        <ele>213</ele>
        <time>2012-05-19T13:31:24.000Z</time>
      </trkpt>
      <trkpt lat="44.39677" lon="4.17989">
        <ele>213.19999694824</ele>
        <time>2012-05-19T13:31:31.000Z</time>
      </trkpt>
      <trkpt lat="44.39682" lon="4.18004">
        <ele>214</ele>
        <time>2012-05-19T13:31:38.000Z</time>
      </trkpt>
      <trkpt lat="44.39689" lon="4.18017">
        <ele>215.19999694824</ele>
        <time>2012-05-19T13:31:45.000Z</time>
      </trkpt>
      <trkpt lat="44.39692" lon="4.18033">
        <ele>216</ele>
        <time>2012-05-19T13:31:52.000Z</time>
      </trkpt>
      <trkpt lat="44.39692" lon="4.18036">
        <ele>216.19999694824</ele>
        <time>2012-05-19T13:31:53.000Z</time>
      </trkpt>
      <trkpt lat="44.39694" lon="4.18046">
        <ele>216.60000610352</ele>
        <time>2012-05-19T13:31:57.000Z</time>
      </trkpt>
      <trkpt lat="44.39692" lon="4.18067">
        <ele>217.19999694824</ele>
        <time>2012-05-19T13:32:06.000Z</time>
      </trkpt>
      <trkpt lat="44.39692" lon="4.18082">
        <ele>217.60000610352</ele>
        <time>2012-05-19T13:32:12.000Z</time>
      </trkpt>
      <trkpt lat="44.39689" lon="4.18101">
        <ele>218.39999389648</ele>
        <time>2012-05-19T13:32:19.000Z</time>
      </trkpt>
      <trkpt lat="44.39687" lon="4.18116">
        <ele>219</ele>
        <time>2012-05-19T13:32:26.000Z</time>
      </trkpt>
      <trkpt lat="44.39683" lon="4.18132">
        <ele>219.80000305176</ele>
        <time>2012-05-19T13:32:34.000Z</time>
      </trkpt>
      <trkpt lat="44.3968" lon="4.18147">
        <ele>220.60000610352</ele>
        <time>2012-05-19T13:32:40.000Z</time>
      </trkpt>
      <trkpt lat="44.39679" lon="4.18151">
        <ele>220.80000305176</ele>
        <time>2012-05-19T13:32:41.000Z</time>
      </trkpt>
      <trkpt lat="44.39674" lon="4.18166">
        <ele>221.80000305176</ele>
        <time>2012-05-19T13:32:45.000Z</time>
      </trkpt>
      <trkpt lat="44.39672" lon="4.18168">
        <ele>221.80000305176</ele>
        <time>2012-05-19T13:32:46.000Z</time>
      </trkpt>
      <trkpt lat="44.39669" lon="4.18174">
        <ele>221.80000305176</ele>
        <time>2012-05-19T13:32:49.000Z</time>
      </trkpt>
      <trkpt lat="44.39665" lon="4.18193">
        <ele>221.19999694824</ele>
        <time>2012-05-19T13:32:53.000Z</time>
      </trkpt>
      <trkpt lat="44.39659" lon="4.1821">
        <ele>220.39999389648</ele>
        <time>2012-05-19T13:32:58.000Z</time>
      </trkpt>
      <trkpt lat="44.39653" lon="4.18233">
        <ele>219.60000610352</ele>
        <time>2012-05-19T13:33:03.000Z</time>
      </trkpt>
      <trkpt lat="44.39646" lon="4.18258">
        <ele>218.39999389648</ele>
        <time>2012-05-19T13:33:07.000Z</time>
      </trkpt>
      <trkpt lat="44.39644" lon="4.18265">
        <ele>218.19999694824</ele>
        <time>2012-05-19T13:33:08.000Z</time>
      </trkpt>
      <trkpt lat="44.39636" lon="4.18281">
        <ele>217.60000610352</ele>
        <time>2012-05-19T13:33:12.000Z</time>
      </trkpt>
      <trkpt lat="44.39632" lon="4.18299">
        <ele>217</ele>
        <time>2012-05-19T13:33:17.000Z</time>
      </trkpt>
      <trkpt lat="44.39632" lon="4.18327">
        <ele>216.60000610352</ele>
        <time>2012-05-19T13:33:22.000Z</time>
      </trkpt>
      <trkpt lat="44.39629" lon="4.18353">
        <ele>216.39999389648</ele>
        <time>2012-05-19T13:33:26.000Z</time>
      </trkpt>
      <trkpt lat="44.39628" lon="4.1836">
        <ele>216.39999389648</ele>
        <time>2012-05-19T13:33:27.000Z</time>
      </trkpt>
      <trkpt lat="44.39627" lon="4.18367">
        <ele>216.39999389648</ele>
        <time>2012-05-19T13:33:28.000Z</time>
      </trkpt>
      <trkpt lat="44.39623" lon="4.18387">
        <ele>216.60000610352</ele>
        <time>2012-05-19T13:33:31.000Z</time>
      </trkpt>
      <trkpt lat="44.3962" lon="4.18398">
        <ele>216.60000610352</ele>
        <time>2012-05-19T13:33:33.000Z</time>
      </trkpt>
      <trkpt lat="44.39618" lon="4.18403">
        <ele>216.60000610352</ele>
        <time>2012-05-19T13:33:34.000Z</time>
      </trkpt>
      <trkpt lat="44.39617" lon="4.18423">
        <ele>216.60000610352</ele>
        <time>2012-05-19T13:33:37.000Z</time>
      </trkpt>
      <trkpt lat="44.39613" lon="4.1844">
        <ele>216.19999694824</ele>
        <time>2012-05-19T13:33:41.000Z</time>
      </trkpt>
      <trkpt lat="44.39612" lon="4.18445">
        <ele>216.19999694824</ele>
        <time>2012-05-19T13:33:42.000Z</time>
      </trkpt>
      <trkpt lat="44.39608" lon="4.18464">
        <ele>215.60000610352</ele>
        <time>2012-05-19T13:33:47.000Z</time>
      </trkpt>
      <trkpt lat="44.39607" lon="4.18467">
        <ele>215.39999389648</ele>
        <time>2012-05-19T13:33:51.000Z</time>
      </trkpt>
      <trkpt lat="44.39607" lon="4.18471">
        <ele>215.39999389648</ele>
        <time>2012-05-19T13:33:56.000Z</time>
      </trkpt>
      <trkpt lat="44.39603" lon="4.18478">
        <ele>215</ele>
        <time>2012-05-19T13:36:04.000Z</time>
      </trkpt>
      <trkpt lat="44.39603" lon="4.18477">
        <ele>215</ele>
        <time>2012-05-19T13:36:06.000Z</time>
      </trkpt>
      <trkpt lat="44.39603" lon="4.18478">
        <ele>215</ele>
        <time>2012-05-19T13:37:09.000Z</time>
      </trkpt>
      <trkpt lat="44.39602" lon="4.18485">
        <ele>214.80000305176</ele>
        <time>2012-05-19T13:37:19.000Z</time>
      </trkpt>
      <trkpt lat="44.39602" lon="4.18493">
        <ele>214.60000610352</ele>
        <time>2012-05-19T13:37:26.000Z</time>
      </trkpt>
      <trkpt lat="44.39603" lon="4.18511">
        <ele>214.19999694824</ele>
        <time>2012-05-19T13:40:36.000Z</time>
      </trkpt>
      <trkpt lat="44.39604" lon="4.18512">
        <ele>214.19999694824</ele>
        <time>2012-05-19T13:40:43.000Z</time>
      </trkpt>
      <trkpt lat="44.39606" lon="4.18513">
        <ele>214.39999389648</ele>
        <time>2012-05-19T13:41:12.000Z</time>
      </trkpt>
      <trkpt lat="44.39601" lon="4.18506">
        <ele>214.19999694824</ele>
        <time>2012-05-19T13:42:43.000Z</time>
      </trkpt>
      <trkpt lat="44.39607" lon="4.18513">
        <ele>214.60000610352</ele>
        <time>2012-05-19T13:43:59.000Z</time>
      </trkpt>
      <trkpt lat="44.39603" lon="4.18511">
        <ele>214.19999694824</ele>
        <time>2012-05-19T13:46:00.000Z</time>
      </trkpt>
      <trkpt lat="44.39602" lon="4.18509">
        <ele>214.19999694824</ele>
        <time>2012-05-19T13:46:47.000Z</time>
      </trkpt>
      <trkpt lat="44.39604" lon="4.18512">
        <ele>214.39999389648</ele>
        <time>2012-05-19T13:47:24.000Z</time>
      </trkpt>
      <trkpt lat="44.39605" lon="4.18512">
        <ele>214.39999389648</ele>
        <time>2012-05-19T13:47:32.000Z</time>
      </trkpt>
      <trkpt lat="44.39607" lon="4.18511">
        <ele>214.60000610352</ele>
        <time>2012-05-19T13:47:37.000Z</time>
      </trkpt>
      <trkpt lat="44.39607" lon="4.18511">
        <ele>214.60000610352</ele>
        <time>2012-05-19T13:47:48.000Z</time>
      </trkpt>
      <trkpt lat="44.39609" lon="4.18515">
        <ele>214.60000610352</ele>
        <time>2012-05-19T13:48:06.000Z</time>
      </trkpt>
      <trkpt lat="44.39608" lon="4.18514">
        <ele>214.60000610352</ele>
        <time>2012-05-19T13:48:45.000Z</time>
      </trkpt>
      <trkpt lat="44.39607" lon="4.18515">
        <ele>214.60000610352</ele>
        <time>2012-05-19T13:49:25.000Z</time>
      </trkpt>
      <trkpt lat="44.39605" lon="4.18522">
        <ele>214.19999694824</ele>
        <time>2012-05-19T13:49:32.000Z</time>
      </trkpt>
      <trkpt lat="44.39606" lon="4.18527">
        <ele>214.19999694824</ele>
        <time>2012-05-19T13:49:38.000Z</time>
      </trkpt>
      <trkpt lat="44.396" lon="4.18535">
        <ele>213.60000610352</ele>
        <time>2012-05-19T13:49:42.000Z</time>
      </trkpt>
      <trkpt lat="44.39595" lon="4.18552">
        <ele>212.60000610352</ele>
        <time>2012-05-19T13:49:47.000Z</time>
      </trkpt>
      <trkpt lat="44.3959" lon="4.18577">
        <ele>211.19999694824</ele>
        <time>2012-05-19T13:49:54.000Z</time>
      </trkpt>
      <trkpt lat="44.39586" lon="4.18594">
        <ele>210.60000610352</ele>
        <time>2012-05-19T13:49:59.000Z</time>
      </trkpt>
      <trkpt lat="44.3958" lon="4.18613">
        <ele>210.60000610352</ele>
        <time>2012-05-19T13:50:05.000Z</time>
      </trkpt>
      <trkpt lat="44.39577" lon="4.18637">
        <ele>211</ele>
        <time>2012-05-19T13:50:12.000Z</time>
      </trkpt>
      <trkpt lat="44.39579" lon="4.18654">
        <ele>211.60000610352</ele>
        <time>2012-05-19T13:50:17.000Z</time>
      </trkpt>
      <trkpt lat="44.39578" lon="4.18657">
        <ele>211.60000610352</ele>
        <time>2012-05-19T13:50:18.000Z</time>
      </trkpt>
      <trkpt lat="44.39573" lon="4.18683">
        <ele>211.60000610352</ele>
        <time>2012-05-19T13:50:24.000Z</time>
      </trkpt>
      <trkpt lat="44.39572" lon="4.18687">
        <ele>211.39999389648</ele>
        <time>2012-05-19T13:50:25.000Z</time>
      </trkpt>
      <trkpt lat="44.39573" lon="4.18692">
        <ele>211.39999389648</ele>
        <time>2012-05-19T13:50:26.000Z</time>
      </trkpt>
      <trkpt lat="44.39577" lon="4.18708">
        <ele>211.39999389648</ele>
        <time>2012-05-19T13:50:30.000Z</time>
      </trkpt>
      <trkpt lat="44.39579" lon="4.18727">
        <ele>211.19999694824</ele>
        <time>2012-05-19T13:50:35.000Z</time>
      </trkpt>
      <trkpt lat="44.39576" lon="4.18731">
        <ele>211.19999694824</ele>
        <time>2012-05-19T13:50:37.000Z</time>
      </trkpt>
      <trkpt lat="44.39571" lon="4.18738">
        <ele>211</ele>
        <time>2012-05-19T13:50:40.000Z</time>
      </trkpt>
      <trkpt lat="44.39569" lon="4.1874">
        <ele>211</ele>
        <time>2012-05-19T13:50:41.000Z</time>
      </trkpt>
      <trkpt lat="44.39563" lon="4.18757">
        <ele>211</ele>
        <time>2012-05-19T13:50:47.000Z</time>
      </trkpt>
      <trkpt lat="44.39558" lon="4.18774">
        <ele>210.80000305176</ele>
        <time>2012-05-19T13:50:53.000Z</time>
      </trkpt>
      <trkpt lat="44.39552" lon="4.18789">
        <ele>210.80000305176</ele>
        <time>2012-05-19T13:51:00.000Z</time>
      </trkpt>
      <trkpt lat="44.39543" lon="4.18808">
        <ele>211</ele>
        <time>2012-05-19T13:51:08.000Z</time>
      </trkpt>
      <trkpt lat="44.39539" lon="4.18821">
        <ele>211.19999694824</ele>
        <time>2012-05-19T13:51:13.000Z</time>
      </trkpt>
      <trkpt lat="44.39538" lon="4.18824">
        <ele>211.19999694824</ele>
        <time>2012-05-19T13:51:15.000Z</time>
      </trkpt>
      <trkpt lat="44.39532" lon="4.18833">
        <ele>211.39999389648</ele>
        <time>2012-05-19T13:51:22.000Z</time>
      </trkpt>
      <trkpt lat="44.39528" lon="4.18841">
        <ele>211.60000610352</ele>
        <time>2012-05-19T13:51:28.000Z</time>
      </trkpt>
      <trkpt lat="44.39528" lon="4.18841">
        <ele>211.60000610352</ele>
        <time>2012-05-19T13:51:29.000Z</time>
      </trkpt>
      <trkpt lat="44.39525" lon="4.18851">
        <ele>211.60000610352</ele>
        <time>2012-05-19T13:55:19.000Z</time>
      </trkpt>
      <trkpt lat="44.39525" lon="4.18854">
        <ele>211.60000610352</ele>
        <time>2012-05-19T13:55:20.000Z</time>
      </trkpt>
      <trkpt lat="44.39521" lon="4.18877">
        <ele>211.80000305176</ele>
        <time>2012-05-19T13:55:26.000Z</time>
      </trkpt>
      <trkpt lat="44.39514" lon="4.18905">
        <ele>212</ele>
        <time>2012-05-19T13:55:32.000Z</time>
      </trkpt>
      <trkpt lat="44.39507" lon="4.18928">
        <ele>212.19999694824</ele>
        <time>2012-05-19T13:55:37.000Z</time>
      </trkpt>
      <trkpt lat="44.39505" lon="4.18944">
        <ele>212</ele>
        <time>2012-05-19T13:55:40.000Z</time>
      </trkpt>
      <trkpt lat="44.395" lon="4.18972">
        <ele>211.60000610352</ele>
        <time>2012-05-19T13:55:45.000Z</time>
      </trkpt>
      <trkpt lat="44.39497" lon="4.18993">
        <ele>210.80000305176</ele>
        <time>2012-05-19T13:55:48.000Z</time>
      </trkpt>
      <trkpt lat="44.39492" lon="4.19002">
        <ele>210</ele>
        <time>2012-05-19T13:55:50.000Z</time>
      </trkpt>
      <trkpt lat="44.3948" lon="4.19014">
        <ele>208.19999694824</ele>
        <time>2012-05-19T13:55:54.000Z</time>
      </trkpt>
      <trkpt lat="44.39465" lon="4.19033">
        <ele>206</ele>
        <time>2012-05-19T13:55:59.000Z</time>
      </trkpt>
      <trkpt lat="44.39448" lon="4.19038">
        <ele>204.19999694824</ele>
        <time>2012-05-19T13:56:03.000Z</time>
      </trkpt>
      <trkpt lat="44.39443" lon="4.19045">
        <ele>203.39999389648</ele>
        <time>2012-05-19T13:56:05.000Z</time>
      </trkpt>
      <trkpt lat="44.39441" lon="4.1905">
        <ele>203.19999694824</ele>
        <time>2012-05-19T13:56:06.000Z</time>
      </trkpt>
      <trkpt lat="44.39431" lon="4.19065">
        <ele>201.60000610352</ele>
        <time>2012-05-19T13:56:10.000Z</time>
      </trkpt>
      <trkpt lat="44.39429" lon="4.19069">
        <ele>201.39999389648</ele>
        <time>2012-05-19T13:56:11.000Z</time>
      </trkpt>
      <trkpt lat="44.39426" lon="4.19078">
        <ele>201</ele>
        <time>2012-05-19T13:56:14.000Z</time>
      </trkpt>
      <trkpt lat="44.39424" lon="4.19089">
        <ele>200.19999694824</ele>
        <time>2012-05-19T13:56:18.000Z</time>
      </trkpt>
      <trkpt lat="44.39418" lon="4.19105">
        <ele>198.60000610352</ele>
        <time>2012-05-19T13:56:22.000Z</time>
      </trkpt>
      <trkpt lat="44.39413" lon="4.19111">
        <ele>197.60000610352</ele>
        <time>2012-05-19T13:56:24.000Z</time>
      </trkpt>
      <trkpt lat="44.39397" lon="4.19131">
        <ele>195</ele>
        <time>2012-05-19T13:56:29.000Z</time>
      </trkpt>
      <trkpt lat="44.39394" lon="4.19135">
        <ele>194.60000610352</ele>
        <time>2012-05-19T13:56:30.000Z</time>
      </trkpt>
      <trkpt lat="44.3938" lon="4.19153">
        <ele>193</ele>
        <time>2012-05-19T13:56:36.000Z</time>
      </trkpt>
      <trkpt lat="44.39379" lon="4.19155">
        <ele>193</ele>
        <time>2012-05-19T13:56:41.000Z</time>
      </trkpt>
      <trkpt lat="44.39377" lon="4.19153">
        <ele>192.80000305176</ele>
        <time>2012-05-19T13:57:03.000Z</time>
      </trkpt>
      <trkpt lat="44.39377" lon="4.19152">
        <ele>192.80000305176</ele>
        <time>2012-05-19T13:57:34.000Z</time>
      </trkpt>
      <trkpt lat="44.39376" lon="4.19152">
        <ele>192.80000305176</ele>
        <time>2012-05-19T13:59:59.000Z</time>
      </trkpt>
      <trkpt lat="44.39377" lon="4.19153">
        <ele>192.80000305176</ele>
        <time>2012-05-19T14:00:37.000Z</time>
      </trkpt>
      <trkpt lat="44.39375" lon="4.19161">
        <ele>192.60000610352</ele>
        <time>2012-05-19T14:04:21.000Z</time>
      </trkpt>
      <trkpt lat="44.39367" lon="4.19175">
        <ele>192</ele>
        <time>2012-05-19T14:04:25.000Z</time>
      </trkpt>
      <trkpt lat="44.3936" lon="4.19196">
        <ele>191.80000305176</ele>
        <time>2012-05-19T14:04:31.000Z</time>
      </trkpt>
      <trkpt lat="44.39351" lon="4.19205">
        <ele>192</ele>
        <time>2012-05-19T14:04:36.000Z</time>
      </trkpt>
      <trkpt lat="44.39345" lon="4.1921">
        <ele>192.19999694824</ele>
        <time>2012-05-19T14:04:48.000Z</time>
      </trkpt>
      <trkpt lat="44.39336" lon="4.19222">
        <ele>192.80000305176</ele>
        <time>2012-05-19T14:04:54.000Z</time>
      </trkpt>
      <trkpt lat="44.39328" lon="4.19232">
        <ele>193.60000610352</ele>
        <time>2012-05-19T14:05:00.000Z</time>
      </trkpt>
      <trkpt lat="44.39319" lon="4.19241">
        <ele>194.39999389648</ele>
        <time>2012-05-19T14:05:06.000Z</time>
      </trkpt>
      <trkpt lat="44.39314" lon="4.19244">
        <ele>194.60000610352</ele>
        <time>2012-05-19T14:05:09.000Z</time>
      </trkpt>
      <trkpt lat="44.39309" lon="4.19249">
        <ele>195</ele>
        <time>2012-05-19T14:05:12.000Z</time>
      </trkpt>
      <trkpt lat="44.39299" lon="4.19259">
        <ele>195.39999389648</ele>
        <time>2012-05-19T14:05:19.000Z</time>
      </trkpt>
      <trkpt lat="44.39288" lon="4.1927">
        <ele>195.39999389648</ele>
        <time>2012-05-19T14:05:25.000Z</time>
      </trkpt>
      <trkpt lat="44.39285" lon="4.19274">
        <ele>195.39999389648</ele>
        <time>2012-05-19T14:05:27.000Z</time>
      </trkpt>
      <trkpt lat="44.3928" lon="4.19279">
        <ele>195.39999389648</ele>
        <time>2012-05-19T14:05:30.000Z</time>
      </trkpt>
      <trkpt lat="44.39266" lon="4.19294">
        <ele>195.60000610352</ele>
        <time>2012-05-19T14:05:37.000Z</time>
      </trkpt>
      <trkpt lat="44.39252" lon="4.19306">
        <ele>195.80000305176</ele>
        <time>2012-05-19T14:05:41.000Z</time>
      </trkpt>
      <trkpt lat="44.39239" lon="4.1932">
        <ele>194.39999389648</ele>
        <time>2012-05-19T14:05:45.000Z</time>
      </trkpt>
      <trkpt lat="44.3923" lon="4.19336">
        <ele>192.80000305176</ele>
        <time>2012-05-19T14:05:50.000Z</time>
      </trkpt>
      <trkpt lat="44.39221" lon="4.19355">
        <ele>190</ele>
        <time>2012-05-19T14:05:54.000Z</time>
      </trkpt>
      <trkpt lat="44.39205" lon="4.19377">
        <ele>186.60000610352</ele>
        <time>2012-05-19T14:05:58.000Z</time>
      </trkpt>
      <trkpt lat="44.39202" lon="4.19383">
        <ele>185.60000610352</ele>
        <time>2012-05-19T14:05:59.000Z</time>
      </trkpt>
      <trkpt lat="44.39194" lon="4.19395">
        <ele>184</ele>
        <time>2012-05-19T14:06:01.000Z</time>
      </trkpt>
      <trkpt lat="44.39183" lon="4.19413">
        <ele>181.39999389648</ele>
        <time>2012-05-19T14:06:04.000Z</time>
      </trkpt>
      <trkpt lat="44.39179" lon="4.19418">
        <ele>180.80000305176</ele>
        <time>2012-05-19T14:06:05.000Z</time>
      </trkpt>
      <trkpt lat="44.39171" lon="4.19431">
        <ele>179.80000305176</ele>
        <time>2012-05-19T14:06:08.000Z</time>
      </trkpt>
      <trkpt lat="44.39167" lon="4.1944">
        <ele>179.19999694824</ele>
        <time>2012-05-19T14:06:11.000Z</time>
      </trkpt>
      <trkpt lat="44.39163" lon="4.19444">
        <ele>178.80000305176</ele>
        <time>2012-05-19T14:06:13.000Z</time>
      </trkpt>
      <trkpt lat="44.39151" lon="4.19459">
        <ele>177.60000610352</ele>
        <time>2012-05-19T14:06:20.000Z</time>
      </trkpt>
      <trkpt lat="44.39139" lon="4.19477">
        <ele>176.80000305176</ele>
        <time>2012-05-19T14:06:26.000Z</time>
      </trkpt>
      <trkpt lat="44.39126" lon="4.19502">
        <ele>176</ele>
        <time>2012-05-19T14:06:32.000Z</time>
      </trkpt>
      <trkpt lat="44.39119" lon="4.19529">
        <ele>176.19999694824</ele>
        <time>2012-05-19T14:06:37.000Z</time>
      </trkpt>
      <trkpt lat="44.39111" lon="4.19553">
        <ele>176.80000305176</ele>
        <time>2012-05-19T14:06:43.000Z</time>
      </trkpt>
      <trkpt lat="44.3911" lon="4.19558">
        <ele>176.80000305176</ele>
        <time>2012-05-19T14:06:44.000Z</time>
      </trkpt>
      <trkpt lat="44.39104" lon="4.19579">
        <ele>177.60000610352</ele>
        <time>2012-05-19T14:06:49.000Z</time>
      </trkpt>
      <trkpt lat="44.39091" lon="4.19602">
        <ele>179.39999389648</ele>
        <time>2012-05-19T14:06:55.000Z</time>
      </trkpt>
      <trkpt lat="44.39082" lon="4.19621">
        <ele>180.80000305176</ele>
        <time>2012-05-19T14:07:00.000Z</time>
      </trkpt>
      <trkpt lat="44.39076" lon="4.19648">
        <ele>181.60000610352</ele>
        <time>2012-05-19T14:07:06.000Z</time>
      </trkpt>
      <trkpt lat="44.39073" lon="4.1966">
        <ele>182</ele>
        <time>2012-05-19T14:07:09.000Z</time>
      </trkpt>
      <trkpt lat="44.39066" lon="4.19681">
        <ele>182.19999694824</ele>
        <time>2012-05-19T14:07:15.000Z</time>
      </trkpt>
      <trkpt lat="44.39063" lon="4.19708">
        <ele>182.60000610352</ele>
        <time>2012-05-19T14:07:21.000Z</time>
      </trkpt>
      <trkpt lat="44.39059" lon="4.19738">
        <ele>182.80000305176</ele>
        <time>2012-05-19T14:07:26.000Z</time>
      </trkpt>
      <trkpt lat="44.39056" lon="4.19744">
        <ele>183</ele>
        <time>2012-05-19T14:07:27.000Z</time>
      </trkpt>
      <trkpt lat="44.39042" lon="4.19765">
        <ele>182.19999694824</ele>
        <time>2012-05-19T14:07:31.000Z</time>
      </trkpt>
      <trkpt lat="44.39035" lon="4.19776">
        <ele>181.60000610352</ele>
        <time>2012-05-19T14:07:33.000Z</time>
      </trkpt>
      <trkpt lat="44.3902" lon="4.198">
        <ele>180.60000610352</ele>
        <time>2012-05-19T14:07:37.000Z</time>
      </trkpt>
      <trkpt lat="44.39016" lon="4.19806">
        <ele>180.19999694824</ele>
        <time>2012-05-19T14:07:38.000Z</time>
      </trkpt>
      <trkpt lat="44.38997" lon="4.19828">
        <ele>179</ele>
        <time>2012-05-19T14:07:42.000Z</time>
      </trkpt>
      <trkpt lat="44.38989" lon="4.19837">
        <ele>178</ele>
        <time>2012-05-19T14:07:44.000Z</time>
      </trkpt>
      <trkpt lat="44.38975" lon="4.19853">
        <ele>176.39999389648</ele>
        <time>2012-05-19T14:07:47.000Z</time>
      </trkpt>
      <trkpt lat="44.38969" lon="4.19867">
        <ele>175.60000610352</ele>
        <time>2012-05-19T14:07:49.000Z</time>
      </trkpt>
      <trkpt lat="44.38964" lon="4.19882">
        <ele>174.80000305176</ele>
        <time>2012-05-19T14:07:51.000Z</time>
      </trkpt>
      <trkpt lat="44.38954" lon="4.19897">
        <ele>174.19999694824</ele>
        <time>2012-05-19T14:07:54.000Z</time>
      </trkpt>
      <trkpt lat="44.38947" lon="4.19907">
        <ele>173.80000305176</ele>
        <time>2012-05-19T14:07:56.000Z</time>
      </trkpt>
      <trkpt lat="44.38929" lon="4.19929">
        <ele>173</ele>
        <time>2012-05-19T14:08:00.000Z</time>
      </trkpt>
      <trkpt lat="44.38914" lon="4.19943">
        <ele>172.39999389648</ele>
        <time>2012-05-19T14:08:03.000Z</time>
      </trkpt>
      <trkpt lat="44.38906" lon="4.19948">
        <ele>171.60000610352</ele>
        <time>2012-05-19T14:08:05.000Z</time>
      </trkpt>
      <trkpt lat="44.38903" lon="4.19953">
        <ele>171.39999389648</ele>
        <time>2012-05-19T14:08:07.000Z</time>
      </trkpt>
      <trkpt lat="44.38901" lon="4.19956">
        <ele>171.19999694824</ele>
        <time>2012-05-19T14:08:08.000Z</time>
      </trkpt>
      <trkpt lat="44.38894" lon="4.19964">
        <ele>170.39999389648</ele>
        <time>2012-05-19T14:08:12.000Z</time>
      </trkpt>
      <trkpt lat="44.38892" lon="4.19966">
        <ele>170.19999694824</ele>
        <time>2012-05-19T14:08:13.000Z</time>
      </trkpt>
      <trkpt lat="44.38881" lon="4.19979">
        <ele>169.19999694824</ele>
        <time>2012-05-19T14:08:17.000Z</time>
      </trkpt>
      <trkpt lat="44.38866" lon="4.19995">
        <ele>167.80000305176</ele>
        <time>2012-05-19T14:08:21.000Z</time>
      </trkpt>
      <trkpt lat="44.38859" lon="4.20003">
        <ele>167</ele>
        <time>2012-05-19T14:08:23.000Z</time>
      </trkpt>
      <trkpt lat="44.38844" lon="4.2002">
        <ele>165.80000305176</ele>
        <time>2012-05-19T14:08:27.000Z</time>
      </trkpt>
      <trkpt lat="44.38837" lon="4.20031">
        <ele>165.19999694824</ele>
        <time>2012-05-19T14:08:29.000Z</time>
      </trkpt>
      <trkpt lat="44.38828" lon="4.20043">
        <ele>164.80000305176</ele>
        <time>2012-05-19T14:08:31.000Z</time>
      </trkpt>
      <trkpt lat="44.38812" lon="4.20059">
        <ele>164</ele>
        <time>2012-05-19T14:08:34.000Z</time>
      </trkpt>
      <trkpt lat="44.38806" lon="4.20063">
        <ele>163.60000610352</ele>
        <time>2012-05-19T14:08:35.000Z</time>
      </trkpt>
      <trkpt lat="44.38788" lon="4.20071">
        <ele>162.60000610352</ele>
        <time>2012-05-19T14:08:38.000Z</time>
      </trkpt>
      <trkpt lat="44.38782" lon="4.20072">
        <ele>162.19999694824</ele>
        <time>2012-05-19T14:08:39.000Z</time>
      </trkpt>
      <trkpt lat="44.38777" lon="4.20073">
        <ele>161.80000305176</ele>
        <time>2012-05-19T14:08:40.000Z</time>
      </trkpt>
      <trkpt lat="44.38767" lon="4.20074">
        <ele>161.19999694824</ele>
        <time>2012-05-19T14:08:42.000Z</time>
      </trkpt>
      <trkpt lat="44.38758" lon="4.20079">
        <ele>160.60000610352</ele>
        <time>2012-05-19T14:08:44.000Z</time>
      </trkpt>
      <trkpt lat="44.38749" lon="4.20082">
        <ele>160</ele>
        <time>2012-05-19T14:08:46.000Z</time>
      </trkpt>
      <trkpt lat="44.38744" lon="4.20083">
        <ele>159.80000305176</ele>
        <time>2012-05-19T14:08:47.000Z</time>
      </trkpt>
      <trkpt lat="44.38741" lon="4.20083">
        <ele>159.80000305176</ele>
        <time>2012-05-19T14:08:48.000Z</time>
      </trkpt>
      <trkpt lat="44.38728" lon="4.20085">
        <ele>159.39999389648</ele>
        <time>2012-05-19T14:08:52.000Z</time>
      </trkpt>
      <trkpt lat="44.38718" lon="4.20088">
        <ele>159.19999694824</ele>
        <time>2012-05-19T14:08:55.000Z</time>
      </trkpt>
      <trkpt lat="44.38705" lon="4.20091">
        <ele>158.80000305176</ele>
        <time>2012-05-19T14:08:59.000Z</time>
      </trkpt>
      <trkpt lat="44.38689" lon="4.20087">
        <ele>158.60000610352</ele>
        <time>2012-05-19T14:09:05.000Z</time>
      </trkpt>
      <trkpt lat="44.38678" lon="4.20088">
        <ele>158.19999694824</ele>
        <time>2012-05-19T14:09:10.000Z</time>
      </trkpt>
      <trkpt lat="44.38661" lon="4.20088">
        <ele>157.60000610352</ele>
        <time>2012-05-19T14:09:16.000Z</time>
      </trkpt>
      <trkpt lat="44.3864" lon="4.20088">
        <ele>156.60000610352</ele>
        <time>2012-05-19T14:09:23.000Z</time>
      </trkpt>
      <trkpt lat="44.38637" lon="4.20087">
        <ele>156.60000610352</ele>
        <time>2012-05-19T14:09:24.000Z</time>
      </trkpt>
      <trkpt lat="44.38617" lon="4.20081">
        <ele>155.80000305176</ele>
        <time>2012-05-19T14:09:30.000Z</time>
      </trkpt>
      <trkpt lat="44.386" lon="4.20071">
        <ele>155.39999389648</ele>
        <time>2012-05-19T14:09:35.000Z</time>
      </trkpt>
      <trkpt lat="44.38596" lon="4.20069">
        <ele>155.19999694824</ele>
        <time>2012-05-19T14:09:36.000Z</time>
      </trkpt>
      <trkpt lat="44.38577" lon="4.20065">
        <ele>154.60000610352</ele>
        <time>2012-05-19T14:09:40.000Z</time>
      </trkpt>
      <trkpt lat="44.38562" lon="4.20063">
        <ele>154.19999694824</ele>
        <time>2012-05-19T14:09:43.000Z</time>
      </trkpt>
      <trkpt lat="44.38541" lon="4.20061">
        <ele>153.39999389648</ele>
        <time>2012-05-19T14:09:47.000Z</time>
      </trkpt>
      <trkpt lat="44.38526" lon="4.2006">
        <ele>152.80000305176</ele>
        <time>2012-05-19T14:09:50.000Z</time>
      </trkpt>
      <trkpt lat="44.38505" lon="4.20058">
        <ele>152</ele>
        <time>2012-05-19T14:09:55.000Z</time>
      </trkpt>
      <trkpt lat="44.38501" lon="4.20058">
        <ele>152</ele>
        <time>2012-05-19T14:09:56.000Z</time>
      </trkpt>
      <trkpt lat="44.38481" lon="4.20058">
        <ele>151.19999694824</ele>
        <time>2012-05-19T14:10:00.000Z</time>
      </trkpt>
      <trkpt lat="44.38476" lon="4.20058">
        <ele>151.19999694824</ele>
        <time>2012-05-19T14:10:01.000Z</time>
      </trkpt>
      <trkpt lat="44.38465" lon="4.20057">
        <ele>150.80000305176</ele>
        <time>2012-05-19T14:10:03.000Z</time>
      </trkpt>
      <trkpt lat="44.38451" lon="4.20055">
        <ele>150.39999389648</ele>
        <time>2012-05-19T14:10:06.000Z</time>
      </trkpt>
      <trkpt lat="44.38446" lon="4.20054">
        <ele>150.19999694824</ele>
        <time>2012-05-19T14:10:07.000Z</time>
      </trkpt>
      <trkpt lat="44.38424" lon="4.2005">
        <ele>149.60000610352</ele>
        <time>2012-05-19T14:10:11.000Z</time>
      </trkpt>
      <trkpt lat="44.38415" lon="4.20047">
        <ele>149.39999389648</ele>
        <time>2012-05-19T14:10:13.000Z</time>
      </trkpt>
      <trkpt lat="44.3841" lon="4.20047">
        <ele>149.19999694824</ele>
        <time>2012-05-19T14:10:14.000Z</time>
      </trkpt>
      <trkpt lat="44.38402" lon="4.20048">
        <ele>148.80000305176</ele>
        <time>2012-05-19T14:10:16.000Z</time>
      </trkpt>
      <trkpt lat="44.38389" lon="4.2005">
        <ele>148.39999389648</ele>
        <time>2012-05-19T14:10:19.000Z</time>
      </trkpt>
      <trkpt lat="44.38385" lon="4.20052">
        <ele>148.19999694824</ele>
        <time>2012-05-19T14:10:20.000Z</time>
      </trkpt>
      <trkpt lat="44.38381" lon="4.20052">
        <ele>148</ele>
        <time>2012-05-19T14:10:21.000Z</time>
      </trkpt>
      <trkpt lat="44.38369" lon="4.20049">
        <ele>147.60000610352</ele>
        <time>2012-05-19T14:10:24.000Z</time>
      </trkpt>
      <trkpt lat="44.38364" lon="4.20048">
        <ele>147.39999389648</ele>
        <time>2012-05-19T14:10:25.000Z</time>
      </trkpt>
      <trkpt lat="44.38353" lon="4.20047">
        <ele>147</ele>
        <time>2012-05-19T14:10:28.000Z</time>
      </trkpt>
      <trkpt lat="44.38348" lon="4.20047">
        <ele>146.80000305176</ele>
        <time>2012-05-19T14:10:29.000Z</time>
      </trkpt>
      <trkpt lat="44.38326" lon="4.20045">
        <ele>146.39999389648</ele>
        <time>2012-05-19T14:10:34.000Z</time>
      </trkpt>
      <trkpt lat="44.38321" lon="4.20046">
        <ele>146.39999389648</ele>
        <time>2012-05-19T14:10:35.000Z</time>
      </trkpt>
      <trkpt lat="44.38313" lon="4.20051">
        <ele>146.19999694824</ele>
        <time>2012-05-19T14:10:37.000Z</time>
      </trkpt>
      <trkpt lat="44.38309" lon="4.20053">
        <ele>146.19999694824</ele>
        <time>2012-05-19T14:10:38.000Z</time>
      </trkpt>
      <trkpt lat="44.38298" lon="4.20052">
        <ele>146.19999694824</ele>
        <time>2012-05-19T14:10:40.000Z</time>
      </trkpt>
      <trkpt lat="44.38289" lon="4.20049">
        <ele>146.39999389648</ele>
        <time>2012-05-19T14:10:42.000Z</time>
      </trkpt>
      <trkpt lat="44.38284" lon="4.20048">
        <ele>146.60000610352</ele>
        <time>2012-05-19T14:10:44.000Z</time>
      </trkpt>
      <trkpt lat="44.38275" lon="4.20046">
        <ele>146.60000610352</ele>
        <time>2012-05-19T14:10:49.000Z</time>
      </trkpt>
      <trkpt lat="44.38266" lon="4.20045">
        <ele>146.80000305176</ele>
        <time>2012-05-19T14:10:56.000Z</time>
      </trkpt>
      <trkpt lat="44.38254" lon="4.20046">
        <ele>146.80000305176</ele>
        <time>2012-05-19T14:11:02.000Z</time>
      </trkpt>
      <trkpt lat="44.38235" lon="4.20039">
        <ele>147.19999694824</ele>
        <time>2012-05-19T14:11:10.000Z</time>
      </trkpt>
      <trkpt lat="44.38222" lon="4.20034">
        <ele>147.39999389648</ele>
        <time>2012-05-19T14:11:15.000Z</time>
      </trkpt>
      <trkpt lat="44.38216" lon="4.20016">
        <ele>148</ele>
        <time>2012-05-19T14:11:20.000Z</time>
      </trkpt>
      <trkpt lat="44.38206" lon="4.20004">
        <ele>148.39999389648</ele>
        <time>2012-05-19T14:11:25.000Z</time>
      </trkpt>
      <trkpt lat="44.3819" lon="4.1999">
        <ele>148.19999694824</ele>
        <time>2012-05-19T14:11:30.000Z</time>
      </trkpt>
      <trkpt lat="44.38184" lon="4.19985">
        <ele>148.19999694824</ele>
        <time>2012-05-19T14:11:32.000Z</time>
      </trkpt>
      <trkpt lat="44.38169" lon="4.19971">
        <ele>147.60000610352</ele>
        <time>2012-05-19T14:11:36.000Z</time>
      </trkpt>
      <trkpt lat="44.38164" lon="4.19967">
        <ele>147.60000610352</ele>
        <time>2012-05-19T14:11:37.000Z</time>
      </trkpt>
      <trkpt lat="44.38151" lon="4.19955">
        <ele>146.80000305176</ele>
        <time>2012-05-19T14:11:40.000Z</time>
      </trkpt>
      <trkpt lat="44.38142" lon="4.19948">
        <ele>146.19999694824</ele>
        <time>2012-05-19T14:11:42.000Z</time>
      </trkpt>
      <trkpt lat="44.38138" lon="4.19947">
        <ele>146.19999694824</ele>
        <time>2012-05-19T14:11:43.000Z</time>
      </trkpt>
      <trkpt lat="44.38124" lon="4.19945">
        <ele>145.39999389648</ele>
        <time>2012-05-19T14:11:46.000Z</time>
      </trkpt>
      <trkpt lat="44.38109" lon="4.19944">
        <ele>144.80000305176</ele>
        <time>2012-05-19T14:11:49.000Z</time>
      </trkpt>
      <trkpt lat="44.38104" lon="4.19944">
        <ele>144.60000610352</ele>
        <time>2012-05-19T14:11:50.000Z</time>
      </trkpt>
      <trkpt lat="44.38093" lon="4.19942">
        <ele>144</ele>
        <time>2012-05-19T14:11:53.000Z</time>
      </trkpt>
      <trkpt lat="44.38085" lon="4.19939">
        <ele>143.60000610352</ele>
        <time>2012-05-19T14:11:57.000Z</time>
      </trkpt>
      <trkpt lat="44.38077" lon="4.1994">
        <ele>143.19999694824</ele>
        <time>2012-05-19T14:12:02.000Z</time>
      </trkpt>
      <trkpt lat="44.38059" lon="4.19943">
        <ele>142.39999389648</ele>
        <time>2012-05-19T14:12:08.000Z</time>
      </trkpt>
      <trkpt lat="44.3805" lon="4.19953">
        <ele>142.19999694824</ele>
        <time>2012-05-19T14:12:12.000Z</time>
      </trkpt>
      <trkpt lat="44.38036" lon="4.19959">
        <ele>141.39999389648</ele>
        <time>2012-05-19T14:12:17.000Z</time>
      </trkpt>
      <trkpt lat="44.38021" lon="4.19965">
        <ele>140.60000610352</ele>
        <time>2012-05-19T14:12:22.000Z</time>
      </trkpt>
      <trkpt lat="44.38007" lon="4.19964">
        <ele>139.80000305176</ele>
        <time>2012-05-19T14:12:26.000Z</time>
      </trkpt>
      <trkpt lat="44.37985" lon="4.19968">
        <ele>138.60000610352</ele>
        <time>2012-05-19T14:12:31.000Z</time>
      </trkpt>
      <trkpt lat="44.3798" lon="4.19969">
        <ele>138.19999694824</ele>
        <time>2012-05-19T14:12:32.000Z</time>
      </trkpt>
      <trkpt lat="44.37975" lon="4.19969">
        <ele>138</ele>
        <time>2012-05-19T14:12:33.000Z</time>
      </trkpt>
      <trkpt lat="44.3796" lon="4.19969">
        <ele>137.19999694824</ele>
        <time>2012-05-19T14:12:36.000Z</time>
      </trkpt>
      <trkpt lat="44.37955" lon="4.1997">
        <ele>136.80000305176</ele>
        <time>2012-05-19T14:12:37.000Z</time>
      </trkpt>
      <trkpt lat="44.37939" lon="4.19971">
        <ele>136</ele>
        <time>2012-05-19T14:12:41.000Z</time>
      </trkpt>
      <trkpt lat="44.37937" lon="4.1997">
        <ele>135.80000305176</ele>
        <time>2012-05-19T14:12:42.000Z</time>
      </trkpt>
      <trkpt lat="44.37928" lon="4.19974">
        <ele>135.39999389648</ele>
        <time>2012-05-19T14:12:45.000Z</time>
      </trkpt>
      <trkpt lat="44.37924" lon="4.19976">
        <ele>135.19999694824</ele>
        <time>2012-05-19T14:12:46.000Z</time>
      </trkpt>
      <trkpt lat="44.37907" lon="4.19984">
        <ele>134.80000305176</ele>
        <time>2012-05-19T14:12:50.000Z</time>
      </trkpt>
      <trkpt lat="44.37896" lon="4.19987">
        <ele>134.60000610352</ele>
        <time>2012-05-19T14:12:52.000Z</time>
      </trkpt>
      <trkpt lat="44.37877" lon="4.19989">
        <ele>134.60000610352</ele>
        <time>2012-05-19T14:12:55.000Z</time>
      </trkpt>
      <trkpt lat="44.37863" lon="4.19992">
        <ele>134.39999389648</ele>
        <time>2012-05-19T14:12:57.000Z</time>
      </trkpt>
      <trkpt lat="44.37848" lon="4.19994">
        <ele>134.19999694824</ele>
        <time>2012-05-19T14:12:59.000Z</time>
      </trkpt>
      <trkpt lat="44.3784" lon="4.19993">
        <ele>134.19999694824</ele>
        <time>2012-05-19T14:13:00.000Z</time>
      </trkpt>
      <trkpt lat="44.37817" lon="4.19988">
        <ele>134</ele>
        <time>2012-05-19T14:13:03.000Z</time>
      </trkpt>
      <trkpt lat="44.37809" lon="4.19987">
        <ele>133.80000305176</ele>
        <time>2012-05-19T14:13:04.000Z</time>
      </trkpt>
      <trkpt lat="44.37793" lon="4.19985">
        <ele>133.60000610352</ele>
        <time>2012-05-19T14:13:06.000Z</time>
      </trkpt>
      <trkpt lat="44.37786" lon="4.19986">
        <ele>133.60000610352</ele>
        <time>2012-05-19T14:13:07.000Z</time>
      </trkpt>
      <trkpt lat="44.37771" lon="4.19987">
        <ele>133.39999389648</ele>
        <time>2012-05-19T14:13:09.000Z</time>
      </trkpt>
      <trkpt lat="44.37755" lon="4.19988">
        <ele>133.19999694824</ele>
        <time>2012-05-19T14:13:11.000Z</time>
      </trkpt>
      <trkpt lat="44.3773" lon="4.19989">
        <ele>133.19999694824</ele>
        <time>2012-05-19T14:13:14.000Z</time>
      </trkpt>
      <trkpt lat="44.37709" lon="4.19987">
        <ele>133.39999389648</ele>
        <time>2012-05-19T14:13:17.000Z</time>
      </trkpt>
      <trkpt lat="44.37704" lon="4.19985">
        <ele>133.39999389648</ele>
        <time>2012-05-19T14:13:18.000Z</time>
      </trkpt>
      <trkpt lat="44.37699" lon="4.19984">
        <ele>133.39999389648</ele>
        <time>2012-05-19T14:13:19.000Z</time>
      </trkpt>
      <trkpt lat="44.37692" lon="4.19984">
        <ele>133.39999389648</ele>
        <time>2012-05-19T14:13:21.000Z</time>
      </trkpt>
      <trkpt lat="44.37673" lon="4.19983">
        <ele>133.39999389648</ele>
        <time>2012-05-19T14:13:25.000Z</time>
      </trkpt>
      <trkpt lat="44.37658" lon="4.19988">
        <ele>133.19999694824</ele>
        <time>2012-05-19T14:13:29.000Z</time>
      </trkpt>
      <trkpt lat="44.37651" lon="4.19992">
        <ele>133</ele>
        <time>2012-05-19T14:13:31.000Z</time>
      </trkpt>
      <trkpt lat="44.3764" lon="4.19996">
        <ele>132.60000610352</ele>
        <time>2012-05-19T14:13:34.000Z</time>
      </trkpt>
      <trkpt lat="44.37627" lon="4.20007">
        <ele>132</ele>
        <time>2012-05-19T14:13:39.000Z</time>
      </trkpt>
      <trkpt lat="44.37617" lon="4.20018">
        <ele>131.60000610352</ele>
        <time>2012-05-19T14:13:44.000Z</time>
      </trkpt>
      <trkpt lat="44.37612" lon="4.20021">
        <ele>131.39999389648</ele>
        <time>2012-05-19T14:13:46.000Z</time>
      </trkpt>
      <trkpt lat="44.37602" lon="4.20024">
        <ele>131</ele>
        <time>2012-05-19T14:13:49.000Z</time>
      </trkpt>
      <trkpt lat="44.37586" lon="4.2003">
        <ele>130.39999389648</ele>
        <time>2012-05-19T14:13:53.000Z</time>
      </trkpt>
      <trkpt lat="44.37582" lon="4.2003">
        <ele>130.39999389648</ele>
        <time>2012-05-19T14:13:54.000Z</time>
      </trkpt>
      <trkpt lat="44.37562" lon="4.20029">
        <ele>131.19999694824</ele>
        <time>2012-05-19T14:13:59.000Z</time>
      </trkpt>
      <trkpt lat="44.37545" lon="4.20028">
        <ele>132</ele>
        <time>2012-05-19T14:14:03.000Z</time>
      </trkpt>
      <trkpt lat="44.37527" lon="4.2003">
        <ele>132.80000305176</ele>
        <time>2012-05-19T14:14:07.000Z</time>
      </trkpt>
      <trkpt lat="44.37523" lon="4.2003">
        <ele>133</ele>
        <time>2012-05-19T14:14:08.000Z</time>
      </trkpt>
      <trkpt lat="44.3752" lon="4.20032">
        <ele>133</ele>
        <time>2012-05-19T14:14:09.000Z</time>
      </trkpt>
      <trkpt lat="44.3751" lon="4.20035">
        <ele>133.39999389648</ele>
        <time>2012-05-19T14:14:13.000Z</time>
      </trkpt>
      <trkpt lat="44.37507" lon="4.20033">
        <ele>133.60000610352</ele>
        <time>2012-05-19T14:14:17.000Z</time>
      </trkpt>
      <trkpt lat="44.37506" lon="4.20035">
        <ele>133.39999389648</ele>
        <time>2012-05-19T14:14:26.000Z</time>
      </trkpt>
      <trkpt lat="44.37507" lon="4.20043">
        <ele>133.19999694824</ele>
        <time>2012-05-19T14:14:32.000Z</time>
      </trkpt>
      <trkpt lat="44.37499" lon="4.20066">
        <ele>132.60000610352</ele>
        <time>2012-05-19T14:14:37.000Z</time>
      </trkpt>
      <trkpt lat="44.37498" lon="4.20086">
        <ele>131.80000305176</ele>
        <time>2012-05-19T14:14:41.000Z</time>
      </trkpt>
      <trkpt lat="44.375" lon="4.20107">
        <ele>131.19999694824</ele>
        <time>2012-05-19T14:14:47.000Z</time>
      </trkpt>
      <trkpt lat="44.37495" lon="4.20117">
        <ele>130.60000610352</ele>
        <time>2012-05-19T14:14:51.000Z</time>
      </trkpt>
      <trkpt lat="44.37493" lon="4.20118">
        <ele>130.60000610352</ele>
        <time>2012-05-19T14:14:52.000Z</time>
      </trkpt>
      <trkpt lat="44.37479" lon="4.20121">
        <ele>130.19999694824</ele>
        <time>2012-05-19T14:14:58.000Z</time>
      </trkpt>
      <trkpt lat="44.37468" lon="4.20134">
        <ele>129.80000305176</ele>
        <time>2012-05-19T14:15:03.000Z</time>
      </trkpt>
      <trkpt lat="44.37453" lon="4.20143">
        <ele>129.39999389648</ele>
        <time>2012-05-19T14:15:07.000Z</time>
      </trkpt>
      <trkpt lat="44.37437" lon="4.20146">
        <ele>129.19999694824</ele>
        <time>2012-05-19T14:15:12.000Z</time>
      </trkpt>
      <trkpt lat="44.37421" lon="4.20155">
        <ele>129</ele>
        <time>2012-05-19T14:15:16.000Z</time>
      </trkpt>
      <trkpt lat="44.37407" lon="4.2017">
        <ele>129</ele>
        <time>2012-05-19T14:15:20.000Z</time>
      </trkpt>
      <trkpt lat="44.37404" lon="4.20174">
        <ele>128.80000305176</ele>
        <time>2012-05-19T14:15:21.000Z</time>
      </trkpt>
      <trkpt lat="44.37398" lon="4.20181">
        <ele>128.60000610352</ele>
        <time>2012-05-19T14:15:23.000Z</time>
      </trkpt>
      <trkpt lat="44.37392" lon="4.20188">
        <ele>128.39999389648</ele>
        <time>2012-05-19T14:15:25.000Z</time>
      </trkpt>
      <trkpt lat="44.37385" lon="4.20202">
        <ele>128.19999694824</ele>
        <time>2012-05-19T14:15:28.000Z</time>
      </trkpt>
      <trkpt lat="44.37382" lon="4.20207">
        <ele>128</ele>
        <time>2012-05-19T14:15:29.000Z</time>
      </trkpt>
      <trkpt lat="44.37378" lon="4.20219">
        <ele>127.80000305176</ele>
        <time>2012-05-19T14:15:31.000Z</time>
      </trkpt>
      <trkpt lat="44.37365" lon="4.20245">
        <ele>127.19999694824</ele>
        <time>2012-05-19T14:15:35.000Z</time>
      </trkpt>
      <trkpt lat="44.37355" lon="4.20265">
        <ele>127</ele>
        <time>2012-05-19T14:15:39.000Z</time>
      </trkpt>
      <trkpt lat="44.37345" lon="4.20287">
        <ele>127</ele>
        <time>2012-05-19T14:15:44.000Z</time>
      </trkpt>
      <trkpt lat="44.37344" lon="4.20292">
        <ele>127</ele>
        <time>2012-05-19T14:15:45.000Z</time>
      </trkpt>
      <trkpt lat="44.37342" lon="4.20296">
        <ele>127</ele>
        <time>2012-05-19T14:15:46.000Z</time>
      </trkpt>
      <trkpt lat="44.37328" lon="4.20317">
        <ele>127</ele>
        <time>2012-05-19T14:15:51.000Z</time>
      </trkpt>
      <trkpt lat="44.37323" lon="4.2034">
        <ele>126.59999847412</ele>
        <time>2012-05-19T14:15:55.000Z</time>
      </trkpt>
      <trkpt lat="44.37323" lon="4.20347">
        <ele>126.40000152588</ele>
        <time>2012-05-19T14:15:56.000Z</time>
      </trkpt>
      <trkpt lat="44.37321" lon="4.20376">
        <ele>125.40000152588</ele>
        <time>2012-05-19T14:16:01.000Z</time>
      </trkpt>
      <trkpt lat="44.3732" lon="4.20387">
        <ele>125</ele>
        <time>2012-05-19T14:16:03.000Z</time>
      </trkpt>
      <trkpt lat="44.37319" lon="4.20413">
        <ele>124.19999694824</ele>
        <time>2012-05-19T14:16:07.000Z</time>
      </trkpt>
      <trkpt lat="44.37318" lon="4.20431">
        <ele>124</ele>
        <time>2012-05-19T14:16:10.000Z</time>
      </trkpt>
      <trkpt lat="44.37317" lon="4.20458">
        <ele>124</ele>
        <time>2012-05-19T14:16:14.000Z</time>
      </trkpt>
      <trkpt lat="44.37314" lon="4.20485">
        <ele>124</ele>
        <time>2012-05-19T14:16:18.000Z</time>
      </trkpt>
      <trkpt lat="44.37313" lon="4.20491">
        <ele>124</ele>
        <time>2012-05-19T14:16:19.000Z</time>
      </trkpt>
      <trkpt lat="44.37312" lon="4.20498">
        <ele>124</ele>
        <time>2012-05-19T14:16:20.000Z</time>
      </trkpt>
      <trkpt lat="44.37306" lon="4.20523">
        <ele>124.59999847412</ele>
        <time>2012-05-19T14:16:24.000Z</time>
      </trkpt>
      <trkpt lat="44.37301" lon="4.20549">
        <ele>125.19999694824</ele>
        <time>2012-05-19T14:16:28.000Z</time>
      </trkpt>
      <trkpt lat="44.37297" lon="4.20577">
        <ele>125.80000305176</ele>
        <time>2012-05-19T14:16:32.000Z</time>
      </trkpt>
      <trkpt lat="44.37295" lon="4.20599">
        <ele>126.19999694824</ele>
        <time>2012-05-19T14:16:35.000Z</time>
      </trkpt>
      <trkpt lat="44.37291" lon="4.20628">
        <ele>126.80000305176</ele>
        <time>2012-05-19T14:16:39.000Z</time>
      </trkpt>
      <trkpt lat="44.37291" lon="4.20658">
        <ele>127.40000152588</ele>
        <time>2012-05-19T14:16:43.000Z</time>
      </trkpt>
      <trkpt lat="44.37294" lon="4.20688">
        <ele>126.80000305176</ele>
        <time>2012-05-19T14:16:47.000Z</time>
      </trkpt>
      <trkpt lat="44.37295" lon="4.20695">
        <ele>126.59999847412</ele>
        <time>2012-05-19T14:16:48.000Z</time>
      </trkpt>
      <trkpt lat="44.37297" lon="4.20702">
        <ele>126.40000152588</ele>
        <time>2012-05-19T14:16:49.000Z</time>
      </trkpt>
      <trkpt lat="44.37304" lon="4.20732">
        <ele>125.59999847412</ele>
        <time>2012-05-19T14:16:53.000Z</time>
      </trkpt>
      <trkpt lat="44.3731" lon="4.20762">
        <ele>124.80000305176</ele>
        <time>2012-05-19T14:16:57.000Z</time>
      </trkpt>
      <trkpt lat="44.37312" lon="4.20769">
        <ele>124.59999847412</ele>
        <time>2012-05-19T14:16:58.000Z</time>
      </trkpt>
      <trkpt lat="44.37318" lon="4.20797">
        <ele>123.80000305176</ele>
        <time>2012-05-19T14:17:02.000Z</time>
      </trkpt>
      <trkpt lat="44.37323" lon="4.20825">
        <ele>123.19999694824</ele>
        <time>2012-05-19T14:17:06.000Z</time>
      </trkpt>
      <trkpt lat="44.37329" lon="4.20852">
        <ele>123</ele>
        <time>2012-05-19T14:17:10.000Z</time>
      </trkpt>
      <trkpt lat="44.37334" lon="4.2088">
        <ele>123</ele>
        <time>2012-05-19T14:17:14.000Z</time>
      </trkpt>
      <trkpt lat="44.3734" lon="4.20907">
        <ele>123</ele>
        <time>2012-05-19T14:17:18.000Z</time>
      </trkpt>
      <trkpt lat="44.37344" lon="4.20928">
        <ele>123</ele>
        <time>2012-05-19T14:17:21.000Z</time>
      </trkpt>
      <trkpt lat="44.37351" lon="4.20953">
        <ele>122.80000305176</ele>
        <time>2012-05-19T14:17:25.000Z</time>
      </trkpt>
      <trkpt lat="44.37359" lon="4.20979">
        <ele>122.59999847412</ele>
        <time>2012-05-19T14:17:29.000Z</time>
      </trkpt>
      <trkpt lat="44.37363" lon="4.20993">
        <ele>122.40000152588</ele>
        <time>2012-05-19T14:17:31.000Z</time>
      </trkpt>
      <trkpt lat="44.37371" lon="4.21019">
        <ele>122.40000152588</ele>
        <time>2012-05-19T14:17:35.000Z</time>
      </trkpt>
      <trkpt lat="44.37379" lon="4.21045">
        <ele>122.40000152588</ele>
        <time>2012-05-19T14:17:39.000Z</time>
      </trkpt>
      <trkpt lat="44.37385" lon="4.21065">
        <ele>122.40000152588</ele>
        <time>2012-05-19T14:17:42.000Z</time>
      </trkpt>
      <trkpt lat="44.37393" lon="4.21091">
        <ele>122.19999694824</ele>
        <time>2012-05-19T14:17:46.000Z</time>
      </trkpt>
      <trkpt lat="44.37401" lon="4.21116">
        <ele>122.19999694824</ele>
        <time>2012-05-19T14:17:50.000Z</time>
      </trkpt>
      <trkpt lat="44.37405" lon="4.21128">
        <ele>122.19999694824</ele>
        <time>2012-05-19T14:17:52.000Z</time>
      </trkpt>
      <trkpt lat="44.37406" lon="4.21134">
        <ele>122.19999694824</ele>
        <time>2012-05-19T14:17:53.000Z</time>
      </trkpt>
      <trkpt lat="44.37404" lon="4.21145">
        <ele>122.19999694824</ele>
        <time>2012-05-19T14:17:55.000Z</time>
      </trkpt>
      <trkpt lat="44.37391" lon="4.21154">
        <ele>122.40000152588</ele>
        <time>2012-05-19T14:17:58.000Z</time>
      </trkpt>
      <trkpt lat="44.37381" lon="4.2116">
        <ele>122.40000152588</ele>
        <time>2012-05-19T14:18:00.000Z</time>
      </trkpt>
      <trkpt lat="44.37369" lon="4.21174">
        <ele>122.59999847412</ele>
        <time>2012-05-19T14:18:03.000Z</time>
      </trkpt>
      <trkpt lat="44.37357" lon="4.21196">
        <ele>123</ele>
        <time>2012-05-19T14:18:07.000Z</time>
      </trkpt>
      <trkpt lat="44.37351" lon="4.21209">
        <ele>123.19999694824</ele>
        <time>2012-05-19T14:18:09.000Z</time>
      </trkpt>
      <trkpt lat="44.37337" lon="4.21234">
        <ele>123.80000305176</ele>
        <time>2012-05-19T14:18:13.000Z</time>
      </trkpt>
      <trkpt lat="44.37321" lon="4.21257">
        <ele>124.59999847412</ele>
        <time>2012-05-19T14:18:17.000Z</time>
      </trkpt>
      <trkpt lat="44.37306" lon="4.21279">
        <ele>125.40000152588</ele>
        <time>2012-05-19T14:18:21.000Z</time>
      </trkpt>
      <trkpt lat="44.37296" lon="4.21293">
        <ele>126</ele>
        <time>2012-05-19T14:18:24.000Z</time>
      </trkpt>
      <trkpt lat="44.37283" lon="4.21313">
        <ele>126.40000152588</ele>
        <time>2012-05-19T14:18:29.000Z</time>
      </trkpt>
      <trkpt lat="44.37281" lon="4.21315">
        <ele>126.40000152588</ele>
        <time>2012-05-19T14:18:30.000Z</time>
      </trkpt>
      <trkpt lat="44.37279" lon="4.21318">
        <ele>126.59999847412</ele>
        <time>2012-05-19T14:18:33.000Z</time>
      </trkpt>
      <trkpt lat="44.37274" lon="4.21326">
        <ele>126.59999847412</ele>
        <time>2012-05-19T14:18:50.000Z</time>
      </trkpt>
      <trkpt lat="44.37263" lon="4.21346">
        <ele>126.80000305176</ele>
        <time>2012-05-19T14:18:55.000Z</time>
      </trkpt>
      <trkpt lat="44.37254" lon="4.21367">
        <ele>127</ele>
        <time>2012-05-19T14:19:00.000Z</time>
      </trkpt>
      <trkpt lat="44.37252" lon="4.21371">
        <ele>127</ele>
        <time>2012-05-19T14:19:01.000Z</time>
      </trkpt>
      <trkpt lat="44.37239" lon="4.21391">
        <ele>127</ele>
        <time>2012-05-19T14:19:07.000Z</time>
      </trkpt>
      <trkpt lat="44.37223" lon="4.21405">
        <ele>127</ele>
        <time>2012-05-19T14:19:12.000Z</time>
      </trkpt>
      <trkpt lat="44.37215" lon="4.21413">
        <ele>127</ele>
        <time>2012-05-19T14:19:15.000Z</time>
      </trkpt>
      <trkpt lat="44.37197" lon="4.21429">
        <ele>127</ele>
        <time>2012-05-19T14:19:21.000Z</time>
      </trkpt>
      <trkpt lat="44.37185" lon="4.21439">
        <ele>127</ele>
        <time>2012-05-19T14:19:25.000Z</time>
      </trkpt>
      <trkpt lat="44.37167" lon="4.21456">
        <ele>127</ele>
        <time>2012-05-19T14:19:31.000Z</time>
      </trkpt>
      <trkpt lat="44.37154" lon="4.21469">
        <ele>127</ele>
        <time>2012-05-19T14:19:36.000Z</time>
      </trkpt>
      <trkpt lat="44.3714" lon="4.21485">
        <ele>127</ele>
        <time>2012-05-19T14:19:42.000Z</time>
      </trkpt>
      <trkpt lat="44.37135" lon="4.21491">
        <ele>127</ele>
        <time>2012-05-19T14:19:44.000Z</time>
      </trkpt>
      <trkpt lat="44.3712" lon="4.21505">
        <ele>127</ele>
        <time>2012-05-19T14:19:50.000Z</time>
      </trkpt>
      <trkpt lat="44.37118" lon="4.21508">
        <ele>127.19999694824</ele>
        <time>2012-05-19T14:19:51.000Z</time>
      </trkpt>
      <trkpt lat="44.37102" lon="4.21524">
        <ele>127.40000152588</ele>
        <time>2012-05-19T14:19:57.000Z</time>
      </trkpt>
      <trkpt lat="44.37099" lon="4.21527">
        <ele>127.59999847412</ele>
        <time>2012-05-19T14:19:58.000Z</time>
      </trkpt>
      <trkpt lat="44.37083" lon="4.21545">
        <ele>128</ele>
        <time>2012-05-19T14:20:04.000Z</time>
      </trkpt>
      <trkpt lat="44.37074" lon="4.21554">
        <ele>128.19999694824</ele>
        <time>2012-05-19T14:20:07.000Z</time>
      </trkpt>
      <trkpt lat="44.37058" lon="4.21573">
        <ele>128.80000305176</ele>
        <time>2012-05-19T14:20:12.000Z</time>
      </trkpt>
      <trkpt lat="44.37042" lon="4.21594">
        <ele>129</ele>
        <time>2012-05-19T14:20:17.000Z</time>
      </trkpt>
      <trkpt lat="44.37027" lon="4.21614">
        <ele>128.80000305176</ele>
        <time>2012-05-19T14:20:22.000Z</time>
      </trkpt>
      <trkpt lat="44.37024" lon="4.21619">
        <ele>128.80000305176</ele>
        <time>2012-05-19T14:20:23.000Z</time>
      </trkpt>
      <trkpt lat="44.37008" lon="4.21637">
        <ele>129</ele>
        <time>2012-05-19T14:20:28.000Z</time>
      </trkpt>
      <trkpt lat="44.37002" lon="4.21644">
        <ele>129</ele>
        <time>2012-05-19T14:20:30.000Z</time>
      </trkpt>
      <trkpt lat="44.36992" lon="4.21651">
        <ele>129</ele>
        <time>2012-05-19T14:20:33.000Z</time>
      </trkpt>
      <trkpt lat="44.36983" lon="4.21655">
        <ele>129.19999694824</ele>
        <time>2012-05-19T14:20:36.000Z</time>
      </trkpt>
      <trkpt lat="44.36965" lon="4.21667">
        <ele>129.39999389648</ele>
        <time>2012-05-19T14:20:42.000Z</time>
      </trkpt>
      <trkpt lat="44.36949" lon="4.21678">
        <ele>129.60000610352</ele>
        <time>2012-05-19T14:20:47.000Z</time>
      </trkpt>
      <trkpt lat="44.36936" lon="4.21687">
        <ele>130</ele>
        <time>2012-05-19T14:20:51.000Z</time>
      </trkpt>
      <trkpt lat="44.36917" lon="4.217">
        <ele>130.39999389648</ele>
        <time>2012-05-19T14:20:57.000Z</time>
      </trkpt>
      <trkpt lat="44.36901" lon="4.21716">
        <ele>130.80000305176</ele>
        <time>2012-05-19T14:21:03.000Z</time>
      </trkpt>
      <trkpt lat="44.36897" lon="4.21719">
        <ele>130.80000305176</ele>
        <time>2012-05-19T14:21:04.000Z</time>
      </trkpt>
      <trkpt lat="44.36883" lon="4.21736">
        <ele>131.19999694824</ele>
        <time>2012-05-19T14:21:09.000Z</time>
      </trkpt>
      <trkpt lat="44.36873" lon="4.2175">
        <ele>131.60000610352</ele>
        <time>2012-05-19T14:21:13.000Z</time>
      </trkpt>
      <trkpt lat="44.36861" lon="4.21772">
        <ele>131.80000305176</ele>
        <time>2012-05-19T14:21:18.000Z</time>
      </trkpt>
      <trkpt lat="44.3685" lon="4.21793">
        <ele>132</ele>
        <time>2012-05-19T14:21:23.000Z</time>
      </trkpt>
      <trkpt lat="44.36847" lon="4.21797">
        <ele>132</ele>
        <time>2012-05-19T14:21:24.000Z</time>
      </trkpt>
      <trkpt lat="44.36835" lon="4.21816">
        <ele>132</ele>
        <time>2012-05-19T14:21:29.000Z</time>
      </trkpt>
      <trkpt lat="44.36824" lon="4.21833">
        <ele>132.39999389648</ele>
        <time>2012-05-19T14:21:33.000Z</time>
      </trkpt>
      <trkpt lat="44.3681" lon="4.21855">
        <ele>133</ele>
        <time>2012-05-19T14:21:38.000Z</time>
      </trkpt>
      <trkpt lat="44.36799" lon="4.21875">
        <ele>133.39999389648</ele>
        <time>2012-05-19T14:21:42.000Z</time>
      </trkpt>
      <trkpt lat="44.36788" lon="4.21902">
        <ele>133.60000610352</ele>
        <time>2012-05-19T14:21:47.000Z</time>
      </trkpt>
      <trkpt lat="44.36784" lon="4.21912">
        <ele>133.60000610352</ele>
        <time>2012-05-19T14:21:49.000Z</time>
      </trkpt>
      <trkpt lat="44.36772" lon="4.21939">
        <ele>134</ele>
        <time>2012-05-19T14:21:54.000Z</time>
      </trkpt>
      <trkpt lat="44.36767" lon="4.21951">
        <ele>134.19999694824</ele>
        <time>2012-05-19T14:21:56.000Z</time>
      </trkpt>
      <trkpt lat="44.36757" lon="4.21973">
        <ele>134.60000610352</ele>
        <time>2012-05-19T14:22:00.000Z</time>
      </trkpt>
      <trkpt lat="44.3675" lon="4.21988">
        <ele>134.80000305176</ele>
        <time>2012-05-19T14:22:03.000Z</time>
      </trkpt>
      <trkpt lat="44.36739" lon="4.22012">
        <ele>135.19999694824</ele>
        <time>2012-05-19T14:22:08.000Z</time>
      </trkpt>
      <trkpt lat="44.36728" lon="4.22035">
        <ele>135.60000610352</ele>
        <time>2012-05-19T14:22:13.000Z</time>
      </trkpt>
      <trkpt lat="44.36718" lon="4.22057">
        <ele>135.80000305176</ele>
        <time>2012-05-19T14:22:18.000Z</time>
      </trkpt>
      <trkpt lat="44.3671" lon="4.22071">
        <ele>136</ele>
        <time>2012-05-19T14:22:22.000Z</time>
      </trkpt>
      <trkpt lat="44.36704" lon="4.22082">
        <ele>136</ele>
        <time>2012-05-19T14:22:27.000Z</time>
      </trkpt>
      <trkpt lat="44.367" lon="4.22089">
        <ele>136</ele>
        <time>2012-05-19T14:22:31.000Z</time>
      </trkpt>
      <trkpt lat="44.3669" lon="4.22115">
        <ele>136.60000610352</ele>
        <time>2012-05-19T14:22:37.000Z</time>
      </trkpt>
      <trkpt lat="44.36686" lon="4.22124">
        <ele>136.80000305176</ele>
        <time>2012-05-19T14:22:39.000Z</time>
      </trkpt>
      <trkpt lat="44.36677" lon="4.22147">
        <ele>137.39999389648</ele>
        <time>2012-05-19T14:22:44.000Z</time>
      </trkpt>
      <trkpt lat="44.3667" lon="4.2216">
        <ele>137.80000305176</ele>
        <time>2012-05-19T14:22:47.000Z</time>
      </trkpt>
      <trkpt lat="44.36659" lon="4.22182">
        <ele>137.60000610352</ele>
        <time>2012-05-19T14:22:52.000Z</time>
      </trkpt>
      <trkpt lat="44.3665" lon="4.22198">
        <ele>137.19999694824</ele>
        <time>2012-05-19T14:22:56.000Z</time>
      </trkpt>
      <trkpt lat="44.36636" lon="4.2222">
        <ele>136.39999389648</ele>
        <time>2012-05-19T14:23:02.000Z</time>
      </trkpt>
      <trkpt lat="44.36631" lon="4.22228">
        <ele>136</ele>
        <time>2012-05-19T14:23:04.000Z</time>
      </trkpt>
      <trkpt lat="44.3662" lon="4.22249">
        <ele>135.39999389648</ele>
        <time>2012-05-19T14:23:08.000Z</time>
      </trkpt>
      <trkpt lat="44.36607" lon="4.22271">
        <ele>134.60000610352</ele>
        <time>2012-05-19T14:23:12.000Z</time>
      </trkpt>
      <trkpt lat="44.36594" lon="4.22295">
        <ele>134.19999694824</ele>
        <time>2012-05-19T14:23:16.000Z</time>
      </trkpt>
      <trkpt lat="44.36582" lon="4.22319">
        <ele>134</ele>
        <time>2012-05-19T14:23:20.000Z</time>
      </trkpt>
      <trkpt lat="44.36569" lon="4.22342">
        <ele>133.80000305176</ele>
        <time>2012-05-19T14:23:24.000Z</time>
      </trkpt>
      <trkpt lat="44.36556" lon="4.22366">
        <ele>133.39999389648</ele>
        <time>2012-05-19T14:23:28.000Z</time>
      </trkpt>
      <trkpt lat="44.36543" lon="4.22393">
        <ele>133.19999694824</ele>
        <time>2012-05-19T14:23:32.000Z</time>
      </trkpt>
      <trkpt lat="44.3654" lon="4.224">
        <ele>133</ele>
        <time>2012-05-19T14:23:33.000Z</time>
      </trkpt>
      <trkpt lat="44.36529" lon="4.22421">
        <ele>133</ele>
        <time>2012-05-19T14:23:36.000Z</time>
      </trkpt>
      <trkpt lat="44.36517" lon="4.22444">
        <ele>132.39999389648</ele>
        <time>2012-05-19T14:23:39.000Z</time>
      </trkpt>
      <trkpt lat="44.36514" lon="4.22451">
        <ele>132.39999389648</ele>
        <time>2012-05-19T14:23:40.000Z</time>
      </trkpt>
      <trkpt lat="44.36506" lon="4.22467">
        <ele>131.80000305176</ele>
        <time>2012-05-19T14:23:42.000Z</time>
      </trkpt>
      <trkpt lat="44.36495" lon="4.22492">
        <ele>131.19999694824</ele>
        <time>2012-05-19T14:23:45.000Z</time>
      </trkpt>
      <trkpt lat="44.36486" lon="4.22517">
        <ele>130.60000610352</ele>
        <time>2012-05-19T14:23:48.000Z</time>
      </trkpt>
      <trkpt lat="44.3648" lon="4.22534">
        <ele>130.19999694824</ele>
        <time>2012-05-19T14:23:50.000Z</time>
      </trkpt>
      <trkpt lat="44.36471" lon="4.22562">
        <ele>129.60000610352</ele>
        <time>2012-05-19T14:23:53.000Z</time>
      </trkpt>
      <trkpt lat="44.36462" lon="4.2259">
        <ele>129</ele>
        <time>2012-05-19T14:23:56.000Z</time>
      </trkpt>
      <trkpt lat="44.36455" lon="4.2261">
        <ele>128.60000610352</ele>
        <time>2012-05-19T14:23:58.000Z</time>
      </trkpt>
      <trkpt lat="44.36443" lon="4.2264">
        <ele>128</ele>
        <time>2012-05-19T14:24:01.000Z</time>
      </trkpt>
      <trkpt lat="44.36432" lon="4.22669">
        <ele>127.40000152588</ele>
        <time>2012-05-19T14:24:04.000Z</time>
      </trkpt>
      <trkpt lat="44.36427" lon="4.22677">
        <ele>127.19999694824</ele>
        <time>2012-05-19T14:24:05.000Z</time>
      </trkpt>
      <trkpt lat="44.36416" lon="4.22681">
        <ele>127</ele>
        <time>2012-05-19T14:24:07.000Z</time>
      </trkpt>
      <trkpt lat="44.36404" lon="4.22669">
        <ele>127</ele>
        <time>2012-05-19T14:24:10.000Z</time>
      </trkpt>
      <trkpt lat="44.36395" lon="4.22668">
        <ele>127</ele>
        <time>2012-05-19T14:24:13.000Z</time>
      </trkpt>
      <trkpt lat="44.36386" lon="4.22692">
        <ele>127</ele>
        <time>2012-05-19T14:24:17.000Z</time>
      </trkpt>
      <trkpt lat="44.36379" lon="4.22716">
        <ele>127</ele>
        <time>2012-05-19T14:24:21.000Z</time>
      </trkpt>
      <trkpt lat="44.36374" lon="4.22731">
        <ele>127</ele>
        <time>2012-05-19T14:24:24.000Z</time>
      </trkpt>
      <trkpt lat="44.36365" lon="4.22759">
        <ele>127</ele>
        <time>2012-05-19T14:24:29.000Z</time>
      </trkpt>
      <trkpt lat="44.3636" lon="4.22777">
        <ele>127.19999694824</ele>
        <time>2012-05-19T14:24:32.000Z</time>
      </trkpt>
      <trkpt lat="44.36352" lon="4.22802">
        <ele>127.40000152588</ele>
        <time>2012-05-19T14:24:36.000Z</time>
      </trkpt>
      <trkpt lat="44.36344" lon="4.22828">
        <ele>127.80000305176</ele>
        <time>2012-05-19T14:24:40.000Z</time>
      </trkpt>
      <trkpt lat="44.36335" lon="4.22854">
        <ele>128</ele>
        <time>2012-05-19T14:24:44.000Z</time>
      </trkpt>
      <trkpt lat="44.36333" lon="4.2286">
        <ele>128</ele>
        <time>2012-05-19T14:24:45.000Z</time>
      </trkpt>
      <trkpt lat="44.36324" lon="4.22877">
        <ele>128</ele>
        <time>2012-05-19T14:24:48.000Z</time>
      </trkpt>
      <trkpt lat="44.3631" lon="4.22899">
        <ele>128.19999694824</ele>
        <time>2012-05-19T14:24:53.000Z</time>
      </trkpt>
      <trkpt lat="44.36304" lon="4.22908">
        <ele>128.19999694824</ele>
        <time>2012-05-19T14:24:55.000Z</time>
      </trkpt>
      <trkpt lat="44.36291" lon="4.22934">
        <ele>128.60000610352</ele>
        <time>2012-05-19T14:25:00.000Z</time>
      </trkpt>
      <trkpt lat="44.36284" lon="4.2295">
        <ele>128.60000610352</ele>
        <time>2012-05-19T14:25:03.000Z</time>
      </trkpt>
      <trkpt lat="44.36275" lon="4.22972">
        <ele>128.80000305176</ele>
        <time>2012-05-19T14:25:07.000Z</time>
      </trkpt>
      <trkpt lat="44.36262" lon="4.22992">
        <ele>128.80000305176</ele>
        <time>2012-05-19T14:25:11.000Z</time>
      </trkpt>
      <trkpt lat="44.36259" lon="4.22996">
        <ele>128.80000305176</ele>
        <time>2012-05-19T14:25:12.000Z</time>
      </trkpt>
      <trkpt lat="44.36244" lon="4.23017">
        <ele>129.19999694824</ele>
        <time>2012-05-19T14:25:17.000Z</time>
      </trkpt>
      <trkpt lat="44.36237" lon="4.2303">
        <ele>129.39999389648</ele>
        <time>2012-05-19T14:25:20.000Z</time>
      </trkpt>
      <trkpt lat="44.36232" lon="4.2305">
        <ele>129.60000610352</ele>
        <time>2012-05-19T14:25:24.000Z</time>
      </trkpt>
      <trkpt lat="44.36229" lon="4.23065">
        <ele>129.80000305176</ele>
        <time>2012-05-19T14:25:27.000Z</time>
      </trkpt>
      <trkpt lat="44.36227" lon="4.23094">
        <ele>130.39999389648</ele>
        <time>2012-05-19T14:25:33.000Z</time>
      </trkpt>
      <trkpt lat="44.36227" lon="4.23101">
        <ele>130.80000305176</ele>
        <time>2012-05-19T14:25:35.000Z</time>
      </trkpt>
      <trkpt lat="44.36232" lon="4.23116">
        <ele>131.39999389648</ele>
        <time>2012-05-19T14:25:39.000Z</time>
      </trkpt>
      <trkpt lat="44.3625" lon="4.23124">
        <ele>132</ele>
        <time>2012-05-19T14:25:44.000Z</time>
      </trkpt>
      <trkpt lat="44.36269" lon="4.23131">
        <ele>131.60000610352</ele>
        <time>2012-05-19T14:25:49.000Z</time>
      </trkpt>
      <trkpt lat="44.36288" lon="4.23135">
        <ele>131.19999694824</ele>
        <time>2012-05-19T14:25:54.000Z</time>
      </trkpt>
      <trkpt lat="44.36307" lon="4.23138">
        <ele>130.60000610352</ele>
        <time>2012-05-19T14:25:59.000Z</time>
      </trkpt>
      <trkpt lat="44.36321" lon="4.23143">
        <ele>130.19999694824</ele>
        <time>2012-05-19T14:26:03.000Z</time>
      </trkpt>
      <trkpt lat="44.36337" lon="4.23157">
        <ele>129.80000305176</ele>
        <time>2012-05-19T14:26:09.000Z</time>
      </trkpt>
      <trkpt lat="44.36338" lon="4.23164">
        <ele>130</ele>
        <time>2012-05-19T14:26:13.000Z</time>
      </trkpt>
      <trkpt lat="44.36336" lon="4.2316">
        <ele>130</ele>
        <time>2012-05-19T14:29:24.000Z</time>
      </trkpt>
      <trkpt lat="44.36337" lon="4.2316">
        <ele>130</ele>
        <time>2012-05-19T14:29:31.000Z</time>
      </trkpt>
      <trkpt lat="44.36337" lon="4.2316">
        <ele>130</ele>
        <time>2012-05-19T14:30:10.000Z</time>
      </trkpt>
      <trkpt lat="44.36336" lon="4.23164">
        <ele>130</ele>
        <time>2012-05-19T14:30:41.000Z</time>
      </trkpt>
      <trkpt lat="44.36334" lon="4.23173">
        <ele>130</ele>
        <time>2012-05-19T14:33:10.000Z</time>
      </trkpt>
      <trkpt lat="44.3633" lon="4.23185">
        <ele>130.39999389648</ele>
        <time>2012-05-19T14:33:15.000Z</time>
      </trkpt>
      <trkpt lat="44.36326" lon="4.2319">
        <ele>130.60000610352</ele>
        <time>2012-05-19T14:33:19.000Z</time>
      </trkpt>
      <trkpt lat="44.36323" lon="4.2319">
        <ele>130.80000305176</ele>
        <time>2012-05-19T14:33:21.000Z</time>
      </trkpt>
      <trkpt lat="44.3631" lon="4.23192">
        <ele>131.39999389648</ele>
        <time>2012-05-19T14:33:26.000Z</time>
      </trkpt>
      <trkpt lat="44.36292" lon="4.23194">
        <ele>132.19999694824</ele>
        <time>2012-05-19T14:33:32.000Z</time>
      </trkpt>
      <trkpt lat="44.36277" lon="4.23193">
        <ele>133</ele>
        <time>2012-05-19T14:33:37.000Z</time>
      </trkpt>
      <trkpt lat="44.36256" lon="4.23193">
        <ele>134</ele>
        <time>2012-05-19T14:33:43.000Z</time>
      </trkpt>
      <trkpt lat="44.36245" lon="4.23192">
        <ele>134.39999389648</ele>
        <time>2012-05-19T14:33:46.000Z</time>
      </trkpt>
      <trkpt lat="44.36226" lon="4.23192">
        <ele>134.39999389648</ele>
        <time>2012-05-19T14:33:52.000Z</time>
      </trkpt>
      <trkpt lat="44.36222" lon="4.23192">
        <ele>134.39999389648</ele>
        <time>2012-05-19T14:33:53.000Z</time>
      </trkpt>
      <trkpt lat="44.36216" lon="4.23197">
        <ele>134.60000610352</ele>
        <time>2012-05-19T14:33:56.000Z</time>
      </trkpt>
      <trkpt lat="44.36215" lon="4.232">
        <ele>134.60000610352</ele>
        <time>2012-05-19T14:33:57.000Z</time>
      </trkpt>
      <trkpt lat="44.36207" lon="4.23222">
        <ele>135.60000610352</ele>
        <time>2012-05-19T14:34:04.000Z</time>
      </trkpt>
      <trkpt lat="44.36194" lon="4.23239">
        <ele>136.60000610352</ele>
        <time>2012-05-19T14:34:11.000Z</time>
      </trkpt>
      <trkpt lat="44.36191" lon="4.23243">
        <ele>136.80000305176</ele>
        <time>2012-05-19T14:34:13.000Z</time>
      </trkpt>
      <trkpt lat="44.36177" lon="4.23258">
        <ele>137.80000305176</ele>
        <time>2012-05-19T14:34:21.000Z</time>
      </trkpt>
      <trkpt lat="44.36165" lon="4.23269">
        <ele>138.39999389648</ele>
        <time>2012-05-19T14:34:28.000Z</time>
      </trkpt>
      <trkpt lat="44.3615" lon="4.23283">
        <ele>139.39999389648</ele>
        <time>2012-05-19T14:34:36.000Z</time>
      </trkpt>
      <trkpt lat="44.36137" lon="4.23296">
        <ele>140.60000610352</ele>
        <time>2012-05-19T14:34:44.000Z</time>
      </trkpt>
      <trkpt lat="44.36124" lon="4.23312">
        <ele>142.39999389648</ele>
        <time>2012-05-19T14:34:52.000Z</time>
      </trkpt>
      <trkpt lat="44.36108" lon="4.23326">
        <ele>144.80000305176</ele>
        <time>2012-05-19T14:35:00.000Z</time>
      </trkpt>
      <trkpt lat="44.36106" lon="4.23327">
        <ele>145</ele>
        <time>2012-05-19T14:35:01.000Z</time>
      </trkpt>
      <trkpt lat="44.3609" lon="4.23334">
        <ele>147.19999694824</ele>
        <time>2012-05-19T14:35:09.000Z</time>
      </trkpt>
      <trkpt lat="44.36079" lon="4.23339">
        <ele>148</ele>
        <time>2012-05-19T14:35:15.000Z</time>
      </trkpt>
      <trkpt lat="44.36071" lon="4.23347">
        <ele>147.80000305176</ele>
        <time>2012-05-19T14:35:20.000Z</time>
      </trkpt>
      <trkpt lat="44.36059" lon="4.23356">
        <ele>147.80000305176</ele>
        <time>2012-05-19T14:35:26.000Z</time>
      </trkpt>
      <trkpt lat="44.36041" lon="4.23368">
        <ele>147.80000305176</ele>
        <time>2012-05-19T14:35:33.000Z</time>
      </trkpt>
      <trkpt lat="44.36035" lon="4.2337">
        <ele>147.80000305176</ele>
        <time>2012-05-19T14:35:35.000Z</time>
      </trkpt>
      <trkpt lat="44.36016" lon="4.23376">
        <ele>148</ele>
        <time>2012-05-19T14:35:42.000Z</time>
      </trkpt>
      <trkpt lat="44.35996" lon="4.23383">
        <ele>148.19999694824</ele>
        <time>2012-05-19T14:35:49.000Z</time>
      </trkpt>
      <trkpt lat="44.35991" lon="4.23388">
        <ele>148</ele>
        <time>2012-05-19T14:35:51.000Z</time>
      </trkpt>
      <trkpt lat="44.35976" lon="4.23404">
        <ele>147.60000610352</ele>
        <time>2012-05-19T14:35:57.000Z</time>
      </trkpt>
      <trkpt lat="44.35974" lon="4.23408">
        <ele>147.60000610352</ele>
        <time>2012-05-19T14:35:58.000Z</time>
      </trkpt>
      <trkpt lat="44.35961" lon="4.23428">
        <ele>147.39999389648</ele>
        <time>2012-05-19T14:36:02.000Z</time>
      </trkpt>
      <trkpt lat="44.35959" lon="4.23434">
        <ele>147.39999389648</ele>
        <time>2012-05-19T14:36:03.000Z</time>
      </trkpt>
      <trkpt lat="44.35951" lon="4.23453">
        <ele>147.60000610352</ele>
        <time>2012-05-19T14:36:06.000Z</time>
      </trkpt>
      <trkpt lat="44.3595" lon="4.23463">
        <ele>147.80000305176</ele>
        <time>2012-05-19T14:36:08.000Z</time>
      </trkpt>
      <trkpt lat="44.35953" lon="4.23475">
        <ele>148.19999694824</ele>
        <time>2012-05-19T14:36:10.000Z</time>
      </trkpt>
      <trkpt lat="44.35954" lon="4.23481">
        <ele>148.19999694824</ele>
        <time>2012-05-19T14:36:11.000Z</time>
      </trkpt>
      <trkpt lat="44.35953" lon="4.23488">
        <ele>148.39999389648</ele>
        <time>2012-05-19T14:36:12.000Z</time>
      </trkpt>
      <trkpt lat="44.35949" lon="4.23508">
        <ele>149.19999694824</ele>
        <time>2012-05-19T14:36:16.000Z</time>
      </trkpt>
      <trkpt lat="44.35947" lon="4.23513">
        <ele>149.39999389648</ele>
        <time>2012-05-19T14:36:17.000Z</time>
      </trkpt>
      <trkpt lat="44.35945" lon="4.23518">
        <ele>149.60000610352</ele>
        <time>2012-05-19T14:36:18.000Z</time>
      </trkpt>
      <trkpt lat="44.35941" lon="4.23535">
        <ele>150</ele>
        <time>2012-05-19T14:36:21.000Z</time>
      </trkpt>
      <trkpt lat="44.35941" lon="4.2354">
        <ele>150</ele>
        <time>2012-05-19T14:36:22.000Z</time>
      </trkpt>
      <trkpt lat="44.35941" lon="4.23545">
        <ele>150</ele>
        <time>2012-05-19T14:36:23.000Z</time>
      </trkpt>
      <trkpt lat="44.35941" lon="4.23566">
        <ele>150.39999389648</ele>
        <time>2012-05-19T14:36:27.000Z</time>
      </trkpt>
      <trkpt lat="44.3594" lon="4.23596">
        <ele>150.60000610352</ele>
        <time>2012-05-19T14:36:32.000Z</time>
      </trkpt>
      <trkpt lat="44.35938" lon="4.23608">
        <ele>150.39999389648</ele>
        <time>2012-05-19T14:36:34.000Z</time>
      </trkpt>
      <trkpt lat="44.35934" lon="4.23632">
        <ele>150.39999389648</ele>
        <time>2012-05-19T14:36:39.000Z</time>
      </trkpt>
      <trkpt lat="44.35931" lon="4.23641">
        <ele>150.39999389648</ele>
        <time>2012-05-19T14:36:41.000Z</time>
      </trkpt>
      <trkpt lat="44.35924" lon="4.23668">
        <ele>150</ele>
        <time>2012-05-19T14:36:46.000Z</time>
      </trkpt>
      <trkpt lat="44.35922" lon="4.23675">
        <ele>150</ele>
        <time>2012-05-19T14:36:47.000Z</time>
      </trkpt>
      <trkpt lat="44.35915" lon="4.23703">
        <ele>150</ele>
        <time>2012-05-19T14:36:52.000Z</time>
      </trkpt>
      <trkpt lat="44.3591" lon="4.23729">
        <ele>150.19999694824</ele>
        <time>2012-05-19T14:36:57.000Z</time>
      </trkpt>
      <trkpt lat="44.35908" lon="4.23745">
        <ele>150.19999694824</ele>
        <time>2012-05-19T14:37:00.000Z</time>
      </trkpt>
      <trkpt lat="44.35909" lon="4.23767">
        <ele>150</ele>
        <time>2012-05-19T14:37:04.000Z</time>
      </trkpt>
      <trkpt lat="44.35909" lon="4.23796">
        <ele>149.39999389648</ele>
        <time>2012-05-19T14:37:09.000Z</time>
      </trkpt>
      <trkpt lat="44.35908" lon="4.23809">
        <ele>149.19999694824</ele>
        <time>2012-05-19T14:37:11.000Z</time>
      </trkpt>
      <trkpt lat="44.35906" lon="4.23837">
        <ele>148.80000305176</ele>
        <time>2012-05-19T14:37:15.000Z</time>
      </trkpt>
      <trkpt lat="44.35904" lon="4.23861">
        <ele>148.19999694824</ele>
        <time>2012-05-19T14:37:18.000Z</time>
      </trkpt>
      <trkpt lat="44.35902" lon="4.23893">
        <ele>147.19999694824</ele>
        <time>2012-05-19T14:37:22.000Z</time>
      </trkpt>
      <trkpt lat="44.359" lon="4.23924">
        <ele>146.60000610352</ele>
        <time>2012-05-19T14:37:26.000Z</time>
      </trkpt>
      <trkpt lat="44.35899" lon="4.23931">
        <ele>146.60000610352</ele>
        <time>2012-05-19T14:37:27.000Z</time>
      </trkpt>
      <trkpt lat="44.35897" lon="4.2396">
        <ele>146.80000305176</ele>
        <time>2012-05-19T14:37:31.000Z</time>
      </trkpt>
      <trkpt lat="44.35894" lon="4.23987">
        <ele>146.80000305176</ele>
        <time>2012-05-19T14:37:35.000Z</time>
      </trkpt>
      <trkpt lat="44.35894" lon="4.23994">
        <ele>146.80000305176</ele>
        <time>2012-05-19T14:37:36.000Z</time>
      </trkpt>
      <trkpt lat="44.35892" lon="4.24019">
        <ele>146.60000610352</ele>
        <time>2012-05-19T14:37:40.000Z</time>
      </trkpt>
      <trkpt lat="44.35891" lon="4.24046">
        <ele>146</ele>
        <time>2012-05-19T14:37:44.000Z</time>
      </trkpt>
      <trkpt lat="44.35891" lon="4.24072">
        <ele>145.60000610352</ele>
        <time>2012-05-19T14:37:48.000Z</time>
      </trkpt>
      <trkpt lat="44.35891" lon="4.24099">
        <ele>145.60000610352</ele>
        <time>2012-05-19T14:37:52.000Z</time>
      </trkpt>
      <trkpt lat="44.35891" lon="4.24105">
        <ele>145.60000610352</ele>
        <time>2012-05-19T14:37:53.000Z</time>
      </trkpt>
      <trkpt lat="44.35891" lon="4.24132">
        <ele>145.80000305176</ele>
        <time>2012-05-19T14:37:57.000Z</time>
      </trkpt>
      <trkpt lat="44.35891" lon="4.24162">
        <ele>146</ele>
        <time>2012-05-19T14:38:02.000Z</time>
      </trkpt>
      <trkpt lat="44.35891" lon="4.24168">
        <ele>146</ele>
        <time>2012-05-19T14:38:03.000Z</time>
      </trkpt>
      <trkpt lat="44.35892" lon="4.24196">
        <ele>146.80000305176</ele>
        <time>2012-05-19T14:38:08.000Z</time>
      </trkpt>
      <trkpt lat="44.35892" lon="4.24225">
        <ele>147.39999389648</ele>
        <time>2012-05-19T14:38:13.000Z</time>
      </trkpt>
      <trkpt lat="44.35893" lon="4.24231">
        <ele>147.60000610352</ele>
        <time>2012-05-19T14:38:14.000Z</time>
      </trkpt>
      <trkpt lat="44.35893" lon="4.24257">
        <ele>148</ele>
        <time>2012-05-19T14:38:18.000Z</time>
      </trkpt>
      <trkpt lat="44.35892" lon="4.24285">
        <ele>148.19999694824</ele>
        <time>2012-05-19T14:38:22.000Z</time>
      </trkpt>
      <trkpt lat="44.35893" lon="4.24293">
        <ele>148.19999694824</ele>
        <time>2012-05-19T14:38:23.000Z</time>
      </trkpt>
      <trkpt lat="44.359" lon="4.24323">
        <ele>148.39999389648</ele>
        <time>2012-05-19T14:38:27.000Z</time>
      </trkpt>
      <trkpt lat="44.3591" lon="4.24353">
        <ele>148.60000610352</ele>
        <time>2012-05-19T14:38:31.000Z</time>
      </trkpt>
      <trkpt lat="44.35919" lon="4.24378">
        <ele>149.19999694824</ele>
        <time>2012-05-19T14:38:35.000Z</time>
      </trkpt>
      <trkpt lat="44.35923" lon="4.24396">
        <ele>149.60000610352</ele>
        <time>2012-05-19T14:38:38.000Z</time>
      </trkpt>
      <trkpt lat="44.35924" lon="4.24408">
        <ele>150</ele>
        <time>2012-05-19T14:38:40.000Z</time>
      </trkpt>
      <trkpt lat="44.35924" lon="4.24415">
        <ele>150.19999694824</ele>
        <time>2012-05-19T14:38:41.000Z</time>
      </trkpt>
      <trkpt lat="44.35921" lon="4.24446">
        <ele>150.39999389648</ele>
        <time>2012-05-19T14:38:46.000Z</time>
      </trkpt>
      <trkpt lat="44.3592" lon="4.24452">
        <ele>150.39999389648</ele>
        <time>2012-05-19T14:38:47.000Z</time>
      </trkpt>
      <trkpt lat="44.35914" lon="4.24476">
        <ele>150.80000305176</ele>
        <time>2012-05-19T14:38:51.000Z</time>
      </trkpt>
      <trkpt lat="44.3591" lon="4.24494">
        <ele>151</ele>
        <time>2012-05-19T14:38:54.000Z</time>
      </trkpt>
      <trkpt lat="44.35903" lon="4.24523">
        <ele>152</ele>
        <time>2012-05-19T14:38:59.000Z</time>
      </trkpt>
      <trkpt lat="44.359" lon="4.24534">
        <ele>152.39999389648</ele>
        <time>2012-05-19T14:39:01.000Z</time>
      </trkpt>
      <trkpt lat="44.35894" lon="4.24559">
        <ele>153.19999694824</ele>
        <time>2012-05-19T14:39:06.000Z</time>
      </trkpt>
      <trkpt lat="44.35892" lon="4.24575">
        <ele>153.80000305176</ele>
        <time>2012-05-19T14:39:09.000Z</time>
      </trkpt>
      <trkpt lat="44.3589" lon="4.24602">
        <ele>154.39999389648</ele>
        <time>2012-05-19T14:39:14.000Z</time>
      </trkpt>
      <trkpt lat="44.35887" lon="4.24628">
        <ele>154.80000305176</ele>
        <time>2012-05-19T14:39:19.000Z</time>
      </trkpt>
      <trkpt lat="44.35887" lon="4.24634">
        <ele>154.80000305176</ele>
        <time>2012-05-19T14:39:20.000Z</time>
      </trkpt>
      <trkpt lat="44.35881" lon="4.24662">
        <ele>155</ele>
        <time>2012-05-19T14:39:26.000Z</time>
      </trkpt>
      <trkpt lat="44.35879" lon="4.24678">
        <ele>155.39999389648</ele>
        <time>2012-05-19T14:39:29.000Z</time>
      </trkpt>
      <trkpt lat="44.35874" lon="4.24707">
        <ele>156.19999694824</ele>
        <time>2012-05-19T14:39:35.000Z</time>
      </trkpt>
      <trkpt lat="44.35872" lon="4.2472">
        <ele>156.60000610352</ele>
        <time>2012-05-19T14:39:38.000Z</time>
      </trkpt>
      <trkpt lat="44.35869" lon="4.24748">
        <ele>157.39999389648</ele>
        <time>2012-05-19T14:39:44.000Z</time>
      </trkpt>
      <trkpt lat="44.35868" lon="4.24762">
        <ele>157.60000610352</ele>
        <time>2012-05-19T14:39:47.000Z</time>
      </trkpt>
      <trkpt lat="44.35866" lon="4.2479">
        <ele>158.19999694824</ele>
        <time>2012-05-19T14:39:53.000Z</time>
      </trkpt>
      <trkpt lat="44.35863" lon="4.24815">
        <ele>158.80000305176</ele>
        <time>2012-05-19T14:39:58.000Z</time>
      </trkpt>
      <trkpt lat="44.35858" lon="4.24843">
        <ele>159.80000305176</ele>
        <time>2012-05-19T14:40:04.000Z</time>
      </trkpt>
      <trkpt lat="44.35855" lon="4.24862">
        <ele>160.60000610352</ele>
        <time>2012-05-19T14:40:08.000Z</time>
      </trkpt>
      <trkpt lat="44.35852" lon="4.24888">
        <ele>161.80000305176</ele>
        <time>2012-05-19T14:40:14.000Z</time>
      </trkpt>
      <trkpt lat="44.35852" lon="4.24897">
        <ele>162</ele>
        <time>2012-05-19T14:40:16.000Z</time>
      </trkpt>
      <trkpt lat="44.3585" lon="4.24924">
        <ele>163</ele>
        <time>2012-05-19T14:40:22.000Z</time>
      </trkpt>
      <trkpt lat="44.35849" lon="4.24938">
        <ele>163</ele>
        <time>2012-05-19T14:40:25.000Z</time>
      </trkpt>
      <trkpt lat="44.35843" lon="4.24966">
        <ele>163.39999389648</ele>
        <time>2012-05-19T14:40:31.000Z</time>
      </trkpt>
      <trkpt lat="44.35842" lon="4.2497">
        <ele>163.60000610352</ele>
        <time>2012-05-19T14:40:32.000Z</time>
      </trkpt>
      <trkpt lat="44.35832" lon="4.24992">
        <ele>164</ele>
        <time>2012-05-19T14:40:38.000Z</time>
      </trkpt>
      <trkpt lat="44.35828" lon="4.24999">
        <ele>164.19999694824</ele>
        <time>2012-05-19T14:40:40.000Z</time>
      </trkpt>
      <trkpt lat="44.35815" lon="4.25021">
        <ele>164.80000305176</ele>
        <time>2012-05-19T14:40:47.000Z</time>
      </trkpt>
      <trkpt lat="44.35809" lon="4.2503">
        <ele>165</ele>
        <time>2012-05-19T14:40:50.000Z</time>
      </trkpt>
      <trkpt lat="44.35796" lon="4.25051">
        <ele>165.60000610352</ele>
        <time>2012-05-19T14:40:56.000Z</time>
      </trkpt>
      <trkpt lat="44.35784" lon="4.25065">
        <ele>166.19999694824</ele>
        <time>2012-05-19T14:41:01.000Z</time>
      </trkpt>
      <trkpt lat="44.35769" lon="4.2508">
        <ele>167</ele>
        <time>2012-05-19T14:41:07.000Z</time>
      </trkpt>
      <trkpt lat="44.3576" lon="4.25091">
        <ele>167.60000610352</ele>
        <time>2012-05-19T14:41:11.000Z</time>
      </trkpt>
      <trkpt lat="44.35748" lon="4.2511">
        <ele>168.39999389648</ele>
        <time>2012-05-19T14:41:17.000Z</time>
      </trkpt>
      <trkpt lat="44.35741" lon="4.25121">
        <ele>168.60000610352</ele>
        <time>2012-05-19T14:41:21.000Z</time>
      </trkpt>
      <trkpt lat="44.35733" lon="4.25138">
        <ele>168.80000305176</ele>
        <time>2012-05-19T14:41:28.000Z</time>
      </trkpt>
      <trkpt lat="44.35731" lon="4.25146">
        <ele>168.80000305176</ele>
        <time>2012-05-19T14:41:33.000Z</time>
      </trkpt>
      <trkpt lat="44.35731" lon="4.25147">
        <ele>168.80000305176</ele>
        <time>2012-05-19T14:41:34.000Z</time>
      </trkpt>
      <trkpt lat="44.35732" lon="4.25147">
        <ele>168.80000305176</ele>
        <time>2012-05-19T14:41:39.000Z</time>
      </trkpt>
      <trkpt lat="44.3573" lon="4.25148">
        <ele>168.80000305176</ele>
        <time>2012-05-19T14:42:07.000Z</time>
      </trkpt>
      <trkpt lat="44.35729" lon="4.25146">
        <ele>168.80000305176</ele>
        <time>2012-05-19T14:42:08.000Z</time>
      </trkpt>
      <trkpt lat="44.35728" lon="4.25144">
        <ele>168.80000305176</ele>
        <time>2012-05-19T14:42:12.000Z</time>
      </trkpt>
      <trkpt lat="44.35731" lon="4.25152">
        <ele>168.80000305176</ele>
        <time>2012-05-19T14:42:49.000Z</time>
      </trkpt>
      <trkpt lat="44.3574" lon="4.25175">
        <ele>168.80000305176</ele>
        <time>2012-05-19T14:42:57.000Z</time>
      </trkpt>
      <trkpt lat="44.35753" lon="4.25202">
        <ele>168</ele>
        <time>2012-05-19T14:43:02.000Z</time>
      </trkpt>
      <trkpt lat="44.35756" lon="4.25208">
        <ele>167.80000305176</ele>
        <time>2012-05-19T14:43:03.000Z</time>
      </trkpt>
      <trkpt lat="44.35768" lon="4.2523">
        <ele>167</ele>
        <time>2012-05-19T14:43:06.000Z</time>
      </trkpt>
      <trkpt lat="44.35775" lon="4.25245">
        <ele>166.80000305176</ele>
        <time>2012-05-19T14:43:08.000Z</time>
      </trkpt>
      <trkpt lat="44.35785" lon="4.25266">
        <ele>166.60000610352</ele>
        <time>2012-05-19T14:43:11.000Z</time>
      </trkpt>
      <trkpt lat="44.35788" lon="4.25274">
        <ele>166.60000610352</ele>
        <time>2012-05-19T14:43:12.000Z</time>
      </trkpt>
      <trkpt lat="44.35792" lon="4.25288">
        <ele>166.80000305176</ele>
        <time>2012-05-19T14:43:14.000Z</time>
      </trkpt>
      <trkpt lat="44.35799" lon="4.25312">
        <ele>166.80000305176</ele>
        <time>2012-05-19T14:43:18.000Z</time>
      </trkpt>
      <trkpt lat="44.35803" lon="4.25323">
        <ele>167</ele>
        <time>2012-05-19T14:43:20.000Z</time>
      </trkpt>
      <trkpt lat="44.35812" lon="4.25349">
        <ele>167.19999694824</ele>
        <time>2012-05-19T14:43:25.000Z</time>
      </trkpt>
      <trkpt lat="44.35819" lon="4.25364">
        <ele>167.39999389648</ele>
        <time>2012-05-19T14:43:28.000Z</time>
      </trkpt>
      <trkpt lat="44.35828" lon="4.25387">
        <ele>167.60000610352</ele>
        <time>2012-05-19T14:43:32.000Z</time>
      </trkpt>
      <trkpt lat="44.35834" lon="4.25411">
        <ele>168</ele>
        <time>2012-05-19T14:43:36.000Z</time>
      </trkpt>
      <trkpt lat="44.3584" lon="4.25441">
        <ele>168.19999694824</ele>
        <time>2012-05-19T14:43:41.000Z</time>
      </trkpt>
      <trkpt lat="44.35842" lon="4.2546">
        <ele>168.39999389648</ele>
        <time>2012-05-19T14:43:44.000Z</time>
      </trkpt>
      <trkpt lat="44.35842" lon="4.25486">
        <ele>168.80000305176</ele>
        <time>2012-05-19T14:43:48.000Z</time>
      </trkpt>
      <trkpt lat="44.35841" lon="4.2551">
        <ele>168.80000305176</ele>
        <time>2012-05-19T14:43:52.000Z</time>
      </trkpt>
      <trkpt lat="44.3584" lon="4.25535">
        <ele>168.39999389648</ele>
        <time>2012-05-19T14:43:56.000Z</time>
      </trkpt>
      <trkpt lat="44.3584" lon="4.25561">
        <ele>168.19999694824</ele>
        <time>2012-05-19T14:44:00.000Z</time>
      </trkpt>
      <trkpt lat="44.35839" lon="4.25567">
        <ele>168.19999694824</ele>
        <time>2012-05-19T14:44:01.000Z</time>
      </trkpt>
      <trkpt lat="44.35839" lon="4.25595">
        <ele>167.80000305176</ele>
        <time>2012-05-19T14:44:05.000Z</time>
      </trkpt>
      <trkpt lat="44.3584" lon="4.25612">
        <ele>167.60000610352</ele>
        <time>2012-05-19T14:44:07.000Z</time>
      </trkpt>
      <trkpt lat="44.35847" lon="4.25642">
        <ele>167.19999694824</ele>
        <time>2012-05-19T14:44:11.000Z</time>
      </trkpt>
      <trkpt lat="44.3585" lon="4.25649">
        <ele>167</ele>
        <time>2012-05-19T14:44:12.000Z</time>
      </trkpt>
      <trkpt lat="44.35858" lon="4.25662">
        <ele>166.80000305176</ele>
        <time>2012-05-19T14:44:14.000Z</time>
      </trkpt>
      <trkpt lat="44.35864" lon="4.25676">
        <ele>166.80000305176</ele>
        <time>2012-05-19T14:44:16.000Z</time>
      </trkpt>
      <trkpt lat="44.35865" lon="4.25685">
        <ele>166.80000305176</ele>
        <time>2012-05-19T14:44:17.000Z</time>
      </trkpt>
      <trkpt lat="44.35863" lon="4.2571">
        <ele>167.19999694824</ele>
        <time>2012-05-19T14:44:20.000Z</time>
      </trkpt>
      <trkpt lat="44.35858" lon="4.25741">
        <ele>167.60000610352</ele>
        <time>2012-05-19T14:44:24.000Z</time>
      </trkpt>
      <trkpt lat="44.35852" lon="4.25772">
        <ele>168</ele>
        <time>2012-05-19T14:44:28.000Z</time>
      </trkpt>
      <trkpt lat="44.35846" lon="4.258">
        <ele>168.39999389648</ele>
        <time>2012-05-19T14:44:32.000Z</time>
      </trkpt>
      <trkpt lat="44.35846" lon="4.25806">
        <ele>168.39999389648</ele>
        <time>2012-05-19T14:44:33.000Z</time>
      </trkpt>
      <trkpt lat="44.3585" lon="4.25827">
        <ele>168.60000610352</ele>
        <time>2012-05-19T14:44:36.000Z</time>
      </trkpt>
      <trkpt lat="44.35852" lon="4.25833">
        <ele>168.60000610352</ele>
        <time>2012-05-19T14:44:37.000Z</time>
      </trkpt>
      <trkpt lat="44.35858" lon="4.25851">
        <ele>168.80000305176</ele>
        <time>2012-05-19T14:44:40.000Z</time>
      </trkpt>
      <trkpt lat="44.35861" lon="4.25863">
        <ele>169</ele>
        <time>2012-05-19T14:44:42.000Z</time>
      </trkpt>
      <trkpt lat="44.35863" lon="4.25889">
        <ele>169.60000610352</ele>
        <time>2012-05-19T14:44:46.000Z</time>
      </trkpt>
      <trkpt lat="44.35862" lon="4.25903">
        <ele>170</ele>
        <time>2012-05-19T14:44:48.000Z</time>
      </trkpt>
      <trkpt lat="44.35858" lon="4.25927">
        <ele>170.80000305176</ele>
        <time>2012-05-19T14:44:52.000Z</time>
      </trkpt>
      <trkpt lat="44.35854" lon="4.25951">
        <ele>171.60000610352</ele>
        <time>2012-05-19T14:44:56.000Z</time>
      </trkpt>
      <trkpt lat="44.35849" lon="4.25981">
        <ele>172.80000305176</ele>
        <time>2012-05-19T14:45:01.000Z</time>
      </trkpt>
      <trkpt lat="44.35847" lon="4.25993">
        <ele>173.19999694824</ele>
        <time>2012-05-19T14:45:03.000Z</time>
      </trkpt>
      <trkpt lat="44.35842" lon="4.26023">
        <ele>174.80000305176</ele>
        <time>2012-05-19T14:45:08.000Z</time>
      </trkpt>
      <trkpt lat="44.3584" lon="4.26047">
        <ele>176</ele>
        <time>2012-05-19T14:45:12.000Z</time>
      </trkpt>
      <trkpt lat="44.3584" lon="4.26053">
        <ele>176.39999389648</ele>
        <time>2012-05-19T14:45:13.000Z</time>
      </trkpt>
      <trkpt lat="44.35845" lon="4.26074">
        <ele>177.19999694824</ele>
        <time>2012-05-19T14:45:17.000Z</time>
      </trkpt>
      <trkpt lat="44.35849" lon="4.26082">
        <ele>177.39999389648</ele>
        <time>2012-05-19T14:45:19.000Z</time>
      </trkpt>
      <trkpt lat="44.35859" lon="4.26098">
        <ele>178</ele>
        <time>2012-05-19T14:45:23.000Z</time>
      </trkpt>
      <trkpt lat="44.35874" lon="4.26118">
        <ele>178.80000305176</ele>
        <time>2012-05-19T14:45:29.000Z</time>
      </trkpt>
      <trkpt lat="44.35879" lon="4.26125">
        <ele>179.19999694824</ele>
        <time>2012-05-19T14:45:31.000Z</time>
      </trkpt>
      <trkpt lat="44.35893" lon="4.26142">
        <ele>180.19999694824</ele>
        <time>2012-05-19T14:45:37.000Z</time>
      </trkpt>
      <trkpt lat="44.35897" lon="4.26147">
        <ele>180.60000610352</ele>
        <time>2012-05-19T14:45:39.000Z</time>
      </trkpt>
      <trkpt lat="44.35911" lon="4.26162">
        <ele>181.60000610352</ele>
        <time>2012-05-19T14:45:45.000Z</time>
      </trkpt>
      <trkpt lat="44.35926" lon="4.26179">
        <ele>182</ele>
        <time>2012-05-19T14:45:51.000Z</time>
      </trkpt>
      <trkpt lat="44.35933" lon="4.26187">
        <ele>182</ele>
        <time>2012-05-19T14:45:54.000Z</time>
      </trkpt>
      <trkpt lat="44.35934" lon="4.2619">
        <ele>182.19999694824</ele>
        <time>2012-05-19T14:45:55.000Z</time>
      </trkpt>
      <trkpt lat="44.35934" lon="4.26198">
        <ele>182.39999389648</ele>
        <time>2012-05-19T14:45:57.000Z</time>
      </trkpt>
      <trkpt lat="44.35926" lon="4.26212">
        <ele>183.60000610352</ele>
        <time>2012-05-19T14:46:01.000Z</time>
      </trkpt>
      <trkpt lat="44.35912" lon="4.26229">
        <ele>185</ele>
        <time>2012-05-19T14:46:07.000Z</time>
      </trkpt>
      <trkpt lat="44.35898" lon="4.26247">
        <ele>186.19999694824</ele>
        <time>2012-05-19T14:46:14.000Z</time>
      </trkpt>
      <trkpt lat="44.35889" lon="4.26257">
        <ele>187</ele>
        <time>2012-05-19T14:46:19.000Z</time>
      </trkpt>
      <trkpt lat="44.35876" lon="4.26272">
        <ele>188</ele>
        <time>2012-05-19T14:46:25.000Z</time>
      </trkpt>
      <trkpt lat="44.35861" lon="4.2629">
        <ele>189.39999389648</ele>
        <time>2012-05-19T14:46:32.000Z</time>
      </trkpt>
      <trkpt lat="44.35852" lon="4.26313">
        <ele>191.19999694824</ele>
        <time>2012-05-19T14:46:39.000Z</time>
      </trkpt>
      <trkpt lat="44.35851" lon="4.26336">
        <ele>192.60000610352</ele>
        <time>2012-05-19T14:46:45.000Z</time>
      </trkpt>
      <trkpt lat="44.35862" lon="4.26357">
        <ele>192.19999694824</ele>
        <time>2012-05-19T14:46:51.000Z</time>
      </trkpt>
      <trkpt lat="44.35873" lon="4.26379">
        <ele>191.80000305176</ele>
        <time>2012-05-19T14:46:56.000Z</time>
      </trkpt>
      <trkpt lat="44.35873" lon="4.26384">
        <ele>192</ele>
        <time>2012-05-19T14:46:57.000Z</time>
      </trkpt>
      <trkpt lat="44.35866" lon="4.26401">
        <ele>193</ele>
        <time>2012-05-19T14:47:01.000Z</time>
      </trkpt>
      <trkpt lat="44.35852" lon="4.26421">
        <ele>195</ele>
        <time>2012-05-19T14:47:07.000Z</time>
      </trkpt>
      <trkpt lat="44.35846" lon="4.26426">
        <ele>195.60000610352</ele>
        <time>2012-05-19T14:47:09.000Z</time>
      </trkpt>
      <trkpt lat="44.3583" lon="4.26443">
        <ele>198.19999694824</ele>
        <time>2012-05-19T14:47:15.000Z</time>
      </trkpt>
      <trkpt lat="44.35817" lon="4.26465">
        <ele>203.19999694824</ele>
        <time>2012-05-19T14:47:22.000Z</time>
      </trkpt>
      <trkpt lat="44.35809" lon="4.2649">
        <ele>207.19999694824</ele>
        <time>2012-05-19T14:47:28.000Z</time>
      </trkpt>
      <trkpt lat="44.35808" lon="4.26495">
        <ele>207.80000305176</ele>
        <time>2012-05-19T14:47:29.000Z</time>
      </trkpt>
      <trkpt lat="44.35801" lon="4.26513">
        <ele>212.60000610352</ele>
        <time>2012-05-19T14:47:33.000Z</time>
      </trkpt>
      <trkpt lat="44.35794" lon="4.2654">
        <ele>218.60000610352</ele>
        <time>2012-05-19T14:47:38.000Z</time>
      </trkpt>
      <trkpt lat="44.35795" lon="4.26547">
        <ele>219.19999694824</ele>
        <time>2012-05-19T14:47:39.000Z</time>
      </trkpt>
      <trkpt lat="44.358" lon="4.26555">
        <ele>218.39999389648</ele>
        <time>2012-05-19T14:47:41.000Z</time>
      </trkpt>
      <trkpt lat="44.35804" lon="4.26557">
        <ele>217.60000610352</ele>
        <time>2012-05-19T14:47:42.000Z</time>
      </trkpt>
      <trkpt lat="44.35814" lon="4.26555">
        <ele>214</ele>
        <time>2012-05-19T14:47:45.000Z</time>
      </trkpt>
      <trkpt lat="44.35817" lon="4.26553">
        <ele>212.39999389648</ele>
        <time>2012-05-19T14:47:46.000Z</time>
      </trkpt>
      <trkpt lat="44.35835" lon="4.26543">
        <ele>205.19999694824</ele>
        <time>2012-05-19T14:47:52.000Z</time>
      </trkpt>
      <trkpt lat="44.35851" lon="4.2654">
        <ele>203.19999694824</ele>
        <time>2012-05-19T14:47:59.000Z</time>
      </trkpt>
      <trkpt lat="44.35866" lon="4.26544">
        <ele>202.60000610352</ele>
        <time>2012-05-19T14:48:04.000Z</time>
      </trkpt>
      <trkpt lat="44.3588" lon="4.26551">
        <ele>202.80000305176</ele>
        <time>2012-05-19T14:48:11.000Z</time>
      </trkpt>
      <trkpt lat="44.3589" lon="4.26562">
        <ele>203.80000305176</ele>
        <time>2012-05-19T14:48:16.000Z</time>
      </trkpt>
      <trkpt lat="44.35901" lon="4.26582">
        <ele>206.39999389648</ele>
        <time>2012-05-19T14:48:22.000Z</time>
      </trkpt>
      <trkpt lat="44.35903" lon="4.26586">
        <ele>206.80000305176</ele>
        <time>2012-05-19T14:48:23.000Z</time>
      </trkpt>
      <trkpt lat="44.35912" lon="4.26604">
        <ele>210.19999694824</ele>
        <time>2012-05-19T14:48:29.000Z</time>
      </trkpt>
      <trkpt lat="44.35917" lon="4.2661">
        <ele>211</ele>
        <time>2012-05-19T14:48:33.000Z</time>
      </trkpt>
      <trkpt lat="44.35918" lon="4.2661">
        <ele>211.19999694824</ele>
        <time>2012-05-19T14:48:34.000Z</time>
      </trkpt>
      <trkpt lat="44.35926" lon="4.2661">
        <ele>211.60000610352</ele>
        <time>2012-05-19T14:48:37.000Z</time>
      </trkpt>
      <trkpt lat="44.35932" lon="4.26609">
        <ele>211.80000305176</ele>
        <time>2012-05-19T14:48:39.000Z</time>
      </trkpt>
      <trkpt lat="44.35946" lon="4.26605">
        <ele>211.80000305176</ele>
        <time>2012-05-19T14:48:45.000Z</time>
      </trkpt>
      <trkpt lat="44.35956" lon="4.26598">
        <ele>210.39999389648</ele>
        <time>2012-05-19T14:48:50.000Z</time>
      </trkpt>
      <trkpt lat="44.35968" lon="4.26585">
        <ele>207.19999694824</ele>
        <time>2012-05-19T14:48:56.000Z</time>
      </trkpt>
      <trkpt lat="44.35977" lon="4.26572">
        <ele>205.19999694824</ele>
        <time>2012-05-19T14:49:02.000Z</time>
      </trkpt>
      <trkpt lat="44.35987" lon="4.26555">
        <ele>202.39999389648</ele>
        <time>2012-05-19T14:49:07.000Z</time>
      </trkpt>
      <trkpt lat="44.35995" lon="4.26541">
        <ele>200.39999389648</ele>
        <time>2012-05-19T14:49:12.000Z</time>
      </trkpt>
      <trkpt lat="44.35997" lon="4.2652">
        <ele>196.39999389648</ele>
        <time>2012-05-19T14:49:17.000Z</time>
      </trkpt>
      <trkpt lat="44.35993" lon="4.26493">
        <ele>192.19999694824</ele>
        <time>2012-05-19T14:49:22.000Z</time>
      </trkpt>
      <trkpt lat="44.35991" lon="4.26487">
        <ele>191.60000610352</ele>
        <time>2012-05-19T14:49:23.000Z</time>
      </trkpt>
      <trkpt lat="44.35988" lon="4.26472">
        <ele>190.19999694824</ele>
        <time>2012-05-19T14:49:25.000Z</time>
      </trkpt>
      <trkpt lat="44.35989" lon="4.26466">
        <ele>189.80000305176</ele>
        <time>2012-05-19T14:49:26.000Z</time>
      </trkpt>
      <trkpt lat="44.35997" lon="4.26452">
        <ele>188.39999389648</ele>
        <time>2012-05-19T14:49:29.000Z</time>
      </trkpt>
      <trkpt lat="44.36001" lon="4.26448">
        <ele>188</ele>
        <time>2012-05-19T14:49:30.000Z</time>
      </trkpt>
      <trkpt lat="44.36016" lon="4.26433">
        <ele>186</ele>
        <time>2012-05-19T14:49:34.000Z</time>
      </trkpt>
      <trkpt lat="44.36021" lon="4.2643">
        <ele>185.39999389648</ele>
        <time>2012-05-19T14:49:35.000Z</time>
      </trkpt>
      <trkpt lat="44.36034" lon="4.26418">
        <ele>184</ele>
        <time>2012-05-19T14:49:38.000Z</time>
      </trkpt>
      <trkpt lat="44.36051" lon="4.26411">
        <ele>182.80000305176</ele>
        <time>2012-05-19T14:49:41.000Z</time>
      </trkpt>
      <trkpt lat="44.36072" lon="4.264">
        <ele>181.60000610352</ele>
        <time>2012-05-19T14:49:44.000Z</time>
      </trkpt>
      <trkpt lat="44.36078" lon="4.26396">
        <ele>181.19999694824</ele>
        <time>2012-05-19T14:49:45.000Z</time>
      </trkpt>
      <trkpt lat="44.36091" lon="4.2639">
        <ele>180.80000305176</ele>
        <time>2012-05-19T14:49:47.000Z</time>
      </trkpt>
      <trkpt lat="44.36105" lon="4.26387">
        <ele>180.80000305176</ele>
        <time>2012-05-19T14:49:49.000Z</time>
      </trkpt>
      <trkpt lat="44.36123" lon="4.26387">
        <ele>181</ele>
        <time>2012-05-19T14:49:52.000Z</time>
      </trkpt>
      <trkpt lat="44.36128" lon="4.26387">
        <ele>181</ele>
        <time>2012-05-19T14:49:53.000Z</time>
      </trkpt>
      <trkpt lat="44.36147" lon="4.26384">
        <ele>181</ele>
        <time>2012-05-19T14:49:58.000Z</time>
      </trkpt>
      <trkpt lat="44.36166" lon="4.26381">
        <ele>181</ele>
        <time>2012-05-19T14:50:03.000Z</time>
      </trkpt>
      <trkpt lat="44.3617" lon="4.26382">
        <ele>181.19999694824</ele>
        <time>2012-05-19T14:50:04.000Z</time>
      </trkpt>
      <trkpt lat="44.3619" lon="4.26381">
        <ele>182.19999694824</ele>
        <time>2012-05-19T14:50:08.000Z</time>
      </trkpt>
      <trkpt lat="44.36194" lon="4.26381">
        <ele>182.39999389648</ele>
        <time>2012-05-19T14:50:09.000Z</time>
      </trkpt>
      <trkpt lat="44.36216" lon="4.26374">
        <ele>183</ele>
        <time>2012-05-19T14:50:13.000Z</time>
      </trkpt>
      <trkpt lat="44.36226" lon="4.26369">
        <ele>183</ele>
        <time>2012-05-19T14:50:15.000Z</time>
      </trkpt>
      <trkpt lat="44.36241" lon="4.26362">
        <ele>183.19999694824</ele>
        <time>2012-05-19T14:50:18.000Z</time>
      </trkpt>
      <trkpt lat="44.36256" lon="4.2636">
        <ele>183.80000305176</ele>
        <time>2012-05-19T14:50:21.000Z</time>
      </trkpt>
      <trkpt lat="44.36261" lon="4.2636">
        <ele>184</ele>
        <time>2012-05-19T14:50:22.000Z</time>
      </trkpt>
      <trkpt lat="44.36282" lon="4.26362">
        <ele>185</ele>
        <time>2012-05-19T14:50:26.000Z</time>
      </trkpt>
      <trkpt lat="44.36297" lon="4.26361">
        <ele>185.60000610352</ele>
        <time>2012-05-19T14:50:29.000Z</time>
      </trkpt>
      <trkpt lat="44.36302" lon="4.26359">
        <ele>185.60000610352</ele>
        <time>2012-05-19T14:50:30.000Z</time>
      </trkpt>
      <trkpt lat="44.36321" lon="4.26351">
        <ele>185.80000305176</ele>
        <time>2012-05-19T14:50:34.000Z</time>
      </trkpt>
      <trkpt lat="44.36342" lon="4.26345">
        <ele>185.80000305176</ele>
        <time>2012-05-19T14:50:38.000Z</time>
      </trkpt>
      <trkpt lat="44.36359" lon="4.26343">
        <ele>185.80000305176</ele>
        <time>2012-05-19T14:50:41.000Z</time>
      </trkpt>
      <trkpt lat="44.36377" lon="4.26339">
        <ele>185.80000305176</ele>
        <time>2012-05-19T14:50:45.000Z</time>
      </trkpt>
      <trkpt lat="44.36381" lon="4.26338">
        <ele>185.80000305176</ele>
        <time>2012-05-19T14:50:46.000Z</time>
      </trkpt>
      <trkpt lat="44.36401" lon="4.26327">
        <ele>185.60000610352</ele>
        <time>2012-05-19T14:50:50.000Z</time>
      </trkpt>
      <trkpt lat="44.3642" lon="4.26316">
        <ele>185.39999389648</ele>
        <time>2012-05-19T14:50:53.000Z</time>
      </trkpt>
      <trkpt lat="44.36426" lon="4.26312">
        <ele>185</ele>
        <time>2012-05-19T14:50:54.000Z</time>
      </trkpt>
      <trkpt lat="44.36434" lon="4.26307">
        <ele>184.39999389648</ele>
        <time>2012-05-19T14:50:55.000Z</time>
      </trkpt>
      <trkpt lat="44.36455" lon="4.26292">
        <ele>183</ele>
        <time>2012-05-19T14:50:58.000Z</time>
      </trkpt>
      <trkpt lat="44.36463" lon="4.26286">
        <ele>182.39999389648</ele>
        <time>2012-05-19T14:50:59.000Z</time>
      </trkpt>
      <trkpt lat="44.36487" lon="4.26273">
        <ele>180.60000610352</ele>
        <time>2012-05-19T14:51:02.000Z</time>
      </trkpt>
      <trkpt lat="44.36495" lon="4.26271">
        <ele>180</ele>
        <time>2012-05-19T14:51:03.000Z</time>
      </trkpt>
      <trkpt lat="44.36511" lon="4.26268">
        <ele>179.39999389648</ele>
        <time>2012-05-19T14:51:05.000Z</time>
      </trkpt>
      <trkpt lat="44.36527" lon="4.26264">
        <ele>179</ele>
        <time>2012-05-19T14:51:07.000Z</time>
      </trkpt>
      <trkpt lat="44.36549" lon="4.26261">
        <ele>178.60000610352</ele>
        <time>2012-05-19T14:51:10.000Z</time>
      </trkpt>
      <trkpt lat="44.36555" lon="4.26261">
        <ele>178.60000610352</ele>
        <time>2012-05-19T14:51:11.000Z</time>
      </trkpt>
      <trkpt lat="44.36559" lon="4.26264">
        <ele>178.60000610352</ele>
        <time>2012-05-19T14:51:12.000Z</time>
      </trkpt>
      <trkpt lat="44.36559" lon="4.26276">
        <ele>178.80000305176</ele>
        <time>2012-05-19T14:51:15.000Z</time>
      </trkpt>
      <trkpt lat="44.36552" lon="4.26286">
        <ele>179.19999694824</ele>
        <time>2012-05-19T14:51:18.000Z</time>
      </trkpt>
      <trkpt lat="44.36546" lon="4.26296">
        <ele>179.39999389648</ele>
        <time>2012-05-19T14:51:21.000Z</time>
      </trkpt>
      <trkpt lat="44.36535" lon="4.26318">
        <ele>180.39999389648</ele>
        <time>2012-05-19T14:51:27.000Z</time>
      </trkpt>
      <trkpt lat="44.36531" lon="4.26326">
        <ele>180.60000610352</ele>
        <time>2012-05-19T14:51:29.000Z</time>
      </trkpt>
      <trkpt lat="44.36519" lon="4.26348">
        <ele>181.80000305176</ele>
        <time>2012-05-19T14:51:35.000Z</time>
      </trkpt>
      <trkpt lat="44.36515" lon="4.26356">
        <ele>182.39999389648</ele>
        <time>2012-05-19T14:51:37.000Z</time>
      </trkpt>
      <trkpt lat="44.36506" lon="4.26379">
        <ele>183.39999389648</ele>
        <time>2012-05-19T14:51:43.000Z</time>
      </trkpt>
      <trkpt lat="44.36502" lon="4.26387">
        <ele>183.80000305176</ele>
        <time>2012-05-19T14:51:45.000Z</time>
      </trkpt>
      <trkpt lat="44.36493" lon="4.26412">
        <ele>185</ele>
        <time>2012-05-19T14:51:51.000Z</time>
      </trkpt>
      <trkpt lat="44.36489" lon="4.2642">
        <ele>185.19999694824</ele>
        <time>2012-05-19T14:51:53.000Z</time>
      </trkpt>
      <trkpt lat="44.36483" lon="4.26448">
        <ele>186</ele>
        <time>2012-05-19T14:51:59.000Z</time>
      </trkpt>
      <trkpt lat="44.36479" lon="4.26474">
        <ele>186.60000610352</ele>
        <time>2012-05-19T14:52:05.000Z</time>
      </trkpt>
      <trkpt lat="44.36476" lon="4.26494">
        <ele>187.19999694824</ele>
        <time>2012-05-19T14:52:10.000Z</time>
      </trkpt>
      <trkpt lat="44.36478" lon="4.26522">
        <ele>189</ele>
        <time>2012-05-19T14:52:17.000Z</time>
      </trkpt>
      <trkpt lat="44.36488" lon="4.26546">
        <ele>190.80000305176</ele>
        <time>2012-05-19T14:52:24.000Z</time>
      </trkpt>
      <trkpt lat="44.36505" lon="4.26558">
        <ele>192</ele>
        <time>2012-05-19T14:52:30.000Z</time>
      </trkpt>
      <trkpt lat="44.36508" lon="4.26558">
        <ele>192</ele>
        <time>2012-05-19T14:52:31.000Z</time>
      </trkpt>
      <trkpt lat="44.36528" lon="4.26562">
        <ele>192.80000305176</ele>
        <time>2012-05-19T14:52:38.000Z</time>
      </trkpt>
      <trkpt lat="44.36548" lon="4.26565">
        <ele>193.39999389648</ele>
        <time>2012-05-19T14:52:45.000Z</time>
      </trkpt>
      <trkpt lat="44.36554" lon="4.26567">
        <ele>193.60000610352</ele>
        <time>2012-05-19T14:52:47.000Z</time>
      </trkpt>
      <trkpt lat="44.36574" lon="4.26573">
        <ele>194.80000305176</ele>
        <time>2012-05-19T14:52:54.000Z</time>
      </trkpt>
      <trkpt lat="44.36577" lon="4.26575">
        <ele>195</ele>
        <time>2012-05-19T14:52:55.000Z</time>
      </trkpt>
      <trkpt lat="44.36593" lon="4.26588">
        <ele>195.80000305176</ele>
        <time>2012-05-19T14:53:01.000Z</time>
      </trkpt>
      <trkpt lat="44.36598" lon="4.26593">
        <ele>195.80000305176</ele>
        <time>2012-05-19T14:53:03.000Z</time>
      </trkpt>
      <trkpt lat="44.36614" lon="4.26613">
        <ele>196.39999389648</ele>
        <time>2012-05-19T14:53:10.000Z</time>
      </trkpt>
      <trkpt lat="44.36619" lon="4.26622">
        <ele>196.80000305176</ele>
        <time>2012-05-19T14:53:13.000Z</time>
      </trkpt>
      <trkpt lat="44.3663" lon="4.26645">
        <ele>198</ele>
        <time>2012-05-19T14:53:20.000Z</time>
      </trkpt>
      <trkpt lat="44.36631" lon="4.26648">
        <ele>198.19999694824</ele>
        <time>2012-05-19T14:53:21.000Z</time>
      </trkpt>
      <trkpt lat="44.36637" lon="4.26674">
        <ele>199.80000305176</ele>
        <time>2012-05-19T14:53:27.000Z</time>
      </trkpt>
      <trkpt lat="44.36638" lon="4.26679">
        <ele>200</ele>
        <time>2012-05-19T14:53:28.000Z</time>
      </trkpt>
      <trkpt lat="44.36641" lon="4.26707">
        <ele>201.39999389648</ele>
        <time>2012-05-19T14:53:34.000Z</time>
      </trkpt>
      <trkpt lat="44.36642" lon="4.26719">
        <ele>202.19999694824</ele>
        <time>2012-05-19T14:53:37.000Z</time>
      </trkpt>
      <trkpt lat="44.36641" lon="4.26748">
        <ele>203.80000305176</ele>
        <time>2012-05-19T14:53:44.000Z</time>
      </trkpt>
      <trkpt lat="44.36641" lon="4.26752">
        <ele>204</ele>
        <time>2012-05-19T14:53:45.000Z</time>
      </trkpt>
      <trkpt lat="44.36633" lon="4.26776">
        <ele>206.39999389648</ele>
        <time>2012-05-19T14:53:52.000Z</time>
      </trkpt>
      <trkpt lat="44.36621" lon="4.2679">
        <ele>208.80000305176</ele>
        <time>2012-05-19T14:53:58.000Z</time>
      </trkpt>
      <trkpt lat="44.36604" lon="4.26797">
        <ele>211.39999389648</ele>
        <time>2012-05-19T14:54:05.000Z</time>
      </trkpt>
      <trkpt lat="44.36601" lon="4.26797">
        <ele>211.60000610352</ele>
        <time>2012-05-19T14:54:06.000Z</time>
      </trkpt>
      <trkpt lat="44.36581" lon="4.26801">
        <ele>214.19999694824</ele>
        <time>2012-05-19T14:54:13.000Z</time>
      </trkpt>
      <trkpt lat="44.36578" lon="4.26802">
        <ele>214.39999389648</ele>
        <time>2012-05-19T14:54:14.000Z</time>
      </trkpt>
      <trkpt lat="44.36558" lon="4.26807">
        <ele>215.39999389648</ele>
        <time>2012-05-19T14:54:21.000Z</time>
      </trkpt>
      <trkpt lat="44.36552" lon="4.26808">
        <ele>215.80000305176</ele>
        <time>2012-05-19T14:54:23.000Z</time>
      </trkpt>
      <trkpt lat="44.36533" lon="4.26809">
        <ele>216.39999389648</ele>
        <time>2012-05-19T14:54:30.000Z</time>
      </trkpt>
      <trkpt lat="44.36527" lon="4.26809">
        <ele>216.60000610352</ele>
        <time>2012-05-19T14:54:32.000Z</time>
      </trkpt>
      <trkpt lat="44.36508" lon="4.26808">
        <ele>216.80000305176</ele>
        <time>2012-05-19T14:54:39.000Z</time>
      </trkpt>
      <trkpt lat="44.36502" lon="4.26807">
        <ele>217</ele>
        <time>2012-05-19T14:54:41.000Z</time>
      </trkpt>
      <trkpt lat="44.36483" lon="4.26806">
        <ele>216.80000305176</ele>
        <time>2012-05-19T14:54:48.000Z</time>
      </trkpt>
      <trkpt lat="44.36474" lon="4.26807">
        <ele>216.80000305176</ele>
        <time>2012-05-19T14:54:51.000Z</time>
      </trkpt>
      <trkpt lat="44.36456" lon="4.26812">
        <ele>217.80000305176</ele>
        <time>2012-05-19T14:54:58.000Z</time>
      </trkpt>
      <trkpt lat="44.36453" lon="4.26814">
        <ele>218</ele>
        <time>2012-05-19T14:54:59.000Z</time>
      </trkpt>
      <trkpt lat="44.36439" lon="4.26827">
        <ele>220.60000610352</ele>
        <time>2012-05-19T14:55:05.000Z</time>
      </trkpt>
      <trkpt lat="44.36427" lon="4.26848">
        <ele>223</ele>
        <time>2012-05-19T14:55:12.000Z</time>
      </trkpt>
      <trkpt lat="44.36416" lon="4.26871">
        <ele>224.80000305176</ele>
        <time>2012-05-19T14:55:19.000Z</time>
      </trkpt>
      <trkpt lat="44.36415" lon="4.26874">
        <ele>225</ele>
        <time>2012-05-19T14:55:20.000Z</time>
      </trkpt>
      <trkpt lat="44.36399" lon="4.2689">
        <ele>227</ele>
        <time>2012-05-19T14:55:27.000Z</time>
      </trkpt>
      <trkpt lat="44.3638" lon="4.26895">
        <ele>228.60000610352</ele>
        <time>2012-05-19T14:55:34.000Z</time>
      </trkpt>
      <trkpt lat="44.36361" lon="4.26892">
        <ele>229</ele>
        <time>2012-05-19T14:55:41.000Z</time>
      </trkpt>
      <trkpt lat="44.36356" lon="4.2689">
        <ele>229.19999694824</ele>
        <time>2012-05-19T14:55:43.000Z</time>
      </trkpt>
      <trkpt lat="44.36337" lon="4.26886">
        <ele>229.39999389648</ele>
        <time>2012-05-19T14:55:50.000Z</time>
      </trkpt>
      <trkpt lat="44.36334" lon="4.26886">
        <ele>229.39999389648</ele>
        <time>2012-05-19T14:55:51.000Z</time>
      </trkpt>
      <trkpt lat="44.36315" lon="4.26892">
        <ele>230.80000305176</ele>
        <time>2012-05-19T14:55:58.000Z</time>
      </trkpt>
      <trkpt lat="44.36307" lon="4.26896">
        <ele>231.80000305176</ele>
        <time>2012-05-19T14:56:01.000Z</time>
      </trkpt>
      <trkpt lat="44.36292" lon="4.26906">
        <ele>233.80000305176</ele>
        <time>2012-05-19T14:56:07.000Z</time>
      </trkpt>
      <trkpt lat="44.36273" lon="4.26918">
        <ele>235.80000305176</ele>
        <time>2012-05-19T14:56:14.000Z</time>
      </trkpt>
      <trkpt lat="44.36265" lon="4.26923">
        <ele>236.60000610352</ele>
        <time>2012-05-19T14:56:17.000Z</time>
      </trkpt>
      <trkpt lat="44.36246" lon="4.26931">
        <ele>238</ele>
        <time>2012-05-19T14:56:23.000Z</time>
      </trkpt>
      <trkpt lat="44.36226" lon="4.26936">
        <ele>239</ele>
        <time>2012-05-19T14:56:29.000Z</time>
      </trkpt>
      <trkpt lat="44.36219" lon="4.26939">
        <ele>239.60000610352</ele>
        <time>2012-05-19T14:56:31.000Z</time>
      </trkpt>
      <trkpt lat="44.36202" lon="4.26949">
        <ele>241.19999694824</ele>
        <time>2012-05-19T14:56:36.000Z</time>
      </trkpt>
      <trkpt lat="44.36188" lon="4.26957">
        <ele>243</ele>
        <time>2012-05-19T14:56:40.000Z</time>
      </trkpt>
      <trkpt lat="44.36169" lon="4.2697">
        <ele>245.60000610352</ele>
        <time>2012-05-19T14:56:46.000Z</time>
      </trkpt>
      <trkpt lat="44.3616" lon="4.26977">
        <ele>247</ele>
        <time>2012-05-19T14:56:49.000Z</time>
      </trkpt>
      <trkpt lat="44.3614" lon="4.26991">
        <ele>250</ele>
        <time>2012-05-19T14:56:55.000Z</time>
      </trkpt>
      <trkpt lat="44.36133" lon="4.26994">
        <ele>250.80000305176</ele>
        <time>2012-05-19T14:56:57.000Z</time>
      </trkpt>
      <trkpt lat="44.36113" lon="4.27">
        <ele>252.39999389648</ele>
        <time>2012-05-19T14:57:02.000Z</time>
      </trkpt>
      <trkpt lat="44.36105" lon="4.27001">
        <ele>252.60000610352</ele>
        <time>2012-05-19T14:57:04.000Z</time>
      </trkpt>
      <trkpt lat="44.36085" lon="4.27002">
        <ele>253.19999694824</ele>
        <time>2012-05-19T14:57:09.000Z</time>
      </trkpt>
      <trkpt lat="44.36077" lon="4.27001">
        <ele>253.19999694824</ele>
        <time>2012-05-19T14:57:11.000Z</time>
      </trkpt>
      <trkpt lat="44.36058" lon="4.27">
        <ele>253</ele>
        <time>2012-05-19T14:57:16.000Z</time>
      </trkpt>
      <trkpt lat="44.36039" lon="4.27001">
        <ele>253.19999694824</ele>
        <time>2012-05-19T14:57:21.000Z</time>
      </trkpt>
      <trkpt lat="44.3602" lon="4.27011">
        <ele>254.80000305176</ele>
        <time>2012-05-19T14:57:26.000Z</time>
      </trkpt>
      <trkpt lat="44.36016" lon="4.27014">
        <ele>255.19999694824</ele>
        <time>2012-05-19T14:57:27.000Z</time>
      </trkpt>
      <trkpt lat="44.36009" lon="4.2702">
        <ele>256</ele>
        <time>2012-05-19T14:57:29.000Z</time>
      </trkpt>
      <trkpt lat="44.35994" lon="4.2703">
        <ele>257.79998779297</ele>
        <time>2012-05-19T14:57:33.000Z</time>
      </trkpt>
      <trkpt lat="44.35976" lon="4.27044">
        <ele>260.20001220703</ele>
        <time>2012-05-19T14:57:38.000Z</time>
      </trkpt>
      <trkpt lat="44.35966" lon="4.27052">
        <ele>261.20001220703</ele>
        <time>2012-05-19T14:57:41.000Z</time>
      </trkpt>
      <trkpt lat="44.35952" lon="4.2707">
        <ele>263</ele>
        <time>2012-05-19T14:57:46.000Z</time>
      </trkpt>
      <trkpt lat="44.35947" lon="4.27078">
        <ele>263.60000610352</ele>
        <time>2012-05-19T14:57:48.000Z</time>
      </trkpt>
      <trkpt lat="44.35938" lon="4.27103">
        <ele>265.20001220703</ele>
        <time>2012-05-19T14:57:53.000Z</time>
      </trkpt>
      <trkpt lat="44.35934" lon="4.27112">
        <ele>265.79998779297</ele>
        <time>2012-05-19T14:57:55.000Z</time>
      </trkpt>
      <trkpt lat="44.35923" lon="4.27134">
        <ele>266.79998779297</ele>
        <time>2012-05-19T14:58:00.000Z</time>
      </trkpt>
      <trkpt lat="44.35915" lon="4.2715">
        <ele>268</ele>
        <time>2012-05-19T14:58:04.000Z</time>
      </trkpt>
      <trkpt lat="44.35905" lon="4.27172">
        <ele>270</ele>
        <time>2012-05-19T14:58:09.000Z</time>
      </trkpt>
      <trkpt lat="44.35899" lon="4.27189">
        <ele>271.20001220703</ele>
        <time>2012-05-19T14:58:13.000Z</time>
      </trkpt>
      <trkpt lat="44.35895" lon="4.27215">
        <ele>273</ele>
        <time>2012-05-19T14:58:19.000Z</time>
      </trkpt>
      <trkpt lat="44.35894" lon="4.27218">
        <ele>273.20001220703</ele>
        <time>2012-05-19T14:58:20.000Z</time>
      </trkpt>
      <trkpt lat="44.35895" lon="4.27242">
        <ele>274.39999389648</ele>
        <time>2012-05-19T14:58:26.000Z</time>
      </trkpt>
      <trkpt lat="44.35899" lon="4.27268">
        <ele>275.20001220703</ele>
        <time>2012-05-19T14:58:33.000Z</time>
      </trkpt>
      <trkpt lat="44.35899" lon="4.27272">
        <ele>275.20001220703</ele>
        <time>2012-05-19T14:58:34.000Z</time>
      </trkpt>
      <trkpt lat="44.359" lon="4.27297">
        <ele>275.79998779297</ele>
        <time>2012-05-19T14:58:41.000Z</time>
      </trkpt>
      <trkpt lat="44.35897" lon="4.27316">
        <ele>276.60000610352</ele>
        <time>2012-05-19T14:58:47.000Z</time>
      </trkpt>
      <trkpt lat="44.35891" lon="4.27338">
        <ele>277.39999389648</ele>
        <time>2012-05-19T14:58:54.000Z</time>
      </trkpt>
      <trkpt lat="44.35883" lon="4.27358">
        <ele>278.79998779297</ele>
        <time>2012-05-19T14:59:01.000Z</time>
      </trkpt>
      <trkpt lat="44.35877" lon="4.2737">
        <ele>279.60000610352</ele>
        <time>2012-05-19T14:59:06.000Z</time>
      </trkpt>
      <trkpt lat="44.35867" lon="4.27392">
        <ele>281.39999389648</ele>
        <time>2012-05-19T14:59:13.000Z</time>
      </trkpt>
      <trkpt lat="44.35859" lon="4.27411">
        <ele>282.79998779297</ele>
        <time>2012-05-19T14:59:19.000Z</time>
      </trkpt>
      <trkpt lat="44.3585" lon="4.27433">
        <ele>284.20001220703</ele>
        <time>2012-05-19T14:59:26.000Z</time>
      </trkpt>
      <trkpt lat="44.35843" lon="4.27453">
        <ele>285.20001220703</ele>
        <time>2012-05-19T14:59:32.000Z</time>
      </trkpt>
      <trkpt lat="44.35838" lon="4.27479">
        <ele>286.20001220703</ele>
        <time>2012-05-19T14:59:39.000Z</time>
      </trkpt>
      <trkpt lat="44.35833" lon="4.27506">
        <ele>287.39999389648</ele>
        <time>2012-05-19T14:59:46.000Z</time>
      </trkpt>
      <trkpt lat="44.35833" lon="4.2751">
        <ele>287.60000610352</ele>
        <time>2012-05-19T14:59:47.000Z</time>
      </trkpt>
      <trkpt lat="44.35829" lon="4.27535">
        <ele>289.39999389648</ele>
        <time>2012-05-19T14:59:54.000Z</time>
      </trkpt>
      <trkpt lat="44.35829" lon="4.27539">
        <ele>289.60000610352</ele>
        <time>2012-05-19T14:59:55.000Z</time>
      </trkpt>
      <trkpt lat="44.35829" lon="4.27568">
        <ele>291.39999389648</ele>
        <time>2012-05-19T15:00:03.000Z</time>
      </trkpt>
      <trkpt lat="44.3583" lon="4.27595">
        <ele>292.60000610352</ele>
        <time>2012-05-19T15:00:11.000Z</time>
      </trkpt>
      <trkpt lat="44.35831" lon="4.27599">
        <ele>292.79998779297</ele>
        <time>2012-05-19T15:00:12.000Z</time>
      </trkpt>
      <trkpt lat="44.3583" lon="4.27627">
        <ele>293.79998779297</ele>
        <time>2012-05-19T15:00:19.000Z</time>
      </trkpt>
      <trkpt lat="44.35822" lon="4.2765">
        <ele>295.39999389648</ele>
        <time>2012-05-19T15:00:26.000Z</time>
      </trkpt>
      <trkpt lat="44.35808" lon="4.27669">
        <ele>297.39999389648</ele>
        <time>2012-05-19T15:00:33.000Z</time>
      </trkpt>
      <trkpt lat="44.35807" lon="4.27672">
        <ele>297.60000610352</ele>
        <time>2012-05-19T15:00:34.000Z</time>
      </trkpt>
      <trkpt lat="44.35792" lon="4.27691">
        <ele>299.79998779297</ele>
        <time>2012-05-19T15:00:42.000Z</time>
      </trkpt>
      <trkpt lat="44.35788" lon="4.27695">
        <ele>300.20001220703</ele>
        <time>2012-05-19T15:00:44.000Z</time>
      </trkpt>
      <trkpt lat="44.35777" lon="4.2771">
        <ele>302</ele>
        <time>2012-05-19T15:00:50.000Z</time>
      </trkpt>
      <trkpt lat="44.35772" lon="4.27718">
        <ele>303</ele>
        <time>2012-05-19T15:00:53.000Z</time>
      </trkpt>
      <trkpt lat="44.35759" lon="4.2774">
        <ele>305.39999389648</ele>
        <time>2012-05-19T15:01:01.000Z</time>
      </trkpt>
      <trkpt lat="44.35758" lon="4.27744">
        <ele>305.60000610352</ele>
        <time>2012-05-19T15:01:02.000Z</time>
      </trkpt>
      <trkpt lat="44.35752" lon="4.27768">
        <ele>308</ele>
        <time>2012-05-19T15:01:08.000Z</time>
      </trkpt>
      <trkpt lat="44.35752" lon="4.27776">
        <ele>308.60000610352</ele>
        <time>2012-05-19T15:01:10.000Z</time>
      </trkpt>
      <trkpt lat="44.35757" lon="4.27803">
        <ele>309.79998779297</ele>
        <time>2012-05-19T15:01:17.000Z</time>
      </trkpt>
      <trkpt lat="44.35765" lon="4.27827">
        <ele>310.39999389648</ele>
        <time>2012-05-19T15:01:24.000Z</time>
      </trkpt>
      <trkpt lat="44.35766" lon="4.2783">
        <ele>310.60000610352</ele>
        <time>2012-05-19T15:01:25.000Z</time>
      </trkpt>
      <trkpt lat="44.35774" lon="4.27856">
        <ele>312.39999389648</ele>
        <time>2012-05-19T15:01:32.000Z</time>
      </trkpt>
      <trkpt lat="44.35777" lon="4.27863">
        <ele>312.79998779297</ele>
        <time>2012-05-19T15:01:34.000Z</time>
      </trkpt>
      <trkpt lat="44.35785" lon="4.27888">
        <ele>314.60000610352</ele>
        <time>2012-05-19T15:01:41.000Z</time>
      </trkpt>
      <trkpt lat="44.35787" lon="4.27895">
        <ele>315.20001220703</ele>
        <time>2012-05-19T15:01:43.000Z</time>
      </trkpt>
      <trkpt lat="44.35797" lon="4.2792">
        <ele>316.60000610352</ele>
        <time>2012-05-19T15:01:50.000Z</time>
      </trkpt>
      <trkpt lat="44.358" lon="4.27926">
        <ele>316.79998779297</ele>
        <time>2012-05-19T15:01:52.000Z</time>
      </trkpt>
      <trkpt lat="44.35812" lon="4.27945">
        <ele>317</ele>
        <time>2012-05-19T15:01:58.000Z</time>
      </trkpt>
      <trkpt lat="44.35816" lon="4.27951">
        <ele>316.79998779297</ele>
        <time>2012-05-19T15:02:00.000Z</time>
      </trkpt>
      <trkpt lat="44.3583" lon="4.2797">
        <ele>316.39999389648</ele>
        <time>2012-05-19T15:02:06.000Z</time>
      </trkpt>
      <trkpt lat="44.35833" lon="4.27977">
        <ele>316.60000610352</ele>
        <time>2012-05-19T15:02:08.000Z</time>
      </trkpt>
      <trkpt lat="44.35832" lon="4.27994">
        <ele>318.60000610352</ele>
        <time>2012-05-19T15:02:12.000Z</time>
      </trkpt>
      <trkpt lat="44.35822" lon="4.28">
        <ele>321.39999389648</ele>
        <time>2012-05-19T15:02:16.000Z</time>
      </trkpt>
      <trkpt lat="44.35811" lon="4.27992">
        <ele>322.60000610352</ele>
        <time>2012-05-19T15:02:20.000Z</time>
      </trkpt>
      <trkpt lat="44.35797" lon="4.27973">
        <ele>323</ele>
        <time>2012-05-19T15:02:26.000Z</time>
      </trkpt>
      <trkpt lat="44.35794" lon="4.2797">
        <ele>323.20001220703</ele>
        <time>2012-05-19T15:02:27.000Z</time>
      </trkpt>
      <trkpt lat="44.35776" lon="4.27956">
        <ele>325</ele>
        <time>2012-05-19T15:02:33.000Z</time>
      </trkpt>
      <trkpt lat="44.3577" lon="4.27952">
        <ele>325.39999389648</ele>
        <time>2012-05-19T15:02:35.000Z</time>
      </trkpt>
      <trkpt lat="44.35752" lon="4.27939">
        <ele>326.79998779297</ele>
        <time>2012-05-19T15:02:41.000Z</time>
      </trkpt>
      <trkpt lat="44.35742" lon="4.2793">
        <ele>326.79998779297</ele>
        <time>2012-05-19T15:02:44.000Z</time>
      </trkpt>
      <trkpt lat="44.35723" lon="4.27918">
        <ele>327</ele>
        <time>2012-05-19T15:02:49.000Z</time>
      </trkpt>
      <trkpt lat="44.35715" lon="4.27915">
        <ele>327.39999389648</ele>
        <time>2012-05-19T15:02:51.000Z</time>
      </trkpt>
      <trkpt lat="44.357" lon="4.27913">
        <ele>329</ele>
        <time>2012-05-19T15:02:55.000Z</time>
      </trkpt>
      <trkpt lat="44.35693" lon="4.27915">
        <ele>330</ele>
        <time>2012-05-19T15:02:57.000Z</time>
      </trkpt>
      <trkpt lat="44.35683" lon="4.27919">
        <ele>331.60000610352</ele>
        <time>2012-05-19T15:03:00.000Z</time>
      </trkpt>
      <trkpt lat="44.35675" lon="4.27924">
        <ele>333.39999389648</ele>
        <time>2012-05-19T15:03:03.000Z</time>
      </trkpt>
      <trkpt lat="44.35657" lon="4.27939">
        <ele>337.79998779297</ele>
        <time>2012-05-19T15:03:10.000Z</time>
      </trkpt>
      <trkpt lat="44.35651" lon="4.27941">
        <ele>338.79998779297</ele>
        <time>2012-05-19T15:03:12.000Z</time>
      </trkpt>
      <trkpt lat="44.35638" lon="4.27937">
        <ele>339.79998779297</ele>
        <time>2012-05-19T15:03:17.000Z</time>
      </trkpt>
      <trkpt lat="44.35623" lon="4.27921">
        <ele>338.79998779297</ele>
        <time>2012-05-19T15:03:24.000Z</time>
      </trkpt>
      <trkpt lat="44.35607" lon="4.27908">
        <ele>339</ele>
        <time>2012-05-19T15:03:31.000Z</time>
      </trkpt>
      <trkpt lat="44.3559" lon="4.27907">
        <ele>340.79998779297</ele>
        <time>2012-05-19T15:03:37.000Z</time>
      </trkpt>
      <trkpt lat="44.35572" lon="4.27912">
        <ele>344.20001220703</ele>
        <time>2012-05-19T15:03:44.000Z</time>
      </trkpt>
      <trkpt lat="44.35567" lon="4.27913">
        <ele>345</ele>
        <time>2012-05-19T15:03:46.000Z</time>
      </trkpt>
      <trkpt lat="44.35551" lon="4.27907">
        <ele>347</ele>
        <time>2012-05-19T15:03:53.000Z</time>
      </trkpt>
      <trkpt lat="44.35542" lon="4.27889">
        <ele>346</ele>
        <time>2012-05-19T15:03:59.000Z</time>
      </trkpt>
      <trkpt lat="44.35534" lon="4.27863">
        <ele>344</ele>
        <time>2012-05-19T15:04:06.000Z</time>
      </trkpt>
      <trkpt lat="44.35531" lon="4.27856">
        <ele>343.79998779297</ele>
        <time>2012-05-19T15:04:08.000Z</time>
      </trkpt>
      <trkpt lat="44.35519" lon="4.2784">
        <ele>344.20001220703</ele>
        <time>2012-05-19T15:04:14.000Z</time>
      </trkpt>
      <trkpt lat="44.35504" lon="4.27826">
        <ele>345.20001220703</ele>
        <time>2012-05-19T15:04:21.000Z</time>
      </trkpt>
      <trkpt lat="44.35487" lon="4.27816">
        <ele>344.79998779297</ele>
        <time>2012-05-19T15:04:28.000Z</time>
      </trkpt>
      <trkpt lat="44.35484" lon="4.27815">
        <ele>344.60000610352</ele>
        <time>2012-05-19T15:04:29.000Z</time>
      </trkpt>
      <trkpt lat="44.35465" lon="4.27814">
        <ele>344.79998779297</ele>
        <time>2012-05-19T15:04:36.000Z</time>
      </trkpt>
      <trkpt lat="44.35463" lon="4.27815">
        <ele>345</ele>
        <time>2012-05-19T15:04:37.000Z</time>
      </trkpt>
      <trkpt lat="44.35447" lon="4.27828">
        <ele>346.79998779297</ele>
        <time>2012-05-19T15:04:44.000Z</time>
      </trkpt>
      <trkpt lat="44.35433" lon="4.27848">
        <ele>349.79998779297</ele>
        <time>2012-05-19T15:04:51.000Z</time>
      </trkpt>
      <trkpt lat="44.35421" lon="4.27871">
        <ele>353.20001220703</ele>
        <time>2012-05-19T15:04:58.000Z</time>
      </trkpt>
      <trkpt lat="44.35419" lon="4.27874">
        <ele>353.79998779297</ele>
        <time>2012-05-19T15:04:59.000Z</time>
      </trkpt>
      <trkpt lat="44.3541" lon="4.27896">
        <ele>356</ele>
        <time>2012-05-19T15:05:05.000Z</time>
      </trkpt>
      <trkpt lat="44.35406" lon="4.27908">
        <ele>356.79998779297</ele>
        <time>2012-05-19T15:05:08.000Z</time>
      </trkpt>
      <trkpt lat="44.35399" lon="4.27932">
        <ele>357.79998779297</ele>
        <time>2012-05-19T15:05:14.000Z</time>
      </trkpt>
      <trkpt lat="44.35398" lon="4.27936">
        <ele>357.79998779297</ele>
        <time>2012-05-19T15:05:15.000Z</time>
      </trkpt>
      <trkpt lat="44.35394" lon="4.27963">
        <ele>359</ele>
        <time>2012-05-19T15:05:22.000Z</time>
      </trkpt>
      <trkpt lat="44.35394" lon="4.27967">
        <ele>359.20001220703</ele>
        <time>2012-05-19T15:05:23.000Z</time>
      </trkpt>
      <trkpt lat="44.35396" lon="4.2799">
        <ele>361.20001220703</ele>
        <time>2012-05-19T15:05:29.000Z</time>
      </trkpt>
      <trkpt lat="44.35401" lon="4.28019">
        <ele>363.79998779297</ele>
        <time>2012-05-19T15:05:35.000Z</time>
      </trkpt>
      <trkpt lat="44.35405" lon="4.28045">
        <ele>365.79998779297</ele>
        <time>2012-05-19T15:05:41.000Z</time>
      </trkpt>
      <trkpt lat="44.35406" lon="4.2807">
        <ele>367.79998779297</ele>
        <time>2012-05-19T15:05:46.000Z</time>
      </trkpt>
      <trkpt lat="44.35408" lon="4.2809">
        <ele>368.79998779297</ele>
        <time>2012-05-19T15:05:50.000Z</time>
      </trkpt>
      <trkpt lat="44.35409" lon="4.281">
        <ele>369.20001220703</ele>
        <time>2012-05-19T15:05:52.000Z</time>
      </trkpt>
      <trkpt lat="44.35415" lon="4.28123">
        <ele>370</ele>
        <time>2012-05-19T15:05:58.000Z</time>
      </trkpt>
      <trkpt lat="44.35423" lon="4.28145">
        <ele>370.79998779297</ele>
        <time>2012-05-19T15:06:06.000Z</time>
      </trkpt>
      <trkpt lat="44.35432" lon="4.28155">
        <ele>371.79998779297</ele>
        <time>2012-05-19T15:06:14.000Z</time>
      </trkpt>
      <trkpt lat="44.35433" lon="4.28155">
        <ele>372</ele>
        <time>2012-05-19T15:06:21.000Z</time>
      </trkpt>
      <trkpt lat="44.35431" lon="4.28164">
        <ele>372.20001220703</ele>
        <time>2012-05-19T15:13:42.000Z</time>
      </trkpt>
      <trkpt lat="44.35439" lon="4.2818">
        <ele>371.39999389648</ele>
        <time>2012-05-19T15:13:48.000Z</time>
      </trkpt>
      <trkpt lat="44.35449" lon="4.28198">
        <ele>370.39999389648</ele>
        <time>2012-05-19T15:13:53.000Z</time>
      </trkpt>
      <trkpt lat="44.35456" lon="4.28219">
        <ele>368.79998779297</ele>
        <time>2012-05-19T15:13:57.000Z</time>
      </trkpt>
      <trkpt lat="44.35465" lon="4.28225">
        <ele>368.60000610352</ele>
        <time>2012-05-19T15:14:01.000Z</time>
      </trkpt>
      <trkpt lat="44.35481" lon="4.28235">
        <ele>368.60000610352</ele>
        <time>2012-05-19T15:14:07.000Z</time>
      </trkpt>
      <trkpt lat="44.35497" lon="4.28247">
        <ele>368.20001220703</ele>
        <time>2012-05-19T15:14:12.000Z</time>
      </trkpt>
      <trkpt lat="44.35501" lon="4.28249">
        <ele>368.20001220703</ele>
        <time>2012-05-19T15:14:13.000Z</time>
      </trkpt>
      <trkpt lat="44.35522" lon="4.28258">
        <ele>368.79998779297</ele>
        <time>2012-05-19T15:14:17.000Z</time>
      </trkpt>
      <trkpt lat="44.35529" lon="4.28261">
        <ele>369.20001220703</ele>
        <time>2012-05-19T15:14:18.000Z</time>
      </trkpt>
      <trkpt lat="44.35545" lon="4.28273">
        <ele>368.60000610352</ele>
        <time>2012-05-19T15:14:21.000Z</time>
      </trkpt>
      <trkpt lat="44.35554" lon="4.28279">
        <ele>368.79998779297</ele>
        <time>2012-05-19T15:14:23.000Z</time>
      </trkpt>
      <trkpt lat="44.35567" lon="4.28293">
        <ele>368.20001220703</ele>
        <time>2012-05-19T15:14:26.000Z</time>
      </trkpt>
      <trkpt lat="44.35575" lon="4.28304">
        <ele>367.39999389648</ele>
        <time>2012-05-19T15:14:28.000Z</time>
      </trkpt>
      <trkpt lat="44.35584" lon="4.28331">
        <ele>364.60000610352</ele>
        <time>2012-05-19T15:14:32.000Z</time>
      </trkpt>
      <trkpt lat="44.35586" lon="4.28348">
        <ele>363</ele>
        <time>2012-05-19T15:14:34.000Z</time>
      </trkpt>
      <trkpt lat="44.35589" lon="4.28374">
        <ele>361.20001220703</ele>
        <time>2012-05-19T15:14:37.000Z</time>
      </trkpt>
      <trkpt lat="44.35593" lon="4.28388">
        <ele>360.79998779297</ele>
        <time>2012-05-19T15:14:39.000Z</time>
      </trkpt>
      <trkpt lat="44.35603" lon="4.28416">
        <ele>361.79998779297</ele>
        <time>2012-05-19T15:14:43.000Z</time>
      </trkpt>
      <trkpt lat="44.35605" lon="4.2842">
        <ele>362.60000610352</ele>
        <time>2012-05-19T15:14:44.000Z</time>
      </trkpt>
      <trkpt lat="44.35612" lon="4.28432">
        <ele>365</ele>
        <time>2012-05-19T15:14:47.000Z</time>
      </trkpt>
      <trkpt lat="44.35615" lon="4.28439">
        <ele>366</ele>
        <time>2012-05-19T15:14:49.000Z</time>
      </trkpt>
      <trkpt lat="44.35617" lon="4.28445">
        <ele>366.60000610352</ele>
        <time>2012-05-19T15:14:51.000Z</time>
      </trkpt>
      <trkpt lat="44.35621" lon="4.2846">
        <ele>368.20001220703</ele>
        <time>2012-05-19T15:14:55.000Z</time>
      </trkpt>
      <trkpt lat="44.35622" lon="4.28484">
        <ele>368.20001220703</ele>
        <time>2012-05-19T15:15:01.000Z</time>
      </trkpt>
      <trkpt lat="44.35617" lon="4.28512">
        <ele>366</ele>
        <time>2012-05-19T15:15:07.000Z</time>
      </trkpt>
      <trkpt lat="44.35617" lon="4.28517">
        <ele>366</ele>
        <time>2012-05-19T15:15:08.000Z</time>
      </trkpt>
      <trkpt lat="44.35609" lon="4.28544">
        <ele>363.79998779297</ele>
        <time>2012-05-19T15:15:13.000Z</time>
      </trkpt>
      <trkpt lat="44.3561" lon="4.28563">
        <ele>365</ele>
        <time>2012-05-19T15:15:17.000Z</time>
      </trkpt>
      <trkpt lat="44.3561" lon="4.28586">
        <ele>365.20001220703</ele>
        <time>2012-05-19T15:15:23.000Z</time>
      </trkpt>
      <trkpt lat="44.35614" lon="4.28613">
        <ele>364.60000610352</ele>
        <time>2012-05-19T15:15:28.000Z</time>
      </trkpt>
      <trkpt lat="44.35622" lon="4.28641">
        <ele>365</ele>
        <time>2012-05-19T15:15:32.000Z</time>
      </trkpt>
      <trkpt lat="44.35625" lon="4.28649">
        <ele>365.39999389648</ele>
        <time>2012-05-19T15:15:33.000Z</time>
      </trkpt>
      <trkpt lat="44.35633" lon="4.28674">
        <ele>366.60000610352</ele>
        <time>2012-05-19T15:15:36.000Z</time>
      </trkpt>
      <trkpt lat="44.35635" lon="4.28683">
        <ele>367</ele>
        <time>2012-05-19T15:15:37.000Z</time>
      </trkpt>
      <trkpt lat="44.35635" lon="4.28692">
        <ele>366.39999389648</ele>
        <time>2012-05-19T15:15:38.000Z</time>
      </trkpt>
      <trkpt lat="44.35632" lon="4.2871">
        <ele>364.60000610352</ele>
        <time>2012-05-19T15:15:41.000Z</time>
      </trkpt>
      <trkpt lat="44.35631" lon="4.28711">
        <ele>364.39999389648</ele>
        <time>2012-05-19T15:15:44.000Z</time>
      </trkpt>
      <trkpt lat="44.35633" lon="4.28715">
        <ele>364.60000610352</ele>
        <time>2012-05-19T15:15:52.000Z</time>
      </trkpt>
      <trkpt lat="44.35633" lon="4.28721">
        <ele>364.60000610352</ele>
        <time>2012-05-19T15:15:59.000Z</time>
      </trkpt>
      <trkpt lat="44.35634" lon="4.28724">
        <ele>364.79998779297</ele>
        <time>2012-05-19T15:16:03.000Z</time>
      </trkpt>
      <trkpt lat="44.35634" lon="4.2873">
        <ele>364.60000610352</ele>
        <time>2012-05-19T15:16:09.000Z</time>
      </trkpt>
      <trkpt lat="44.35636" lon="4.28737">
        <ele>364.79998779297</ele>
        <time>2012-05-19T15:16:16.000Z</time>
      </trkpt>
      <trkpt lat="44.35639" lon="4.28746">
        <ele>365.20001220703</ele>
        <time>2012-05-19T15:16:23.000Z</time>
      </trkpt>
      <trkpt lat="44.35641" lon="4.28752">
        <ele>365.39999389648</ele>
        <time>2012-05-19T15:16:29.000Z</time>
      </trkpt>
      <trkpt lat="44.35649" lon="4.28763">
        <ele>366.39999389648</ele>
        <time>2012-05-19T15:16:35.000Z</time>
      </trkpt>
      <trkpt lat="44.35662" lon="4.28773">
        <ele>368.79998779297</ele>
        <time>2012-05-19T15:16:41.000Z</time>
      </trkpt>
      <trkpt lat="44.35665" lon="4.28775">
        <ele>369.60000610352</ele>
        <time>2012-05-19T15:16:43.000Z</time>
      </trkpt>
      <trkpt lat="44.35671" lon="4.28777">
        <ele>371.39999389648</ele>
        <time>2012-05-19T15:16:46.000Z</time>
      </trkpt>
      <trkpt lat="44.35674" lon="4.28778">
        <ele>372.60000610352</ele>
        <time>2012-05-19T15:16:48.000Z</time>
      </trkpt>
      <trkpt lat="44.35681" lon="4.28784">
        <ele>374.79998779297</ele>
        <time>2012-05-19T15:16:52.000Z</time>
      </trkpt>
      <trkpt lat="44.35694" lon="4.2879">
        <ele>379.20001220703</ele>
        <time>2012-05-19T15:16:59.000Z</time>
      </trkpt>
      <trkpt lat="44.35703" lon="4.288">
        <ele>381.39999389648</ele>
        <time>2012-05-19T15:17:05.000Z</time>
      </trkpt>
      <trkpt lat="44.35708" lon="4.28809">
        <ele>382.39999389648</ele>
        <time>2012-05-19T15:17:11.000Z</time>
      </trkpt>
      <trkpt lat="44.35714" lon="4.28815">
        <ele>383.60000610352</ele>
        <time>2012-05-19T15:17:18.000Z</time>
      </trkpt>
      <trkpt lat="44.35714" lon="4.28817">
        <ele>383.60000610352</ele>
        <time>2012-05-19T15:17:20.000Z</time>
      </trkpt>
      <trkpt lat="44.35717" lon="4.28818">
        <ele>384.60000610352</ele>
        <time>2012-05-19T15:17:23.000Z</time>
      </trkpt>
      <trkpt lat="44.35717" lon="4.28818">
        <ele>384.60000610352</ele>
        <time>2012-05-19T15:17:24.000Z</time>
      </trkpt>
      <trkpt lat="44.35721" lon="4.28821">
        <ele>385.60000610352</ele>
        <time>2012-05-19T15:17:35.000Z</time>
      </trkpt>
      <trkpt lat="44.35724" lon="4.28822">
        <ele>386.79998779297</ele>
        <time>2012-05-19T15:17:41.000Z</time>
      </trkpt>
      <trkpt lat="44.35728" lon="4.28823">
        <ele>387.79998779297</ele>
        <time>2012-05-19T15:17:46.000Z</time>
      </trkpt>
      <trkpt lat="44.35733" lon="4.28827">
        <ele>389.39999389648</ele>
        <time>2012-05-19T15:17:53.000Z</time>
      </trkpt>
      <trkpt lat="44.35736" lon="4.28832">
        <ele>390</ele>
        <time>2012-05-19T15:17:58.000Z</time>
      </trkpt>
      <trkpt lat="44.35739" lon="4.28839">
        <ele>390.39999389648</ele>
        <time>2012-05-19T15:18:01.000Z</time>
      </trkpt>
      <trkpt lat="44.35739" lon="4.28846">
        <ele>390.20001220703</ele>
        <time>2012-05-19T15:18:03.000Z</time>
      </trkpt>
      <trkpt lat="44.35735" lon="4.28853">
        <ele>388.60000610352</ele>
        <time>2012-05-19T15:18:05.000Z</time>
      </trkpt>
      <trkpt lat="44.35732" lon="4.28862">
        <ele>387</ele>
        <time>2012-05-19T15:18:07.000Z</time>
      </trkpt>
      <trkpt lat="44.35726" lon="4.28875">
        <ele>384.79998779297</ele>
        <time>2012-05-19T15:18:11.000Z</time>
      </trkpt>
      <trkpt lat="44.35725" lon="4.28878">
        <ele>384.39999389648</ele>
        <time>2012-05-19T15:18:12.000Z</time>
      </trkpt>
      <trkpt lat="44.3572" lon="4.28894">
        <ele>382.39999389648</ele>
        <time>2012-05-19T15:18:18.000Z</time>
      </trkpt>
      <trkpt lat="44.35719" lon="4.28898">
        <ele>382.20001220703</ele>
        <time>2012-05-19T15:18:20.000Z</time>
      </trkpt>
      <trkpt lat="44.3572" lon="4.28902">
        <ele>382.39999389648</ele>
        <time>2012-05-19T15:18:23.000Z</time>
      </trkpt>
      <trkpt lat="44.35726" lon="4.289">
        <ele>384.20001220703</ele>
        <time>2012-05-19T15:20:05.000Z</time>
      </trkpt>
      <trkpt lat="44.35724" lon="4.28901">
        <ele>383.60000610352</ele>
        <time>2012-05-19T15:20:11.000Z</time>
      </trkpt>
      <trkpt lat="44.35717" lon="4.28913">
        <ele>381.20001220703</ele>
        <time>2012-05-19T15:21:59.000Z</time>
      </trkpt>
      <trkpt lat="44.35704" lon="4.28919">
        <ele>377.60000610352</ele>
        <time>2012-05-19T15:22:04.000Z</time>
      </trkpt>
      <trkpt lat="44.35688" lon="4.28929">
        <ele>372.60000610352</ele>
        <time>2012-05-19T15:22:09.000Z</time>
      </trkpt>
      <trkpt lat="44.35671" lon="4.28941">
        <ele>368</ele>
        <time>2012-05-19T15:22:15.000Z</time>
      </trkpt>
      <trkpt lat="44.35656" lon="4.28951">
        <ele>364.20001220703</ele>
        <time>2012-05-19T15:22:19.000Z</time>
      </trkpt>
      <trkpt lat="44.35637" lon="4.28963">
        <ele>360.60000610352</ele>
        <time>2012-05-19T15:22:24.000Z</time>
      </trkpt>
      <trkpt lat="44.35625" lon="4.28974">
        <ele>358.60000610352</ele>
        <time>2012-05-19T15:22:28.000Z</time>
      </trkpt>
      <trkpt lat="44.35621" lon="4.28976">
        <ele>358.20001220703</ele>
        <time>2012-05-19T15:22:29.000Z</time>
      </trkpt>
      <trkpt lat="44.3561" lon="4.28983">
        <ele>357</ele>
        <time>2012-05-19T15:22:32.000Z</time>
      </trkpt>
      <trkpt lat="44.35607" lon="4.28986">
        <ele>356.60000610352</ele>
        <time>2012-05-19T15:22:33.000Z</time>
      </trkpt>
      <trkpt lat="44.35604" lon="4.28989">
        <ele>356.39999389648</ele>
        <time>2012-05-19T15:22:34.000Z</time>
      </trkpt>
      <trkpt lat="44.3559" lon="4.28996">
        <ele>355.39999389648</ele>
        <time>2012-05-19T15:22:37.000Z</time>
      </trkpt>
      <trkpt lat="44.35583" lon="4.29">
        <ele>354.79998779297</ele>
        <time>2012-05-19T15:22:39.000Z</time>
      </trkpt>
      <trkpt lat="44.35573" lon="4.29007">
        <ele>352</ele>
        <time>2012-05-19T15:22:41.000Z</time>
      </trkpt>
      <trkpt lat="44.35557" lon="4.29022">
        <ele>347.20001220703</ele>
        <time>2012-05-19T15:22:45.000Z</time>
      </trkpt>
      <trkpt lat="44.35548" lon="4.29029">
        <ele>345</ele>
        <time>2012-05-19T15:22:47.000Z</time>
      </trkpt>
      <trkpt lat="44.35537" lon="4.29038">
        <ele>342.60000610352</ele>
        <time>2012-05-19T15:22:50.000Z</time>
      </trkpt>
      <trkpt lat="44.35528" lon="4.29041">
        <ele>341.20001220703</ele>
        <time>2012-05-19T15:22:52.000Z</time>
      </trkpt>
      <trkpt lat="44.35524" lon="4.29044">
        <ele>340.60000610352</ele>
        <time>2012-05-19T15:22:53.000Z</time>
      </trkpt>
      <trkpt lat="44.35518" lon="4.29047">
        <ele>339.60000610352</ele>
        <time>2012-05-19T15:22:55.000Z</time>
      </trkpt>
      <trkpt lat="44.35514" lon="4.29047">
        <ele>339.20001220703</ele>
        <time>2012-05-19T15:22:56.000Z</time>
      </trkpt>
      <trkpt lat="44.35501" lon="4.29056">
        <ele>337.60000610352</ele>
        <time>2012-05-19T15:23:01.000Z</time>
      </trkpt>
      <trkpt lat="44.35486" lon="4.29062">
        <ele>334.79998779297</ele>
        <time>2012-05-19T15:23:06.000Z</time>
      </trkpt>
      <trkpt lat="44.35471" lon="4.29059">
        <ele>332</ele>
        <time>2012-05-19T15:23:10.000Z</time>
      </trkpt>
      <trkpt lat="44.35455" lon="4.29054">
        <ele>328.60000610352</ele>
        <time>2012-05-19T15:23:15.000Z</time>
      </trkpt>
      <trkpt lat="44.35445" lon="4.29055">
        <ele>326.60000610352</ele>
        <time>2012-05-19T15:23:18.000Z</time>
      </trkpt>
      <trkpt lat="44.35442" lon="4.29058">
        <ele>326.39999389648</ele>
        <time>2012-05-19T15:23:19.000Z</time>
      </trkpt>
      <trkpt lat="44.35432" lon="4.2907">
        <ele>325</ele>
        <time>2012-05-19T15:23:23.000Z</time>
      </trkpt>
      <trkpt lat="44.35425" lon="4.29077">
        <ele>324</ele>
        <time>2012-05-19T15:23:25.000Z</time>
      </trkpt>
      <trkpt lat="44.35419" lon="4.29083">
        <ele>323.39999389648</ele>
        <time>2012-05-19T15:23:27.000Z</time>
      </trkpt>
      <trkpt lat="44.3541" lon="4.29093">
        <ele>321.20001220703</ele>
        <time>2012-05-19T15:23:31.000Z</time>
      </trkpt>
      <trkpt lat="44.35394" lon="4.29108">
        <ele>317.60000610352</ele>
        <time>2012-05-19T15:23:37.000Z</time>
      </trkpt>
      <trkpt lat="44.35382" lon="4.2912">
        <ele>315.39999389648</ele>
        <time>2012-05-19T15:23:41.000Z</time>
      </trkpt>
      <trkpt lat="44.35367" lon="4.29137">
        <ele>312.79998779297</ele>
        <time>2012-05-19T15:23:46.000Z</time>
      </trkpt>
      <trkpt lat="44.35352" lon="4.29153">
        <ele>310.79998779297</ele>
        <time>2012-05-19T15:23:52.000Z</time>
      </trkpt>
      <trkpt lat="44.35341" lon="4.29168">
        <ele>309.39999389648</ele>
        <time>2012-05-19T15:23:57.000Z</time>
      </trkpt>
      <trkpt lat="44.3533" lon="4.29184">
        <ele>306.39999389648</ele>
        <time>2012-05-19T15:24:02.000Z</time>
      </trkpt>
      <trkpt lat="44.35318" lon="4.292">
        <ele>302.60000610352</ele>
        <time>2012-05-19T15:24:09.000Z</time>
      </trkpt>
      <trkpt lat="44.35308" lon="4.29215">
        <ele>299.79998779297</ele>
        <time>2012-05-19T15:24:13.000Z</time>
      </trkpt>
      <trkpt lat="44.35298" lon="4.29226">
        <ele>297.39999389648</ele>
        <time>2012-05-19T15:24:17.000Z</time>
      </trkpt>
      <trkpt lat="44.35286" lon="4.29237">
        <ele>295</ele>
        <time>2012-05-19T15:24:22.000Z</time>
      </trkpt>
      <trkpt lat="44.35284" lon="4.29239">
        <ele>294.60000610352</ele>
        <time>2012-05-19T15:24:23.000Z</time>
      </trkpt>
      <trkpt lat="44.35275" lon="4.29248">
        <ele>292.79998779297</ele>
        <time>2012-05-19T15:24:26.000Z</time>
      </trkpt>
      <trkpt lat="44.35261" lon="4.29264">
        <ele>290</ele>
        <time>2012-05-19T15:24:31.000Z</time>
      </trkpt>
      <trkpt lat="44.3526" lon="4.29268">
        <ele>289.39999389648</ele>
        <time>2012-05-19T15:24:32.000Z</time>
      </trkpt>
      <trkpt lat="44.35261" lon="4.29274">
        <ele>289</ele>
        <time>2012-05-19T15:24:34.000Z</time>
      </trkpt>
      <trkpt lat="44.35264" lon="4.29278">
        <ele>288.79998779297</ele>
        <time>2012-05-19T15:24:38.000Z</time>
      </trkpt>
      <trkpt lat="44.35271" lon="4.29288">
        <ele>288.60000610352</ele>
        <time>2012-05-19T15:24:43.000Z</time>
      </trkpt>
      <trkpt lat="44.35282" lon="4.29297">
        <ele>288.60000610352</ele>
        <time>2012-05-19T15:24:47.000Z</time>
      </trkpt>
      <trkpt lat="44.35297" lon="4.29312">
        <ele>288.20001220703</ele>
        <time>2012-05-19T15:24:52.000Z</time>
      </trkpt>
      <trkpt lat="44.35311" lon="4.2933">
        <ele>287</ele>
        <time>2012-05-19T15:24:57.000Z</time>
      </trkpt>
      <trkpt lat="44.35317" lon="4.2935">
        <ele>284.60000610352</ele>
        <time>2012-05-19T15:25:03.000Z</time>
      </trkpt>
      <trkpt lat="44.35319" lon="4.29362">
        <ele>283.20001220703</ele>
        <time>2012-05-19T15:25:08.000Z</time>
      </trkpt>
      <trkpt lat="44.35318" lon="4.29363">
        <ele>283</ele>
        <time>2012-05-19T15:25:09.000Z</time>
      </trkpt>
      <trkpt lat="44.35318" lon="4.29368">
        <ele>282.39999389648</ele>
        <time>2012-05-19T15:25:15.000Z</time>
      </trkpt>
      <trkpt lat="44.35317" lon="4.29371">
        <ele>281.79998779297</ele>
        <time>2012-05-19T15:25:22.000Z</time>
      </trkpt>
      <trkpt lat="44.35316" lon="4.29375">
        <ele>281.20001220703</ele>
        <time>2012-05-19T15:25:25.000Z</time>
      </trkpt>
      <trkpt lat="44.35315" lon="4.29381">
        <ele>280.20001220703</ele>
        <time>2012-05-19T15:25:28.000Z</time>
      </trkpt>
      <trkpt lat="44.35313" lon="4.29383">
        <ele>279.79998779297</ele>
        <time>2012-05-19T15:25:29.000Z</time>
      </trkpt>
      <trkpt lat="44.35307" lon="4.29392">
        <ele>278</ele>
        <time>2012-05-19T15:25:32.000Z</time>
      </trkpt>
      <trkpt lat="44.35297" lon="4.29399">
        <ele>276</ele>
        <time>2012-05-19T15:25:36.000Z</time>
      </trkpt>
      <trkpt lat="44.35296" lon="4.294">
        <ele>276</ele>
        <time>2012-05-19T15:25:39.000Z</time>
      </trkpt>
      <trkpt lat="44.35294" lon="4.29401">
        <ele>275.60000610352</ele>
        <time>2012-05-19T15:25:44.000Z</time>
      </trkpt>
      <trkpt lat="44.35286" lon="4.29403">
        <ele>274.39999389648</ele>
        <time>2012-05-19T15:25:49.000Z</time>
      </trkpt>
      <trkpt lat="44.35283" lon="4.29402">
        <ele>274.39999389648</ele>
        <time>2012-05-19T15:25:51.000Z</time>
      </trkpt>
      <trkpt lat="44.35276" lon="4.29399">
        <ele>274.20001220703</ele>
        <time>2012-05-19T15:25:54.000Z</time>
      </trkpt>
      <trkpt lat="44.35272" lon="4.29398">
        <ele>274</ele>
        <time>2012-05-19T15:25:56.000Z</time>
      </trkpt>
      <trkpt lat="44.35271" lon="4.29398">
        <ele>274</ele>
        <time>2012-05-19T15:25:57.000Z</time>
      </trkpt>
      <trkpt lat="44.3527" lon="4.29398">
        <ele>273.79998779297</ele>
        <time>2012-05-19T15:25:58.000Z</time>
      </trkpt>
      <trkpt lat="44.3527" lon="4.29398">
        <ele>273.79998779297</ele>
        <time>2012-05-19T15:26:05.000Z</time>
      </trkpt>
      <trkpt lat="44.35267" lon="4.29397">
        <ele>273.79998779297</ele>
        <time>2012-05-19T15:26:11.000Z</time>
      </trkpt>
      <trkpt lat="44.35265" lon="4.29395">
        <ele>274</ele>
        <time>2012-05-19T15:26:39.000Z</time>
      </trkpt>
      <trkpt lat="44.3526" lon="4.29392">
        <ele>274</ele>
        <time>2012-05-19T15:26:49.000Z</time>
      </trkpt>
      <trkpt lat="44.35252" lon="4.29382">
        <ele>274.79998779297</ele>
        <time>2012-05-19T15:26:54.000Z</time>
      </trkpt>
      <trkpt lat="44.3525" lon="4.29381">
        <ele>274.79998779297</ele>
        <time>2012-05-19T15:26:55.000Z</time>
      </trkpt>
      <trkpt lat="44.35243" lon="4.29381">
        <ele>274</ele>
        <time>2012-05-19T15:26:57.000Z</time>
      </trkpt>
      <trkpt lat="44.35229" lon="4.29383">
        <ele>271.60000610352</ele>
        <time>2012-05-19T15:27:01.000Z</time>
      </trkpt>
      <trkpt lat="44.35224" lon="4.29386">
        <ele>270.60000610352</ele>
        <time>2012-05-19T15:27:03.000Z</time>
      </trkpt>
      <trkpt lat="44.35221" lon="4.29391">
        <ele>269.60000610352</ele>
        <time>2012-05-19T15:27:05.000Z</time>
      </trkpt>
      <trkpt lat="44.35218" lon="4.29401">
        <ele>267.79998779297</ele>
        <time>2012-05-19T15:27:09.000Z</time>
      </trkpt>
      <trkpt lat="44.35216" lon="4.29402">
        <ele>267.39999389648</ele>
        <time>2012-05-19T15:27:11.000Z</time>
      </trkpt>
      <trkpt lat="44.35216" lon="4.29402">
        <ele>267.39999389648</ele>
        <time>2012-05-19T15:27:13.000Z</time>
      </trkpt>
      <trkpt lat="44.35218" lon="4.29401">
        <ele>267.60000610352</ele>
        <time>2012-05-19T15:27:35.000Z</time>
      </trkpt>
      <trkpt lat="44.35218" lon="4.29399">
        <ele>268</ele>
        <time>2012-05-19T15:27:42.000Z</time>
      </trkpt>
      <trkpt lat="44.35218" lon="4.29402">
        <ele>267.60000610352</ele>
        <time>2012-05-19T15:27:54.000Z</time>
      </trkpt>
      <trkpt lat="44.35218" lon="4.29402">
        <ele>267.39999389648</ele>
        <time>2012-05-19T15:28:01.000Z</time>
      </trkpt>
      <trkpt lat="44.35217" lon="4.29402">
        <ele>267.39999389648</ele>
        <time>2012-05-19T15:28:20.000Z</time>
      </trkpt>
      <trkpt lat="44.35216" lon="4.294">
        <ele>267.60000610352</ele>
        <time>2012-05-19T15:28:37.000Z</time>
      </trkpt>
      <trkpt lat="44.35212" lon="4.29407">
        <ele>266</ele>
        <time>2012-05-19T15:30:18.000Z</time>
      </trkpt>
      <trkpt lat="44.352" lon="4.29428">
        <ele>263</ele>
        <time>2012-05-19T15:30:23.000Z</time>
      </trkpt>
      <trkpt lat="44.35188" lon="4.29447">
        <ele>260.79998779297</ele>
        <time>2012-05-19T15:30:27.000Z</time>
      </trkpt>
      <trkpt lat="44.35182" lon="4.29455">
        <ele>260</ele>
        <time>2012-05-19T15:30:29.000Z</time>
      </trkpt>
      <trkpt lat="44.35179" lon="4.29457">
        <ele>259.79998779297</ele>
        <time>2012-05-19T15:30:30.000Z</time>
      </trkpt>
      <trkpt lat="44.35176" lon="4.29454">
        <ele>259.60000610352</ele>
        <time>2012-05-19T15:30:32.000Z</time>
      </trkpt>
      <trkpt lat="44.35168" lon="4.2945">
        <ele>259</ele>
        <time>2012-05-19T15:30:36.000Z</time>
      </trkpt>
      <trkpt lat="44.35154" lon="4.29463">
        <ele>257.79998779297</ele>
        <time>2012-05-19T15:30:41.000Z</time>
      </trkpt>
      <trkpt lat="44.35135" lon="4.29484">
        <ele>256.39999389648</ele>
        <time>2012-05-19T15:30:45.000Z</time>
      </trkpt>
      <trkpt lat="44.35117" lon="4.29504">
        <ele>255</ele>
        <time>2012-05-19T15:30:48.000Z</time>
      </trkpt>
      <trkpt lat="44.35105" lon="4.29519">
        <ele>254</ele>
        <time>2012-05-19T15:30:50.000Z</time>
      </trkpt>
      <trkpt lat="44.35089" lon="4.29542">
        <ele>252.19999694824</ele>
        <time>2012-05-19T15:30:53.000Z</time>
      </trkpt>
      <trkpt lat="44.35073" lon="4.29566">
        <ele>250.19999694824</ele>
        <time>2012-05-19T15:30:56.000Z</time>
      </trkpt>
      <trkpt lat="44.35061" lon="4.2959">
        <ele>248</ele>
        <time>2012-05-19T15:30:59.000Z</time>
      </trkpt>
      <trkpt lat="44.35056" lon="4.29597">
        <ele>247.39999389648</ele>
        <time>2012-05-19T15:31:00.000Z</time>
      </trkpt>
      <trkpt lat="44.3505" lon="4.29605">
        <ele>246.80000305176</ele>
        <time>2012-05-19T15:31:01.000Z</time>
      </trkpt>
      <trkpt lat="44.35044" lon="4.29614">
        <ele>246</ele>
        <time>2012-05-19T15:31:02.000Z</time>
      </trkpt>
      <trkpt lat="44.35039" lon="4.29623">
        <ele>245.39999389648</ele>
        <time>2012-05-19T15:31:03.000Z</time>
      </trkpt>
      <trkpt lat="44.35029" lon="4.2964">
        <ele>244.19999694824</ele>
        <time>2012-05-19T15:31:05.000Z</time>
      </trkpt>
      <trkpt lat="44.35012" lon="4.29659">
        <ele>242.80000305176</ele>
        <time>2012-05-19T15:31:08.000Z</time>
      </trkpt>
      <trkpt lat="44.35001" lon="4.29672">
        <ele>242</ele>
        <time>2012-05-19T15:31:10.000Z</time>
      </trkpt>
      <trkpt lat="44.34994" lon="4.29682">
        <ele>241.80000305176</ele>
        <time>2012-05-19T15:31:12.000Z</time>
      </trkpt>
      <trkpt lat="44.34994" lon="4.29687">
        <ele>241.80000305176</ele>
        <time>2012-05-19T15:31:13.000Z</time>
      </trkpt>
      <trkpt lat="44.35001" lon="4.29694">
        <ele>242</ele>
        <time>2012-05-19T15:31:15.000Z</time>
      </trkpt>
      <trkpt lat="44.35005" lon="4.29698">
        <ele>242.19999694824</ele>
        <time>2012-05-19T15:31:16.000Z</time>
      </trkpt>
      <trkpt lat="44.35007" lon="4.29701">
        <ele>242.19999694824</ele>
        <time>2012-05-19T15:31:17.000Z</time>
      </trkpt>
      <trkpt lat="44.35006" lon="4.29707">
        <ele>242.19999694824</ele>
        <time>2012-05-19T15:31:19.000Z</time>
      </trkpt>
      <trkpt lat="44.34996" lon="4.29707">
        <ele>241.80000305176</ele>
        <time>2012-05-19T15:31:22.000Z</time>
      </trkpt>
      <trkpt lat="44.34974" lon="4.29703">
        <ele>240.80000305176</ele>
        <time>2012-05-19T15:31:26.000Z</time>
      </trkpt>
      <trkpt lat="44.34953" lon="4.29694">
        <ele>240.19999694824</ele>
        <time>2012-05-19T15:31:30.000Z</time>
      </trkpt>
      <trkpt lat="44.34949" lon="4.29693">
        <ele>240</ele>
        <time>2012-05-19T15:31:31.000Z</time>
      </trkpt>
      <trkpt lat="44.34945" lon="4.29694">
        <ele>239.80000305176</ele>
        <time>2012-05-19T15:31:32.000Z</time>
      </trkpt>
      <trkpt lat="44.34937" lon="4.29703">
        <ele>239.19999694824</ele>
        <time>2012-05-19T15:31:35.000Z</time>
      </trkpt>
      <trkpt lat="44.34935" lon="4.29706">
        <ele>239</ele>
        <time>2012-05-19T15:31:36.000Z</time>
      </trkpt>
      <trkpt lat="44.34933" lon="4.29707">
        <ele>238.80000305176</ele>
        <time>2012-05-19T15:31:37.000Z</time>
      </trkpt>
      <trkpt lat="44.3493" lon="4.29712">
        <ele>238.39999389648</ele>
        <time>2012-05-19T15:31:39.000Z</time>
      </trkpt>
      <trkpt lat="44.34928" lon="4.29715">
        <ele>238.19999694824</ele>
        <time>2012-05-19T15:31:40.000Z</time>
      </trkpt>
      <trkpt lat="44.34912" lon="4.2973">
        <ele>237.39999389648</ele>
        <time>2012-05-19T15:31:46.000Z</time>
      </trkpt>
      <trkpt lat="44.34896" lon="4.29743">
        <ele>238.19999694824</ele>
        <time>2012-05-19T15:31:51.000Z</time>
      </trkpt>
      <trkpt lat="44.34892" lon="4.29746">
        <ele>238.39999389648</ele>
        <time>2012-05-19T15:31:52.000Z</time>
      </trkpt>
      <trkpt lat="44.34877" lon="4.29763">
        <ele>239.80000305176</ele>
        <time>2012-05-19T15:31:57.000Z</time>
      </trkpt>
      <trkpt lat="44.34875" lon="4.29766">
        <ele>240</ele>
        <time>2012-05-19T15:31:58.000Z</time>
      </trkpt>
      <trkpt lat="44.34866" lon="4.29785">
        <ele>241</ele>
        <time>2012-05-19T15:32:04.000Z</time>
      </trkpt>
      <trkpt lat="44.34859" lon="4.29792">
        <ele>241.80000305176</ele>
        <time>2012-05-19T15:32:08.000Z</time>
      </trkpt>
      <trkpt lat="44.34849" lon="4.29795">
        <ele>242.80000305176</ele>
        <time>2012-05-19T15:32:13.000Z</time>
      </trkpt>
      <trkpt lat="44.3484" lon="4.29805">
        <ele>243.80000305176</ele>
        <time>2012-05-19T15:32:20.000Z</time>
      </trkpt>
      <trkpt lat="44.34838" lon="4.29816">
        <ele>244.19999694824</ele>
        <time>2012-05-19T15:32:26.000Z</time>
      </trkpt>
      <trkpt lat="44.34836" lon="4.29825">
        <ele>244.60000610352</ele>
        <time>2012-05-19T15:32:32.000Z</time>
      </trkpt>
      <trkpt lat="44.34834" lon="4.29827">
        <ele>244.80000305176</ele>
        <time>2012-05-19T15:32:34.000Z</time>
      </trkpt>
      <trkpt lat="44.34829" lon="4.29829">
        <ele>245.19999694824</ele>
        <time>2012-05-19T15:32:37.000Z</time>
      </trkpt>
      <trkpt lat="44.34825" lon="4.29832">
        <ele>245.60000610352</ele>
        <time>2012-05-19T15:32:41.000Z</time>
      </trkpt>
      <trkpt lat="44.34814" lon="4.29839">
        <ele>246.60000610352</ele>
        <time>2012-05-19T15:32:50.000Z</time>
      </trkpt>
      <trkpt lat="44.34806" lon="4.29847">
        <ele>247.19999694824</ele>
        <time>2012-05-19T15:32:57.000Z</time>
      </trkpt>
      <trkpt lat="44.34798" lon="4.29855">
        <ele>247.80000305176</ele>
        <time>2012-05-19T15:33:04.000Z</time>
      </trkpt>
      <trkpt lat="44.34788" lon="4.29864">
        <ele>248.39999389648</ele>
        <time>2012-05-19T15:33:11.000Z</time>
      </trkpt>
      <trkpt lat="44.34776" lon="4.29865">
        <ele>249.39999389648</ele>
        <time>2012-05-19T15:33:18.000Z</time>
      </trkpt>
      <trkpt lat="44.34764" lon="4.29862">
        <ele>250.19999694824</ele>
        <time>2012-05-19T15:33:24.000Z</time>
      </trkpt>
      <trkpt lat="44.34746" lon="4.29868">
        <ele>251.19999694824</ele>
        <time>2012-05-19T15:33:31.000Z</time>
      </trkpt>
      <trkpt lat="44.34729" lon="4.29885">
        <ele>250.60000610352</ele>
        <time>2012-05-19T15:33:36.000Z</time>
      </trkpt>
      <trkpt lat="44.34712" lon="4.29908">
        <ele>250.19999694824</ele>
        <time>2012-05-19T15:33:40.000Z</time>
      </trkpt>
      <trkpt lat="44.34701" lon="4.29919">
        <ele>250</ele>
        <time>2012-05-19T15:33:42.000Z</time>
      </trkpt>
      <trkpt lat="44.34682" lon="4.29933">
        <ele>249.80000305176</ele>
        <time>2012-05-19T15:33:46.000Z</time>
      </trkpt>
      <trkpt lat="44.34663" lon="4.29946">
        <ele>250.19999694824</ele>
        <time>2012-05-19T15:33:52.000Z</time>
      </trkpt>
      <trkpt lat="44.34658" lon="4.2995">
        <ele>250.60000610352</ele>
        <time>2012-05-19T15:33:54.000Z</time>
      </trkpt>
      <trkpt lat="44.34647" lon="4.2996">
        <ele>251.60000610352</ele>
        <time>2012-05-19T15:33:59.000Z</time>
      </trkpt>
      <trkpt lat="44.34632" lon="4.29973">
        <ele>253.39999389648</ele>
        <time>2012-05-19T15:34:06.000Z</time>
      </trkpt>
      <trkpt lat="44.34616" lon="4.29986">
        <ele>255.80000305176</ele>
        <time>2012-05-19T15:34:14.000Z</time>
      </trkpt>
      <trkpt lat="44.34599" lon="4.29996">
        <ele>258.60000610352</ele>
        <time>2012-05-19T15:34:22.000Z</time>
      </trkpt>
      <trkpt lat="44.34597" lon="4.29997">
        <ele>259</ele>
        <time>2012-05-19T15:34:23.000Z</time>
      </trkpt>
      <trkpt lat="44.34584" lon="4.30005">
        <ele>261.79998779297</ele>
        <time>2012-05-19T15:34:30.000Z</time>
      </trkpt>
      <trkpt lat="44.34567" lon="4.30013">
        <ele>263.39999389648</ele>
        <time>2012-05-19T15:34:39.000Z</time>
      </trkpt>
      <trkpt lat="44.34554" lon="4.30021">
        <ele>264.79998779297</ele>
        <time>2012-05-19T15:34:46.000Z</time>
      </trkpt>
      <trkpt lat="44.3454" lon="4.30037">
        <ele>266.60000610352</ele>
        <time>2012-05-19T15:34:54.000Z</time>
      </trkpt>
      <trkpt lat="44.34529" lon="4.3005">
        <ele>267.60000610352</ele>
        <time>2012-05-19T15:35:00.000Z</time>
      </trkpt>
      <trkpt lat="44.3452" lon="4.3006">
        <ele>268.39999389648</ele>
        <time>2012-05-19T15:35:08.000Z</time>
      </trkpt>
      <trkpt lat="44.34518" lon="4.30063">
        <ele>268.39999389648</ele>
        <time>2012-05-19T15:35:14.000Z</time>
      </trkpt>
      <trkpt lat="44.34517" lon="4.30063">
        <ele>268.39999389648</ele>
        <time>2012-05-19T15:35:18.000Z</time>
      </trkpt>
      <trkpt lat="44.34516" lon="4.30064">
        <ele>268.39999389648</ele>
        <time>2012-05-19T15:35:19.000Z</time>
      </trkpt>
      <trkpt lat="44.34514" lon="4.30066">
        <ele>268.60000610352</ele>
        <time>2012-05-19T15:35:20.000Z</time>
      </trkpt>
      <trkpt lat="44.34503" lon="4.30082">
        <ele>269</ele>
        <time>2012-05-19T15:35:24.000Z</time>
      </trkpt>
      <trkpt lat="44.3449" lon="4.30102">
        <ele>268.39999389648</ele>
        <time>2012-05-19T15:35:27.000Z</time>
      </trkpt>
      <trkpt lat="44.34481" lon="4.30117">
        <ele>268</ele>
        <time>2012-05-19T15:35:29.000Z</time>
      </trkpt>
      <trkpt lat="44.34469" lon="4.30138">
        <ele>267.79998779297</ele>
        <time>2012-05-19T15:35:32.000Z</time>
      </trkpt>
      <trkpt lat="44.34458" lon="4.30159">
        <ele>267.60000610352</ele>
        <time>2012-05-19T15:35:35.000Z</time>
      </trkpt>
      <trkpt lat="44.34452" lon="4.30171">
        <ele>267.79998779297</ele>
        <time>2012-05-19T15:35:37.000Z</time>
      </trkpt>
      <trkpt lat="44.34447" lon="4.3018">
        <ele>268.20001220703</ele>
        <time>2012-05-19T15:35:39.000Z</time>
      </trkpt>
      <trkpt lat="44.34444" lon="4.30184">
        <ele>268.39999389648</ele>
        <time>2012-05-19T15:35:41.000Z</time>
      </trkpt>
      <trkpt lat="44.34441" lon="4.30187">
        <ele>268.39999389648</ele>
        <time>2012-05-19T15:35:43.000Z</time>
      </trkpt>
      <trkpt lat="44.34438" lon="4.30191">
        <ele>268.60000610352</ele>
        <time>2012-05-19T15:35:46.000Z</time>
      </trkpt>
      <trkpt lat="44.34431" lon="4.30189">
        <ele>267.79998779297</ele>
        <time>2012-05-19T15:35:51.000Z</time>
      </trkpt>
      <trkpt lat="44.3443" lon="4.30187">
        <ele>267.60000610352</ele>
        <time>2012-05-19T15:35:52.000Z</time>
      </trkpt>
      <trkpt lat="44.34431" lon="4.3018">
        <ele>267.20001220703</ele>
        <time>2012-05-19T15:35:55.000Z</time>
      </trkpt>
      <trkpt lat="44.34433" lon="4.3018">
        <ele>267.20001220703</ele>
        <time>2012-05-19T15:35:59.000Z</time>
      </trkpt>
      <trkpt lat="44.34433" lon="4.30179">
        <ele>267.20001220703</ele>
        <time>2012-05-19T15:36:05.000Z</time>
      </trkpt>
      <trkpt lat="44.34436" lon="4.30177">
        <ele>267.20001220703</ele>
        <time>2012-05-19T15:36:19.000Z</time>
      </trkpt>
      <trkpt lat="44.34434" lon="4.30179">
        <ele>267.20001220703</ele>
        <time>2012-05-19T15:36:34.000Z</time>
      </trkpt>
      <trkpt lat="44.34433" lon="4.30179">
        <ele>267.20001220703</ele>
        <time>2012-05-19T15:36:55.000Z</time>
      </trkpt>
      <trkpt lat="44.34429" lon="4.30175">
        <ele>266.60000610352</ele>
        <time>2012-05-19T15:37:17.000Z</time>
      </trkpt>
      <trkpt lat="44.34429" lon="4.30175">
        <ele>266.60000610352</ele>
        <time>2012-05-19T15:37:23.000Z</time>
      </trkpt>
      <trkpt lat="44.34428" lon="4.30175">
        <ele>266.39999389648</ele>
        <time>2012-05-19T15:37:44.000Z</time>
      </trkpt>
      <trkpt lat="44.3443" lon="4.30173">
        <ele>266.39999389648</ele>
        <time>2012-05-19T15:38:11.000Z</time>
      </trkpt>
      <trkpt lat="44.34429" lon="4.30173">
        <ele>266.39999389648</ele>
        <time>2012-05-19T15:38:20.000Z</time>
      </trkpt>
      <trkpt lat="44.3443" lon="4.30173">
        <ele>266.60000610352</ele>
        <time>2012-05-19T15:38:36.000Z</time>
      </trkpt>
      <trkpt lat="44.34434" lon="4.30171">
        <ele>266.60000610352</ele>
        <time>2012-05-19T15:38:42.000Z</time>
      </trkpt>
      <trkpt lat="44.34435" lon="4.3017">
        <ele>266.60000610352</ele>
        <time>2012-05-19T15:38:43.000Z</time>
      </trkpt>
      <trkpt lat="44.34438" lon="4.30169">
        <ele>266.79998779297</ele>
        <time>2012-05-19T15:38:47.000Z</time>
      </trkpt>
      <trkpt lat="44.34438" lon="4.30169">
        <ele>266.79998779297</ele>
        <time>2012-05-19T15:38:48.000Z</time>
      </trkpt>
      <trkpt lat="44.34436" lon="4.30172">
        <ele>266.79998779297</ele>
        <time>2012-05-19T15:38:53.000Z</time>
      </trkpt>
      <trkpt lat="44.34435" lon="4.30172">
        <ele>266.79998779297</ele>
        <time>2012-05-19T15:39:00.000Z</time>
      </trkpt>
      <trkpt lat="44.34431" lon="4.30171">
        <ele>266.39999389648</ele>
        <time>2012-05-19T15:40:03.000Z</time>
      </trkpt>
      <trkpt lat="44.3443" lon="4.30175">
        <ele>266.60000610352</ele>
        <time>2012-05-19T15:41:23.000Z</time>
      </trkpt>
      <trkpt lat="44.34428" lon="4.30173">
        <ele>266.39999389648</ele>
        <time>2012-05-19T15:42:00.000Z</time>
      </trkpt>
      <trkpt lat="44.34437" lon="4.30176">
        <ele>267.20001220703</ele>
        <time>2012-05-19T15:43:51.000Z</time>
      </trkpt>
      <trkpt lat="44.34436" lon="4.30177">
        <ele>267.20001220703</ele>
        <time>2012-05-19T15:43:57.000Z</time>
      </trkpt>
      <trkpt lat="44.34436" lon="4.30178">
        <ele>267.20001220703</ele>
        <time>2012-05-19T15:44:08.000Z</time>
      </trkpt>
      <trkpt lat="44.34432" lon="4.30178">
        <ele>267</ele>
        <time>2012-05-19T15:44:30.000Z</time>
      </trkpt>
      <trkpt lat="44.34433" lon="4.30176">
        <ele>267</ele>
        <time>2012-05-19T15:44:34.000Z</time>
      </trkpt>
      <trkpt lat="44.34434" lon="4.30173">
        <ele>266.79998779297</ele>
        <time>2012-05-19T15:47:10.000Z</time>
      </trkpt>
      <trkpt lat="44.34433" lon="4.30178">
        <ele>267.20001220703</ele>
        <time>2012-05-19T15:47:53.000Z</time>
      </trkpt>
      <trkpt lat="44.34432" lon="4.30181">
        <ele>267.20001220703</ele>
        <time>2012-05-19T15:47:55.000Z</time>
      </trkpt>
      <trkpt lat="44.34431" lon="4.30186">
        <ele>267.60000610352</ele>
        <time>2012-05-19T15:47:58.000Z</time>
      </trkpt>
      <trkpt lat="44.3443" lon="4.30187">
        <ele>267.60000610352</ele>
        <time>2012-05-19T15:47:59.000Z</time>
      </trkpt>
      <trkpt lat="44.3443" lon="4.3019">
        <ele>267.79998779297</ele>
        <time>2012-05-19T15:48:00.000Z</time>
      </trkpt>
      <trkpt lat="44.34431" lon="4.30197">
        <ele>268.60000610352</ele>
        <time>2012-05-19T15:48:03.000Z</time>
      </trkpt>
      <trkpt lat="44.34429" lon="4.30207">
        <ele>269.20001220703</ele>
        <time>2012-05-19T15:48:07.000Z</time>
      </trkpt>
      <trkpt lat="44.34428" lon="4.3021">
        <ele>269.39999389648</ele>
        <time>2012-05-19T15:48:08.000Z</time>
      </trkpt>
      <trkpt lat="44.3442" lon="4.3023">
        <ele>270.60000610352</ele>
        <time>2012-05-19T15:48:15.000Z</time>
      </trkpt>
      <trkpt lat="44.34413" lon="4.30245">
        <ele>271.20001220703</ele>
        <time>2012-05-19T15:48:21.000Z</time>
      </trkpt>
      <trkpt lat="44.34407" lon="4.30256">
        <ele>271.20001220703</ele>
        <time>2012-05-19T15:48:26.000Z</time>
      </trkpt>
      <trkpt lat="44.34406" lon="4.30259">
        <ele>271.20001220703</ele>
        <time>2012-05-19T15:48:27.000Z</time>
      </trkpt>
      <trkpt lat="44.34399" lon="4.30273">
        <ele>270.79998779297</ele>
        <time>2012-05-19T15:48:33.000Z</time>
      </trkpt>
      <trkpt lat="44.34387" lon="4.30275">
        <ele>269.60000610352</ele>
        <time>2012-05-19T15:48:39.000Z</time>
      </trkpt>
      <trkpt lat="44.34374" lon="4.30271">
        <ele>268.39999389648</ele>
        <time>2012-05-19T15:48:45.000Z</time>
      </trkpt>
      <trkpt lat="44.3437" lon="4.30262">
        <ele>268</ele>
        <time>2012-05-19T15:48:49.000Z</time>
      </trkpt>
      <trkpt lat="44.3437" lon="4.30263">
        <ele>268</ele>
        <time>2012-05-19T15:48:50.000Z</time>
      </trkpt>
      <trkpt lat="44.3437" lon="4.30279">
        <ele>268</ele>
        <time>2012-05-19T15:48:54.000Z</time>
      </trkpt>
      <trkpt lat="44.34363" lon="4.30303">
        <ele>267.20001220703</ele>
        <time>2012-05-19T15:48:59.000Z</time>
      </trkpt>
      <trkpt lat="44.34354" lon="4.3033">
        <ele>265.79998779297</ele>
        <time>2012-05-19T15:49:03.000Z</time>
      </trkpt>
      <trkpt lat="44.34352" lon="4.30357">
        <ele>263.20001220703</ele>
        <time>2012-05-19T15:49:06.000Z</time>
      </trkpt>
      <trkpt lat="44.3435" lon="4.30375">
        <ele>261</ele>
        <time>2012-05-19T15:49:08.000Z</time>
      </trkpt>
      <trkpt lat="44.34348" lon="4.30393">
        <ele>259.20001220703</ele>
        <time>2012-05-19T15:49:10.000Z</time>
      </trkpt>
      <trkpt lat="44.34344" lon="4.30409">
        <ele>257.20001220703</ele>
        <time>2012-05-19T15:49:12.000Z</time>
      </trkpt>
      <trkpt lat="44.3434" lon="4.30417">
        <ele>256.39999389648</ele>
        <time>2012-05-19T15:49:13.000Z</time>
      </trkpt>
      <trkpt lat="44.34325" lon="4.30444">
        <ele>252</ele>
        <time>2012-05-19T15:49:16.000Z</time>
      </trkpt>
      <trkpt lat="44.34322" lon="4.30471">
        <ele>248.60000610352</ele>
        <time>2012-05-19T15:49:18.000Z</time>
      </trkpt>
      <trkpt lat="44.3432" lon="4.30485">
        <ele>246.80000305176</ele>
        <time>2012-05-19T15:49:19.000Z</time>
      </trkpt>
      <trkpt lat="44.34317" lon="4.30512">
        <ele>243.80000305176</ele>
        <time>2012-05-19T15:49:21.000Z</time>
      </trkpt>
      <trkpt lat="44.34312" lon="4.30534">
        <ele>241.39999389648</ele>
        <time>2012-05-19T15:49:23.000Z</time>
      </trkpt>
      <trkpt lat="44.34298" lon="4.30558">
        <ele>238.80000305176</ele>
        <time>2012-05-19T15:49:26.000Z</time>
      </trkpt>
      <trkpt lat="44.34292" lon="4.30565">
        <ele>238</ele>
        <time>2012-05-19T15:49:27.000Z</time>
      </trkpt>
      <trkpt lat="44.34275" lon="4.30579">
        <ele>236</ele>
        <time>2012-05-19T15:49:29.000Z</time>
      </trkpt>
      <trkpt lat="44.34257" lon="4.30597">
        <ele>234.19999694824</ele>
        <time>2012-05-19T15:49:31.000Z</time>
      </trkpt>
      <trkpt lat="44.34245" lon="4.30611">
        <ele>232.80000305176</ele>
        <time>2012-05-19T15:49:33.000Z</time>
      </trkpt>
      <trkpt lat="44.34242" lon="4.30615">
        <ele>232.19999694824</ele>
        <time>2012-05-19T15:49:34.000Z</time>
      </trkpt>
      <trkpt lat="44.34239" lon="4.3062">
        <ele>231.80000305176</ele>
        <time>2012-05-19T15:49:36.000Z</time>
      </trkpt>
      <trkpt lat="44.34233" lon="4.30628">
        <ele>231</ele>
        <time>2012-05-19T15:49:39.000Z</time>
      </trkpt>
      <trkpt lat="44.34232" lon="4.30632">
        <ele>230.60000610352</ele>
        <time>2012-05-19T15:49:40.000Z</time>
      </trkpt>
      <trkpt lat="44.3423" lon="4.30637">
        <ele>230.19999694824</ele>
        <time>2012-05-19T15:49:41.000Z</time>
      </trkpt>
      <trkpt lat="44.34222" lon="4.30656">
        <ele>228.39999389648</ele>
        <time>2012-05-19T15:49:44.000Z</time>
      </trkpt>
      <trkpt lat="44.34219" lon="4.30664">
        <ele>227.80000305176</ele>
        <time>2012-05-19T15:49:45.000Z</time>
      </trkpt>
      <trkpt lat="44.3421" lon="4.30687">
        <ele>226</ele>
        <time>2012-05-19T15:49:48.000Z</time>
      </trkpt>
      <trkpt lat="44.34201" lon="4.30713">
        <ele>224.60000610352</ele>
        <time>2012-05-19T15:49:51.000Z</time>
      </trkpt>
      <trkpt lat="44.34198" lon="4.30723">
        <ele>224.19999694824</ele>
        <time>2012-05-19T15:49:52.000Z</time>
      </trkpt>
      <trkpt lat="44.3419" lon="4.30752">
        <ele>222.80000305176</ele>
        <time>2012-05-19T15:49:55.000Z</time>
      </trkpt>
      <trkpt lat="44.34186" lon="4.3077">
        <ele>221.39999389648</ele>
        <time>2012-05-19T15:49:57.000Z</time>
      </trkpt>
      <trkpt lat="44.34184" lon="4.3078">
        <ele>220.60000610352</ele>
        <time>2012-05-19T15:49:58.000Z</time>
      </trkpt>
      <trkpt lat="44.34172" lon="4.3081">
        <ele>218</ele>
        <time>2012-05-19T15:50:01.000Z</time>
      </trkpt>
      <trkpt lat="44.34161" lon="4.30837">
        <ele>215.60000610352</ele>
        <time>2012-05-19T15:50:04.000Z</time>
      </trkpt>
      <trkpt lat="44.34155" lon="4.3085">
        <ele>214.60000610352</ele>
        <time>2012-05-19T15:50:06.000Z</time>
      </trkpt>
      <trkpt lat="44.34154" lon="4.30855">
        <ele>214.19999694824</ele>
        <time>2012-05-19T15:50:07.000Z</time>
      </trkpt>
      <trkpt lat="44.34156" lon="4.30865">
        <ele>213.39999389648</ele>
        <time>2012-05-19T15:50:09.000Z</time>
      </trkpt>
      <trkpt lat="44.3417" lon="4.30883">
        <ele>212.39999389648</ele>
        <time>2012-05-19T15:50:12.000Z</time>
      </trkpt>
      <trkpt lat="44.34189" lon="4.30904">
        <ele>211</ele>
        <time>2012-05-19T15:50:15.000Z</time>
      </trkpt>
      <trkpt lat="44.34203" lon="4.30918">
        <ele>209.80000305176</ele>
        <time>2012-05-19T15:50:17.000Z</time>
      </trkpt>
      <trkpt lat="44.34217" lon="4.30934">
        <ele>208.60000610352</ele>
        <time>2012-05-19T15:50:19.000Z</time>
      </trkpt>
      <trkpt lat="44.34236" lon="4.30956">
        <ele>206.19999694824</ele>
        <time>2012-05-19T15:50:22.000Z</time>
      </trkpt>
      <trkpt lat="44.34242" lon="4.30965">
        <ele>205.19999694824</ele>
        <time>2012-05-19T15:50:23.000Z</time>
      </trkpt>
      <trkpt lat="44.34255" lon="4.30984">
        <ele>202.80000305176</ele>
        <time>2012-05-19T15:50:25.000Z</time>
      </trkpt>
      <trkpt lat="44.34268" lon="4.31013">
        <ele>200.19999694824</ele>
        <time>2012-05-19T15:50:28.000Z</time>
      </trkpt>
      <trkpt lat="44.34272" lon="4.31024">
        <ele>199.19999694824</ele>
        <time>2012-05-19T15:50:29.000Z</time>
      </trkpt>
      <trkpt lat="44.34279" lon="4.3106">
        <ele>196.39999389648</ele>
        <time>2012-05-19T15:50:32.000Z</time>
      </trkpt>
      <trkpt lat="44.3428" lon="4.31069">
        <ele>195.60000610352</ele>
        <time>2012-05-19T15:50:33.000Z</time>
      </trkpt>
      <trkpt lat="44.34279" lon="4.31091">
        <ele>194</ele>
        <time>2012-05-19T15:50:35.000Z</time>
      </trkpt>
      <trkpt lat="44.34267" lon="4.31119">
        <ele>192.19999694824</ele>
        <time>2012-05-19T15:50:38.000Z</time>
      </trkpt>
      <trkpt lat="44.34263" lon="4.31129">
        <ele>191.39999389648</ele>
        <time>2012-05-19T15:50:39.000Z</time>
      </trkpt>
      <trkpt lat="44.3426" lon="4.31138">
        <ele>190.80000305176</ele>
        <time>2012-05-19T15:50:40.000Z</time>
      </trkpt>
      <trkpt lat="44.3426" lon="4.31159">
        <ele>189.80000305176</ele>
        <time>2012-05-19T15:50:42.000Z</time>
      </trkpt>
      <trkpt lat="44.34263" lon="4.31178">
        <ele>189.80000305176</ele>
        <time>2012-05-19T15:50:44.000Z</time>
      </trkpt>
      <trkpt lat="44.34264" lon="4.31189">
        <ele>190</ele>
        <time>2012-05-19T15:50:45.000Z</time>
      </trkpt>
      <trkpt lat="44.34264" lon="4.31197">
        <ele>190.39999389648</ele>
        <time>2012-05-19T15:50:46.000Z</time>
      </trkpt>
      <trkpt lat="44.34264" lon="4.31208">
        <ele>190.80000305176</ele>
        <time>2012-05-19T15:50:47.000Z</time>
      </trkpt>
      <trkpt lat="44.34266" lon="4.31225">
        <ele>191.39999389648</ele>
        <time>2012-05-19T15:50:49.000Z</time>
      </trkpt>
      <trkpt lat="44.34268" lon="4.31243">
        <ele>192</ele>
        <time>2012-05-19T15:50:51.000Z</time>
      </trkpt>
      <trkpt lat="44.3427" lon="4.3127">
        <ele>192.80000305176</ele>
        <time>2012-05-19T15:50:54.000Z</time>
      </trkpt>
      <trkpt lat="44.34269" lon="4.31283">
        <ele>193.39999389648</ele>
        <time>2012-05-19T15:50:56.000Z</time>
      </trkpt>
      <trkpt lat="44.34269" lon="4.31289">
        <ele>193.39999389648</ele>
        <time>2012-05-19T15:50:57.000Z</time>
      </trkpt>
      <trkpt lat="44.34271" lon="4.31304">
        <ele>194</ele>
        <time>2012-05-19T15:51:00.000Z</time>
      </trkpt>
      <trkpt lat="44.34272" lon="4.3131">
        <ele>194.19999694824</ele>
        <time>2012-05-19T15:51:01.000Z</time>
      </trkpt>
      <trkpt lat="44.34273" lon="4.3132">
        <ele>194.60000610352</ele>
        <time>2012-05-19T15:51:03.000Z</time>
      </trkpt>
      <trkpt lat="44.34273" lon="4.31332">
        <ele>195</ele>
        <time>2012-05-19T15:51:06.000Z</time>
      </trkpt>
      <trkpt lat="44.34266" lon="4.3135">
        <ele>194.60000610352</ele>
        <time>2012-05-19T15:51:12.000Z</time>
      </trkpt>
      <trkpt lat="44.3426" lon="4.31371">
        <ele>194.19999694824</ele>
        <time>2012-05-19T15:51:17.000Z</time>
      </trkpt>
      <trkpt lat="44.34255" lon="4.31398">
        <ele>193.60000610352</ele>
        <time>2012-05-19T15:51:22.000Z</time>
      </trkpt>
      <trkpt lat="44.34253" lon="4.31404">
        <ele>193.39999389648</ele>
        <time>2012-05-19T15:51:23.000Z</time>
      </trkpt>
      <trkpt lat="44.34245" lon="4.3142">
        <ele>193.19999694824</ele>
        <time>2012-05-19T15:51:26.000Z</time>
      </trkpt>
      <trkpt lat="44.34242" lon="4.31422">
        <ele>193.19999694824</ele>
        <time>2012-05-19T15:51:27.000Z</time>
      </trkpt>
      <trkpt lat="44.34224" lon="4.31427">
        <ele>193.39999389648</ele>
        <time>2012-05-19T15:51:32.000Z</time>
      </trkpt>
      <trkpt lat="44.3422" lon="4.31437">
        <ele>194</ele>
        <time>2012-05-19T15:51:35.000Z</time>
      </trkpt>
      <trkpt lat="44.34223" lon="4.31451">
        <ele>195</ele>
        <time>2012-05-19T15:51:39.000Z</time>
      </trkpt>
      <trkpt lat="44.34233" lon="4.31468">
        <ele>196.19999694824</ele>
        <time>2012-05-19T15:51:45.000Z</time>
      </trkpt>
      <trkpt lat="44.34242" lon="4.31488">
        <ele>197.39999389648</ele>
        <time>2012-05-19T15:51:52.000Z</time>
      </trkpt>
      <trkpt lat="44.34243" lon="4.31504">
        <ele>198.39999389648</ele>
        <time>2012-05-19T15:51:57.000Z</time>
      </trkpt>
      <trkpt lat="44.34244" lon="4.3153">
        <ele>200</ele>
        <time>2012-05-19T15:52:05.000Z</time>
      </trkpt>
      <trkpt lat="44.34243" lon="4.31549">
        <ele>201.19999694824</ele>
        <time>2012-05-19T15:52:12.000Z</time>
      </trkpt>
      <trkpt lat="44.34242" lon="4.31563">
        <ele>202.19999694824</ele>
        <time>2012-05-19T15:52:18.000Z</time>
      </trkpt>
      <trkpt lat="44.3424" lon="4.31577">
        <ele>203.19999694824</ele>
        <time>2012-05-19T15:52:24.000Z</time>
      </trkpt>
      <trkpt lat="44.3424" lon="4.31593">
        <ele>204.39999389648</ele>
        <time>2012-05-19T15:52:30.000Z</time>
      </trkpt>
      <trkpt lat="44.34241" lon="4.31609">
        <ele>205.60000610352</ele>
        <time>2012-05-19T15:52:36.000Z</time>
      </trkpt>
      <trkpt lat="44.34238" lon="4.31627">
        <ele>207.19999694824</ele>
        <time>2012-05-19T15:52:43.000Z</time>
      </trkpt>
      <trkpt lat="44.34234" lon="4.31641">
        <ele>208.60000610352</ele>
        <time>2012-05-19T15:52:49.000Z</time>
      </trkpt>
      <trkpt lat="44.3424" lon="4.31653">
        <ele>209.39999389648</ele>
        <time>2012-05-19T15:52:55.000Z</time>
      </trkpt>
      <trkpt lat="44.34242" lon="4.31657">
        <ele>209.60000610352</ele>
        <time>2012-05-19T15:52:57.000Z</time>
      </trkpt>
      <trkpt lat="44.34242" lon="4.31667">
        <ele>210.39999389648</ele>
        <time>2012-05-19T15:53:01.000Z</time>
      </trkpt>
      <trkpt lat="44.34242" lon="4.31682">
        <ele>211.19999694824</ele>
        <time>2012-05-19T15:53:07.000Z</time>
      </trkpt>
      <trkpt lat="44.34246" lon="4.31697">
        <ele>211.60000610352</ele>
        <time>2012-05-19T15:53:14.000Z</time>
      </trkpt>
      <trkpt lat="44.34247" lon="4.31699">
        <ele>211.80000305176</ele>
        <time>2012-05-19T15:53:16.000Z</time>
      </trkpt>
      <trkpt lat="44.34251" lon="4.31703">
        <ele>211.80000305176</ele>
        <time>2012-05-19T15:53:20.000Z</time>
      </trkpt>
      <trkpt lat="44.34259" lon="4.31706">
        <ele>211.60000610352</ele>
        <time>2012-05-19T15:53:26.000Z</time>
      </trkpt>
      <trkpt lat="44.3426" lon="4.31706">
        <ele>211.60000610352</ele>
        <time>2012-05-19T15:53:27.000Z</time>
      </trkpt>
      <trkpt lat="44.34268" lon="4.31707">
        <ele>211.39999389648</ele>
        <time>2012-05-19T15:53:33.000Z</time>
      </trkpt>
      <trkpt lat="44.34282" lon="4.31705">
        <ele>211</ele>
        <time>2012-05-19T15:53:40.000Z</time>
      </trkpt>
      <trkpt lat="44.34286" lon="4.31705">
        <ele>210.80000305176</ele>
        <time>2012-05-19T15:53:45.000Z</time>
      </trkpt>
      <trkpt lat="44.34291" lon="4.31705">
        <ele>210.60000610352</ele>
        <time>2012-05-19T15:53:54.000Z</time>
      </trkpt>
      <trkpt lat="44.343" lon="4.31707">
        <ele>210.39999389648</ele>
        <time>2012-05-19T15:54:01.000Z</time>
      </trkpt>
      <trkpt lat="44.34313" lon="4.31707">
        <ele>210</ele>
        <time>2012-05-19T15:54:06.000Z</time>
      </trkpt>
      <trkpt lat="44.34331" lon="4.31703">
        <ele>209.60000610352</ele>
        <time>2012-05-19T15:54:13.000Z</time>
      </trkpt>
      <trkpt lat="44.34345" lon="4.31707">
        <ele>209.60000610352</ele>
        <time>2012-05-19T15:54:19.000Z</time>
      </trkpt>
      <trkpt lat="44.34355" lon="4.31714">
        <ele>209.80000305176</ele>
        <time>2012-05-19T15:54:24.000Z</time>
      </trkpt>
      <trkpt lat="44.34373" lon="4.31719">
        <ele>210.39999389648</ele>
        <time>2012-05-19T15:54:30.000Z</time>
      </trkpt>
      <trkpt lat="44.34394" lon="4.31727">
        <ele>211</ele>
        <time>2012-05-19T15:54:36.000Z</time>
      </trkpt>
      <trkpt lat="44.34412" lon="4.31735">
        <ele>212</ele>
        <time>2012-05-19T15:54:42.000Z</time>
      </trkpt>
      <trkpt lat="44.34415" lon="4.31736">
        <ele>212.19999694824</ele>
        <time>2012-05-19T15:54:43.000Z</time>
      </trkpt>
      <trkpt lat="44.34429" lon="4.31742">
        <ele>213</ele>
        <time>2012-05-19T15:54:49.000Z</time>
      </trkpt>
      <trkpt lat="44.34445" lon="4.31747">
        <ele>213.80000305176</ele>
        <time>2012-05-19T15:54:55.000Z</time>
      </trkpt>
      <trkpt lat="44.34462" lon="4.31751">
        <ele>214.60000610352</ele>
        <time>2012-05-19T15:55:01.000Z</time>
      </trkpt>
      <trkpt lat="44.34482" lon="4.31756">
        <ele>215</ele>
        <time>2012-05-19T15:55:08.000Z</time>
      </trkpt>
      <trkpt lat="44.345" lon="4.31757">
        <ele>215.80000305176</ele>
        <time>2012-05-19T15:55:14.000Z</time>
      </trkpt>
      <trkpt lat="44.34504" lon="4.31757">
        <ele>215.80000305176</ele>
        <time>2012-05-19T15:55:15.000Z</time>
      </trkpt>
      <trkpt lat="44.34526" lon="4.31763">
        <ele>216.39999389648</ele>
        <time>2012-05-19T15:55:20.000Z</time>
      </trkpt>
      <trkpt lat="44.34545" lon="4.31772">
        <ele>216.60000610352</ele>
        <time>2012-05-19T15:55:25.000Z</time>
      </trkpt>
      <trkpt lat="44.34549" lon="4.31775">
        <ele>216.80000305176</ele>
        <time>2012-05-19T15:55:26.000Z</time>
      </trkpt>
      <trkpt lat="44.34566" lon="4.31785">
        <ele>216.80000305176</ele>
        <time>2012-05-19T15:55:31.000Z</time>
      </trkpt>
      <trkpt lat="44.34571" lon="4.3179">
        <ele>216.80000305176</ele>
        <time>2012-05-19T15:55:33.000Z</time>
      </trkpt>
      <trkpt lat="44.34572" lon="4.31794">
        <ele>216.60000610352</ele>
        <time>2012-05-19T15:55:34.000Z</time>
      </trkpt>
      <trkpt lat="44.34571" lon="4.31802">
        <ele>216.19999694824</ele>
        <time>2012-05-19T15:55:36.000Z</time>
      </trkpt>
      <trkpt lat="44.34567" lon="4.31813">
        <ele>215.60000610352</ele>
        <time>2012-05-19T15:55:38.000Z</time>
      </trkpt>
      <trkpt lat="44.34564" lon="4.31822">
        <ele>215</ele>
        <time>2012-05-19T15:55:40.000Z</time>
      </trkpt>
      <trkpt lat="44.34553" lon="4.3184">
        <ele>213.60000610352</ele>
        <time>2012-05-19T15:55:44.000Z</time>
      </trkpt>
      <trkpt lat="44.34545" lon="4.31863">
        <ele>211.19999694824</ele>
        <time>2012-05-19T15:55:48.000Z</time>
      </trkpt>
      <trkpt lat="44.3454" lon="4.31883">
        <ele>209.19999694824</ele>
        <time>2012-05-19T15:55:52.000Z</time>
      </trkpt>
      <trkpt lat="44.34537" lon="4.31895">
        <ele>208</ele>
        <time>2012-05-19T15:55:54.000Z</time>
      </trkpt>
      <trkpt lat="44.34533" lon="4.31904">
        <ele>207</ele>
        <time>2012-05-19T15:55:56.000Z</time>
      </trkpt>
      <trkpt lat="44.34523" lon="4.31917">
        <ele>205.60000610352</ele>
        <time>2012-05-19T15:55:59.000Z</time>
      </trkpt>
      <trkpt lat="44.3452" lon="4.31923">
        <ele>205</ele>
        <time>2012-05-19T15:56:00.000Z</time>
      </trkpt>
      <trkpt lat="44.34512" lon="4.31938">
        <ele>203.39999389648</ele>
        <time>2012-05-19T15:56:03.000Z</time>
      </trkpt>
      <trkpt lat="44.34502" lon="4.31964">
        <ele>200.60000610352</ele>
        <time>2012-05-19T15:56:08.000Z</time>
      </trkpt>
      <trkpt lat="44.34501" lon="4.31969">
        <ele>200</ele>
        <time>2012-05-19T15:56:09.000Z</time>
      </trkpt>
      <trkpt lat="44.34498" lon="4.31978">
        <ele>199</ele>
        <time>2012-05-19T15:56:11.000Z</time>
      </trkpt>
      <trkpt lat="44.34496" lon="4.31982">
        <ele>198.39999389648</ele>
        <time>2012-05-19T15:56:12.000Z</time>
      </trkpt>
      <trkpt lat="44.34492" lon="4.32006">
        <ele>196.39999389648</ele>
        <time>2012-05-19T15:56:16.000Z</time>
      </trkpt>
      <trkpt lat="44.34492" lon="4.32012">
        <ele>196.19999694824</ele>
        <time>2012-05-19T15:56:17.000Z</time>
      </trkpt>
      <trkpt lat="44.3449" lon="4.32019">
        <ele>196</ele>
        <time>2012-05-19T15:56:18.000Z</time>
      </trkpt>
      <trkpt lat="44.3449" lon="4.3203">
        <ele>195.60000610352</ele>
        <time>2012-05-19T15:56:20.000Z</time>
      </trkpt>
      <trkpt lat="44.34491" lon="4.32035">
        <ele>195.39999389648</ele>
        <time>2012-05-19T15:56:21.000Z</time>
      </trkpt>
      <trkpt lat="44.34491" lon="4.32056">
        <ele>194.80000305176</ele>
        <time>2012-05-19T15:56:24.000Z</time>
      </trkpt>
      <trkpt lat="44.34491" lon="4.32065">
        <ele>194.60000610352</ele>
        <time>2012-05-19T15:56:25.000Z</time>
      </trkpt>
      <trkpt lat="44.34485" lon="4.32096">
        <ele>193.39999389648</ele>
        <time>2012-05-19T15:56:29.000Z</time>
      </trkpt>
      <trkpt lat="44.34483" lon="4.3211">
        <ele>192.80000305176</ele>
        <time>2012-05-19T15:56:31.000Z</time>
      </trkpt>
      <trkpt lat="44.34481" lon="4.32123">
        <ele>192.19999694824</ele>
        <time>2012-05-19T15:56:33.000Z</time>
      </trkpt>
      <trkpt lat="44.3448" lon="4.32138">
        <ele>191.39999389648</ele>
        <time>2012-05-19T15:56:36.000Z</time>
      </trkpt>
      <trkpt lat="44.3448" lon="4.32143">
        <ele>191.19999694824</ele>
        <time>2012-05-19T15:56:37.000Z</time>
      </trkpt>
      <trkpt lat="44.34479" lon="4.32172">
        <ele>189.60000610352</ele>
        <time>2012-05-19T15:56:41.000Z</time>
      </trkpt>
      <trkpt lat="44.34479" lon="4.32197">
        <ele>188</ele>
        <time>2012-05-19T15:56:44.000Z</time>
      </trkpt>
      <trkpt lat="44.34473" lon="4.32208">
        <ele>187</ele>
        <time>2012-05-19T15:56:46.000Z</time>
      </trkpt>
      <trkpt lat="44.3446" lon="4.32204">
        <ele>186.60000610352</ele>
        <time>2012-05-19T15:56:49.000Z</time>
      </trkpt>
      <trkpt lat="44.34448" lon="4.32204">
        <ele>186</ele>
        <time>2012-05-19T15:56:52.000Z</time>
      </trkpt>
      <trkpt lat="44.34447" lon="4.32218">
        <ele>185</ele>
        <time>2012-05-19T15:56:55.000Z</time>
      </trkpt>
      <trkpt lat="44.34461" lon="4.32237">
        <ele>184.60000610352</ele>
        <time>2012-05-19T15:56:59.000Z</time>
      </trkpt>
      <trkpt lat="44.34466" lon="4.32242">
        <ele>184.39999389648</ele>
        <time>2012-05-19T15:57:00.000Z</time>
      </trkpt>
      <trkpt lat="44.3448" lon="4.32262">
        <ele>184.19999694824</ele>
        <time>2012-05-19T15:57:03.000Z</time>
      </trkpt>
      <trkpt lat="44.34498" lon="4.32281">
        <ele>184</ele>
        <time>2012-05-19T15:57:06.000Z</time>
      </trkpt>
      <trkpt lat="44.34511" lon="4.3229">
        <ele>183.80000305176</ele>
        <time>2012-05-19T15:57:08.000Z</time>
      </trkpt>
      <trkpt lat="44.34524" lon="4.32299">
        <ele>183.60000610352</ele>
        <time>2012-05-19T15:57:10.000Z</time>
      </trkpt>
      <trkpt lat="44.34536" lon="4.32308">
        <ele>183.19999694824</ele>
        <time>2012-05-19T15:57:12.000Z</time>
      </trkpt>
      <trkpt lat="44.34542" lon="4.32313">
        <ele>183</ele>
        <time>2012-05-19T15:57:13.000Z</time>
      </trkpt>
      <trkpt lat="44.34557" lon="4.32327">
        <ele>182.60000610352</ele>
        <time>2012-05-19T15:57:16.000Z</time>
      </trkpt>
      <trkpt lat="44.34571" lon="4.32339">
        <ele>182.80000305176</ele>
        <time>2012-05-19T15:57:20.000Z</time>
      </trkpt>
      <trkpt lat="44.34586" lon="4.32356">
        <ele>183.60000610352</ele>
        <time>2012-05-19T15:57:24.000Z</time>
      </trkpt>
      <trkpt lat="44.3459" lon="4.32359">
        <ele>183.80000305176</ele>
        <time>2012-05-19T15:57:25.000Z</time>
      </trkpt>
      <trkpt lat="44.34607" lon="4.32371">
        <ele>184</ele>
        <time>2012-05-19T15:57:30.000Z</time>
      </trkpt>
      <trkpt lat="44.34611" lon="4.3237">
        <ele>184.19999694824</ele>
        <time>2012-05-19T15:57:31.000Z</time>
      </trkpt>
      <trkpt lat="44.34624" lon="4.32365">
        <ele>184.19999694824</ele>
        <time>2012-05-19T15:57:34.000Z</time>
      </trkpt>
      <trkpt lat="44.34632" lon="4.32361">
        <ele>184.19999694824</ele>
        <time>2012-05-19T15:57:36.000Z</time>
      </trkpt>
      <trkpt lat="44.34648" lon="4.32345">
        <ele>184.60000610352</ele>
        <time>2012-05-19T15:57:42.000Z</time>
      </trkpt>
      <trkpt lat="44.34663" lon="4.32327">
        <ele>185.19999694824</ele>
        <time>2012-05-19T15:57:49.000Z</time>
      </trkpt>
      <trkpt lat="44.34668" lon="4.32323">
        <ele>185.60000610352</ele>
        <time>2012-05-19T15:57:51.000Z</time>
      </trkpt>
      <trkpt lat="44.34682" lon="4.32315">
        <ele>186.60000610352</ele>
        <time>2012-05-19T15:57:56.000Z</time>
      </trkpt>
      <trkpt lat="44.34694" lon="4.32314">
        <ele>187</ele>
        <time>2012-05-19T15:58:01.000Z</time>
      </trkpt>
      <trkpt lat="44.34709" lon="4.32321">
        <ele>187.19999694824</ele>
        <time>2012-05-19T15:58:07.000Z</time>
      </trkpt>
      <trkpt lat="44.34724" lon="4.32332">
        <ele>187.19999694824</ele>
        <time>2012-05-19T15:58:14.000Z</time>
      </trkpt>
      <trkpt lat="44.34739" lon="4.32344">
        <ele>187.80000305176</ele>
        <time>2012-05-19T15:58:22.000Z</time>
      </trkpt>
      <trkpt lat="44.34756" lon="4.32353">
        <ele>189</ele>
        <time>2012-05-19T15:58:30.000Z</time>
      </trkpt>
      <trkpt lat="44.34759" lon="4.32353">
        <ele>189.19999694824</ele>
        <time>2012-05-19T15:58:31.000Z</time>
      </trkpt>
      <trkpt lat="44.34778" lon="4.32353">
        <ele>191</ele>
        <time>2012-05-19T15:58:39.000Z</time>
      </trkpt>
      <trkpt lat="44.34798" lon="4.32351">
        <ele>192.80000305176</ele>
        <time>2012-05-19T15:58:47.000Z</time>
      </trkpt>
      <trkpt lat="44.348" lon="4.3235">
        <ele>193</ele>
        <time>2012-05-19T15:58:48.000Z</time>
      </trkpt>
      <trkpt lat="44.34817" lon="4.32345">
        <ele>194.39999389648</ele>
        <time>2012-05-19T15:58:55.000Z</time>
      </trkpt>
      <trkpt lat="44.34835" lon="4.3234">
        <ele>196</ele>
        <time>2012-05-19T15:59:02.000Z</time>
      </trkpt>
      <trkpt lat="44.34837" lon="4.32339">
        <ele>196.19999694824</ele>
        <time>2012-05-19T15:59:03.000Z</time>
      </trkpt>
      <trkpt lat="44.34856" lon="4.32335">
        <ele>197</ele>
        <time>2012-05-19T15:59:10.000Z</time>
      </trkpt>
      <trkpt lat="44.34861" lon="4.32333">
        <ele>197.39999389648</ele>
        <time>2012-05-19T15:59:12.000Z</time>
      </trkpt>
      <trkpt lat="44.34881" lon="4.32329">
        <ele>198.19999694824</ele>
        <time>2012-05-19T15:59:19.000Z</time>
      </trkpt>
      <trkpt lat="44.34884" lon="4.32328">
        <ele>198.39999389648</ele>
        <time>2012-05-19T15:59:20.000Z</time>
      </trkpt>
      <trkpt lat="44.34903" lon="4.32329">
        <ele>199.19999694824</ele>
        <time>2012-05-19T15:59:26.000Z</time>
      </trkpt>
      <trkpt lat="44.34908" lon="4.3233">
        <ele>199.60000610352</ele>
        <time>2012-05-19T15:59:28.000Z</time>
      </trkpt>
      <trkpt lat="44.34927" lon="4.32335">
        <ele>200.39999389648</ele>
        <time>2012-05-19T15:59:34.000Z</time>
      </trkpt>
      <trkpt lat="44.34936" lon="4.32337">
        <ele>200.80000305176</ele>
        <time>2012-05-19T15:59:37.000Z</time>
      </trkpt>
      <trkpt lat="44.34955" lon="4.32344">
        <ele>201.39999389648</ele>
        <time>2012-05-19T15:59:43.000Z</time>
      </trkpt>
      <trkpt lat="44.34961" lon="4.32347">
        <ele>201.39999389648</ele>
        <time>2012-05-19T15:59:45.000Z</time>
      </trkpt>
      <trkpt lat="44.34979" lon="4.32352">
        <ele>202</ele>
        <time>2012-05-19T15:59:51.000Z</time>
      </trkpt>
      <trkpt lat="44.34989" lon="4.32354">
        <ele>202.19999694824</ele>
        <time>2012-05-19T15:59:54.000Z</time>
      </trkpt>
      <trkpt lat="44.35009" lon="4.32353">
        <ele>202.80000305176</ele>
        <time>2012-05-19T16:00:00.000Z</time>
      </trkpt>
      <trkpt lat="44.35016" lon="4.32352">
        <ele>203.19999694824</ele>
        <time>2012-05-19T16:00:02.000Z</time>
      </trkpt>
      <trkpt lat="44.35035" lon="4.32351">
        <ele>203.80000305176</ele>
        <time>2012-05-19T16:00:08.000Z</time>
      </trkpt>
      <trkpt lat="44.35045" lon="4.3235">
        <ele>204.19999694824</ele>
        <time>2012-05-19T16:00:11.000Z</time>
      </trkpt>
      <trkpt lat="44.35065" lon="4.32349">
        <ele>205</ele>
        <time>2012-05-19T16:00:17.000Z</time>
      </trkpt>
      <trkpt lat="44.35071" lon="4.32348">
        <ele>205.19999694824</ele>
        <time>2012-05-19T16:00:19.000Z</time>
      </trkpt>
      <trkpt lat="44.35081" lon="4.32348">
        <ele>205.60000610352</ele>
        <time>2012-05-19T16:00:22.000Z</time>
      </trkpt>
      <trkpt lat="44.35101" lon="4.32347">
        <ele>206.19999694824</ele>
        <time>2012-05-19T16:00:28.000Z</time>
      </trkpt>
      <trkpt lat="44.35104" lon="4.32346">
        <ele>206.39999389648</ele>
        <time>2012-05-19T16:00:29.000Z</time>
      </trkpt>
      <trkpt lat="44.35119" lon="4.32344">
        <ele>207</ele>
        <time>2012-05-19T16:00:35.000Z</time>
      </trkpt>
      <trkpt lat="44.35134" lon="4.3234">
        <ele>207.60000610352</ele>
        <time>2012-05-19T16:00:42.000Z</time>
      </trkpt>
      <trkpt lat="44.35153" lon="4.32332">
        <ele>208.60000610352</ele>
        <time>2012-05-19T16:00:49.000Z</time>
      </trkpt>
      <trkpt lat="44.35156" lon="4.32331">
        <ele>208.60000610352</ele>
        <time>2012-05-19T16:00:50.000Z</time>
      </trkpt>
      <trkpt lat="44.35175" lon="4.3232">
        <ele>209.60000610352</ele>
        <time>2012-05-19T16:00:57.000Z</time>
      </trkpt>
      <trkpt lat="44.35182" lon="4.32315">
        <ele>210.19999694824</ele>
        <time>2012-05-19T16:01:00.000Z</time>
      </trkpt>
      <trkpt lat="44.35201" lon="4.32304">
        <ele>211.60000610352</ele>
        <time>2012-05-19T16:01:07.000Z</time>
      </trkpt>
      <trkpt lat="44.35204" lon="4.32302">
        <ele>212</ele>
        <time>2012-05-19T16:01:08.000Z</time>
      </trkpt>
      <trkpt lat="44.35224" lon="4.32294">
        <ele>213.60000610352</ele>
        <time>2012-05-19T16:01:15.000Z</time>
      </trkpt>
      <trkpt lat="44.35229" lon="4.32293">
        <ele>214</ele>
        <time>2012-05-19T16:01:17.000Z</time>
      </trkpt>
      <trkpt lat="44.35249" lon="4.32291">
        <ele>215.39999389648</ele>
        <time>2012-05-19T16:01:24.000Z</time>
      </trkpt>
      <trkpt lat="44.35256" lon="4.32287">
        <ele>216</ele>
        <time>2012-05-19T16:01:27.000Z</time>
      </trkpt>
      <trkpt lat="44.35271" lon="4.3227">
        <ele>217.60000610352</ele>
        <time>2012-05-19T16:01:34.000Z</time>
      </trkpt>
      <trkpt lat="44.3528" lon="4.32259">
        <ele>218.39999389648</ele>
        <time>2012-05-19T16:01:39.000Z</time>
      </trkpt>
      <trkpt lat="44.35296" lon="4.32242">
        <ele>220</ele>
        <time>2012-05-19T16:01:47.000Z</time>
      </trkpt>
      <trkpt lat="44.3531" lon="4.32232">
        <ele>221.19999694824</ele>
        <time>2012-05-19T16:01:53.000Z</time>
      </trkpt>
      <trkpt lat="44.35325" lon="4.32218">
        <ele>223</ele>
        <time>2012-05-19T16:02:00.000Z</time>
      </trkpt>
      <trkpt lat="44.35342" lon="4.32203">
        <ele>224.80000305176</ele>
        <time>2012-05-19T16:02:08.000Z</time>
      </trkpt>
      <trkpt lat="44.35358" lon="4.32196">
        <ele>226.19999694824</ele>
        <time>2012-05-19T16:02:15.000Z</time>
      </trkpt>
      <trkpt lat="44.3537" lon="4.32194">
        <ele>227.19999694824</ele>
        <time>2012-05-19T16:02:22.000Z</time>
      </trkpt>
      <trkpt lat="44.35372" lon="4.32194">
        <ele>227.19999694824</ele>
        <time>2012-05-19T16:02:27.000Z</time>
      </trkpt>
      <trkpt lat="44.35375" lon="4.32198">
        <ele>227.19999694824</ele>
        <time>2012-05-19T16:02:37.000Z</time>
      </trkpt>
      <trkpt lat="44.35381" lon="4.32206">
        <ele>227</ele>
        <time>2012-05-19T16:02:43.000Z</time>
      </trkpt>
      <trkpt lat="44.35387" lon="4.32218">
        <ele>226.39999389648</ele>
        <time>2012-05-19T16:02:47.000Z</time>
      </trkpt>
      <trkpt lat="44.35399" lon="4.32244">
        <ele>224.80000305176</ele>
        <time>2012-05-19T16:02:51.000Z</time>
      </trkpt>
      <trkpt lat="44.35407" lon="4.32271">
        <ele>223.19999694824</ele>
        <time>2012-05-19T16:02:54.000Z</time>
      </trkpt>
      <trkpt lat="44.35412" lon="4.32288">
        <ele>222.19999694824</ele>
        <time>2012-05-19T16:02:56.000Z</time>
      </trkpt>
      <trkpt lat="44.35419" lon="4.32316">
        <ele>220.39999389648</ele>
        <time>2012-05-19T16:02:59.000Z</time>
      </trkpt>
      <trkpt lat="44.35423" lon="4.32333">
        <ele>219.19999694824</ele>
        <time>2012-05-19T16:03:01.000Z</time>
      </trkpt>
      <trkpt lat="44.35431" lon="4.32359">
        <ele>217.39999389648</ele>
        <time>2012-05-19T16:03:05.000Z</time>
      </trkpt>
      <trkpt lat="44.35433" lon="4.32368">
        <ele>216.80000305176</ele>
        <time>2012-05-19T16:03:07.000Z</time>
      </trkpt>
      <trkpt lat="44.35434" lon="4.32394">
        <ele>214.80000305176</ele>
        <time>2012-05-19T16:03:13.000Z</time>
      </trkpt>
      <trkpt lat="44.3543" lon="4.32405">
        <ele>213.80000305176</ele>
        <time>2012-05-19T16:03:18.000Z</time>
      </trkpt>
      <trkpt lat="44.35429" lon="4.32406">
        <ele>213.80000305176</ele>
        <time>2012-05-19T16:03:19.000Z</time>
      </trkpt>
      <trkpt lat="44.35425" lon="4.32407">
        <ele>213.80000305176</ele>
        <time>2012-05-19T16:03:23.000Z</time>
      </trkpt>
      <trkpt lat="44.35426" lon="4.32408">
        <ele>213.60000610352</ele>
        <time>2012-05-19T16:03:29.000Z</time>
      </trkpt>
      <trkpt lat="44.3542" lon="4.32411">
        <ele>213.39999389648</ele>
        <time>2012-05-19T16:03:35.000Z</time>
      </trkpt>
      <trkpt lat="44.35419" lon="4.32414">
        <ele>213.19999694824</ele>
        <time>2012-05-19T16:03:39.000Z</time>
      </trkpt>
      <trkpt lat="44.35416" lon="4.32419">
        <ele>212.80000305176</ele>
        <time>2012-05-19T16:03:44.000Z</time>
      </trkpt>
      <trkpt lat="44.35417" lon="4.32425">
        <ele>212.60000610352</ele>
        <time>2012-05-19T16:03:46.000Z</time>
      </trkpt>
      <trkpt lat="44.35419" lon="4.32432">
        <ele>212.19999694824</ele>
        <time>2012-05-19T16:03:48.000Z</time>
      </trkpt>
      <trkpt lat="44.35426" lon="4.32443">
        <ele>211.39999389648</ele>
        <time>2012-05-19T16:03:51.000Z</time>
      </trkpt>
      <trkpt lat="44.35431" lon="4.32451">
        <ele>211.19999694824</ele>
        <time>2012-05-19T16:03:53.000Z</time>
      </trkpt>
      <trkpt lat="44.35443" lon="4.32466">
        <ele>210.39999389648</ele>
        <time>2012-05-19T16:03:58.000Z</time>
      </trkpt>
      <trkpt lat="44.3545" lon="4.32493">
        <ele>209.19999694824</ele>
        <time>2012-05-19T16:04:03.000Z</time>
      </trkpt>
      <trkpt lat="44.35455" lon="4.32508">
        <ele>209</ele>
        <time>2012-05-19T16:04:07.000Z</time>
      </trkpt>
      <trkpt lat="44.35456" lon="4.3251">
        <ele>209</ele>
        <time>2012-05-19T16:04:12.000Z</time>
      </trkpt>
      <trkpt lat="44.35456" lon="4.32512">
        <ele>209</ele>
        <time>2012-05-19T16:04:13.000Z</time>
      </trkpt>
      <trkpt lat="44.35457" lon="4.32517">
        <ele>209</ele>
        <time>2012-05-19T16:04:16.000Z</time>
      </trkpt>
      <trkpt lat="44.35457" lon="4.32518">
        <ele>209</ele>
        <time>2012-05-19T16:04:22.000Z</time>
      </trkpt>
      <trkpt lat="44.35456" lon="4.32525">
        <ele>209</ele>
        <time>2012-05-19T16:04:27.000Z</time>
      </trkpt>
      <trkpt lat="44.35457" lon="4.32534">
        <ele>209.19999694824</ele>
        <time>2012-05-19T16:04:33.000Z</time>
      </trkpt>
      <trkpt lat="44.35457" lon="4.32546">
        <ele>209.19999694824</ele>
        <time>2012-05-19T16:04:38.000Z</time>
      </trkpt>
      <trkpt lat="44.3546" lon="4.32566">
        <ele>209.60000610352</ele>
        <time>2012-05-19T16:04:44.000Z</time>
      </trkpt>
      <trkpt lat="44.35462" lon="4.32584">
        <ele>210</ele>
        <time>2012-05-19T16:04:51.000Z</time>
      </trkpt>
      <trkpt lat="44.35465" lon="4.32599">
        <ele>210.80000305176</ele>
        <time>2012-05-19T16:04:58.000Z</time>
      </trkpt>
      <trkpt lat="44.35468" lon="4.3262">
        <ele>212</ele>
        <time>2012-05-19T16:05:07.000Z</time>
      </trkpt>
      <trkpt lat="44.35472" lon="4.32642">
        <ele>213.39999389648</ele>
        <time>2012-05-19T16:05:16.000Z</time>
      </trkpt>
      <trkpt lat="44.35477" lon="4.32666">
        <ele>214.80000305176</ele>
        <time>2012-05-19T16:05:24.000Z</time>
      </trkpt>
      <trkpt lat="44.35486" lon="4.32692">
        <ele>216</ele>
        <time>2012-05-19T16:05:31.000Z</time>
      </trkpt>
      <trkpt lat="44.35487" lon="4.32695">
        <ele>216.19999694824</ele>
        <time>2012-05-19T16:05:32.000Z</time>
      </trkpt>
      <trkpt lat="44.35495" lon="4.32719">
        <ele>216.80000305176</ele>
        <time>2012-05-19T16:05:38.000Z</time>
      </trkpt>
      <trkpt lat="44.355" lon="4.32733">
        <ele>217</ele>
        <time>2012-05-19T16:05:41.000Z</time>
      </trkpt>
      <trkpt lat="44.35506" lon="4.32758">
        <ele>217.60000610352</ele>
        <time>2012-05-19T16:05:46.000Z</time>
      </trkpt>
      <trkpt lat="44.35513" lon="4.32778">
        <ele>219</ele>
        <time>2012-05-19T16:05:50.000Z</time>
      </trkpt>
      <trkpt lat="44.3552" lon="4.32799">
        <ele>220</ele>
        <time>2012-05-19T16:05:55.000Z</time>
      </trkpt>
      <trkpt lat="44.35531" lon="4.32821">
        <ele>221.19999694824</ele>
        <time>2012-05-19T16:06:02.000Z</time>
      </trkpt>
      <trkpt lat="44.35533" lon="4.32824">
        <ele>221.19999694824</ele>
        <time>2012-05-19T16:06:03.000Z</time>
      </trkpt>
      <trkpt lat="44.35542" lon="4.32847">
        <ele>222.60000610352</ele>
        <time>2012-05-19T16:06:11.000Z</time>
      </trkpt>
      <trkpt lat="44.35551" lon="4.32865">
        <ele>223.60000610352</ele>
        <time>2012-05-19T16:06:18.000Z</time>
      </trkpt>
      <trkpt lat="44.35557" lon="4.3288">
        <ele>224.39999389648</ele>
        <time>2012-05-19T16:06:24.000Z</time>
      </trkpt>
      <trkpt lat="44.35564" lon="4.32898">
        <ele>225.19999694824</ele>
        <time>2012-05-19T16:06:32.000Z</time>
      </trkpt>
      <trkpt lat="44.35571" lon="4.3291">
        <ele>225.39999389648</ele>
        <time>2012-05-19T16:06:38.000Z</time>
      </trkpt>
      <trkpt lat="44.35572" lon="4.32912">
        <ele>225.60000610352</ele>
        <time>2012-05-19T16:06:39.000Z</time>
      </trkpt>
      <trkpt lat="44.35582" lon="4.32929">
        <ele>226</ele>
        <time>2012-05-19T16:06:47.000Z</time>
      </trkpt>
      <trkpt lat="44.35592" lon="4.32947">
        <ele>227.39999389648</ele>
        <time>2012-05-19T16:06:57.000Z</time>
      </trkpt>
      <trkpt lat="44.35599" lon="4.32962">
        <ele>228.60000610352</ele>
        <time>2012-05-19T16:07:05.000Z</time>
      </trkpt>
      <trkpt lat="44.35604" lon="4.32972">
        <ele>229.39999389648</ele>
        <time>2012-05-19T16:07:11.000Z</time>
      </trkpt>
      <trkpt lat="44.3561" lon="4.32987">
        <ele>230.39999389648</ele>
        <time>2012-05-19T16:07:19.000Z</time>
      </trkpt>
      <trkpt lat="44.35613" lon="4.33002">
        <ele>231.60000610352</ele>
        <time>2012-05-19T16:07:26.000Z</time>
      </trkpt>
      <trkpt lat="44.35616" lon="4.3302">
        <ele>232.80000305176</ele>
        <time>2012-05-19T16:07:33.000Z</time>
      </trkpt>
      <trkpt lat="44.35617" lon="4.33041">
        <ele>234.39999389648</ele>
        <time>2012-05-19T16:07:41.000Z</time>
      </trkpt>
      <trkpt lat="44.35616" lon="4.33064">
        <ele>236.19999694824</ele>
        <time>2012-05-19T16:07:50.000Z</time>
      </trkpt>
      <trkpt lat="44.35621" lon="4.33081">
        <ele>237.39999389648</ele>
        <time>2012-05-19T16:07:57.000Z</time>
      </trkpt>
      <trkpt lat="44.35623" lon="4.33095">
        <ele>237.80000305176</ele>
        <time>2012-05-19T16:08:03.000Z</time>
      </trkpt>
      <trkpt lat="44.35621" lon="4.33106">
        <ele>238.19999694824</ele>
        <time>2012-05-19T16:08:08.000Z</time>
      </trkpt>
      <trkpt lat="44.35617" lon="4.33129">
        <ele>238.60000610352</ele>
        <time>2012-05-19T16:08:16.000Z</time>
      </trkpt>
      <trkpt lat="44.35613" lon="4.33154">
        <ele>239.19999694824</ele>
        <time>2012-05-19T16:08:25.000Z</time>
      </trkpt>
      <trkpt lat="44.35616" lon="4.33168">
        <ele>239.60000610352</ele>
        <time>2012-05-19T16:08:30.000Z</time>
      </trkpt>
      <trkpt lat="44.35616" lon="4.33173">
        <ele>239.39999389648</ele>
        <time>2012-05-19T16:08:32.000Z</time>
      </trkpt>
      <trkpt lat="44.35616" lon="4.33177">
        <ele>239.39999389648</ele>
        <time>2012-05-19T16:08:34.000Z</time>
      </trkpt>
      <trkpt lat="44.35617" lon="4.33191">
        <ele>239.19999694824</ele>
        <time>2012-05-19T16:08:39.000Z</time>
      </trkpt>
      <trkpt lat="44.35617" lon="4.33194">
        <ele>239.19999694824</ele>
        <time>2012-05-19T16:08:41.000Z</time>
      </trkpt>
      <trkpt lat="44.35616" lon="4.33202">
        <ele>239</ele>
        <time>2012-05-19T16:08:44.000Z</time>
      </trkpt>
      <trkpt lat="44.35616" lon="4.33214">
        <ele>238.80000305176</ele>
        <time>2012-05-19T16:08:50.000Z</time>
      </trkpt>
      <trkpt lat="44.35616" lon="4.33219">
        <ele>238.80000305176</ele>
        <time>2012-05-19T16:08:57.000Z</time>
      </trkpt>
      <trkpt lat="44.35616" lon="4.33228">
        <ele>238.60000610352</ele>
        <time>2012-05-19T16:09:21.000Z</time>
      </trkpt>
      <trkpt lat="44.35614" lon="4.33242">
        <ele>238.19999694824</ele>
        <time>2012-05-19T16:09:28.000Z</time>
      </trkpt>
      <trkpt lat="44.35614" lon="4.33243">
        <ele>238.19999694824</ele>
        <time>2012-05-19T16:09:30.000Z</time>
      </trkpt>
      <trkpt lat="44.35613" lon="4.33244">
        <ele>238</ele>
        <time>2012-05-19T16:09:32.000Z</time>
      </trkpt>
      <trkpt lat="44.35613" lon="4.33244">
        <ele>238</ele>
        <time>2012-05-19T16:09:41.000Z</time>
      </trkpt>
      <trkpt lat="44.35614" lon="4.33241">
        <ele>238.19999694824</ele>
        <time>2012-05-19T16:10:34.000Z</time>
      </trkpt>
      <trkpt lat="44.35614" lon="4.33247">
        <ele>238.19999694824</ele>
        <time>2012-05-19T16:10:46.000Z</time>
      </trkpt>
      <trkpt lat="44.35615" lon="4.33269">
        <ele>238.39999389648</ele>
        <time>2012-05-19T16:10:52.000Z</time>
      </trkpt>
      <trkpt lat="44.35616" lon="4.33296">
        <ele>238.60000610352</ele>
        <time>2012-05-19T16:10:57.000Z</time>
      </trkpt>
      <trkpt lat="44.35616" lon="4.33302">
        <ele>238.60000610352</ele>
        <time>2012-05-19T16:10:58.000Z</time>
      </trkpt>
      <trkpt lat="44.35614" lon="4.33327">
        <ele>238.39999389648</ele>
        <time>2012-05-19T16:11:02.000Z</time>
      </trkpt>
      <trkpt lat="44.35612" lon="4.33339">
        <ele>238</ele>
        <time>2012-05-19T16:11:04.000Z</time>
      </trkpt>
      <trkpt lat="44.35604" lon="4.33367">
        <ele>237</ele>
        <time>2012-05-19T16:11:09.000Z</time>
      </trkpt>
      <trkpt lat="44.35601" lon="4.33379">
        <ele>236.39999389648</ele>
        <time>2012-05-19T16:11:11.000Z</time>
      </trkpt>
      <trkpt lat="44.35594" lon="4.33402">
        <ele>235.80000305176</ele>
        <time>2012-05-19T16:11:15.000Z</time>
      </trkpt>
      <trkpt lat="44.35588" lon="4.33426">
        <ele>236</ele>
        <time>2012-05-19T16:11:19.000Z</time>
      </trkpt>
      <trkpt lat="44.35586" lon="4.33432">
        <ele>236.39999389648</ele>
        <time>2012-05-19T16:11:20.000Z</time>
      </trkpt>
      <trkpt lat="44.35585" lon="4.33438">
        <ele>236.60000610352</ele>
        <time>2012-05-19T16:11:21.000Z</time>
      </trkpt>
      <trkpt lat="44.35578" lon="4.33459">
        <ele>238.19999694824</ele>
        <time>2012-05-19T16:11:25.000Z</time>
      </trkpt>
      <trkpt lat="44.35577" lon="4.33464">
        <ele>238.60000610352</ele>
        <time>2012-05-19T16:11:26.000Z</time>
      </trkpt>
      <trkpt lat="44.35575" lon="4.33482">
        <ele>239.80000305176</ele>
        <time>2012-05-19T16:11:30.000Z</time>
      </trkpt>
      <trkpt lat="44.35576" lon="4.33489">
        <ele>240.39999389648</ele>
        <time>2012-05-19T16:11:32.000Z</time>
      </trkpt>
      <trkpt lat="44.35578" lon="4.33496">
        <ele>240.80000305176</ele>
        <time>2012-05-19T16:11:35.000Z</time>
      </trkpt>
      <trkpt lat="44.3558" lon="4.33503">
        <ele>241.19999694824</ele>
        <time>2012-05-19T16:11:40.000Z</time>
      </trkpt>
      <trkpt lat="44.35579" lon="4.33502">
        <ele>241.19999694824</ele>
        <time>2012-05-19T16:11:46.000Z</time>
      </trkpt>
      <trkpt lat="44.35583" lon="4.33511">
        <ele>241.60000610352</ele>
        <time>2012-05-19T16:13:09.000Z</time>
      </trkpt>
      <trkpt lat="44.35592" lon="4.33525">
        <ele>242.39999389648</ele>
        <time>2012-05-19T16:13:14.000Z</time>
      </trkpt>
      <trkpt lat="44.35604" lon="4.33544">
        <ele>243.39999389648</ele>
        <time>2012-05-19T16:13:21.000Z</time>
      </trkpt>
      <trkpt lat="44.35616" lon="4.33564">
        <ele>244.19999694824</ele>
        <time>2012-05-19T16:13:27.000Z</time>
      </trkpt>
      <trkpt lat="44.35618" lon="4.33566">
        <ele>244.19999694824</ele>
        <time>2012-05-19T16:13:28.000Z</time>
      </trkpt>
      <trkpt lat="44.35631" lon="4.33585">
        <ele>244.39999389648</ele>
        <time>2012-05-19T16:13:33.000Z</time>
      </trkpt>
      <trkpt lat="44.35634" lon="4.33589">
        <ele>244.19999694824</ele>
        <time>2012-05-19T16:13:34.000Z</time>
      </trkpt>
      <trkpt lat="44.35648" lon="4.33609">
        <ele>243.19999694824</ele>
        <time>2012-05-19T16:13:39.000Z</time>
      </trkpt>
      <trkpt lat="44.35661" lon="4.33628">
        <ele>242</ele>
        <time>2012-05-19T16:13:44.000Z</time>
      </trkpt>
      <trkpt lat="44.35665" lon="4.33633">
        <ele>241.80000305176</ele>
        <time>2012-05-19T16:13:45.000Z</time>
      </trkpt>
      <trkpt lat="44.35677" lon="4.33651">
        <ele>241.19999694824</ele>
        <time>2012-05-19T16:13:49.000Z</time>
      </trkpt>
      <trkpt lat="44.35688" lon="4.33666">
        <ele>241</ele>
        <time>2012-05-19T16:13:52.000Z</time>
      </trkpt>
      <trkpt lat="44.35701" lon="4.33682">
        <ele>241.19999694824</ele>
        <time>2012-05-19T16:13:55.000Z</time>
      </trkpt>
      <trkpt lat="44.35713" lon="4.33698">
        <ele>241.19999694824</ele>
        <time>2012-05-19T16:13:58.000Z</time>
      </trkpt>
      <trkpt lat="44.3573" lon="4.33718">
        <ele>241.39999389648</ele>
        <time>2012-05-19T16:14:02.000Z</time>
      </trkpt>
      <trkpt lat="44.35734" lon="4.33724">
        <ele>241.39999389648</ele>
        <time>2012-05-19T16:14:03.000Z</time>
      </trkpt>
      <trkpt lat="44.35749" lon="4.33742">
        <ele>241.19999694824</ele>
        <time>2012-05-19T16:14:06.000Z</time>
      </trkpt>
      <trkpt lat="44.35762" lon="4.33759">
        <ele>240.19999694824</ele>
        <time>2012-05-19T16:14:09.000Z</time>
      </trkpt>
      <trkpt lat="44.35778" lon="4.33778">
        <ele>238.39999389648</ele>
        <time>2012-05-19T16:14:12.000Z</time>
      </trkpt>
      <trkpt lat="44.35795" lon="4.33797">
        <ele>236.39999389648</ele>
        <time>2012-05-19T16:14:15.000Z</time>
      </trkpt>
      <trkpt lat="44.35815" lon="4.3382">
        <ele>233.80000305176</ele>
        <time>2012-05-19T16:14:18.000Z</time>
      </trkpt>
      <trkpt lat="44.35836" lon="4.3384">
        <ele>231.80000305176</ele>
        <time>2012-05-19T16:14:21.000Z</time>
      </trkpt>
      <trkpt lat="44.35861" lon="4.33851">
        <ele>231.60000610352</ele>
        <time>2012-05-19T16:14:24.000Z</time>
      </trkpt>
      <trkpt lat="44.35871" lon="4.33854">
        <ele>231.60000610352</ele>
        <time>2012-05-19T16:14:25.000Z</time>
      </trkpt>
      <trkpt lat="44.35898" lon="4.33862">
        <ele>231.39999389648</ele>
        <time>2012-05-19T16:14:28.000Z</time>
      </trkpt>
      <trkpt lat="44.35911" lon="4.33864">
        <ele>231.39999389648</ele>
        <time>2012-05-19T16:14:30.000Z</time>
      </trkpt>
      <trkpt lat="44.35919" lon="4.33863">
        <ele>231.39999389648</ele>
        <time>2012-05-19T16:14:31.000Z</time>
      </trkpt>
      <trkpt lat="44.35929" lon="4.33852">
        <ele>231.60000610352</ele>
        <time>2012-05-19T16:14:33.000Z</time>
      </trkpt>
      <trkpt lat="44.35941" lon="4.33827">
        <ele>233</ele>
        <time>2012-05-19T16:14:36.000Z</time>
      </trkpt>
      <trkpt lat="44.35955" lon="4.33801">
        <ele>234</ele>
        <time>2012-05-19T16:14:39.000Z</time>
      </trkpt>
      <trkpt lat="44.35966" lon="4.33793">
        <ele>234</ele>
        <time>2012-05-19T16:14:41.000Z</time>
      </trkpt>
      <trkpt lat="44.35984" lon="4.33806">
        <ele>232</ele>
        <time>2012-05-19T16:14:44.000Z</time>
      </trkpt>
      <trkpt lat="44.35998" lon="4.33833">
        <ele>229.19999694824</ele>
        <time>2012-05-19T16:14:47.000Z</time>
      </trkpt>
      <trkpt lat="44.36004" lon="4.33844">
        <ele>228.19999694824</ele>
        <time>2012-05-19T16:14:48.000Z</time>
      </trkpt>
      <trkpt lat="44.3602" lon="4.33877">
        <ele>226.60000610352</ele>
        <time>2012-05-19T16:14:51.000Z</time>
      </trkpt>
      <trkpt lat="44.36031" lon="4.339">
        <ele>225.60000610352</ele>
        <time>2012-05-19T16:14:53.000Z</time>
      </trkpt>
      <trkpt lat="44.36044" lon="4.33921">
        <ele>225</ele>
        <time>2012-05-19T16:14:55.000Z</time>
      </trkpt>
      <trkpt lat="44.36061" lon="4.33936">
        <ele>225.39999389648</ele>
        <time>2012-05-19T16:14:57.000Z</time>
      </trkpt>
      <trkpt lat="44.36078" lon="4.33951">
        <ele>225.60000610352</ele>
        <time>2012-05-19T16:14:59.000Z</time>
      </trkpt>
      <trkpt lat="44.36084" lon="4.33959">
        <ele>225.39999389648</ele>
        <time>2012-05-19T16:15:00.000Z</time>
      </trkpt>
      <trkpt lat="44.36088" lon="4.33967">
        <ele>225.19999694824</ele>
        <time>2012-05-19T16:15:01.000Z</time>
      </trkpt>
      <trkpt lat="44.36088" lon="4.33997">
        <ele>223.39999389648</ele>
        <time>2012-05-19T16:15:04.000Z</time>
      </trkpt>
      <trkpt lat="44.36074" lon="4.34012">
        <ele>222</ele>
        <time>2012-05-19T16:15:06.000Z</time>
      </trkpt>
      <trkpt lat="44.36069" lon="4.34019">
        <ele>221.39999389648</ele>
        <time>2012-05-19T16:15:07.000Z</time>
      </trkpt>
      <trkpt lat="44.36059" lon="4.34034">
        <ele>220.60000610352</ele>
        <time>2012-05-19T16:15:09.000Z</time>
      </trkpt>
      <trkpt lat="44.36055" lon="4.34049">
        <ele>219.80000305176</ele>
        <time>2012-05-19T16:15:11.000Z</time>
      </trkpt>
      <trkpt lat="44.36061" lon="4.34076">
        <ele>219</ele>
        <time>2012-05-19T16:15:14.000Z</time>
      </trkpt>
      <trkpt lat="44.36068" lon="4.34095">
        <ele>218.60000610352</ele>
        <time>2012-05-19T16:15:16.000Z</time>
      </trkpt>
      <trkpt lat="44.36078" lon="4.34118">
        <ele>218</ele>
        <time>2012-05-19T16:15:19.000Z</time>
      </trkpt>
      <trkpt lat="44.36081" lon="4.34126">
        <ele>218</ele>
        <time>2012-05-19T16:15:20.000Z</time>
      </trkpt>
      <trkpt lat="44.36091" lon="4.34155">
        <ele>217.60000610352</ele>
        <time>2012-05-19T16:15:24.000Z</time>
      </trkpt>
      <trkpt lat="44.36099" lon="4.34179">
        <ele>217.19999694824</ele>
        <time>2012-05-19T16:15:28.000Z</time>
      </trkpt>
      <trkpt lat="44.36106" lon="4.34196">
        <ele>216.80000305176</ele>
        <time>2012-05-19T16:15:31.000Z</time>
      </trkpt>
      <trkpt lat="44.36114" lon="4.34213">
        <ele>216.60000610352</ele>
        <time>2012-05-19T16:15:34.000Z</time>
      </trkpt>
      <trkpt lat="44.36122" lon="4.34223">
        <ele>216.60000610352</ele>
        <time>2012-05-19T16:15:36.000Z</time>
      </trkpt>
      <trkpt lat="44.36137" lon="4.34241">
        <ele>216.80000305176</ele>
        <time>2012-05-19T16:15:39.000Z</time>
      </trkpt>
      <trkpt lat="44.36144" lon="4.34249">
        <ele>217</ele>
        <time>2012-05-19T16:15:40.000Z</time>
      </trkpt>
      <trkpt lat="44.36162" lon="4.34272">
        <ele>216.80000305176</ele>
        <time>2012-05-19T16:15:43.000Z</time>
      </trkpt>
      <trkpt lat="44.36175" lon="4.34285">
        <ele>216</ele>
        <time>2012-05-19T16:15:45.000Z</time>
      </trkpt>
      <trkpt lat="44.36195" lon="4.34301">
        <ele>214.39999389648</ele>
        <time>2012-05-19T16:15:48.000Z</time>
      </trkpt>
      <trkpt lat="44.36211" lon="4.3431">
        <ele>213.60000610352</ele>
        <time>2012-05-19T16:15:50.000Z</time>
      </trkpt>
      <trkpt lat="44.36228" lon="4.34321">
        <ele>212.80000305176</ele>
        <time>2012-05-19T16:15:52.000Z</time>
      </trkpt>
      <trkpt lat="44.36244" lon="4.34335">
        <ele>212.19999694824</ele>
        <time>2012-05-19T16:15:54.000Z</time>
      </trkpt>
      <trkpt lat="44.36252" lon="4.34342">
        <ele>212</ele>
        <time>2012-05-19T16:15:55.000Z</time>
      </trkpt>
      <trkpt lat="44.36269" lon="4.34356">
        <ele>211.19999694824</ele>
        <time>2012-05-19T16:15:57.000Z</time>
      </trkpt>
      <trkpt lat="44.36287" lon="4.34368">
        <ele>210.39999389648</ele>
        <time>2012-05-19T16:15:59.000Z</time>
      </trkpt>
      <trkpt lat="44.36305" lon="4.34379">
        <ele>209.60000610352</ele>
        <time>2012-05-19T16:16:01.000Z</time>
      </trkpt>
      <trkpt lat="44.36324" lon="4.3439">
        <ele>208.60000610352</ele>
        <time>2012-05-19T16:16:03.000Z</time>
      </trkpt>
      <trkpt lat="44.3634" lon="4.34405">
        <ele>207.80000305176</ele>
        <time>2012-05-19T16:16:05.000Z</time>
      </trkpt>
      <trkpt lat="44.36347" lon="4.34414">
        <ele>207.39999389648</ele>
        <time>2012-05-19T16:16:06.000Z</time>
      </trkpt>
      <trkpt lat="44.36365" lon="4.34441">
        <ele>206.39999389648</ele>
        <time>2012-05-19T16:16:09.000Z</time>
      </trkpt>
      <trkpt lat="44.36371" lon="4.34461">
        <ele>206</ele>
        <time>2012-05-19T16:16:11.000Z</time>
      </trkpt>
      <trkpt lat="44.36373" lon="4.34493">
        <ele>205.60000610352</ele>
        <time>2012-05-19T16:16:14.000Z</time>
      </trkpt>
      <trkpt lat="44.36374" lon="4.34503">
        <ele>205.39999389648</ele>
        <time>2012-05-19T16:16:15.000Z</time>
      </trkpt>
      <trkpt lat="44.36377" lon="4.34531">
        <ele>204.39999389648</ele>
        <time>2012-05-19T16:16:18.000Z</time>
      </trkpt>
      <trkpt lat="44.3638" lon="4.34537">
        <ele>204</ele>
        <time>2012-05-19T16:16:19.000Z</time>
      </trkpt>
      <trkpt lat="44.36383" lon="4.34543">
        <ele>203.60000610352</ele>
        <time>2012-05-19T16:16:22.000Z</time>
      </trkpt>
      <trkpt lat="44.36385" lon="4.34546">
        <ele>203.39999389648</ele>
        <time>2012-05-19T16:16:23.000Z</time>
      </trkpt>
      <trkpt lat="44.36387" lon="4.34547">
        <ele>203.39999389648</ele>
        <time>2012-05-19T16:16:24.000Z</time>
      </trkpt>
      <trkpt lat="44.36396" lon="4.34555">
        <ele>202.39999389648</ele>
        <time>2012-05-19T16:16:27.000Z</time>
      </trkpt>
      <trkpt lat="44.36407" lon="4.34568">
        <ele>201.19999694824</ele>
        <time>2012-05-19T16:16:30.000Z</time>
      </trkpt>
      <trkpt lat="44.36413" lon="4.34575">
        <ele>200.60000610352</ele>
        <time>2012-05-19T16:16:32.000Z</time>
      </trkpt>
      <trkpt lat="44.36428" lon="4.34593">
        <ele>199.19999694824</ele>
        <time>2012-05-19T16:16:37.000Z</time>
      </trkpt>
      <trkpt lat="44.36434" lon="4.346">
        <ele>199</ele>
        <time>2012-05-19T16:16:39.000Z</time>
      </trkpt>
      <trkpt lat="44.36452" lon="4.34618">
        <ele>198.60000610352</ele>
        <time>2012-05-19T16:16:44.000Z</time>
      </trkpt>
      <trkpt lat="44.3646" lon="4.34624">
        <ele>198.80000305176</ele>
        <time>2012-05-19T16:16:46.000Z</time>
      </trkpt>
      <trkpt lat="44.36477" lon="4.3464">
        <ele>199.60000610352</ele>
        <time>2012-05-19T16:16:51.000Z</time>
      </trkpt>
      <trkpt lat="44.36485" lon="4.34649">
        <ele>200.19999694824</ele>
        <time>2012-05-19T16:16:54.000Z</time>
      </trkpt>
      <trkpt lat="44.36494" lon="4.34669">
        <ele>201.60000610352</ele>
        <time>2012-05-19T16:16:59.000Z</time>
      </trkpt>
      <trkpt lat="44.36495" lon="4.34698">
        <ele>202.80000305176</ele>
        <time>2012-05-19T16:17:04.000Z</time>
      </trkpt>
      <trkpt lat="44.36493" lon="4.34719">
        <ele>203.19999694824</ele>
        <time>2012-05-19T16:17:07.000Z</time>
      </trkpt>
      <trkpt lat="44.36489" lon="4.34739">
        <ele>203.60000610352</ele>
        <time>2012-05-19T16:17:10.000Z</time>
      </trkpt>
      <trkpt lat="44.36485" lon="4.34757">
        <ele>203.19999694824</ele>
        <time>2012-05-19T16:17:13.000Z</time>
      </trkpt>
      <trkpt lat="44.36484" lon="4.34774">
        <ele>202.39999389648</ele>
        <time>2012-05-19T16:17:16.000Z</time>
      </trkpt>
      <trkpt lat="44.36485" lon="4.3478">
        <ele>202.19999694824</ele>
        <time>2012-05-19T16:17:17.000Z</time>
      </trkpt>
      <trkpt lat="44.36489" lon="4.34795">
        <ele>202</ele>
        <time>2012-05-19T16:17:20.000Z</time>
      </trkpt>
      <trkpt lat="44.36492" lon="4.348">
        <ele>202</ele>
        <time>2012-05-19T16:17:21.000Z</time>
      </trkpt>
      <trkpt lat="44.36495" lon="4.34804">
        <ele>202</ele>
        <time>2012-05-19T16:17:22.000Z</time>
      </trkpt>
      <trkpt lat="44.36509" lon="4.34825">
        <ele>202.60000610352</ele>
        <time>2012-05-19T16:17:26.000Z</time>
      </trkpt>
      <trkpt lat="44.36522" lon="4.34845">
        <ele>203.39999389648</ele>
        <time>2012-05-19T16:17:30.000Z</time>
      </trkpt>
      <trkpt lat="44.3653" lon="4.34861">
        <ele>203.60000610352</ele>
        <time>2012-05-19T16:17:33.000Z</time>
      </trkpt>
      <trkpt lat="44.36531" lon="4.34867">
        <ele>203.39999389648</ele>
        <time>2012-05-19T16:17:34.000Z</time>
      </trkpt>
      <trkpt lat="44.36534" lon="4.3488">
        <ele>203</ele>
        <time>2012-05-19T16:17:36.000Z</time>
      </trkpt>
      <trkpt lat="44.36534" lon="4.34887">
        <ele>202.60000610352</ele>
        <time>2012-05-19T16:17:37.000Z</time>
      </trkpt>
      <trkpt lat="44.36533" lon="4.34918">
        <ele>200.80000305176</ele>
        <time>2012-05-19T16:17:41.000Z</time>
      </trkpt>
      <trkpt lat="44.36532" lon="4.34934">
        <ele>200</ele>
        <time>2012-05-19T16:17:43.000Z</time>
      </trkpt>
      <trkpt lat="44.36531" lon="4.34965">
        <ele>199</ele>
        <time>2012-05-19T16:17:47.000Z</time>
      </trkpt>
      <trkpt lat="44.36529" lon="4.34992">
        <ele>197.80000305176</ele>
        <time>2012-05-19T16:17:51.000Z</time>
      </trkpt>
      <trkpt lat="44.3653" lon="4.34998">
        <ele>197.80000305176</ele>
        <time>2012-05-19T16:17:52.000Z</time>
      </trkpt>
      <trkpt lat="44.36531" lon="4.35009">
        <ele>197.80000305176</ele>
        <time>2012-05-19T16:17:54.000Z</time>
      </trkpt>
      <trkpt lat="44.36535" lon="4.35021">
        <ele>198.39999389648</ele>
        <time>2012-05-19T16:17:56.000Z</time>
      </trkpt>
      <trkpt lat="44.36539" lon="4.35033">
        <ele>198.80000305176</ele>
        <time>2012-05-19T16:17:58.000Z</time>
      </trkpt>
      <trkpt lat="44.36547" lon="4.35055">
        <ele>199.39999389648</ele>
        <time>2012-05-19T16:18:02.000Z</time>
      </trkpt>
      <trkpt lat="44.36555" lon="4.35079">
        <ele>199.80000305176</ele>
        <time>2012-05-19T16:18:06.000Z</time>
      </trkpt>
      <trkpt lat="44.36565" lon="4.35103">
        <ele>199.80000305176</ele>
        <time>2012-05-19T16:18:11.000Z</time>
      </trkpt>
      <trkpt lat="44.36574" lon="4.3512">
        <ele>199.80000305176</ele>
        <time>2012-05-19T16:18:17.000Z</time>
      </trkpt>
      <trkpt lat="44.36574" lon="4.35123">
        <ele>199.60000610352</ele>
        <time>2012-05-19T16:18:18.000Z</time>
      </trkpt>
      <trkpt lat="44.36572" lon="4.35133">
        <ele>199</ele>
        <time>2012-05-19T16:18:21.000Z</time>
      </trkpt>
      <trkpt lat="44.36579" lon="4.35152">
        <ele>198.39999389648</ele>
        <time>2012-05-19T16:18:25.000Z</time>
      </trkpt>
      <trkpt lat="44.36581" lon="4.35157">
        <ele>198.39999389648</ele>
        <time>2012-05-19T16:18:26.000Z</time>
      </trkpt>
      <trkpt lat="44.36591" lon="4.3518">
        <ele>197.39999389648</ele>
        <time>2012-05-19T16:18:30.000Z</time>
      </trkpt>
      <trkpt lat="44.36597" lon="4.35195">
        <ele>196.39999389648</ele>
        <time>2012-05-19T16:18:33.000Z</time>
      </trkpt>
      <trkpt lat="44.36601" lon="4.35208">
        <ele>195.39999389648</ele>
        <time>2012-05-19T16:18:35.000Z</time>
      </trkpt>
      <trkpt lat="44.36603" lon="4.35221">
        <ele>194.19999694824</ele>
        <time>2012-05-19T16:18:37.000Z</time>
      </trkpt>
      <trkpt lat="44.36608" lon="4.35244">
        <ele>192</ele>
        <time>2012-05-19T16:18:40.000Z</time>
      </trkpt>
      <trkpt lat="44.36609" lon="4.35259">
        <ele>191</ele>
        <time>2012-05-19T16:18:42.000Z</time>
      </trkpt>
      <trkpt lat="44.3661" lon="4.35286">
        <ele>190</ele>
        <time>2012-05-19T16:18:45.000Z</time>
      </trkpt>
      <trkpt lat="44.36607" lon="4.35303">
        <ele>189.19999694824</ele>
        <time>2012-05-19T16:18:47.000Z</time>
      </trkpt>
      <trkpt lat="44.36607" lon="4.35317">
        <ele>188.80000305176</ele>
        <time>2012-05-19T16:18:49.000Z</time>
      </trkpt>
      <trkpt lat="44.36615" lon="4.35321">
        <ele>188.39999389648</ele>
        <time>2012-05-19T16:18:52.000Z</time>
      </trkpt>
      <trkpt lat="44.36622" lon="4.35313">
        <ele>188.60000610352</ele>
        <time>2012-05-19T16:18:55.000Z</time>
      </trkpt>
      <trkpt lat="44.36633" lon="4.35306">
        <ele>188.60000610352</ele>
        <time>2012-05-19T16:18:57.000Z</time>
      </trkpt>
      <trkpt lat="44.36638" lon="4.35304">
        <ele>188.60000610352</ele>
        <time>2012-05-19T16:18:58.000Z</time>
      </trkpt>
      <trkpt lat="44.36643" lon="4.35303">
        <ele>188.60000610352</ele>
        <time>2012-05-19T16:18:59.000Z</time>
      </trkpt>
      <trkpt lat="44.3665" lon="4.35302">
        <ele>188.60000610352</ele>
        <time>2012-05-19T16:19:01.000Z</time>
      </trkpt>
      <trkpt lat="44.36659" lon="4.35302">
        <ele>188.39999389648</ele>
        <time>2012-05-19T16:19:05.000Z</time>
      </trkpt>
      <trkpt lat="44.36672" lon="4.35302">
        <ele>188.60000610352</ele>
        <time>2012-05-19T16:19:10.000Z</time>
      </trkpt>
      <trkpt lat="44.36681" lon="4.35307">
        <ele>188.60000610352</ele>
        <time>2012-05-19T16:19:14.000Z</time>
      </trkpt>
      <trkpt lat="44.36681" lon="4.35307">
        <ele>188.60000610352</ele>
        <time>2012-05-19T16:19:18.000Z</time>
      </trkpt>
      <trkpt lat="44.36686" lon="4.35305">
        <ele>189.19999694824</ele>
        <time>2012-05-19T16:20:21.000Z</time>
      </trkpt>
      <trkpt lat="44.36692" lon="4.3531">
        <ele>189</ele>
        <time>2012-05-19T16:20:27.000Z</time>
      </trkpt>
      <trkpt lat="44.36702" lon="4.3531">
        <ele>189.60000610352</ele>
        <time>2012-05-19T16:20:32.000Z</time>
      </trkpt>
      <trkpt lat="44.36708" lon="4.35309">
        <ele>190</ele>
        <time>2012-05-19T16:20:38.000Z</time>
      </trkpt>
      <trkpt lat="44.36711" lon="4.35309">
        <ele>190.19999694824</ele>
        <time>2012-05-19T16:20:47.000Z</time>
      </trkpt>
      <trkpt lat="44.36713" lon="4.35308">
        <ele>190.39999389648</ele>
        <time>2012-05-19T16:20:52.000Z</time>
      </trkpt>
      <trkpt lat="44.36719" lon="4.35309">
        <ele>190.60000610352</ele>
        <time>2012-05-19T16:20:57.000Z</time>
      </trkpt>
      <trkpt lat="44.36719" lon="4.3531">
        <ele>190.60000610352</ele>
        <time>2012-05-19T16:20:58.000Z</time>
      </trkpt>
      <trkpt lat="44.3672" lon="4.35316">
        <ele>190</ele>
        <time>2012-05-19T16:21:01.000Z</time>
      </trkpt>
      <trkpt lat="44.36721" lon="4.35319">
        <ele>190</ele>
        <time>2012-05-19T16:21:03.000Z</time>
      </trkpt>
      <trkpt lat="44.36723" lon="4.35321">
        <ele>189.80000305176</ele>
        <time>2012-05-19T16:21:05.000Z</time>
      </trkpt>
      <trkpt lat="44.36725" lon="4.35325">
        <ele>189.60000610352</ele>
        <time>2012-05-19T16:21:07.000Z</time>
      </trkpt>
      <trkpt lat="44.36728" lon="4.3533">
        <ele>189.19999694824</ele>
        <time>2012-05-19T16:21:09.000Z</time>
      </trkpt>
      <trkpt lat="44.36731" lon="4.35336">
        <ele>189</ele>
        <time>2012-05-19T16:21:12.000Z</time>
      </trkpt>
      <trkpt lat="44.36731" lon="4.35338">
        <ele>189</ele>
        <time>2012-05-19T16:21:13.000Z</time>
      </trkpt>
      <trkpt lat="44.36731" lon="4.3534">
        <ele>189</ele>
        <time>2012-05-19T16:21:14.000Z</time>
      </trkpt>
      <trkpt lat="44.36735" lon="4.35352">
        <ele>189</ele>
        <time>2012-05-19T16:21:19.000Z</time>
      </trkpt>
      <trkpt lat="44.3673" lon="4.35369">
        <ele>188.39999389648</ele>
        <time>2012-05-19T16:21:26.000Z</time>
      </trkpt>
      <trkpt lat="44.36733" lon="4.35379">
        <ele>188.39999389648</ele>
        <time>2012-05-19T16:21:31.000Z</time>
      </trkpt>
      <trkpt lat="44.36744" lon="4.35385">
        <ele>188.60000610352</ele>
        <time>2012-05-19T16:21:35.000Z</time>
      </trkpt>
      <trkpt lat="44.36747" lon="4.35389">
        <ele>188.60000610352</ele>
        <time>2012-05-19T16:21:37.000Z</time>
      </trkpt>
      <trkpt lat="44.3675" lon="4.35397">
        <ele>188.39999389648</ele>
        <time>2012-05-19T16:21:41.000Z</time>
      </trkpt>
      <trkpt lat="44.36748" lon="4.35405">
        <ele>188.19999694824</ele>
        <time>2012-05-19T16:21:45.000Z</time>
      </trkpt>
      <trkpt lat="44.36747" lon="4.35412">
        <ele>188</ele>
        <time>2012-05-19T16:21:48.000Z</time>
      </trkpt>
      <trkpt lat="44.36746" lon="4.35418">
        <ele>187.80000305176</ele>
        <time>2012-05-19T16:21:51.000Z</time>
      </trkpt>
      <trkpt lat="44.36742" lon="4.35436">
        <ele>187.39999389648</ele>
        <time>2012-05-19T16:21:56.000Z</time>
      </trkpt>
      <trkpt lat="44.36741" lon="4.35456">
        <ele>186.80000305176</ele>
        <time>2012-05-19T16:22:01.000Z</time>
      </trkpt>
      <trkpt lat="44.36737" lon="4.35474">
        <ele>186.60000610352</ele>
        <time>2012-05-19T16:22:06.000Z</time>
      </trkpt>
      <trkpt lat="44.3674" lon="4.35495">
        <ele>186</ele>
        <time>2012-05-19T16:22:11.000Z</time>
      </trkpt>
      <trkpt lat="44.36742" lon="4.35515">
        <ele>186.39999389648</ele>
        <time>2012-05-19T16:22:16.000Z</time>
      </trkpt>
      <trkpt lat="44.36745" lon="4.35545">
        <ele>187.39999389648</ele>
        <time>2012-05-19T16:22:22.000Z</time>
      </trkpt>
      <trkpt lat="44.36745" lon="4.35549">
        <ele>187.39999389648</ele>
        <time>2012-05-19T16:22:23.000Z</time>
      </trkpt>
      <trkpt lat="44.36751" lon="4.3557">
        <ele>187.60000610352</ele>
        <time>2012-05-19T16:22:28.000Z</time>
      </trkpt>
      <trkpt lat="44.36764" lon="4.35584">
        <ele>187.60000610352</ele>
        <time>2012-05-19T16:22:33.000Z</time>
      </trkpt>
      <trkpt lat="44.36777" lon="4.35591">
        <ele>187.60000610352</ele>
        <time>2012-05-19T16:22:38.000Z</time>
      </trkpt>
      <trkpt lat="44.3679" lon="4.35598">
        <ele>187.60000610352</ele>
        <time>2012-05-19T16:22:45.000Z</time>
      </trkpt>
      <trkpt lat="44.36795" lon="4.35601">
        <ele>187.39999389648</ele>
        <time>2012-05-19T16:22:50.000Z</time>
      </trkpt>
      <trkpt lat="44.36796" lon="4.35602">
        <ele>187.39999389648</ele>
        <time>2012-05-19T16:22:55.000Z</time>
      </trkpt>
      <trkpt lat="44.36795" lon="4.35602">
        <ele>187.39999389648</ele>
        <time>2012-05-19T16:23:01.000Z</time>
      </trkpt>
      <trkpt lat="44.36802" lon="4.35609">
        <ele>187.60000610352</ele>
        <time>2012-05-19T16:23:08.000Z</time>
      </trkpt>
      <trkpt lat="44.36813" lon="4.35621">
        <ele>187.39999389648</ele>
        <time>2012-05-19T16:23:13.000Z</time>
      </trkpt>
      <trkpt lat="44.3682" lon="4.35637">
        <ele>187.80000305176</ele>
        <time>2012-05-19T16:23:17.000Z</time>
      </trkpt>
      <trkpt lat="44.36833" lon="4.35645">
        <ele>187.39999389648</ele>
        <time>2012-05-19T16:23:21.000Z</time>
      </trkpt>
      <trkpt lat="44.36835" lon="4.35644">
        <ele>187.60000610352</ele>
        <time>2012-05-19T16:23:22.000Z</time>
      </trkpt>
      <trkpt lat="44.36842" lon="4.3564">
        <ele>188</ele>
        <time>2012-05-19T16:23:25.000Z</time>
      </trkpt>
      <trkpt lat="44.3685" lon="4.35641">
        <ele>188.80000305176</ele>
        <time>2012-05-19T16:23:28.000Z</time>
      </trkpt>
      <trkpt lat="44.36854" lon="4.35642">
        <ele>189</ele>
        <time>2012-05-19T16:23:32.000Z</time>
      </trkpt>
      <trkpt lat="44.3685" lon="4.35652">
        <ele>189</ele>
        <time>2012-05-19T16:23:37.000Z</time>
      </trkpt>
      <trkpt lat="44.3684" lon="4.3566">
        <ele>188.39999389648</ele>
        <time>2012-05-19T16:23:43.000Z</time>
      </trkpt>
      <trkpt lat="44.36829" lon="4.35674">
        <ele>188.80000305176</ele>
        <time>2012-05-19T16:23:49.000Z</time>
      </trkpt>
      <trkpt lat="44.36824" lon="4.35699">
        <ele>190.80000305176</ele>
        <time>2012-05-19T16:23:56.000Z</time>
      </trkpt>
      <trkpt lat="44.36816" lon="4.35723">
        <ele>192.19999694824</ele>
        <time>2012-05-19T16:24:01.000Z</time>
      </trkpt>
      <trkpt lat="44.36807" lon="4.35751">
        <ele>192.80000305176</ele>
        <time>2012-05-19T16:24:06.000Z</time>
      </trkpt>
      <trkpt lat="44.36807" lon="4.35772">
        <ele>192.60000610352</ele>
        <time>2012-05-19T16:24:09.000Z</time>
      </trkpt>
      <trkpt lat="44.36807" lon="4.35785">
        <ele>192.60000610352</ele>
        <time>2012-05-19T16:24:11.000Z</time>
      </trkpt>
      <trkpt lat="44.36807" lon="4.35812">
        <ele>192.39999389648</ele>
        <time>2012-05-19T16:24:15.000Z</time>
      </trkpt>
      <trkpt lat="44.36807" lon="4.35831">
        <ele>192.19999694824</ele>
        <time>2012-05-19T16:24:18.000Z</time>
      </trkpt>
      <trkpt lat="44.36805" lon="4.35862">
        <ele>190.60000610352</ele>
        <time>2012-05-19T16:24:23.000Z</time>
      </trkpt>
      <trkpt lat="44.36806" lon="4.35868">
        <ele>190.39999389648</ele>
        <time>2012-05-19T16:24:24.000Z</time>
      </trkpt>
      <trkpt lat="44.36806" lon="4.35875">
        <ele>190.39999389648</ele>
        <time>2012-05-19T16:24:25.000Z</time>
      </trkpt>
      <trkpt lat="44.3681" lon="4.35894">
        <ele>190.19999694824</ele>
        <time>2012-05-19T16:24:28.000Z</time>
      </trkpt>
      <trkpt lat="44.36815" lon="4.35912">
        <ele>190.19999694824</ele>
        <time>2012-05-19T16:24:31.000Z</time>
      </trkpt>
      <trkpt lat="44.36824" lon="4.35941">
        <ele>189.60000610352</ele>
        <time>2012-05-19T16:24:36.000Z</time>
      </trkpt>
      <trkpt lat="44.3683" lon="4.35964">
        <ele>188.60000610352</ele>
        <time>2012-05-19T16:24:40.000Z</time>
      </trkpt>
      <trkpt lat="44.36837" lon="4.35991">
        <ele>187.60000610352</ele>
        <time>2012-05-19T16:24:45.000Z</time>
      </trkpt>
      <trkpt lat="44.36842" lon="4.36011">
        <ele>187.60000610352</ele>
        <time>2012-05-19T16:24:49.000Z</time>
      </trkpt>
      <trkpt lat="44.36848" lon="4.36033">
        <ele>187.60000610352</ele>
        <time>2012-05-19T16:24:54.000Z</time>
      </trkpt>
      <trkpt lat="44.36853" lon="4.36061">
        <ele>186.80000305176</ele>
        <time>2012-05-19T16:25:00.000Z</time>
      </trkpt>
      <trkpt lat="44.36854" lon="4.36089">
        <ele>185.80000305176</ele>
        <time>2012-05-19T16:25:06.000Z</time>
      </trkpt>
      <trkpt lat="44.36855" lon="4.36094">
        <ele>186</ele>
        <time>2012-05-19T16:25:07.000Z</time>
      </trkpt>
      <trkpt lat="44.36855" lon="4.36121">
        <ele>186.39999389648</ele>
        <time>2012-05-19T16:25:12.000Z</time>
      </trkpt>
      <trkpt lat="44.36854" lon="4.36142">
        <ele>186.60000610352</ele>
        <time>2012-05-19T16:25:16.000Z</time>
      </trkpt>
      <trkpt lat="44.36856" lon="4.36169">
        <ele>187.19999694824</ele>
        <time>2012-05-19T16:25:21.000Z</time>
      </trkpt>
      <trkpt lat="44.36857" lon="4.36181">
        <ele>187.39999389648</ele>
        <time>2012-05-19T16:25:23.000Z</time>
      </trkpt>
      <trkpt lat="44.36863" lon="4.36213">
        <ele>188</ele>
        <time>2012-05-19T16:25:27.000Z</time>
      </trkpt>
      <trkpt lat="44.36866" lon="4.36222">
        <ele>188.39999389648</ele>
        <time>2012-05-19T16:25:28.000Z</time>
      </trkpt>
      <trkpt lat="44.36873" lon="4.36254">
        <ele>188.80000305176</ele>
        <time>2012-05-19T16:25:31.000Z</time>
      </trkpt>
      <trkpt lat="44.36875" lon="4.36265">
        <ele>188.80000305176</ele>
        <time>2012-05-19T16:25:32.000Z</time>
      </trkpt>
      <trkpt lat="44.36877" lon="4.36288">
        <ele>188.60000610352</ele>
        <time>2012-05-19T16:25:34.000Z</time>
      </trkpt>
      <trkpt lat="44.36869" lon="4.36307">
        <ele>187.80000305176</ele>
        <time>2012-05-19T16:25:36.000Z</time>
      </trkpt>
      <trkpt lat="44.36848" lon="4.36328">
        <ele>186.19999694824</ele>
        <time>2012-05-19T16:25:39.000Z</time>
      </trkpt>
      <trkpt lat="44.36845" lon="4.36335">
        <ele>185.80000305176</ele>
        <time>2012-05-19T16:25:40.000Z</time>
      </trkpt>
      <trkpt lat="44.36836" lon="4.36359">
        <ele>185.19999694824</ele>
        <time>2012-05-19T16:25:43.000Z</time>
      </trkpt>
      <trkpt lat="44.36838" lon="4.36384">
        <ele>185.39999389648</ele>
        <time>2012-05-19T16:25:46.000Z</time>
      </trkpt>
      <trkpt lat="44.3684" lon="4.36399">
        <ele>185.60000610352</ele>
        <time>2012-05-19T16:25:48.000Z</time>
      </trkpt>
      <trkpt lat="44.36843" lon="4.36406">
        <ele>185.80000305176</ele>
        <time>2012-05-19T16:25:49.000Z</time>
      </trkpt>
      <trkpt lat="44.36845" lon="4.36411">
        <ele>186</ele>
        <time>2012-05-19T16:25:50.000Z</time>
      </trkpt>
      <trkpt lat="44.36861" lon="4.36432">
        <ele>186.80000305176</ele>
        <time>2012-05-19T16:25:54.000Z</time>
      </trkpt>
      <trkpt lat="44.36865" lon="4.36436">
        <ele>186.80000305176</ele>
        <time>2012-05-19T16:25:55.000Z</time>
      </trkpt>
      <trkpt lat="44.36869" lon="4.36442">
        <ele>187</ele>
        <time>2012-05-19T16:25:56.000Z</time>
      </trkpt>
      <trkpt lat="44.36879" lon="4.36461">
        <ele>187</ele>
        <time>2012-05-19T16:25:59.000Z</time>
      </trkpt>
      <trkpt lat="44.3688" lon="4.36469">
        <ele>186.60000610352</ele>
        <time>2012-05-19T16:26:00.000Z</time>
      </trkpt>
      <trkpt lat="44.36876" lon="4.36494">
        <ele>185.39999389648</ele>
        <time>2012-05-19T16:26:03.000Z</time>
      </trkpt>
      <trkpt lat="44.36872" lon="4.36509">
        <ele>185</ele>
        <time>2012-05-19T16:26:05.000Z</time>
      </trkpt>
      <trkpt lat="44.36865" lon="4.36536">
        <ele>185</ele>
        <time>2012-05-19T16:26:09.000Z</time>
      </trkpt>
      <trkpt lat="44.36863" lon="4.36543">
        <ele>184.80000305176</ele>
        <time>2012-05-19T16:26:10.000Z</time>
      </trkpt>
      <trkpt lat="44.36857" lon="4.36571">
        <ele>184.60000610352</ele>
        <time>2012-05-19T16:26:15.000Z</time>
      </trkpt>
      <trkpt lat="44.36856" lon="4.36576">
        <ele>184.60000610352</ele>
        <time>2012-05-19T16:26:16.000Z</time>
      </trkpt>
      <trkpt lat="44.36855" lon="4.36604">
        <ele>183.80000305176</ele>
        <time>2012-05-19T16:26:20.000Z</time>
      </trkpt>
      <trkpt lat="44.36856" lon="4.36612">
        <ele>183.39999389648</ele>
        <time>2012-05-19T16:26:21.000Z</time>
      </trkpt>
      <trkpt lat="44.36859" lon="4.36639">
        <ele>182.60000610352</ele>
        <time>2012-05-19T16:26:24.000Z</time>
      </trkpt>
      <trkpt lat="44.36864" lon="4.36665">
        <ele>182</ele>
        <time>2012-05-19T16:26:27.000Z</time>
      </trkpt>
      <trkpt lat="44.36878" lon="4.36691">
        <ele>181</ele>
        <time>2012-05-19T16:26:30.000Z</time>
      </trkpt>
      <trkpt lat="44.36883" lon="4.36699">
        <ele>180.39999389648</ele>
        <time>2012-05-19T16:26:31.000Z</time>
      </trkpt>
      <trkpt lat="44.369" lon="4.36723">
        <ele>178.80000305176</ele>
        <time>2012-05-19T16:26:34.000Z</time>
      </trkpt>
      <trkpt lat="44.36918" lon="4.36748">
        <ele>176.39999389648</ele>
        <time>2012-05-19T16:26:37.000Z</time>
      </trkpt>
      <trkpt lat="44.36923" lon="4.36756">
        <ele>176.19999694824</ele>
        <time>2012-05-19T16:26:38.000Z</time>
      </trkpt>
      <trkpt lat="44.3694" lon="4.36782">
        <ele>176</ele>
        <time>2012-05-19T16:26:41.000Z</time>
      </trkpt>
      <trkpt lat="44.36952" lon="4.36809">
        <ele>175.39999389648</ele>
        <time>2012-05-19T16:26:44.000Z</time>
      </trkpt>
      <trkpt lat="44.36948" lon="4.36837">
        <ele>173.39999389648</ele>
        <time>2012-05-19T16:26:47.000Z</time>
      </trkpt>
      <trkpt lat="44.36937" lon="4.36859">
        <ele>171.60000610352</ele>
        <time>2012-05-19T16:26:50.000Z</time>
      </trkpt>
      <trkpt lat="44.36931" lon="4.3687">
        <ele>170.80000305176</ele>
        <time>2012-05-19T16:26:53.000Z</time>
      </trkpt>
      <trkpt lat="44.36931" lon="4.36873">
        <ele>170.60000610352</ele>
        <time>2012-05-19T16:26:57.000Z</time>
      </trkpt>
      <trkpt lat="44.36929" lon="4.36879">
        <ele>170.39999389648</ele>
        <time>2012-05-19T16:27:18.000Z</time>
      </trkpt>
      <trkpt lat="44.36931" lon="4.36881">
        <ele>170.39999389648</ele>
        <time>2012-05-19T16:27:20.000Z</time>
      </trkpt>
      <trkpt lat="44.36934" lon="4.36882">
        <ele>170.39999389648</ele>
        <time>2012-05-19T16:27:22.000Z</time>
      </trkpt>
      <trkpt lat="44.3694" lon="4.36884">
        <ele>170.60000610352</ele>
        <time>2012-05-19T16:27:29.000Z</time>
      </trkpt>
      <trkpt lat="44.36954" lon="4.36892">
        <ele>170.60000610352</ele>
        <time>2012-05-19T16:27:33.000Z</time>
      </trkpt>
      <trkpt lat="44.36973" lon="4.36901">
        <ele>170.19999694824</ele>
        <time>2012-05-19T16:27:37.000Z</time>
      </trkpt>
      <trkpt lat="44.36992" lon="4.36909">
        <ele>169.80000305176</ele>
        <time>2012-05-19T16:27:40.000Z</time>
      </trkpt>
      <trkpt lat="44.37012" lon="4.36918">
        <ele>169.60000610352</ele>
        <time>2012-05-19T16:27:43.000Z</time>
      </trkpt>
      <trkpt lat="44.37033" lon="4.36927">
        <ele>170.80000305176</ele>
        <time>2012-05-19T16:27:46.000Z</time>
      </trkpt>
      <trkpt lat="44.37055" lon="4.36936">
        <ele>172</ele>
        <time>2012-05-19T16:27:49.000Z</time>
      </trkpt>
      <trkpt lat="44.37076" lon="4.36946">
        <ele>173</ele>
        <time>2012-05-19T16:27:52.000Z</time>
      </trkpt>
      <trkpt lat="44.37097" lon="4.36957">
        <ele>173.39999389648</ele>
        <time>2012-05-19T16:27:55.000Z</time>
      </trkpt>
      <trkpt lat="44.37117" lon="4.36967">
        <ele>173</ele>
        <time>2012-05-19T16:27:58.000Z</time>
      </trkpt>
      <trkpt lat="44.37124" lon="4.3697">
        <ele>172.80000305176</ele>
        <time>2012-05-19T16:27:59.000Z</time>
      </trkpt>
      <trkpt lat="44.37143" lon="4.36981">
        <ele>171.60000610352</ele>
        <time>2012-05-19T16:28:02.000Z</time>
      </trkpt>
      <trkpt lat="44.37162" lon="4.36993">
        <ele>170</ele>
        <time>2012-05-19T16:28:05.000Z</time>
      </trkpt>
      <trkpt lat="44.37168" lon="4.36998">
        <ele>169.19999694824</ele>
        <time>2012-05-19T16:28:06.000Z</time>
      </trkpt>
      <trkpt lat="44.37185" lon="4.37014">
        <ele>169.60000610352</ele>
        <time>2012-05-19T16:28:09.000Z</time>
      </trkpt>
      <trkpt lat="44.37203" lon="4.37031">
        <ele>169.60000610352</ele>
        <time>2012-05-19T16:28:12.000Z</time>
      </trkpt>
      <trkpt lat="44.37209" lon="4.37037">
        <ele>169.60000610352</ele>
        <time>2012-05-19T16:28:13.000Z</time>
      </trkpt>
      <trkpt lat="44.37227" lon="4.37053">
        <ele>169</ele>
        <time>2012-05-19T16:28:16.000Z</time>
      </trkpt>
      <trkpt lat="44.37246" lon="4.37067">
        <ele>168</ele>
        <time>2012-05-19T16:28:19.000Z</time>
      </trkpt>
      <trkpt lat="44.37265" lon="4.37077">
        <ele>167</ele>
        <time>2012-05-19T16:28:22.000Z</time>
      </trkpt>
      <trkpt lat="44.37287" lon="4.37081">
        <ele>166.19999694824</ele>
        <time>2012-05-19T16:28:25.000Z</time>
      </trkpt>
      <trkpt lat="44.37309" lon="4.3708">
        <ele>165.80000305176</ele>
        <time>2012-05-19T16:28:28.000Z</time>
      </trkpt>
      <trkpt lat="44.37332" lon="4.37078">
        <ele>165.39999389648</ele>
        <time>2012-05-19T16:28:31.000Z</time>
      </trkpt>
      <trkpt lat="44.37355" lon="4.37075">
        <ele>166</ele>
        <time>2012-05-19T16:28:34.000Z</time>
      </trkpt>
      <trkpt lat="44.37378" lon="4.37072">
        <ele>166.60000610352</ele>
        <time>2012-05-19T16:28:37.000Z</time>
      </trkpt>
      <trkpt lat="44.37401" lon="4.37069">
        <ele>167.60000610352</ele>
        <time>2012-05-19T16:28:40.000Z</time>
      </trkpt>
      <trkpt lat="44.37417" lon="4.37067">
        <ele>168</ele>
        <time>2012-05-19T16:28:42.000Z</time>
      </trkpt>
      <trkpt lat="44.37439" lon="4.37066">
        <ele>168.19999694824</ele>
        <time>2012-05-19T16:28:45.000Z</time>
      </trkpt>
      <trkpt lat="44.37461" lon="4.37067">
        <ele>168</ele>
        <time>2012-05-19T16:28:48.000Z</time>
      </trkpt>
      <trkpt lat="44.37468" lon="4.37068">
        <ele>167.80000305176</ele>
        <time>2012-05-19T16:28:49.000Z</time>
      </trkpt>
      <trkpt lat="44.37488" lon="4.37076">
        <ele>166.39999389648</ele>
        <time>2012-05-19T16:28:52.000Z</time>
      </trkpt>
      <trkpt lat="44.37502" lon="4.37084">
        <ele>165.19999694824</ele>
        <time>2012-05-19T16:28:54.000Z</time>
      </trkpt>
      <trkpt lat="44.37522" lon="4.37096">
        <ele>165.80000305176</ele>
        <time>2012-05-19T16:28:57.000Z</time>
      </trkpt>
      <trkpt lat="44.37541" lon="4.37109">
        <ele>166</ele>
        <time>2012-05-19T16:29:00.000Z</time>
      </trkpt>
      <trkpt lat="44.37561" lon="4.37121">
        <ele>165.60000610352</ele>
        <time>2012-05-19T16:29:03.000Z</time>
      </trkpt>
      <trkpt lat="44.37574" lon="4.37126">
        <ele>165</ele>
        <time>2012-05-19T16:29:05.000Z</time>
      </trkpt>
      <trkpt lat="44.3759" lon="4.37129">
        <ele>164.60000610352</ele>
        <time>2012-05-19T16:29:07.000Z</time>
      </trkpt>
      <trkpt lat="44.37614" lon="4.37127">
        <ele>164.39999389648</ele>
        <time>2012-05-19T16:29:10.000Z</time>
      </trkpt>
      <trkpt lat="44.37631" lon="4.37123">
        <ele>164.19999694824</ele>
        <time>2012-05-19T16:29:12.000Z</time>
      </trkpt>
      <trkpt lat="44.37653" lon="4.37114">
        <ele>164.19999694824</ele>
        <time>2012-05-19T16:29:15.000Z</time>
      </trkpt>
      <trkpt lat="44.37665" lon="4.37106">
        <ele>164.19999694824</ele>
        <time>2012-05-19T16:29:17.000Z</time>
      </trkpt>
      <trkpt lat="44.37676" lon="4.37097">
        <ele>164.19999694824</ele>
        <time>2012-05-19T16:29:19.000Z</time>
      </trkpt>
      <trkpt lat="44.37688" lon="4.37085">
        <ele>164.19999694824</ele>
        <time>2012-05-19T16:29:22.000Z</time>
      </trkpt>
      <trkpt lat="44.37691" lon="4.37083">
        <ele>164.19999694824</ele>
        <time>2012-05-19T16:29:23.000Z</time>
      </trkpt>
      <trkpt lat="44.37692" lon="4.37082">
        <ele>164.19999694824</ele>
        <time>2012-05-19T16:29:25.000Z</time>
      </trkpt>
      <trkpt lat="44.37692" lon="4.37083">
        <ele>164</ele>
        <time>2012-05-19T16:29:27.000Z</time>
      </trkpt>
      <trkpt lat="44.37691" lon="4.37091">
        <ele>163.80000305176</ele>
        <time>2012-05-19T16:29:30.000Z</time>
      </trkpt>
      <trkpt lat="44.37694" lon="4.37112">
        <ele>163</ele>
        <time>2012-05-19T16:29:33.000Z</time>
      </trkpt>
      <trkpt lat="44.37696" lon="4.37142">
        <ele>162</ele>
        <time>2012-05-19T16:29:37.000Z</time>
      </trkpt>
      <trkpt lat="44.37695" lon="4.37149">
        <ele>161.80000305176</ele>
        <time>2012-05-19T16:29:38.000Z</time>
      </trkpt>
      <trkpt lat="44.37693" lon="4.37173">
        <ele>161.80000305176</ele>
        <time>2012-05-19T16:29:43.000Z</time>
      </trkpt>
      <trkpt lat="44.37691" lon="4.37199">
        <ele>163</ele>
        <time>2012-05-19T16:29:49.000Z</time>
      </trkpt>
      <trkpt lat="44.3769" lon="4.37203">
        <ele>163.19999694824</ele>
        <time>2012-05-19T16:29:50.000Z</time>
      </trkpt>
      <trkpt lat="44.37682" lon="4.37229">
        <ele>164.80000305176</ele>
        <time>2012-05-19T16:29:56.000Z</time>
      </trkpt>
      <trkpt lat="44.37673" lon="4.37251">
        <ele>166</ele>
        <time>2012-05-19T16:30:03.000Z</time>
      </trkpt>
      <trkpt lat="44.37659" lon="4.37271">
        <ele>166.60000610352</ele>
        <time>2012-05-19T16:30:10.000Z</time>
      </trkpt>
      <trkpt lat="44.37658" lon="4.37274">
        <ele>166.80000305176</ele>
        <time>2012-05-19T16:30:11.000Z</time>
      </trkpt>
      <trkpt lat="44.37654" lon="4.37285">
        <ele>167.19999694824</ele>
        <time>2012-05-19T16:30:15.000Z</time>
      </trkpt>
      <trkpt lat="44.37655" lon="4.37288">
        <ele>167.39999389648</ele>
        <time>2012-05-19T16:30:16.000Z</time>
      </trkpt>
      <trkpt lat="44.37655" lon="4.37309">
        <ele>168</ele>
        <time>2012-05-19T16:30:22.000Z</time>
      </trkpt>
      <trkpt lat="44.37651" lon="4.37329">
        <ele>169</ele>
        <time>2012-05-19T16:30:27.000Z</time>
      </trkpt>
      <trkpt lat="44.37645" lon="4.3735">
        <ele>169.80000305176</ele>
        <time>2012-05-19T16:30:33.000Z</time>
      </trkpt>
      <trkpt lat="44.37635" lon="4.37375">
        <ele>171</ele>
        <time>2012-05-19T16:30:41.000Z</time>
      </trkpt>
      <trkpt lat="44.37626" lon="4.37398">
        <ele>172.19999694824</ele>
        <time>2012-05-19T16:30:48.000Z</time>
      </trkpt>
      <trkpt lat="44.37624" lon="4.37401">
        <ele>172.19999694824</ele>
        <time>2012-05-19T16:30:49.000Z</time>
      </trkpt>
      <trkpt lat="44.37623" lon="4.37416">
        <ele>172.60000610352</ele>
        <time>2012-05-19T16:30:54.000Z</time>
      </trkpt>
      <trkpt lat="44.37628" lon="4.37427">
        <ele>173</ele>
        <time>2012-05-19T16:31:00.000Z</time>
      </trkpt>
      <trkpt lat="44.37628" lon="4.37426">
        <ele>173</ele>
        <time>2012-05-19T16:31:04.000Z</time>
      </trkpt>
      <trkpt lat="44.37635" lon="4.37436">
        <ele>173</ele>
        <time>2012-05-19T16:31:11.000Z</time>
      </trkpt>
      <trkpt lat="44.37651" lon="4.37457">
        <ele>172.60000610352</ele>
        <time>2012-05-19T16:31:16.000Z</time>
      </trkpt>
      <trkpt lat="44.37665" lon="4.37477">
        <ele>172</ele>
        <time>2012-05-19T16:31:20.000Z</time>
      </trkpt>
      <trkpt lat="44.37667" lon="4.37479">
        <ele>172</ele>
        <time>2012-05-19T16:31:21.000Z</time>
      </trkpt>
      <trkpt lat="44.37668" lon="4.37479">
        <ele>172</ele>
        <time>2012-05-19T16:31:22.000Z</time>
      </trkpt>
      <trkpt lat="44.37668" lon="4.37479">
        <ele>172</ele>
        <time>2012-05-19T16:31:25.000Z</time>
      </trkpt>
      <trkpt lat="44.37673" lon="4.37482">
        <ele>171.80000305176</ele>
        <time>2012-05-19T16:31:34.000Z</time>
      </trkpt>
      <trkpt lat="44.37688" lon="4.37486">
        <ele>171.39999389648</ele>
        <time>2012-05-19T16:31:40.000Z</time>
      </trkpt>
      <trkpt lat="44.37708" lon="4.37497">
        <ele>170.60000610352</ele>
        <time>2012-05-19T16:31:45.000Z</time>
      </trkpt>
      <trkpt lat="44.37712" lon="4.375">
        <ele>170.19999694824</ele>
        <time>2012-05-19T16:31:46.000Z</time>
      </trkpt>
      <trkpt lat="44.37734" lon="4.37507">
        <ele>169.19999694824</ele>
        <time>2012-05-19T16:31:50.000Z</time>
      </trkpt>
      <trkpt lat="44.3774" lon="4.37509">
        <ele>168.80000305176</ele>
        <time>2012-05-19T16:31:51.000Z</time>
      </trkpt>
      <trkpt lat="44.3776" lon="4.37515">
        <ele>168.19999694824</ele>
        <time>2012-05-19T16:31:54.000Z</time>
      </trkpt>
      <trkpt lat="44.37773" lon="4.37521">
        <ele>168.39999389648</ele>
        <time>2012-05-19T16:31:56.000Z</time>
      </trkpt>
      <trkpt lat="44.37792" lon="4.3753">
        <ele>168.39999389648</ele>
        <time>2012-05-19T16:31:59.000Z</time>
      </trkpt>
      <trkpt lat="44.3781" lon="4.3754">
        <ele>168.19999694824</ele>
        <time>2012-05-19T16:32:02.000Z</time>
      </trkpt>
      <trkpt lat="44.37814" lon="4.37546">
        <ele>167.80000305176</ele>
        <time>2012-05-19T16:32:03.000Z</time>
      </trkpt>
      <trkpt lat="44.37823" lon="4.37566">
        <ele>166.39999389648</ele>
        <time>2012-05-19T16:32:06.000Z</time>
      </trkpt>
      <trkpt lat="44.37827" lon="4.37571">
        <ele>166</ele>
        <time>2012-05-19T16:32:07.000Z</time>
      </trkpt>
      <trkpt lat="44.37839" lon="4.37583">
        <ele>165</ele>
        <time>2012-05-19T16:32:10.000Z</time>
      </trkpt>
      <trkpt lat="44.37848" lon="4.37592">
        <ele>164.60000610352</ele>
        <time>2012-05-19T16:32:12.000Z</time>
      </trkpt>
      <trkpt lat="44.37866" lon="4.37604">
        <ele>164.19999694824</ele>
        <time>2012-05-19T16:32:16.000Z</time>
      </trkpt>
      <trkpt lat="44.37873" lon="4.37609">
        <ele>164</ele>
        <time>2012-05-19T16:32:18.000Z</time>
      </trkpt>
      <trkpt lat="44.37877" lon="4.37611">
        <ele>164</ele>
        <time>2012-05-19T16:32:19.000Z</time>
      </trkpt>
      <trkpt lat="44.3789" lon="4.37617">
        <ele>163.80000305176</ele>
        <time>2012-05-19T16:32:23.000Z</time>
      </trkpt>
      <trkpt lat="44.37897" lon="4.37627">
        <ele>163.60000610352</ele>
        <time>2012-05-19T16:32:27.000Z</time>
      </trkpt>
      <trkpt lat="44.37909" lon="4.37639">
        <ele>163.39999389648</ele>
        <time>2012-05-19T16:32:31.000Z</time>
      </trkpt>
      <trkpt lat="44.37913" lon="4.37644">
        <ele>163.19999694824</ele>
        <time>2012-05-19T16:32:32.000Z</time>
      </trkpt>
      <trkpt lat="44.37924" lon="4.37665">
        <ele>162.60000610352</ele>
        <time>2012-05-19T16:32:36.000Z</time>
      </trkpt>
      <trkpt lat="44.37924" lon="4.37678">
        <ele>162.60000610352</ele>
        <time>2012-05-19T16:32:38.000Z</time>
      </trkpt>
      <trkpt lat="44.37924" lon="4.37692">
        <ele>162.39999389648</ele>
        <time>2012-05-19T16:32:40.000Z</time>
      </trkpt>
      <trkpt lat="44.37935" lon="4.3771">
        <ele>162</ele>
        <time>2012-05-19T16:32:43.000Z</time>
      </trkpt>
      <trkpt lat="44.37945" lon="4.3772">
        <ele>161.60000610352</ele>
        <time>2012-05-19T16:32:45.000Z</time>
      </trkpt>
      <trkpt lat="44.3796" lon="4.37735">
        <ele>161.39999389648</ele>
        <time>2012-05-19T16:32:48.000Z</time>
      </trkpt>
      <trkpt lat="44.3797" lon="4.37745">
        <ele>161.39999389648</ele>
        <time>2012-05-19T16:32:50.000Z</time>
      </trkpt>
      <trkpt lat="44.37985" lon="4.3776">
        <ele>161.19999694824</ele>
        <time>2012-05-19T16:32:53.000Z</time>
      </trkpt>
      <trkpt lat="44.37992" lon="4.37766">
        <ele>161</ele>
        <time>2012-05-19T16:32:55.000Z</time>
      </trkpt>
      <trkpt lat="44.37994" lon="4.37769">
        <ele>161</ele>
        <time>2012-05-19T16:32:56.000Z</time>
      </trkpt>
      <trkpt lat="44.37994" lon="4.37778">
        <ele>160.80000305176</ele>
        <time>2012-05-19T16:32:58.000Z</time>
      </trkpt>
      <trkpt lat="44.37988" lon="4.37793">
        <ele>161</ele>
        <time>2012-05-19T16:33:01.000Z</time>
      </trkpt>
      <trkpt lat="44.37986" lon="4.37799">
        <ele>161</ele>
        <time>2012-05-19T16:33:02.000Z</time>
      </trkpt>
      <trkpt lat="44.37976" lon="4.37822">
        <ele>161.39999389648</ele>
        <time>2012-05-19T16:33:06.000Z</time>
      </trkpt>
      <trkpt lat="44.37979" lon="4.37824">
        <ele>161.19999694824</ele>
        <time>2012-05-19T16:33:07.000Z</time>
      </trkpt>
      <trkpt lat="44.37984" lon="4.37825">
        <ele>161</ele>
        <time>2012-05-19T16:33:11.000Z</time>
      </trkpt>
      <trkpt lat="44.37999" lon="4.37833">
        <ele>160</ele>
        <time>2012-05-19T16:33:15.000Z</time>
      </trkpt>
      <trkpt lat="44.38006" lon="4.37836">
        <ele>160.19999694824</ele>
        <time>2012-05-19T16:33:16.000Z</time>
      </trkpt>
      <trkpt lat="44.38023" lon="4.37845">
        <ele>160.80000305176</ele>
        <time>2012-05-19T16:33:19.000Z</time>
      </trkpt>
      <trkpt lat="44.38027" lon="4.37848">
        <ele>161</ele>
        <time>2012-05-19T16:33:20.000Z</time>
      </trkpt>
      <trkpt lat="44.38039" lon="4.37863">
        <ele>161.80000305176</ele>
        <time>2012-05-19T16:33:23.000Z</time>
      </trkpt>
      <trkpt lat="44.38044" lon="4.3787">
        <ele>162</ele>
        <time>2012-05-19T16:33:24.000Z</time>
      </trkpt>
      <trkpt lat="44.38059" lon="4.37887">
        <ele>162.39999389648</ele>
        <time>2012-05-19T16:33:27.000Z</time>
      </trkpt>
      <trkpt lat="44.38063" lon="4.3789">
        <ele>162.19999694824</ele>
        <time>2012-05-19T16:33:28.000Z</time>
      </trkpt>
      <trkpt lat="44.38067" lon="4.37892">
        <ele>162.19999694824</ele>
        <time>2012-05-19T16:33:29.000Z</time>
      </trkpt>
      <trkpt lat="44.38077" lon="4.37898">
        <ele>161.80000305176</ele>
        <time>2012-05-19T16:33:32.000Z</time>
      </trkpt>
      <trkpt lat="44.38089" lon="4.37904">
        <ele>161</ele>
        <time>2012-05-19T16:33:35.000Z</time>
      </trkpt>
      <trkpt lat="44.38095" lon="4.37906">
        <ele>160.60000610352</ele>
        <time>2012-05-19T16:33:36.000Z</time>
      </trkpt>
      <trkpt lat="44.381" lon="4.3791">
        <ele>160.19999694824</ele>
        <time>2012-05-19T16:33:37.000Z</time>
      </trkpt>
      <trkpt lat="44.3811" lon="4.37922">
        <ele>159.80000305176</ele>
        <time>2012-05-19T16:33:40.000Z</time>
      </trkpt>
      <trkpt lat="44.38125" lon="4.3793">
        <ele>158.39999389648</ele>
        <time>2012-05-19T16:33:44.000Z</time>
      </trkpt>
      <trkpt lat="44.38133" lon="4.37939">
        <ele>158</ele>
        <time>2012-05-19T16:33:47.000Z</time>
      </trkpt>
      <trkpt lat="44.38137" lon="4.37943">
        <ele>157.60000610352</ele>
        <time>2012-05-19T16:33:48.000Z</time>
      </trkpt>
      <trkpt lat="44.38152" lon="4.3796">
        <ele>156.19999694824</ele>
        <time>2012-05-19T16:33:52.000Z</time>
      </trkpt>
      <trkpt lat="44.38154" lon="4.37965">
        <ele>156.19999694824</ele>
        <time>2012-05-19T16:33:53.000Z</time>
      </trkpt>
      <trkpt lat="44.38163" lon="4.37988">
        <ele>155.39999389648</ele>
        <time>2012-05-19T16:33:57.000Z</time>
      </trkpt>
      <trkpt lat="44.38164" lon="4.37993">
        <ele>155.19999694824</ele>
        <time>2012-05-19T16:33:58.000Z</time>
      </trkpt>
      <trkpt lat="44.38163" lon="4.38016">
        <ele>156.80000305176</ele>
        <time>2012-05-19T16:34:02.000Z</time>
      </trkpt>
      <trkpt lat="44.38171" lon="4.3802">
        <ele>156.60000610352</ele>
        <time>2012-05-19T16:34:05.000Z</time>
      </trkpt>
      <trkpt lat="44.3818" lon="4.38027">
        <ele>156.60000610352</ele>
        <time>2012-05-19T16:34:09.000Z</time>
      </trkpt>
      <trkpt lat="44.38184" lon="4.3803">
        <ele>156.60000610352</ele>
        <time>2012-05-19T16:34:11.000Z</time>
      </trkpt>
      <trkpt lat="44.38189" lon="4.38035">
        <ele>156.60000610352</ele>
        <time>2012-05-19T16:34:13.000Z</time>
      </trkpt>
      <trkpt lat="44.38195" lon="4.3804">
        <ele>156.60000610352</ele>
        <time>2012-05-19T16:34:16.000Z</time>
      </trkpt>
      <trkpt lat="44.38201" lon="4.38045">
        <ele>156.39999389648</ele>
        <time>2012-05-19T16:34:18.000Z</time>
      </trkpt>
      <trkpt lat="44.38218" lon="4.38061">
        <ele>155.39999389648</ele>
        <time>2012-05-19T16:34:22.000Z</time>
      </trkpt>
      <trkpt lat="44.38234" lon="4.38077">
        <ele>154</ele>
        <time>2012-05-19T16:34:26.000Z</time>
      </trkpt>
      <trkpt lat="44.38239" lon="4.3808">
        <ele>153.39999389648</ele>
        <time>2012-05-19T16:34:27.000Z</time>
      </trkpt>
      <trkpt lat="44.38244" lon="4.38083">
        <ele>152.80000305176</ele>
        <time>2012-05-19T16:34:28.000Z</time>
      </trkpt>
      <trkpt lat="44.38258" lon="4.3809">
        <ele>152.80000305176</ele>
        <time>2012-05-19T16:34:31.000Z</time>
      </trkpt>
      <trkpt lat="44.38267" lon="4.38097">
        <ele>153.60000610352</ele>
        <time>2012-05-19T16:34:33.000Z</time>
      </trkpt>
      <trkpt lat="44.38287" lon="4.38109">
        <ele>154.60000610352</ele>
        <time>2012-05-19T16:34:37.000Z</time>
      </trkpt>
      <trkpt lat="44.383" lon="4.38118">
        <ele>154.80000305176</ele>
        <time>2012-05-19T16:34:40.000Z</time>
      </trkpt>
      <trkpt lat="44.3832" lon="4.38128">
        <ele>154.60000610352</ele>
        <time>2012-05-19T16:34:44.000Z</time>
      </trkpt>
      <trkpt lat="44.38325" lon="4.38132">
        <ele>154.39999389648</ele>
        <time>2012-05-19T16:34:45.000Z</time>
      </trkpt>
      <trkpt lat="44.38329" lon="4.38135">
        <ele>154.19999694824</ele>
        <time>2012-05-19T16:34:46.000Z</time>
      </trkpt>
      <trkpt lat="44.38347" lon="4.38152">
        <ele>153.80000305176</ele>
        <time>2012-05-19T16:34:50.000Z</time>
      </trkpt>
      <trkpt lat="44.38351" lon="4.38156">
        <ele>153.60000610352</ele>
        <time>2012-05-19T16:34:51.000Z</time>
      </trkpt>
      <trkpt lat="44.38366" lon="4.38173">
        <ele>153.60000610352</ele>
        <time>2012-05-19T16:34:54.000Z</time>
      </trkpt>
      <trkpt lat="44.38372" lon="4.38177">
        <ele>153.80000305176</ele>
        <time>2012-05-19T16:34:55.000Z</time>
      </trkpt>
      <trkpt lat="44.38376" lon="4.38183">
        <ele>154</ele>
        <time>2012-05-19T16:34:56.000Z</time>
      </trkpt>
      <trkpt lat="44.38384" lon="4.38199">
        <ele>154.19999694824</ele>
        <time>2012-05-19T16:34:59.000Z</time>
      </trkpt>
      <trkpt lat="44.38396" lon="4.38217">
        <ele>154.19999694824</ele>
        <time>2012-05-19T16:35:02.000Z</time>
      </trkpt>
      <trkpt lat="44.38404" lon="4.3823">
        <ele>154.19999694824</ele>
        <time>2012-05-19T16:35:04.000Z</time>
      </trkpt>
      <trkpt lat="44.38415" lon="4.38247">
        <ele>154</ele>
        <time>2012-05-19T16:35:07.000Z</time>
      </trkpt>
      <trkpt lat="44.38419" lon="4.3825">
        <ele>154.19999694824</ele>
        <time>2012-05-19T16:35:08.000Z</time>
      </trkpt>
      <trkpt lat="44.38429" lon="4.38252">
        <ele>155</ele>
        <time>2012-05-19T16:35:11.000Z</time>
      </trkpt>
      <trkpt lat="44.38437" lon="4.38263">
        <ele>155.60000610352</ele>
        <time>2012-05-19T16:35:14.000Z</time>
      </trkpt>
      <trkpt lat="44.38439" lon="4.38265">
        <ele>155.80000305176</ele>
        <time>2012-05-19T16:35:15.000Z</time>
      </trkpt>
      <trkpt lat="44.38441" lon="4.38267">
        <ele>156</ele>
        <time>2012-05-19T16:35:16.000Z</time>
      </trkpt>
      <trkpt lat="44.38452" lon="4.38279">
        <ele>156.60000610352</ele>
        <time>2012-05-19T16:35:20.000Z</time>
      </trkpt>
      <trkpt lat="44.38467" lon="4.38281">
        <ele>157.80000305176</ele>
        <time>2012-05-19T16:35:24.000Z</time>
      </trkpt>
      <trkpt lat="44.38475" lon="4.38292">
        <ele>158.19999694824</ele>
        <time>2012-05-19T16:35:27.000Z</time>
      </trkpt>
      <trkpt lat="44.38477" lon="4.38296">
        <ele>158.19999694824</ele>
        <time>2012-05-19T16:35:28.000Z</time>
      </trkpt>
      <trkpt lat="44.38491" lon="4.38315">
        <ele>158.80000305176</ele>
        <time>2012-05-19T16:35:34.000Z</time>
      </trkpt>
      <trkpt lat="44.38506" lon="4.38321">
        <ele>159.60000610352</ele>
        <time>2012-05-19T16:35:40.000Z</time>
      </trkpt>
      <trkpt lat="44.38518" lon="4.38323">
        <ele>160.39999389648</ele>
        <time>2012-05-19T16:35:46.000Z</time>
      </trkpt>
      <trkpt lat="44.38531" lon="4.38321">
        <ele>161.19999694824</ele>
        <time>2012-05-19T16:35:51.000Z</time>
      </trkpt>
      <trkpt lat="44.3854" lon="4.38327">
        <ele>161.60000610352</ele>
        <time>2012-05-19T16:35:55.000Z</time>
      </trkpt>
      <trkpt lat="44.38549" lon="4.38331">
        <ele>162</ele>
        <time>2012-05-19T16:36:00.000Z</time>
      </trkpt>
      <trkpt lat="44.38557" lon="4.3834">
        <ele>162.19999694824</ele>
        <time>2012-05-19T16:36:05.000Z</time>
      </trkpt>
      <trkpt lat="44.38564" lon="4.3835">
        <ele>162.39999389648</ele>
        <time>2012-05-19T16:36:11.000Z</time>
      </trkpt>
      <trkpt lat="44.38572" lon="4.38356">
        <ele>162.80000305176</ele>
        <time>2012-05-19T16:36:16.000Z</time>
      </trkpt>
      <trkpt lat="44.38583" lon="4.38366">
        <ele>163.60000610352</ele>
        <time>2012-05-19T16:36:22.000Z</time>
      </trkpt>
      <trkpt lat="44.38594" lon="4.38374">
        <ele>163.60000610352</ele>
        <time>2012-05-19T16:36:27.000Z</time>
      </trkpt>
      <trkpt lat="44.38606" lon="4.38378">
        <ele>163.39999389648</ele>
        <time>2012-05-19T16:36:33.000Z</time>
      </trkpt>
      <trkpt lat="44.38617" lon="4.38386">
        <ele>163.39999389648</ele>
        <time>2012-05-19T16:36:38.000Z</time>
      </trkpt>
      <trkpt lat="44.38633" lon="4.38394">
        <ele>163.60000610352</ele>
        <time>2012-05-19T16:36:44.000Z</time>
      </trkpt>
      <trkpt lat="44.38636" lon="4.38395">
        <ele>163.60000610352</ele>
        <time>2012-05-19T16:36:48.000Z</time>
      </trkpt>
      <trkpt lat="44.38638" lon="4.38405">
        <ele>163.60000610352</ele>
        <time>2012-05-19T16:36:52.000Z</time>
      </trkpt>
      <trkpt lat="44.3864" lon="4.38415">
        <ele>163.60000610352</ele>
        <time>2012-05-19T16:36:57.000Z</time>
      </trkpt>
      <trkpt lat="44.38643" lon="4.38426">
        <ele>162.60000610352</ele>
        <time>2012-05-19T16:37:02.000Z</time>
      </trkpt>
      <trkpt lat="44.38651" lon="4.38437">
        <ele>161.60000610352</ele>
        <time>2012-05-19T16:37:08.000Z</time>
      </trkpt>
      <trkpt lat="44.38651" lon="4.38437">
        <ele>161.39999389648</ele>
        <time>2012-05-19T16:37:12.000Z</time>
      </trkpt>
      <trkpt lat="44.38649" lon="4.38438">
        <ele>161.39999389648</ele>
        <time>2012-05-19T16:37:50.000Z</time>
      </trkpt>
      <trkpt lat="44.3865" lon="4.3844">
        <ele>161.19999694824</ele>
        <time>2012-05-19T16:38:16.000Z</time>
      </trkpt>
      <trkpt lat="44.38655" lon="4.38448">
        <ele>160.39999389648</ele>
        <time>2012-05-19T16:38:32.000Z</time>
      </trkpt>
      <trkpt lat="44.38665" lon="4.38466">
        <ele>158.60000610352</ele>
        <time>2012-05-19T16:38:36.000Z</time>
      </trkpt>
      <trkpt lat="44.38667" lon="4.3847">
        <ele>158.19999694824</ele>
        <time>2012-05-19T16:38:37.000Z</time>
      </trkpt>
      <trkpt lat="44.3868" lon="4.38493">
        <ele>157</ele>
        <time>2012-05-19T16:38:42.000Z</time>
      </trkpt>
      <trkpt lat="44.38695" lon="4.38511">
        <ele>157.19999694824</ele>
        <time>2012-05-19T16:38:46.000Z</time>
      </trkpt>
      <trkpt lat="44.38697" lon="4.38517">
        <ele>157.19999694824</ele>
        <time>2012-05-19T16:38:47.000Z</time>
      </trkpt>
      <trkpt lat="44.38704" lon="4.38536">
        <ele>156.60000610352</ele>
        <time>2012-05-19T16:38:50.000Z</time>
      </trkpt>
      <trkpt lat="44.38708" lon="4.38552">
        <ele>156.39999389648</ele>
        <time>2012-05-19T16:38:53.000Z</time>
      </trkpt>
      <trkpt lat="44.38712" lon="4.38562">
        <ele>156.39999389648</ele>
        <time>2012-05-19T16:38:55.000Z</time>
      </trkpt>
      <trkpt lat="44.38713" lon="4.38567">
        <ele>156.19999694824</ele>
        <time>2012-05-19T16:38:56.000Z</time>
      </trkpt>
      <trkpt lat="44.38718" lon="4.38583">
        <ele>156.39999389648</ele>
        <time>2012-05-19T16:38:59.000Z</time>
      </trkpt>
      <trkpt lat="44.38722" lon="4.38594">
        <ele>157</ele>
        <time>2012-05-19T16:39:01.000Z</time>
      </trkpt>
      <trkpt lat="44.38727" lon="4.38612">
        <ele>157</ele>
        <time>2012-05-19T16:39:04.000Z</time>
      </trkpt>
      <trkpt lat="44.38729" lon="4.38617">
        <ele>157</ele>
        <time>2012-05-19T16:39:05.000Z</time>
      </trkpt>
      <trkpt lat="44.38734" lon="4.38631">
        <ele>157.19999694824</ele>
        <time>2012-05-19T16:39:08.000Z</time>
      </trkpt>
      <trkpt lat="44.38735" lon="4.38638">
        <ele>157</ele>
        <time>2012-05-19T16:39:09.000Z</time>
      </trkpt>
      <trkpt lat="44.38742" lon="4.38655">
        <ele>156.80000305176</ele>
        <time>2012-05-19T16:39:12.000Z</time>
      </trkpt>
      <trkpt lat="44.38742" lon="4.38662">
        <ele>156.39999389648</ele>
        <time>2012-05-19T16:39:13.000Z</time>
      </trkpt>
      <trkpt lat="44.38742" lon="4.3868">
        <ele>156.19999694824</ele>
        <time>2012-05-19T16:39:16.000Z</time>
      </trkpt>
      <trkpt lat="44.38741" lon="4.38688">
        <ele>156.19999694824</ele>
        <time>2012-05-19T16:39:17.000Z</time>
      </trkpt>
      <trkpt lat="44.38747" lon="4.387">
        <ele>156.80000305176</ele>
        <time>2012-05-19T16:39:20.000Z</time>
      </trkpt>
      <trkpt lat="44.38749" lon="4.38718">
        <ele>157</ele>
        <time>2012-05-19T16:39:24.000Z</time>
      </trkpt>
      <trkpt lat="44.3875" lon="4.38723">
        <ele>157</ele>
        <time>2012-05-19T16:39:25.000Z</time>
      </trkpt>
      <trkpt lat="44.38755" lon="4.38734">
        <ele>156.60000610352</ele>
        <time>2012-05-19T16:39:28.000Z</time>
      </trkpt>
      <trkpt lat="44.38753" lon="4.38748">
        <ele>156.60000610352</ele>
        <time>2012-05-19T16:39:32.000Z</time>
      </trkpt>
      <trkpt lat="44.38757" lon="4.3876">
        <ele>156.80000305176</ele>
        <time>2012-05-19T16:39:36.000Z</time>
      </trkpt>
      <trkpt lat="44.38757" lon="4.38764">
        <ele>157</ele>
        <time>2012-05-19T16:39:37.000Z</time>
      </trkpt>
      <trkpt lat="44.38757" lon="4.38774">
        <ele>157.19999694824</ele>
        <time>2012-05-19T16:39:40.000Z</time>
      </trkpt>
      <trkpt lat="44.38769" lon="4.3878">
        <ele>156.19999694824</ele>
        <time>2012-05-19T16:39:44.000Z</time>
      </trkpt>
      <trkpt lat="44.38774" lon="4.3878">
        <ele>155.60000610352</ele>
        <time>2012-05-19T16:39:45.000Z</time>
      </trkpt>
      <trkpt lat="44.3879" lon="4.38788">
        <ele>153.60000610352</ele>
        <time>2012-05-19T16:39:48.000Z</time>
      </trkpt>
      <trkpt lat="44.38804" lon="4.38794">
        <ele>152</ele>
        <time>2012-05-19T16:39:50.000Z</time>
      </trkpt>
      <trkpt lat="44.3882" lon="4.38802">
        <ele>149.60000610352</ele>
        <time>2012-05-19T16:39:53.000Z</time>
      </trkpt>
      <trkpt lat="44.38843" lon="4.38801">
        <ele>147.19999694824</ele>
        <time>2012-05-19T16:39:57.000Z</time>
      </trkpt>
      <trkpt lat="44.38851" lon="4.38802">
        <ele>146.60000610352</ele>
        <time>2012-05-19T16:39:59.000Z</time>
      </trkpt>
      <trkpt lat="44.38857" lon="4.3881">
        <ele>146</ele>
        <time>2012-05-19T16:40:01.000Z</time>
      </trkpt>
      <trkpt lat="44.38859" lon="4.38825">
        <ele>144.80000305176</ele>
        <time>2012-05-19T16:40:04.000Z</time>
      </trkpt>
      <trkpt lat="44.38859" lon="4.38831">
        <ele>144.39999389648</ele>
        <time>2012-05-19T16:40:05.000Z</time>
      </trkpt>
      <trkpt lat="44.38858" lon="4.38836">
        <ele>144</ele>
        <time>2012-05-19T16:40:06.000Z</time>
      </trkpt>
      <trkpt lat="44.38855" lon="4.38847">
        <ele>143.60000610352</ele>
        <time>2012-05-19T16:40:09.000Z</time>
      </trkpt>
      <trkpt lat="44.38846" lon="4.38867">
        <ele>143.19999694824</ele>
        <time>2012-05-19T16:40:13.000Z</time>
      </trkpt>
      <trkpt lat="44.38848" lon="4.38877">
        <ele>142.19999694824</ele>
        <time>2012-05-19T16:40:16.000Z</time>
      </trkpt>
      <trkpt lat="44.38861" lon="4.38876">
        <ele>140.39999389648</ele>
        <time>2012-05-19T16:40:19.000Z</time>
      </trkpt>
      <trkpt lat="44.38879" lon="4.3887">
        <ele>138.19999694824</ele>
        <time>2012-05-19T16:40:23.000Z</time>
      </trkpt>
      <trkpt lat="44.38885" lon="4.38873">
        <ele>137</ele>
        <time>2012-05-19T16:40:25.000Z</time>
      </trkpt>
      <trkpt lat="44.38887" lon="4.38878">
        <ele>136</ele>
        <time>2012-05-19T16:40:26.000Z</time>
      </trkpt>
      <trkpt lat="44.38887" lon="4.38895">
        <ele>134.19999694824</ele>
        <time>2012-05-19T16:40:29.000Z</time>
      </trkpt>
      <trkpt lat="44.3889" lon="4.3891">
        <ele>131.80000305176</ele>
        <time>2012-05-19T16:40:32.000Z</time>
      </trkpt>
      <trkpt lat="44.38893" lon="4.38927">
        <ele>130.39999389648</ele>
        <time>2012-05-19T16:40:35.000Z</time>
      </trkpt>
      <trkpt lat="44.38899" lon="4.38939">
        <ele>129.19999694824</ele>
        <time>2012-05-19T16:40:39.000Z</time>
      </trkpt>
      <trkpt lat="44.38899" lon="4.38939">
        <ele>129.19999694824</ele>
        <time>2012-05-19T16:40:40.000Z</time>
      </trkpt>
      <trkpt lat="44.38899" lon="4.3894">
        <ele>129.19999694824</ele>
        <time>2012-05-19T16:40:43.000Z</time>
      </trkpt>
      <trkpt lat="44.38904" lon="4.3895">
        <ele>127.80000305176</ele>
        <time>2012-05-19T16:41:07.000Z</time>
      </trkpt>
      <trkpt lat="44.38914" lon="4.38968">
        <ele>125</ele>
        <time>2012-05-19T16:41:11.000Z</time>
      </trkpt>
      <trkpt lat="44.38918" lon="4.38977">
        <ele>123.59999847412</ele>
        <time>2012-05-19T16:41:14.000Z</time>
      </trkpt>
      <trkpt lat="44.3892" lon="4.3898">
        <ele>123</ele>
        <time>2012-05-19T16:41:15.000Z</time>
      </trkpt>
      <trkpt lat="44.38928" lon="4.38998">
        <ele>121.19999694824</ele>
        <time>2012-05-19T16:41:19.000Z</time>
      </trkpt>
      <trkpt lat="44.38936" lon="4.39014">
        <ele>119.80000305176</ele>
        <time>2012-05-19T16:41:23.000Z</time>
      </trkpt>
      <trkpt lat="44.38942" lon="4.39017">
        <ele>118.80000305176</ele>
        <time>2012-05-19T16:41:25.000Z</time>
      </trkpt>
      <trkpt lat="44.38949" lon="4.39023">
        <ele>117.59999847412</ele>
        <time>2012-05-19T16:41:28.000Z</time>
      </trkpt>
      <trkpt lat="44.38955" lon="4.39027">
        <ele>116.40000152588</ele>
        <time>2012-05-19T16:41:32.000Z</time>
      </trkpt>
      <trkpt lat="44.38959" lon="4.39013">
        <ele>115.80000305176</ele>
        <time>2012-05-19T16:41:37.000Z</time>
      </trkpt>
      <trkpt lat="44.38958" lon="4.39004">
        <ele>116</ele>
        <time>2012-05-19T16:41:39.000Z</time>
      </trkpt>
      <trkpt lat="44.38958" lon="4.38988">
        <ele>116.59999847412</ele>
        <time>2012-05-19T16:41:42.000Z</time>
      </trkpt>
      <trkpt lat="44.38959" lon="4.38962">
        <ele>117.40000152588</ele>
        <time>2012-05-19T16:41:46.000Z</time>
      </trkpt>
      <trkpt lat="44.38961" lon="4.38954">
        <ele>117.59999847412</ele>
        <time>2012-05-19T16:41:47.000Z</time>
      </trkpt>
      <trkpt lat="44.38965" lon="4.3893">
        <ele>117.80000305176</ele>
        <time>2012-05-19T16:41:50.000Z</time>
      </trkpt>
      <trkpt lat="44.38967" lon="4.38923">
        <ele>117.80000305176</ele>
        <time>2012-05-19T16:41:51.000Z</time>
      </trkpt>
      <trkpt lat="44.38969" lon="4.38916">
        <ele>117.80000305176</ele>
        <time>2012-05-19T16:41:52.000Z</time>
      </trkpt>
      <trkpt lat="44.38979" lon="4.38895">
        <ele>119</ele>
        <time>2012-05-19T16:41:56.000Z</time>
      </trkpt>
      <trkpt lat="44.38981" lon="4.38891">
        <ele>119.19999694824</ele>
        <time>2012-05-19T16:41:57.000Z</time>
      </trkpt>
      <trkpt lat="44.38986" lon="4.38878">
        <ele>120</ele>
        <time>2012-05-19T16:42:00.000Z</time>
      </trkpt>
      <trkpt lat="44.38992" lon="4.38862">
        <ele>121</ele>
        <time>2012-05-19T16:42:04.000Z</time>
      </trkpt>
      <trkpt lat="44.38997" lon="4.38841">
        <ele>122.59999847412</ele>
        <time>2012-05-19T16:42:10.000Z</time>
      </trkpt>
      <trkpt lat="44.39003" lon="4.38814">
        <ele>124.40000152588</ele>
        <time>2012-05-19T16:42:18.000Z</time>
      </trkpt>
      <trkpt lat="44.39004" lon="4.38811">
        <ele>124.59999847412</ele>
        <time>2012-05-19T16:42:19.000Z</time>
      </trkpt>
      <trkpt lat="44.39013" lon="4.38788">
        <ele>125.19999694824</ele>
        <time>2012-05-19T16:42:25.000Z</time>
      </trkpt>
      <trkpt lat="44.3902" lon="4.38772">
        <ele>125.19999694824</ele>
        <time>2012-05-19T16:42:29.000Z</time>
      </trkpt>
      <trkpt lat="44.39032" lon="4.38748">
        <ele>125</ele>
        <time>2012-05-19T16:42:34.000Z</time>
      </trkpt>
      <trkpt lat="44.39037" lon="4.38737">
        <ele>125</ele>
        <time>2012-05-19T16:42:36.000Z</time>
      </trkpt>
      <trkpt lat="44.3905" lon="4.38713">
        <ele>124</ele>
        <time>2012-05-19T16:42:40.000Z</time>
      </trkpt>
      <trkpt lat="44.39059" lon="4.38694">
        <ele>123.19999694824</ele>
        <time>2012-05-19T16:42:43.000Z</time>
      </trkpt>
      <trkpt lat="44.39063" lon="4.3869">
        <ele>122.59999847412</ele>
        <time>2012-05-19T16:42:44.000Z</time>
      </trkpt>
      <trkpt lat="44.39075" lon="4.3869">
        <ele>120</ele>
        <time>2012-05-19T16:42:46.000Z</time>
      </trkpt>
      <trkpt lat="44.39087" lon="4.38701">
        <ele>117.40000152588</ele>
        <time>2012-05-19T16:42:48.000Z</time>
      </trkpt>
      <trkpt lat="44.39093" lon="4.38706">
        <ele>117.59999847412</ele>
        <time>2012-05-19T16:42:49.000Z</time>
      </trkpt>
      <trkpt lat="44.39099" lon="4.38712">
        <ele>117.80000305176</ele>
        <time>2012-05-19T16:42:50.000Z</time>
      </trkpt>
      <trkpt lat="44.39116" lon="4.38724">
        <ele>118.40000152588</ele>
        <time>2012-05-19T16:42:53.000Z</time>
      </trkpt>
      <trkpt lat="44.39122" lon="4.38728">
        <ele>118.59999847412</ele>
        <time>2012-05-19T16:42:55.000Z</time>
      </trkpt>
      <trkpt lat="44.39125" lon="4.38733">
        <ele>118.80000305176</ele>
        <time>2012-05-19T16:42:58.000Z</time>
      </trkpt>
      <trkpt lat="44.39126" lon="4.38733">
        <ele>118.80000305176</ele>
        <time>2012-05-19T16:42:59.000Z</time>
      </trkpt>
      <trkpt lat="44.39128" lon="4.38733">
        <ele>119</ele>
        <time>2012-05-19T16:43:03.000Z</time>
      </trkpt>
      <trkpt lat="44.39128" lon="4.38731">
        <ele>119</ele>
        <time>2012-05-19T16:43:04.000Z</time>
      </trkpt>
      <trkpt lat="44.39133" lon="4.38716">
        <ele>119.59999847412</ele>
        <time>2012-05-19T16:43:08.000Z</time>
      </trkpt>
      <trkpt lat="44.39138" lon="4.38688">
        <ele>120.19999694824</ele>
        <time>2012-05-19T16:43:14.000Z</time>
      </trkpt>
      <trkpt lat="44.3914" lon="4.38682">
        <ele>120.19999694824</ele>
        <time>2012-05-19T16:43:15.000Z</time>
      </trkpt>
      <trkpt lat="44.39145" lon="4.38653">
        <ele>121.19999694824</ele>
        <time>2012-05-19T16:43:20.000Z</time>
      </trkpt>
      <trkpt lat="44.3915" lon="4.38639">
        <ele>122</ele>
        <time>2012-05-19T16:43:22.000Z</time>
      </trkpt>
      <trkpt lat="44.39158" lon="4.38609">
        <ele>123</ele>
        <time>2012-05-19T16:43:26.000Z</time>
      </trkpt>
      <trkpt lat="44.39161" lon="4.38594">
        <ele>123.19999694824</ele>
        <time>2012-05-19T16:43:28.000Z</time>
      </trkpt>
      <trkpt lat="44.39166" lon="4.38582">
        <ele>123</ele>
        <time>2012-05-19T16:43:30.000Z</time>
      </trkpt>
      <trkpt lat="44.39171" lon="4.38572">
        <ele>124.19999694824</ele>
        <time>2012-05-19T16:43:32.000Z</time>
      </trkpt>
      <trkpt lat="44.39172" lon="4.38567">
        <ele>124.59999847412</ele>
        <time>2012-05-19T16:43:33.000Z</time>
      </trkpt>
      <trkpt lat="44.3918" lon="4.38548">
        <ele>126</ele>
        <time>2012-05-19T16:43:37.000Z</time>
      </trkpt>
      <trkpt lat="44.39183" lon="4.38539">
        <ele>126.40000152588</ele>
        <time>2012-05-19T16:43:39.000Z</time>
      </trkpt>
      <trkpt lat="44.39194" lon="4.38516">
        <ele>126.80000305176</ele>
        <time>2012-05-19T16:43:45.000Z</time>
      </trkpt>
      <trkpt lat="44.39203" lon="4.38494">
        <ele>126.19999694824</ele>
        <time>2012-05-19T16:43:50.000Z</time>
      </trkpt>
      <trkpt lat="44.39215" lon="4.38474">
        <ele>125.40000152588</ele>
        <time>2012-05-19T16:43:54.000Z</time>
      </trkpt>
      <trkpt lat="44.39218" lon="4.38468">
        <ele>125</ele>
        <time>2012-05-19T16:43:55.000Z</time>
      </trkpt>
      <trkpt lat="44.39233" lon="4.38444">
        <ele>122.80000305176</ele>
        <time>2012-05-19T16:43:59.000Z</time>
      </trkpt>
      <trkpt lat="44.39245" lon="4.38425">
        <ele>120.19999694824</ele>
        <time>2012-05-19T16:44:02.000Z</time>
      </trkpt>
      <trkpt lat="44.3926" lon="4.38403">
        <ele>118.19999694824</ele>
        <time>2012-05-19T16:44:05.000Z</time>
      </trkpt>
      <trkpt lat="44.39274" lon="4.38385">
        <ele>117</ele>
        <time>2012-05-19T16:44:08.000Z</time>
      </trkpt>
      <trkpt lat="44.39283" lon="4.38376">
        <ele>116.40000152588</ele>
        <time>2012-05-19T16:44:10.000Z</time>
      </trkpt>
      <trkpt lat="44.39293" lon="4.38365">
        <ele>115.59999847412</ele>
        <time>2012-05-19T16:44:12.000Z</time>
      </trkpt>
      <trkpt lat="44.39298" lon="4.3836">
        <ele>115.19999694824</ele>
        <time>2012-05-19T16:44:13.000Z</time>
      </trkpt>
      <trkpt lat="44.39305" lon="4.38353">
        <ele>114.80000305176</ele>
        <time>2012-05-19T16:44:15.000Z</time>
      </trkpt>
      <trkpt lat="44.39311" lon="4.38343">
        <ele>114.19999694824</ele>
        <time>2012-05-19T16:44:16.000Z</time>
      </trkpt>
      <trkpt lat="44.39319" lon="4.38326">
        <ele>113.80000305176</ele>
        <time>2012-05-19T16:44:19.000Z</time>
      </trkpt>
      <trkpt lat="44.3932" lon="4.38317">
        <ele>114</ele>
        <time>2012-05-19T16:44:20.000Z</time>
      </trkpt>
      <trkpt lat="44.3932" lon="4.38292">
        <ele>115</ele>
        <time>2012-05-19T16:44:23.000Z</time>
      </trkpt>
      <trkpt lat="44.3932" lon="4.38278">
        <ele>115.40000152588</ele>
        <time>2012-05-19T16:44:26.000Z</time>
      </trkpt>
      <trkpt lat="44.39321" lon="4.38274">
        <ele>115.59999847412</ele>
        <time>2012-05-19T16:44:30.000Z</time>
      </trkpt>
      <trkpt lat="44.3932" lon="4.38275">
        <ele>115.59999847412</ele>
        <time>2012-05-19T16:44:31.000Z</time>
      </trkpt>
      <trkpt lat="44.3932" lon="4.38282">
        <ele>115.40000152588</ele>
        <time>2012-05-19T16:44:33.000Z</time>
      </trkpt>
      <trkpt lat="44.39323" lon="4.38286">
        <ele>115</ele>
        <time>2012-05-19T16:44:34.000Z</time>
      </trkpt>
      <trkpt lat="44.39341" lon="4.3828">
        <ele>113.19999694824</ele>
        <time>2012-05-19T16:44:38.000Z</time>
      </trkpt>
      <trkpt lat="44.39348" lon="4.38284">
        <ele>111.40000152588</ele>
        <time>2012-05-19T16:44:41.000Z</time>
      </trkpt>
      <trkpt lat="44.39359" lon="4.38285">
        <ele>108.80000305176</ele>
        <time>2012-05-19T16:44:45.000Z</time>
      </trkpt>
      <trkpt lat="44.39366" lon="4.38298">
        <ele>106.19999694824</ele>
        <time>2012-05-19T16:44:48.000Z</time>
      </trkpt>
      <trkpt lat="44.39362" lon="4.38312">
        <ele>106.40000152588</ele>
        <time>2012-05-19T16:44:51.000Z</time>
      </trkpt>
      <trkpt lat="44.39365" lon="4.38322">
        <ele>105</ele>
        <time>2012-05-19T16:44:54.000Z</time>
      </trkpt>
      <trkpt lat="44.39366" lon="4.38323">
        <ele>104.59999847412</ele>
        <time>2012-05-19T16:44:55.000Z</time>
      </trkpt>
      <trkpt lat="44.39366" lon="4.38323">
        <ele>104.59999847412</ele>
        <time>2012-05-19T16:44:57.000Z</time>
      </trkpt>
      <trkpt lat="44.39364" lon="4.38323">
        <ele>105.19999694824</ele>
        <time>2012-05-19T16:44:59.000Z</time>
      </trkpt>
      <trkpt lat="44.39361" lon="4.38321">
        <ele>106</ele>
        <time>2012-05-19T16:45:03.000Z</time>
      </trkpt>
      <trkpt lat="44.39361" lon="4.38321">
        <ele>106</ele>
        <time>2012-05-19T16:45:04.000Z</time>
      </trkpt>
      <trkpt lat="44.39367" lon="4.38323">
        <ele>104.40000152588</ele>
        <time>2012-05-19T16:45:06.000Z</time>
      </trkpt>
      <trkpt lat="44.39377" lon="4.38326">
        <ele>101.40000152588</ele>
        <time>2012-05-19T16:45:09.000Z</time>
      </trkpt>
      <trkpt lat="44.39379" lon="4.38326">
        <ele>101</ele>
        <time>2012-05-19T16:45:15.000Z</time>
      </trkpt>
      <trkpt lat="44.39385" lon="4.38339">
        <ele>98.800003051758</ele>
        <time>2012-05-19T16:45:18.000Z</time>
      </trkpt>
      <trkpt lat="44.39387" lon="4.38346">
        <ele>98.400001525879</ele>
        <time>2012-05-19T16:45:19.000Z</time>
      </trkpt>
      <trkpt lat="44.39397" lon="4.38361">
        <ele>95.599998474121</ele>
        <time>2012-05-19T16:45:22.000Z</time>
      </trkpt>
      <trkpt lat="44.39415" lon="4.38375">
        <ele>90.199996948242</ele>
        <time>2012-05-19T16:45:25.000Z</time>
      </trkpt>
      <trkpt lat="44.39431" lon="4.38391">
        <ele>89</ele>
        <time>2012-05-19T16:45:28.000Z</time>
      </trkpt>
      <trkpt lat="44.39448" lon="4.38407">
        <ele>88.599998474121</ele>
        <time>2012-05-19T16:45:31.000Z</time>
      </trkpt>
      <trkpt lat="44.39458" lon="4.38417">
        <ele>88.599998474121</ele>
        <time>2012-05-19T16:45:33.000Z</time>
      </trkpt>
      <trkpt lat="44.39478" lon="4.38433">
        <ele>88.400001525879</ele>
        <time>2012-05-19T16:45:37.000Z</time>
      </trkpt>
      <trkpt lat="44.39489" lon="4.38438">
        <ele>88.400001525879</ele>
        <time>2012-05-19T16:45:39.000Z</time>
      </trkpt>
      <trkpt lat="44.3951" lon="4.38448">
        <ele>88.400001525879</ele>
        <time>2012-05-19T16:45:43.000Z</time>
      </trkpt>
      <trkpt lat="44.39519" lon="4.38451">
        <ele>88.599998474121</ele>
        <time>2012-05-19T16:45:45.000Z</time>
      </trkpt>
      <trkpt lat="44.3954" lon="4.3846">
        <ele>88.800003051758</ele>
        <time>2012-05-19T16:45:50.000Z</time>
      </trkpt>
      <trkpt lat="44.39544" lon="4.38462">
        <ele>88.800003051758</ele>
        <time>2012-05-19T16:45:51.000Z</time>
      </trkpt>
      <trkpt lat="44.39554" lon="4.38468">
        <ele>88.800003051758</ele>
        <time>2012-05-19T16:45:54.000Z</time>
      </trkpt>
      <trkpt lat="44.39567" lon="4.38478">
        <ele>88.599998474121</ele>
        <time>2012-05-19T16:45:58.000Z</time>
      </trkpt>
      <trkpt lat="44.39582" lon="4.38491">
        <ele>88.199996948242</ele>
        <time>2012-05-19T16:46:03.000Z</time>
      </trkpt>
      <trkpt lat="44.39588" lon="4.38497">
        <ele>88</ele>
        <time>2012-05-19T16:46:05.000Z</time>
      </trkpt>
      <trkpt lat="44.39604" lon="4.38512">
        <ele>88</ele>
        <time>2012-05-19T16:46:10.000Z</time>
      </trkpt>
      <trkpt lat="44.39613" lon="4.38521">
        <ele>88</ele>
        <time>2012-05-19T16:46:13.000Z</time>
      </trkpt>
      <trkpt lat="44.39628" lon="4.38535">
        <ele>87.800003051758</ele>
        <time>2012-05-19T16:46:18.000Z</time>
      </trkpt>
      <trkpt lat="44.39636" lon="4.38541">
        <ele>87.800003051758</ele>
        <time>2012-05-19T16:46:20.000Z</time>
      </trkpt>
      <trkpt lat="44.39653" lon="4.38554">
        <ele>87.400001525879</ele>
        <time>2012-05-19T16:46:24.000Z</time>
      </trkpt>
      <trkpt lat="44.39657" lon="4.38559">
        <ele>87.199996948242</ele>
        <time>2012-05-19T16:46:25.000Z</time>
      </trkpt>
      <trkpt lat="44.39662" lon="4.38564">
        <ele>87.199996948242</ele>
        <time>2012-05-19T16:46:26.000Z</time>
      </trkpt>
      <trkpt lat="44.39673" lon="4.38577">
        <ele>86.599998474121</ele>
        <time>2012-05-19T16:46:29.000Z</time>
      </trkpt>
      <trkpt lat="44.39676" lon="4.38575">
        <ele>86.400001525879</ele>
        <time>2012-05-19T16:46:30.000Z</time>
      </trkpt>
      <trkpt lat="44.39684" lon="4.38566">
        <ele>86</ele>
        <time>2012-05-19T16:46:33.000Z</time>
      </trkpt>
      <trkpt lat="44.39688" lon="4.38563">
        <ele>85.800003051758</ele>
        <time>2012-05-19T16:46:34.000Z</time>
      </trkpt>
      <trkpt lat="44.39692" lon="4.38559">
        <ele>85.800003051758</ele>
        <time>2012-05-19T16:46:35.000Z</time>
      </trkpt>
      <trkpt lat="44.39704" lon="4.3855">
        <ele>85.599998474121</ele>
        <time>2012-05-19T16:46:38.000Z</time>
      </trkpt>
      <trkpt lat="44.39721" lon="4.38539">
        <ele>85.599998474121</ele>
        <time>2012-05-19T16:46:43.000Z</time>
      </trkpt>
      <trkpt lat="44.39738" lon="4.38523">
        <ele>86.199996948242</ele>
        <time>2012-05-19T16:46:49.000Z</time>
      </trkpt>
      <trkpt lat="44.39741" lon="4.38521">
        <ele>86.400001525879</ele>
        <time>2012-05-19T16:46:50.000Z</time>
      </trkpt>
      <trkpt lat="44.39758" lon="4.3851">
        <ele>87</ele>
        <time>2012-05-19T16:46:55.000Z</time>
      </trkpt>
      <trkpt lat="44.39775" lon="4.38497">
        <ele>87</ele>
        <time>2012-05-19T16:47:00.000Z</time>
      </trkpt>
      <trkpt lat="44.39779" lon="4.38494">
        <ele>87</ele>
        <time>2012-05-19T16:47:01.000Z</time>
      </trkpt>
      <trkpt lat="44.39795" lon="4.3848">
        <ele>86.800003051758</ele>
        <time>2012-05-19T16:47:06.000Z</time>
      </trkpt>
      <trkpt lat="44.39799" lon="4.38478">
        <ele>86.800003051758</ele>
        <time>2012-05-19T16:47:07.000Z</time>
      </trkpt>
      <trkpt lat="44.39807" lon="4.38462">
        <ele>87.199996948242</ele>
        <time>2012-05-19T16:47:12.000Z</time>
      </trkpt>
      <trkpt lat="44.39806" lon="4.38441">
        <ele>88.400001525879</ele>
        <time>2012-05-19T16:47:17.000Z</time>
      </trkpt>
      <trkpt lat="44.39793" lon="4.38419">
        <ele>90.400001525879</ele>
        <time>2012-05-19T16:47:23.000Z</time>
      </trkpt>
      <trkpt lat="44.39783" lon="4.38399">
        <ele>90.599998474121</ele>
        <time>2012-05-19T16:47:28.000Z</time>
      </trkpt>
      <trkpt lat="44.39775" lon="4.38379">
        <ele>90.800003051758</ele>
        <time>2012-05-19T16:47:33.000Z</time>
      </trkpt>
      <trkpt lat="44.39766" lon="4.38355">
        <ele>90.800003051758</ele>
        <time>2012-05-19T16:47:38.000Z</time>
      </trkpt>
      <trkpt lat="44.39764" lon="4.38351">
        <ele>90.599998474121</ele>
        <time>2012-05-19T16:47:39.000Z</time>
      </trkpt>
      <trkpt lat="44.39755" lon="4.38327">
        <ele>90.599998474121</ele>
        <time>2012-05-19T16:47:45.000Z</time>
      </trkpt>
      <trkpt lat="44.3975" lon="4.38315">
        <ele>90.599998474121</ele>
        <time>2012-05-19T16:47:48.000Z</time>
      </trkpt>
      <trkpt lat="44.39738" lon="4.38294">
        <ele>90.199996948242</ele>
        <time>2012-05-19T16:47:54.000Z</time>
      </trkpt>
      <trkpt lat="44.39736" lon="4.38292">
        <ele>90.199996948242</ele>
        <time>2012-05-19T16:47:55.000Z</time>
      </trkpt>
      <trkpt lat="44.39732" lon="4.38286">
        <ele>90.199996948242</ele>
        <time>2012-05-19T16:48:00.000Z</time>
      </trkpt>
      <trkpt lat="44.39727" lon="4.38278">
        <ele>90.199996948242</ele>
        <time>2012-05-19T16:48:05.000Z</time>
      </trkpt>
      <trkpt lat="44.39729" lon="4.38273">
        <ele>90.199996948242</ele>
        <time>2012-05-19T16:48:09.000Z</time>
      </trkpt>
      <trkpt lat="44.39732" lon="4.38276">
        <ele>90</ele>
        <time>2012-05-19T16:48:16.000Z</time>
      </trkpt>
      <trkpt lat="44.3974" lon="4.38286">
        <ele>90</ele>
        <time>2012-05-19T16:48:20.000Z</time>
      </trkpt>
      <trkpt lat="44.39749" lon="4.38304">
        <ele>90.400001525879</ele>
        <time>2012-05-19T16:48:24.000Z</time>
      </trkpt>
      <trkpt lat="44.39761" lon="4.38324">
        <ele>90.400001525879</ele>
        <time>2012-05-19T16:48:28.000Z</time>
      </trkpt>
      <trkpt lat="44.39769" lon="4.3834">
        <ele>90.199996948242</ele>
        <time>2012-05-19T16:48:31.000Z</time>
      </trkpt>
      <trkpt lat="44.39784" lon="4.38365">
        <ele>90</ele>
        <time>2012-05-19T16:48:36.000Z</time>
      </trkpt>
      <trkpt lat="44.39797" lon="4.38387">
        <ele>89.599998474121</ele>
        <time>2012-05-19T16:48:41.000Z</time>
      </trkpt>
      <trkpt lat="44.3981" lon="4.3841">
        <ele>89.199996948242</ele>
        <time>2012-05-19T16:48:46.000Z</time>
      </trkpt>
      <trkpt lat="44.39812" lon="4.38415">
        <ele>89.199996948242</ele>
        <time>2012-05-19T16:48:47.000Z</time>
      </trkpt>
      <trkpt lat="44.39815" lon="4.38419">
        <ele>89</ele>
        <time>2012-05-19T16:48:48.000Z</time>
      </trkpt>
      <trkpt lat="44.39827" lon="4.38442">
        <ele>87.199996948242</ele>
        <time>2012-05-19T16:48:53.000Z</time>
      </trkpt>
      <trkpt lat="44.39834" lon="4.38455">
        <ele>86</ele>
        <time>2012-05-19T16:48:56.000Z</time>
      </trkpt>
      <trkpt lat="44.39846" lon="4.38476">
        <ele>84.400001525879</ele>
        <time>2012-05-19T16:49:01.000Z</time>
      </trkpt>
      <trkpt lat="44.39856" lon="4.38492">
        <ele>83.199996948242</ele>
        <time>2012-05-19T16:49:05.000Z</time>
      </trkpt>
      <trkpt lat="44.39869" lon="4.38515">
        <ele>83.599998474121</ele>
        <time>2012-05-19T16:49:12.000Z</time>
      </trkpt>
      <trkpt lat="44.3988" lon="4.38535">
        <ele>85.400001525879</ele>
        <time>2012-05-19T16:49:17.000Z</time>
      </trkpt>
      <trkpt lat="44.39886" lon="4.38545">
        <ele>86.599998474121</ele>
        <time>2012-05-19T16:49:20.000Z</time>
      </trkpt>
      <trkpt lat="44.39897" lon="4.38566">
        <ele>89.400001525879</ele>
        <time>2012-05-19T16:49:26.000Z</time>
      </trkpt>
      <trkpt lat="44.39907" lon="4.38584">
        <ele>92.400001525879</ele>
        <time>2012-05-19T16:49:31.000Z</time>
      </trkpt>
      <trkpt lat="44.39921" lon="4.38606">
        <ele>96.400001525879</ele>
        <time>2012-05-19T16:49:36.000Z</time>
      </trkpt>
      <trkpt lat="44.39933" lon="4.38628">
        <ele>99.800003051758</ele>
        <time>2012-05-19T16:49:41.000Z</time>
      </trkpt>
      <trkpt lat="44.39944" lon="4.38647">
        <ele>102.19999694824</ele>
        <time>2012-05-19T16:49:45.000Z</time>
      </trkpt>
      <trkpt lat="44.39952" lon="4.38661">
        <ele>103.59999847412</ele>
        <time>2012-05-19T16:49:48.000Z</time>
      </trkpt>
      <trkpt lat="44.39965" lon="4.38679">
        <ele>103.59999847412</ele>
        <time>2012-05-19T16:49:52.000Z</time>
      </trkpt>
      <trkpt lat="44.3997" lon="4.38689">
        <ele>103.19999694824</ele>
        <time>2012-05-19T16:49:54.000Z</time>
      </trkpt>
      <trkpt lat="44.39984" lon="4.38713">
        <ele>102.59999847412</ele>
        <time>2012-05-19T16:49:59.000Z</time>
      </trkpt>
      <trkpt lat="44.39989" lon="4.38722">
        <ele>102.40000152588</ele>
        <time>2012-05-19T16:50:01.000Z</time>
      </trkpt>
      <trkpt lat="44.39992" lon="4.38727">
        <ele>102.40000152588</ele>
        <time>2012-05-19T16:50:02.000Z</time>
      </trkpt>
      <trkpt lat="44.40005" lon="4.38749">
        <ele>102.19999694824</ele>
        <time>2012-05-19T16:50:07.000Z</time>
      </trkpt>
      <trkpt lat="44.40016" lon="4.38764">
        <ele>102.59999847412</ele>
        <time>2012-05-19T16:50:11.000Z</time>
      </trkpt>
      <trkpt lat="44.40026" lon="4.38784">
        <ele>103</ele>
        <time>2012-05-19T16:50:16.000Z</time>
      </trkpt>
      <trkpt lat="44.40026" lon="4.38789">
        <ele>103</ele>
        <time>2012-05-19T16:50:17.000Z</time>
      </trkpt>
      <trkpt lat="44.40021" lon="4.38808">
        <ele>103</ele>
        <time>2012-05-19T16:50:21.000Z</time>
      </trkpt>
      <trkpt lat="44.40005" lon="4.38828">
        <ele>102.19999694824</ele>
        <time>2012-05-19T16:50:25.000Z</time>
      </trkpt>
      <trkpt lat="44.39991" lon="4.38848">
        <ele>101.19999694824</ele>
        <time>2012-05-19T16:50:28.000Z</time>
      </trkpt>
      <trkpt lat="44.39981" lon="4.38863">
        <ele>100.40000152588</ele>
        <time>2012-05-19T16:50:30.000Z</time>
      </trkpt>
      <trkpt lat="44.39965" lon="4.38892">
        <ele>99.199996948242</ele>
        <time>2012-05-19T16:50:33.000Z</time>
      </trkpt>
      <trkpt lat="44.39955" lon="4.38913">
        <ele>98.400001525879</ele>
        <time>2012-05-19T16:50:35.000Z</time>
      </trkpt>
      <trkpt lat="44.39945" lon="4.38936">
        <ele>97.599998474121</ele>
        <time>2012-05-19T16:50:37.000Z</time>
      </trkpt>
      <trkpt lat="44.39933" lon="4.38969">
        <ele>96</ele>
        <time>2012-05-19T16:50:40.000Z</time>
      </trkpt>
      <trkpt lat="44.39929" lon="4.38981">
        <ele>95.400001525879</ele>
        <time>2012-05-19T16:50:41.000Z</time>
      </trkpt>
      <trkpt lat="44.39921" lon="4.39005">
        <ele>94.199996948242</ele>
        <time>2012-05-19T16:50:43.000Z</time>
      </trkpt>
      <trkpt lat="44.39914" lon="4.3903">
        <ele>93.599998474121</ele>
        <time>2012-05-19T16:50:45.000Z</time>
      </trkpt>
      <trkpt lat="44.39906" lon="4.39065">
        <ele>92.599998474121</ele>
        <time>2012-05-19T16:50:48.000Z</time>
      </trkpt>
      <trkpt lat="44.399" lon="4.39101">
        <ele>92</ele>
        <time>2012-05-19T16:50:51.000Z</time>
      </trkpt>
      <trkpt lat="44.39897" lon="4.39123">
        <ele>91.400001525879</ele>
        <time>2012-05-19T16:50:53.000Z</time>
      </trkpt>
      <trkpt lat="44.39893" lon="4.39156">
        <ele>90.800003051758</ele>
        <time>2012-05-19T16:50:56.000Z</time>
      </trkpt>
      <trkpt lat="44.3989" lon="4.39188">
        <ele>90.400001525879</ele>
        <time>2012-05-19T16:50:59.000Z</time>
      </trkpt>
      <trkpt lat="44.39888" lon="4.39208">
        <ele>90.199996948242</ele>
        <time>2012-05-19T16:51:01.000Z</time>
      </trkpt>
      <trkpt lat="44.39885" lon="4.39236">
        <ele>89.800003051758</ele>
        <time>2012-05-19T16:51:04.000Z</time>
      </trkpt>
      <trkpt lat="44.39882" lon="4.39264">
        <ele>89.400001525879</ele>
        <time>2012-05-19T16:51:07.000Z</time>
      </trkpt>
      <trkpt lat="44.39879" lon="4.39284">
        <ele>89</ele>
        <time>2012-05-19T16:51:09.000Z</time>
      </trkpt>
      <trkpt lat="44.39876" lon="4.39314">
        <ele>88.400001525879</ele>
        <time>2012-05-19T16:51:12.000Z</time>
      </trkpt>
      <trkpt lat="44.39872" lon="4.39343">
        <ele>87.800003051758</ele>
        <time>2012-05-19T16:51:15.000Z</time>
      </trkpt>
      <trkpt lat="44.39869" lon="4.39371">
        <ele>87.599998474121</ele>
        <time>2012-05-19T16:51:18.000Z</time>
      </trkpt>
      <trkpt lat="44.39868" lon="4.3938">
        <ele>87.400001525879</ele>
        <time>2012-05-19T16:51:19.000Z</time>
      </trkpt>
      <trkpt lat="44.39865" lon="4.39406">
        <ele>87.199996948242</ele>
        <time>2012-05-19T16:51:22.000Z</time>
      </trkpt>
      <trkpt lat="44.39862" lon="4.39432">
        <ele>87.199996948242</ele>
        <time>2012-05-19T16:51:25.000Z</time>
      </trkpt>
      <trkpt lat="44.3986" lon="4.39458">
        <ele>87.599998474121</ele>
        <time>2012-05-19T16:51:28.000Z</time>
      </trkpt>
      <trkpt lat="44.39857" lon="4.39483">
        <ele>88</ele>
        <time>2012-05-19T16:51:31.000Z</time>
      </trkpt>
      <trkpt lat="44.39854" lon="4.39516">
        <ele>88.199996948242</ele>
        <time>2012-05-19T16:51:35.000Z</time>
      </trkpt>
      <trkpt lat="44.39853" lon="4.39541">
        <ele>87.800003051758</ele>
        <time>2012-05-19T16:51:38.000Z</time>
      </trkpt>
      <trkpt lat="44.39853" lon="4.39572">
        <ele>87.599998474121</ele>
        <time>2012-05-19T16:51:42.000Z</time>
      </trkpt>
      <trkpt lat="44.39851" lon="4.39588">
        <ele>87.599998474121</ele>
        <time>2012-05-19T16:51:44.000Z</time>
      </trkpt>
      <trkpt lat="44.39849" lon="4.39604">
        <ele>88.400001525879</ele>
        <time>2012-05-19T16:51:46.000Z</time>
      </trkpt>
      <trkpt lat="44.39843" lon="4.39627">
        <ele>89</ele>
        <time>2012-05-19T16:51:49.000Z</time>
      </trkpt>
      <trkpt lat="44.39836" lon="4.39659">
        <ele>90</ele>
        <time>2012-05-19T16:51:53.000Z</time>
      </trkpt>
      <trkpt lat="44.39834" lon="4.39684">
        <ele>91</ele>
        <time>2012-05-19T16:51:56.000Z</time>
      </trkpt>
      <trkpt lat="44.39834" lon="4.39717">
        <ele>92.599998474121</ele>
        <time>2012-05-19T16:52:00.000Z</time>
      </trkpt>
      <trkpt lat="44.39834" lon="4.39742">
        <ele>93.800003051758</ele>
        <time>2012-05-19T16:52:03.000Z</time>
      </trkpt>
      <trkpt lat="44.39833" lon="4.39767">
        <ele>93.800003051758</ele>
        <time>2012-05-19T16:52:06.000Z</time>
      </trkpt>
      <trkpt lat="44.39833" lon="4.39795">
        <ele>93.400001525879</ele>
        <time>2012-05-19T16:52:09.000Z</time>
      </trkpt>
      <trkpt lat="44.39831" lon="4.39822">
        <ele>93</ele>
        <time>2012-05-19T16:52:12.000Z</time>
      </trkpt>
      <trkpt lat="44.39829" lon="4.39849">
        <ele>92.400001525879</ele>
        <time>2012-05-19T16:52:15.000Z</time>
      </trkpt>
      <trkpt lat="44.39827" lon="4.39858">
        <ele>92.199996948242</ele>
        <time>2012-05-19T16:52:16.000Z</time>
      </trkpt>
      <trkpt lat="44.39823" lon="4.39884">
        <ele>91.400001525879</ele>
        <time>2012-05-19T16:52:19.000Z</time>
      </trkpt>
      <trkpt lat="44.39819" lon="4.39906">
        <ele>90.599998474121</ele>
        <time>2012-05-19T16:52:22.000Z</time>
      </trkpt>
      <trkpt lat="44.39814" lon="4.39937">
        <ele>90.199996948242</ele>
        <time>2012-05-19T16:52:26.000Z</time>
      </trkpt>
      <trkpt lat="44.39812" lon="4.39953">
        <ele>89.800003051758</ele>
        <time>2012-05-19T16:52:28.000Z</time>
      </trkpt>
      <trkpt lat="44.39805" lon="4.39984">
        <ele>89.400001525879</ele>
        <time>2012-05-19T16:52:32.000Z</time>
      </trkpt>
      <trkpt lat="44.39801" lon="4.4">
        <ele>89.199996948242</ele>
        <time>2012-05-19T16:52:34.000Z</time>
      </trkpt>
      <trkpt lat="44.39792" lon="4.4003">
        <ele>89</ele>
        <time>2012-05-19T16:52:38.000Z</time>
      </trkpt>
      <trkpt lat="44.39784" lon="4.40052">
        <ele>88.800003051758</ele>
        <time>2012-05-19T16:52:41.000Z</time>
      </trkpt>
      <trkpt lat="44.39773" lon="4.4008">
        <ele>88.599998474121</ele>
        <time>2012-05-19T16:52:45.000Z</time>
      </trkpt>
      <trkpt lat="44.39765" lon="4.40098">
        <ele>88.199996948242</ele>
        <time>2012-05-19T16:52:48.000Z</time>
      </trkpt>
      <trkpt lat="44.39754" lon="4.40122">
        <ele>87.400001525879</ele>
        <time>2012-05-19T16:52:52.000Z</time>
      </trkpt>
      <trkpt lat="44.39744" lon="4.40147">
        <ele>86.400001525879</ele>
        <time>2012-05-19T16:52:56.000Z</time>
      </trkpt>
      <trkpt lat="44.39733" lon="4.40173">
        <ele>85.800003051758</ele>
        <time>2012-05-19T16:53:00.000Z</time>
      </trkpt>
      <trkpt lat="44.39724" lon="4.40193">
        <ele>86</ele>
        <time>2012-05-19T16:53:03.000Z</time>
      </trkpt>
      <trkpt lat="44.39708" lon="4.40216">
        <ele>86.400001525879</ele>
        <time>2012-05-19T16:53:07.000Z</time>
      </trkpt>
      <trkpt lat="44.39695" lon="4.40232">
        <ele>87</ele>
        <time>2012-05-19T16:53:10.000Z</time>
      </trkpt>
      <trkpt lat="44.39681" lon="4.40249">
        <ele>87.599998474121</ele>
        <time>2012-05-19T16:53:13.000Z</time>
      </trkpt>
      <trkpt lat="44.39666" lon="4.40265">
        <ele>88.199996948242</ele>
        <time>2012-05-19T16:53:16.000Z</time>
      </trkpt>
      <trkpt lat="44.39652" lon="4.40281">
        <ele>88.599998474121</ele>
        <time>2012-05-19T16:53:19.000Z</time>
      </trkpt>
      <trkpt lat="44.39648" lon="4.40286">
        <ele>88.599998474121</ele>
        <time>2012-05-19T16:53:20.000Z</time>
      </trkpt>
      <trkpt lat="44.39636" lon="4.40299">
        <ele>89</ele>
        <time>2012-05-19T16:53:23.000Z</time>
      </trkpt>
      <trkpt lat="44.39628" lon="4.40307">
        <ele>89.400001525879</ele>
        <time>2012-05-19T16:53:25.000Z</time>
      </trkpt>
      <trkpt lat="44.39619" lon="4.40315">
        <ele>89.599998474121</ele>
        <time>2012-05-19T16:53:27.000Z</time>
      </trkpt>
      <trkpt lat="44.39614" lon="4.40318">
        <ele>89.800003051758</ele>
        <time>2012-05-19T16:53:28.000Z</time>
      </trkpt>
      <trkpt lat="44.39604" lon="4.40325">
        <ele>90.199996948242</ele>
        <time>2012-05-19T16:53:30.000Z</time>
      </trkpt>
      <trkpt lat="44.39598" lon="4.40327">
        <ele>90.400001525879</ele>
        <time>2012-05-19T16:53:31.000Z</time>
      </trkpt>
      <trkpt lat="44.39576" lon="4.40334">
        <ele>90.400001525879</ele>
        <time>2012-05-19T16:53:35.000Z</time>
      </trkpt>
      <trkpt lat="44.39554" lon="4.4034">
        <ele>88.599998474121</ele>
        <time>2012-05-19T16:53:39.000Z</time>
      </trkpt>
      <trkpt lat="44.39548" lon="4.40341">
        <ele>88.199996948242</ele>
        <time>2012-05-19T16:53:40.000Z</time>
      </trkpt>
      <trkpt lat="44.39524" lon="4.40346">
        <ele>86.400001525879</ele>
        <time>2012-05-19T16:53:44.000Z</time>
      </trkpt>
      <trkpt lat="44.39512" lon="4.40349">
        <ele>85.599998474121</ele>
        <time>2012-05-19T16:53:46.000Z</time>
      </trkpt>
      <trkpt lat="44.39489" lon="4.40354">
        <ele>85</ele>
        <time>2012-05-19T16:53:50.000Z</time>
      </trkpt>
      <trkpt lat="44.39466" lon="4.40359">
        <ele>85.400001525879</ele>
        <time>2012-05-19T16:53:54.000Z</time>
      </trkpt>
      <trkpt lat="44.3946" lon="4.40361">
        <ele>85.400001525879</ele>
        <time>2012-05-19T16:53:55.000Z</time>
      </trkpt>
      <trkpt lat="44.39439" lon="4.40366">
        <ele>86</ele>
        <time>2012-05-19T16:53:59.000Z</time>
      </trkpt>
      <trkpt lat="44.39424" lon="4.40369">
        <ele>86.199996948242</ele>
        <time>2012-05-19T16:54:02.000Z</time>
      </trkpt>
      <trkpt lat="44.39404" lon="4.40374">
        <ele>87</ele>
        <time>2012-05-19T16:54:06.000Z</time>
      </trkpt>
      <trkpt lat="44.39389" lon="4.40377">
        <ele>87.800003051758</ele>
        <time>2012-05-19T16:54:09.000Z</time>
      </trkpt>
      <trkpt lat="44.3937" lon="4.40381">
        <ele>89</ele>
        <time>2012-05-19T16:54:13.000Z</time>
      </trkpt>
      <trkpt lat="44.39351" lon="4.40385">
        <ele>90.199996948242</ele>
        <time>2012-05-19T16:54:17.000Z</time>
      </trkpt>
      <trkpt lat="44.39341" lon="4.40384">
        <ele>90.599998474121</ele>
        <time>2012-05-19T16:54:19.000Z</time>
      </trkpt>
      <trkpt lat="44.39327" lon="4.40378">
        <ele>92.400001525879</ele>
        <time>2012-05-19T16:54:22.000Z</time>
      </trkpt>
      <trkpt lat="44.39313" lon="4.40362">
        <ele>95.800003051758</ele>
        <time>2012-05-19T16:54:26.000Z</time>
      </trkpt>
      <trkpt lat="44.3931" lon="4.40356">
        <ele>96.199996948242</ele>
        <time>2012-05-19T16:54:27.000Z</time>
      </trkpt>
      <trkpt lat="44.39304" lon="4.40339">
        <ele>97</ele>
        <time>2012-05-19T16:54:30.000Z</time>
      </trkpt>
      <trkpt lat="44.39298" lon="4.40322">
        <ele>97.599998474121</ele>
        <time>2012-05-19T16:54:33.000Z</time>
      </trkpt>
      <trkpt lat="44.39287" lon="4.40296">
        <ele>98.400001525879</ele>
        <time>2012-05-19T16:54:38.000Z</time>
      </trkpt>
      <trkpt lat="44.39281" lon="4.40281">
        <ele>98.800003051758</ele>
        <time>2012-05-19T16:54:41.000Z</time>
      </trkpt>
      <trkpt lat="44.39269" lon="4.40258">
        <ele>99.199996948242</ele>
        <time>2012-05-19T16:54:46.000Z</time>
      </trkpt>
      <trkpt lat="44.3926" lon="4.40246">
        <ele>99.599998474121</ele>
        <time>2012-05-19T16:54:49.000Z</time>
      </trkpt>
      <trkpt lat="44.39246" lon="4.4023">
        <ele>100.19999694824</ele>
        <time>2012-05-19T16:54:53.000Z</time>
      </trkpt>
      <trkpt lat="44.39239" lon="4.4022">
        <ele>100</ele>
        <time>2012-05-19T16:54:55.000Z</time>
      </trkpt>
      <trkpt lat="44.39226" lon="4.40198">
        <ele>98.800003051758</ele>
        <time>2012-05-19T16:54:59.000Z</time>
      </trkpt>
      <trkpt lat="44.39215" lon="4.40184">
        <ele>98</ele>
        <time>2012-05-19T16:55:02.000Z</time>
      </trkpt>
      <trkpt lat="44.39211" lon="4.4018">
        <ele>97.800003051758</ele>
        <time>2012-05-19T16:55:03.000Z</time>
      </trkpt>
      <trkpt lat="44.39192" lon="4.40169">
        <ele>97.800003051758</ele>
        <time>2012-05-19T16:55:07.000Z</time>
      </trkpt>
      <trkpt lat="44.39183" lon="4.40166">
        <ele>98.400001525879</ele>
        <time>2012-05-19T16:55:09.000Z</time>
      </trkpt>
      <trkpt lat="44.39168" lon="4.40167">
        <ele>100</ele>
        <time>2012-05-19T16:55:12.000Z</time>
      </trkpt>
      <trkpt lat="44.39149" lon="4.40179">
        <ele>99</ele>
        <time>2012-05-19T16:55:16.000Z</time>
      </trkpt>
      <trkpt lat="44.39144" lon="4.40183">
        <ele>99.199996948242</ele>
        <time>2012-05-19T16:55:17.000Z</time>
      </trkpt>
      <trkpt lat="44.39131" lon="4.40208">
        <ele>101.40000152588</ele>
        <time>2012-05-19T16:55:21.000Z</time>
      </trkpt>
      <trkpt lat="44.39124" lon="4.40221">
        <ele>102.59999847412</ele>
        <time>2012-05-19T16:55:23.000Z</time>
      </trkpt>
      <trkpt lat="44.39114" lon="4.40242">
        <ele>104.40000152588</ele>
        <time>2012-05-19T16:55:26.000Z</time>
      </trkpt>
      <trkpt lat="44.39103" lon="4.40263">
        <ele>105</ele>
        <time>2012-05-19T16:55:29.000Z</time>
      </trkpt>
      <trkpt lat="44.39094" lon="4.40285">
        <ele>105.19999694824</ele>
        <time>2012-05-19T16:55:32.000Z</time>
      </trkpt>
      <trkpt lat="44.39092" lon="4.40294">
        <ele>105.59999847412</ele>
        <time>2012-05-19T16:55:33.000Z</time>
      </trkpt>
      <trkpt lat="44.39088" lon="4.40311">
        <ele>106.19999694824</ele>
        <time>2012-05-19T16:55:35.000Z</time>
      </trkpt>
      <trkpt lat="44.39086" lon="4.40339">
        <ele>107.40000152588</ele>
        <time>2012-05-19T16:55:38.000Z</time>
      </trkpt>
      <trkpt lat="44.39088" lon="4.40367">
        <ele>106.80000305176</ele>
        <time>2012-05-19T16:55:41.000Z</time>
      </trkpt>
      <trkpt lat="44.3909" lon="4.40392">
        <ele>106.40000152588</ele>
        <time>2012-05-19T16:55:44.000Z</time>
      </trkpt>
      <trkpt lat="44.39092" lon="4.404">
        <ele>106.40000152588</ele>
        <time>2012-05-19T16:55:45.000Z</time>
      </trkpt>
      <trkpt lat="44.39093" lon="4.40428">
        <ele>106</ele>
        <time>2012-05-19T16:55:48.000Z</time>
      </trkpt>
      <trkpt lat="44.39093" lon="4.40437">
        <ele>106</ele>
        <time>2012-05-19T16:55:49.000Z</time>
      </trkpt>
      <trkpt lat="44.3909" lon="4.40458">
        <ele>105.40000152588</ele>
        <time>2012-05-19T16:55:51.000Z</time>
      </trkpt>
      <trkpt lat="44.39083" lon="4.40476">
        <ele>103.80000305176</ele>
        <time>2012-05-19T16:55:53.000Z</time>
      </trkpt>
      <trkpt lat="44.39069" lon="4.405">
        <ele>101.80000305176</ele>
        <time>2012-05-19T16:55:56.000Z</time>
      </trkpt>
      <trkpt lat="44.39059" lon="4.40515">
        <ele>103</ele>
        <time>2012-05-19T16:55:58.000Z</time>
      </trkpt>
      <trkpt lat="44.39043" lon="4.40536">
        <ele>103.80000305176</ele>
        <time>2012-05-19T16:56:01.000Z</time>
      </trkpt>
      <trkpt lat="44.39037" lon="4.40541">
        <ele>103.59999847412</ele>
        <time>2012-05-19T16:56:02.000Z</time>
      </trkpt>
      <trkpt lat="44.39024" lon="4.40552">
        <ele>102.80000305176</ele>
        <time>2012-05-19T16:56:04.000Z</time>
      </trkpt>
      <trkpt lat="44.39006" lon="4.40568">
        <ele>101.19999694824</ele>
        <time>2012-05-19T16:56:07.000Z</time>
      </trkpt>
      <trkpt lat="44.38991" lon="4.4059">
        <ele>101.59999847412</ele>
        <time>2012-05-19T16:56:10.000Z</time>
      </trkpt>
      <trkpt lat="44.38979" lon="4.40615">
        <ele>105</ele>
        <time>2012-05-19T16:56:13.000Z</time>
      </trkpt>
      <trkpt lat="44.38973" lon="4.40633">
        <ele>107.40000152588</ele>
        <time>2012-05-19T16:56:15.000Z</time>
      </trkpt>
      <trkpt lat="44.38971" lon="4.40642">
        <ele>109</ele>
        <time>2012-05-19T16:56:16.000Z</time>
      </trkpt>
      <trkpt lat="44.38963" lon="4.40671">
        <ele>112.40000152588</ele>
        <time>2012-05-19T16:56:19.000Z</time>
      </trkpt>
      <trkpt lat="44.38959" lon="4.4068">
        <ele>112.59999847412</ele>
        <time>2012-05-19T16:56:20.000Z</time>
      </trkpt>
      <trkpt lat="44.38951" lon="4.40698">
        <ele>113.40000152588</ele>
        <time>2012-05-19T16:56:22.000Z</time>
      </trkpt>
      <trkpt lat="44.38938" lon="4.40725">
        <ele>114.19999694824</ele>
        <time>2012-05-19T16:56:25.000Z</time>
      </trkpt>
      <trkpt lat="44.38924" lon="4.4075">
        <ele>114</ele>
        <time>2012-05-19T16:56:28.000Z</time>
      </trkpt>
      <trkpt lat="44.38918" lon="4.40758">
        <ele>114.19999694824</ele>
        <time>2012-05-19T16:56:29.000Z</time>
      </trkpt>
      <trkpt lat="44.38897" lon="4.40771">
        <ele>113</ele>
        <time>2012-05-19T16:56:32.000Z</time>
      </trkpt>
      <trkpt lat="44.38873" lon="4.40766">
        <ele>103.80000305176</ele>
        <time>2012-05-19T16:56:35.000Z</time>
      </trkpt>
      <trkpt lat="44.38864" lon="4.40767">
        <ele>101.59999847412</ele>
        <time>2012-05-19T16:56:36.000Z</time>
      </trkpt>
      <trkpt lat="44.38847" lon="4.40777">
        <ele>100.19999694824</ele>
        <time>2012-05-19T16:56:38.000Z</time>
      </trkpt>
      <trkpt lat="44.38826" lon="4.40801">
        <ele>104</ele>
        <time>2012-05-19T16:56:41.000Z</time>
      </trkpt>
      <trkpt lat="44.38819" lon="4.40809">
        <ele>107.19999694824</ele>
        <time>2012-05-19T16:56:42.000Z</time>
      </trkpt>
      <trkpt lat="44.38805" lon="4.40827">
        <ele>115.19999694824</ele>
        <time>2012-05-19T16:56:44.000Z</time>
      </trkpt>
      <trkpt lat="44.3879" lon="4.40843">
        <ele>122.80000305176</ele>
        <time>2012-05-19T16:56:46.000Z</time>
      </trkpt>
      <trkpt lat="44.38782" lon="4.40851">
        <ele>126.40000152588</ele>
        <time>2012-05-19T16:56:47.000Z</time>
      </trkpt>
      <trkpt lat="44.38759" lon="4.40862">
        <ele>131.80000305176</ele>
        <time>2012-05-19T16:56:50.000Z</time>
      </trkpt>
      <trkpt lat="44.3875" lon="4.40861">
        <ele>132.19999694824</ele>
        <time>2012-05-19T16:56:51.000Z</time>
      </trkpt>
      <trkpt lat="44.38727" lon="4.40861">
        <ele>136.80000305176</ele>
        <time>2012-05-19T16:56:54.000Z</time>
      </trkpt>
      <trkpt lat="44.38713" lon="4.40859">
        <ele>139.19999694824</ele>
        <time>2012-05-19T16:56:56.000Z</time>
      </trkpt>
      <trkpt lat="44.3869" lon="4.40858">
        <ele>143.19999694824</ele>
        <time>2012-05-19T16:57:00.000Z</time>
      </trkpt>
      <trkpt lat="44.38641" lon="4.40858">
        <ele>139.80000305176</ele>
        <time>2012-05-19T16:57:09.000Z</time>
      </trkpt>
      <trkpt lat="44.38636" lon="4.40861">
        <ele>139.80000305176</ele>
        <time>2012-05-19T16:57:10.000Z</time>
      </trkpt>
      <trkpt lat="44.38616" lon="4.40869">
        <ele>138.39999389648</ele>
        <time>2012-05-19T16:57:14.000Z</time>
      </trkpt>
      <trkpt lat="44.38605" lon="4.40871">
        <ele>136.80000305176</ele>
        <time>2012-05-19T16:57:16.000Z</time>
      </trkpt>
      <trkpt lat="44.38586" lon="4.40873">
        <ele>133</ele>
        <time>2012-05-19T16:57:20.000Z</time>
      </trkpt>
      <trkpt lat="44.38536" lon="4.40876">
        <ele>135.60000610352</ele>
        <time>2012-05-19T16:57:29.000Z</time>
      </trkpt>
      <trkpt lat="44.38527" lon="4.40872">
        <ele>133</ele>
        <time>2012-05-19T16:57:31.000Z</time>
      </trkpt>
      <trkpt lat="44.38517" lon="4.40872">
        <ele>133.19999694824</ele>
        <time>2012-05-19T16:57:33.000Z</time>
      </trkpt>
      <trkpt lat="44.38501" lon="4.40867">
        <ele>129.60000610352</ele>
        <time>2012-05-19T16:57:36.000Z</time>
      </trkpt>
      <trkpt lat="44.38481" lon="4.40869">
        <ele>130.60000610352</ele>
        <time>2012-05-19T16:57:40.000Z</time>
      </trkpt>
      <trkpt lat="44.38477" lon="4.40869">
        <ele>130.80000305176</ele>
        <time>2012-05-19T16:57:41.000Z</time>
      </trkpt>
      <trkpt lat="44.38458" lon="4.40864">
        <ele>127.80000305176</ele>
        <time>2012-05-19T16:57:45.000Z</time>
      </trkpt>
      <trkpt lat="44.38447" lon="4.40862">
        <ele>126.59999847412</ele>
        <time>2012-05-19T16:57:47.000Z</time>
      </trkpt>
      <trkpt lat="44.38425" lon="4.4085">
        <ele>121</ele>
        <time>2012-05-19T16:57:51.000Z</time>
      </trkpt>
      <trkpt lat="44.38414" lon="4.40843">
        <ele>117.80000305176</ele>
        <time>2012-05-19T16:57:53.000Z</time>
      </trkpt>
      <trkpt lat="44.38398" lon="4.40831">
        <ele>111.19999694824</ele>
        <time>2012-05-19T16:57:56.000Z</time>
      </trkpt>
      <trkpt lat="44.38393" lon="4.40825">
        <ele>108.80000305176</ele>
        <time>2012-05-19T16:57:57.000Z</time>
      </trkpt>
      <trkpt lat="44.3839" lon="4.40818">
        <ele>106.40000152588</ele>
        <time>2012-05-19T16:57:58.000Z</time>
      </trkpt>
      <trkpt lat="44.38381" lon="4.40807">
        <ele>102.19999694824</ele>
        <time>2012-05-19T16:58:00.000Z</time>
      </trkpt>
      <trkpt lat="44.38369" lon="4.40801">
        <ele>100.40000152588</ele>
        <time>2012-05-19T16:58:02.000Z</time>
      </trkpt>
      <trkpt lat="44.3835" lon="4.40803">
        <ele>100.80000305176</ele>
        <time>2012-05-19T16:58:05.000Z</time>
      </trkpt>
      <trkpt lat="44.38344" lon="4.40805">
        <ele>101.19999694824</ele>
        <time>2012-05-19T16:58:06.000Z</time>
      </trkpt>
      <trkpt lat="44.38325" lon="4.40804">
        <ele>100</ele>
        <time>2012-05-19T16:58:09.000Z</time>
      </trkpt>
      <trkpt lat="44.38312" lon="4.40804">
        <ele>98.199996948242</ele>
        <time>2012-05-19T16:58:11.000Z</time>
      </trkpt>
      <trkpt lat="44.38302" lon="4.40808">
        <ele>97.599998474121</ele>
        <time>2012-05-19T16:58:13.000Z</time>
      </trkpt>
      <trkpt lat="44.38291" lon="4.40816">
        <ele>97.400001525879</ele>
        <time>2012-05-19T16:58:15.000Z</time>
      </trkpt>
      <trkpt lat="44.38276" lon="4.40837">
        <ele>97.800003051758</ele>
        <time>2012-05-19T16:58:19.000Z</time>
      </trkpt>
      <trkpt lat="44.38271" lon="4.4085">
        <ele>98.599998474121</ele>
        <time>2012-05-19T16:58:21.000Z</time>
      </trkpt>
      <trkpt lat="44.38262" lon="4.40872">
        <ele>99.599998474121</ele>
        <time>2012-05-19T16:58:24.000Z</time>
      </trkpt>
      <trkpt lat="44.38256" lon="4.40895">
        <ele>101</ele>
        <time>2012-05-19T16:58:27.000Z</time>
      </trkpt>
      <trkpt lat="44.38251" lon="4.40919">
        <ele>102.59999847412</ele>
        <time>2012-05-19T16:58:30.000Z</time>
      </trkpt>
      <trkpt lat="44.38245" lon="4.40944">
        <ele>104</ele>
        <time>2012-05-19T16:58:33.000Z</time>
      </trkpt>
      <trkpt lat="44.38238" lon="4.40972">
        <ele>105.19999694824</ele>
        <time>2012-05-19T16:58:36.000Z</time>
      </trkpt>
      <trkpt lat="44.38232" lon="4.4099">
        <ele>105</ele>
        <time>2012-05-19T16:58:38.000Z</time>
      </trkpt>
      <trkpt lat="44.38222" lon="4.41015">
        <ele>103.59999847412</ele>
        <time>2012-05-19T16:58:41.000Z</time>
      </trkpt>
      <trkpt lat="44.38212" lon="4.41043">
        <ele>102.19999694824</ele>
        <time>2012-05-19T16:58:44.000Z</time>
      </trkpt>
      <trkpt lat="44.38208" lon="4.41055">
        <ele>101.40000152588</ele>
        <time>2012-05-19T16:58:45.000Z</time>
      </trkpt>
      <trkpt lat="44.382" lon="4.41091">
        <ele>100</ele>
        <time>2012-05-19T16:58:48.000Z</time>
      </trkpt>
      <trkpt lat="44.38194" lon="4.41116">
        <ele>97.800003051758</ele>
        <time>2012-05-19T16:58:50.000Z</time>
      </trkpt>
      <trkpt lat="44.38188" lon="4.41152">
        <ele>96</ele>
        <time>2012-05-19T16:58:53.000Z</time>
      </trkpt>
      <trkpt lat="44.38187" lon="4.41178">
        <ele>96</ele>
        <time>2012-05-19T16:58:55.000Z</time>
      </trkpt>
      <trkpt lat="44.38187" lon="4.4119">
        <ele>96</ele>
        <time>2012-05-19T16:58:56.000Z</time>
      </trkpt>
      <trkpt lat="44.38188" lon="4.41204">
        <ele>96.199996948242</ele>
        <time>2012-05-19T16:58:57.000Z</time>
      </trkpt>
      <trkpt lat="44.3819" lon="4.41229">
        <ele>97</ele>
        <time>2012-05-19T16:58:59.000Z</time>
      </trkpt>
      <trkpt lat="44.38193" lon="4.41254">
        <ele>97.599998474121</ele>
        <time>2012-05-19T16:59:01.000Z</time>
      </trkpt>
      <trkpt lat="44.38199" lon="4.41277">
        <ele>97.800003051758</ele>
        <time>2012-05-19T16:59:03.000Z</time>
      </trkpt>
      <trkpt lat="44.38206" lon="4.41301">
        <ele>97.800003051758</ele>
        <time>2012-05-19T16:59:05.000Z</time>
      </trkpt>
      <trkpt lat="44.3822" lon="4.41332">
        <ele>97.400001525879</ele>
        <time>2012-05-19T16:59:08.000Z</time>
      </trkpt>
      <trkpt lat="44.38229" lon="4.41351">
        <ele>96.800003051758</ele>
        <time>2012-05-19T16:59:10.000Z</time>
      </trkpt>
      <trkpt lat="44.38245" lon="4.41375">
        <ele>95.599998474121</ele>
        <time>2012-05-19T16:59:13.000Z</time>
      </trkpt>
      <trkpt lat="44.38251" lon="4.41379">
        <ele>95.400001525879</ele>
        <time>2012-05-19T16:59:14.000Z</time>
      </trkpt>
      <trkpt lat="44.38258" lon="4.41381">
        <ele>94.800003051758</ele>
        <time>2012-05-19T16:59:15.000Z</time>
      </trkpt>
      <trkpt lat="44.38276" lon="4.4137">
        <ele>95.599998474121</ele>
        <time>2012-05-19T16:59:17.000Z</time>
      </trkpt>
      <trkpt lat="44.38284" lon="4.41366">
        <ele>95.800003051758</ele>
        <time>2012-05-19T16:59:18.000Z</time>
      </trkpt>
      <trkpt lat="44.38307" lon="4.41358">
        <ele>95.400001525879</ele>
        <time>2012-05-19T16:59:21.000Z</time>
      </trkpt>
      <trkpt lat="44.3832" lon="4.41357">
        <ele>94.800003051758</ele>
        <time>2012-05-19T16:59:23.000Z</time>
      </trkpt>
      <trkpt lat="44.38339" lon="4.41364">
        <ele>93.599998474121</ele>
        <time>2012-05-19T16:59:26.000Z</time>
      </trkpt>
      <trkpt lat="44.38349" lon="4.41371">
        <ele>93.400001525879</ele>
        <time>2012-05-19T16:59:29.000Z</time>
      </trkpt>
      <trkpt lat="44.38351" lon="4.41372">
        <ele>93.400001525879</ele>
        <time>2012-05-19T16:59:30.000Z</time>
      </trkpt>
      <trkpt lat="44.38354" lon="4.41375">
        <ele>93.400001525879</ele>
        <time>2012-05-19T16:59:32.000Z</time>
      </trkpt>
      <trkpt lat="44.38354" lon="4.41376">
        <ele>93.400001525879</ele>
        <time>2012-05-19T16:59:35.000Z</time>
      </trkpt>
      <trkpt lat="44.38362" lon="4.4138">
        <ele>93.599998474121</ele>
        <time>2012-05-19T16:59:43.000Z</time>
      </trkpt>
      <trkpt lat="44.38378" lon="4.41391">
        <ele>94.400001525879</ele>
        <time>2012-05-19T16:59:49.000Z</time>
      </trkpt>
      <trkpt lat="44.38397" lon="4.41403">
        <ele>95.800003051758</ele>
        <time>2012-05-19T16:59:54.000Z</time>
      </trkpt>
      <trkpt lat="44.38405" lon="4.41409">
        <ele>96.599998474121</ele>
        <time>2012-05-19T16:59:56.000Z</time>
      </trkpt>
      <trkpt lat="44.38422" lon="4.41419">
        <ele>99.400001525879</ele>
        <time>2012-05-19T17:00:01.000Z</time>
      </trkpt>
      <trkpt lat="44.38426" lon="4.41419">
        <ele>100.19999694824</ele>
        <time>2012-05-19T17:00:02.000Z</time>
      </trkpt>
      <trkpt lat="44.38446" lon="4.41415">
        <ele>103.19999694824</ele>
        <time>2012-05-19T17:00:07.000Z</time>
      </trkpt>
      <trkpt lat="44.38465" lon="4.41402">
        <ele>104.40000152588</ele>
        <time>2012-05-19T17:00:12.000Z</time>
      </trkpt>
      <trkpt lat="44.3847" lon="4.414">
        <ele>104.80000305176</ele>
        <time>2012-05-19T17:00:13.000Z</time>
      </trkpt>
      <trkpt lat="44.38487" lon="4.41392">
        <ele>105.80000305176</ele>
        <time>2012-05-19T17:00:17.000Z</time>
      </trkpt>
      <trkpt lat="44.38496" lon="4.41389">
        <ele>106.40000152588</ele>
        <time>2012-05-19T17:00:19.000Z</time>
      </trkpt>
      <trkpt lat="44.38515" lon="4.41382">
        <ele>104.40000152588</ele>
        <time>2012-05-19T17:00:23.000Z</time>
      </trkpt>
      <trkpt lat="44.38524" lon="4.41377">
        <ele>102.80000305176</ele>
        <time>2012-05-19T17:00:25.000Z</time>
      </trkpt>
      <trkpt lat="44.38544" lon="4.41371">
        <ele>100</ele>
        <time>2012-05-19T17:00:29.000Z</time>
      </trkpt>
      <trkpt lat="44.3855" lon="4.41371">
        <ele>99.599998474121</ele>
        <time>2012-05-19T17:00:30.000Z</time>
      </trkpt>
      <trkpt lat="44.38559" lon="4.41372">
        <ele>99.199996948242</ele>
        <time>2012-05-19T17:00:32.000Z</time>
      </trkpt>
      <trkpt lat="44.38564" lon="4.41373">
        <ele>99</ele>
        <time>2012-05-19T17:00:33.000Z</time>
      </trkpt>
      <trkpt lat="44.38574" lon="4.41378">
        <ele>99.199996948242</ele>
        <time>2012-05-19T17:00:35.000Z</time>
      </trkpt>
      <trkpt lat="44.38581" lon="4.41385">
        <ele>99.800003051758</ele>
        <time>2012-05-19T17:00:37.000Z</time>
      </trkpt>
      <trkpt lat="44.3859" lon="4.41399">
        <ele>101.80000305176</ele>
        <time>2012-05-19T17:00:40.000Z</time>
      </trkpt>
      <trkpt lat="44.38591" lon="4.41404">
        <ele>102.59999847412</ele>
        <time>2012-05-19T17:00:41.000Z</time>
      </trkpt>
      <trkpt lat="44.386" lon="4.41426">
        <ele>105.40000152588</ele>
        <time>2012-05-19T17:00:45.000Z</time>
      </trkpt>
      <trkpt lat="44.38602" lon="4.41432">
        <ele>105.80000305176</ele>
        <time>2012-05-19T17:00:46.000Z</time>
      </trkpt>
      <trkpt lat="44.38606" lon="4.41444">
        <ele>106.59999847412</ele>
        <time>2012-05-19T17:00:48.000Z</time>
      </trkpt>
      <trkpt lat="44.38611" lon="4.41463">
        <ele>107.80000305176</ele>
        <time>2012-05-19T17:00:52.000Z</time>
      </trkpt>
      <trkpt lat="44.38612" lon="4.41479">
        <ele>109</ele>
        <time>2012-05-19T17:00:55.000Z</time>
      </trkpt>
      <trkpt lat="44.38614" lon="4.415">
        <ele>110.19999694824</ele>
        <time>2012-05-19T17:00:58.000Z</time>
      </trkpt>
      <trkpt lat="44.38619" lon="4.41531">
        <ele>109</ele>
        <time>2012-05-19T17:01:02.000Z</time>
      </trkpt>
      <trkpt lat="44.3862" lon="4.4154">
        <ele>108.59999847412</ele>
        <time>2012-05-19T17:01:03.000Z</time>
      </trkpt>
      <trkpt lat="44.38626" lon="4.41565">
        <ele>107.19999694824</ele>
        <time>2012-05-19T17:01:06.000Z</time>
      </trkpt>
      <trkpt lat="44.38629" lon="4.4159">
        <ele>106.19999694824</ele>
        <time>2012-05-19T17:01:09.000Z</time>
      </trkpt>
      <trkpt lat="44.38629" lon="4.41599">
        <ele>105.80000305176</ele>
        <time>2012-05-19T17:01:10.000Z</time>
      </trkpt>
      <trkpt lat="44.38629" lon="4.41608">
        <ele>105.40000152588</ele>
        <time>2012-05-19T17:01:11.000Z</time>
      </trkpt>
      <trkpt lat="44.38622" lon="4.41636">
        <ele>105</ele>
        <time>2012-05-19T17:01:14.000Z</time>
      </trkpt>
      <trkpt lat="44.38611" lon="4.41664">
        <ele>104.59999847412</ele>
        <time>2012-05-19T17:01:17.000Z</time>
      </trkpt>
      <trkpt lat="44.38598" lon="4.4169">
        <ele>103.19999694824</ele>
        <time>2012-05-19T17:01:20.000Z</time>
      </trkpt>
      <trkpt lat="44.38586" lon="4.41715">
        <ele>100.19999694824</ele>
        <time>2012-05-19T17:01:23.000Z</time>
      </trkpt>
      <trkpt lat="44.38572" lon="4.41737">
        <ele>98.800003051758</ele>
        <time>2012-05-19T17:01:26.000Z</time>
      </trkpt>
      <trkpt lat="44.38561" lon="4.4175">
        <ele>98.400001525879</ele>
        <time>2012-05-19T17:01:28.000Z</time>
      </trkpt>
      <trkpt lat="44.38545" lon="4.41767">
        <ele>100</ele>
        <time>2012-05-19T17:01:31.000Z</time>
      </trkpt>
      <trkpt lat="44.38529" lon="4.41781">
        <ele>100</ele>
        <time>2012-05-19T17:01:34.000Z</time>
      </trkpt>
      <trkpt lat="44.38511" lon="4.41792">
        <ele>99.199996948242</ele>
        <time>2012-05-19T17:01:37.000Z</time>
      </trkpt>
      <trkpt lat="44.38493" lon="4.41801">
        <ele>97.800003051758</ele>
        <time>2012-05-19T17:01:40.000Z</time>
      </trkpt>
      <trkpt lat="44.38474" lon="4.41805">
        <ele>97.599998474121</ele>
        <time>2012-05-19T17:01:43.000Z</time>
      </trkpt>
      <trkpt lat="44.38455" lon="4.41808">
        <ele>97.599998474121</ele>
        <time>2012-05-19T17:01:46.000Z</time>
      </trkpt>
      <trkpt lat="44.38438" lon="4.41814">
        <ele>97</ele>
        <time>2012-05-19T17:01:49.000Z</time>
      </trkpt>
      <trkpt lat="44.38431" lon="4.41817">
        <ele>96.599998474121</ele>
        <time>2012-05-19T17:01:50.000Z</time>
      </trkpt>
      <trkpt lat="44.38419" lon="4.41824">
        <ele>95.800003051758</ele>
        <time>2012-05-19T17:01:52.000Z</time>
      </trkpt>
      <trkpt lat="44.38402" lon="4.41838">
        <ele>98.599998474121</ele>
        <time>2012-05-19T17:01:55.000Z</time>
      </trkpt>
      <trkpt lat="44.38384" lon="4.41852">
        <ele>112.19999694824</ele>
        <time>2012-05-19T17:01:58.000Z</time>
      </trkpt>
      <trkpt lat="44.38364" lon="4.41865">
        <ele>125.19999694824</ele>
        <time>2012-05-19T17:02:01.000Z</time>
      </trkpt>
      <trkpt lat="44.38351" lon="4.41867">
        <ele>128.80000305176</ele>
        <time>2012-05-19T17:02:03.000Z</time>
      </trkpt>
      <trkpt lat="44.38345" lon="4.41867">
        <ele>129.60000610352</ele>
        <time>2012-05-19T17:02:04.000Z</time>
      </trkpt>
      <trkpt lat="44.38323" lon="4.41865">
        <ele>130.19999694824</ele>
        <time>2012-05-19T17:02:08.000Z</time>
      </trkpt>
      <trkpt lat="44.38318" lon="4.41865">
        <ele>130</ele>
        <time>2012-05-19T17:02:09.000Z</time>
      </trkpt>
      <trkpt lat="44.383" lon="4.41862">
        <ele>128.19999694824</ele>
        <time>2012-05-19T17:02:13.000Z</time>
      </trkpt>
      <trkpt lat="44.38287" lon="4.4186">
        <ele>126.80000305176</ele>
        <time>2012-05-19T17:02:16.000Z</time>
      </trkpt>
      <trkpt lat="44.38278" lon="4.41859">
        <ele>125.80000305176</ele>
        <time>2012-05-19T17:02:18.000Z</time>
      </trkpt>
      <trkpt lat="44.38261" lon="4.41852">
        <ele>122</ele>
        <time>2012-05-19T17:02:22.000Z</time>
      </trkpt>
      <trkpt lat="44.3824" lon="4.41848">
        <ele>119</ele>
        <time>2012-05-19T17:02:27.000Z</time>
      </trkpt>
      <trkpt lat="44.38232" lon="4.41845">
        <ele>117</ele>
        <time>2012-05-19T17:02:29.000Z</time>
      </trkpt>
      <trkpt lat="44.38212" lon="4.41841">
        <ele>113.40000152588</ele>
        <time>2012-05-19T17:02:34.000Z</time>
      </trkpt>
      <trkpt lat="44.38202" lon="4.41838">
        <ele>111.40000152588</ele>
        <time>2012-05-19T17:02:37.000Z</time>
      </trkpt>
      <trkpt lat="44.38184" lon="4.41835">
        <ele>108.59999847412</ele>
        <time>2012-05-19T17:02:43.000Z</time>
      </trkpt>
      <trkpt lat="44.38176" lon="4.41834">
        <ele>107.40000152588</ele>
        <time>2012-05-19T17:02:46.000Z</time>
      </trkpt>
      <trkpt lat="44.38158" lon="4.41829">
        <ele>106.19999694824</ele>
        <time>2012-05-19T17:02:53.000Z</time>
      </trkpt>
      <trkpt lat="44.38154" lon="4.41829">
        <ele>106.40000152588</ele>
        <time>2012-05-19T17:02:55.000Z</time>
      </trkpt>
      <trkpt lat="44.3814" lon="4.41832">
        <ele>108</ele>
        <time>2012-05-19T17:03:02.000Z</time>
      </trkpt>
      <trkpt lat="44.38132" lon="4.4183">
        <ele>108</ele>
        <time>2012-05-19T17:03:08.000Z</time>
      </trkpt>
      <trkpt lat="44.38132" lon="4.4183">
        <ele>107.80000305176</ele>
        <time>2012-05-19T17:03:12.000Z</time>
      </trkpt>
      <trkpt lat="44.3813" lon="4.41827">
        <ele>107</ele>
        <time>2012-05-19T17:03:17.000Z</time>
      </trkpt>
      <trkpt lat="44.38125" lon="4.41825">
        <ele>106.40000152588</ele>
        <time>2012-05-19T17:03:23.000Z</time>
      </trkpt>
      <trkpt lat="44.38123" lon="4.41822">
        <ele>105.59999847412</ele>
        <time>2012-05-19T17:03:29.000Z</time>
      </trkpt>
      <trkpt lat="44.38124" lon="4.41827">
        <ele>107.40000152588</ele>
        <time>2012-05-19T17:07:32.000Z</time>
      </trkpt>
      <trkpt lat="44.38121" lon="4.41834">
        <ele>110.19999694824</ele>
        <time>2012-05-19T17:07:44.000Z</time>
      </trkpt>
      <trkpt lat="44.38114" lon="4.41834">
        <ele>110.19999694824</ele>
        <time>2012-05-19T17:07:48.000Z</time>
      </trkpt>
      <trkpt lat="44.38102" lon="4.41832">
        <ele>110.59999847412</ele>
        <time>2012-05-19T17:07:54.000Z</time>
      </trkpt>
      <trkpt lat="44.38096" lon="4.41831">
        <ele>110.59999847412</ele>
        <time>2012-05-19T17:07:59.000Z</time>
      </trkpt>
      <trkpt lat="44.38094" lon="4.41831">
        <ele>110.59999847412</ele>
        <time>2012-05-19T17:08:00.000Z</time>
      </trkpt>
      <trkpt lat="44.38086" lon="4.41832">
        <ele>111.40000152588</ele>
        <time>2012-05-19T17:08:05.000Z</time>
      </trkpt>
      <trkpt lat="44.38082" lon="4.41832">
        <ele>111.19999694824</ele>
        <time>2012-05-19T17:08:08.000Z</time>
      </trkpt>
      <trkpt lat="44.3807" lon="4.41831">
        <ele>110.19999694824</ele>
        <time>2012-05-19T17:08:13.000Z</time>
      </trkpt>
      <trkpt lat="44.38056" lon="4.41827">
        <ele>107.59999847412</ele>
        <time>2012-05-19T17:08:19.000Z</time>
      </trkpt>
      <trkpt lat="44.38038" lon="4.41827">
        <ele>106.19999694824</ele>
        <time>2012-05-19T17:08:26.000Z</time>
      </trkpt>
      <trkpt lat="44.38019" lon="4.4183">
        <ele>105.59999847412</ele>
        <time>2012-05-19T17:08:32.000Z</time>
      </trkpt>
      <trkpt lat="44.38012" lon="4.4183">
        <ele>105</ele>
        <time>2012-05-19T17:08:34.000Z</time>
      </trkpt>
      <trkpt lat="44.37994" lon="4.41827">
        <ele>102.80000305176</ele>
        <time>2012-05-19T17:08:39.000Z</time>
      </trkpt>
      <trkpt lat="44.37976" lon="4.41827">
        <ele>102.19999694824</ele>
        <time>2012-05-19T17:08:44.000Z</time>
      </trkpt>
      <trkpt lat="44.37965" lon="4.4183">
        <ele>102.40000152588</ele>
        <time>2012-05-19T17:08:47.000Z</time>
      </trkpt>
      <trkpt lat="44.37946" lon="4.41837">
        <ele>103.59999847412</ele>
        <time>2012-05-19T17:08:52.000Z</time>
      </trkpt>
      <trkpt lat="44.37938" lon="4.41839">
        <ele>103.59999847412</ele>
        <time>2012-05-19T17:08:54.000Z</time>
      </trkpt>
      <trkpt lat="44.37919" lon="4.41847">
        <ele>104.40000152588</ele>
        <time>2012-05-19T17:08:59.000Z</time>
      </trkpt>
      <trkpt lat="44.37907" lon="4.4185">
        <ele>104.40000152588</ele>
        <time>2012-05-19T17:09:02.000Z</time>
      </trkpt>
      <trkpt lat="44.37886" lon="4.41858">
        <ele>104.80000305176</ele>
        <time>2012-05-19T17:09:07.000Z</time>
      </trkpt>
      <trkpt lat="44.37882" lon="4.4186">
        <ele>105</ele>
        <time>2012-05-19T17:09:08.000Z</time>
      </trkpt>
      <trkpt lat="44.37879" lon="4.41861">
        <ele>105.19999694824</ele>
        <time>2012-05-19T17:09:09.000Z</time>
      </trkpt>
      <trkpt lat="44.37872" lon="4.41864">
        <ele>105.19999694824</ele>
        <time>2012-05-19T17:09:11.000Z</time>
      </trkpt>
      <trkpt lat="44.37864" lon="4.41865">
        <ele>105</ele>
        <time>2012-05-19T17:09:14.000Z</time>
      </trkpt>
      <trkpt lat="44.37857" lon="4.41867">
        <ele>104.59999847412</ele>
        <time>2012-05-19T17:09:18.000Z</time>
      </trkpt>
      <trkpt lat="44.37851" lon="4.41869">
        <ele>104.80000305176</ele>
        <time>2012-05-19T17:09:20.000Z</time>
      </trkpt>
      <trkpt lat="44.37832" lon="4.41879">
        <ele>105.19999694824</ele>
        <time>2012-05-19T17:09:26.000Z</time>
      </trkpt>
      <trkpt lat="44.37813" lon="4.4189">
        <ele>105.40000152588</ele>
        <time>2012-05-19T17:09:31.000Z</time>
      </trkpt>
      <trkpt lat="44.37809" lon="4.41892">
        <ele>105.40000152588</ele>
        <time>2012-05-19T17:09:32.000Z</time>
      </trkpt>
      <trkpt lat="44.37793" lon="4.41904">
        <ele>105.59999847412</ele>
        <time>2012-05-19T17:09:37.000Z</time>
      </trkpt>
      <trkpt lat="44.3779" lon="4.41907">
        <ele>105.80000305176</ele>
        <time>2012-05-19T17:09:38.000Z</time>
      </trkpt>
      <trkpt lat="44.37775" lon="4.41926">
        <ele>107</ele>
        <time>2012-05-19T17:09:43.000Z</time>
      </trkpt>
      <trkpt lat="44.37771" lon="4.41934">
        <ele>107.59999847412</ele>
        <time>2012-05-19T17:09:45.000Z</time>
      </trkpt>
      <trkpt lat="44.37761" lon="4.41951">
        <ele>108.19999694824</ele>
        <time>2012-05-19T17:09:49.000Z</time>
      </trkpt>
      <trkpt lat="44.37747" lon="4.4197">
        <ele>108.40000152588</ele>
        <time>2012-05-19T17:09:54.000Z</time>
      </trkpt>
      <trkpt lat="44.37744" lon="4.41973">
        <ele>108.19999694824</ele>
        <time>2012-05-19T17:09:55.000Z</time>
      </trkpt>
      <trkpt lat="44.37728" lon="4.41988">
        <ele>108</ele>
        <time>2012-05-19T17:10:00.000Z</time>
      </trkpt>
      <trkpt lat="44.37719" lon="4.42003">
        <ele>108.59999847412</ele>
        <time>2012-05-19T17:10:04.000Z</time>
      </trkpt>
      <trkpt lat="44.37709" lon="4.42027">
        <ele>109.40000152588</ele>
        <time>2012-05-19T17:10:09.000Z</time>
      </trkpt>
      <trkpt lat="44.37705" lon="4.42037">
        <ele>109.59999847412</ele>
        <time>2012-05-19T17:10:11.000Z</time>
      </trkpt>
      <trkpt lat="44.37695" lon="4.42062">
        <ele>109.40000152588</ele>
        <time>2012-05-19T17:10:16.000Z</time>
      </trkpt>
      <trkpt lat="44.37693" lon="4.42067">
        <ele>109.19999694824</ele>
        <time>2012-05-19T17:10:17.000Z</time>
      </trkpt>
      <trkpt lat="44.37682" lon="4.42094">
        <ele>108.59999847412</ele>
        <time>2012-05-19T17:10:22.000Z</time>
      </trkpt>
      <trkpt lat="44.37674" lon="4.42116">
        <ele>109.19999694824</ele>
        <time>2012-05-19T17:10:26.000Z</time>
      </trkpt>
      <trkpt lat="44.37663" lon="4.4214">
        <ele>109.19999694824</ele>
        <time>2012-05-19T17:10:31.000Z</time>
      </trkpt>
      <trkpt lat="44.37656" lon="4.4216">
        <ele>110</ele>
        <time>2012-05-19T17:10:34.000Z</time>
      </trkpt>
      <trkpt lat="44.37645" lon="4.42188">
        <ele>109.80000305176</ele>
        <time>2012-05-19T17:10:38.000Z</time>
      </trkpt>
      <trkpt lat="44.37639" lon="4.42203">
        <ele>109.40000152588</ele>
        <time>2012-05-19T17:10:40.000Z</time>
      </trkpt>
      <trkpt lat="44.37632" lon="4.42225">
        <ele>108.80000305176</ele>
        <time>2012-05-19T17:10:43.000Z</time>
      </trkpt>
      <trkpt lat="44.37628" lon="4.4225">
        <ele>109.19999694824</ele>
        <time>2012-05-19T17:10:46.000Z</time>
      </trkpt>
      <trkpt lat="44.37627" lon="4.42259">
        <ele>109</ele>
        <time>2012-05-19T17:10:47.000Z</time>
      </trkpt>
      <trkpt lat="44.37625" lon="4.42292">
        <ele>108.19999694824</ele>
        <time>2012-05-19T17:10:51.000Z</time>
      </trkpt>
      <trkpt lat="44.37626" lon="4.42309">
        <ele>108.40000152588</ele>
        <time>2012-05-19T17:10:53.000Z</time>
      </trkpt>
      <trkpt lat="44.3763" lon="4.42333">
        <ele>109.59999847412</ele>
        <time>2012-05-19T17:10:56.000Z</time>
      </trkpt>
      <trkpt lat="44.37634" lon="4.42355">
        <ele>108.59999847412</ele>
        <time>2012-05-19T17:10:59.000Z</time>
      </trkpt>
      <trkpt lat="44.37641" lon="4.42381">
        <ele>108</ele>
        <time>2012-05-19T17:11:03.000Z</time>
      </trkpt>
      <trkpt lat="44.37648" lon="4.42394">
        <ele>108.40000152588</ele>
        <time>2012-05-19T17:11:05.000Z</time>
      </trkpt>
      <trkpt lat="44.3766" lon="4.42422">
        <ele>108.40000152588</ele>
        <time>2012-05-19T17:11:09.000Z</time>
      </trkpt>
      <trkpt lat="44.37667" lon="4.42438">
        <ele>107.80000305176</ele>
        <time>2012-05-19T17:11:11.000Z</time>
      </trkpt>
      <trkpt lat="44.37676" lon="4.42464">
        <ele>106.59999847412</ele>
        <time>2012-05-19T17:11:14.000Z</time>
      </trkpt>
      <trkpt lat="44.37683" lon="4.42494">
        <ele>103.59999847412</ele>
        <time>2012-05-19T17:11:17.000Z</time>
      </trkpt>
      <trkpt lat="44.37686" lon="4.42524">
        <ele>101</ele>
        <time>2012-05-19T17:11:20.000Z</time>
      </trkpt>
      <trkpt lat="44.37686" lon="4.42531">
        <ele>100.40000152588</ele>
        <time>2012-05-19T17:11:21.000Z</time>
      </trkpt>
      <trkpt lat="44.37688" lon="4.42546">
        <ele>99.599998474121</ele>
        <time>2012-05-19T17:11:23.000Z</time>
      </trkpt>
      <trkpt lat="44.37693" lon="4.4257">
        <ele>98.400001525879</ele>
        <time>2012-05-19T17:11:26.000Z</time>
      </trkpt>
      <trkpt lat="44.37704" lon="4.42593">
        <ele>98.400001525879</ele>
        <time>2012-05-19T17:11:29.000Z</time>
      </trkpt>
      <trkpt lat="44.37712" lon="4.42611">
        <ele>98.599998474121</ele>
        <time>2012-05-19T17:11:31.000Z</time>
      </trkpt>
      <trkpt lat="44.37726" lon="4.42641">
        <ele>99</ele>
        <time>2012-05-19T17:11:34.000Z</time>
      </trkpt>
      <trkpt lat="44.37735" lon="4.42661">
        <ele>99</ele>
        <time>2012-05-19T17:11:36.000Z</time>
      </trkpt>
      <trkpt lat="44.37749" lon="4.42691">
        <ele>98.400001525879</ele>
        <time>2012-05-19T17:11:39.000Z</time>
      </trkpt>
      <trkpt lat="44.37763" lon="4.42722">
        <ele>99.400001525879</ele>
        <time>2012-05-19T17:11:42.000Z</time>
      </trkpt>
      <trkpt lat="44.37771" lon="4.4274">
        <ele>100</ele>
        <time>2012-05-19T17:11:44.000Z</time>
      </trkpt>
      <trkpt lat="44.37773" lon="4.42749">
        <ele>99.599998474121</ele>
        <time>2012-05-19T17:11:45.000Z</time>
      </trkpt>
      <trkpt lat="44.37779" lon="4.42778">
        <ele>98.599998474121</ele>
        <time>2012-05-19T17:11:48.000Z</time>
      </trkpt>
      <trkpt lat="44.37781" lon="4.42787">
        <ele>98</ele>
        <time>2012-05-19T17:11:49.000Z</time>
      </trkpt>
      <trkpt lat="44.37782" lon="4.42799">
        <ele>96.800003051758</ele>
        <time>2012-05-19T17:11:51.000Z</time>
      </trkpt>
      <trkpt lat="44.37781" lon="4.42802">
        <ele>96.400001525879</ele>
        <time>2012-05-19T17:11:52.000Z</time>
      </trkpt>
      <trkpt lat="44.37775" lon="4.42801">
        <ele>95.199996948242</ele>
        <time>2012-05-19T17:11:55.000Z</time>
      </trkpt>
      <trkpt lat="44.37774" lon="4.428">
        <ele>95</ele>
        <time>2012-05-19T17:11:56.000Z</time>
      </trkpt>
      <trkpt lat="44.37773" lon="4.42799">
        <ele>94.599998474121</ele>
        <time>2012-05-19T17:12:00.000Z</time>
      </trkpt>
      <trkpt lat="44.37766" lon="4.42788">
        <ele>93.800003051758</ele>
        <time>2012-05-19T17:12:04.000Z</time>
      </trkpt>
      <trkpt lat="44.37755" lon="4.42778">
        <ele>91.800003051758</ele>
        <time>2012-05-19T17:12:10.000Z</time>
      </trkpt>
      <trkpt lat="44.37753" lon="4.42778">
        <ele>91.400001525879</ele>
        <time>2012-05-19T17:12:13.000Z</time>
      </trkpt>
      <trkpt lat="44.37754" lon="4.42778">
        <ele>91.599998474121</ele>
        <time>2012-05-19T17:12:15.000Z</time>
      </trkpt>
      <trkpt lat="44.37757" lon="4.42776">
        <ele>92.800003051758</ele>
        <time>2012-05-19T17:12:28.000Z</time>
      </trkpt>
      <trkpt lat="44.37763" lon="4.42779">
        <ele>94</ele>
        <time>2012-05-19T17:12:34.000Z</time>
      </trkpt>
      <trkpt lat="44.37764" lon="4.42781">
        <ele>94.199996948242</ele>
        <time>2012-05-19T17:12:35.000Z</time>
      </trkpt>
      <trkpt lat="44.37766" lon="4.42786">
        <ele>94</ele>
        <time>2012-05-19T17:12:38.000Z</time>
      </trkpt>
      <trkpt lat="44.37767" lon="4.42796">
        <ele>93.599998474121</ele>
        <time>2012-05-19T17:12:43.000Z</time>
      </trkpt>
      <trkpt lat="44.37768" lon="4.42809">
        <ele>92.400001525879</ele>
        <time>2012-05-19T17:12:51.000Z</time>
      </trkpt>
      <trkpt lat="44.37767" lon="4.42813">
        <ele>91.800003051758</ele>
        <time>2012-05-19T17:12:55.000Z</time>
      </trkpt>
      <trkpt lat="44.37767" lon="4.42813">
        <ele>91.800003051758</ele>
        <time>2012-05-19T17:12:58.000Z</time>
      </trkpt>
      <trkpt lat="44.37765" lon="4.4281">
        <ele>91.599998474121</ele>
        <time>2012-05-19T17:14:06.000Z</time>
      </trkpt>
      <trkpt lat="44.37764" lon="4.42793">
        <ele>93</ele>
        <time>2012-05-19T17:14:11.000Z</time>
      </trkpt>
      <trkpt lat="44.37754" lon="4.42779">
        <ele>91.800003051758</ele>
        <time>2012-05-19T17:14:15.000Z</time>
      </trkpt>
      <trkpt lat="44.37742" lon="4.42786">
        <ele>89.199996948242</ele>
        <time>2012-05-19T17:14:18.000Z</time>
      </trkpt>
      <trkpt lat="44.37733" lon="4.42811">
        <ele>86.599998474121</ele>
        <time>2012-05-19T17:14:22.000Z</time>
      </trkpt>
      <trkpt lat="44.37736" lon="4.42832">
        <ele>85.400001525879</ele>
        <time>2012-05-19T17:14:26.000Z</time>
      </trkpt>
      <trkpt lat="44.37745" lon="4.42838">
        <ele>85.599998474121</ele>
        <time>2012-05-19T17:14:30.000Z</time>
      </trkpt>
      <trkpt lat="44.37748" lon="4.42835">
        <ele>85.800003051758</ele>
        <time>2012-05-19T17:14:34.000Z</time>
      </trkpt>
      <trkpt lat="44.37749" lon="4.42833">
        <ele>86</ele>
        <time>2012-05-19T17:14:56.000Z</time>
      </trkpt>
      <trkpt lat="44.3775" lon="4.42837">
        <ele>86</ele>
        <time>2012-05-19T17:15:04.000Z</time>
      </trkpt>
      <trkpt lat="44.3775" lon="4.4284">
        <ele>85.599998474121</ele>
        <time>2012-05-19T17:15:08.000Z</time>
      </trkpt>
      <trkpt lat="44.3775" lon="4.42841">
        <ele>85.599998474121</ele>
        <time>2012-05-19T17:15:11.000Z</time>
      </trkpt>
      <trkpt lat="44.37746" lon="4.42836">
        <ele>85.800003051758</ele>
        <time>2012-05-19T17:15:22.000Z</time>
      </trkpt>
      <trkpt lat="44.37746" lon="4.42836">
        <ele>85.800003051758</ele>
        <time>2012-05-19T17:15:29.000Z</time>
      </trkpt>
      <trkpt lat="44.37746" lon="4.42836">
        <ele>85.599998474121</ele>
        <time>2012-05-19T17:15:33.000Z</time>
      </trkpt>
    </trkseg>
  </trk>
</gpx>